<?xml version='1.0' encoding='UTF-8'?><gpx version="1.1" creator="JPX - https://github.com/jenetics/jpx" xmlns="http://www.topografix.com/GPX/1/1"><trk><trkseg><trkpt lat="43.6584813" lon="11.1885433"><ele>305.0</ele><time>2026-04-12T06:40:49.137Z</time></trkpt><trkpt lat="43.6584339" lon="11.1884668"><ele>305.0</ele><time>2026-04-12T06:40:51.136Z</time></trkpt><trkpt lat="43.6583484" lon="11.1884222"><ele>305.0</ele><time>2026-04-12T06:40:53.137Z</time></trkpt><trkpt lat="43.6582859" lon="11.1884064"><ele>305.0</ele><time>2026-04-12T06:40:54.136Z</time></trkpt><trkpt lat="43.6582135" lon="11.1883772"><ele>305.0</ele><time>2026-04-12T06:40:55.135Z</time></trkpt><trkpt lat="43.6581263" lon="11.1883385"><ele>305.0</ele><time>2026-04-12T06:40:56.137Z</time></trkpt><trkpt lat="43.6580391" lon="11.1883"><ele>305.0</ele><time>2026-04-12T06:40:57.136Z</time></trkpt><trkpt lat="43.6579421" lon="11.1882499"><ele>305.0</ele><time>2026-04-12T06:40:58.137Z</time></trkpt><trkpt lat="43.6578354" lon="11.1881981"><ele>305.0</ele><time>2026-04-12T06:40:59.137Z</time></trkpt><trkpt lat="43.657719" lon="11.1881393"><ele>305.0</ele><time>2026-04-12T06:41:00.138Z</time></trkpt><trkpt lat="43.6575982" lon="11.1880744"><ele>306.0</ele><time>2026-04-12T06:41:01.137Z</time></trkpt><trkpt lat="43.6574624" lon="11.1880034"><ele>307.0</ele><time>2026-04-12T06:41:02.137Z</time></trkpt><trkpt lat="43.6573231" lon="11.1879422"><ele>308.0</ele><time>2026-04-12T06:41:03.135Z</time></trkpt><trkpt lat="43.6571842" lon="11.1878714"><ele>309.0</ele><time>2026-04-12T06:41:04.138Z</time></trkpt><trkpt lat="43.6570428" lon="11.187795"><ele>308.0</ele><time>2026-04-12T06:41:05.137Z</time></trkpt><trkpt lat="43.6568965" lon="11.1877199"><ele>307.0</ele><time>2026-04-12T06:41:06.137Z</time></trkpt><trkpt lat="43.6567472" lon="11.1876479"><ele>306.0</ele><time>2026-04-12T06:41:07.138Z</time></trkpt><trkpt lat="43.6565934" lon="11.1875849"><ele>306.0</ele><time>2026-04-12T06:41:08.136Z</time></trkpt><trkpt lat="43.6564442" lon="11.1875292"><ele>306.0</ele><time>2026-04-12T06:41:09.136Z</time></trkpt><trkpt lat="43.6563056" lon="11.1874873"><ele>306.0</ele><time>2026-04-12T06:41:10.137Z</time></trkpt><trkpt lat="43.6561812" lon="11.1874628"><ele>306.0</ele><time>2026-04-12T06:41:11.137Z</time></trkpt><trkpt lat="43.6560681" lon="11.1874485"><ele>305.40000000000003</ele><time>2026-04-12T06:41:12.138Z</time></trkpt><trkpt lat="43.6559677" lon="11.1874415"><ele>304.8</ele><time>2026-04-12T06:41:13.137Z</time></trkpt><trkpt lat="43.655879" lon="11.1874485"><ele>304.20000000000005</ele><time>2026-04-12T06:41:14.138Z</time></trkpt><trkpt lat="43.6557987" lon="11.1874536"><ele>303.6</ele><time>2026-04-12T06:41:15.136Z</time></trkpt><trkpt lat="43.6557258" lon="11.1874623"><ele>303.0</ele><time>2026-04-12T06:41:16.137Z</time></trkpt><trkpt lat="43.6556149" lon="11.187473"><ele>303.0</ele><time>2026-04-12T06:41:18.137Z</time></trkpt><trkpt lat="43.6555407" lon="11.1876023"><ele>303.0</ele><time>2026-04-12T06:41:20.137Z</time></trkpt><trkpt lat="43.6555165" lon="11.187712"><ele>303.0</ele><time>2026-04-12T06:41:21.136Z</time></trkpt><trkpt lat="43.655476" lon="11.1878321"><ele>303.0</ele><time>2026-04-12T06:41:22.137Z</time></trkpt><trkpt lat="43.655429" lon="11.1879772"><ele>303.0</ele><time>2026-04-12T06:41:23.137Z</time></trkpt><trkpt lat="43.655387" lon="11.1881312"><ele>301.5</ele><time>2026-04-12T06:41:24.137Z</time></trkpt><trkpt lat="43.6553516" lon="11.1883043"><ele>300.0</ele><time>2026-04-12T06:41:25.137Z</time></trkpt><trkpt lat="43.6553292" lon="11.188488"><ele>298.5</ele><time>2026-04-12T06:41:26.137Z</time></trkpt><trkpt lat="43.6553206" lon="11.1886701"><ele>297.0</ele><time>2026-04-12T06:41:27.137Z</time></trkpt><trkpt lat="43.6553174" lon="11.1888612"><ele>296.25</ele><time>2026-04-12T06:41:28.136Z</time></trkpt><trkpt lat="43.6553159" lon="11.1890447"><ele>295.5</ele><time>2026-04-12T06:41:29.136Z</time></trkpt><trkpt lat="43.6553096" lon="11.1892133"><ele>294.75</ele><time>2026-04-12T06:41:30.138Z</time></trkpt><trkpt lat="43.6552955" lon="11.1893762"><ele>294.0</ele><time>2026-04-12T06:41:31.136Z</time></trkpt><trkpt lat="43.6552605" lon="11.1895325"><ele>295.75</ele><time>2026-04-12T06:41:32.136Z</time></trkpt><trkpt lat="43.6552017" lon="11.1896716"><ele>297.5</ele><time>2026-04-12T06:41:33.136Z</time></trkpt><trkpt lat="43.6551495" lon="11.1898163"><ele>299.25</ele><time>2026-04-12T06:41:34.137Z</time></trkpt><trkpt lat="43.655138" lon="11.1899784"><ele>301.0</ele><time>2026-04-12T06:41:35.138Z</time></trkpt><trkpt lat="43.6551478" lon="11.1901469"><ele>301.0</ele><time>2026-04-12T06:41:36.137Z</time></trkpt><trkpt lat="43.6551541" lon="11.19033"><ele>301.0</ele><time>2026-04-12T06:41:37.138Z</time></trkpt><trkpt lat="43.6551552" lon="11.1905234"><ele>301.0</ele><time>2026-04-12T06:41:38.137Z</time></trkpt><trkpt lat="43.6551605" lon="11.190733"><ele>301.0</ele><time>2026-04-12T06:41:39.138Z</time></trkpt><trkpt lat="43.6551581" lon="11.190936"><ele>299.25</ele><time>2026-04-12T06:41:40.136Z</time></trkpt><trkpt lat="43.6551397" lon="11.1911342"><ele>297.5</ele><time>2026-04-12T06:41:41.138Z</time></trkpt><trkpt lat="43.655103" lon="11.1913355"><ele>295.75</ele><time>2026-04-12T06:41:42.138Z</time></trkpt><trkpt lat="43.6550426" lon="11.191531"><ele>294.0</ele><time>2026-04-12T06:41:43.136Z</time></trkpt><trkpt lat="43.6549711" lon="11.1917354"><ele>293.0</ele><time>2026-04-12T06:41:44.136Z</time></trkpt><trkpt lat="43.6548895" lon="11.1919388"><ele>292.0</ele><time>2026-04-12T06:41:45.136Z</time></trkpt><trkpt lat="43.6548089" lon="11.1921431"><ele>291.0</ele><time>2026-04-12T06:41:46.138Z</time></trkpt><trkpt lat="43.6547292" lon="11.1923563"><ele>291.0</ele><time>2026-04-12T06:41:47.136Z</time></trkpt><trkpt lat="43.6546475" lon="11.1925647"><ele>291.0</ele><time>2026-04-12T06:41:48.137Z</time></trkpt><trkpt lat="43.6545694" lon="11.1927668"><ele>291.0</ele><time>2026-04-12T06:41:49.138Z</time></trkpt><trkpt lat="43.6544912" lon="11.1929643"><ele>288.6666666666667</ele><time>2026-04-12T06:41:50.137Z</time></trkpt><trkpt lat="43.6544169" lon="11.193149"><ele>286.33333333333337</ele><time>2026-04-12T06:41:51.136Z</time></trkpt><trkpt lat="43.6543456" lon="11.1933335"><ele>284.0</ele><time>2026-04-12T06:41:52.137Z</time></trkpt><trkpt lat="43.6542719" lon="11.1935165"><ele>284.0</ele><time>2026-04-12T06:41:53.136Z</time></trkpt><trkpt lat="43.6541935" lon="11.1937037"><ele>284.0</ele><time>2026-04-12T06:41:54.138Z</time></trkpt><trkpt lat="43.6541205" lon="11.1938885"><ele>284.0</ele><time>2026-04-12T06:41:55.138Z</time></trkpt><trkpt lat="43.6540485" lon="11.1940791"><ele>284.6666666666667</ele><time>2026-04-12T06:41:56.137Z</time></trkpt><trkpt lat="43.6539774" lon="11.1942732"><ele>285.3333333333333</ele><time>2026-04-12T06:41:57.137Z</time></trkpt><trkpt lat="43.6538897" lon="11.1944507"><ele>286.0</ele><time>2026-04-12T06:41:58.138Z</time></trkpt><trkpt lat="43.6537789" lon="11.1946059"><ele>286.0</ele><time>2026-04-12T06:41:59.137Z</time></trkpt><trkpt lat="43.6536547" lon="11.1947457"><ele>286.0</ele><time>2026-04-12T06:42:00.137Z</time></trkpt><trkpt lat="43.6535214" lon="11.1948858"><ele>286.0</ele><time>2026-04-12T06:42:01.137Z</time></trkpt><trkpt lat="43.6533792" lon="11.1950289"><ele>286.0</ele><time>2026-04-12T06:42:02.137Z</time></trkpt><trkpt lat="43.6532278" lon="11.1951693"><ele>286.0</ele><time>2026-04-12T06:42:03.138Z</time></trkpt><trkpt lat="43.6530699" lon="11.1952998"><ele>286.0</ele><time>2026-04-12T06:42:04.137Z</time></trkpt><trkpt lat="43.652896" lon="11.1954142"><ele>286.66666666666663</ele><time>2026-04-12T06:42:05.138Z</time></trkpt><trkpt lat="43.6527129" lon="11.1955112"><ele>287.3333333333333</ele><time>2026-04-12T06:42:06.137Z</time></trkpt><trkpt lat="43.6525364" lon="11.1956281"><ele>288.0</ele><time>2026-04-12T06:42:07.136Z</time></trkpt><trkpt lat="43.6523729" lon="11.1957675"><ele>289.6666666666667</ele><time>2026-04-12T06:42:08.138Z</time></trkpt><trkpt lat="43.6522267" lon="11.1959166"><ele>291.33333333333337</ele><time>2026-04-12T06:42:09.136Z</time></trkpt><trkpt lat="43.6520802" lon="11.1960669"><ele>293.0</ele><time>2026-04-12T06:42:10.136Z</time></trkpt><trkpt lat="43.6519349" lon="11.1962093"><ele>295.6666666666667</ele><time>2026-04-12T06:42:11.138Z</time></trkpt><trkpt lat="43.6517887" lon="11.1963269"><ele>298.3333333333333</ele><time>2026-04-12T06:42:12.136Z</time></trkpt><trkpt lat="43.6516342" lon="11.1964139"><ele>301.0</ele><time>2026-04-12T06:42:13.137Z</time></trkpt><trkpt lat="43.6514753" lon="11.1964781"><ele>300.66666666666663</ele><time>2026-04-12T06:42:14.138Z</time></trkpt><trkpt lat="43.6513095" lon="11.1965491"><ele>300.3333333333333</ele><time>2026-04-12T06:42:15.137Z</time></trkpt><trkpt lat="43.6511318" lon="11.1966121"><ele>300.0</ele><time>2026-04-12T06:42:16.137Z</time></trkpt><trkpt lat="43.6509508" lon="11.1967017"><ele>300.0</ele><time>2026-04-12T06:42:17.136Z</time></trkpt><trkpt lat="43.6507592" lon="11.1967955"><ele>300.0</ele><time>2026-04-12T06:42:18.137Z</time></trkpt><trkpt lat="43.6505611" lon="11.196889"><ele>300.0</ele><time>2026-04-12T06:42:19.138Z</time></trkpt><trkpt lat="43.6503678" lon="11.1969776"><ele>299.6666666666667</ele><time>2026-04-12T06:42:20.137Z</time></trkpt><trkpt lat="43.6501841" lon="11.197075"><ele>299.33333333333337</ele><time>2026-04-12T06:42:21.137Z</time></trkpt><trkpt lat="43.6500111" lon="11.1971618"><ele>299.0</ele><time>2026-04-12T06:42:22.136Z</time></trkpt><trkpt lat="43.6498553" lon="11.1972435"><ele>299.0</ele><time>2026-04-12T06:42:23.138Z</time></trkpt><trkpt lat="43.6497177" lon="11.1973333"><ele>299.0</ele><time>2026-04-12T06:42:24.137Z</time></trkpt><trkpt lat="43.6496065" lon="11.1974545"><ele>299.0</ele><time>2026-04-12T06:42:25.138Z</time></trkpt><trkpt lat="43.6495247" lon="11.1976181"><ele>299.0</ele><time>2026-04-12T06:42:26.137Z</time></trkpt><trkpt lat="43.6494704" lon="11.1978156"><ele>297.6666666666667</ele><time>2026-04-12T06:42:27.137Z</time></trkpt><trkpt lat="43.6494344" lon="11.1980325"><ele>296.3333333333333</ele><time>2026-04-12T06:42:28.137Z</time></trkpt><trkpt lat="43.6494163" lon="11.1982677"><ele>295.0</ele><time>2026-04-12T06:42:29.137Z</time></trkpt><trkpt lat="43.6494164" lon="11.1985047"><ele>293.3333333333333</ele><time>2026-04-12T06:42:30.137Z</time></trkpt><trkpt lat="43.6494258" lon="11.1987444"><ele>291.6666666666667</ele><time>2026-04-12T06:42:31.137Z</time></trkpt><trkpt lat="43.6494384" lon="11.1989881"><ele>290.0</ele><time>2026-04-12T06:42:32.138Z</time></trkpt><trkpt lat="43.6494547" lon="11.1992446"><ele>290.0</ele><time>2026-04-12T06:42:33.137Z</time></trkpt><trkpt lat="43.6494502" lon="11.1995046"><ele>290.0</ele><time>2026-04-12T06:42:34.137Z</time></trkpt><trkpt lat="43.6494225" lon="11.1997672"><ele>290.0</ele><time>2026-04-12T06:42:35.137Z</time></trkpt><trkpt lat="43.6493435" lon="11.2000192"><ele>290.0</ele><time>2026-04-12T06:42:36.136Z</time></trkpt><trkpt lat="43.6492349" lon="11.2002518"><ele>290.0</ele><time>2026-04-12T06:42:37.137Z</time></trkpt><trkpt lat="43.6491164" lon="11.2004683"><ele>290.0</ele><time>2026-04-12T06:42:38.138Z</time></trkpt><trkpt lat="43.6489944" lon="11.2006809"><ele>292.0</ele><time>2026-04-12T06:42:39.136Z</time></trkpt><trkpt lat="43.648871" lon="11.2008915"><ele>294.0</ele><time>2026-04-12T06:42:40.136Z</time></trkpt><trkpt lat="43.6487473" lon="11.2010983"><ele>296.0</ele><time>2026-04-12T06:42:41.137Z</time></trkpt><trkpt lat="43.648621" lon="11.201295"><ele>296.6666666666667</ele><time>2026-04-12T06:42:42.137Z</time></trkpt><trkpt lat="43.6484967" lon="11.2014834"><ele>297.3333333333333</ele><time>2026-04-12T06:42:43.139Z</time></trkpt><trkpt lat="43.6483742" lon="11.201677"><ele>298.0</ele><time>2026-04-12T06:42:44.137Z</time></trkpt><trkpt lat="43.6482679" lon="11.2018827"><ele>298.0</ele><time>2026-04-12T06:42:45.136Z</time></trkpt><trkpt lat="43.6481684" lon="11.2021011"><ele>298.0</ele><time>2026-04-12T06:42:46.138Z</time></trkpt><trkpt lat="43.6480799" lon="11.2023367"><ele>298.0</ele><time>2026-04-12T06:42:47.137Z</time></trkpt><trkpt lat="43.6479975" lon="11.2025783"><ele>295.3333333333333</ele><time>2026-04-12T06:42:48.137Z</time></trkpt><trkpt lat="43.6479227" lon="11.2028188"><ele>292.6666666666667</ele><time>2026-04-12T06:42:49.136Z</time></trkpt><trkpt lat="43.6478523" lon="11.2030556"><ele>290.0</ele><time>2026-04-12T06:42:50.137Z</time></trkpt><trkpt lat="43.6477974" lon="11.2032992"><ele>291.33333333333337</ele><time>2026-04-12T06:42:51.137Z</time></trkpt><trkpt lat="43.6477726" lon="11.2035389"><ele>292.6666666666667</ele><time>2026-04-12T06:42:52.137Z</time></trkpt><trkpt lat="43.6477852" lon="11.2037649"><ele>294.0</ele><time>2026-04-12T06:42:53.138Z</time></trkpt><trkpt lat="43.647817" lon="11.2039736"><ele>293.0</ele><time>2026-04-12T06:42:54.138Z</time></trkpt><trkpt lat="43.6478555" lon="11.2041573"><ele>292.0</ele><time>2026-04-12T06:42:55.138Z</time></trkpt><trkpt lat="43.6478938" lon="11.20433"><ele>291.0</ele><time>2026-04-12T06:42:56.137Z</time></trkpt><trkpt lat="43.6479387" lon="11.2044709"><ele>290.0</ele><time>2026-04-12T06:42:57.137Z</time></trkpt><trkpt lat="43.6479967" lon="11.2046003"><ele>290.0</ele><time>2026-04-12T06:42:58.137Z</time></trkpt><trkpt lat="43.6480656" lon="11.2047345"><ele>290.0</ele><time>2026-04-12T06:42:59.136Z</time></trkpt><trkpt lat="43.6481401" lon="11.204875"><ele>290.0</ele><time>2026-04-12T06:43:00.138Z</time></trkpt><trkpt lat="43.6482101" lon="11.2050123"><ele>290.0</ele><time>2026-04-12T06:43:01.137Z</time></trkpt><trkpt lat="43.6482805" lon="11.2051503"><ele>291.4</ele><time>2026-04-12T06:43:02.137Z</time></trkpt><trkpt lat="43.6483506" lon="11.2052887"><ele>292.8</ele><time>2026-04-12T06:43:03.139Z</time></trkpt><trkpt lat="43.6484104" lon="11.2054132"><ele>294.2</ele><time>2026-04-12T06:43:04.136Z</time></trkpt><trkpt lat="43.6484682" lon="11.2055439"><ele>295.6</ele><time>2026-04-12T06:43:05.136Z</time></trkpt><trkpt lat="43.6485111" lon="11.2056371"><ele>297.0</ele><time>2026-04-12T06:43:06.136Z</time></trkpt><trkpt lat="43.6485488" lon="11.2057201"><ele>297.3333333333333</ele><time>2026-04-12T06:43:07.137Z</time></trkpt><trkpt lat="43.6485824" lon="11.205801"><ele>297.6666666666667</ele><time>2026-04-12T06:43:08.137Z</time></trkpt><trkpt lat="43.6486215" lon="11.205886"><ele>298.0</ele><time>2026-04-12T06:43:09.137Z</time></trkpt><trkpt lat="43.6486651" lon="11.2060406"><ele>298.33333333333337</ele><time>2026-04-12T06:43:11.139Z</time></trkpt><trkpt lat="43.6486792" lon="11.2061509"><ele>298.6666666666667</ele><time>2026-04-12T06:43:13.137Z</time></trkpt><trkpt lat="43.6487406" lon="11.2061834"><ele>299.0</ele><time>2026-04-12T06:43:16.139Z</time></trkpt><trkpt lat="43.648835" lon="11.2061681"><ele>299.0</ele><time>2026-04-12T06:43:28.139Z</time></trkpt><trkpt lat="43.648945" lon="11.2061335"><ele>299.0</ele><time>2026-04-12T06:43:30.138Z</time></trkpt><trkpt lat="43.6490072" lon="11.2061085"><ele>299.0</ele><time>2026-04-12T06:43:31.138Z</time></trkpt><trkpt lat="43.6490791" lon="11.2060784"><ele>299.0</ele><time>2026-04-12T06:43:32.139Z</time></trkpt><trkpt lat="43.6491519" lon="11.2060491"><ele>299.0</ele><time>2026-04-12T06:43:33.138Z</time></trkpt><trkpt lat="43.6492272" lon="11.2060294"><ele>299.0</ele><time>2026-04-12T06:43:34.138Z</time></trkpt><trkpt lat="43.6493019" lon="11.2060043"><ele>299.0</ele><time>2026-04-12T06:43:35.138Z</time></trkpt><trkpt lat="43.6493768" lon="11.205997"><ele>299.0</ele><time>2026-04-12T06:43:36.139Z</time></trkpt><trkpt lat="43.6494428" lon="11.2059999"><ele>299.0</ele><time>2026-04-12T06:43:37.137Z</time></trkpt><trkpt lat="43.6495059" lon="11.2060174"><ele>299.0</ele><time>2026-04-12T06:43:38.137Z</time></trkpt><trkpt lat="43.6495744" lon="11.206049"><ele>299.0</ele><time>2026-04-12T06:43:39.136Z</time></trkpt><trkpt lat="43.64965" lon="11.206086"><ele>299.0</ele><time>2026-04-12T06:43:40.137Z</time></trkpt><trkpt lat="43.6497298" lon="11.2061288"><ele>299.0</ele><time>2026-04-12T06:43:41.138Z</time></trkpt><trkpt lat="43.6498024" lon="11.2061768"><ele>297.59999999999997</ele><time>2026-04-12T06:43:42.136Z</time></trkpt><trkpt lat="43.6498802" lon="11.2062265"><ele>296.2</ele><time>2026-04-12T06:43:43.137Z</time></trkpt><trkpt lat="43.6499619" lon="11.2062919"><ele>294.79999999999995</ele><time>2026-04-12T06:43:44.137Z</time></trkpt><trkpt lat="43.6500531" lon="11.2063617"><ele>293.4</ele><time>2026-04-12T06:43:45.137Z</time></trkpt><trkpt lat="43.6501522" lon="11.2064438"><ele>292.0</ele><time>2026-04-12T06:43:46.139Z</time></trkpt><trkpt lat="43.6502578" lon="11.206532"><ele>289.75</ele><time>2026-04-12T06:43:47.138Z</time></trkpt><trkpt lat="43.6503673" lon="11.2066221"><ele>287.5</ele><time>2026-04-12T06:43:48.137Z</time></trkpt><trkpt lat="43.650482" lon="11.2067107"><ele>285.25</ele><time>2026-04-12T06:43:49.138Z</time></trkpt><trkpt lat="43.6506021" lon="11.2068106"><ele>283.0</ele><time>2026-04-12T06:43:50.138Z</time></trkpt><trkpt lat="43.6507329" lon="11.2069192"><ele>283.0</ele><time>2026-04-12T06:43:51.139Z</time></trkpt><trkpt lat="43.6508533" lon="11.207026"><ele>283.0</ele><time>2026-04-12T06:43:52.138Z</time></trkpt><trkpt lat="43.6509679" lon="11.2071258"><ele>283.0</ele><time>2026-04-12T06:43:53.136Z</time></trkpt><trkpt lat="43.65108" lon="11.2072269"><ele>283.0</ele><time>2026-04-12T06:43:54.139Z</time></trkpt><trkpt lat="43.6511917" lon="11.207322"><ele>282.5</ele><time>2026-04-12T06:43:55.138Z</time></trkpt><trkpt lat="43.6513065" lon="11.2074171"><ele>282.0</ele><time>2026-04-12T06:43:56.137Z</time></trkpt><trkpt lat="43.6514244" lon="11.2075209"><ele>281.5</ele><time>2026-04-12T06:43:57.137Z</time></trkpt><trkpt lat="43.6515427" lon="11.2076233"><ele>281.0</ele><time>2026-04-12T06:43:58.137Z</time></trkpt><trkpt lat="43.6516666" lon="11.2077287"><ele>281.0</ele><time>2026-04-12T06:43:59.137Z</time></trkpt><trkpt lat="43.6517935" lon="11.2078354"><ele>281.0</ele><time>2026-04-12T06:44:00.137Z</time></trkpt><trkpt lat="43.6519103" lon="11.2079404"><ele>281.0</ele><time>2026-04-12T06:44:01.136Z</time></trkpt><trkpt lat="43.6520303" lon="11.208047"><ele>281.0</ele><time>2026-04-12T06:44:02.138Z</time></trkpt><trkpt lat="43.6521492" lon="11.208153"><ele>279.25</ele><time>2026-04-12T06:44:03.137Z</time></trkpt><trkpt lat="43.6522736" lon="11.2082573"><ele>277.5</ele><time>2026-04-12T06:44:04.137Z</time></trkpt><trkpt lat="43.6523927" lon="11.2083546"><ele>275.75</ele><time>2026-04-12T06:44:05.137Z</time></trkpt><trkpt lat="43.6525006" lon="11.2084373"><ele>274.0</ele><time>2026-04-12T06:44:06.137Z</time></trkpt><trkpt lat="43.652605" lon="11.2085288"><ele>274.0</ele><time>2026-04-12T06:44:07.136Z</time></trkpt><trkpt lat="43.6527032" lon="11.2086233"><ele>274.0</ele><time>2026-04-12T06:44:08.138Z</time></trkpt><trkpt lat="43.6528056" lon="11.2087115"><ele>274.0</ele><time>2026-04-12T06:44:09.137Z</time></trkpt><trkpt lat="43.6529129" lon="11.2087965"><ele>274.0</ele><time>2026-04-12T06:44:10.137Z</time></trkpt><trkpt lat="43.653014" lon="11.2088801"><ele>271.8</ele><time>2026-04-12T06:44:11.137Z</time></trkpt><trkpt lat="43.6531022" lon="11.2089611"><ele>269.59999999999997</ele><time>2026-04-12T06:44:12.137Z</time></trkpt><trkpt lat="43.65318" lon="11.2090486"><ele>267.4</ele><time>2026-04-12T06:44:13.137Z</time></trkpt><trkpt lat="43.6532486" lon="11.2091356"><ele>265.2</ele><time>2026-04-12T06:44:14.136Z</time></trkpt><trkpt lat="43.6533162" lon="11.2092228"><ele>263.0</ele><time>2026-04-12T06:44:15.138Z</time></trkpt><trkpt lat="43.6533843" lon="11.2093101"><ele>263.0</ele><time>2026-04-12T06:44:16.137Z</time></trkpt><trkpt lat="43.6534528" lon="11.209395"><ele>263.0</ele><time>2026-04-12T06:44:17.138Z</time></trkpt><trkpt lat="43.6535134" lon="11.2094664"><ele>263.0</ele><time>2026-04-12T06:44:18.137Z</time></trkpt><trkpt lat="43.6535738" lon="11.2095408"><ele>263.0</ele><time>2026-04-12T06:44:19.137Z</time></trkpt><trkpt lat="43.6536401" lon="11.2096103"><ele>263.0</ele><time>2026-04-12T06:44:20.137Z</time></trkpt><trkpt lat="43.6537144" lon="11.2096677"><ele>263.0</ele><time>2026-04-12T06:44:21.138Z</time></trkpt><trkpt lat="43.6538036" lon="11.2097345"><ele>262.4</ele><time>2026-04-12T06:44:22.137Z</time></trkpt><trkpt lat="43.6538852" lon="11.2098045"><ele>261.8</ele><time>2026-04-12T06:44:23.137Z</time></trkpt><trkpt lat="43.6539526" lon="11.2098858"><ele>261.2</ele><time>2026-04-12T06:44:24.137Z</time></trkpt><trkpt lat="43.6540196" lon="11.2099801"><ele>260.6</ele><time>2026-04-12T06:44:25.138Z</time></trkpt><trkpt lat="43.6540901" lon="11.2100631"><ele>260.0</ele><time>2026-04-12T06:44:26.137Z</time></trkpt><trkpt lat="43.6541511" lon="11.2101372"><ele>261.0</ele><time>2026-04-12T06:44:27.137Z</time></trkpt><trkpt lat="43.6542111" lon="11.2102128"><ele>262.0</ele><time>2026-04-12T06:44:28.138Z</time></trkpt><trkpt lat="43.6542712" lon="11.2102827"><ele>263.0</ele><time>2026-04-12T06:44:29.137Z</time></trkpt><trkpt lat="43.6543478" lon="11.2103591"><ele>264.0</ele><time>2026-04-12T06:44:30.138Z</time></trkpt><trkpt lat="43.6544303" lon="11.2104366"><ele>265.0</ele><time>2026-04-12T06:44:31.138Z</time></trkpt><trkpt lat="43.6545075" lon="11.2105133"><ele>266.0</ele><time>2026-04-12T06:44:32.137Z</time></trkpt><trkpt lat="43.6545779" lon="11.2105861"><ele>266.0</ele><time>2026-04-12T06:44:33.137Z</time></trkpt><trkpt lat="43.6546419" lon="11.2106658"><ele>266.0</ele><time>2026-04-12T06:44:34.138Z</time></trkpt><trkpt lat="43.6547086" lon="11.2107719"><ele>266.0</ele><time>2026-04-12T06:44:35.136Z</time></trkpt><trkpt lat="43.6547731" lon="11.2108831"><ele>266.0</ele><time>2026-04-12T06:44:36.138Z</time></trkpt><trkpt lat="43.6548483" lon="11.2109965"><ele>266.0</ele><time>2026-04-12T06:44:37.138Z</time></trkpt><trkpt lat="43.6549231" lon="11.2111066"><ele>266.0</ele><time>2026-04-12T06:44:38.138Z</time></trkpt><trkpt lat="43.6549979" lon="11.2112226"><ele>266.0</ele><time>2026-04-12T06:44:39.138Z</time></trkpt><trkpt lat="43.6550861" lon="11.2113478"><ele>266.0</ele><time>2026-04-12T06:44:40.137Z</time></trkpt><trkpt lat="43.6551676" lon="11.2114766"><ele>266.0</ele><time>2026-04-12T06:44:41.137Z</time></trkpt><trkpt lat="43.6552467" lon="11.2115888"><ele>265.33333333333337</ele><time>2026-04-12T06:44:42.138Z</time></trkpt><trkpt lat="43.6553037" lon="11.2116954"><ele>264.6666666666667</ele><time>2026-04-12T06:44:43.138Z</time></trkpt><trkpt lat="43.6553452" lon="11.2117893"><ele>264.0</ele><time>2026-04-12T06:44:44.137Z</time></trkpt><trkpt lat="43.6553858" lon="11.2118668"><ele>263.3333333333333</ele><time>2026-04-12T06:44:45.138Z</time></trkpt><trkpt lat="43.6554492" lon="11.2119444"><ele>262.66666666666663</ele><time>2026-04-12T06:44:46.138Z</time></trkpt><trkpt lat="43.6555174" lon="11.2120015"><ele>262.0</ele><time>2026-04-12T06:44:47.139Z</time></trkpt><trkpt lat="43.6556085" lon="11.2120557"><ele>262.0</ele><time>2026-04-12T06:44:48.136Z</time></trkpt><trkpt lat="43.6557017" lon="11.2120962"><ele>262.0</ele><time>2026-04-12T06:44:49.136Z</time></trkpt><trkpt lat="43.655797" lon="11.2121226"><ele>262.0</ele><time>2026-04-12T06:44:50.137Z</time></trkpt><trkpt lat="43.6558983" lon="11.2121299"><ele>262.0</ele><time>2026-04-12T06:44:51.138Z</time></trkpt><trkpt lat="43.6560013" lon="11.2121336"><ele>262.0</ele><time>2026-04-12T06:44:52.137Z</time></trkpt><trkpt lat="43.6561094" lon="11.2121482"><ele>262.5</ele><time>2026-04-12T06:44:53.138Z</time></trkpt><trkpt lat="43.6562185" lon="11.21218"><ele>263.0</ele><time>2026-04-12T06:44:54.138Z</time></trkpt><trkpt lat="43.6563319" lon="11.2122064"><ele>263.5</ele><time>2026-04-12T06:44:55.138Z</time></trkpt><trkpt lat="43.6564531" lon="11.2122409"><ele>264.0</ele><time>2026-04-12T06:44:56.138Z</time></trkpt><trkpt lat="43.6565597" lon="11.2122728"><ele>260.0</ele><time>2026-04-12T06:44:57.138Z</time></trkpt><trkpt lat="43.6566816" lon="11.2123426"><ele>255.99999999999997</ele><time>2026-04-12T06:44:58.138Z</time></trkpt><trkpt lat="43.6567807" lon="11.2123872"><ele>251.99999999999997</ele><time>2026-04-12T06:44:59.136Z</time></trkpt><trkpt lat="43.6568744" lon="11.2124322"><ele>248.0</ele><time>2026-04-12T06:45:00.138Z</time></trkpt><trkpt lat="43.6569565" lon="11.2124789"><ele>244.0</ele><time>2026-04-12T06:45:01.138Z</time></trkpt><trkpt lat="43.6570312" lon="11.2125163"><ele>242.83333333333331</ele><time>2026-04-12T06:45:02.139Z</time></trkpt><trkpt lat="43.6571055" lon="11.2125578"><ele>241.66666666666666</ele><time>2026-04-12T06:45:03.136Z</time></trkpt><trkpt lat="43.657172" lon="11.2125947"><ele>240.5</ele><time>2026-04-12T06:45:04.138Z</time></trkpt><trkpt lat="43.6572522" lon="11.2126268"><ele>239.33333333333331</ele><time>2026-04-12T06:45:05.137Z</time></trkpt><trkpt lat="43.6573395" lon="11.2126471"><ele>238.16666666666666</ele><time>2026-04-12T06:45:06.137Z</time></trkpt><trkpt lat="43.6574256" lon="11.212659"><ele>237.0</ele><time>2026-04-12T06:45:07.137Z</time></trkpt><trkpt lat="43.6575134" lon="11.2126609"><ele>237.0</ele><time>2026-04-12T06:45:08.137Z</time></trkpt><trkpt lat="43.6576034" lon="11.2126402"><ele>237.0</ele><time>2026-04-12T06:45:09.138Z</time></trkpt><trkpt lat="43.6576822" lon="11.2126046"><ele>237.0</ele><time>2026-04-12T06:45:10.137Z</time></trkpt><trkpt lat="43.6577442" lon="11.2125575"><ele>237.0</ele><time>2026-04-12T06:45:11.138Z</time></trkpt><trkpt lat="43.6577999" lon="11.2125034"><ele>237.0</ele><time>2026-04-12T06:45:12.137Z</time></trkpt><trkpt lat="43.6578505" lon="11.2124316"><ele>237.0</ele><time>2026-04-12T06:45:13.138Z</time></trkpt><trkpt lat="43.6578968" lon="11.212366"><ele>236.8</ele><time>2026-04-12T06:45:14.138Z</time></trkpt><trkpt lat="43.6578796" lon="11.212174"><ele>236.6</ele><time>2026-04-12T06:45:16.138Z</time></trkpt><trkpt lat="43.6578749" lon="11.2120871"><ele>236.40000000000003</ele><time>2026-04-12T06:45:17.137Z</time></trkpt><trkpt lat="43.6579419" lon="11.2119773"><ele>236.20000000000002</ele><time>2026-04-12T06:45:19.138Z</time></trkpt><trkpt lat="43.6579955" lon="11.2118968"><ele>236.0</ele><time>2026-04-12T06:46:23.138Z</time></trkpt><trkpt lat="43.6580567" lon="11.2119298"><ele>236.0</ele><time>2026-04-12T06:46:25.136Z</time></trkpt><trkpt lat="43.6581573" lon="11.2120056"><ele>236.00000000000003</ele><time>2026-04-12T06:46:27.137Z</time></trkpt><trkpt lat="43.6582562" lon="11.2120824"><ele>236.00000000000003</ele><time>2026-04-12T06:46:29.139Z</time></trkpt><trkpt lat="43.6583396" lon="11.2121264"><ele>236.0</ele><time>2026-04-12T06:46:31.138Z</time></trkpt><trkpt lat="43.6584353" lon="11.2121335"><ele>236.0</ele><time>2026-04-12T06:46:33.139Z</time></trkpt><trkpt lat="43.6585444" lon="11.2120682"><ele>236.00000000000003</ele><time>2026-04-12T06:46:35.138Z</time></trkpt><trkpt lat="43.6585916" lon="11.2120031"><ele>236.0</ele><time>2026-04-12T06:46:36.138Z</time></trkpt><trkpt lat="43.6586412" lon="11.2119213"><ele>236.0</ele><time>2026-04-12T06:46:37.138Z</time></trkpt><trkpt lat="43.6586903" lon="11.2118391"><ele>236.0</ele><time>2026-04-12T06:46:38.137Z</time></trkpt><trkpt lat="43.6587349" lon="11.211751"><ele>236.00000000000003</ele><time>2026-04-12T06:46:39.139Z</time></trkpt><trkpt lat="43.6587952" lon="11.2116478"><ele>236.0</ele><time>2026-04-12T06:46:40.137Z</time></trkpt><trkpt lat="43.658863" lon="11.2115305"><ele>235.4</ele><time>2026-04-12T06:46:41.137Z</time></trkpt><trkpt lat="43.6589244" lon="11.2114098"><ele>234.8</ele><time>2026-04-12T06:46:42.138Z</time></trkpt><trkpt lat="43.6589811" lon="11.2113047"><ele>234.20000000000002</ele><time>2026-04-12T06:46:43.138Z</time></trkpt><trkpt lat="43.6590299" lon="11.2111958"><ele>233.60000000000002</ele><time>2026-04-12T06:46:44.137Z</time></trkpt><trkpt lat="43.659086" lon="11.2111091"><ele>233.0</ele><time>2026-04-12T06:46:45.137Z</time></trkpt><trkpt lat="43.6591455" lon="11.2110526"><ele>233.0</ele><time>2026-04-12T06:46:46.138Z</time></trkpt><trkpt lat="43.6592287" lon="11.2110038"><ele>233.0</ele><time>2026-04-12T06:46:47.139Z</time></trkpt><trkpt lat="43.6593269" lon="11.2109567"><ele>233.0</ele><time>2026-04-12T06:46:48.138Z</time></trkpt><trkpt lat="43.6594172" lon="11.2109299"><ele>233.0</ele><time>2026-04-12T06:46:49.138Z</time></trkpt><trkpt lat="43.6595145" lon="11.2108877"><ele>233.0</ele><time>2026-04-12T06:46:50.137Z</time></trkpt><trkpt lat="43.6596035" lon="11.2108606"><ele>229.0</ele><time>2026-04-12T06:46:51.137Z</time></trkpt><trkpt lat="43.6596897" lon="11.210844"><ele>225.0</ele><time>2026-04-12T06:46:52.137Z</time></trkpt><trkpt lat="43.6597998" lon="11.2108002"><ele>221.0</ele><time>2026-04-12T06:46:54.138Z</time></trkpt><trkpt lat="43.6599085" lon="11.2107276"><ele>217.0</ele><time>2026-04-12T06:46:56.139Z</time></trkpt><trkpt lat="43.6599778" lon="11.2106299"><ele>213.0</ele><time>2026-04-12T06:46:58.138Z</time></trkpt><trkpt lat="43.6600587" lon="11.2105322"><ele>213.0</ele><time>2026-04-12T06:47:00.138Z</time></trkpt><trkpt lat="43.6601131" lon="11.2104814"><ele>213.0</ele><time>2026-04-12T06:47:01.138Z</time></trkpt><trkpt lat="43.6601945" lon="11.2104137"><ele>213.0</ele><time>2026-04-12T06:47:03.138Z</time></trkpt><trkpt lat="43.6602934" lon="11.2103676"><ele>213.0</ele><time>2026-04-12T06:47:05.137Z</time></trkpt><trkpt lat="43.6603919" lon="11.2103597"><ele>213.0</ele><time>2026-04-12T06:47:07.138Z</time></trkpt><trkpt lat="43.660468" lon="11.2103882"><ele>213.0</ele><time>2026-04-12T06:47:09.138Z</time></trkpt><trkpt lat="43.6604886" lon="11.2104749"><ele>211.66666666666666</ele><time>2026-04-12T06:47:13.137Z</time></trkpt><trkpt lat="43.6604269" lon="11.2105079"><ele>210.33333333333331</ele><time>2026-04-12T06:47:16.138Z</time></trkpt><trkpt lat="43.6603542" lon="11.2105611"><ele>209.0</ele><time>2026-04-12T06:47:19.138Z</time></trkpt><trkpt lat="43.6602636" lon="11.2106736"><ele>207.66666666666666</ele><time>2026-04-12T06:47:22.139Z</time></trkpt><trkpt lat="43.6602285" lon="11.2107485"><ele>206.33333333333331</ele><time>2026-04-12T06:47:23.137Z</time></trkpt><trkpt lat="43.6601895" lon="11.2108295"><ele>205.0</ele><time>2026-04-12T06:47:24.138Z</time></trkpt><trkpt lat="43.6601225" lon="11.2109782"><ele>204.99999999999997</ele><time>2026-04-12T06:47:26.138Z</time></trkpt><trkpt lat="43.6600802" lon="11.2110626"><ele>205.0</ele><time>2026-04-12T06:47:27.137Z</time></trkpt><trkpt lat="43.660039" lon="11.2111415"><ele>205.0</ele><time>2026-04-12T06:47:28.138Z</time></trkpt><trkpt lat="43.659989" lon="11.2112185"><ele>205.0</ele><time>2026-04-12T06:47:29.139Z</time></trkpt><trkpt lat="43.6599245" lon="11.2112903"><ele>204.99999999999997</ele><time>2026-04-12T06:47:30.138Z</time></trkpt><trkpt lat="43.6598568" lon="11.2113666"><ele>205.0</ele><time>2026-04-12T06:47:31.138Z</time></trkpt><trkpt lat="43.6597698" lon="11.2114313"><ele>206.6</ele><time>2026-04-12T06:47:32.138Z</time></trkpt><trkpt lat="43.6596889" lon="11.2115087"><ele>208.2</ele><time>2026-04-12T06:47:33.137Z</time></trkpt><trkpt lat="43.6596187" lon="11.2116105"><ele>209.8</ele><time>2026-04-12T06:47:34.139Z</time></trkpt><trkpt lat="43.6595379" lon="11.2117308"><ele>211.4</ele><time>2026-04-12T06:47:35.138Z</time></trkpt><trkpt lat="43.6594524" lon="11.2118551"><ele>213.0</ele><time>2026-04-12T06:47:36.137Z</time></trkpt><trkpt lat="43.659383" lon="11.2119731"><ele>213.0</ele><time>2026-04-12T06:47:37.137Z</time></trkpt><trkpt lat="43.659321" lon="11.2120992"><ele>213.0</ele><time>2026-04-12T06:47:38.138Z</time></trkpt><trkpt lat="43.6592634" lon="11.2122482"><ele>213.0</ele><time>2026-04-12T06:47:39.138Z</time></trkpt><trkpt lat="43.6592156" lon="11.212397"><ele>213.0</ele><time>2026-04-12T06:47:40.139Z</time></trkpt><trkpt lat="43.6591655" lon="11.2125438"><ele>208.8</ele><time>2026-04-12T06:47:41.139Z</time></trkpt><trkpt lat="43.6591105" lon="11.2126478"><ele>204.60000000000002</ele><time>2026-04-12T06:47:42.138Z</time></trkpt><trkpt lat="43.6590483" lon="11.2127686"><ele>200.39999999999998</ele><time>2026-04-12T06:47:43.139Z</time></trkpt><trkpt lat="43.6589972" lon="11.2129092"><ele>196.2</ele><time>2026-04-12T06:47:44.138Z</time></trkpt><trkpt lat="43.6589517" lon="11.2130623"><ele>192.0</ele><time>2026-04-12T06:47:45.138Z</time></trkpt><trkpt lat="43.6588951" lon="11.2131857"><ele>190.16666666666666</ele><time>2026-04-12T06:47:46.138Z</time></trkpt><trkpt lat="43.6588276" lon="11.2132875"><ele>188.33333333333334</ele><time>2026-04-12T06:47:47.139Z</time></trkpt><trkpt lat="43.6587581" lon="11.2133703"><ele>186.5</ele><time>2026-04-12T06:47:48.138Z</time></trkpt><trkpt lat="43.6587151" lon="11.2134454"><ele>184.66666666666669</ele><time>2026-04-12T06:47:49.138Z</time></trkpt><trkpt lat="43.6587357" lon="11.21359"><ele>182.83333333333334</ele><time>2026-04-12T06:47:51.139Z</time></trkpt><trkpt lat="43.6587866" lon="11.2136666"><ele>181.0</ele><time>2026-04-12T06:47:52.137Z</time></trkpt><trkpt lat="43.6588513" lon="11.2137507"><ele>181.0</ele><time>2026-04-12T06:47:53.138Z</time></trkpt><trkpt lat="43.6589171" lon="11.2138714"><ele>181.0</ele><time>2026-04-12T06:47:54.137Z</time></trkpt><trkpt lat="43.658981" lon="11.2140011"><ele>181.0</ele><time>2026-04-12T06:47:55.138Z</time></trkpt><trkpt lat="43.6590627" lon="11.2141468"><ele>181.0</ele><time>2026-04-12T06:47:56.138Z</time></trkpt><trkpt lat="43.6591499" lon="11.2142706"><ele>180.25</ele><time>2026-04-12T06:47:57.139Z</time></trkpt><trkpt lat="43.6592464" lon="11.2143656"><ele>179.5</ele><time>2026-04-12T06:47:58.138Z</time></trkpt><trkpt lat="43.6593414" lon="11.2144453"><ele>178.75</ele><time>2026-04-12T06:47:59.138Z</time></trkpt><trkpt lat="43.6594585" lon="11.2145032"><ele>178.0</ele><time>2026-04-12T06:48:00.138Z</time></trkpt><trkpt lat="43.6595643" lon="11.2145598"><ele>178.0</ele><time>2026-04-12T06:48:01.138Z</time></trkpt><trkpt lat="43.6596509" lon="11.2146301"><ele>178.0</ele><time>2026-04-12T06:48:02.138Z</time></trkpt><trkpt lat="43.6597269" lon="11.2147229"><ele>178.0</ele><time>2026-04-12T06:48:03.14Z</time></trkpt><trkpt lat="43.6597726" lon="11.2148056"><ele>178.0</ele><time>2026-04-12T06:48:04.137Z</time></trkpt><trkpt lat="43.6598234" lon="11.2148689"><ele>178.0</ele><time>2026-04-12T06:48:05.138Z</time></trkpt><trkpt lat="43.6599265" lon="11.2149439"><ele>178.2</ele><time>2026-04-12T06:48:07.138Z</time></trkpt><trkpt lat="43.6600431" lon="11.2149405"><ele>178.4</ele><time>2026-04-12T06:48:09.138Z</time></trkpt><trkpt lat="43.6601621" lon="11.2149405"><ele>178.6</ele><time>2026-04-12T06:48:11.138Z</time></trkpt><trkpt lat="43.6602659" lon="11.2149397"><ele>178.79999999999998</ele><time>2026-04-12T06:48:13.137Z</time></trkpt><trkpt lat="43.6603678" lon="11.214932"><ele>179.0</ele><time>2026-04-12T06:48:15.138Z</time></trkpt><trkpt lat="43.6604586" lon="11.2149379"><ele>179.0</ele><time>2026-04-12T06:48:17.137Z</time></trkpt><trkpt lat="43.6605801" lon="11.2149384"><ele>179.0</ele><time>2026-04-12T06:48:19.138Z</time></trkpt><trkpt lat="43.6606483" lon="11.2149391"><ele>179.0</ele><time>2026-04-12T06:48:20.138Z</time></trkpt><trkpt lat="43.6607214" lon="11.2149355"><ele>179.0</ele><time>2026-04-12T06:48:21.137Z</time></trkpt><trkpt lat="43.6608059" lon="11.2149343"><ele>179.0</ele><time>2026-04-12T06:48:22.139Z</time></trkpt><trkpt lat="43.660898" lon="11.2149369"><ele>179.0</ele><time>2026-04-12T06:48:23.138Z</time></trkpt><trkpt lat="43.660997" lon="11.2149372"><ele>179.0</ele><time>2026-04-12T06:48:24.138Z</time></trkpt><trkpt lat="43.6610897" lon="11.2149349"><ele>179.0</ele><time>2026-04-12T06:48:25.139Z</time></trkpt><trkpt lat="43.6611754" lon="11.2149317"><ele>179.0</ele><time>2026-04-12T06:48:26.139Z</time></trkpt><trkpt lat="43.6612564" lon="11.2149185"><ele>179.0</ele><time>2026-04-12T06:48:27.138Z</time></trkpt><trkpt lat="43.6613279" lon="11.2148926"><ele>179.0</ele><time>2026-04-12T06:48:28.139Z</time></trkpt><trkpt lat="43.6613929" lon="11.2148431"><ele>179.0</ele><time>2026-04-12T06:48:29.139Z</time></trkpt><trkpt lat="43.6614441" lon="11.2147753"><ele>177.83333333333331</ele><time>2026-04-12T06:48:30.139Z</time></trkpt><trkpt lat="43.6614889" lon="11.2146968"><ele>176.66666666666666</ele><time>2026-04-12T06:48:31.139Z</time></trkpt><trkpt lat="43.6615386" lon="11.214614"><ele>175.5</ele><time>2026-04-12T06:48:32.139Z</time></trkpt><trkpt lat="43.6615892" lon="11.2145335"><ele>174.33333333333334</ele><time>2026-04-12T06:48:33.138Z</time></trkpt><trkpt lat="43.6616639" lon="11.2144446"><ele>173.16666666666669</ele><time>2026-04-12T06:48:34.138Z</time></trkpt><trkpt lat="43.6617304" lon="11.2143632"><ele>172.0</ele><time>2026-04-12T06:48:35.138Z</time></trkpt><trkpt lat="43.6618019" lon="11.2142896"><ele>172.0</ele><time>2026-04-12T06:48:36.138Z</time></trkpt><trkpt lat="43.6618716" lon="11.2142287"><ele>172.0</ele><time>2026-04-12T06:48:37.137Z</time></trkpt><trkpt lat="43.6619446" lon="11.214181"><ele>172.0</ele><time>2026-04-12T06:48:38.139Z</time></trkpt><trkpt lat="43.6620208" lon="11.2141579"><ele>172.0</ele><time>2026-04-12T06:48:39.138Z</time></trkpt><trkpt lat="43.6621018" lon="11.214148"><ele>172.0</ele><time>2026-04-12T06:48:40.139Z</time></trkpt><trkpt lat="43.6621797" lon="11.214148"><ele>172.0</ele><time>2026-04-12T06:48:41.138Z</time></trkpt><trkpt lat="43.6622527" lon="11.2141455"><ele>170.66666666666669</ele><time>2026-04-12T06:48:42.138Z</time></trkpt><trkpt lat="43.6623216" lon="11.21414"><ele>169.33333333333334</ele><time>2026-04-12T06:48:43.139Z</time></trkpt><trkpt lat="43.6623873" lon="11.2141607"><ele>168.0</ele><time>2026-04-12T06:48:44.138Z</time></trkpt><trkpt lat="43.6625035" lon="11.2142415"><ele>166.66666666666666</ele><time>2026-04-12T06:48:46.138Z</time></trkpt><trkpt lat="43.6625393" lon="11.214331"><ele>165.33333333333331</ele><time>2026-04-12T06:48:47.138Z</time></trkpt><trkpt lat="43.6625798" lon="11.214448"><ele>164.0</ele><time>2026-04-12T06:48:48.138Z</time></trkpt><trkpt lat="43.6626041" lon="11.2145569"><ele>164.0</ele><time>2026-04-12T06:48:49.138Z</time></trkpt><trkpt lat="43.662622" lon="11.2146734"><ele>164.0</ele><time>2026-04-12T06:48:50.138Z</time></trkpt><trkpt lat="43.6626388" lon="11.2148001"><ele>164.0</ele><time>2026-04-12T06:48:51.138Z</time></trkpt><trkpt lat="43.6626579" lon="11.214926"><ele>164.0</ele><time>2026-04-12T06:48:52.138Z</time></trkpt><trkpt lat="43.6626756" lon="11.215064"><ele>164.0</ele><time>2026-04-12T06:48:53.137Z</time></trkpt><trkpt lat="43.6626919" lon="11.2152167"><ele>161.79999999999998</ele><time>2026-04-12T06:48:54.138Z</time></trkpt><trkpt lat="43.6626952" lon="11.2153769"><ele>159.6</ele><time>2026-04-12T06:48:55.138Z</time></trkpt><trkpt lat="43.6626908" lon="11.215535"><ele>157.4</ele><time>2026-04-12T06:48:56.138Z</time></trkpt><trkpt lat="43.6626833" lon="11.2156783"><ele>155.2</ele><time>2026-04-12T06:48:57.138Z</time></trkpt><trkpt lat="43.6626735" lon="11.2158161"><ele>153.0</ele><time>2026-04-12T06:48:58.137Z</time></trkpt><trkpt lat="43.6626683" lon="11.2159425"><ele>152.0</ele><time>2026-04-12T06:48:59.139Z</time></trkpt><trkpt lat="43.6626524" lon="11.2160697"><ele>151.0</ele><time>2026-04-12T06:49:00.138Z</time></trkpt><trkpt lat="43.662636" lon="11.2161776"><ele>150.0</ele><time>2026-04-12T06:49:01.138Z</time></trkpt><trkpt lat="43.6626221" lon="11.2162738"><ele>149.0</ele><time>2026-04-12T06:49:02.139Z</time></trkpt><trkpt lat="43.6626068" lon="11.2163642"><ele>148.0</ele><time>2026-04-12T06:49:03.139Z</time></trkpt><trkpt lat="43.6626334" lon="11.2165118"><ele>147.0</ele><time>2026-04-12T06:49:05.138Z</time></trkpt><trkpt lat="43.6627339" lon="11.2165826"><ele>145.33333333333334</ele><time>2026-04-12T06:49:07.14Z</time></trkpt><trkpt lat="43.6628072" lon="11.2165806"><ele>143.66666666666666</ele><time>2026-04-12T06:49:08.138Z</time></trkpt><trkpt lat="43.6628906" lon="11.2165614"><ele>142.0</ele><time>2026-04-12T06:49:09.138Z</time></trkpt><trkpt lat="43.6629751" lon="11.2165477"><ele>140.33333333333331</ele><time>2026-04-12T06:49:10.138Z</time></trkpt><trkpt lat="43.6630628" lon="11.2165289"><ele>138.66666666666666</ele><time>2026-04-12T06:49:11.138Z</time></trkpt><trkpt lat="43.6631642" lon="11.2165005"><ele>137.0</ele><time>2026-04-12T06:49:12.139Z</time></trkpt><trkpt lat="43.6632615" lon="11.2164794"><ele>137.0</ele><time>2026-04-12T06:49:13.137Z</time></trkpt><trkpt lat="43.6633747" lon="11.2164707"><ele>137.0</ele><time>2026-04-12T06:49:14.146Z</time></trkpt><trkpt lat="43.66349" lon="11.2164726"><ele>137.0</ele><time>2026-04-12T06:49:15.138Z</time></trkpt><trkpt lat="43.6636117" lon="11.2164834"><ele>137.0</ele><time>2026-04-12T06:49:16.138Z</time></trkpt><trkpt lat="43.663737" lon="11.216507"><ele>133.25</ele><time>2026-04-12T06:49:17.139Z</time></trkpt><trkpt lat="43.6638687" lon="11.2165368"><ele>129.5</ele><time>2026-04-12T06:49:18.138Z</time></trkpt><trkpt lat="43.6640116" lon="11.2165712"><ele>125.75</ele><time>2026-04-12T06:49:19.139Z</time></trkpt><trkpt lat="43.6641463" lon="11.2165965"><ele>122.0</ele><time>2026-04-12T06:49:20.14Z</time></trkpt><trkpt lat="43.6642774" lon="11.2166113"><ele>122.0</ele><time>2026-04-12T06:49:21.139Z</time></trkpt><trkpt lat="43.6643977" lon="11.2166053"><ele>121.99999999999999</ele><time>2026-04-12T06:49:22.138Z</time></trkpt><trkpt lat="43.6645024" lon="11.2165898"><ele>121.99999999999999</ele><time>2026-04-12T06:49:23.138Z</time></trkpt><trkpt lat="43.6645963" lon="11.2165805"><ele>122.0</ele><time>2026-04-12T06:49:24.139Z</time></trkpt><trkpt lat="43.6646788" lon="11.2165725"><ele>122.0</ele><time>2026-04-12T06:49:25.138Z</time></trkpt><trkpt lat="43.6647572" lon="11.216583"><ele>120.6</ele><time>2026-04-12T06:49:26.138Z</time></trkpt><trkpt lat="43.6648593" lon="11.2166677"><ele>119.19999999999999</ele><time>2026-04-12T06:49:28.139Z</time></trkpt><trkpt lat="43.664879" lon="11.2167978"><ele>117.8</ele><time>2026-04-12T06:49:30.138Z</time></trkpt><trkpt lat="43.6648637" lon="11.2168887"><ele>116.4</ele><time>2026-04-12T06:49:31.138Z</time></trkpt><trkpt lat="43.6648496" lon="11.2169784"><ele>115.0</ele><time>2026-04-12T06:49:32.138Z</time></trkpt><trkpt lat="43.6648167" lon="11.2171214"><ele>115.0</ele><time>2026-04-12T06:49:34.138Z</time></trkpt><trkpt lat="43.6648711" lon="11.2172241"><ele>115.0</ele><time>2026-04-12T06:49:36.137Z</time></trkpt><trkpt lat="43.6649657" lon="11.217273"><ele>115.0</ele><time>2026-04-12T06:49:38.138Z</time></trkpt><trkpt lat="43.6650807" lon="11.2173252"><ele>115.0</ele><time>2026-04-12T06:49:40.138Z</time></trkpt><trkpt lat="43.6651988" lon="11.2173592"><ele>115.0</ele><time>2026-04-12T06:49:42.139Z</time></trkpt><trkpt lat="43.6652945" lon="11.2173963"><ele>113.75</ele><time>2026-04-12T06:49:44.139Z</time></trkpt><trkpt lat="43.6653759" lon="11.2174288"><ele>112.5</ele><time>2026-04-12T06:49:46.138Z</time></trkpt><trkpt lat="43.6654711" lon="11.2174642"><ele>111.25</ele><time>2026-04-12T06:49:48.138Z</time></trkpt><trkpt lat="43.6655798" lon="11.2175288"><ele>110.0</ele><time>2026-04-12T06:49:50.139Z</time></trkpt><trkpt lat="43.6657409" lon="11.2175777"><ele>110.0</ele><time>2026-04-12T06:49:52.138Z</time></trkpt><trkpt lat="43.6658369" lon="11.2176078"><ele>110.0</ele><time>2026-04-12T06:49:53.14Z</time></trkpt><trkpt lat="43.6659352" lon="11.2176471"><ele>110.0</ele><time>2026-04-12T06:49:54.138Z</time></trkpt><trkpt lat="43.6660385" lon="11.2176886"><ele>110.0</ele><time>2026-04-12T06:49:55.139Z</time></trkpt><trkpt lat="43.6661405" lon="11.2177361"><ele>110.0</ele><time>2026-04-12T06:49:56.14Z</time></trkpt><trkpt lat="43.6662245" lon="11.2177865"><ele>110.33333333333333</ele><time>2026-04-12T06:49:57.139Z</time></trkpt><trkpt lat="43.666304" lon="11.2178469"><ele>110.66666666666666</ele><time>2026-04-12T06:49:58.138Z</time></trkpt><trkpt lat="43.6663823" lon="11.2179103"><ele>111.0</ele><time>2026-04-12T06:49:59.139Z</time></trkpt><trkpt lat="43.6664598" lon="11.2179854"><ele>111.33333333333334</ele><time>2026-04-12T06:50:00.138Z</time></trkpt><trkpt lat="43.6665347" lon="11.2180658"><ele>111.66666666666667</ele><time>2026-04-12T06:50:01.138Z</time></trkpt><trkpt lat="43.6665867" lon="11.218136"><ele>112.0</ele><time>2026-04-12T06:50:02.138Z</time></trkpt><trkpt lat="43.6666388" lon="11.2182043"><ele>112.8</ele><time>2026-04-12T06:50:03.138Z</time></trkpt><trkpt lat="43.666708" lon="11.2183178"><ele>113.6</ele><time>2026-04-12T06:50:05.138Z</time></trkpt><trkpt lat="43.6667386" lon="11.2184783"><ele>114.39999999999999</ele><time>2026-04-12T06:50:07.138Z</time></trkpt><trkpt lat="43.6667428" lon="11.2185929"><ele>115.19999999999999</ele><time>2026-04-12T06:50:08.139Z</time></trkpt><trkpt lat="43.6667372" lon="11.218722"><ele>116.0</ele><time>2026-04-12T06:50:09.138Z</time></trkpt><trkpt lat="43.6667376" lon="11.2188681"><ele>116.0</ele><time>2026-04-12T06:50:10.138Z</time></trkpt><trkpt lat="43.6667364" lon="11.2190311"><ele>116.0</ele><time>2026-04-12T06:50:11.14Z</time></trkpt><trkpt lat="43.6667344" lon="11.2192129"><ele>116.0</ele><time>2026-04-12T06:50:12.139Z</time></trkpt><trkpt lat="43.666732" lon="11.2193959"><ele>116.0</ele><time>2026-04-12T06:50:13.139Z</time></trkpt><trkpt lat="43.6667268" lon="11.2195785"><ele>116.0</ele><time>2026-04-12T06:50:14.139Z</time></trkpt><trkpt lat="43.6667185" lon="11.2197703"><ele>116.0</ele><time>2026-04-12T06:50:15.137Z</time></trkpt><trkpt lat="43.6667027" lon="11.2199661"><ele>116.0</ele><time>2026-04-12T06:50:16.139Z</time></trkpt><trkpt lat="43.6666755" lon="11.2201696"><ele>116.0</ele><time>2026-04-12T06:50:17.139Z</time></trkpt><trkpt lat="43.6666322" lon="11.2203727"><ele>116.25</ele><time>2026-04-12T06:50:18.137Z</time></trkpt><trkpt lat="43.6665914" lon="11.2205648"><ele>116.5</ele><time>2026-04-12T06:50:19.14Z</time></trkpt><trkpt lat="43.6665534" lon="11.220761"><ele>116.75</ele><time>2026-04-12T06:50:20.139Z</time></trkpt><trkpt lat="43.6665073" lon="11.2209568"><ele>117.0</ele><time>2026-04-12T06:50:21.138Z</time></trkpt><trkpt lat="43.6664619" lon="11.2211505"><ele>117.25</ele><time>2026-04-12T06:50:22.14Z</time></trkpt><trkpt lat="43.6664231" lon="11.2213448"><ele>117.5</ele><time>2026-04-12T06:50:23.14Z</time></trkpt><trkpt lat="43.6664043" lon="11.221543"><ele>117.75</ele><time>2026-04-12T06:50:24.138Z</time></trkpt><trkpt lat="43.6663927" lon="11.2217493"><ele>118.0</ele><time>2026-04-12T06:50:25.14Z</time></trkpt><trkpt lat="43.6664016" lon="11.2219627"><ele>118.0</ele><time>2026-04-12T06:50:26.139Z</time></trkpt><trkpt lat="43.666417" lon="11.2221807"><ele>118.0</ele><time>2026-04-12T06:50:27.139Z</time></trkpt><trkpt lat="43.6664405" lon="11.2223986"><ele>118.0</ele><time>2026-04-12T06:50:28.139Z</time></trkpt><trkpt lat="43.6664608" lon="11.2226184"><ele>118.0</ele><time>2026-04-12T06:50:29.138Z</time></trkpt><trkpt lat="43.6664828" lon="11.2228437"><ele>118.0</ele><time>2026-04-12T06:50:30.139Z</time></trkpt><trkpt lat="43.6665055" lon="11.2230749"><ele>118.0</ele><time>2026-04-12T06:50:31.138Z</time></trkpt><trkpt lat="43.6665334" lon="11.2233033"><ele>118.33333333333334</ele><time>2026-04-12T06:50:32.138Z</time></trkpt><trkpt lat="43.6665614" lon="11.2235337"><ele>118.66666666666666</ele><time>2026-04-12T06:50:33.139Z</time></trkpt><trkpt lat="43.6665825" lon="11.2237671"><ele>119.0</ele><time>2026-04-12T06:50:34.139Z</time></trkpt><trkpt lat="43.6666047" lon="11.2239963"><ele>119.0</ele><time>2026-04-12T06:50:35.138Z</time></trkpt><trkpt lat="43.6666264" lon="11.2242221"><ele>119.0</ele><time>2026-04-12T06:50:36.139Z</time></trkpt><trkpt lat="43.6666477" lon="11.2244467"><ele>119.0</ele><time>2026-04-12T06:50:37.138Z</time></trkpt><trkpt lat="43.6666692" lon="11.2246726"><ele>119.33333333333333</ele><time>2026-04-12T06:50:38.138Z</time></trkpt><trkpt lat="43.6666885" lon="11.2249042"><ele>119.66666666666666</ele><time>2026-04-12T06:50:39.139Z</time></trkpt><trkpt lat="43.6667084" lon="11.2251295"><ele>120.0</ele><time>2026-04-12T06:50:40.138Z</time></trkpt><trkpt lat="43.6667316" lon="11.225355"><ele>120.0</ele><time>2026-04-12T06:50:41.14Z</time></trkpt><trkpt lat="43.6667583" lon="11.2255805"><ele>120.0</ele><time>2026-04-12T06:50:42.138Z</time></trkpt><trkpt lat="43.6667872" lon="11.2258041"><ele>120.0</ele><time>2026-04-12T06:50:43.138Z</time></trkpt><trkpt lat="43.6668099" lon="11.2260271"><ele>119.66666666666666</ele><time>2026-04-12T06:50:44.139Z</time></trkpt><trkpt lat="43.6668252" lon="11.2262446"><ele>119.33333333333333</ele><time>2026-04-12T06:50:45.139Z</time></trkpt><trkpt lat="43.6668245" lon="11.2264621"><ele>119.0</ele><time>2026-04-12T06:50:46.138Z</time></trkpt><trkpt lat="43.666796" lon="11.2266843"><ele>118.66666666666666</ele><time>2026-04-12T06:50:47.14Z</time></trkpt><trkpt lat="43.6667544" lon="11.2269062"><ele>118.33333333333334</ele><time>2026-04-12T06:50:48.139Z</time></trkpt><trkpt lat="43.6667057" lon="11.2271325"><ele>118.0</ele><time>2026-04-12T06:50:49.14Z</time></trkpt><trkpt lat="43.6666526" lon="11.2273534"><ele>119.66666666666667</ele><time>2026-04-12T06:50:50.14Z</time></trkpt><trkpt lat="43.6665994" lon="11.2275794"><ele>121.33333333333334</ele><time>2026-04-12T06:50:51.14Z</time></trkpt><trkpt lat="43.6665444" lon="11.2278031"><ele>123.0</ele><time>2026-04-12T06:50:52.139Z</time></trkpt><trkpt lat="43.6664926" lon="11.2280244"><ele>123.33333333333334</ele><time>2026-04-12T06:50:53.139Z</time></trkpt><trkpt lat="43.666445" lon="11.2282493"><ele>123.66666666666667</ele><time>2026-04-12T06:50:54.139Z</time></trkpt><trkpt lat="43.6664058" lon="11.2284857"><ele>124.0</ele><time>2026-04-12T06:50:55.14Z</time></trkpt><trkpt lat="43.6663849" lon="11.228726"><ele>124.0</ele><time>2026-04-12T06:50:56.139Z</time></trkpt><trkpt lat="43.6663795" lon="11.2289611"><ele>124.0</ele><time>2026-04-12T06:50:57.138Z</time></trkpt><trkpt lat="43.6663828" lon="11.2292053"><ele>124.0</ele><time>2026-04-12T06:50:58.138Z</time></trkpt><trkpt lat="43.6663893" lon="11.2294467"><ele>124.66666666666667</ele><time>2026-04-12T06:50:59.139Z</time></trkpt><trkpt lat="43.6663969" lon="11.2296917"><ele>125.33333333333334</ele><time>2026-04-12T06:51:00.139Z</time></trkpt><trkpt lat="43.6664022" lon="11.2299346"><ele>126.0</ele><time>2026-04-12T06:51:01.139Z</time></trkpt><trkpt lat="43.666408" lon="11.2301797"><ele>127.33333333333334</ele><time>2026-04-12T06:51:02.139Z</time></trkpt><trkpt lat="43.6664169" lon="11.2304228"><ele>128.66666666666669</ele><time>2026-04-12T06:51:03.138Z</time></trkpt><trkpt lat="43.6664247" lon="11.2306673"><ele>130.0</ele><time>2026-04-12T06:51:04.138Z</time></trkpt><trkpt lat="43.6664326" lon="11.2309204"><ele>130.0</ele><time>2026-04-12T06:51:05.138Z</time></trkpt><trkpt lat="43.6664394" lon="11.2311605"><ele>130.0</ele><time>2026-04-12T06:51:06.138Z</time></trkpt><trkpt lat="43.6664403" lon="11.2314094"><ele>130.0</ele><time>2026-04-12T06:51:07.138Z</time></trkpt><trkpt lat="43.666447" lon="11.2316517"><ele>128.66666666666669</ele><time>2026-04-12T06:51:08.139Z</time></trkpt><trkpt lat="43.6664525" lon="11.2318944"><ele>127.33333333333334</ele><time>2026-04-12T06:51:09.14Z</time></trkpt><trkpt lat="43.6664569" lon="11.232134"><ele>126.0</ele><time>2026-04-12T06:51:10.139Z</time></trkpt><trkpt lat="43.666466" lon="11.232374"><ele>124.66666666666666</ele><time>2026-04-12T06:51:11.139Z</time></trkpt><trkpt lat="43.6664752" lon="11.2326146"><ele>123.33333333333333</ele><time>2026-04-12T06:51:12.138Z</time></trkpt><trkpt lat="43.6664798" lon="11.2328521"><ele>122.0</ele><time>2026-04-12T06:51:13.139Z</time></trkpt><trkpt lat="43.6664783" lon="11.2330943"><ele>124.0</ele><time>2026-04-12T06:51:14.138Z</time></trkpt><trkpt lat="43.6664609" lon="11.2333326"><ele>126.0</ele><time>2026-04-12T06:51:15.139Z</time></trkpt><trkpt lat="43.6664276" lon="11.233562"><ele>128.0</ele><time>2026-04-12T06:51:16.138Z</time></trkpt><trkpt lat="43.666388" lon="11.2337885"><ele>130.33333333333331</ele><time>2026-04-12T06:51:17.138Z</time></trkpt><trkpt lat="43.6663305" lon="11.2340028"><ele>132.66666666666666</ele><time>2026-04-12T06:51:18.139Z</time></trkpt><trkpt lat="43.666271" lon="11.2342205"><ele>135.0</ele><time>2026-04-12T06:51:19.14Z</time></trkpt><trkpt lat="43.6662116" lon="11.2344301"><ele>135.0</ele><time>2026-04-12T06:51:20.14Z</time></trkpt><trkpt lat="43.6661538" lon="11.2346549"><ele>135.0</ele><time>2026-04-12T06:51:21.139Z</time></trkpt><trkpt lat="43.6660998" lon="11.2348815"><ele>135.0</ele><time>2026-04-12T06:51:22.139Z</time></trkpt><trkpt lat="43.6660408" lon="11.2351049"><ele>133.0</ele><time>2026-04-12T06:51:23.139Z</time></trkpt><trkpt lat="43.6659785" lon="11.2353337"><ele>131.0</ele><time>2026-04-12T06:51:24.138Z</time></trkpt><trkpt lat="43.665921" lon="11.235556"><ele>129.0</ele><time>2026-04-12T06:51:25.139Z</time></trkpt><trkpt lat="43.6658562" lon="11.2357845"><ele>129.0</ele><time>2026-04-12T06:51:26.139Z</time></trkpt><trkpt lat="43.6657934" lon="11.2360194"><ele>129.0</ele><time>2026-04-12T06:51:27.138Z</time></trkpt><trkpt lat="43.665732" lon="11.2362581"><ele>129.0</ele><time>2026-04-12T06:51:28.139Z</time></trkpt><trkpt lat="43.6656678" lon="11.236497"><ele>130.33333333333334</ele><time>2026-04-12T06:51:29.14Z</time></trkpt><trkpt lat="43.665606" lon="11.2367336"><ele>131.66666666666669</ele><time>2026-04-12T06:51:30.139Z</time></trkpt><trkpt lat="43.6655386" lon="11.2369796"><ele>133.0</ele><time>2026-04-12T06:51:31.138Z</time></trkpt><trkpt lat="43.6654731" lon="11.2372318"><ele>134.0</ele><time>2026-04-12T06:51:32.139Z</time></trkpt><trkpt lat="43.6654064" lon="11.2374791"><ele>135.0</ele><time>2026-04-12T06:51:33.138Z</time></trkpt><trkpt lat="43.6653413" lon="11.2377313"><ele>136.0</ele><time>2026-04-12T06:51:34.139Z</time></trkpt><trkpt lat="43.6652749" lon="11.2379888"><ele>131.0</ele><time>2026-04-12T06:51:35.139Z</time></trkpt><trkpt lat="43.6652095" lon="11.2382449"><ele>126.0</ele><time>2026-04-12T06:51:36.138Z</time></trkpt><trkpt lat="43.6651452" lon="11.2384987"><ele>121.0</ele><time>2026-04-12T06:51:37.139Z</time></trkpt><trkpt lat="43.6650798" lon="11.2387564"><ele>122.33333333333334</ele><time>2026-04-12T06:51:38.138Z</time></trkpt><trkpt lat="43.6650136" lon="11.2390074"><ele>123.66666666666666</ele><time>2026-04-12T06:51:39.139Z</time></trkpt><trkpt lat="43.6649481" lon="11.2392583"><ele>125.0</ele><time>2026-04-12T06:51:40.139Z</time></trkpt><trkpt lat="43.6648877" lon="11.2394914"><ele>125.0</ele><time>2026-04-12T06:51:41.14Z</time></trkpt><trkpt lat="43.6648296" lon="11.239722"><ele>125.0</ele><time>2026-04-12T06:51:42.14Z</time></trkpt><trkpt lat="43.6647727" lon="11.239925"><ele>125.0</ele><time>2026-04-12T06:51:43.138Z</time></trkpt><trkpt lat="43.6647077" lon="11.2401153"><ele>123.66666666666666</ele><time>2026-04-12T06:51:44.139Z</time></trkpt><trkpt lat="43.6646057" lon="11.2402887"><ele>122.33333333333334</ele><time>2026-04-12T06:51:45.14Z</time></trkpt><trkpt lat="43.6644808" lon="11.2404293"><ele>121.0</ele><time>2026-04-12T06:51:46.139Z</time></trkpt><trkpt lat="43.6643373" lon="11.2405195"><ele>121.0</ele><time>2026-04-12T06:51:47.139Z</time></trkpt><trkpt lat="43.6641919" lon="11.2405788"><ele>121.0</ele><time>2026-04-12T06:51:48.139Z</time></trkpt><trkpt lat="43.6640412" lon="11.2405404"><ele>121.0</ele><time>2026-04-12T06:51:49.139Z</time></trkpt><trkpt lat="43.6638992" lon="11.2404483"><ele>121.0</ele><time>2026-04-12T06:51:50.139Z</time></trkpt><trkpt lat="43.6637352" lon="11.2403677"><ele>121.0</ele><time>2026-04-12T06:51:51.14Z</time></trkpt><trkpt lat="43.6635631" lon="11.2403066"><ele>121.0</ele><time>2026-04-12T06:51:52.139Z</time></trkpt><trkpt lat="43.6633881" lon="11.2402546"><ele>122.0</ele><time>2026-04-12T06:51:53.14Z</time></trkpt><trkpt lat="43.6632047" lon="11.2402105"><ele>123.0</ele><time>2026-04-12T06:51:54.14Z</time></trkpt><trkpt lat="43.6630193" lon="11.240192"><ele>124.0</ele><time>2026-04-12T06:51:55.14Z</time></trkpt><trkpt lat="43.6628394" lon="11.2401804"><ele>124.66666666666667</ele><time>2026-04-12T06:51:56.138Z</time></trkpt><trkpt lat="43.6626652" lon="11.2401795"><ele>125.33333333333334</ele><time>2026-04-12T06:51:57.139Z</time></trkpt><trkpt lat="43.6624933" lon="11.240201"><ele>126.0</ele><time>2026-04-12T06:51:58.14Z</time></trkpt><trkpt lat="43.6623172" lon="11.2402214"><ele>126.0</ele><time>2026-04-12T06:51:59.138Z</time></trkpt><trkpt lat="43.6621413" lon="11.2402515"><ele>126.0</ele><time>2026-04-12T06:52:00.138Z</time></trkpt><trkpt lat="43.6619601" lon="11.2402886"><ele>126.0</ele><time>2026-04-12T06:52:01.14Z</time></trkpt><trkpt lat="43.6617723" lon="11.2403241"><ele>124.66666666666666</ele><time>2026-04-12T06:52:02.138Z</time></trkpt><trkpt lat="43.6615815" lon="11.2403659"><ele>123.33333333333333</ele><time>2026-04-12T06:52:03.138Z</time></trkpt><trkpt lat="43.6613849" lon="11.240414"><ele>122.0</ele><time>2026-04-12T06:52:04.139Z</time></trkpt><trkpt lat="43.6611915" lon="11.240466"><ele>122.33333333333333</ele><time>2026-04-12T06:52:05.14Z</time></trkpt><trkpt lat="43.6609917" lon="11.240515"><ele>122.66666666666666</ele><time>2026-04-12T06:52:06.139Z</time></trkpt><trkpt lat="43.6607967" lon="11.240567"><ele>123.0</ele><time>2026-04-12T06:52:07.14Z</time></trkpt><trkpt lat="43.6605989" lon="11.2406164"><ele>123.66666666666666</ele><time>2026-04-12T06:52:08.139Z</time></trkpt><trkpt lat="43.6603994" lon="11.2406678"><ele>124.33333333333333</ele><time>2026-04-12T06:52:09.14Z</time></trkpt><trkpt lat="43.6601977" lon="11.2407211"><ele>125.0</ele><time>2026-04-12T06:52:10.139Z</time></trkpt><trkpt lat="43.6599979" lon="11.2407705"><ele>125.0</ele><time>2026-04-12T06:52:11.138Z</time></trkpt><trkpt lat="43.6597963" lon="11.2408206"><ele>125.0</ele><time>2026-04-12T06:52:12.139Z</time></trkpt><trkpt lat="43.6596018" lon="11.2408798"><ele>125.0</ele><time>2026-04-12T06:52:13.139Z</time></trkpt><trkpt lat="43.6594074" lon="11.2409383"><ele>124.0</ele><time>2026-04-12T06:52:14.139Z</time></trkpt><trkpt lat="43.6592232" lon="11.241005"><ele>123.0</ele><time>2026-04-12T06:52:15.14Z</time></trkpt><trkpt lat="43.6590449" lon="11.2410922"><ele>122.0</ele><time>2026-04-12T06:52:16.14Z</time></trkpt><trkpt lat="43.6588733" lon="11.2412035"><ele>122.0</ele><time>2026-04-12T06:52:17.139Z</time></trkpt><trkpt lat="43.6587128" lon="11.2413392"><ele>122.0</ele><time>2026-04-12T06:52:18.139Z</time></trkpt><trkpt lat="43.6585672" lon="11.2414911"><ele>122.0</ele><time>2026-04-12T06:52:19.139Z</time></trkpt><trkpt lat="43.6584399" lon="11.241668"><ele>123.0</ele><time>2026-04-12T06:52:20.14Z</time></trkpt><trkpt lat="43.6583361" lon="11.2418661"><ele>124.0</ele><time>2026-04-12T06:52:21.139Z</time></trkpt><trkpt lat="43.658254" lon="11.2420859"><ele>125.0</ele><time>2026-04-12T06:52:22.139Z</time></trkpt><trkpt lat="43.6582193" lon="11.2423313"><ele>125.66666666666666</ele><time>2026-04-12T06:52:23.139Z</time></trkpt><trkpt lat="43.6582193" lon="11.242588"><ele>126.33333333333334</ele><time>2026-04-12T06:52:24.139Z</time></trkpt><trkpt lat="43.6582507" lon="11.242847"><ele>127.0</ele><time>2026-04-12T06:52:25.139Z</time></trkpt><trkpt lat="43.6583049" lon="11.2431111"><ele>126.66666666666667</ele><time>2026-04-12T06:52:26.139Z</time></trkpt><trkpt lat="43.6583811" lon="11.2433686"><ele>126.33333333333334</ele><time>2026-04-12T06:52:27.14Z</time></trkpt><trkpt lat="43.6584648" lon="11.2436174"><ele>126.0</ele><time>2026-04-12T06:52:28.14Z</time></trkpt><trkpt lat="43.6585524" lon="11.2438653"><ele>128.33333333333334</ele><time>2026-04-12T06:52:29.139Z</time></trkpt><trkpt lat="43.6586376" lon="11.2441116"><ele>130.66666666666669</ele><time>2026-04-12T06:52:30.139Z</time></trkpt><trkpt lat="43.6587199" lon="11.2443641"><ele>133.0</ele><time>2026-04-12T06:52:31.14Z</time></trkpt><trkpt lat="43.6587975" lon="11.2446164"><ele>133.33333333333334</ele><time>2026-04-12T06:52:32.14Z</time></trkpt><trkpt lat="43.6588547" lon="11.2448819"><ele>133.66666666666666</ele><time>2026-04-12T06:52:33.139Z</time></trkpt><trkpt lat="43.6588988" lon="11.2451533"><ele>134.0</ele><time>2026-04-12T06:52:34.14Z</time></trkpt><trkpt lat="43.6589045" lon="11.2454189"><ele>133.33333333333331</ele><time>2026-04-12T06:52:35.141Z</time></trkpt><trkpt lat="43.6588989" lon="11.2456888"><ele>132.66666666666666</ele><time>2026-04-12T06:52:36.139Z</time></trkpt><trkpt lat="43.6588944" lon="11.2459592"><ele>132.0</ele><time>2026-04-12T06:52:37.14Z</time></trkpt><trkpt lat="43.6588923" lon="11.2462485"><ele>131.66666666666666</ele><time>2026-04-12T06:52:38.139Z</time></trkpt><trkpt lat="43.6588857" lon="11.2465427"><ele>131.33333333333331</ele><time>2026-04-12T06:52:39.139Z</time></trkpt><trkpt lat="43.6588658" lon="11.2468583"><ele>131.0</ele><time>2026-04-12T06:52:40.139Z</time></trkpt><trkpt lat="43.6588389" lon="11.2471651"><ele>131.0</ele><time>2026-04-12T06:52:41.138Z</time></trkpt><trkpt lat="43.6588109" lon="11.24747"><ele>131.0</ele><time>2026-04-12T06:52:42.138Z</time></trkpt><trkpt lat="43.6587896" lon="11.2477758"><ele>131.0</ele><time>2026-04-12T06:52:43.139Z</time></trkpt><trkpt lat="43.6587737" lon="11.2480675"><ele>132.0</ele><time>2026-04-12T06:52:44.139Z</time></trkpt><trkpt lat="43.6587553" lon="11.248349"><ele>133.0</ele><time>2026-04-12T06:52:45.139Z</time></trkpt><trkpt lat="43.6587408" lon="11.2486259"><ele>134.0</ele><time>2026-04-12T06:52:46.139Z</time></trkpt><trkpt lat="43.6587263" lon="11.2488915"><ele>133.0</ele><time>2026-04-12T06:52:47.14Z</time></trkpt><trkpt lat="43.6587125" lon="11.24916"><ele>132.0</ele><time>2026-04-12T06:52:48.141Z</time></trkpt><trkpt lat="43.658696" lon="11.2494232"><ele>131.0</ele><time>2026-04-12T06:52:49.139Z</time></trkpt><trkpt lat="43.6586838" lon="11.2496881"><ele>131.0</ele><time>2026-04-12T06:52:50.139Z</time></trkpt><trkpt lat="43.6586766" lon="11.2499462"><ele>131.0</ele><time>2026-04-12T06:52:51.14Z</time></trkpt><trkpt lat="43.6586743" lon="11.2502077"><ele>131.0</ele><time>2026-04-12T06:52:52.14Z</time></trkpt><trkpt lat="43.6586878" lon="11.2504655"><ele>131.33333333333331</ele><time>2026-04-12T06:52:53.14Z</time></trkpt><trkpt lat="43.658709" lon="11.2507244"><ele>131.66666666666666</ele><time>2026-04-12T06:52:54.139Z</time></trkpt><trkpt lat="43.6587245" lon="11.2509836"><ele>132.0</ele><time>2026-04-12T06:52:55.14Z</time></trkpt><trkpt lat="43.6587422" lon="11.2512492"><ele>132.33333333333334</ele><time>2026-04-12T06:52:56.139Z</time></trkpt><trkpt lat="43.6587574" lon="11.251513"><ele>132.66666666666669</ele><time>2026-04-12T06:52:57.14Z</time></trkpt><trkpt lat="43.6587724" lon="11.2517748"><ele>133.0</ele><time>2026-04-12T06:52:58.139Z</time></trkpt><trkpt lat="43.6587866" lon="11.2520371"><ele>133.33333333333334</ele><time>2026-04-12T06:52:59.139Z</time></trkpt><trkpt lat="43.6588026" lon="11.252304"><ele>133.66666666666666</ele><time>2026-04-12T06:53:00.139Z</time></trkpt><trkpt lat="43.6588201" lon="11.2525689"><ele>134.0</ele><time>2026-04-12T06:53:01.141Z</time></trkpt><trkpt lat="43.6588384" lon="11.2528361"><ele>134.0</ele><time>2026-04-12T06:53:02.139Z</time></trkpt><trkpt lat="43.6588537" lon="11.2531043"><ele>134.0</ele><time>2026-04-12T06:53:03.14Z</time></trkpt><trkpt lat="43.6588698" lon="11.2533736"><ele>134.0</ele><time>2026-04-12T06:53:04.139Z</time></trkpt><trkpt lat="43.6588876" lon="11.2536441"><ele>133.33333333333331</ele><time>2026-04-12T06:53:05.139Z</time></trkpt><trkpt lat="43.6589038" lon="11.2539142"><ele>132.66666666666666</ele><time>2026-04-12T06:53:06.139Z</time></trkpt><trkpt lat="43.658917" lon="11.2541859"><ele>132.0</ele><time>2026-04-12T06:53:07.138Z</time></trkpt><trkpt lat="43.6589322" lon="11.2544558"><ele>132.0</ele><time>2026-04-12T06:53:08.139Z</time></trkpt><trkpt lat="43.6589457" lon="11.254726"><ele>132.0</ele><time>2026-04-12T06:53:09.14Z</time></trkpt><trkpt lat="43.6589619" lon="11.2549936"><ele>132.0</ele><time>2026-04-12T06:53:10.14Z</time></trkpt><trkpt lat="43.6589781" lon="11.2552617"><ele>133.0</ele><time>2026-04-12T06:53:11.139Z</time></trkpt><trkpt lat="43.6589966" lon="11.2555258"><ele>134.0</ele><time>2026-04-12T06:53:12.14Z</time></trkpt><trkpt lat="43.6590141" lon="11.2557817"><ele>135.0</ele><time>2026-04-12T06:53:13.139Z</time></trkpt><trkpt lat="43.6590223" lon="11.2560193"><ele>135.33333333333334</ele><time>2026-04-12T06:53:14.141Z</time></trkpt><trkpt lat="43.6590229" lon="11.2562421"><ele>135.66666666666669</ele><time>2026-04-12T06:53:15.14Z</time></trkpt><trkpt lat="43.6590185" lon="11.2564504"><ele>136.0</ele><time>2026-04-12T06:53:16.14Z</time></trkpt><trkpt lat="43.6589955" lon="11.2566471"><ele>135.25</ele><time>2026-04-12T06:53:17.14Z</time></trkpt><trkpt lat="43.6589466" lon="11.2568181"><ele>134.5</ele><time>2026-04-12T06:53:18.14Z</time></trkpt><trkpt lat="43.6588788" lon="11.2569682"><ele>133.75</ele><time>2026-04-12T06:53:19.139Z</time></trkpt><trkpt lat="43.658794" lon="11.2571089"><ele>133.0</ele><time>2026-04-12T06:53:20.139Z</time></trkpt><trkpt lat="43.6587017" lon="11.2572377"><ele>132.75</ele><time>2026-04-12T06:53:21.139Z</time></trkpt><trkpt lat="43.6586021" lon="11.2573652"><ele>132.5</ele><time>2026-04-12T06:53:22.139Z</time></trkpt><trkpt lat="43.6585086" lon="11.257479"><ele>132.25</ele><time>2026-04-12T06:53:23.139Z</time></trkpt><trkpt lat="43.6584236" lon="11.2575892"><ele>132.0</ele><time>2026-04-12T06:53:24.139Z</time></trkpt><trkpt lat="43.6583465" lon="11.2576849"><ele>132.0</ele><time>2026-04-12T06:53:25.14Z</time></trkpt><trkpt lat="43.6582735" lon="11.2577654"><ele>132.0</ele><time>2026-04-12T06:53:26.138Z</time></trkpt><trkpt lat="43.6582055" lon="11.25784"><ele>132.0</ele><time>2026-04-12T06:53:27.14Z</time></trkpt><trkpt lat="43.6581426" lon="11.2579107"><ele>132.0</ele><time>2026-04-12T06:53:28.139Z</time></trkpt><trkpt lat="43.6581142" lon="11.2580067"><ele>132.0</ele><time>2026-04-12T06:53:29.139Z</time></trkpt><trkpt lat="43.6580988" lon="11.2581199"><ele>132.0</ele><time>2026-04-12T06:53:30.14Z</time></trkpt><trkpt lat="43.6580998" lon="11.2582592"><ele>132.6</ele><time>2026-04-12T06:53:31.14Z</time></trkpt><trkpt lat="43.6581028" lon="11.2584023"><ele>133.2</ele><time>2026-04-12T06:53:32.139Z</time></trkpt><trkpt lat="43.6581075" lon="11.2585461"><ele>133.8</ele><time>2026-04-12T06:53:33.14Z</time></trkpt><trkpt lat="43.658107" lon="11.2586668"><ele>134.4</ele><time>2026-04-12T06:53:34.138Z</time></trkpt><trkpt lat="43.6581029" lon="11.2587923"><ele>135.0</ele><time>2026-04-12T06:53:35.139Z</time></trkpt><trkpt lat="43.6581028" lon="11.2589017"><ele>135.16666666666666</ele><time>2026-04-12T06:53:36.139Z</time></trkpt><trkpt lat="43.6581024" lon="11.2590048"><ele>135.33333333333334</ele><time>2026-04-12T06:53:37.14Z</time></trkpt><trkpt lat="43.658105" lon="11.2591081"><ele>135.5</ele><time>2026-04-12T06:53:38.139Z</time></trkpt><trkpt lat="43.658108" lon="11.2592137"><ele>135.66666666666669</ele><time>2026-04-12T06:53:39.139Z</time></trkpt><trkpt lat="43.6581099" lon="11.2593117"><ele>135.83333333333334</ele><time>2026-04-12T06:53:40.141Z</time></trkpt><trkpt lat="43.6581172" lon="11.2594068"><ele>136.0</ele><time>2026-04-12T06:53:41.138Z</time></trkpt><trkpt lat="43.6581233" lon="11.2595742"><ele>136.0</ele><time>2026-04-12T06:53:43.14Z</time></trkpt><trkpt lat="43.658126" lon="11.2596636"><ele>136.0</ele><time>2026-04-12T06:53:44.139Z</time></trkpt><trkpt lat="43.658127" lon="11.2598454"><ele>136.0</ele><time>2026-04-12T06:53:46.14Z</time></trkpt><trkpt lat="43.6581287" lon="11.2599637"><ele>136.0</ele><time>2026-04-12T06:53:47.139Z</time></trkpt><trkpt lat="43.6581284" lon="11.2600981"><ele>136.0</ele><time>2026-04-12T06:53:48.14Z</time></trkpt><trkpt lat="43.6581289" lon="11.2602564"><ele>136.25</ele><time>2026-04-12T06:53:49.139Z</time></trkpt><trkpt lat="43.6581355" lon="11.2604345"><ele>136.5</ele><time>2026-04-12T06:53:50.139Z</time></trkpt><trkpt lat="43.6581447" lon="11.2606292"><ele>136.75</ele><time>2026-04-12T06:53:51.139Z</time></trkpt><trkpt lat="43.6581674" lon="11.2608423"><ele>137.0</ele><time>2026-04-12T06:53:52.139Z</time></trkpt><trkpt lat="43.6581963" lon="11.2610484"><ele>137.0</ele><time>2026-04-12T06:53:53.14Z</time></trkpt><trkpt lat="43.6582255" lon="11.2612645"><ele>137.0</ele><time>2026-04-12T06:53:54.139Z</time></trkpt><trkpt lat="43.6582562" lon="11.2614922"><ele>137.0</ele><time>2026-04-12T06:53:55.139Z</time></trkpt><trkpt lat="43.6582885" lon="11.2617307"><ele>137.0</ele><time>2026-04-12T06:53:56.14Z</time></trkpt><trkpt lat="43.6583207" lon="11.2619718"><ele>137.0</ele><time>2026-04-12T06:53:57.139Z</time></trkpt><trkpt lat="43.6583595" lon="11.2622265"><ele>137.0</ele><time>2026-04-12T06:53:58.14Z</time></trkpt><trkpt lat="43.658391" lon="11.2624655"><ele>136.66666666666666</ele><time>2026-04-12T06:53:59.14Z</time></trkpt><trkpt lat="43.6584232" lon="11.2627009"><ele>136.33333333333334</ele><time>2026-04-12T06:54:00.14Z</time></trkpt><trkpt lat="43.6584647" lon="11.2629262"><ele>136.0</ele><time>2026-04-12T06:54:01.14Z</time></trkpt><trkpt lat="43.6585155" lon="11.2631431"><ele>137.0</ele><time>2026-04-12T06:54:02.14Z</time></trkpt><trkpt lat="43.6585988" lon="11.2633366"><ele>138.0</ele><time>2026-04-12T06:54:03.141Z</time></trkpt><trkpt lat="43.6586936" lon="11.2635315"><ele>139.0</ele><time>2026-04-12T06:54:04.139Z</time></trkpt><trkpt lat="43.658794" lon="11.2637234"><ele>139.66666666666669</ele><time>2026-04-12T06:54:05.14Z</time></trkpt><trkpt lat="43.6588978" lon="11.2639168"><ele>140.33333333333334</ele><time>2026-04-12T06:54:06.14Z</time></trkpt><trkpt lat="43.6590082" lon="11.2641186"><ele>141.0</ele><time>2026-04-12T06:54:07.141Z</time></trkpt><trkpt lat="43.6591172" lon="11.2643157"><ele>141.0</ele><time>2026-04-12T06:54:08.139Z</time></trkpt><trkpt lat="43.6592197" lon="11.2645082"><ele>141.0</ele><time>2026-04-12T06:54:09.14Z</time></trkpt><trkpt lat="43.6593065" lon="11.2647131"><ele>141.0</ele><time>2026-04-12T06:54:10.14Z</time></trkpt><trkpt lat="43.6593572" lon="11.2649404"><ele>140.66666666666666</ele><time>2026-04-12T06:54:11.141Z</time></trkpt><trkpt lat="43.6593973" lon="11.2651758"><ele>140.33333333333331</ele><time>2026-04-12T06:54:12.14Z</time></trkpt><trkpt lat="43.6594123" lon="11.2654266"><ele>140.0</ele><time>2026-04-12T06:54:13.139Z</time></trkpt><trkpt lat="43.6594427" lon="11.2656768"><ele>143.33333333333331</ele><time>2026-04-12T06:54:14.139Z</time></trkpt><trkpt lat="43.6594968" lon="11.2659216"><ele>146.66666666666666</ele><time>2026-04-12T06:54:15.139Z</time></trkpt><trkpt lat="43.6595561" lon="11.2661628"><ele>150.0</ele><time>2026-04-12T06:54:16.139Z</time></trkpt><trkpt lat="43.6596267" lon="11.2664024"><ele>149.0</ele><time>2026-04-12T06:54:17.139Z</time></trkpt><trkpt lat="43.6597061" lon="11.2666314"><ele>148.0</ele><time>2026-04-12T06:54:18.139Z</time></trkpt><trkpt lat="43.6598022" lon="11.2668526"><ele>147.0</ele><time>2026-04-12T06:54:19.139Z</time></trkpt><trkpt lat="43.6599043" lon="11.2670649"><ele>147.0</ele><time>2026-04-12T06:54:20.138Z</time></trkpt><trkpt lat="43.6600153" lon="11.2672705"><ele>147.0</ele><time>2026-04-12T06:54:21.139Z</time></trkpt><trkpt lat="43.6601228" lon="11.2674796"><ele>147.0</ele><time>2026-04-12T06:54:22.14Z</time></trkpt><trkpt lat="43.6602055" lon="11.267683"><ele>145.33333333333334</ele><time>2026-04-12T06:54:23.141Z</time></trkpt><trkpt lat="43.6602753" lon="11.2679023"><ele>143.66666666666669</ele><time>2026-04-12T06:54:24.139Z</time></trkpt><trkpt lat="43.6603285" lon="11.2681139"><ele>142.0</ele><time>2026-04-12T06:54:25.14Z</time></trkpt><trkpt lat="43.6603635" lon="11.2683204"><ele>143.25</ele><time>2026-04-12T06:54:26.139Z</time></trkpt><trkpt lat="43.660394" lon="11.2685164"><ele>144.5</ele><time>2026-04-12T06:54:27.14Z</time></trkpt><trkpt lat="43.660434" lon="11.2686913"><ele>145.75</ele><time>2026-04-12T06:54:28.139Z</time></trkpt><trkpt lat="43.6604841" lon="11.2688572"><ele>147.0</ele><time>2026-04-12T06:54:29.14Z</time></trkpt><trkpt lat="43.6605438" lon="11.2690142"><ele>147.0</ele><time>2026-04-12T06:54:30.14Z</time></trkpt><trkpt lat="43.6606063" lon="11.2691587"><ele>147.0</ele><time>2026-04-12T06:54:31.139Z</time></trkpt><trkpt lat="43.6606695" lon="11.2692884"><ele>147.0</ele><time>2026-04-12T06:54:32.139Z</time></trkpt><trkpt lat="43.6607182" lon="11.2694112"><ele>147.0</ele><time>2026-04-12T06:54:33.14Z</time></trkpt><trkpt lat="43.6607547" lon="11.2695287"><ele>147.0</ele><time>2026-04-12T06:54:34.138Z</time></trkpt><trkpt lat="43.6607736" lon="11.2696392"><ele>147.0</ele><time>2026-04-12T06:54:35.138Z</time></trkpt><trkpt lat="43.660796" lon="11.2697357"><ele>147.0</ele><time>2026-04-12T06:54:36.14Z</time></trkpt><trkpt lat="43.6608444" lon="11.2698695"><ele>147.0</ele><time>2026-04-12T06:54:38.141Z</time></trkpt><trkpt lat="43.6608964" lon="11.2699279"><ele>147.0</ele><time>2026-04-12T06:54:40.138Z</time></trkpt><trkpt lat="43.6609573" lon="11.2699856"><ele>147.0</ele><time>2026-04-12T06:54:42.141Z</time></trkpt><trkpt lat="43.660996" lon="11.2700642"><ele>147.0</ele><time>2026-04-12T06:54:44.141Z</time></trkpt><trkpt lat="43.6610427" lon="11.2701892"><ele>147.2</ele><time>2026-04-12T06:54:46.14Z</time></trkpt><trkpt lat="43.6610594" lon="11.2703139"><ele>147.39999999999998</ele><time>2026-04-12T06:54:48.14Z</time></trkpt><trkpt lat="43.6610685" lon="11.270474"><ele>147.60000000000002</ele><time>2026-04-12T06:54:50.14Z</time></trkpt><trkpt lat="43.6610955" lon="11.27062"><ele>147.8</ele><time>2026-04-12T06:54:52.139Z</time></trkpt><trkpt lat="43.6611194" lon="11.2707066"><ele>148.0</ele><time>2026-04-12T06:54:53.14Z</time></trkpt><trkpt lat="43.6611457" lon="11.2707989"><ele>151.2</ele><time>2026-04-12T06:54:54.14Z</time></trkpt><trkpt lat="43.6612263" lon="11.2709267"><ele>154.4</ele><time>2026-04-12T06:54:56.139Z</time></trkpt><trkpt lat="43.6612757" lon="11.2709892"><ele>157.6</ele><time>2026-04-12T06:54:57.14Z</time></trkpt><trkpt lat="43.6613321" lon="11.2710592"><ele>160.79999999999998</ele><time>2026-04-12T06:54:58.14Z</time></trkpt><trkpt lat="43.661402" lon="11.2711761"><ele>164.0</ele><time>2026-04-12T06:55:00.14Z</time></trkpt><trkpt lat="43.661486" lon="11.2712527"><ele>164.0</ele><time>2026-04-12T06:55:02.139Z</time></trkpt><trkpt lat="43.66155" lon="11.2712975"><ele>164.0</ele><time>2026-04-12T06:55:03.141Z</time></trkpt><trkpt lat="43.6616208" lon="11.2713838"><ele>164.0</ele><time>2026-04-12T06:55:05.14Z</time></trkpt><trkpt lat="43.6616997" lon="11.2714728"><ele>164.0</ele><time>2026-04-12T06:55:07.14Z</time></trkpt><trkpt lat="43.6618011" lon="11.2715595"><ele>164.0</ele><time>2026-04-12T06:55:09.139Z</time></trkpt><trkpt lat="43.6618956" lon="11.2715726"><ele>166.6</ele><time>2026-04-12T06:55:11.139Z</time></trkpt><trkpt lat="43.6619744" lon="11.271621"><ele>169.2</ele><time>2026-04-12T06:55:13.141Z</time></trkpt><trkpt lat="43.6620451" lon="11.2717417"><ele>171.79999999999998</ele><time>2026-04-12T06:55:15.141Z</time></trkpt><trkpt lat="43.6621141" lon="11.2718419"><ele>174.39999999999998</ele><time>2026-04-12T06:55:17.139Z</time></trkpt><trkpt lat="43.6621877" lon="11.2718861"><ele>177.0</ele><time>2026-04-12T06:55:19.14Z</time></trkpt><trkpt lat="43.6622583" lon="11.2719088"><ele>177.0</ele><time>2026-04-12T06:55:21.141Z</time></trkpt><trkpt lat="43.6623278" lon="11.2719438"><ele>177.0</ele><time>2026-04-12T06:55:23.139Z</time></trkpt><trkpt lat="43.6623887" lon="11.2719736"><ele>177.0</ele><time>2026-04-12T06:55:25.141Z</time></trkpt><trkpt lat="43.6624109" lon="11.2720627"><ele>177.0</ele><time>2026-04-12T06:55:30.141Z</time></trkpt><trkpt lat="43.6624388" lon="11.2721786"><ele>177.0</ele><time>2026-04-12T06:55:34.14Z</time></trkpt><trkpt lat="43.662464" lon="11.272268"><ele>177.0</ele><time>2026-04-12T06:55:36.139Z</time></trkpt><trkpt lat="43.6624825" lon="11.2723551"><ele>177.0</ele><time>2026-04-12T06:55:38.139Z</time></trkpt><trkpt lat="43.6625445" lon="11.272458"><ele>178.6</ele><time>2026-04-12T06:56:33.139Z</time></trkpt><trkpt lat="43.6626347" lon="11.2725572"><ele>180.2</ele><time>2026-04-12T06:56:35.14Z</time></trkpt><trkpt lat="43.6627487" lon="11.2726327"><ele>181.8</ele><time>2026-04-12T06:56:37.141Z</time></trkpt><trkpt lat="43.6628098" lon="11.2726768"><ele>183.4</ele><time>2026-04-12T06:56:38.141Z</time></trkpt><trkpt lat="43.6628999" lon="11.2727868"><ele>185.0</ele><time>2026-04-12T06:56:40.14Z</time></trkpt><trkpt lat="43.6629369" lon="11.2728599"><ele>185.0</ele><time>2026-04-12T06:56:41.14Z</time></trkpt><trkpt lat="43.6629823" lon="11.2729425"><ele>185.0</ele><time>2026-04-12T06:56:42.141Z</time></trkpt><trkpt lat="43.663024" lon="11.2730919"><ele>185.0</ele><time>2026-04-12T06:56:44.14Z</time></trkpt><trkpt lat="43.6630371" lon="11.2731796"><ele>185.0</ele><time>2026-04-12T06:56:45.14Z</time></trkpt><trkpt lat="43.6630537" lon="11.2732679"><ele>185.0</ele><time>2026-04-12T06:56:46.141Z</time></trkpt><trkpt lat="43.6630833" lon="11.2733471"><ele>185.0</ele><time>2026-04-12T06:56:47.141Z</time></trkpt><trkpt lat="43.6631633" lon="11.2734729"><ele>186.83333333333331</ele><time>2026-04-12T06:56:49.142Z</time></trkpt><trkpt lat="43.6632095" lon="11.2735491"><ele>188.66666666666666</ele><time>2026-04-12T06:56:50.14Z</time></trkpt><trkpt lat="43.6632492" lon="11.2736387"><ele>190.5</ele><time>2026-04-12T06:56:51.141Z</time></trkpt><trkpt lat="43.6632913" lon="11.2737325"><ele>192.33333333333331</ele><time>2026-04-12T06:56:52.14Z</time></trkpt><trkpt lat="43.6633102" lon="11.2738165"><ele>194.16666666666666</ele><time>2026-04-12T06:56:53.14Z</time></trkpt><trkpt lat="43.6633225" lon="11.2739029"><ele>196.0</ele><time>2026-04-12T06:56:54.141Z</time></trkpt><trkpt lat="43.6633805" lon="11.274061"><ele>197.16666666666666</ele><time>2026-04-12T06:56:56.141Z</time></trkpt><trkpt lat="43.6634066" lon="11.2741553"><ele>198.33333333333331</ele><time>2026-04-12T06:56:57.139Z</time></trkpt><trkpt lat="43.6634285" lon="11.2742418"><ele>199.5</ele><time>2026-04-12T06:56:58.141Z</time></trkpt><trkpt lat="43.663455" lon="11.2744135"><ele>200.66666666666669</ele><time>2026-04-12T06:57:00.141Z</time></trkpt><trkpt lat="43.6634783" lon="11.2745063"><ele>201.83333333333334</ele><time>2026-04-12T06:57:01.141Z</time></trkpt><trkpt lat="43.6635086" lon="11.2746137"><ele>203.0</ele><time>2026-04-12T06:57:02.141Z</time></trkpt><trkpt lat="43.6635317" lon="11.2747045"><ele>203.8</ele><time>2026-04-12T06:57:03.14Z</time></trkpt><trkpt lat="43.6635795" lon="11.2748196"><ele>204.60000000000002</ele><time>2026-04-12T06:57:04.142Z</time></trkpt><trkpt lat="43.6636106" lon="11.2749269"><ele>205.39999999999998</ele><time>2026-04-12T06:57:05.141Z</time></trkpt><trkpt lat="43.6636287" lon="11.2750585"><ele>206.2</ele><time>2026-04-12T06:57:06.14Z</time></trkpt><trkpt lat="43.6636479" lon="11.2751754"><ele>207.0</ele><time>2026-04-12T06:57:07.14Z</time></trkpt><trkpt lat="43.663671" lon="11.2753019"><ele>207.66666666666666</ele><time>2026-04-12T06:57:08.139Z</time></trkpt><trkpt lat="43.663702" lon="11.2754083"><ele>208.33333333333331</ele><time>2026-04-12T06:57:09.141Z</time></trkpt><trkpt lat="43.6637427" lon="11.2755068"><ele>209.0</ele><time>2026-04-12T06:57:10.141Z</time></trkpt><trkpt lat="43.6637978" lon="11.2755851"><ele>209.66666666666666</ele><time>2026-04-12T06:57:11.142Z</time></trkpt><trkpt lat="43.6638399" lon="11.2756642"><ele>210.33333333333331</ele><time>2026-04-12T06:57:12.14Z</time></trkpt><trkpt lat="43.6638507" lon="11.2758258"><ele>211.0</ele><time>2026-04-12T06:57:14.139Z</time></trkpt><trkpt lat="43.6638597" lon="11.2759346"><ele>212.83333333333331</ele><time>2026-04-12T06:57:15.141Z</time></trkpt><trkpt lat="43.6638849" lon="11.2760416"><ele>214.66666666666666</ele><time>2026-04-12T06:57:16.14Z</time></trkpt><trkpt lat="43.6638979" lon="11.2761633"><ele>216.5</ele><time>2026-04-12T06:57:17.14Z</time></trkpt><trkpt lat="43.6639183" lon="11.2762573"><ele>218.33333333333331</ele><time>2026-04-12T06:57:18.14Z</time></trkpt><trkpt lat="43.6639831" lon="11.2764141"><ele>220.16666666666666</ele><time>2026-04-12T06:57:20.141Z</time></trkpt><trkpt lat="43.6640287" lon="11.2764908"><ele>222.0</ele><time>2026-04-12T06:57:21.14Z</time></trkpt><trkpt lat="43.6640747" lon="11.2765614"><ele>222.39999999999998</ele><time>2026-04-12T06:57:22.141Z</time></trkpt><trkpt lat="43.6641277" lon="11.276648"><ele>222.79999999999998</ele><time>2026-04-12T06:57:23.141Z</time></trkpt><trkpt lat="43.6641855" lon="11.2767571"><ele>223.2</ele><time>2026-04-12T06:57:24.14Z</time></trkpt><trkpt lat="43.6642414" lon="11.2768866"><ele>223.6</ele><time>2026-04-12T06:57:25.14Z</time></trkpt><trkpt lat="43.6643015" lon="11.2770026"><ele>224.0</ele><time>2026-04-12T06:57:26.141Z</time></trkpt><trkpt lat="43.664373" lon="11.2771152"><ele>224.39999999999998</ele><time>2026-04-12T06:57:27.141Z</time></trkpt><trkpt lat="43.6644566" lon="11.2772268"><ele>224.79999999999998</ele><time>2026-04-12T06:57:28.14Z</time></trkpt><trkpt lat="43.6645416" lon="11.2773376"><ele>225.20000000000002</ele><time>2026-04-12T06:57:29.14Z</time></trkpt><trkpt lat="43.6646236" lon="11.2774415"><ele>225.60000000000002</ele><time>2026-04-12T06:57:30.14Z</time></trkpt><trkpt lat="43.6646945" lon="11.2775422"><ele>226.0</ele><time>2026-04-12T06:57:31.14Z</time></trkpt><trkpt lat="43.664763" lon="11.2776332"><ele>225.99999999999997</ele><time>2026-04-12T06:57:32.139Z</time></trkpt><trkpt lat="43.6648346" lon="11.2776922"><ele>226.0</ele><time>2026-04-12T06:57:33.141Z</time></trkpt><trkpt lat="43.6649048" lon="11.2777391"><ele>226.0</ele><time>2026-04-12T06:57:34.141Z</time></trkpt><trkpt lat="43.6649781" lon="11.2777884"><ele>226.0</ele><time>2026-04-12T06:57:35.141Z</time></trkpt><trkpt lat="43.6650339" lon="11.2778381"><ele>225.99999999999997</ele><time>2026-04-12T06:57:36.141Z</time></trkpt><trkpt lat="43.6651033" lon="11.277932"><ele>226.0</ele><time>2026-04-12T06:57:38.142Z</time></trkpt><trkpt lat="43.6651555" lon="11.2780252"><ele>225.49999999999997</ele><time>2026-04-12T06:58:06.141Z</time></trkpt><trkpt lat="43.6651923" lon="11.2781663"><ele>225.0</ele><time>2026-04-12T06:58:08.142Z</time></trkpt><trkpt lat="43.6652009" lon="11.2782631"><ele>224.5</ele><time>2026-04-12T06:58:09.142Z</time></trkpt><trkpt lat="43.6652192" lon="11.2783534"><ele>224.0</ele><time>2026-04-12T06:58:10.14Z</time></trkpt><trkpt lat="43.6652476" lon="11.2784312"><ele>223.49999999999997</ele><time>2026-04-12T06:58:11.142Z</time></trkpt><trkpt lat="43.6652992" lon="11.2785098"><ele>223.0</ele><time>2026-04-12T06:58:12.141Z</time></trkpt><trkpt lat="43.6653577" lon="11.2785817"><ele>223.0</ele><time>2026-04-12T06:58:13.14Z</time></trkpt><trkpt lat="43.6654183" lon="11.2786772"><ele>223.0</ele><time>2026-04-12T06:58:14.142Z</time></trkpt><trkpt lat="43.6654776" lon="11.2788109"><ele>223.0</ele><time>2026-04-12T06:58:15.14Z</time></trkpt><trkpt lat="43.6655345" lon="11.278945"><ele>223.0</ele><time>2026-04-12T06:58:16.141Z</time></trkpt><trkpt lat="43.6655811" lon="11.2790616"><ele>223.0</ele><time>2026-04-12T06:58:17.14Z</time></trkpt><trkpt lat="43.6656139" lon="11.2791918"><ele>223.8</ele><time>2026-04-12T06:58:18.141Z</time></trkpt><trkpt lat="43.6656519" lon="11.2793376"><ele>224.60000000000002</ele><time>2026-04-12T06:58:19.141Z</time></trkpt><trkpt lat="43.6656978" lon="11.2794746"><ele>225.39999999999998</ele><time>2026-04-12T06:58:20.141Z</time></trkpt><trkpt lat="43.6657516" lon="11.2796126"><ele>226.2</ele><time>2026-04-12T06:58:21.141Z</time></trkpt><trkpt lat="43.6658102" lon="11.2797281"><ele>227.0</ele><time>2026-04-12T06:58:22.141Z</time></trkpt><trkpt lat="43.6658761" lon="11.2798216"><ele>226.57142857142858</ele><time>2026-04-12T06:58:23.141Z</time></trkpt><trkpt lat="43.6659344" lon="11.2798973"><ele>226.14285714285717</ele><time>2026-04-12T06:58:24.141Z</time></trkpt><trkpt lat="43.6659953" lon="11.2799463"><ele>225.71428571428572</ele><time>2026-04-12T06:58:25.141Z</time></trkpt><trkpt lat="43.6660592" lon="11.2799871"><ele>225.28571428571428</ele><time>2026-04-12T06:58:26.14Z</time></trkpt><trkpt lat="43.6661222" lon="11.2800532"><ele>224.85714285714286</ele><time>2026-04-12T06:58:27.14Z</time></trkpt><trkpt lat="43.6661703" lon="11.2801265"><ele>224.42857142857144</ele><time>2026-04-12T06:58:28.14Z</time></trkpt><trkpt lat="43.6662154" lon="11.2802129"><ele>224.0</ele><time>2026-04-12T06:58:29.14Z</time></trkpt><trkpt lat="43.6662472" lon="11.2803131"><ele>224.00000000000003</ele><time>2026-04-12T06:58:30.141Z</time></trkpt><trkpt lat="43.6662846" lon="11.2804199"><ele>224.0</ele><time>2026-04-12T06:58:31.141Z</time></trkpt><trkpt lat="43.6663182" lon="11.28053"><ele>224.0</ele><time>2026-04-12T06:58:32.141Z</time></trkpt><trkpt lat="43.666356" lon="11.280637"><ele>224.0</ele><time>2026-04-12T06:58:33.141Z</time></trkpt><trkpt lat="43.6663874" lon="11.280744"><ele>224.00000000000003</ele><time>2026-04-12T06:58:34.141Z</time></trkpt><trkpt lat="43.6664226" lon="11.2808598"><ele>224.0</ele><time>2026-04-12T06:58:35.141Z</time></trkpt><trkpt lat="43.6664492" lon="11.2809771"><ele>224.66666666666669</ele><time>2026-04-12T06:58:36.14Z</time></trkpt><trkpt lat="43.6664748" lon="11.2810955"><ele>225.33333333333334</ele><time>2026-04-12T06:58:37.141Z</time></trkpt><trkpt lat="43.6665012" lon="11.2812024"><ele>226.0</ele><time>2026-04-12T06:58:38.141Z</time></trkpt><trkpt lat="43.6665264" lon="11.2813145"><ele>226.66666666666669</ele><time>2026-04-12T06:58:39.141Z</time></trkpt><trkpt lat="43.6665573" lon="11.2814324"><ele>227.33333333333334</ele><time>2026-04-12T06:58:40.14Z</time></trkpt><trkpt lat="43.6665726" lon="11.2815472"><ele>228.0</ele><time>2026-04-12T06:58:41.141Z</time></trkpt><trkpt lat="43.6665823" lon="11.2816691"><ele>229.4</ele><time>2026-04-12T06:58:42.141Z</time></trkpt><trkpt lat="43.666591" lon="11.2817936"><ele>230.8</ele><time>2026-04-12T06:58:43.14Z</time></trkpt><trkpt lat="43.6666011" lon="11.2819174"><ele>232.2</ele><time>2026-04-12T06:58:44.141Z</time></trkpt><trkpt lat="43.6666157" lon="11.2820385"><ele>233.6</ele><time>2026-04-12T06:58:45.141Z</time></trkpt><trkpt lat="43.6666407" lon="11.2821738"><ele>235.0</ele><time>2026-04-12T06:58:46.142Z</time></trkpt><trkpt lat="43.6666538" lon="11.2823027"><ele>236.33333333333331</ele><time>2026-04-12T06:58:47.141Z</time></trkpt><trkpt lat="43.6666658" lon="11.2824297"><ele>237.66666666666666</ele><time>2026-04-12T06:58:48.141Z</time></trkpt><trkpt lat="43.6666797" lon="11.2825456"><ele>239.0</ele><time>2026-04-12T06:58:49.142Z</time></trkpt><trkpt lat="43.6666926" lon="11.2826371"><ele>240.33333333333331</ele><time>2026-04-12T06:58:50.141Z</time></trkpt><trkpt lat="43.6667116" lon="11.2827618"><ele>241.66666666666666</ele><time>2026-04-12T06:58:52.141Z</time></trkpt><trkpt lat="43.6667394" lon="11.2828418"><ele>243.0</ele><time>2026-04-12T06:58:54.142Z</time></trkpt><trkpt lat="43.6668271" lon="11.2829136"><ele>243.0</ele><time>2026-04-12T06:58:56.141Z</time></trkpt><trkpt lat="43.6668792" lon="11.2829632"><ele>243.0</ele><time>2026-04-12T06:58:57.142Z</time></trkpt><trkpt lat="43.6669388" lon="11.2830256"><ele>243.0</ele><time>2026-04-12T06:58:58.142Z</time></trkpt><trkpt lat="43.6670048" lon="11.2830912"><ele>243.0</ele><time>2026-04-12T06:58:59.14Z</time></trkpt><trkpt lat="43.6670525" lon="11.2831683"><ele>243.0</ele><time>2026-04-12T06:59:00.14Z</time></trkpt><trkpt lat="43.6670942" lon="11.2832523"><ele>243.0</ele><time>2026-04-12T06:59:01.142Z</time></trkpt><trkpt lat="43.6671204" lon="11.2833561"><ele>243.0</ele><time>2026-04-12T06:59:02.14Z</time></trkpt><trkpt lat="43.6671498" lon="11.2834718"><ele>242.4</ele><time>2026-04-12T06:59:03.142Z</time></trkpt><trkpt lat="43.6671745" lon="11.2835974"><ele>241.8</ele><time>2026-04-12T06:59:04.141Z</time></trkpt><trkpt lat="43.6672005" lon="11.2837268"><ele>241.2</ele><time>2026-04-12T06:59:05.142Z</time></trkpt><trkpt lat="43.667222" lon="11.2838507"><ele>240.6</ele><time>2026-04-12T06:59:06.14Z</time></trkpt><trkpt lat="43.6672442" lon="11.2839677"><ele>240.0</ele><time>2026-04-12T06:59:07.14Z</time></trkpt><trkpt lat="43.6672596" lon="11.2840821"><ele>241.16666666666666</ele><time>2026-04-12T06:59:08.141Z</time></trkpt><trkpt lat="43.6672732" lon="11.2841879"><ele>242.33333333333331</ele><time>2026-04-12T06:59:09.141Z</time></trkpt><trkpt lat="43.667288" lon="11.2842924"><ele>243.5</ele><time>2026-04-12T06:59:10.141Z</time></trkpt><trkpt lat="43.6673076" lon="11.2843965"><ele>244.66666666666666</ele><time>2026-04-12T06:59:11.141Z</time></trkpt><trkpt lat="43.6673242" lon="11.2844987"><ele>245.83333333333331</ele><time>2026-04-12T06:59:12.14Z</time></trkpt><trkpt lat="43.6673557" lon="11.2846083"><ele>247.0</ele><time>2026-04-12T06:59:13.142Z</time></trkpt><trkpt lat="43.6673984" lon="11.2847214"><ele>246.8</ele><time>2026-04-12T06:59:14.142Z</time></trkpt><trkpt lat="43.6674431" lon="11.2848382"><ele>246.6</ele><time>2026-04-12T06:59:15.142Z</time></trkpt><trkpt lat="43.6674873" lon="11.2849546"><ele>246.40000000000003</ele><time>2026-04-12T06:59:16.141Z</time></trkpt><trkpt lat="43.6675302" lon="11.2850696"><ele>246.20000000000002</ele><time>2026-04-12T06:59:17.14Z</time></trkpt><trkpt lat="43.6675728" lon="11.2851876"><ele>246.0</ele><time>2026-04-12T06:59:18.141Z</time></trkpt><trkpt lat="43.6676117" lon="11.2853002"><ele>246.0</ele><time>2026-04-12T06:59:19.141Z</time></trkpt><trkpt lat="43.667659" lon="11.285417"><ele>246.00000000000003</ele><time>2026-04-12T06:59:20.142Z</time></trkpt><trkpt lat="43.6677203" lon="11.2855265"><ele>246.00000000000003</ele><time>2026-04-12T06:59:21.14Z</time></trkpt><trkpt lat="43.6677898" lon="11.2856282"><ele>246.0</ele><time>2026-04-12T06:59:22.14Z</time></trkpt><trkpt lat="43.6678637" lon="11.285717"><ele>246.0</ele><time>2026-04-12T06:59:23.142Z</time></trkpt><trkpt lat="43.6679374" lon="11.2857841"><ele>246.0</ele><time>2026-04-12T06:59:24.141Z</time></trkpt><trkpt lat="43.6680096" lon="11.2858307"><ele>246.0</ele><time>2026-04-12T06:59:25.141Z</time></trkpt><trkpt lat="43.6680861" lon="11.2858671"><ele>246.0</ele><time>2026-04-12T06:59:26.142Z</time></trkpt><trkpt lat="43.6681686" lon="11.2859041"><ele>246.0</ele><time>2026-04-12T06:59:27.142Z</time></trkpt><trkpt lat="43.6682565" lon="11.2859365"><ele>246.0</ele><time>2026-04-12T06:59:28.14Z</time></trkpt><trkpt lat="43.6683409" lon="11.2859738"><ele>246.0</ele><time>2026-04-12T06:59:29.141Z</time></trkpt><trkpt lat="43.6684111" lon="11.2860204"><ele>246.0</ele><time>2026-04-12T06:59:30.142Z</time></trkpt><trkpt lat="43.668482" lon="11.286073"><ele>246.0</ele><time>2026-04-12T06:59:31.142Z</time></trkpt><trkpt lat="43.6685461" lon="11.2861466"><ele>246.0</ele><time>2026-04-12T06:59:32.141Z</time></trkpt><trkpt lat="43.6686031" lon="11.2862167"><ele>246.0</ele><time>2026-04-12T06:59:33.141Z</time></trkpt><trkpt lat="43.6686743" lon="11.2863518"><ele>246.0</ele><time>2026-04-12T06:59:35.141Z</time></trkpt><trkpt lat="43.668692" lon="11.286445"><ele>246.0</ele><time>2026-04-12T06:59:36.14Z</time></trkpt><trkpt lat="43.6687124" lon="11.2865642"><ele>246.5</ele><time>2026-04-12T06:59:37.142Z</time></trkpt><trkpt lat="43.668742" lon="11.2867087"><ele>247.0</ele><time>2026-04-12T06:59:38.141Z</time></trkpt><trkpt lat="43.6687739" lon="11.2868664"><ele>247.5</ele><time>2026-04-12T06:59:39.141Z</time></trkpt><trkpt lat="43.6688159" lon="11.2870315"><ele>248.0</ele><time>2026-04-12T06:59:40.141Z</time></trkpt><trkpt lat="43.6688626" lon="11.2872221"><ele>248.0</ele><time>2026-04-12T06:59:41.141Z</time></trkpt><trkpt lat="43.6689106" lon="11.2874154"><ele>248.0</ele><time>2026-04-12T06:59:42.141Z</time></trkpt><trkpt lat="43.6689541" lon="11.2876109"><ele>248.0</ele><time>2026-04-12T06:59:43.142Z</time></trkpt><trkpt lat="43.6689925" lon="11.2878154"><ele>248.0</ele><time>2026-04-12T06:59:44.141Z</time></trkpt><trkpt lat="43.6690284" lon="11.2880495"><ele>248.0</ele><time>2026-04-12T06:59:45.141Z</time></trkpt><trkpt lat="43.6690587" lon="11.2882811"><ele>248.0</ele><time>2026-04-12T06:59:46.141Z</time></trkpt><trkpt lat="43.6690867" lon="11.2885153"><ele>248.0</ele><time>2026-04-12T06:59:47.142Z</time></trkpt><trkpt lat="43.6691175" lon="11.2887528"><ele>246.0</ele><time>2026-04-12T06:59:48.14Z</time></trkpt><trkpt lat="43.6691385" lon="11.2889922"><ele>244.0</ele><time>2026-04-12T06:59:49.141Z</time></trkpt><trkpt lat="43.6691487" lon="11.2892374"><ele>242.0</ele><time>2026-04-12T06:59:50.142Z</time></trkpt><trkpt lat="43.6691477" lon="11.289484"><ele>242.0</ele><time>2026-04-12T06:59:51.14Z</time></trkpt><trkpt lat="43.6691272" lon="11.2897328"><ele>242.0</ele><time>2026-04-12T06:59:52.142Z</time></trkpt><trkpt lat="43.6690955" lon="11.2899854"><ele>242.0</ele><time>2026-04-12T06:59:53.142Z</time></trkpt><trkpt lat="43.6690573" lon="11.2902358"><ele>241.66666666666669</ele><time>2026-04-12T06:59:54.141Z</time></trkpt><trkpt lat="43.669008" lon="11.2904804"><ele>241.33333333333331</ele><time>2026-04-12T06:59:55.141Z</time></trkpt><trkpt lat="43.6689573" lon="11.2907294"><ele>241.0</ele><time>2026-04-12T06:59:56.141Z</time></trkpt><trkpt lat="43.6688999" lon="11.2909827"><ele>241.0</ele><time>2026-04-12T06:59:57.141Z</time></trkpt><trkpt lat="43.6688314" lon="11.2912268"><ele>241.0</ele><time>2026-04-12T06:59:58.141Z</time></trkpt><trkpt lat="43.6687445" lon="11.2914473"><ele>241.0</ele><time>2026-04-12T06:59:59.14Z</time></trkpt><trkpt lat="43.6686468" lon="11.2916353"><ele>239.75</ele><time>2026-04-12T07:00:00.143Z</time></trkpt><trkpt lat="43.668548" lon="11.2918106"><ele>238.5</ele><time>2026-04-12T07:00:01.142Z</time></trkpt><trkpt lat="43.6684628" lon="11.2919612"><ele>237.25</ele><time>2026-04-12T07:00:02.142Z</time></trkpt><trkpt lat="43.6683888" lon="11.2920923"><ele>236.0</ele><time>2026-04-12T07:00:03.142Z</time></trkpt><trkpt lat="43.6683294" lon="11.2922025"><ele>236.20000000000002</ele><time>2026-04-12T07:00:04.142Z</time></trkpt><trkpt lat="43.6682423" lon="11.2923544"><ele>236.40000000000003</ele><time>2026-04-12T07:00:06.141Z</time></trkpt><trkpt lat="43.6681688" lon="11.2924355"><ele>236.6</ele><time>2026-04-12T07:00:08.141Z</time></trkpt><trkpt lat="43.6681046" lon="11.29246"><ele>236.8</ele><time>2026-04-12T07:00:09.141Z</time></trkpt><trkpt lat="43.6680388" lon="11.2924696"><ele>237.0</ele><time>2026-04-12T07:00:10.141Z</time></trkpt><trkpt lat="43.6679534" lon="11.292489"><ele>237.0</ele><time>2026-04-12T07:00:11.141Z</time></trkpt><trkpt lat="43.6678722" lon="11.2925129"><ele>237.0</ele><time>2026-04-12T07:00:12.141Z</time></trkpt><trkpt lat="43.6677844" lon="11.292532"><ele>237.0</ele><time>2026-04-12T07:00:13.141Z</time></trkpt><trkpt lat="43.6676939" lon="11.2925665"><ele>237.0</ele><time>2026-04-12T07:00:14.141Z</time></trkpt><trkpt lat="43.6676084" lon="11.2925924"><ele>237.0</ele><time>2026-04-12T07:00:15.142Z</time></trkpt><trkpt lat="43.6675202" lon="11.2926281"><ele>237.0</ele><time>2026-04-12T07:00:16.142Z</time></trkpt><trkpt lat="43.6674278" lon="11.2926668"><ele>237.6</ele><time>2026-04-12T07:00:17.141Z</time></trkpt><trkpt lat="43.6673347" lon="11.2927057"><ele>238.2</ele><time>2026-04-12T07:00:18.141Z</time></trkpt><trkpt lat="43.6672352" lon="11.2927483"><ele>238.8</ele><time>2026-04-12T07:00:19.142Z</time></trkpt><trkpt lat="43.6671306" lon="11.2927974"><ele>239.4</ele><time>2026-04-12T07:00:20.142Z</time></trkpt><trkpt lat="43.667022" lon="11.2928498"><ele>240.0</ele><time>2026-04-12T07:00:21.141Z</time></trkpt><trkpt lat="43.6669069" lon="11.292895"><ele>240.5</ele><time>2026-04-12T07:00:22.141Z</time></trkpt><trkpt lat="43.6667898" lon="11.2929386"><ele>241.0</ele><time>2026-04-12T07:00:23.142Z</time></trkpt><trkpt lat="43.6666549" lon="11.2929787"><ele>241.5</ele><time>2026-04-12T07:00:24.142Z</time></trkpt><trkpt lat="43.6665129" lon="11.2930215"><ele>242.0</ele><time>2026-04-12T07:00:25.142Z</time></trkpt><trkpt lat="43.6663634" lon="11.2930685"><ele>241.25</ele><time>2026-04-12T07:00:26.141Z</time></trkpt><trkpt lat="43.6662186" lon="11.2931171"><ele>240.5</ele><time>2026-04-12T07:00:27.14Z</time></trkpt><trkpt lat="43.6660818" lon="11.2931697"><ele>239.75</ele><time>2026-04-12T07:00:28.142Z</time></trkpt><trkpt lat="43.6659358" lon="11.2932285"><ele>239.0</ele><time>2026-04-12T07:00:29.143Z</time></trkpt><trkpt lat="43.6657863" lon="11.2932671"><ele>239.0</ele><time>2026-04-12T07:00:30.142Z</time></trkpt><trkpt lat="43.6656317" lon="11.2933004"><ele>239.0</ele><time>2026-04-12T07:00:31.142Z</time></trkpt><trkpt lat="43.6654779" lon="11.293323"><ele>239.0</ele><time>2026-04-12T07:00:32.141Z</time></trkpt><trkpt lat="43.6653168" lon="11.2933356"><ele>240.33333333333334</ele><time>2026-04-12T07:00:33.141Z</time></trkpt><trkpt lat="43.6651565" lon="11.2933612"><ele>241.66666666666669</ele><time>2026-04-12T07:00:34.142Z</time></trkpt><trkpt lat="43.665004" lon="11.2933909"><ele>243.0</ele><time>2026-04-12T07:00:35.141Z</time></trkpt><trkpt lat="43.664871" lon="11.2934244"><ele>243.0</ele><time>2026-04-12T07:00:36.141Z</time></trkpt><trkpt lat="43.6647508" lon="11.2934651"><ele>243.0</ele><time>2026-04-12T07:00:37.14Z</time></trkpt><trkpt lat="43.6646399" lon="11.2934908"><ele>243.0</ele><time>2026-04-12T07:00:38.142Z</time></trkpt><trkpt lat="43.6645322" lon="11.2934919"><ele>243.0</ele><time>2026-04-12T07:00:39.141Z</time></trkpt><trkpt lat="43.6644318" lon="11.2934585"><ele>243.0</ele><time>2026-04-12T07:00:40.141Z</time></trkpt><trkpt lat="43.6643336" lon="11.2934023"><ele>243.25</ele><time>2026-04-12T07:00:41.142Z</time></trkpt><trkpt lat="43.6642235" lon="11.2933716"><ele>243.5</ele><time>2026-04-12T07:00:42.141Z</time></trkpt><trkpt lat="43.6641084" lon="11.2933639"><ele>243.75</ele><time>2026-04-12T07:00:43.141Z</time></trkpt><trkpt lat="43.6639788" lon="11.2933385"><ele>244.0</ele><time>2026-04-12T07:00:44.141Z</time></trkpt><trkpt lat="43.6638329" lon="11.293292"><ele>244.0</ele><time>2026-04-12T07:00:45.141Z</time></trkpt><trkpt lat="43.6636845" lon="11.2932543"><ele>244.0</ele><time>2026-04-12T07:00:46.143Z</time></trkpt><trkpt lat="43.6635357" lon="11.2932299"><ele>244.0</ele><time>2026-04-12T07:00:47.141Z</time></trkpt><trkpt lat="43.6633965" lon="11.293223"><ele>244.0</ele><time>2026-04-12T07:00:48.142Z</time></trkpt><trkpt lat="43.6632843" lon="11.2932175"><ele>242.99999999999997</ele><time>2026-04-12T07:00:49.141Z</time></trkpt><trkpt lat="43.6632035" lon="11.2932107"><ele>242.0</ele><time>2026-04-12T07:00:50.142Z</time></trkpt><trkpt lat="43.6631335" lon="11.2932094"><ele>241.0</ele><time>2026-04-12T07:00:52.143Z</time></trkpt><trkpt lat="43.6630315" lon="11.2932329"><ele>240.0</ele><time>2026-04-12T07:01:03.142Z</time></trkpt><trkpt lat="43.6629564" lon="11.2932387"><ele>238.99999999999997</ele><time>2026-04-12T07:01:04.141Z</time></trkpt><trkpt lat="43.6628622" lon="11.2932409"><ele>238.0</ele><time>2026-04-12T07:01:05.14Z</time></trkpt><trkpt lat="43.6627644" lon="11.2932441"><ele>236.5</ele><time>2026-04-12T07:01:06.142Z</time></trkpt><trkpt lat="43.6626551" lon="11.2932357"><ele>235.0</ele><time>2026-04-12T07:01:07.141Z</time></trkpt><trkpt lat="43.66254" lon="11.293214"><ele>233.5</ele><time>2026-04-12T07:01:08.142Z</time></trkpt><trkpt lat="43.6624199" lon="11.2931832"><ele>232.0</ele><time>2026-04-12T07:01:09.142Z</time></trkpt><trkpt lat="43.6622943" lon="11.2931423"><ele>230.5</ele><time>2026-04-12T07:01:10.141Z</time></trkpt><trkpt lat="43.6621652" lon="11.2930837"><ele>229.0</ele><time>2026-04-12T07:01:11.142Z</time></trkpt><trkpt lat="43.6620301" lon="11.2930198"><ele>227.5</ele><time>2026-04-12T07:01:12.141Z</time></trkpt><trkpt lat="43.6618955" lon="11.2929477"><ele>226.0</ele><time>2026-04-12T07:01:13.142Z</time></trkpt><trkpt lat="43.6617676" lon="11.292861"><ele>226.0</ele><time>2026-04-12T07:01:14.142Z</time></trkpt><trkpt lat="43.6616265" lon="11.2927591"><ele>226.0</ele><time>2026-04-12T07:01:15.141Z</time></trkpt><trkpt lat="43.6614808" lon="11.2926552"><ele>226.0</ele><time>2026-04-12T07:01:16.141Z</time></trkpt><trkpt lat="43.6613254" lon="11.2925561"><ele>226.0</ele><time>2026-04-12T07:01:17.141Z</time></trkpt><trkpt lat="43.6611537" lon="11.2924707"><ele>226.0</ele><time>2026-04-12T07:01:18.142Z</time></trkpt><trkpt lat="43.6609661" lon="11.2924104"><ele>226.0</ele><time>2026-04-12T07:01:19.142Z</time></trkpt><trkpt lat="43.6607735" lon="11.29239"><ele>225.66666666666666</ele><time>2026-04-12T07:01:20.141Z</time></trkpt><trkpt lat="43.6605754" lon="11.2924024"><ele>225.33333333333331</ele><time>2026-04-12T07:01:21.141Z</time></trkpt><trkpt lat="43.6603818" lon="11.2924512"><ele>225.0</ele><time>2026-04-12T07:01:22.141Z</time></trkpt><trkpt lat="43.6601931" lon="11.2925306"><ele>223.33333333333331</ele><time>2026-04-12T07:01:23.141Z</time></trkpt><trkpt lat="43.6600171" lon="11.2926606"><ele>221.66666666666666</ele><time>2026-04-12T07:01:24.141Z</time></trkpt><trkpt lat="43.6598622" lon="11.2928123"><ele>220.0</ele><time>2026-04-12T07:01:25.142Z</time></trkpt><trkpt lat="43.6597297" lon="11.2929566"><ele>221.5</ele><time>2026-04-12T07:01:26.142Z</time></trkpt><trkpt lat="43.6596164" lon="11.2930944"><ele>223.0</ele><time>2026-04-12T07:01:27.143Z</time></trkpt><trkpt lat="43.6595148" lon="11.293191"><ele>224.5</ele><time>2026-04-12T07:01:28.143Z</time></trkpt><trkpt lat="43.6594243" lon="11.2932643"><ele>226.0</ele><time>2026-04-12T07:01:29.14Z</time></trkpt><trkpt lat="43.6593396" lon="11.2933245"><ele>226.0</ele><time>2026-04-12T07:01:30.143Z</time></trkpt><trkpt lat="43.6592539" lon="11.2933844"><ele>226.00000000000003</ele><time>2026-04-12T07:01:31.143Z</time></trkpt><trkpt lat="43.659186" lon="11.2934837"><ele>226.00000000000003</ele><time>2026-04-12T07:01:32.142Z</time></trkpt><trkpt lat="43.6591478" lon="11.2936219"><ele>226.0</ele><time>2026-04-12T07:01:33.141Z</time></trkpt><trkpt lat="43.6590875" lon="11.2937628"><ele>226.0</ele><time>2026-04-12T07:01:34.142Z</time></trkpt><trkpt lat="43.6589921" lon="11.2938892"><ele>227.25</ele><time>2026-04-12T07:01:35.141Z</time></trkpt><trkpt lat="43.6588754" lon="11.2940149"><ele>228.5</ele><time>2026-04-12T07:01:36.141Z</time></trkpt><trkpt lat="43.6587536" lon="11.2941277"><ele>229.75</ele><time>2026-04-12T07:01:37.142Z</time></trkpt><trkpt lat="43.6586212" lon="11.2942363"><ele>231.0</ele><time>2026-04-12T07:01:38.141Z</time></trkpt><trkpt lat="43.6584808" lon="11.2943487"><ele>232.0</ele><time>2026-04-12T07:01:39.14Z</time></trkpt><trkpt lat="43.6583349" lon="11.2944583"><ele>233.0</ele><time>2026-04-12T07:01:40.14Z</time></trkpt><trkpt lat="43.6582024" lon="11.2945636"><ele>234.0</ele><time>2026-04-12T07:01:41.142Z</time></trkpt><trkpt lat="43.6580749" lon="11.2946715"><ele>233.75</ele><time>2026-04-12T07:01:42.141Z</time></trkpt><trkpt lat="43.657949" lon="11.2947807"><ele>233.5</ele><time>2026-04-12T07:01:43.141Z</time></trkpt><trkpt lat="43.6578226" lon="11.2948878"><ele>233.25</ele><time>2026-04-12T07:01:44.142Z</time></trkpt><trkpt lat="43.6577049" lon="11.2950104"><ele>233.0</ele><time>2026-04-12T07:01:45.142Z</time></trkpt><trkpt lat="43.6575954" lon="11.2951313"><ele>233.0</ele><time>2026-04-12T07:01:46.142Z</time></trkpt><trkpt lat="43.6574859" lon="11.2952673"><ele>233.0</ele><time>2026-04-12T07:01:47.142Z</time></trkpt><trkpt lat="43.6573766" lon="11.2954017"><ele>233.0</ele><time>2026-04-12T07:01:48.142Z</time></trkpt><trkpt lat="43.6572875" lon="11.2955578"><ele>233.0</ele><time>2026-04-12T07:01:49.142Z</time></trkpt><trkpt lat="43.6572054" lon="11.2957102"><ele>233.0</ele><time>2026-04-12T07:01:50.142Z</time></trkpt><trkpt lat="43.6571251" lon="11.2958576"><ele>233.0</ele><time>2026-04-12T07:01:51.143Z</time></trkpt><trkpt lat="43.6570548" lon="11.2959996"><ele>233.0</ele><time>2026-04-12T07:01:52.142Z</time></trkpt><trkpt lat="43.6569943" lon="11.2961458"><ele>233.0</ele><time>2026-04-12T07:01:53.141Z</time></trkpt><trkpt lat="43.6569331" lon="11.2963033"><ele>230.25</ele><time>2026-04-12T07:01:54.141Z</time></trkpt><trkpt lat="43.6568724" lon="11.2964699"><ele>227.5</ele><time>2026-04-12T07:01:55.142Z</time></trkpt><trkpt lat="43.6568041" lon="11.2966461"><ele>224.75</ele><time>2026-04-12T07:01:56.142Z</time></trkpt><trkpt lat="43.6567363" lon="11.2968274"><ele>222.0</ele><time>2026-04-12T07:01:57.143Z</time></trkpt><trkpt lat="43.6566638" lon="11.2970177"><ele>222.0</ele><time>2026-04-12T07:01:58.143Z</time></trkpt><trkpt lat="43.6565898" lon="11.2972067"><ele>222.0</ele><time>2026-04-12T07:01:59.142Z</time></trkpt><trkpt lat="43.6565151" lon="11.2973977"><ele>222.0</ele><time>2026-04-12T07:02:00.143Z</time></trkpt><trkpt lat="43.6564309" lon="11.2975781"><ele>221.75</ele><time>2026-04-12T07:02:01.141Z</time></trkpt><trkpt lat="43.6563453" lon="11.2977421"><ele>221.5</ele><time>2026-04-12T07:02:02.14Z</time></trkpt><trkpt lat="43.6562603" lon="11.2979012"><ele>221.25</ele><time>2026-04-12T07:02:03.141Z</time></trkpt><trkpt lat="43.6561708" lon="11.2980498"><ele>221.0</ele><time>2026-04-12T07:02:04.141Z</time></trkpt><trkpt lat="43.6560872" lon="11.2981827"><ele>218.66666666666669</ele><time>2026-04-12T07:02:05.142Z</time></trkpt><trkpt lat="43.6560171" lon="11.2983012"><ele>216.33333333333334</ele><time>2026-04-12T07:02:06.143Z</time></trkpt><trkpt lat="43.6559552" lon="11.2983989"><ele>214.0</ele><time>2026-04-12T07:02:07.141Z</time></trkpt><trkpt lat="43.6559113" lon="11.2984905"><ele>211.66666666666669</ele><time>2026-04-12T07:02:08.141Z</time></trkpt><trkpt lat="43.6559014" lon="11.2985896"><ele>209.33333333333334</ele><time>2026-04-12T07:02:09.142Z</time></trkpt><trkpt lat="43.6559187" lon="11.2986783"><ele>207.0</ele><time>2026-04-12T07:02:10.142Z</time></trkpt><trkpt lat="43.6559696" lon="11.2987774"><ele>207.0</ele><time>2026-04-12T07:02:11.142Z</time></trkpt><trkpt lat="43.6560374" lon="11.2988748"><ele>207.0</ele><time>2026-04-12T07:02:12.141Z</time></trkpt><trkpt lat="43.6561127" lon="11.2989778"><ele>207.0</ele><time>2026-04-12T07:02:13.142Z</time></trkpt><trkpt lat="43.6561956" lon="11.2990815"><ele>207.0</ele><time>2026-04-12T07:02:14.141Z</time></trkpt><trkpt lat="43.6562921" lon="11.2992007"><ele>207.0</ele><time>2026-04-12T07:02:15.14Z</time></trkpt><trkpt lat="43.6563959" lon="11.2993169"><ele>212.0</ele><time>2026-04-12T07:02:16.142Z</time></trkpt><trkpt lat="43.6565093" lon="11.2994237"><ele>217.0</ele><time>2026-04-12T07:02:17.142Z</time></trkpt><trkpt lat="43.6566307" lon="11.2995193"><ele>222.0</ele><time>2026-04-12T07:02:18.141Z</time></trkpt><trkpt lat="43.6567561" lon="11.2996248"><ele>227.0</ele><time>2026-04-12T07:02:19.141Z</time></trkpt><trkpt lat="43.6568868" lon="11.2997256"><ele>229.2</ele><time>2026-04-12T07:02:20.141Z</time></trkpt><trkpt lat="43.6569972" lon="11.2998195"><ele>231.39999999999998</ele><time>2026-04-12T07:02:21.142Z</time></trkpt><trkpt lat="43.6570942" lon="11.2998898"><ele>233.60000000000002</ele><time>2026-04-12T07:02:22.141Z</time></trkpt><trkpt lat="43.6571721" lon="11.2999492"><ele>235.8</ele><time>2026-04-12T07:02:23.141Z</time></trkpt><trkpt lat="43.6572331" lon="11.2999931"><ele>238.0</ele><time>2026-04-12T07:02:24.141Z</time></trkpt><trkpt lat="43.6573047" lon="11.3000513"><ele>238.0</ele><time>2026-04-12T07:02:26.141Z</time></trkpt><trkpt lat="43.6573836" lon="11.3000546"><ele>238.0</ele><time>2026-04-12T07:02:29.142Z</time></trkpt><trkpt lat="43.6574651" lon="11.2999267"><ele>238.0</ele><time>2026-04-12T07:02:31.142Z</time></trkpt><trkpt lat="43.657509" lon="11.2998237"><ele>238.0</ele><time>2026-04-12T07:02:32.142Z</time></trkpt><trkpt lat="43.6575584" lon="11.2997013"><ele>238.0</ele><time>2026-04-12T07:02:33.142Z</time></trkpt><trkpt lat="43.6576168" lon="11.299569"><ele>238.5</ele><time>2026-04-12T07:02:34.142Z</time></trkpt><trkpt lat="43.6576814" lon="11.2994213"><ele>239.0</ele><time>2026-04-12T07:02:35.14Z</time></trkpt><trkpt lat="43.657748" lon="11.2992684"><ele>239.5</ele><time>2026-04-12T07:02:36.142Z</time></trkpt><trkpt lat="43.6578099" lon="11.2991203"><ele>240.0</ele><time>2026-04-12T07:02:37.142Z</time></trkpt><trkpt lat="43.6578705" lon="11.29897"><ele>241.5</ele><time>2026-04-12T07:02:38.141Z</time></trkpt><trkpt lat="43.6579283" lon="11.298819"><ele>243.0</ele><time>2026-04-12T07:02:39.142Z</time></trkpt><trkpt lat="43.6579829" lon="11.2986653"><ele>244.5</ele><time>2026-04-12T07:02:40.141Z</time></trkpt><trkpt lat="43.6580391" lon="11.2985154"><ele>246.0</ele><time>2026-04-12T07:02:41.142Z</time></trkpt><trkpt lat="43.6580938" lon="11.2983722"><ele>246.0</ele><time>2026-04-12T07:02:42.142Z</time></trkpt><trkpt lat="43.6581456" lon="11.2982466"><ele>246.0</ele><time>2026-04-12T07:02:43.142Z</time></trkpt><trkpt lat="43.6581932" lon="11.2981375"><ele>246.0</ele><time>2026-04-12T07:02:44.142Z</time></trkpt><trkpt lat="43.6582282" lon="11.2980512"><ele>246.0</ele><time>2026-04-12T07:02:45.143Z</time></trkpt><trkpt lat="43.6582891" lon="11.297997"><ele>246.0</ele><time>2026-04-12T07:02:47.142Z</time></trkpt><trkpt lat="43.6582357" lon="11.2980725"><ele>246.0</ele><time>2026-04-12T07:18:19.144Z</time></trkpt><trkpt lat="43.6581843" lon="11.2981316"><ele>246.0</ele><time>2026-04-12T07:18:21.145Z</time></trkpt><trkpt lat="43.6581435" lon="11.2982234"><ele>246.0</ele><time>2026-04-12T07:18:23.146Z</time></trkpt><trkpt lat="43.6581099" lon="11.2983121"><ele>246.0</ele><time>2026-04-12T07:18:25.144Z</time></trkpt><trkpt lat="43.6580685" lon="11.2984051"><ele>246.0</ele><time>2026-04-12T07:18:27.146Z</time></trkpt><trkpt lat="43.6580278" lon="11.2985098"><ele>246.0</ele><time>2026-04-12T07:18:29.145Z</time></trkpt><trkpt lat="43.6579845" lon="11.2986206"><ele>246.0</ele><time>2026-04-12T07:18:31.144Z</time></trkpt><trkpt lat="43.6579389" lon="11.2987328"><ele>246.0</ele><time>2026-04-12T07:18:33.145Z</time></trkpt><trkpt lat="43.6578928" lon="11.2988464"><ele>246.00000000000003</ele><time>2026-04-12T07:18:35.144Z</time></trkpt><trkpt lat="43.6578471" lon="11.298952"><ele>246.00000000000003</ele><time>2026-04-12T07:18:37.144Z</time></trkpt><trkpt lat="43.6578016" lon="11.2990555"><ele>246.0</ele><time>2026-04-12T07:18:39.144Z</time></trkpt><trkpt lat="43.6577589" lon="11.2991648"><ele>246.0</ele><time>2026-04-12T07:18:41.146Z</time></trkpt><trkpt lat="43.6577073" lon="11.2992717"><ele>244.8</ele><time>2026-04-12T07:18:43.145Z</time></trkpt><trkpt lat="43.6576569" lon="11.2993819"><ele>243.60000000000002</ele><time>2026-04-12T07:18:45.145Z</time></trkpt><trkpt lat="43.6576051" lon="11.2994875"><ele>242.4</ele><time>2026-04-12T07:18:47.145Z</time></trkpt><trkpt lat="43.6575561" lon="11.2995888"><ele>241.2</ele><time>2026-04-12T07:18:49.145Z</time></trkpt><trkpt lat="43.6575096" lon="11.2996971"><ele>240.0</ele><time>2026-04-12T07:18:51.145Z</time></trkpt><trkpt lat="43.6574588" lon="11.2998078"><ele>239.66666666666666</ele><time>2026-04-12T07:18:53.145Z</time></trkpt><trkpt lat="43.6574108" lon="11.2999167"><ele>239.33333333333331</ele><time>2026-04-12T07:18:55.145Z</time></trkpt><trkpt lat="43.6573619" lon="11.3000255"><ele>239.0</ele><time>2026-04-12T07:18:57.145Z</time></trkpt><trkpt lat="43.6573011" lon="11.3001424"><ele>238.66666666666666</ele><time>2026-04-12T07:18:59.145Z</time></trkpt><trkpt lat="43.6572685" lon="11.300222"><ele>238.33333333333331</ele><time>2026-04-12T07:19:00.146Z</time></trkpt><trkpt lat="43.6572269" lon="11.3003264"><ele>238.0</ele><time>2026-04-12T07:19:01.144Z</time></trkpt><trkpt lat="43.6571836" lon="11.3004422"><ele>238.0</ele><time>2026-04-12T07:19:02.143Z</time></trkpt><trkpt lat="43.6571367" lon="11.300557"><ele>238.0</ele><time>2026-04-12T07:19:03.145Z</time></trkpt><trkpt lat="43.6570849" lon="11.3006825"><ele>238.0</ele><time>2026-04-12T07:19:04.145Z</time></trkpt><trkpt lat="43.6570263" lon="11.3008206"><ele>238.0</ele><time>2026-04-12T07:19:05.146Z</time></trkpt><trkpt lat="43.6569588" lon="11.3009691"><ele>238.0</ele><time>2026-04-12T07:19:06.145Z</time></trkpt><trkpt lat="43.6568925" lon="11.3011124"><ele>238.5</ele><time>2026-04-12T07:19:07.145Z</time></trkpt><trkpt lat="43.6568316" lon="11.3012492"><ele>239.0</ele><time>2026-04-12T07:19:08.144Z</time></trkpt><trkpt lat="43.6567727" lon="11.3013829"><ele>239.5</ele><time>2026-04-12T07:19:09.145Z</time></trkpt><trkpt lat="43.6567102" lon="11.3015315"><ele>240.0</ele><time>2026-04-12T07:19:10.145Z</time></trkpt><trkpt lat="43.6566382" lon="11.301694"><ele>240.0</ele><time>2026-04-12T07:19:11.145Z</time></trkpt><trkpt lat="43.6565602" lon="11.3018678"><ele>240.0</ele><time>2026-04-12T07:19:12.145Z</time></trkpt><trkpt lat="43.6564797" lon="11.302045"><ele>240.0</ele><time>2026-04-12T07:19:13.145Z</time></trkpt><trkpt lat="43.6564029" lon="11.3022179"><ele>240.0</ele><time>2026-04-12T07:19:14.145Z</time></trkpt><trkpt lat="43.6563314" lon="11.3023993"><ele>241.33333333333331</ele><time>2026-04-12T07:19:15.145Z</time></trkpt><trkpt lat="43.6562607" lon="11.3025979"><ele>242.66666666666666</ele><time>2026-04-12T07:19:16.144Z</time></trkpt><trkpt lat="43.6561911" lon="11.3028062"><ele>244.0</ele><time>2026-04-12T07:19:17.146Z</time></trkpt><trkpt lat="43.6561244" lon="11.3030348"><ele>241.33333333333331</ele><time>2026-04-12T07:19:18.144Z</time></trkpt><trkpt lat="43.6560545" lon="11.3032642"><ele>238.66666666666669</ele><time>2026-04-12T07:19:19.144Z</time></trkpt><trkpt lat="43.6559858" lon="11.3035043"><ele>236.0</ele><time>2026-04-12T07:19:20.145Z</time></trkpt><trkpt lat="43.655914" lon="11.3037427"><ele>234.66666666666669</ele><time>2026-04-12T07:19:21.145Z</time></trkpt><trkpt lat="43.6558442" lon="11.3039815"><ele>233.33333333333331</ele><time>2026-04-12T07:19:22.145Z</time></trkpt><trkpt lat="43.6557793" lon="11.3042171"><ele>232.0</ele><time>2026-04-12T07:19:23.146Z</time></trkpt><trkpt lat="43.6557166" lon="11.3044659"><ele>232.0</ele><time>2026-04-12T07:19:24.145Z</time></trkpt><trkpt lat="43.6556522" lon="11.3047099"><ele>232.0</ele><time>2026-04-12T07:19:25.144Z</time></trkpt><trkpt lat="43.655572" lon="11.3049418"><ele>232.0</ele><time>2026-04-12T07:19:26.146Z</time></trkpt><trkpt lat="43.6554936" lon="11.3051677"><ele>232.0</ele><time>2026-04-12T07:19:27.145Z</time></trkpt><trkpt lat="43.6554193" lon="11.3053867"><ele>232.0</ele><time>2026-04-12T07:19:28.145Z</time></trkpt><trkpt lat="43.6553472" lon="11.3056099"><ele>232.0</ele><time>2026-04-12T07:19:29.145Z</time></trkpt><trkpt lat="43.6552648" lon="11.3058224"><ele>230.0</ele><time>2026-04-12T07:19:30.145Z</time></trkpt><trkpt lat="43.6551789" lon="11.3060394"><ele>228.0</ele><time>2026-04-12T07:19:31.145Z</time></trkpt><trkpt lat="43.6550828" lon="11.3062498"><ele>226.0</ele><time>2026-04-12T07:19:32.144Z</time></trkpt><trkpt lat="43.6549885" lon="11.3064637"><ele>226.0</ele><time>2026-04-12T07:19:33.146Z</time></trkpt><trkpt lat="43.6548873" lon="11.3066747"><ele>226.0</ele><time>2026-04-12T07:19:34.145Z</time></trkpt><trkpt lat="43.6547927" lon="11.3068724"><ele>226.0</ele><time>2026-04-12T07:19:35.145Z</time></trkpt><trkpt lat="43.6547082" lon="11.3070466"><ele>226.0</ele><time>2026-04-12T07:19:36.146Z</time></trkpt><trkpt lat="43.654611" lon="11.3071862"><ele>226.0</ele><time>2026-04-12T07:19:37.146Z</time></trkpt><trkpt lat="43.6544867" lon="11.3072913"><ele>226.0</ele><time>2026-04-12T07:19:38.146Z</time></trkpt><trkpt lat="43.6543377" lon="11.3073616"><ele>226.0</ele><time>2026-04-12T07:19:39.144Z</time></trkpt><trkpt lat="43.6541841" lon="11.307422"><ele>224.33333333333331</ele><time>2026-04-12T07:19:40.145Z</time></trkpt><trkpt lat="43.6540285" lon="11.3074841"><ele>222.66666666666669</ele><time>2026-04-12T07:19:41.146Z</time></trkpt><trkpt lat="43.6538671" lon="11.307549"><ele>221.0</ele><time>2026-04-12T07:19:42.145Z</time></trkpt><trkpt lat="43.6537022" lon="11.3076199"><ele>220.33333333333334</ele><time>2026-04-12T07:19:43.145Z</time></trkpt><trkpt lat="43.653532" lon="11.3076952"><ele>219.66666666666669</ele><time>2026-04-12T07:19:44.145Z</time></trkpt><trkpt lat="43.653365" lon="11.3077798"><ele>219.0</ele><time>2026-04-12T07:19:45.145Z</time></trkpt><trkpt lat="43.6531973" lon="11.3078632"><ele>219.0</ele><time>2026-04-12T07:19:46.145Z</time></trkpt><trkpt lat="43.6530336" lon="11.3079463"><ele>219.0</ele><time>2026-04-12T07:19:47.145Z</time></trkpt><trkpt lat="43.6528791" lon="11.3080252"><ele>219.0</ele><time>2026-04-12T07:19:48.145Z</time></trkpt><trkpt lat="43.6527397" lon="11.3080894"><ele>217.75</ele><time>2026-04-12T07:19:49.145Z</time></trkpt><trkpt lat="43.6526076" lon="11.3081377"><ele>216.5</ele><time>2026-04-12T07:19:50.145Z</time></trkpt><trkpt lat="43.6524821" lon="11.3081438"><ele>215.25</ele><time>2026-04-12T07:19:51.146Z</time></trkpt><trkpt lat="43.6523683" lon="11.3081194"><ele>214.0</ele><time>2026-04-12T07:19:52.145Z</time></trkpt><trkpt lat="43.6522698" lon="11.3081032"><ele>214.0</ele><time>2026-04-12T07:19:53.144Z</time></trkpt><trkpt lat="43.6521782" lon="11.3081265"><ele>213.99999999999997</ele><time>2026-04-12T07:19:54.144Z</time></trkpt><trkpt lat="43.6520852" lon="11.3081879"><ele>213.99999999999997</ele><time>2026-04-12T07:19:55.146Z</time></trkpt><trkpt lat="43.6519982" lon="11.3082909"><ele>214.0</ele><time>2026-04-12T07:19:56.145Z</time></trkpt><trkpt lat="43.651919" lon="11.3084352"><ele>214.0</ele><time>2026-04-12T07:19:57.146Z</time></trkpt><trkpt lat="43.6518192" lon="11.3086035"><ele>214.0</ele><time>2026-04-12T07:19:58.146Z</time></trkpt><trkpt lat="43.6517007" lon="11.3087772"><ele>214.0</ele><time>2026-04-12T07:19:59.145Z</time></trkpt><trkpt lat="43.6515779" lon="11.3089249"><ele>214.0</ele><time>2026-04-12T07:20:00.145Z</time></trkpt><trkpt lat="43.651442" lon="11.3090698"><ele>214.33333333333331</ele><time>2026-04-12T07:20:01.144Z</time></trkpt><trkpt lat="43.6513027" lon="11.3092041"><ele>214.66666666666669</ele><time>2026-04-12T07:20:02.145Z</time></trkpt><trkpt lat="43.6511601" lon="11.3093261"><ele>215.0</ele><time>2026-04-12T07:20:03.145Z</time></trkpt><trkpt lat="43.6510133" lon="11.3094552"><ele>216.0</ele><time>2026-04-12T07:20:04.145Z</time></trkpt><trkpt lat="43.6508721" lon="11.3095787"><ele>217.0</ele><time>2026-04-12T07:20:05.145Z</time></trkpt><trkpt lat="43.6507274" lon="11.3097106"><ele>218.0</ele><time>2026-04-12T07:20:06.145Z</time></trkpt><trkpt lat="43.6505792" lon="11.3098447"><ele>218.66666666666669</ele><time>2026-04-12T07:20:07.146Z</time></trkpt><trkpt lat="43.6504302" lon="11.3099833"><ele>219.33333333333331</ele><time>2026-04-12T07:20:08.145Z</time></trkpt><trkpt lat="43.6502779" lon="11.3101273"><ele>220.0</ele><time>2026-04-12T07:20:09.145Z</time></trkpt><trkpt lat="43.650125" lon="11.3102697"><ele>220.66666666666666</ele><time>2026-04-12T07:20:10.146Z</time></trkpt><trkpt lat="43.6499727" lon="11.3104063"><ele>221.33333333333331</ele><time>2026-04-12T07:20:11.144Z</time></trkpt><trkpt lat="43.6498292" lon="11.3105421"><ele>222.0</ele><time>2026-04-12T07:20:12.145Z</time></trkpt><trkpt lat="43.6496873" lon="11.310677"><ele>223.33333333333331</ele><time>2026-04-12T07:20:13.145Z</time></trkpt><trkpt lat="43.6495357" lon="11.310788"><ele>224.66666666666666</ele><time>2026-04-12T07:20:14.145Z</time></trkpt><trkpt lat="43.6493719" lon="11.310859"><ele>226.0</ele><time>2026-04-12T07:20:15.145Z</time></trkpt><trkpt lat="43.6491963" lon="11.3109038"><ele>226.66666666666666</ele><time>2026-04-12T07:20:16.144Z</time></trkpt><trkpt lat="43.6490111" lon="11.3109392"><ele>227.33333333333331</ele><time>2026-04-12T07:20:17.144Z</time></trkpt><trkpt lat="43.64883" lon="11.3109779"><ele>228.0</ele><time>2026-04-12T07:20:18.145Z</time></trkpt><trkpt lat="43.6486486" lon="11.3110159"><ele>229.33333333333331</ele><time>2026-04-12T07:20:19.145Z</time></trkpt><trkpt lat="43.6484704" lon="11.3110507"><ele>230.66666666666666</ele><time>2026-04-12T07:20:20.144Z</time></trkpt><trkpt lat="43.6482914" lon="11.3110875"><ele>232.0</ele><time>2026-04-12T07:20:21.146Z</time></trkpt><trkpt lat="43.6481139" lon="11.3111226"><ele>232.0</ele><time>2026-04-12T07:20:22.145Z</time></trkpt><trkpt lat="43.6479381" lon="11.3111609"><ele>232.0</ele><time>2026-04-12T07:20:23.145Z</time></trkpt><trkpt lat="43.6477609" lon="11.311201"><ele>232.0</ele><time>2026-04-12T07:20:24.145Z</time></trkpt><trkpt lat="43.6475831" lon="11.3112466"><ele>233.33333333333331</ele><time>2026-04-12T07:20:25.145Z</time></trkpt><trkpt lat="43.6474034" lon="11.3113002"><ele>234.66666666666669</ele><time>2026-04-12T07:20:26.145Z</time></trkpt><trkpt lat="43.6472231" lon="11.3113607"><ele>236.0</ele><time>2026-04-12T07:20:27.145Z</time></trkpt><trkpt lat="43.647038" lon="11.3114289"><ele>239.0</ele><time>2026-04-12T07:20:28.145Z</time></trkpt><trkpt lat="43.6468539" lon="11.3114964"><ele>242.0</ele><time>2026-04-12T07:20:29.144Z</time></trkpt><trkpt lat="43.6466655" lon="11.3115613"><ele>245.0</ele><time>2026-04-12T07:20:30.144Z</time></trkpt><trkpt lat="43.6464761" lon="11.3116278"><ele>245.0</ele><time>2026-04-12T07:20:31.145Z</time></trkpt><trkpt lat="43.6462872" lon="11.3117"><ele>245.0</ele><time>2026-04-12T07:20:32.147Z</time></trkpt><trkpt lat="43.6461056" lon="11.3117817"><ele>245.0</ele><time>2026-04-12T07:20:33.145Z</time></trkpt><trkpt lat="43.6459301" lon="11.3118815"><ele>244.33333333333334</ele><time>2026-04-12T07:20:34.145Z</time></trkpt><trkpt lat="43.6457542" lon="11.3119705"><ele>243.66666666666669</ele><time>2026-04-12T07:20:35.145Z</time></trkpt><trkpt lat="43.6455771" lon="11.3120421"><ele>243.0</ele><time>2026-04-12T07:20:36.144Z</time></trkpt><trkpt lat="43.645397" lon="11.3120996"><ele>243.0</ele><time>2026-04-12T07:20:37.146Z</time></trkpt><trkpt lat="43.6451968" lon="11.312144"><ele>243.0</ele><time>2026-04-12T07:20:38.145Z</time></trkpt><trkpt lat="43.6450004" lon="11.3121793"><ele>243.0</ele><time>2026-04-12T07:20:39.145Z</time></trkpt><trkpt lat="43.6447987" lon="11.3122098"><ele>244.66666666666669</ele><time>2026-04-12T07:20:40.144Z</time></trkpt><trkpt lat="43.6445871" lon="11.3122428"><ele>246.33333333333334</ele><time>2026-04-12T07:20:41.144Z</time></trkpt><trkpt lat="43.6443663" lon="11.3122792"><ele>248.0</ele><time>2026-04-12T07:20:42.144Z</time></trkpt><trkpt lat="43.6441459" lon="11.3123115"><ele>250.5</ele><time>2026-04-12T07:20:43.146Z</time></trkpt><trkpt lat="43.6439244" lon="11.3123489"><ele>253.0</ele><time>2026-04-12T07:20:44.146Z</time></trkpt><trkpt lat="43.6436959" lon="11.312394"><ele>253.5</ele><time>2026-04-12T07:20:45.144Z</time></trkpt><trkpt lat="43.6434669" lon="11.3124329"><ele>254.0</ele><time>2026-04-12T07:20:46.145Z</time></trkpt><trkpt lat="43.643233" lon="11.3124713"><ele>254.0</ele><time>2026-04-12T07:20:47.147Z</time></trkpt><trkpt lat="43.6430185" lon="11.3125048"><ele>254.0</ele><time>2026-04-12T07:20:48.144Z</time></trkpt><trkpt lat="43.6428154" lon="11.3125396"><ele>254.0</ele><time>2026-04-12T07:20:49.146Z</time></trkpt><trkpt lat="43.642622" lon="11.3125732"><ele>255.66666666666669</ele><time>2026-04-12T07:20:50.145Z</time></trkpt><trkpt lat="43.64243" lon="11.3126085"><ele>257.3333333333333</ele><time>2026-04-12T07:20:51.146Z</time></trkpt><trkpt lat="43.6422329" lon="11.3126322"><ele>259.0</ele><time>2026-04-12T07:20:52.145Z</time></trkpt><trkpt lat="43.6420292" lon="11.3126589"><ele>261.3333333333333</ele><time>2026-04-12T07:20:53.145Z</time></trkpt><trkpt lat="43.6418164" lon="11.3126882"><ele>263.6666666666667</ele><time>2026-04-12T07:20:54.145Z</time></trkpt><trkpt lat="43.6415995" lon="11.3127202"><ele>266.0</ele><time>2026-04-12T07:20:55.145Z</time></trkpt><trkpt lat="43.6413803" lon="11.3127695"><ele>266.0</ele><time>2026-04-12T07:20:56.146Z</time></trkpt><trkpt lat="43.6411654" lon="11.3128593"><ele>266.0</ele><time>2026-04-12T07:20:57.146Z</time></trkpt><trkpt lat="43.6409526" lon="11.3129888"><ele>267.33333333333337</ele><time>2026-04-12T07:20:58.146Z</time></trkpt><trkpt lat="43.6407496" lon="11.3131141"><ele>268.6666666666667</ele><time>2026-04-12T07:20:59.146Z</time></trkpt><trkpt lat="43.640555" lon="11.3132107"><ele>270.0</ele><time>2026-04-12T07:21:00.145Z</time></trkpt><trkpt lat="43.6403598" lon="11.3132709"><ele>272.6666666666667</ele><time>2026-04-12T07:21:01.146Z</time></trkpt><trkpt lat="43.6401706" lon="11.3132909"><ele>275.33333333333337</ele><time>2026-04-12T07:21:02.145Z</time></trkpt><trkpt lat="43.6399821" lon="11.3133041"><ele>278.0</ele><time>2026-04-12T07:21:03.144Z</time></trkpt><trkpt lat="43.6398132" lon="11.313317"><ele>278.0</ele><time>2026-04-12T07:21:04.146Z</time></trkpt><trkpt lat="43.6396512" lon="11.3133342"><ele>278.0</ele><time>2026-04-12T07:21:05.146Z</time></trkpt><trkpt lat="43.6394986" lon="11.3133594"><ele>278.0</ele><time>2026-04-12T07:21:06.145Z</time></trkpt><trkpt lat="43.6393457" lon="11.3133983"><ele>277.75</ele><time>2026-04-12T07:21:07.145Z</time></trkpt><trkpt lat="43.6391956" lon="11.3134434"><ele>277.5</ele><time>2026-04-12T07:21:08.145Z</time></trkpt><trkpt lat="43.6390515" lon="11.3134923"><ele>277.25</ele><time>2026-04-12T07:21:09.145Z</time></trkpt><trkpt lat="43.6389227" lon="11.3135465"><ele>277.0</ele><time>2026-04-12T07:21:10.145Z</time></trkpt><trkpt lat="43.6388032" lon="11.3136165"><ele>277.0</ele><time>2026-04-12T07:21:11.147Z</time></trkpt><trkpt lat="43.6386911" lon="11.3136805"><ele>277.0</ele><time>2026-04-12T07:21:12.146Z</time></trkpt><trkpt lat="43.6385904" lon="11.3137381"><ele>277.0</ele><time>2026-04-12T07:21:13.145Z</time></trkpt><trkpt lat="43.6384975" lon="11.3137862"><ele>277.0</ele><time>2026-04-12T07:21:14.145Z</time></trkpt><trkpt lat="43.6384185" lon="11.3138205"><ele>277.0</ele><time>2026-04-12T07:21:15.146Z</time></trkpt><trkpt lat="43.6383516" lon="11.3138435"><ele>276.0</ele><time>2026-04-12T07:21:16.145Z</time></trkpt><trkpt lat="43.6382464" lon="11.3138783"><ele>275.0</ele><time>2026-04-12T07:21:18.145Z</time></trkpt><trkpt lat="43.6381177" lon="11.3139037"><ele>274.0</ele><time>2026-04-12T07:21:20.145Z</time></trkpt><trkpt lat="43.6380264" lon="11.3139257"><ele>273.0</ele><time>2026-04-12T07:21:21.146Z</time></trkpt><trkpt lat="43.6379231" lon="11.3139413"><ele>272.0</ele><time>2026-04-12T07:21:22.145Z</time></trkpt><trkpt lat="43.6378113" lon="11.3139585"><ele>276.0</ele><time>2026-04-12T07:21:23.145Z</time></trkpt><trkpt lat="43.6376937" lon="11.3139719"><ele>280.0</ele><time>2026-04-12T07:21:24.146Z</time></trkpt><trkpt lat="43.6375749" lon="11.3139841"><ele>284.0</ele><time>2026-04-12T07:21:25.146Z</time></trkpt><trkpt lat="43.6374559" lon="11.3139927"><ele>288.0</ele><time>2026-04-12T07:21:26.145Z</time></trkpt><trkpt lat="43.637332" lon="11.3139991"><ele>288.0</ele><time>2026-04-12T07:21:27.146Z</time></trkpt><trkpt lat="43.6372035" lon="11.3140053"><ele>288.0</ele><time>2026-04-12T07:21:28.145Z</time></trkpt><trkpt lat="43.6370703" lon="11.3139981"><ele>288.0</ele><time>2026-04-12T07:21:29.146Z</time></trkpt><trkpt lat="43.6369363" lon="11.3139653"><ele>288.0</ele><time>2026-04-12T07:21:30.145Z</time></trkpt><trkpt lat="43.6368155" lon="11.313905"><ele>288.5</ele><time>2026-04-12T07:21:31.147Z</time></trkpt><trkpt lat="43.6366994" lon="11.3138316"><ele>289.0</ele><time>2026-04-12T07:21:32.144Z</time></trkpt><trkpt lat="43.636586" lon="11.3137587"><ele>289.5</ele><time>2026-04-12T07:21:33.146Z</time></trkpt><trkpt lat="43.6364737" lon="11.3136843"><ele>290.0</ele><time>2026-04-12T07:21:34.145Z</time></trkpt><trkpt lat="43.6363581" lon="11.3136234"><ele>290.0</ele><time>2026-04-12T07:21:35.145Z</time></trkpt><trkpt lat="43.6362402" lon="11.3135691"><ele>290.0</ele><time>2026-04-12T07:21:36.145Z</time></trkpt><trkpt lat="43.636109" lon="11.3135275"><ele>290.0</ele><time>2026-04-12T07:21:37.145Z</time></trkpt><trkpt lat="43.6359641" lon="11.3134985"><ele>290.0</ele><time>2026-04-12T07:21:38.144Z</time></trkpt><trkpt lat="43.6358242" lon="11.3134648"><ele>292.5</ele><time>2026-04-12T07:21:39.145Z</time></trkpt><trkpt lat="43.6356815" lon="11.3134358"><ele>295.0</ele><time>2026-04-12T07:21:40.145Z</time></trkpt><trkpt lat="43.6355376" lon="11.3134142"><ele>297.5</ele><time>2026-04-12T07:21:41.145Z</time></trkpt><trkpt lat="43.6353955" lon="11.313409"><ele>300.0</ele><time>2026-04-12T07:21:42.144Z</time></trkpt><trkpt lat="43.6352612" lon="11.3134291"><ele>300.0</ele><time>2026-04-12T07:21:43.144Z</time></trkpt><trkpt lat="43.6351256" lon="11.3134744"><ele>300.0</ele><time>2026-04-12T07:21:44.145Z</time></trkpt><trkpt lat="43.6349902" lon="11.3135517"><ele>300.0</ele><time>2026-04-12T07:21:45.145Z</time></trkpt><trkpt lat="43.6348529" lon="11.3136539"><ele>300.0</ele><time>2026-04-12T07:21:46.145Z</time></trkpt><trkpt lat="43.6347196" lon="11.3137581"><ele>300.0</ele><time>2026-04-12T07:21:47.146Z</time></trkpt><trkpt lat="43.6345799" lon="11.3138591"><ele>300.0</ele><time>2026-04-12T07:21:48.145Z</time></trkpt><trkpt lat="43.6344415" lon="11.3139454"><ele>300.0</ele><time>2026-04-12T07:21:49.146Z</time></trkpt><trkpt lat="43.6342959" lon="11.3139942"><ele>301.6666666666667</ele><time>2026-04-12T07:21:50.146Z</time></trkpt><trkpt lat="43.6341448" lon="11.3139854"><ele>303.33333333333337</ele><time>2026-04-12T07:21:51.146Z</time></trkpt><trkpt lat="43.6339909" lon="11.3139087"><ele>305.0</ele><time>2026-04-12T07:21:52.146Z</time></trkpt><trkpt lat="43.6338336" lon="11.3138108"><ele>304.33333333333337</ele><time>2026-04-12T07:21:53.145Z</time></trkpt><trkpt lat="43.6336777" lon="11.3137601"><ele>303.6666666666667</ele><time>2026-04-12T07:21:54.145Z</time></trkpt><trkpt lat="43.6335122" lon="11.3137459"><ele>303.0</ele><time>2026-04-12T07:21:55.146Z</time></trkpt><trkpt lat="43.6333403" lon="11.3137635"><ele>303.0</ele><time>2026-04-12T07:21:56.145Z</time></trkpt><trkpt lat="43.6331765" lon="11.3137964"><ele>303.0</ele><time>2026-04-12T07:21:57.145Z</time></trkpt><trkpt lat="43.6330124" lon="11.3138202"><ele>303.0</ele><time>2026-04-12T07:21:58.146Z</time></trkpt><trkpt lat="43.6328414" lon="11.3137932"><ele>304.3333333333333</ele><time>2026-04-12T07:21:59.145Z</time></trkpt><trkpt lat="43.6326706" lon="11.3137138"><ele>305.66666666666663</ele><time>2026-04-12T07:22:00.145Z</time></trkpt><trkpt lat="43.6325042" lon="11.3135936"><ele>307.0</ele><time>2026-04-12T07:22:01.145Z</time></trkpt><trkpt lat="43.6323302" lon="11.3134681"><ele>307.0</ele><time>2026-04-12T07:22:02.145Z</time></trkpt><trkpt lat="43.6321498" lon="11.313362"><ele>307.0</ele><time>2026-04-12T07:22:03.145Z</time></trkpt><trkpt lat="43.6319634" lon="11.3132698"><ele>307.0</ele><time>2026-04-12T07:22:04.146Z</time></trkpt><trkpt lat="43.6317717" lon="11.3131865"><ele>306.66666666666663</ele><time>2026-04-12T07:22:05.145Z</time></trkpt><trkpt lat="43.6315818" lon="11.3131038"><ele>306.3333333333333</ele><time>2026-04-12T07:22:06.146Z</time></trkpt><trkpt lat="43.6314076" lon="11.3129869"><ele>306.0</ele><time>2026-04-12T07:22:07.145Z</time></trkpt><trkpt lat="43.6312576" lon="11.3128339"><ele>311.0</ele><time>2026-04-12T07:22:08.145Z</time></trkpt><trkpt lat="43.6311047" lon="11.3126891"><ele>316.0</ele><time>2026-04-12T07:22:09.145Z</time></trkpt><trkpt lat="43.6309421" lon="11.3125704"><ele>321.0</ele><time>2026-04-12T07:22:10.145Z</time></trkpt><trkpt lat="43.6307691" lon="11.3124771"><ele>321.0</ele><time>2026-04-12T07:22:11.146Z</time></trkpt><trkpt lat="43.6305828" lon="11.3123953"><ele>321.0</ele><time>2026-04-12T07:22:12.145Z</time></trkpt><trkpt lat="43.6304019" lon="11.3123192"><ele>321.0</ele><time>2026-04-12T07:22:13.146Z</time></trkpt><trkpt lat="43.6302274" lon="11.312228"><ele>321.6666666666667</ele><time>2026-04-12T07:22:14.144Z</time></trkpt><trkpt lat="43.6300565" lon="11.3121313"><ele>322.33333333333337</ele><time>2026-04-12T07:22:15.145Z</time></trkpt><trkpt lat="43.6298919" lon="11.3120396"><ele>323.0</ele><time>2026-04-12T07:22:16.145Z</time></trkpt><trkpt lat="43.6297314" lon="11.3119318"><ele>323.0</ele><time>2026-04-12T07:22:17.145Z</time></trkpt><trkpt lat="43.6295853" lon="11.311803"><ele>323.0</ele><time>2026-04-12T07:22:18.145Z</time></trkpt><trkpt lat="43.6294551" lon="11.3116894"><ele>323.0</ele><time>2026-04-12T07:22:19.145Z</time></trkpt><trkpt lat="43.6293273" lon="11.3115997"><ele>326.2</ele><time>2026-04-12T07:22:20.145Z</time></trkpt><trkpt lat="43.6292043" lon="11.3115531"><ele>329.4</ele><time>2026-04-12T07:22:21.145Z</time></trkpt><trkpt lat="43.62909" lon="11.3115324"><ele>332.59999999999997</ele><time>2026-04-12T07:22:22.145Z</time></trkpt><trkpt lat="43.6289877" lon="11.3115119"><ele>335.79999999999995</ele><time>2026-04-12T07:22:23.146Z</time></trkpt><trkpt lat="43.6288984" lon="11.3114959"><ele>339.0</ele><time>2026-04-12T07:22:24.146Z</time></trkpt><trkpt lat="43.6288316" lon="11.3114933"><ele>339.0</ele><time>2026-04-12T07:22:25.147Z</time></trkpt><trkpt lat="43.6287394" lon="11.3115553"><ele>339.0</ele><time>2026-04-12T07:22:27.145Z</time></trkpt><trkpt lat="43.6286864" lon="11.3117072"><ele>339.0</ele><time>2026-04-12T07:22:29.146Z</time></trkpt><trkpt lat="43.6286553" lon="11.3117976"><ele>339.0</ele><time>2026-04-12T07:22:30.146Z</time></trkpt><trkpt lat="43.6286196" lon="11.3118934"><ele>339.0</ele><time>2026-04-12T07:22:31.147Z</time></trkpt><trkpt lat="43.6285806" lon="11.3119899"><ele>339.8333333333333</ele><time>2026-04-12T07:22:32.145Z</time></trkpt><trkpt lat="43.6285471" lon="11.3120913"><ele>340.6666666666667</ele><time>2026-04-12T07:22:33.146Z</time></trkpt><trkpt lat="43.6285217" lon="11.3121905"><ele>341.5</ele><time>2026-04-12T07:22:34.146Z</time></trkpt><trkpt lat="43.6285069" lon="11.3122941"><ele>342.33333333333337</ele><time>2026-04-12T07:22:35.146Z</time></trkpt><trkpt lat="43.6285176" lon="11.3124027"><ele>343.1666666666667</ele><time>2026-04-12T07:22:36.145Z</time></trkpt><trkpt lat="43.6285446" lon="11.312518"><ele>344.0</ele><time>2026-04-12T07:22:37.147Z</time></trkpt><trkpt lat="43.6285779" lon="11.3126386"><ele>343.79999999999995</ele><time>2026-04-12T07:22:38.144Z</time></trkpt><trkpt lat="43.6286141" lon="11.3127509"><ele>343.59999999999997</ele><time>2026-04-12T07:22:39.145Z</time></trkpt><trkpt lat="43.6286467" lon="11.3128706"><ele>343.4</ele><time>2026-04-12T07:22:40.146Z</time></trkpt><trkpt lat="43.628703" lon="11.3130171"><ele>343.2</ele><time>2026-04-12T07:22:41.145Z</time></trkpt><trkpt lat="43.6287538" lon="11.3131657"><ele>343.0</ele><time>2026-04-12T07:22:42.147Z</time></trkpt><trkpt lat="43.6288078" lon="11.3133276"><ele>346.75</ele><time>2026-04-12T07:22:43.145Z</time></trkpt><trkpt lat="43.628862" lon="11.3134868"><ele>350.5</ele><time>2026-04-12T07:22:44.144Z</time></trkpt><trkpt lat="43.6289237" lon="11.3136397"><ele>354.25</ele><time>2026-04-12T07:22:45.145Z</time></trkpt><trkpt lat="43.6289913" lon="11.3138076"><ele>358.0</ele><time>2026-04-12T07:22:46.146Z</time></trkpt><trkpt lat="43.6290619" lon="11.313973"><ele>358.25</ele><time>2026-04-12T07:22:47.145Z</time></trkpt><trkpt lat="43.6291259" lon="11.3141243"><ele>358.5</ele><time>2026-04-12T07:22:48.145Z</time></trkpt><trkpt lat="43.6292065" lon="11.3142597"><ele>358.75</ele><time>2026-04-12T07:22:49.145Z</time></trkpt><trkpt lat="43.6292925" lon="11.3144141"><ele>359.0</ele><time>2026-04-12T07:22:50.146Z</time></trkpt><trkpt lat="43.6293882" lon="11.3145829"><ele>360.0</ele><time>2026-04-12T07:22:51.145Z</time></trkpt><trkpt lat="43.6294902" lon="11.3147475"><ele>361.0</ele><time>2026-04-12T07:22:52.146Z</time></trkpt><trkpt lat="43.6295982" lon="11.3149238"><ele>362.0</ele><time>2026-04-12T07:22:53.147Z</time></trkpt><trkpt lat="43.6296988" lon="11.3151091"><ele>362.0</ele><time>2026-04-12T07:22:54.145Z</time></trkpt><trkpt lat="43.6297982" lon="11.315274"><ele>362.0</ele><time>2026-04-12T07:22:55.146Z</time></trkpt><trkpt lat="43.629885" lon="11.3154417"><ele>362.0</ele><time>2026-04-12T07:22:56.145Z</time></trkpt><trkpt lat="43.6299789" lon="11.3155888"><ele>362.0</ele><time>2026-04-12T07:22:57.147Z</time></trkpt><trkpt lat="43.6300654" lon="11.3157358"><ele>362.6</ele><time>2026-04-12T07:22:58.145Z</time></trkpt><trkpt lat="43.630142" lon="11.3158697"><ele>363.20000000000005</ele><time>2026-04-12T07:22:59.147Z</time></trkpt><trkpt lat="43.6302092" lon="11.3159753"><ele>363.8</ele><time>2026-04-12T07:23:00.146Z</time></trkpt><trkpt lat="43.6302862" lon="11.3160715"><ele>364.4</ele><time>2026-04-12T07:23:01.145Z</time></trkpt><trkpt lat="43.6303521" lon="11.3161634"><ele>365.0</ele><time>2026-04-12T07:23:02.146Z</time></trkpt><trkpt lat="43.6304004" lon="11.3162591"><ele>365.0</ele><time>2026-04-12T07:23:03.146Z</time></trkpt><trkpt lat="43.6304243" lon="11.3163663"><ele>365.0</ele><time>2026-04-12T07:23:04.146Z</time></trkpt><trkpt lat="43.6304105" lon="11.3164829"><ele>365.0</ele><time>2026-04-12T07:23:05.146Z</time></trkpt><trkpt lat="43.6303785" lon="11.316603"><ele>365.0</ele><time>2026-04-12T07:23:06.147Z</time></trkpt><trkpt lat="43.6303267" lon="11.3167105"><ele>365.0</ele><time>2026-04-12T07:23:07.145Z</time></trkpt><trkpt lat="43.6302575" lon="11.3167805"><ele>365.0</ele><time>2026-04-12T07:23:08.144Z</time></trkpt><trkpt lat="43.6301666" lon="11.3168326"><ele>362.8</ele><time>2026-04-12T07:23:09.145Z</time></trkpt><trkpt lat="43.6300763" lon="11.316862"><ele>360.6</ele><time>2026-04-12T07:23:10.146Z</time></trkpt><trkpt lat="43.6300073" lon="11.3168753"><ele>358.4</ele><time>2026-04-12T07:23:11.145Z</time></trkpt><trkpt lat="43.6299017" lon="11.3169141"><ele>356.2</ele><time>2026-04-12T07:23:13.144Z</time></trkpt><trkpt lat="43.629853" lon="11.3170245"><ele>354.0</ele><time>2026-04-12T07:23:15.147Z</time></trkpt><trkpt lat="43.6298653" lon="11.3172008"><ele>355.0</ele><time>2026-04-12T07:23:17.147Z</time></trkpt><trkpt lat="43.6299008" lon="11.3172947"><ele>356.0</ele><time>2026-04-12T07:23:18.146Z</time></trkpt><trkpt lat="43.6299067" lon="11.3174491"><ele>357.0</ele><time>2026-04-12T07:23:20.144Z</time></trkpt><trkpt lat="43.62984" lon="11.3175656"><ele>358.0</ele><time>2026-04-12T07:23:22.145Z</time></trkpt><trkpt lat="43.6297783" lon="11.3176172"><ele>359.0</ele><time>2026-04-12T07:23:23.146Z</time></trkpt><trkpt lat="43.6297039" lon="11.3176579"><ele>360.0</ele><time>2026-04-12T07:23:24.145Z</time></trkpt><trkpt lat="43.6296278" lon="11.3176913"><ele>360.0</ele><time>2026-04-12T07:23:25.146Z</time></trkpt><trkpt lat="43.629554" lon="11.317702"><ele>360.0</ele><time>2026-04-12T07:23:26.146Z</time></trkpt><trkpt lat="43.6294851" lon="11.3176853"><ele>360.0</ele><time>2026-04-12T07:23:27.146Z</time></trkpt><trkpt lat="43.6294112" lon="11.3176407"><ele>360.0</ele><time>2026-04-12T07:23:28.146Z</time></trkpt><trkpt lat="43.6293352" lon="11.317589"><ele>360.0</ele><time>2026-04-12T07:23:29.146Z</time></trkpt><trkpt lat="43.6292586" lon="11.3175532"><ele>360.0</ele><time>2026-04-12T07:23:30.146Z</time></trkpt><trkpt lat="43.6291824" lon="11.3175337"><ele>359.2857142857143</ele><time>2026-04-12T07:23:31.145Z</time></trkpt><trkpt lat="43.6291105" lon="11.3175363"><ele>358.5714285714286</ele><time>2026-04-12T07:23:32.144Z</time></trkpt><trkpt lat="43.6290396" lon="11.3175554"><ele>357.8571428571429</ele><time>2026-04-12T07:23:33.147Z</time></trkpt><trkpt lat="43.628977" lon="11.3175806"><ele>357.1428571428571</ele><time>2026-04-12T07:23:34.146Z</time></trkpt><trkpt lat="43.6289121" lon="11.3176212"><ele>356.42857142857144</ele><time>2026-04-12T07:23:35.146Z</time></trkpt><trkpt lat="43.6288543" lon="11.3176763"><ele>355.7142857142857</ele><time>2026-04-12T07:23:36.145Z</time></trkpt><trkpt lat="43.6287979" lon="11.3177419"><ele>355.0</ele><time>2026-04-12T07:23:37.144Z</time></trkpt><trkpt lat="43.6287514" lon="11.3178161"><ele>355.0</ele><time>2026-04-12T07:23:38.146Z</time></trkpt><trkpt lat="43.6287023" lon="11.3179629"><ele>355.0</ele><time>2026-04-12T07:23:40.145Z</time></trkpt><trkpt lat="43.6286865" lon="11.3181092"><ele>355.0</ele><time>2026-04-12T07:23:42.146Z</time></trkpt><trkpt lat="43.6287099" lon="11.3182481"><ele>355.0</ele><time>2026-04-12T07:23:44.146Z</time></trkpt><trkpt lat="43.6287723" lon="11.3184065"><ele>357.16666666666663</ele><time>2026-04-12T07:23:46.146Z</time></trkpt><trkpt lat="43.6288119" lon="11.3185024"><ele>359.3333333333333</ele><time>2026-04-12T07:23:47.146Z</time></trkpt><trkpt lat="43.6288445" lon="11.3186038"><ele>361.5</ele><time>2026-04-12T07:23:48.146Z</time></trkpt><trkpt lat="43.6288632" lon="11.3186874"><ele>363.6666666666667</ele><time>2026-04-12T07:23:49.146Z</time></trkpt><trkpt lat="43.6288914" lon="11.3188374"><ele>365.83333333333337</ele><time>2026-04-12T07:23:51.147Z</time></trkpt><trkpt lat="43.6289223" lon="11.3189863"><ele>368.0</ele><time>2026-04-12T07:23:53.146Z</time></trkpt><trkpt lat="43.6289547" lon="11.319123"><ele>369.2</ele><time>2026-04-12T07:23:55.146Z</time></trkpt><trkpt lat="43.6289894" lon="11.3192639"><ele>370.4</ele><time>2026-04-12T07:23:57.146Z</time></trkpt><trkpt lat="43.6290279" lon="11.3193906"><ele>371.59999999999997</ele><time>2026-04-12T07:23:59.146Z</time></trkpt><trkpt lat="43.6290425" lon="11.3195213"><ele>372.79999999999995</ele><time>2026-04-12T07:24:01.146Z</time></trkpt><trkpt lat="43.6290419" lon="11.3196547"><ele>374.0</ele><time>2026-04-12T07:24:03.146Z</time></trkpt><trkpt lat="43.6290205" lon="11.3197848"><ele>373.79999999999995</ele><time>2026-04-12T07:24:05.147Z</time></trkpt><trkpt lat="43.6289699" lon="11.3198896"><ele>373.59999999999997</ele><time>2026-04-12T07:24:07.147Z</time></trkpt><trkpt lat="43.6288557" lon="11.3198812"><ele>373.4</ele><time>2026-04-12T07:24:09.146Z</time></trkpt><trkpt lat="43.6287771" lon="11.3198546"><ele>373.2</ele><time>2026-04-12T07:24:10.145Z</time></trkpt><trkpt lat="43.6286913" lon="11.3198377"><ele>373.0</ele><time>2026-04-12T07:24:11.146Z</time></trkpt><trkpt lat="43.6285703" lon="11.3198266"><ele>373.0</ele><time>2026-04-12T07:24:12.146Z</time></trkpt><trkpt lat="43.6284684" lon="11.3198134"><ele>373.0</ele><time>2026-04-12T07:24:13.145Z</time></trkpt><trkpt lat="43.628378" lon="11.3198417"><ele>373.0</ele><time>2026-04-12T07:24:14.145Z</time></trkpt><trkpt lat="43.6283052" lon="11.3198776"><ele>373.0</ele><time>2026-04-12T07:24:15.146Z</time></trkpt><trkpt lat="43.6282475" lon="11.3199446"><ele>373.0</ele><time>2026-04-12T07:24:16.146Z</time></trkpt><trkpt lat="43.6282245" lon="11.3200309"><ele>373.0</ele><time>2026-04-12T07:24:17.145Z</time></trkpt><trkpt lat="43.6282043" lon="11.3201411"><ele>373.0</ele><time>2026-04-12T07:24:18.146Z</time></trkpt><trkpt lat="43.6281888" lon="11.3202849"><ele>373.0</ele><time>2026-04-12T07:24:19.146Z</time></trkpt><trkpt lat="43.6281857" lon="11.3204494"><ele>373.0</ele><time>2026-04-12T07:24:20.146Z</time></trkpt><trkpt lat="43.6281524" lon="11.3205825"><ele>373.0</ele><time>2026-04-12T07:24:21.147Z</time></trkpt><trkpt lat="43.628105" lon="11.3207297"><ele>373.0</ele><time>2026-04-12T07:24:22.145Z</time></trkpt><trkpt lat="43.6280517" lon="11.320883"><ele>372.2</ele><time>2026-04-12T07:24:23.145Z</time></trkpt><trkpt lat="43.6280106" lon="11.3210355"><ele>371.4</ele><time>2026-04-12T07:24:24.144Z</time></trkpt><trkpt lat="43.6279554" lon="11.3211603"><ele>370.59999999999997</ele><time>2026-04-12T07:24:25.146Z</time></trkpt><trkpt lat="43.6278852" lon="11.3212511"><ele>369.79999999999995</ele><time>2026-04-12T07:24:26.146Z</time></trkpt><trkpt lat="43.6278032" lon="11.3213113"><ele>369.0</ele><time>2026-04-12T07:24:27.146Z</time></trkpt><trkpt lat="43.6277162" lon="11.3213243"><ele>369.0</ele><time>2026-04-12T07:24:28.146Z</time></trkpt><trkpt lat="43.627611" lon="11.3213179"><ele>369.0</ele><time>2026-04-12T07:24:29.145Z</time></trkpt><trkpt lat="43.6275164" lon="11.3212557"><ele>369.0</ele><time>2026-04-12T07:24:30.146Z</time></trkpt><trkpt lat="43.6274267" lon="11.3211647"><ele>369.0</ele><time>2026-04-12T07:24:31.145Z</time></trkpt><trkpt lat="43.627352" lon="11.3210878"><ele>369.0</ele><time>2026-04-12T07:24:32.146Z</time></trkpt><trkpt lat="43.6272666" lon="11.32102"><ele>369.0</ele><time>2026-04-12T07:24:33.146Z</time></trkpt><trkpt lat="43.6271696" lon="11.3210344"><ele>369.0</ele><time>2026-04-12T07:24:35.146Z</time></trkpt><trkpt lat="43.6271246" lon="11.3211954"><ele>369.0</ele><time>2026-04-12T07:24:37.146Z</time></trkpt><trkpt lat="43.6271195" lon="11.3213144"><ele>369.0</ele><time>2026-04-12T07:24:38.146Z</time></trkpt><trkpt lat="43.6271279" lon="11.3214628"><ele>369.0</ele><time>2026-04-12T07:24:39.146Z</time></trkpt><trkpt lat="43.6271396" lon="11.3215997"><ele>370.4</ele><time>2026-04-12T07:24:40.145Z</time></trkpt><trkpt lat="43.6271357" lon="11.3217113"><ele>371.79999999999995</ele><time>2026-04-12T07:24:41.147Z</time></trkpt><trkpt lat="43.6271083" lon="11.3217935"><ele>373.20000000000005</ele><time>2026-04-12T07:24:42.147Z</time></trkpt><trkpt lat="43.6270238" lon="11.3218579"><ele>374.6</ele><time>2026-04-12T07:24:44.145Z</time></trkpt><trkpt lat="43.6269073" lon="11.3217697"><ele>376.0</ele><time>2026-04-12T07:24:46.146Z</time></trkpt><trkpt lat="43.6268404" lon="11.3216784"><ele>376.0</ele><time>2026-04-12T07:24:47.146Z</time></trkpt><trkpt lat="43.6267669" lon="11.3215643"><ele>376.0</ele><time>2026-04-12T07:24:48.146Z</time></trkpt><trkpt lat="43.626686" lon="11.3214295"><ele>376.0</ele><time>2026-04-12T07:24:49.146Z</time></trkpt><trkpt lat="43.626611" lon="11.3212838"><ele>376.0</ele><time>2026-04-12T07:24:50.146Z</time></trkpt><trkpt lat="43.6265416" lon="11.3211093"><ele>372.66666666666663</ele><time>2026-04-12T07:24:51.146Z</time></trkpt><trkpt lat="43.6264636" lon="11.3209237"><ele>369.3333333333333</ele><time>2026-04-12T07:24:52.145Z</time></trkpt><trkpt lat="43.6263803" lon="11.3207273"><ele>366.0</ele><time>2026-04-12T07:24:53.147Z</time></trkpt><trkpt lat="43.6263078" lon="11.3205448"><ele>365.0</ele><time>2026-04-12T07:24:54.147Z</time></trkpt><trkpt lat="43.6262403" lon="11.3203693"><ele>364.0</ele><time>2026-04-12T07:24:55.146Z</time></trkpt><trkpt lat="43.6261761" lon="11.3202039"><ele>363.0</ele><time>2026-04-12T07:24:56.147Z</time></trkpt><trkpt lat="43.6261208" lon="11.3200685"><ele>362.0</ele><time>2026-04-12T07:24:57.146Z</time></trkpt><trkpt lat="43.6260739" lon="11.319954"><ele>362.0</ele><time>2026-04-12T07:24:58.145Z</time></trkpt><trkpt lat="43.6260357" lon="11.3198835"><ele>362.0</ele><time>2026-04-12T07:24:59.147Z</time></trkpt><trkpt lat="43.625979" lon="11.319838"><ele>362.0</ele><time>2026-04-12T07:25:00.147Z</time></trkpt><trkpt lat="43.6259095" lon="11.3198166"><ele>362.0</ele><time>2026-04-12T07:25:01.145Z</time></trkpt><trkpt lat="43.6258364" lon="11.3198308"><ele>362.0</ele><time>2026-04-12T07:25:02.145Z</time></trkpt><trkpt lat="43.6257691" lon="11.3198619"><ele>362.0</ele><time>2026-04-12T07:25:03.145Z</time></trkpt><trkpt lat="43.6257089" lon="11.3199335"><ele>362.0</ele><time>2026-04-12T07:25:04.146Z</time></trkpt><trkpt lat="43.6256604" lon="11.3200447"><ele>362.0</ele><time>2026-04-12T07:25:05.145Z</time></trkpt><trkpt lat="43.6256195" lon="11.3201771"><ele>362.0</ele><time>2026-04-12T07:25:06.146Z</time></trkpt><trkpt lat="43.6255804" lon="11.3203376"><ele>362.0</ele><time>2026-04-12T07:25:07.146Z</time></trkpt><trkpt lat="43.6255364" lon="11.3205158"><ele>362.0</ele><time>2026-04-12T07:25:08.145Z</time></trkpt><trkpt lat="43.6254828" lon="11.3207141"><ele>362.75</ele><time>2026-04-12T07:25:09.145Z</time></trkpt><trkpt lat="43.6254174" lon="11.320909"><ele>363.5</ele><time>2026-04-12T07:25:10.146Z</time></trkpt><trkpt lat="43.6253555" lon="11.3210883"><ele>364.25</ele><time>2026-04-12T07:25:11.146Z</time></trkpt><trkpt lat="43.6253035" lon="11.3212544"><ele>365.0</ele><time>2026-04-12T07:25:12.146Z</time></trkpt><trkpt lat="43.6252697" lon="11.321425"><ele>365.0</ele><time>2026-04-12T07:25:13.147Z</time></trkpt><trkpt lat="43.6252536" lon="11.3215887"><ele>365.0</ele><time>2026-04-12T07:25:14.146Z</time></trkpt><trkpt lat="43.6252579" lon="11.3217476"><ele>365.0</ele><time>2026-04-12T07:25:15.146Z</time></trkpt><trkpt lat="43.6252857" lon="11.3218979"><ele>365.0</ele><time>2026-04-12T07:25:16.145Z</time></trkpt><trkpt lat="43.625314" lon="11.3220133"><ele>365.0</ele><time>2026-04-12T07:25:17.146Z</time></trkpt><trkpt lat="43.6253184" lon="11.3221182"><ele>365.0</ele><time>2026-04-12T07:25:18.145Z</time></trkpt><trkpt lat="43.6252528" lon="11.3222145"><ele>365.0</ele><time>2026-04-12T07:25:20.146Z</time></trkpt><trkpt lat="43.6251387" lon="11.3221716"><ele>365.0</ele><time>2026-04-12T07:25:22.146Z</time></trkpt><trkpt lat="43.6250685" lon="11.3221093"><ele>365.0</ele><time>2026-04-12T07:25:23.147Z</time></trkpt><trkpt lat="43.6250038" lon="11.3220203"><ele>365.0</ele><time>2026-04-12T07:25:24.146Z</time></trkpt><trkpt lat="43.6249519" lon="11.3218982"><ele>365.0</ele><time>2026-04-12T07:25:25.148Z</time></trkpt><trkpt lat="43.6248996" lon="11.3217567"><ele>365.0</ele><time>2026-04-12T07:25:26.146Z</time></trkpt><trkpt lat="43.6248364" lon="11.3215835"><ele>365.0</ele><time>2026-04-12T07:25:27.145Z</time></trkpt><trkpt lat="43.6247691" lon="11.321395"><ele>365.0</ele><time>2026-04-12T07:25:28.146Z</time></trkpt><trkpt lat="43.6246962" lon="11.3211971"><ele>362.75</ele><time>2026-04-12T07:25:29.147Z</time></trkpt><trkpt lat="43.6246251" lon="11.320999"><ele>360.5</ele><time>2026-04-12T07:25:30.147Z</time></trkpt><trkpt lat="43.6245595" lon="11.3208115"><ele>358.25</ele><time>2026-04-12T07:25:31.147Z</time></trkpt><trkpt lat="43.6244909" lon="11.3206466"><ele>356.0</ele><time>2026-04-12T07:25:32.146Z</time></trkpt><trkpt lat="43.6244294" lon="11.3204894"><ele>355.20000000000005</ele><time>2026-04-12T07:25:33.146Z</time></trkpt><trkpt lat="43.6243872" lon="11.320335"><ele>354.40000000000003</ele><time>2026-04-12T07:25:34.145Z</time></trkpt><trkpt lat="43.6243475" lon="11.3201871"><ele>353.6</ele><time>2026-04-12T07:25:35.146Z</time></trkpt><trkpt lat="43.6243198" lon="11.3200383"><ele>352.8</ele><time>2026-04-12T07:25:36.147Z</time></trkpt><trkpt lat="43.6243068" lon="11.3199004"><ele>352.0</ele><time>2026-04-12T07:25:37.146Z</time></trkpt><trkpt lat="43.6242855" lon="11.3197563"><ele>349.5</ele><time>2026-04-12T07:25:38.146Z</time></trkpt><trkpt lat="43.6242866" lon="11.3196462"><ele>347.0</ele><time>2026-04-12T07:25:39.146Z</time></trkpt><trkpt lat="43.6242665" lon="11.3194893"><ele>344.5</ele><time>2026-04-12T07:25:41.146Z</time></trkpt><trkpt lat="43.6242222" lon="11.3193929"><ele>342.0</ele><time>2026-04-12T07:25:44.145Z</time></trkpt><trkpt lat="43.6241398" lon="11.3193953"><ele>339.5</ele><time>2026-04-12T07:28:15.146Z</time></trkpt><trkpt lat="43.6240571" lon="11.3194021"><ele>337.0</ele><time>2026-04-12T07:28:17.146Z</time></trkpt><trkpt lat="43.6239581" lon="11.3194493"><ele>337.0</ele><time>2026-04-12T07:28:19.146Z</time></trkpt><trkpt lat="43.6239139" lon="11.3195263"><ele>337.0</ele><time>2026-04-12T07:28:20.146Z</time></trkpt><trkpt lat="43.6238585" lon="11.3196182"><ele>337.0</ele><time>2026-04-12T07:28:21.146Z</time></trkpt><trkpt lat="43.6237842" lon="11.3197047"><ele>337.0</ele><time>2026-04-12T07:28:22.146Z</time></trkpt><trkpt lat="43.6237042" lon="11.3197706"><ele>337.0</ele><time>2026-04-12T07:28:23.146Z</time></trkpt><trkpt lat="43.6236266" lon="11.3198169"><ele>337.0</ele><time>2026-04-12T07:28:24.145Z</time></trkpt><trkpt lat="43.6235351" lon="11.3198093"><ele>338.0</ele><time>2026-04-12T07:28:25.147Z</time></trkpt><trkpt lat="43.6234423" lon="11.3197997"><ele>339.0</ele><time>2026-04-12T07:28:26.147Z</time></trkpt><trkpt lat="43.623332" lon="11.3197734"><ele>340.0</ele><time>2026-04-12T07:28:27.146Z</time></trkpt><trkpt lat="43.6232438" lon="11.3197451"><ele>341.0</ele><time>2026-04-12T07:28:28.146Z</time></trkpt><trkpt lat="43.6231557" lon="11.3197059"><ele>342.0</ele><time>2026-04-12T07:28:29.146Z</time></trkpt><trkpt lat="43.623087" lon="11.319622"><ele>337.8</ele><time>2026-04-12T07:28:30.146Z</time></trkpt><trkpt lat="43.6229764" lon="11.3195396"><ele>333.6</ele><time>2026-04-12T07:28:31.146Z</time></trkpt><trkpt lat="43.6229296" lon="11.3194569"><ele>329.40000000000003</ele><time>2026-04-12T07:28:33.147Z</time></trkpt><trkpt lat="43.6228688" lon="11.3194195"><ele>325.20000000000005</ele><time>2026-04-12T07:28:34.145Z</time></trkpt><trkpt lat="43.6227782" lon="11.319422"><ele>321.0</ele><time>2026-04-12T07:28:36.145Z</time></trkpt><trkpt lat="43.6226574" lon="11.3196131"><ele>320.2</ele><time>2026-04-12T07:28:38.147Z</time></trkpt><trkpt lat="43.6226138" lon="11.319715"><ele>319.40000000000003</ele><time>2026-04-12T07:28:39.145Z</time></trkpt><trkpt lat="43.6225819" lon="11.319856"><ele>318.6</ele><time>2026-04-12T07:28:40.146Z</time></trkpt><trkpt lat="43.6225472" lon="11.3200021"><ele>317.8</ele><time>2026-04-12T07:28:41.145Z</time></trkpt><trkpt lat="43.6225173" lon="11.3201653"><ele>317.0</ele><time>2026-04-12T07:28:42.148Z</time></trkpt><trkpt lat="43.6224751" lon="11.3203428"><ele>319.5</ele><time>2026-04-12T07:28:43.147Z</time></trkpt><trkpt lat="43.6224193" lon="11.3205276"><ele>322.0</ele><time>2026-04-12T07:28:44.146Z</time></trkpt><trkpt lat="43.6223508" lon="11.3206836"><ele>324.5</ele><time>2026-04-12T07:28:45.146Z</time></trkpt><trkpt lat="43.6222816" lon="11.3208385"><ele>327.0</ele><time>2026-04-12T07:28:46.148Z</time></trkpt><trkpt lat="43.622193" lon="11.3209595"><ele>328.6</ele><time>2026-04-12T07:28:47.146Z</time></trkpt><trkpt lat="43.6221073" lon="11.3210681"><ele>330.20000000000005</ele><time>2026-04-12T07:28:48.145Z</time></trkpt><trkpt lat="43.62202" lon="11.321154"><ele>331.8</ele><time>2026-04-12T07:28:49.147Z</time></trkpt><trkpt lat="43.6219426" lon="11.3212137"><ele>333.4</ele><time>2026-04-12T07:28:50.146Z</time></trkpt><trkpt lat="43.6218792" lon="11.3212501"><ele>335.0</ele><time>2026-04-12T07:28:51.146Z</time></trkpt><trkpt lat="43.621773" lon="11.3212407"><ele>335.0</ele><time>2026-04-12T07:28:53.147Z</time></trkpt><trkpt lat="43.6217007" lon="11.3210979"><ele>335.0</ele><time>2026-04-12T07:28:55.147Z</time></trkpt><trkpt lat="43.6216808" lon="11.3209838"><ele>335.0</ele><time>2026-04-12T07:28:56.147Z</time></trkpt><trkpt lat="43.6216544" lon="11.3208783"><ele>335.0</ele><time>2026-04-12T07:28:57.147Z</time></trkpt><trkpt lat="43.6216155" lon="11.3207905"><ele>335.0</ele><time>2026-04-12T07:28:58.146Z</time></trkpt><trkpt lat="43.6215655" lon="11.3207234"><ele>335.0</ele><time>2026-04-12T07:28:59.146Z</time></trkpt><trkpt lat="43.6215047" lon="11.3206835"><ele>335.0</ele><time>2026-04-12T07:29:00.147Z</time></trkpt><trkpt lat="43.6214367" lon="11.3206736"><ele>335.0</ele><time>2026-04-12T07:29:01.147Z</time></trkpt><trkpt lat="43.6213567" lon="11.3206819"><ele>335.0</ele><time>2026-04-12T07:29:02.146Z</time></trkpt><trkpt lat="43.6212683" lon="11.320695"><ele>335.0</ele><time>2026-04-12T07:29:03.148Z</time></trkpt><trkpt lat="43.6211576" lon="11.3207078"><ele>335.0</ele><time>2026-04-12T07:29:04.147Z</time></trkpt><trkpt lat="43.6210648" lon="11.3207238"><ele>335.0</ele><time>2026-04-12T07:29:05.147Z</time></trkpt><trkpt lat="43.6209735" lon="11.320737"><ele>338.0</ele><time>2026-04-12T07:29:06.147Z</time></trkpt><trkpt lat="43.6208779" lon="11.3207541"><ele>341.0</ele><time>2026-04-12T07:29:07.148Z</time></trkpt><trkpt lat="43.6207841" lon="11.3207947"><ele>344.0</ele><time>2026-04-12T07:29:08.147Z</time></trkpt><trkpt lat="43.6206889" lon="11.3208422"><ele>347.0</ele><time>2026-04-12T07:29:09.147Z</time></trkpt><trkpt lat="43.6205919" lon="11.3209022"><ele>350.0</ele><time>2026-04-12T07:29:10.147Z</time></trkpt><trkpt lat="43.6204918" lon="11.3209525"><ele>350.0</ele><time>2026-04-12T07:29:11.146Z</time></trkpt><trkpt lat="43.6203922" lon="11.321004"><ele>350.0</ele><time>2026-04-12T07:29:12.145Z</time></trkpt><trkpt lat="43.6203055" lon="11.3210478"><ele>350.0</ele><time>2026-04-12T07:29:13.147Z</time></trkpt><trkpt lat="43.6202255" lon="11.3210901"><ele>350.0</ele><time>2026-04-12T07:29:14.148Z</time></trkpt><trkpt lat="43.6201563" lon="11.321126"><ele>350.0</ele><time>2026-04-12T07:29:15.148Z</time></trkpt><trkpt lat="43.6200412" lon="11.3211474"><ele>351.33333333333337</ele><time>2026-04-12T07:29:17.146Z</time></trkpt><trkpt lat="43.6199533" lon="11.3210615"><ele>352.6666666666667</ele><time>2026-04-12T07:29:19.147Z</time></trkpt><trkpt lat="43.6199162" lon="11.3209764"><ele>354.0</ele><time>2026-04-12T07:29:20.147Z</time></trkpt><trkpt lat="43.619877" lon="11.3208738"><ele>355.3333333333333</ele><time>2026-04-12T07:29:21.147Z</time></trkpt><trkpt lat="43.6198344" lon="11.3207572"><ele>356.66666666666663</ele><time>2026-04-12T07:29:22.146Z</time></trkpt><trkpt lat="43.6197936" lon="11.3206521"><ele>358.0</ele><time>2026-04-12T07:29:23.147Z</time></trkpt><trkpt lat="43.6197469" lon="11.3205477"><ele>358.0</ele><time>2026-04-12T07:29:24.146Z</time></trkpt><trkpt lat="43.61971" lon="11.3204511"><ele>358.0</ele><time>2026-04-12T07:29:25.148Z</time></trkpt><trkpt lat="43.6196715" lon="11.3203548"><ele>358.0</ele><time>2026-04-12T07:29:26.147Z</time></trkpt><trkpt lat="43.6196211" lon="11.3202627"><ele>358.0</ele><time>2026-04-12T07:29:27.148Z</time></trkpt><trkpt lat="43.6195609" lon="11.3201812"><ele>358.0</ele><time>2026-04-12T07:29:28.145Z</time></trkpt><trkpt lat="43.6194972" lon="11.3201043"><ele>358.0</ele><time>2026-04-12T07:29:29.147Z</time></trkpt><trkpt lat="43.6194361" lon="11.3200299"><ele>357.8333333333333</ele><time>2026-04-12T07:29:30.146Z</time></trkpt><trkpt lat="43.6193766" lon="11.3199501"><ele>357.66666666666663</ele><time>2026-04-12T07:29:31.146Z</time></trkpt><trkpt lat="43.6193186" lon="11.3198656"><ele>357.5</ele><time>2026-04-12T07:29:32.147Z</time></trkpt><trkpt lat="43.6192576" lon="11.3197887"><ele>357.3333333333333</ele><time>2026-04-12T07:29:33.147Z</time></trkpt><trkpt lat="43.6191925" lon="11.3197101"><ele>357.1666666666667</ele><time>2026-04-12T07:29:34.147Z</time></trkpt><trkpt lat="43.6191305" lon="11.3196307"><ele>357.0</ele><time>2026-04-12T07:29:35.147Z</time></trkpt><trkpt lat="43.6190764" lon="11.3195524"><ele>357.0</ele><time>2026-04-12T07:29:36.147Z</time></trkpt><trkpt lat="43.6190172" lon="11.3194712"><ele>357.0</ele><time>2026-04-12T07:29:37.147Z</time></trkpt><trkpt lat="43.618951" lon="11.3194009"><ele>357.0</ele><time>2026-04-12T07:29:38.148Z</time></trkpt><trkpt lat="43.618892" lon="11.319322"><ele>357.0</ele><time>2026-04-12T07:29:39.147Z</time></trkpt><trkpt lat="43.618831" lon="11.3192444"><ele>357.0</ele><time>2026-04-12T07:29:40.147Z</time></trkpt><trkpt lat="43.6187625" lon="11.3191638"><ele>357.0</ele><time>2026-04-12T07:29:41.146Z</time></trkpt><trkpt lat="43.6186844" lon="11.3190692"><ele>357.25</ele><time>2026-04-12T07:29:42.147Z</time></trkpt><trkpt lat="43.6186083" lon="11.3189749"><ele>357.5</ele><time>2026-04-12T07:29:43.146Z</time></trkpt><trkpt lat="43.6185204" lon="11.3188577"><ele>357.75</ele><time>2026-04-12T07:29:44.147Z</time></trkpt><trkpt lat="43.6184355" lon="11.3187341"><ele>358.0</ele><time>2026-04-12T07:29:45.147Z</time></trkpt><trkpt lat="43.618348" lon="11.3186043"><ele>359.0</ele><time>2026-04-12T07:29:46.147Z</time></trkpt><trkpt lat="43.6182593" lon="11.3184963"><ele>360.0</ele><time>2026-04-12T07:29:47.146Z</time></trkpt><trkpt lat="43.6181536" lon="11.3183916"><ele>361.0</ele><time>2026-04-12T07:29:48.148Z</time></trkpt><trkpt lat="43.6180372" lon="11.3182987"><ele>362.0</ele><time>2026-04-12T07:29:49.148Z</time></trkpt><trkpt lat="43.6179127" lon="11.3182044"><ele>361.6666666666667</ele><time>2026-04-12T07:29:50.147Z</time></trkpt><trkpt lat="43.6177803" lon="11.3181047"><ele>361.3333333333333</ele><time>2026-04-12T07:29:51.147Z</time></trkpt><trkpt lat="43.617633" lon="11.3179924"><ele>361.0</ele><time>2026-04-12T07:29:52.148Z</time></trkpt><trkpt lat="43.6175026" lon="11.3178904"><ele>361.0</ele><time>2026-04-12T07:29:53.147Z</time></trkpt><trkpt lat="43.6173817" lon="11.3178022"><ele>361.0</ele><time>2026-04-12T07:29:54.147Z</time></trkpt><trkpt lat="43.6172743" lon="11.317729"><ele>361.0</ele><time>2026-04-12T07:29:55.147Z</time></trkpt><trkpt lat="43.6171653" lon="11.3176573"><ele>361.0</ele><time>2026-04-12T07:29:56.146Z</time></trkpt><trkpt lat="43.6170568" lon="11.3175794"><ele>360.5</ele><time>2026-04-12T07:29:57.147Z</time></trkpt><trkpt lat="43.6169475" lon="11.3174714"><ele>360.0</ele><time>2026-04-12T07:29:58.148Z</time></trkpt><trkpt lat="43.6168451" lon="11.3173451"><ele>359.5</ele><time>2026-04-12T07:29:59.147Z</time></trkpt><trkpt lat="43.6167459" lon="11.3172101"><ele>359.0</ele><time>2026-04-12T07:30:00.146Z</time></trkpt><trkpt lat="43.6166619" lon="11.3171001"><ele>359.0</ele><time>2026-04-12T07:30:01.147Z</time></trkpt><trkpt lat="43.6165902" lon="11.316999"><ele>359.0</ele><time>2026-04-12T07:30:02.148Z</time></trkpt><trkpt lat="43.6165326" lon="11.316912"><ele>359.0</ele><time>2026-04-12T07:30:03.147Z</time></trkpt><trkpt lat="43.6164764" lon="11.3168293"><ele>359.0</ele><time>2026-04-12T07:30:04.147Z</time></trkpt><trkpt lat="43.6164254" lon="11.3167637"><ele>359.0</ele><time>2026-04-12T07:30:05.148Z</time></trkpt><trkpt lat="43.6163693" lon="11.3167152"><ele>359.0</ele><time>2026-04-12T07:30:06.146Z</time></trkpt><trkpt lat="43.6163046" lon="11.3166856"><ele>359.0</ele><time>2026-04-12T07:30:07.147Z</time></trkpt><trkpt lat="43.6162182" lon="11.3166705"><ele>359.0</ele><time>2026-04-12T07:30:08.147Z</time></trkpt><trkpt lat="43.6161314" lon="11.3166445"><ele>359.0</ele><time>2026-04-12T07:30:09.147Z</time></trkpt><trkpt lat="43.6160462" lon="11.316596"><ele>359.0</ele><time>2026-04-12T07:30:10.147Z</time></trkpt><trkpt lat="43.6159693" lon="11.3165448"><ele>359.0</ele><time>2026-04-12T07:30:11.146Z</time></trkpt><trkpt lat="43.6158859" lon="11.3164917"><ele>359.0</ele><time>2026-04-12T07:30:12.147Z</time></trkpt><trkpt lat="43.6157939" lon="11.3164428"><ele>358.79999999999995</ele><time>2026-04-12T07:30:13.149Z</time></trkpt><trkpt lat="43.6156988" lon="11.3164011"><ele>358.59999999999997</ele><time>2026-04-12T07:30:14.147Z</time></trkpt><trkpt lat="43.6155933" lon="11.3163735"><ele>358.4</ele><time>2026-04-12T07:30:15.146Z</time></trkpt><trkpt lat="43.6154861" lon="11.3163583"><ele>358.2</ele><time>2026-04-12T07:30:16.147Z</time></trkpt><trkpt lat="43.6153708" lon="11.3163602"><ele>358.0</ele><time>2026-04-12T07:30:17.148Z</time></trkpt><trkpt lat="43.6152634" lon="11.3163654"><ele>356.0</ele><time>2026-04-12T07:30:18.147Z</time></trkpt><trkpt lat="43.6151596" lon="11.3163632"><ele>354.0</ele><time>2026-04-12T07:30:19.147Z</time></trkpt><trkpt lat="43.6150645" lon="11.3163618"><ele>352.0</ele><time>2026-04-12T07:30:20.147Z</time></trkpt><trkpt lat="43.6149655" lon="11.3163513"><ele>350.0</ele><time>2026-04-12T07:30:21.148Z</time></trkpt><trkpt lat="43.6148493" lon="11.3163348"><ele>348.0</ele><time>2026-04-12T07:30:22.148Z</time></trkpt><trkpt lat="43.6147389" lon="11.3163112"><ele>348.0</ele><time>2026-04-12T07:30:23.148Z</time></trkpt><trkpt lat="43.6146262" lon="11.3162918"><ele>348.0</ele><time>2026-04-12T07:30:24.148Z</time></trkpt><trkpt lat="43.6145109" lon="11.3162745"><ele>348.0</ele><time>2026-04-12T07:30:25.147Z</time></trkpt><trkpt lat="43.6143998" lon="11.3162799"><ele>348.0</ele><time>2026-04-12T07:30:26.147Z</time></trkpt><trkpt lat="43.6142851" lon="11.3162854"><ele>344.5</ele><time>2026-04-12T07:30:27.148Z</time></trkpt><trkpt lat="43.6141741" lon="11.3162871"><ele>341.0</ele><time>2026-04-12T07:30:28.146Z</time></trkpt><trkpt lat="43.6140412" lon="11.3162677"><ele>337.5</ele><time>2026-04-12T07:30:29.147Z</time></trkpt><trkpt lat="43.6139158" lon="11.3162403"><ele>334.0</ele><time>2026-04-12T07:30:30.147Z</time></trkpt><trkpt lat="43.613779" lon="11.3162092"><ele>331.0</ele><time>2026-04-12T07:30:31.146Z</time></trkpt><trkpt lat="43.6136299" lon="11.3161727"><ele>328.0</ele><time>2026-04-12T07:30:32.148Z</time></trkpt><trkpt lat="43.6134641" lon="11.3161243"><ele>325.0</ele><time>2026-04-12T07:30:33.149Z</time></trkpt><trkpt lat="43.6133095" lon="11.3160815"><ele>325.0</ele><time>2026-04-12T07:30:34.147Z</time></trkpt><trkpt lat="43.6131642" lon="11.3160383"><ele>325.0</ele><time>2026-04-12T07:30:35.146Z</time></trkpt><trkpt lat="43.6130204" lon="11.3159968"><ele>325.0</ele><time>2026-04-12T07:30:36.148Z</time></trkpt><trkpt lat="43.6128869" lon="11.3159526"><ele>325.0</ele><time>2026-04-12T07:30:37.147Z</time></trkpt><trkpt lat="43.6127677" lon="11.3159217"><ele>323.8</ele><time>2026-04-12T07:30:38.147Z</time></trkpt><trkpt lat="43.6126539" lon="11.3158934"><ele>322.6</ele><time>2026-04-12T07:30:39.147Z</time></trkpt><trkpt lat="43.6125375" lon="11.3158741"><ele>321.4</ele><time>2026-04-12T07:30:40.147Z</time></trkpt><trkpt lat="43.6124268" lon="11.3158539"><ele>320.2</ele><time>2026-04-12T07:30:41.147Z</time></trkpt><trkpt lat="43.6123278" lon="11.315843"><ele>319.0</ele><time>2026-04-12T07:30:42.148Z</time></trkpt><trkpt lat="43.6122334" lon="11.3158361"><ele>319.0</ele><time>2026-04-12T07:30:43.147Z</time></trkpt><trkpt lat="43.6121436" lon="11.3158107"><ele>319.0</ele><time>2026-04-12T07:30:44.147Z</time></trkpt><trkpt lat="43.612057" lon="11.3157649"><ele>319.0</ele><time>2026-04-12T07:30:45.148Z</time></trkpt><trkpt lat="43.6119672" lon="11.3157138"><ele>319.0</ele><time>2026-04-12T07:30:46.147Z</time></trkpt><trkpt lat="43.6118763" lon="11.3156591"><ele>319.0</ele><time>2026-04-12T07:30:47.149Z</time></trkpt><trkpt lat="43.6117885" lon="11.3155967"><ele>317.0</ele><time>2026-04-12T07:30:48.147Z</time></trkpt><trkpt lat="43.6116967" lon="11.3155429"><ele>315.0</ele><time>2026-04-12T07:30:49.147Z</time></trkpt><trkpt lat="43.6115952" lon="11.3154962"><ele>313.0</ele><time>2026-04-12T07:30:50.147Z</time></trkpt><trkpt lat="43.6114863" lon="11.3154495"><ele>311.0</ele><time>2026-04-12T07:30:51.147Z</time></trkpt><trkpt lat="43.6113831" lon="11.3154068"><ele>309.0</ele><time>2026-04-12T07:30:52.147Z</time></trkpt><trkpt lat="43.6112897" lon="11.3153535"><ele>309.0</ele><time>2026-04-12T07:30:53.147Z</time></trkpt><trkpt lat="43.6112027" lon="11.3152826"><ele>309.0</ele><time>2026-04-12T07:30:54.146Z</time></trkpt><trkpt lat="43.6111046" lon="11.3151956"><ele>309.0</ele><time>2026-04-12T07:30:55.147Z</time></trkpt><trkpt lat="43.6110093" lon="11.3150988"><ele>309.0</ele><time>2026-04-12T07:30:56.146Z</time></trkpt><trkpt lat="43.6109155" lon="11.3150115"><ele>309.0</ele><time>2026-04-12T07:30:57.148Z</time></trkpt><trkpt lat="43.6108262" lon="11.3149303"><ele>308.25</ele><time>2026-04-12T07:30:58.147Z</time></trkpt><trkpt lat="43.6107312" lon="11.3148433"><ele>307.5</ele><time>2026-04-12T07:30:59.148Z</time></trkpt><trkpt lat="43.6106392" lon="11.3147484"><ele>306.75</ele><time>2026-04-12T07:31:00.147Z</time></trkpt><trkpt lat="43.6105481" lon="11.3146498"><ele>306.0</ele><time>2026-04-12T07:31:01.147Z</time></trkpt><trkpt lat="43.6104587" lon="11.3145557"><ele>303.6</ele><time>2026-04-12T07:31:02.147Z</time></trkpt><trkpt lat="43.6103733" lon="11.314456"><ele>301.20000000000005</ele><time>2026-04-12T07:31:03.147Z</time></trkpt><trkpt lat="43.6102908" lon="11.3143665"><ele>298.79999999999995</ele><time>2026-04-12T07:31:04.149Z</time></trkpt><trkpt lat="43.61021" lon="11.3142683"><ele>296.4</ele><time>2026-04-12T07:31:05.147Z</time></trkpt><trkpt lat="43.610132" lon="11.3141793"><ele>294.0</ele><time>2026-04-12T07:31:06.147Z</time></trkpt><trkpt lat="43.6100596" lon="11.3140978"><ele>293.8</ele><time>2026-04-12T07:31:07.147Z</time></trkpt><trkpt lat="43.6099855" lon="11.3140262"><ele>293.59999999999997</ele><time>2026-04-12T07:31:08.147Z</time></trkpt><trkpt lat="43.6099016" lon="11.3139469"><ele>293.4</ele><time>2026-04-12T07:31:09.147Z</time></trkpt><trkpt lat="43.6098059" lon="11.3138767"><ele>293.2</ele><time>2026-04-12T07:31:10.148Z</time></trkpt><trkpt lat="43.609707" lon="11.3138151"><ele>293.0</ele><time>2026-04-12T07:31:11.146Z</time></trkpt><trkpt lat="43.6096154" lon="11.313757"><ele>290.8</ele><time>2026-04-12T07:31:12.148Z</time></trkpt><trkpt lat="43.6095204" lon="11.3136965"><ele>288.6</ele><time>2026-04-12T07:31:13.146Z</time></trkpt><trkpt lat="43.6094191" lon="11.3136396"><ele>286.4</ele><time>2026-04-12T07:31:14.148Z</time></trkpt><trkpt lat="43.6093169" lon="11.3135756"><ele>284.2</ele><time>2026-04-12T07:31:15.149Z</time></trkpt><trkpt lat="43.6092181" lon="11.3135061"><ele>282.0</ele><time>2026-04-12T07:31:16.147Z</time></trkpt><trkpt lat="43.6091337" lon="11.3134229"><ele>281.8</ele><time>2026-04-12T07:31:17.149Z</time></trkpt><trkpt lat="43.6090523" lon="11.3133188"><ele>281.6</ele><time>2026-04-12T07:31:18.147Z</time></trkpt><trkpt lat="43.6089868" lon="11.313214"><ele>281.40000000000003</ele><time>2026-04-12T07:31:19.147Z</time></trkpt><trkpt lat="43.6089206" lon="11.3131091"><ele>281.2</ele><time>2026-04-12T07:31:20.148Z</time></trkpt><trkpt lat="43.6088558" lon="11.3129975"><ele>281.0</ele><time>2026-04-12T07:31:21.147Z</time></trkpt><trkpt lat="43.608787" lon="11.3128906"><ele>279.40000000000003</ele><time>2026-04-12T07:31:22.148Z</time></trkpt><trkpt lat="43.6087217" lon="11.3127924"><ele>277.8</ele><time>2026-04-12T07:31:23.147Z</time></trkpt><trkpt lat="43.6086556" lon="11.3126946"><ele>276.20000000000005</ele><time>2026-04-12T07:31:24.147Z</time></trkpt><trkpt lat="43.6085788" lon="11.3125987"><ele>274.6</ele><time>2026-04-12T07:31:25.147Z</time></trkpt><trkpt lat="43.6084984" lon="11.3125129"><ele>273.0</ele><time>2026-04-12T07:31:26.147Z</time></trkpt><trkpt lat="43.6084142" lon="11.3124308"><ele>270.75</ele><time>2026-04-12T07:31:27.148Z</time></trkpt><trkpt lat="43.6083272" lon="11.3123401"><ele>268.5</ele><time>2026-04-12T07:31:28.146Z</time></trkpt><trkpt lat="43.6082425" lon="11.3122372"><ele>266.25</ele><time>2026-04-12T07:31:29.148Z</time></trkpt><trkpt lat="43.6081627" lon="11.3121244"><ele>264.0</ele><time>2026-04-12T07:31:30.147Z</time></trkpt><trkpt lat="43.6080917" lon="11.3119943"><ele>263.75</ele><time>2026-04-12T07:31:31.146Z</time></trkpt><trkpt lat="43.6080266" lon="11.31186"><ele>263.5</ele><time>2026-04-12T07:31:32.147Z</time></trkpt><trkpt lat="43.6079644" lon="11.3117285"><ele>263.25</ele><time>2026-04-12T07:31:33.148Z</time></trkpt><trkpt lat="43.6078928" lon="11.3115889"><ele>263.0</ele><time>2026-04-12T07:31:34.149Z</time></trkpt><trkpt lat="43.6078203" lon="11.3114417"><ele>260.6</ele><time>2026-04-12T07:31:35.148Z</time></trkpt><trkpt lat="43.6077583" lon="11.3113078"><ele>258.20000000000005</ele><time>2026-04-12T07:31:36.147Z</time></trkpt><trkpt lat="43.6077002" lon="11.311176"><ele>255.8</ele><time>2026-04-12T07:31:37.148Z</time></trkpt><trkpt lat="43.607641" lon="11.3110569"><ele>253.4</ele><time>2026-04-12T07:31:38.149Z</time></trkpt><trkpt lat="43.607568" lon="11.3109439"><ele>251.0</ele><time>2026-04-12T07:31:39.147Z</time></trkpt><trkpt lat="43.6074903" lon="11.3108438"><ele>251.0</ele><time>2026-04-12T07:31:40.146Z</time></trkpt><trkpt lat="43.60741" lon="11.3107374"><ele>251.00000000000003</ele><time>2026-04-12T07:31:41.148Z</time></trkpt><trkpt lat="43.6073236" lon="11.3106271"><ele>251.00000000000003</ele><time>2026-04-12T07:31:42.148Z</time></trkpt><trkpt lat="43.6072418" lon="11.3105239"><ele>251.0</ele><time>2026-04-12T07:31:43.147Z</time></trkpt><trkpt lat="43.6071606" lon="11.3104232"><ele>251.0</ele><time>2026-04-12T07:31:44.147Z</time></trkpt><trkpt lat="43.6070886" lon="11.310318"><ele>248.8</ele><time>2026-04-12T07:31:45.147Z</time></trkpt><trkpt lat="43.6070171" lon="11.3102067"><ele>246.60000000000002</ele><time>2026-04-12T07:31:46.148Z</time></trkpt><trkpt lat="43.6069577" lon="11.3100953"><ele>244.4</ele><time>2026-04-12T07:31:47.147Z</time></trkpt><trkpt lat="43.6069039" lon="11.3099877"><ele>242.2</ele><time>2026-04-12T07:31:48.146Z</time></trkpt><trkpt lat="43.6068489" lon="11.3098813"><ele>240.0</ele><time>2026-04-12T07:31:49.148Z</time></trkpt><trkpt lat="43.6067872" lon="11.3097722"><ele>238.0</ele><time>2026-04-12T07:31:50.146Z</time></trkpt><trkpt lat="43.6067177" lon="11.309669"><ele>236.0</ele><time>2026-04-12T07:31:51.148Z</time></trkpt><trkpt lat="43.6066403" lon="11.3095712"><ele>234.0</ele><time>2026-04-12T07:31:52.147Z</time></trkpt><trkpt lat="43.6065507" lon="11.309472"><ele>232.0</ele><time>2026-04-12T07:31:53.149Z</time></trkpt><trkpt lat="43.6064744" lon="11.3093894"><ele>230.0</ele><time>2026-04-12T07:31:54.148Z</time></trkpt><trkpt lat="43.6063915" lon="11.3093158"><ele>230.0</ele><time>2026-04-12T07:31:55.146Z</time></trkpt><trkpt lat="43.6063031" lon="11.3092398"><ele>230.0</ele><time>2026-04-12T07:31:56.147Z</time></trkpt><trkpt lat="43.6062178" lon="11.309141"><ele>230.0</ele><time>2026-04-12T07:31:57.147Z</time></trkpt><trkpt lat="43.6061347" lon="11.3090356"><ele>230.0</ele><time>2026-04-12T07:31:58.146Z</time></trkpt><trkpt lat="43.6060579" lon="11.3089345"><ele>230.0</ele><time>2026-04-12T07:31:59.147Z</time></trkpt><trkpt lat="43.6059786" lon="11.30882"><ele>229.25</ele><time>2026-04-12T07:32:00.147Z</time></trkpt><trkpt lat="43.6058997" lon="11.3087033"><ele>228.5</ele><time>2026-04-12T07:32:01.147Z</time></trkpt><trkpt lat="43.6058163" lon="11.3085941"><ele>227.75</ele><time>2026-04-12T07:32:02.147Z</time></trkpt><trkpt lat="43.6057259" lon="11.3084841"><ele>227.0</ele><time>2026-04-12T07:32:03.147Z</time></trkpt><trkpt lat="43.6056241" lon="11.3083763"><ele>227.0</ele><time>2026-04-12T07:32:04.148Z</time></trkpt><trkpt lat="43.605529" lon="11.3082703"><ele>227.0</ele><time>2026-04-12T07:32:05.147Z</time></trkpt><trkpt lat="43.6054382" lon="11.3081742"><ele>227.0</ele><time>2026-04-12T07:32:06.147Z</time></trkpt><trkpt lat="43.605355" lon="11.3080837"><ele>227.0</ele><time>2026-04-12T07:32:07.146Z</time></trkpt><trkpt lat="43.6052753" lon="11.3080043"><ele>227.0</ele><time>2026-04-12T07:32:08.147Z</time></trkpt><trkpt lat="43.6051991" lon="11.3079361"><ele>226.50000000000003</ele><time>2026-04-12T07:32:09.149Z</time></trkpt><trkpt lat="43.6051254" lon="11.3078934"><ele>226.0</ele><time>2026-04-12T07:32:10.148Z</time></trkpt><trkpt lat="43.6050453" lon="11.3078884"><ele>225.5</ele><time>2026-04-12T07:32:11.147Z</time></trkpt><trkpt lat="43.6049663" lon="11.307914"><ele>225.0</ele><time>2026-04-12T07:32:12.148Z</time></trkpt><trkpt lat="43.6048861" lon="11.3079384"><ele>224.50000000000003</ele><time>2026-04-12T07:32:13.148Z</time></trkpt><trkpt lat="43.6047987" lon="11.3079547"><ele>224.0</ele><time>2026-04-12T07:32:14.149Z</time></trkpt><trkpt lat="43.6047081" lon="11.3079626"><ele>224.00000000000003</ele><time>2026-04-12T07:32:15.146Z</time></trkpt><trkpt lat="43.604619" lon="11.3079495"><ele>224.0</ele><time>2026-04-12T07:32:16.146Z</time></trkpt><trkpt lat="43.6045412" lon="11.3079328"><ele>224.0</ele><time>2026-04-12T07:32:17.147Z</time></trkpt><trkpt lat="43.60447" lon="11.3079127"><ele>224.0</ele><time>2026-04-12T07:32:18.149Z</time></trkpt><trkpt lat="43.6044054" lon="11.3078998"><ele>224.00000000000003</ele><time>2026-04-12T07:32:19.147Z</time></trkpt><trkpt lat="43.6042989" lon="11.3079559"><ele>224.0</ele><time>2026-04-12T07:32:21.148Z</time></trkpt><trkpt lat="43.6042702" lon="11.3080908"><ele>222.39999999999998</ele><time>2026-04-12T07:32:23.148Z</time></trkpt><trkpt lat="43.6042553" lon="11.3082356"><ele>220.79999999999998</ele><time>2026-04-12T07:32:25.148Z</time></trkpt><trkpt lat="43.6042255" lon="11.3083294"><ele>219.20000000000002</ele><time>2026-04-12T07:32:27.149Z</time></trkpt><trkpt lat="43.6041533" lon="11.3083857"><ele>217.60000000000002</ele><time>2026-04-12T07:32:41.148Z</time></trkpt><trkpt lat="43.6040938" lon="11.3085269"><ele>216.0</ele><time>2026-04-12T07:32:43.146Z</time></trkpt><trkpt lat="43.6040608" lon="11.3086116"><ele>216.0</ele><time>2026-04-12T07:32:44.148Z</time></trkpt><trkpt lat="43.6040164" lon="11.3087287"><ele>216.0</ele><time>2026-04-12T07:32:45.148Z</time></trkpt><trkpt lat="43.6039516" lon="11.308865"><ele>216.0</ele><time>2026-04-12T07:32:46.148Z</time></trkpt><trkpt lat="43.6038655" lon="11.3090112"><ele>216.0</ele><time>2026-04-12T07:32:47.148Z</time></trkpt><trkpt lat="43.6037429" lon="11.309142"><ele>215.0</ele><time>2026-04-12T07:32:48.148Z</time></trkpt><trkpt lat="43.6036047" lon="11.3092568"><ele>214.0</ele><time>2026-04-12T07:32:49.147Z</time></trkpt><trkpt lat="43.6034545" lon="11.3093564"><ele>213.0</ele><time>2026-04-12T07:32:50.148Z</time></trkpt><trkpt lat="43.6033018" lon="11.3094483"><ele>213.0</ele><time>2026-04-12T07:32:51.148Z</time></trkpt><trkpt lat="43.6031633" lon="11.3095296"><ele>213.0</ele><time>2026-04-12T07:32:52.148Z</time></trkpt><trkpt lat="43.603018" lon="11.3096103"><ele>213.0</ele><time>2026-04-12T07:32:53.147Z</time></trkpt><trkpt lat="43.6028716" lon="11.3096927"><ele>213.33333333333331</ele><time>2026-04-12T07:32:54.148Z</time></trkpt><trkpt lat="43.6027189" lon="11.3097768"><ele>213.66666666666666</ele><time>2026-04-12T07:32:55.148Z</time></trkpt><trkpt lat="43.6025639" lon="11.3098639"><ele>214.0</ele><time>2026-04-12T07:32:56.146Z</time></trkpt><trkpt lat="43.6024027" lon="11.3099536"><ele>214.0</ele><time>2026-04-12T07:32:57.147Z</time></trkpt><trkpt lat="43.6022412" lon="11.3100391"><ele>214.0</ele><time>2026-04-12T07:32:58.148Z</time></trkpt><trkpt lat="43.6020771" lon="11.3101259"><ele>214.0</ele><time>2026-04-12T07:32:59.147Z</time></trkpt><trkpt lat="43.6019135" lon="11.3102132"><ele>213.33333333333331</ele><time>2026-04-12T07:33:00.148Z</time></trkpt><trkpt lat="43.601749" lon="11.3103068"><ele>212.66666666666669</ele><time>2026-04-12T07:33:01.148Z</time></trkpt><trkpt lat="43.6015838" lon="11.3103974"><ele>212.0</ele><time>2026-04-12T07:33:02.148Z</time></trkpt><trkpt lat="43.601421" lon="11.3104843"><ele>213.0</ele><time>2026-04-12T07:33:03.148Z</time></trkpt><trkpt lat="43.601258" lon="11.3105807"><ele>214.0</ele><time>2026-04-12T07:33:04.146Z</time></trkpt><trkpt lat="43.6010972" lon="11.3106898"><ele>215.0</ele><time>2026-04-12T07:33:05.147Z</time></trkpt><trkpt lat="43.6009425" lon="11.3108276"><ele>215.0</ele><time>2026-04-12T07:33:06.147Z</time></trkpt><trkpt lat="43.6008025" lon="11.3109939"><ele>215.0</ele><time>2026-04-12T07:33:07.148Z</time></trkpt><trkpt lat="43.6006721" lon="11.3111913"><ele>215.0</ele><time>2026-04-12T07:33:08.148Z</time></trkpt><trkpt lat="43.6005536" lon="11.311399"><ele>214.33333333333334</ele><time>2026-04-12T07:33:09.147Z</time></trkpt><trkpt lat="43.600442" lon="11.31159"><ele>213.66666666666669</ele><time>2026-04-12T07:33:10.148Z</time></trkpt><trkpt lat="43.600347" lon="11.3117632"><ele>213.0</ele><time>2026-04-12T07:33:11.147Z</time></trkpt><trkpt lat="43.6002619" lon="11.3119245"><ele>213.0</ele><time>2026-04-12T07:33:12.147Z</time></trkpt><trkpt lat="43.6001848" lon="11.3120736"><ele>213.0</ele><time>2026-04-12T07:33:13.148Z</time></trkpt><trkpt lat="43.6001136" lon="11.3122111"><ele>213.0</ele><time>2026-04-12T07:33:14.148Z</time></trkpt><trkpt lat="43.6000414" lon="11.3123434"><ele>213.0</ele><time>2026-04-12T07:33:15.148Z</time></trkpt><trkpt lat="43.5999797" lon="11.3124664"><ele>212.99999999999997</ele><time>2026-04-12T07:33:16.149Z</time></trkpt><trkpt lat="43.5999301" lon="11.3125719"><ele>213.0</ele><time>2026-04-12T07:33:17.148Z</time></trkpt><trkpt lat="43.5999077" lon="11.3126546"><ele>213.0</ele><time>2026-04-12T07:33:18.149Z</time></trkpt><trkpt lat="43.5999493" lon="11.3127441"><ele>213.0</ele><time>2026-04-12T07:33:20.148Z</time></trkpt><trkpt lat="43.6000144" lon="11.3127573"><ele>213.0</ele><time>2026-04-12T07:33:22.148Z</time></trkpt><trkpt lat="43.6000792" lon="11.3127503"><ele>212.99999999999997</ele><time>2026-04-12T07:33:24.148Z</time></trkpt><trkpt lat="43.6001655" lon="11.312756"><ele>213.0</ele><time>2026-04-12T07:33:27.147Z</time></trkpt><trkpt lat="43.6002106" lon="11.3126902"><ele>213.0</ele><time>2026-04-12T07:33:33.148Z</time></trkpt><trkpt lat="43.600272" lon="11.3126319"><ele>213.0</ele><time>2026-04-12T07:37:20.149Z</time></trkpt><trkpt lat="43.6002784" lon="11.312517"><ele>213.0</ele><time>2026-04-12T07:37:23.149Z</time></trkpt><trkpt lat="43.6002301" lon="11.3124333"><ele>213.0</ele><time>2026-04-12T07:37:25.149Z</time></trkpt><trkpt lat="43.6001865" lon="11.3123693"><ele>213.0</ele><time>2026-04-12T07:37:27.148Z</time></trkpt><trkpt lat="43.6001581" lon="11.3122719"><ele>213.0</ele><time>2026-04-12T07:37:30.148Z</time></trkpt><trkpt lat="43.600176" lon="11.3121719"><ele>213.0</ele><time>2026-04-12T07:37:32.149Z</time></trkpt><trkpt lat="43.6002188" lon="11.3120961"><ele>213.0</ele><time>2026-04-12T07:37:33.147Z</time></trkpt><trkpt lat="43.6002557" lon="11.3120182"><ele>213.0</ele><time>2026-04-12T07:37:34.148Z</time></trkpt><trkpt lat="43.6003051" lon="11.3119212"><ele>213.0</ele><time>2026-04-12T07:37:35.148Z</time></trkpt><trkpt lat="43.6003623" lon="11.3118081"><ele>213.0</ele><time>2026-04-12T07:37:36.148Z</time></trkpt><trkpt lat="43.6004201" lon="11.3116963"><ele>213.0</ele><time>2026-04-12T07:37:37.147Z</time></trkpt><trkpt lat="43.6004833" lon="11.3115745"><ele>213.5</ele><time>2026-04-12T07:37:38.148Z</time></trkpt><trkpt lat="43.6005492" lon="11.3114446"><ele>214.0</ele><time>2026-04-12T07:37:39.147Z</time></trkpt><trkpt lat="43.6006315" lon="11.3113002"><ele>214.5</ele><time>2026-04-12T07:37:40.147Z</time></trkpt><trkpt lat="43.6007163" lon="11.3111553"><ele>215.0</ele><time>2026-04-12T07:37:41.147Z</time></trkpt><trkpt lat="43.6008229" lon="11.31101"><ele>215.0</ele><time>2026-04-12T07:37:42.148Z</time></trkpt><trkpt lat="43.6009426" lon="11.3108758"><ele>215.0</ele><time>2026-04-12T07:37:43.148Z</time></trkpt><trkpt lat="43.6010731" lon="11.3107614"><ele>215.0</ele><time>2026-04-12T07:37:44.148Z</time></trkpt><trkpt lat="43.6012147" lon="11.3106681"><ele>214.0</ele><time>2026-04-12T07:37:45.147Z</time></trkpt><trkpt lat="43.6013675" lon="11.3105851"><ele>213.0</ele><time>2026-04-12T07:37:46.148Z</time></trkpt><trkpt lat="43.6015152" lon="11.3104985"><ele>212.0</ele><time>2026-04-12T07:37:47.148Z</time></trkpt><trkpt lat="43.6016635" lon="11.3104118"><ele>212.0</ele><time>2026-04-12T07:37:48.149Z</time></trkpt><trkpt lat="43.6018117" lon="11.3103249"><ele>212.0</ele><time>2026-04-12T07:37:49.149Z</time></trkpt><trkpt lat="43.6019488" lon="11.3102397"><ele>212.0</ele><time>2026-04-12T07:37:50.147Z</time></trkpt><trkpt lat="43.6020738" lon="11.3101569"><ele>212.5</ele><time>2026-04-12T07:37:51.148Z</time></trkpt><trkpt lat="43.6022105" lon="11.3100862"><ele>213.0</ele><time>2026-04-12T07:37:52.148Z</time></trkpt><trkpt lat="43.6023356" lon="11.3100199"><ele>213.5</ele><time>2026-04-12T07:37:53.147Z</time></trkpt><trkpt lat="43.6024491" lon="11.3099546"><ele>214.0</ele><time>2026-04-12T07:37:54.149Z</time></trkpt><trkpt lat="43.602555" lon="11.3098991"><ele>214.0</ele><time>2026-04-12T07:37:55.147Z</time></trkpt><trkpt lat="43.602645" lon="11.3098477"><ele>213.99999999999997</ele><time>2026-04-12T07:37:56.15Z</time></trkpt><trkpt lat="43.6027145" lon="11.309808"><ele>213.99999999999997</ele><time>2026-04-12T07:37:57.148Z</time></trkpt><trkpt lat="43.6028042" lon="11.3097517"><ele>214.0</ele><time>2026-04-12T07:37:59.149Z</time></trkpt><trkpt lat="43.6028089" lon="11.309621"><ele>214.0</ele><time>2026-04-12T07:38:02.149Z</time></trkpt><trkpt lat="43.6027321" lon="11.3094491"><ele>213.6</ele><time>2026-04-12T07:38:04.149Z</time></trkpt><trkpt lat="43.6026912" lon="11.3093467"><ele>213.2</ele><time>2026-04-12T07:38:05.148Z</time></trkpt><trkpt lat="43.6026417" lon="11.3092373"><ele>212.79999999999998</ele><time>2026-04-12T07:38:06.149Z</time></trkpt><trkpt lat="43.602589" lon="11.3091117"><ele>212.39999999999998</ele><time>2026-04-12T07:38:07.15Z</time></trkpt><trkpt lat="43.6025358" lon="11.3089839"><ele>212.0</ele><time>2026-04-12T07:38:08.148Z</time></trkpt><trkpt lat="43.6024744" lon="11.308833"><ele>211.75</ele><time>2026-04-12T07:38:09.149Z</time></trkpt><trkpt lat="43.6024138" lon="11.3086871"><ele>211.5</ele><time>2026-04-12T07:38:10.148Z</time></trkpt><trkpt lat="43.6023429" lon="11.3085363"><ele>211.25</ele><time>2026-04-12T07:38:11.149Z</time></trkpt><trkpt lat="43.6022712" lon="11.3083756"><ele>211.0</ele><time>2026-04-12T07:38:12.148Z</time></trkpt><trkpt lat="43.6022069" lon="11.3082265"><ele>210.5</ele><time>2026-04-12T07:38:13.149Z</time></trkpt><trkpt lat="43.6021424" lon="11.3080742"><ele>210.0</ele><time>2026-04-12T07:38:14.149Z</time></trkpt><trkpt lat="43.6020853" lon="11.3079287"><ele>209.5</ele><time>2026-04-12T07:38:15.148Z</time></trkpt><trkpt lat="43.6020259" lon="11.3077828"><ele>209.0</ele><time>2026-04-12T07:38:16.147Z</time></trkpt><trkpt lat="43.6019799" lon="11.3076468"><ele>211.25</ele><time>2026-04-12T07:38:17.148Z</time></trkpt><trkpt lat="43.6019067" lon="11.3074855"><ele>213.5</ele><time>2026-04-12T07:38:18.148Z</time></trkpt><trkpt lat="43.6018373" lon="11.3073263"><ele>215.75</ele><time>2026-04-12T07:38:19.147Z</time></trkpt><trkpt lat="43.6017679" lon="11.307176"><ele>218.0</ele><time>2026-04-12T07:38:20.148Z</time></trkpt><trkpt lat="43.6017255" lon="11.3070653"><ele>218.00000000000003</ele><time>2026-04-12T07:38:21.149Z</time></trkpt><trkpt lat="43.601682" lon="11.3069536"><ele>218.0</ele><time>2026-04-12T07:38:22.15Z</time></trkpt><trkpt lat="43.6016621" lon="11.3068471"><ele>218.0</ele><time>2026-04-12T07:38:23.149Z</time></trkpt><trkpt lat="43.6016553" lon="11.3067457"><ele>218.0</ele><time>2026-04-12T07:38:24.149Z</time></trkpt><trkpt lat="43.6016623" lon="11.3066422"><ele>218.00000000000003</ele><time>2026-04-12T07:38:25.149Z</time></trkpt><trkpt lat="43.6016694" lon="11.306523"><ele>218.0</ele><time>2026-04-12T07:38:26.149Z</time></trkpt><trkpt lat="43.6016758" lon="11.3063999"><ele>217.4</ele><time>2026-04-12T07:38:27.149Z</time></trkpt><trkpt lat="43.6016826" lon="11.3062754"><ele>216.8</ele><time>2026-04-12T07:38:28.15Z</time></trkpt><trkpt lat="43.6016794" lon="11.306172"><ele>216.2</ele><time>2026-04-12T07:38:29.149Z</time></trkpt><trkpt lat="43.6016754" lon="11.3060767"><ele>215.6</ele><time>2026-04-12T07:38:30.149Z</time></trkpt><trkpt lat="43.601607" lon="11.3059606"><ele>215.0</ele><time>2026-04-12T07:38:32.149Z</time></trkpt><trkpt lat="43.6014712" lon="11.3059391"><ele>215.0</ele><time>2026-04-12T07:38:34.148Z</time></trkpt><trkpt lat="43.6014002" lon="11.3059428"><ele>215.0</ele><time>2026-04-12T07:38:35.148Z</time></trkpt><trkpt lat="43.601323" lon="11.3059469"><ele>215.0</ele><time>2026-04-12T07:38:36.149Z</time></trkpt><trkpt lat="43.6012478" lon="11.3059583"><ele>215.0</ele><time>2026-04-12T07:38:37.148Z</time></trkpt><trkpt lat="43.6011763" lon="11.3059634"><ele>215.0</ele><time>2026-04-12T07:38:38.149Z</time></trkpt><trkpt lat="43.6011113" lon="11.3059714"><ele>215.0</ele><time>2026-04-12T07:38:39.148Z</time></trkpt><trkpt lat="43.6010382" lon="11.3059753"><ele>215.0</ele><time>2026-04-12T07:38:40.149Z</time></trkpt><trkpt lat="43.600973" lon="11.3059761"><ele>217.2</ele><time>2026-04-12T07:38:41.148Z</time></trkpt><trkpt lat="43.6008474" lon="11.3059866"><ele>219.4</ele><time>2026-04-12T07:38:43.148Z</time></trkpt><trkpt lat="43.6007805" lon="11.3059862"><ele>221.60000000000002</ele><time>2026-04-12T07:38:44.147Z</time></trkpt><trkpt lat="43.6006634" lon="11.3059936"><ele>223.8</ele><time>2026-04-12T07:38:46.15Z</time></trkpt><trkpt lat="43.600584" lon="11.305998"><ele>226.0</ele><time>2026-04-12T07:38:48.149Z</time></trkpt><trkpt lat="43.6004837" lon="11.3060021"><ele>225.99999999999997</ele><time>2026-04-12T07:38:51.149Z</time></trkpt><trkpt lat="43.6004204" lon="11.3060033"><ele>226.0</ele><time>2026-04-12T07:38:53.149Z</time></trkpt><trkpt lat="43.6003278" lon="11.3059939"><ele>226.0</ele><time>2026-04-12T07:38:56.149Z</time></trkpt><trkpt lat="43.600237" lon="11.3059879"><ele>226.0</ele><time>2026-04-12T07:38:59.15Z</time></trkpt><trkpt lat="43.6001503" lon="11.305972"><ele>225.99999999999997</ele><time>2026-04-12T07:39:02.149Z</time></trkpt><trkpt lat="43.6000597" lon="11.3059703"><ele>226.0</ele><time>2026-04-12T07:39:05.149Z</time></trkpt><trkpt lat="43.5999678" lon="11.3059655"><ele>227.60000000000002</ele><time>2026-04-12T07:39:08.148Z</time></trkpt><trkpt lat="43.5998758" lon="11.3059704"><ele>229.20000000000002</ele><time>2026-04-12T07:39:11.149Z</time></trkpt><trkpt lat="43.5998169" lon="11.306026"><ele>230.79999999999998</ele><time>2026-04-12T07:39:13.149Z</time></trkpt><trkpt lat="43.59979" lon="11.3061704"><ele>232.39999999999998</ele><time>2026-04-12T07:39:15.149Z</time></trkpt><trkpt lat="43.5998002" lon="11.3063063"><ele>234.0</ele><time>2026-04-12T07:39:17.149Z</time></trkpt><trkpt lat="43.5997789" lon="11.3064369"><ele>234.6</ele><time>2026-04-12T07:39:19.149Z</time></trkpt><trkpt lat="43.5996862" lon="11.3065273"><ele>235.2</ele><time>2026-04-12T07:39:21.149Z</time></trkpt><trkpt lat="43.5996141" lon="11.3065474"><ele>235.79999999999998</ele><time>2026-04-12T07:39:22.149Z</time></trkpt><trkpt lat="43.5995339" lon="11.3065624"><ele>236.39999999999998</ele><time>2026-04-12T07:39:23.148Z</time></trkpt><trkpt lat="43.5994434" lon="11.3065716"><ele>237.0</ele><time>2026-04-12T07:39:24.149Z</time></trkpt><trkpt lat="43.5993482" lon="11.3065768"><ele>237.2</ele><time>2026-04-12T07:39:25.149Z</time></trkpt><trkpt lat="43.5992524" lon="11.3065709"><ele>237.39999999999998</ele><time>2026-04-12T07:39:26.147Z</time></trkpt><trkpt lat="43.5991623" lon="11.3065629"><ele>237.60000000000002</ele><time>2026-04-12T07:39:27.149Z</time></trkpt><trkpt lat="43.5990757" lon="11.3065752"><ele>237.8</ele><time>2026-04-12T07:39:28.149Z</time></trkpt><trkpt lat="43.5989878" lon="11.3066105"><ele>238.0</ele><time>2026-04-12T07:39:29.148Z</time></trkpt><trkpt lat="43.5989119" lon="11.3066736"><ele>237.99999999999997</ele><time>2026-04-12T07:39:30.148Z</time></trkpt><trkpt lat="43.5988334" lon="11.3067407"><ele>238.0</ele><time>2026-04-12T07:39:31.149Z</time></trkpt><trkpt lat="43.5987744" lon="11.3068108"><ele>238.0</ele><time>2026-04-12T07:39:32.149Z</time></trkpt><trkpt lat="43.5987343" lon="11.3068896"><ele>238.0</ele><time>2026-04-12T07:39:33.148Z</time></trkpt><trkpt lat="43.5987031" lon="11.306978"><ele>237.99999999999997</ele><time>2026-04-12T07:39:34.149Z</time></trkpt><trkpt lat="43.5986937" lon="11.3070743"><ele>238.0</ele><time>2026-04-12T07:39:35.149Z</time></trkpt><trkpt lat="43.5986856" lon="11.3071767"><ele>240.66666666666666</ele><time>2026-04-12T07:39:36.149Z</time></trkpt><trkpt lat="43.5986588" lon="11.3072786"><ele>243.33333333333331</ele><time>2026-04-12T07:39:37.149Z</time></trkpt><trkpt lat="43.5986199" lon="11.3073758"><ele>246.0</ele><time>2026-04-12T07:39:38.148Z</time></trkpt><trkpt lat="43.5985631" lon="11.3074695"><ele>248.66666666666669</ele><time>2026-04-12T07:39:39.149Z</time></trkpt><trkpt lat="43.5984879" lon="11.3075534"><ele>251.33333333333334</ele><time>2026-04-12T07:39:40.148Z</time></trkpt><trkpt lat="43.5984062" lon="11.307632"><ele>254.0</ele><time>2026-04-12T07:39:41.149Z</time></trkpt><trkpt lat="43.5983077" lon="11.3077059"><ele>254.0</ele><time>2026-04-12T07:39:42.15Z</time></trkpt><trkpt lat="43.598216" lon="11.3077487"><ele>254.0</ele><time>2026-04-12T07:39:43.15Z</time></trkpt><trkpt lat="43.5981036" lon="11.3077862"><ele>254.0</ele><time>2026-04-12T07:39:44.15Z</time></trkpt><trkpt lat="43.5979843" lon="11.3078078"><ele>254.0</ele><time>2026-04-12T07:39:45.148Z</time></trkpt><trkpt lat="43.5978662" lon="11.3078375"><ele>255.0</ele><time>2026-04-12T07:39:46.149Z</time></trkpt><trkpt lat="43.5977505" lon="11.3078746"><ele>255.99999999999997</ele><time>2026-04-12T07:39:47.147Z</time></trkpt><trkpt lat="43.5976414" lon="11.307908"><ele>257.0</ele><time>2026-04-12T07:39:48.149Z</time></trkpt><trkpt lat="43.5975364" lon="11.3079399"><ele>258.0</ele><time>2026-04-12T07:39:49.148Z</time></trkpt><trkpt lat="43.5974314" lon="11.3079603"><ele>259.0</ele><time>2026-04-12T07:39:50.148Z</time></trkpt><trkpt lat="43.5973174" lon="11.3079831"><ele>259.0</ele><time>2026-04-12T07:39:51.149Z</time></trkpt><trkpt lat="43.597195" lon="11.3080047"><ele>259.0</ele><time>2026-04-12T07:39:52.149Z</time></trkpt><trkpt lat="43.5970768" lon="11.3080257"><ele>259.0</ele><time>2026-04-12T07:39:53.149Z</time></trkpt><trkpt lat="43.5969633" lon="11.3080577"><ele>259.0</ele><time>2026-04-12T07:39:54.149Z</time></trkpt><trkpt lat="43.5968558" lon="11.3080813"><ele>260.2</ele><time>2026-04-12T07:39:55.148Z</time></trkpt><trkpt lat="43.5967553" lon="11.3080959"><ele>261.4</ele><time>2026-04-12T07:39:56.147Z</time></trkpt><trkpt lat="43.5966618" lon="11.3081173"><ele>262.6</ele><time>2026-04-12T07:39:57.149Z</time></trkpt><trkpt lat="43.5965645" lon="11.3081385"><ele>263.8</ele><time>2026-04-12T07:39:58.149Z</time></trkpt><trkpt lat="43.5964696" lon="11.308168"><ele>265.0</ele><time>2026-04-12T07:39:59.149Z</time></trkpt><trkpt lat="43.5963921" lon="11.3081914"><ele>265.0</ele><time>2026-04-12T07:40:00.148Z</time></trkpt><trkpt lat="43.596323" lon="11.3082066"><ele>265.0</ele><time>2026-04-12T07:40:01.149Z</time></trkpt><trkpt lat="43.59626" lon="11.3081929"><ele>265.0</ele><time>2026-04-12T07:40:02.148Z</time></trkpt><trkpt lat="43.596213" lon="11.3080742"><ele>265.0</ele><time>2026-04-12T07:40:04.148Z</time></trkpt><trkpt lat="43.5962347" lon="11.3079293"><ele>265.0</ele><time>2026-04-12T07:40:06.149Z</time></trkpt><trkpt lat="43.5961969" lon="11.3078236"><ele>265.0</ele><time>2026-04-12T07:40:08.149Z</time></trkpt><trkpt lat="43.5960886" lon="11.3078066"><ele>265.8333333333333</ele><time>2026-04-12T07:40:10.148Z</time></trkpt><trkpt lat="43.5960083" lon="11.3078231"><ele>266.66666666666663</ele><time>2026-04-12T07:40:11.148Z</time></trkpt><trkpt lat="43.5959324" lon="11.307845"><ele>267.5</ele><time>2026-04-12T07:40:12.148Z</time></trkpt><trkpt lat="43.5958475" lon="11.3078668"><ele>268.3333333333333</ele><time>2026-04-12T07:40:13.149Z</time></trkpt><trkpt lat="43.5957726" lon="11.3078839"><ele>269.1666666666667</ele><time>2026-04-12T07:40:14.149Z</time></trkpt><trkpt lat="43.5957014" lon="11.3079024"><ele>270.0</ele><time>2026-04-12T07:40:15.148Z</time></trkpt><trkpt lat="43.5955885" lon="11.3079336"><ele>270.0</ele><time>2026-04-12T07:40:17.148Z</time></trkpt><trkpt lat="43.5954618" lon="11.3079679"><ele>270.0</ele><time>2026-04-12T07:40:19.148Z</time></trkpt><trkpt lat="43.5953906" lon="11.3079771"><ele>270.0</ele><time>2026-04-12T07:40:20.148Z</time></trkpt><trkpt lat="43.5953205" lon="11.3079915"><ele>270.0</ele><time>2026-04-12T07:40:21.15Z</time></trkpt><trkpt lat="43.5952558" lon="11.3080033"><ele>270.0</ele><time>2026-04-12T07:40:22.15Z</time></trkpt><trkpt lat="43.5951752" lon="11.3080955"><ele>270.0</ele><time>2026-04-12T07:40:24.149Z</time></trkpt><trkpt lat="43.5951551" lon="11.3082572"><ele>269.6666666666667</ele><time>2026-04-12T07:40:26.148Z</time></trkpt><trkpt lat="43.5951648" lon="11.3084201"><ele>269.3333333333333</ele><time>2026-04-12T07:40:28.148Z</time></trkpt><trkpt lat="43.5951255" lon="11.3085369"><ele>269.0</ele><time>2026-04-12T07:40:30.15Z</time></trkpt><trkpt lat="43.5950287" lon="11.3085765"><ele>268.66666666666663</ele><time>2026-04-12T07:40:32.149Z</time></trkpt><trkpt lat="43.5949646" lon="11.3085883"><ele>268.3333333333333</ele><time>2026-04-12T07:40:33.149Z</time></trkpt><trkpt lat="43.5948955" lon="11.3085986"><ele>268.0</ele><time>2026-04-12T07:40:34.148Z</time></trkpt><trkpt lat="43.594821" lon="11.3086106"><ele>268.0</ele><time>2026-04-12T07:40:35.149Z</time></trkpt><trkpt lat="43.5947461" lon="11.3086254"><ele>268.0</ele><time>2026-04-12T07:40:36.149Z</time></trkpt><trkpt lat="43.5946782" lon="11.3086377"><ele>268.0</ele><time>2026-04-12T07:40:37.149Z</time></trkpt><trkpt lat="43.59461" lon="11.3086484"><ele>268.0</ele><time>2026-04-12T07:40:38.148Z</time></trkpt><trkpt lat="43.5945384" lon="11.3086692"><ele>268.0</ele><time>2026-04-12T07:40:39.149Z</time></trkpt><trkpt lat="43.5944695" lon="11.3086967"><ele>268.0</ele><time>2026-04-12T07:40:40.149Z</time></trkpt><trkpt lat="43.5944015" lon="11.3087129"><ele>268.0</ele><time>2026-04-12T07:40:41.149Z</time></trkpt><trkpt lat="43.5942927" lon="11.308738"><ele>267.0</ele><time>2026-04-12T07:40:43.148Z</time></trkpt><trkpt lat="43.5942299" lon="11.3087873"><ele>266.0</ele><time>2026-04-12T07:40:45.149Z</time></trkpt><trkpt lat="43.5941768" lon="11.3089134"><ele>265.0</ele><time>2026-04-12T07:40:47.149Z</time></trkpt><trkpt lat="43.5941542" lon="11.3090173"><ele>264.0</ele><time>2026-04-12T07:40:48.149Z</time></trkpt><trkpt lat="43.5941287" lon="11.3091376"><ele>263.0</ele><time>2026-04-12T07:40:49.147Z</time></trkpt><trkpt lat="43.594099" lon="11.3092655"><ele>262.0</ele><time>2026-04-12T07:40:50.149Z</time></trkpt><trkpt lat="43.5940665" lon="11.3094029"><ele>261.8</ele><time>2026-04-12T07:40:51.148Z</time></trkpt><trkpt lat="43.594037" lon="11.3095358"><ele>261.6</ele><time>2026-04-12T07:40:52.149Z</time></trkpt><trkpt lat="43.5940071" lon="11.3096689"><ele>261.40000000000003</ele><time>2026-04-12T07:40:53.149Z</time></trkpt><trkpt lat="43.5939789" lon="11.3097993"><ele>261.2</ele><time>2026-04-12T07:40:54.15Z</time></trkpt><trkpt lat="43.5939395" lon="11.3099196"><ele>261.0</ele><time>2026-04-12T07:40:55.148Z</time></trkpt><trkpt lat="43.5938876" lon="11.3100363"><ele>260.5</ele><time>2026-04-12T07:40:56.149Z</time></trkpt><trkpt lat="43.5938147" lon="11.3101483"><ele>260.0</ele><time>2026-04-12T07:40:57.149Z</time></trkpt><trkpt lat="43.5937175" lon="11.3102372"><ele>259.5</ele><time>2026-04-12T07:40:58.149Z</time></trkpt><trkpt lat="43.593601" lon="11.3102998"><ele>259.0</ele><time>2026-04-12T07:40:59.149Z</time></trkpt><trkpt lat="43.5934796" lon="11.3103723"><ele>257.25</ele><time>2026-04-12T07:41:00.149Z</time></trkpt><trkpt lat="43.5933519" lon="11.3104422"><ele>255.5</ele><time>2026-04-12T07:41:01.149Z</time></trkpt><trkpt lat="43.593226" lon="11.3105095"><ele>253.75</ele><time>2026-04-12T07:41:02.149Z</time></trkpt><trkpt lat="43.5930962" lon="11.3105843"><ele>252.0</ele><time>2026-04-12T07:41:03.149Z</time></trkpt><trkpt lat="43.5929738" lon="11.3106526"><ele>252.0</ele><time>2026-04-12T07:41:04.149Z</time></trkpt><trkpt lat="43.5928604" lon="11.3107103"><ele>252.0</ele><time>2026-04-12T07:41:05.149Z</time></trkpt><trkpt lat="43.5927504" lon="11.3107566"><ele>252.0</ele><time>2026-04-12T07:41:06.15Z</time></trkpt><trkpt lat="43.5926327" lon="11.3107991"><ele>252.0</ele><time>2026-04-12T07:41:07.149Z</time></trkpt><trkpt lat="43.5925185" lon="11.3108284"><ele>250.5</ele><time>2026-04-12T07:41:08.149Z</time></trkpt><trkpt lat="43.5923885" lon="11.3108359"><ele>249.0</ele><time>2026-04-12T07:41:09.149Z</time></trkpt><trkpt lat="43.5922502" lon="11.3108347"><ele>247.5</ele><time>2026-04-12T07:41:10.148Z</time></trkpt><trkpt lat="43.5920991" lon="11.3108337"><ele>246.0</ele><time>2026-04-12T07:41:11.148Z</time></trkpt><trkpt lat="43.5919323" lon="11.3108333"><ele>241.66666666666669</ele><time>2026-04-12T07:41:12.15Z</time></trkpt><trkpt lat="43.591764" lon="11.3108353"><ele>237.33333333333334</ele><time>2026-04-12T07:41:13.149Z</time></trkpt><trkpt lat="43.5915949" lon="11.3108293"><ele>233.0</ele><time>2026-04-12T07:41:14.149Z</time></trkpt><trkpt lat="43.5914295" lon="11.3108141"><ele>233.0</ele><time>2026-04-12T07:41:15.149Z</time></trkpt><trkpt lat="43.5912716" lon="11.3108043"><ele>233.0</ele><time>2026-04-12T07:41:16.149Z</time></trkpt><trkpt lat="43.5911158" lon="11.3108077"><ele>233.0</ele><time>2026-04-12T07:41:17.149Z</time></trkpt><trkpt lat="43.5909654" lon="11.310836"><ele>230.33333333333334</ele><time>2026-04-12T07:41:18.149Z</time></trkpt><trkpt lat="43.59083" lon="11.3109045"><ele>227.66666666666669</ele><time>2026-04-12T07:41:19.148Z</time></trkpt><trkpt lat="43.5907039" lon="11.311015"><ele>225.0</ele><time>2026-04-12T07:41:20.148Z</time></trkpt><trkpt lat="43.5905806" lon="11.3111582"><ele>225.0</ele><time>2026-04-12T07:41:21.149Z</time></trkpt><trkpt lat="43.5904781" lon="11.3113233"><ele>225.0</ele><time>2026-04-12T07:41:22.15Z</time></trkpt><trkpt lat="43.590394" lon="11.3115183"><ele>225.0</ele><time>2026-04-12T07:41:23.149Z</time></trkpt><trkpt lat="43.5903308" lon="11.3117396"><ele>224.33333333333331</ele><time>2026-04-12T07:41:24.149Z</time></trkpt><trkpt lat="43.5902862" lon="11.3119826"><ele>223.66666666666666</ele><time>2026-04-12T07:41:25.149Z</time></trkpt><trkpt lat="43.5902496" lon="11.3122331"><ele>223.0</ele><time>2026-04-12T07:41:26.149Z</time></trkpt><trkpt lat="43.5902192" lon="11.3124826"><ele>222.66666666666666</ele><time>2026-04-12T07:41:27.149Z</time></trkpt><trkpt lat="43.590196" lon="11.3127256"><ele>222.33333333333331</ele><time>2026-04-12T07:41:28.15Z</time></trkpt><trkpt lat="43.5901783" lon="11.3129513"><ele>222.0</ele><time>2026-04-12T07:41:29.149Z</time></trkpt><trkpt lat="43.590157" lon="11.3131567"><ele>221.75</ele><time>2026-04-12T07:41:30.15Z</time></trkpt><trkpt lat="43.5901553" lon="11.3133498"><ele>221.5</ele><time>2026-04-12T07:41:31.15Z</time></trkpt><trkpt lat="43.5901595" lon="11.3135316"><ele>221.25</ele><time>2026-04-12T07:41:32.149Z</time></trkpt><trkpt lat="43.5901347" lon="11.313681"><ele>221.0</ele><time>2026-04-12T07:41:33.149Z</time></trkpt><trkpt lat="43.5900957" lon="11.3138058"><ele>221.4</ele><time>2026-04-12T07:41:34.149Z</time></trkpt><trkpt lat="43.5900543" lon="11.3139179"><ele>221.8</ele><time>2026-04-12T07:41:35.149Z</time></trkpt><trkpt lat="43.5899397" lon="11.3139665"><ele>222.20000000000002</ele><time>2026-04-12T07:41:36.15Z</time></trkpt><trkpt lat="43.5898318" lon="11.3140002"><ele>222.60000000000002</ele><time>2026-04-12T07:41:37.15Z</time></trkpt><trkpt lat="43.589706" lon="11.3140025"><ele>223.0</ele><time>2026-04-12T07:41:38.15Z</time></trkpt><trkpt lat="43.5895771" lon="11.3139843"><ele>223.5</ele><time>2026-04-12T07:41:39.149Z</time></trkpt><trkpt lat="43.5894588" lon="11.3139669"><ele>224.0</ele><time>2026-04-12T07:41:40.149Z</time></trkpt><trkpt lat="43.5893412" lon="11.3139565"><ele>224.5</ele><time>2026-04-12T07:41:41.148Z</time></trkpt><trkpt lat="43.5892251" lon="11.3139432"><ele>225.0</ele><time>2026-04-12T07:41:42.15Z</time></trkpt><trkpt lat="43.5891039" lon="11.3139267"><ele>225.0</ele><time>2026-04-12T07:41:43.148Z</time></trkpt><trkpt lat="43.588985" lon="11.3139166"><ele>225.0</ele><time>2026-04-12T07:41:44.15Z</time></trkpt><trkpt lat="43.5888636" lon="11.3138986"><ele>225.0</ele><time>2026-04-12T07:41:45.149Z</time></trkpt><trkpt lat="43.5887393" lon="11.3138819"><ele>225.0</ele><time>2026-04-12T07:41:46.149Z</time></trkpt><trkpt lat="43.5886213" lon="11.313869"><ele>225.5</ele><time>2026-04-12T07:41:47.148Z</time></trkpt><trkpt lat="43.5884982" lon="11.3138549"><ele>226.0</ele><time>2026-04-12T07:41:48.149Z</time></trkpt><trkpt lat="43.5883763" lon="11.3138405"><ele>226.5</ele><time>2026-04-12T07:41:49.149Z</time></trkpt><trkpt lat="43.5882492" lon="11.3138323"><ele>227.0</ele><time>2026-04-12T07:41:50.149Z</time></trkpt><trkpt lat="43.5881201" lon="11.3138161"><ele>227.0</ele><time>2026-04-12T07:41:51.148Z</time></trkpt><trkpt lat="43.5879932" lon="11.3137982"><ele>227.0</ele><time>2026-04-12T07:41:52.149Z</time></trkpt><trkpt lat="43.5878664" lon="11.3137856"><ele>227.0</ele><time>2026-04-12T07:41:53.15Z</time></trkpt><trkpt lat="43.5877419" lon="11.3137687"><ele>227.0</ele><time>2026-04-12T07:41:54.148Z</time></trkpt><trkpt lat="43.5876186" lon="11.313752"><ele>227.75</ele><time>2026-04-12T07:41:55.149Z</time></trkpt><trkpt lat="43.5874911" lon="11.3137414"><ele>228.5</ele><time>2026-04-12T07:41:56.149Z</time></trkpt><trkpt lat="43.5873636" lon="11.3137281"><ele>229.25</ele><time>2026-04-12T07:41:57.149Z</time></trkpt><trkpt lat="43.5872367" lon="11.3137159"><ele>230.0</ele><time>2026-04-12T07:41:58.149Z</time></trkpt><trkpt lat="43.5871188" lon="11.3136977"><ele>229.8</ele><time>2026-04-12T07:41:59.149Z</time></trkpt><trkpt lat="43.5870064" lon="11.3136776"><ele>229.6</ele><time>2026-04-12T07:42:00.149Z</time></trkpt><trkpt lat="43.5868982" lon="11.3136553"><ele>229.39999999999998</ele><time>2026-04-12T07:42:01.149Z</time></trkpt><trkpt lat="43.5868071" lon="11.3136249"><ele>229.2</ele><time>2026-04-12T07:42:02.149Z</time></trkpt><trkpt lat="43.586724" lon="11.3136104"><ele>229.0</ele><time>2026-04-12T07:42:03.149Z</time></trkpt><trkpt lat="43.5866509" lon="11.3136322"><ele>229.0</ele><time>2026-04-12T07:42:04.15Z</time></trkpt><trkpt lat="43.5865619" lon="11.3137016"><ele>228.99999999999997</ele><time>2026-04-12T07:42:06.149Z</time></trkpt><trkpt lat="43.5865595" lon="11.3137995"><ele>228.99999999999997</ele><time>2026-04-12T07:42:11.149Z</time></trkpt><trkpt lat="43.5866401" lon="11.313898"><ele>229.0</ele><time>2026-04-12T07:42:13.149Z</time></trkpt><trkpt lat="43.5867188" lon="11.3140022"><ele>229.0</ele><time>2026-04-12T07:42:15.149Z</time></trkpt><trkpt lat="43.5867099" lon="11.3141226"><ele>228.79999999999998</ele><time>2026-04-12T07:42:17.149Z</time></trkpt><trkpt lat="43.5866678" lon="11.3142171"><ele>228.59999999999997</ele><time>2026-04-12T07:42:19.149Z</time></trkpt><trkpt lat="43.5866127" lon="11.3143191"><ele>228.4</ele><time>2026-04-12T07:42:21.149Z</time></trkpt><trkpt lat="43.5865507" lon="11.3144314"><ele>228.2</ele><time>2026-04-12T07:42:23.148Z</time></trkpt><trkpt lat="43.5864804" lon="11.3145383"><ele>228.0</ele><time>2026-04-12T07:42:25.15Z</time></trkpt><trkpt lat="43.5864176" lon="11.314639"><ele>228.0</ele><time>2026-04-12T07:42:27.15Z</time></trkpt><trkpt lat="43.5863416" lon="11.3147676"><ele>228.0</ele><time>2026-04-12T07:42:29.149Z</time></trkpt><trkpt lat="43.5863011" lon="11.3148406"><ele>228.0</ele><time>2026-04-12T07:42:30.148Z</time></trkpt><trkpt lat="43.5862642" lon="11.3149254"><ele>228.0</ele><time>2026-04-12T07:42:31.149Z</time></trkpt><trkpt lat="43.5862322" lon="11.3150102"><ele>228.0</ele><time>2026-04-12T07:42:32.148Z</time></trkpt><trkpt lat="43.5861513" lon="11.3151235"><ele>228.0</ele><time>2026-04-12T07:42:34.15Z</time></trkpt><trkpt lat="43.5860766" lon="11.3151442"><ele>228.0</ele><time>2026-04-12T07:42:35.148Z</time></trkpt><trkpt lat="43.5859944" lon="11.315161"><ele>228.0</ele><time>2026-04-12T07:42:36.148Z</time></trkpt><trkpt lat="43.5859092" lon="11.3151729"><ele>228.0</ele><time>2026-04-12T07:42:37.151Z</time></trkpt><trkpt lat="43.5858144" lon="11.3151923"><ele>228.0</ele><time>2026-04-12T07:42:38.149Z</time></trkpt><trkpt lat="43.5857068" lon="11.3152128"><ele>228.0</ele><time>2026-04-12T07:42:39.149Z</time></trkpt><trkpt lat="43.585583" lon="11.3152326"><ele>228.0</ele><time>2026-04-12T07:42:40.15Z</time></trkpt><trkpt lat="43.5854621" lon="11.3152514"><ele>228.0</ele><time>2026-04-12T07:42:41.148Z</time></trkpt><trkpt lat="43.5853409" lon="11.3152709"><ele>228.0</ele><time>2026-04-12T07:42:42.149Z</time></trkpt><trkpt lat="43.5852139" lon="11.3152938"><ele>228.0</ele><time>2026-04-12T07:42:43.15Z</time></trkpt><trkpt lat="43.5850861" lon="11.3153202"><ele>228.5</ele><time>2026-04-12T07:42:44.148Z</time></trkpt><trkpt lat="43.5849554" lon="11.3153518"><ele>229.0</ele><time>2026-04-12T07:42:45.151Z</time></trkpt><trkpt lat="43.5848262" lon="11.3153881"><ele>229.5</ele><time>2026-04-12T07:42:46.15Z</time></trkpt><trkpt lat="43.5847037" lon="11.3154345"><ele>230.0</ele><time>2026-04-12T07:42:47.15Z</time></trkpt><trkpt lat="43.5845824" lon="11.3154819"><ele>230.25</ele><time>2026-04-12T07:42:48.151Z</time></trkpt><trkpt lat="43.5844665" lon="11.3155373"><ele>230.5</ele><time>2026-04-12T07:42:49.148Z</time></trkpt><trkpt lat="43.584353" lon="11.3155909"><ele>230.75</ele><time>2026-04-12T07:42:50.15Z</time></trkpt><trkpt lat="43.5842465" lon="11.3156639"><ele>231.0</ele><time>2026-04-12T07:42:51.149Z</time></trkpt><trkpt lat="43.5841618" lon="11.3157498"><ele>231.0</ele><time>2026-04-12T07:42:52.148Z</time></trkpt><trkpt lat="43.5840969" lon="11.3158471"><ele>231.00000000000003</ele><time>2026-04-12T07:42:53.151Z</time></trkpt><trkpt lat="43.5840403" lon="11.3159528"><ele>231.00000000000003</ele><time>2026-04-12T07:42:54.148Z</time></trkpt><trkpt lat="43.5839891" lon="11.3160572"><ele>231.0</ele><time>2026-04-12T07:42:55.148Z</time></trkpt><trkpt lat="43.5839446" lon="11.3161596"><ele>231.0</ele><time>2026-04-12T07:42:56.149Z</time></trkpt><trkpt lat="43.5838944" lon="11.3162746"><ele>230.75</ele><time>2026-04-12T07:42:57.148Z</time></trkpt><trkpt lat="43.58384" lon="11.3164034"><ele>230.5</ele><time>2026-04-12T07:42:58.149Z</time></trkpt><trkpt lat="43.5837861" lon="11.3165475"><ele>230.25</ele><time>2026-04-12T07:42:59.149Z</time></trkpt><trkpt lat="43.5837182" lon="11.3167023"><ele>230.0</ele><time>2026-04-12T07:43:00.15Z</time></trkpt><trkpt lat="43.5836511" lon="11.3168476"><ele>230.8</ele><time>2026-04-12T07:43:01.149Z</time></trkpt><trkpt lat="43.5835856" lon="11.3169763"><ele>231.6</ele><time>2026-04-12T07:43:02.149Z</time></trkpt><trkpt lat="43.5835263" lon="11.3170975"><ele>232.39999999999998</ele><time>2026-04-12T07:43:03.149Z</time></trkpt><trkpt lat="43.5834634" lon="11.3172033"><ele>233.2</ele><time>2026-04-12T07:43:04.15Z</time></trkpt><trkpt lat="43.5833954" lon="11.3172911"><ele>234.0</ele><time>2026-04-12T07:43:05.15Z</time></trkpt><trkpt lat="43.5833279" lon="11.3173653"><ele>234.0</ele><time>2026-04-12T07:43:06.148Z</time></trkpt><trkpt lat="43.5832649" lon="11.3174185"><ele>233.99999999999997</ele><time>2026-04-12T07:43:07.148Z</time></trkpt><trkpt lat="43.5831778" lon="11.3174813"><ele>233.99999999999997</ele><time>2026-04-12T07:43:09.149Z</time></trkpt><trkpt lat="43.5831247" lon="11.317547"><ele>234.0</ele><time>2026-04-12T07:43:44.15Z</time></trkpt><trkpt lat="43.5830351" lon="11.3176064"><ele>234.0</ele><time>2026-04-12T07:43:46.15Z</time></trkpt><trkpt lat="43.5829122" lon="11.3176685"><ele>234.39999999999998</ele><time>2026-04-12T07:43:48.15Z</time></trkpt><trkpt lat="43.5828301" lon="11.3177046"><ele>234.79999999999998</ele><time>2026-04-12T07:43:49.148Z</time></trkpt><trkpt lat="43.5827425" lon="11.3177428"><ele>235.20000000000002</ele><time>2026-04-12T07:43:50.148Z</time></trkpt><trkpt lat="43.5826481" lon="11.3177854"><ele>235.60000000000002</ele><time>2026-04-12T07:43:51.148Z</time></trkpt><trkpt lat="43.5825523" lon="11.3178283"><ele>236.0</ele><time>2026-04-12T07:43:52.149Z</time></trkpt><trkpt lat="43.5824603" lon="11.3178807"><ele>236.0</ele><time>2026-04-12T07:43:53.151Z</time></trkpt><trkpt lat="43.5823552" lon="11.3179194"><ele>236.0</ele><time>2026-04-12T07:43:54.15Z</time></trkpt><trkpt lat="43.5822397" lon="11.3179499"><ele>236.0</ele><time>2026-04-12T07:43:55.15Z</time></trkpt><trkpt lat="43.5821141" lon="11.3179559"><ele>236.0</ele><time>2026-04-12T07:43:56.15Z</time></trkpt><trkpt lat="43.5819924" lon="11.317938"><ele>236.75</ele><time>2026-04-12T07:43:57.15Z</time></trkpt><trkpt lat="43.5818683" lon="11.3179012"><ele>237.5</ele><time>2026-04-12T07:43:58.15Z</time></trkpt><trkpt lat="43.5817444" lon="11.3178709"><ele>238.25</ele><time>2026-04-12T07:43:59.151Z</time></trkpt><trkpt lat="43.5816069" lon="11.3178617"><ele>239.0</ele><time>2026-04-12T07:44:00.151Z</time></trkpt><trkpt lat="43.5814572" lon="11.3178621"><ele>239.0</ele><time>2026-04-12T07:44:01.149Z</time></trkpt><trkpt lat="43.5813201" lon="11.3178695"><ele>239.0</ele><time>2026-04-12T07:44:02.149Z</time></trkpt><trkpt lat="43.5811918" lon="11.3178739"><ele>239.0</ele><time>2026-04-12T07:44:03.15Z</time></trkpt><trkpt lat="43.5810725" lon="11.3178706"><ele>239.0</ele><time>2026-04-12T07:44:04.15Z</time></trkpt><trkpt lat="43.580969" lon="11.3178368"><ele>238.5</ele><time>2026-04-12T07:44:05.151Z</time></trkpt><trkpt lat="43.58087" lon="11.317776"><ele>238.0</ele><time>2026-04-12T07:44:06.149Z</time></trkpt><trkpt lat="43.5807649" lon="11.3177017"><ele>237.5</ele><time>2026-04-12T07:44:07.149Z</time></trkpt><trkpt lat="43.580655" lon="11.3176208"><ele>237.0</ele><time>2026-04-12T07:44:08.15Z</time></trkpt><trkpt lat="43.5805458" lon="11.3175298"><ele>237.0</ele><time>2026-04-12T07:44:09.149Z</time></trkpt><trkpt lat="43.580435" lon="11.3174296"><ele>237.0</ele><time>2026-04-12T07:44:10.15Z</time></trkpt><trkpt lat="43.580331" lon="11.3173274"><ele>237.0</ele><time>2026-04-12T07:44:11.149Z</time></trkpt><trkpt lat="43.580234" lon="11.3172089"><ele>237.0</ele><time>2026-04-12T07:44:12.15Z</time></trkpt><trkpt lat="43.5801416" lon="11.3171096"><ele>238.5</ele><time>2026-04-12T07:44:13.151Z</time></trkpt><trkpt lat="43.5800248" lon="11.3170252"><ele>240.0</ele><time>2026-04-12T07:44:14.149Z</time></trkpt><trkpt lat="43.5798927" lon="11.3169614"><ele>241.5</ele><time>2026-04-12T07:44:15.151Z</time></trkpt><trkpt lat="43.5797513" lon="11.3169116"><ele>243.0</ele><time>2026-04-12T07:44:16.149Z</time></trkpt><trkpt lat="43.5796017" lon="11.3168485"><ele>241.66666666666669</ele><time>2026-04-12T07:44:17.15Z</time></trkpt><trkpt lat="43.5794454" lon="11.3167865"><ele>240.33333333333334</ele><time>2026-04-12T07:44:18.15Z</time></trkpt><trkpt lat="43.5792903" lon="11.3167351"><ele>239.0</ele><time>2026-04-12T07:44:19.149Z</time></trkpt><trkpt lat="43.579129" lon="11.3166692"><ele>239.0</ele><time>2026-04-12T07:44:20.15Z</time></trkpt><trkpt lat="43.5789719" lon="11.3166071"><ele>239.0</ele><time>2026-04-12T07:44:21.149Z</time></trkpt><trkpt lat="43.5788018" lon="11.3165547"><ele>239.0</ele><time>2026-04-12T07:44:22.149Z</time></trkpt><trkpt lat="43.5786237" lon="11.3165221"><ele>239.33333333333334</ele><time>2026-04-12T07:44:23.15Z</time></trkpt><trkpt lat="43.5784328" lon="11.3165203"><ele>239.66666666666669</ele><time>2026-04-12T07:44:24.149Z</time></trkpt><trkpt lat="43.5782407" lon="11.3165514"><ele>240.0</ele><time>2026-04-12T07:44:25.15Z</time></trkpt><trkpt lat="43.5780505" lon="11.3166028"><ele>240.0</ele><time>2026-04-12T07:44:26.149Z</time></trkpt><trkpt lat="43.5778642" lon="11.3166601"><ele>240.0</ele><time>2026-04-12T07:44:27.151Z</time></trkpt><trkpt lat="43.5776807" lon="11.3167303"><ele>240.0</ele><time>2026-04-12T07:44:28.149Z</time></trkpt><trkpt lat="43.577495" lon="11.3168"><ele>241.33333333333331</ele><time>2026-04-12T07:44:29.15Z</time></trkpt><trkpt lat="43.5773092" lon="11.3168686"><ele>242.66666666666666</ele><time>2026-04-12T07:44:30.148Z</time></trkpt><trkpt lat="43.5771241" lon="11.316941"><ele>244.0</ele><time>2026-04-12T07:44:31.15Z</time></trkpt><trkpt lat="43.576939" lon="11.3170248"><ele>242.66666666666666</ele><time>2026-04-12T07:44:32.15Z</time></trkpt><trkpt lat="43.5767588" lon="11.3171147"><ele>241.33333333333331</ele><time>2026-04-12T07:44:33.15Z</time></trkpt><trkpt lat="43.5765865" lon="11.317205"><ele>240.0</ele><time>2026-04-12T07:44:34.15Z</time></trkpt><trkpt lat="43.576424" lon="11.3172928"><ele>240.0</ele><time>2026-04-12T07:44:35.149Z</time></trkpt><trkpt lat="43.5762624" lon="11.317374"><ele>240.0</ele><time>2026-04-12T07:44:36.15Z</time></trkpt><trkpt lat="43.5761051" lon="11.3174589"><ele>240.0</ele><time>2026-04-12T07:44:37.149Z</time></trkpt><trkpt lat="43.5759495" lon="11.317543"><ele>241.33333333333331</ele><time>2026-04-12T07:44:38.15Z</time></trkpt><trkpt lat="43.5757924" lon="11.3176194"><ele>242.66666666666666</ele><time>2026-04-12T07:44:39.148Z</time></trkpt><trkpt lat="43.5756329" lon="11.3177004"><ele>244.0</ele><time>2026-04-12T07:44:40.149Z</time></trkpt><trkpt lat="43.5754715" lon="11.3177866"><ele>248.66666666666666</ele><time>2026-04-12T07:44:41.151Z</time></trkpt><trkpt lat="43.5753063" lon="11.3178686"><ele>253.33333333333331</ele><time>2026-04-12T07:44:42.15Z</time></trkpt><trkpt lat="43.57514" lon="11.3179518"><ele>258.0</ele><time>2026-04-12T07:44:43.15Z</time></trkpt><trkpt lat="43.5749714" lon="11.3180357"><ele>258.0</ele><time>2026-04-12T07:44:44.149Z</time></trkpt><trkpt lat="43.5748056" lon="11.3181098"><ele>258.0</ele><time>2026-04-12T07:44:45.149Z</time></trkpt><trkpt lat="43.5746422" lon="11.3181893"><ele>258.0</ele><time>2026-04-12T07:44:46.151Z</time></trkpt><trkpt lat="43.5744744" lon="11.3182702"><ele>258.0</ele><time>2026-04-12T07:44:47.15Z</time></trkpt><trkpt lat="43.5743058" lon="11.3183506"><ele>258.0</ele><time>2026-04-12T07:44:48.15Z</time></trkpt><trkpt lat="43.574138" lon="11.318429"><ele>258.0</ele><time>2026-04-12T07:44:49.149Z</time></trkpt><trkpt lat="43.5739732" lon="11.3185105"><ele>258.0</ele><time>2026-04-12T07:44:50.151Z</time></trkpt><trkpt lat="43.5738089" lon="11.3185902"><ele>258.0</ele><time>2026-04-12T07:44:51.149Z</time></trkpt><trkpt lat="43.5736468" lon="11.3186719"><ele>258.0</ele><time>2026-04-12T07:44:52.15Z</time></trkpt><trkpt lat="43.5734748" lon="11.318759"><ele>255.0</ele><time>2026-04-12T07:44:53.15Z</time></trkpt><trkpt lat="43.5732986" lon="11.3188374"><ele>252.0</ele><time>2026-04-12T07:44:54.151Z</time></trkpt><trkpt lat="43.5731187" lon="11.3189273"><ele>249.0</ele><time>2026-04-12T07:44:55.149Z</time></trkpt><trkpt lat="43.5729396" lon="11.3190144"><ele>252.0</ele><time>2026-04-12T07:44:56.15Z</time></trkpt><trkpt lat="43.5727523" lon="11.3191102"><ele>255.0</ele><time>2026-04-12T07:44:57.15Z</time></trkpt><trkpt lat="43.5725602" lon="11.3192019"><ele>258.0</ele><time>2026-04-12T07:44:58.15Z</time></trkpt><trkpt lat="43.5723748" lon="11.3192959"><ele>258.0</ele><time>2026-04-12T07:44:59.149Z</time></trkpt><trkpt lat="43.572194" lon="11.3193886"><ele>258.0</ele><time>2026-04-12T07:45:00.151Z</time></trkpt><trkpt lat="43.5720104" lon="11.3194786"><ele>258.0</ele><time>2026-04-12T07:45:01.149Z</time></trkpt><trkpt lat="43.5718309" lon="11.3195716"><ele>255.33333333333331</ele><time>2026-04-12T07:45:02.148Z</time></trkpt><trkpt lat="43.5716533" lon="11.319663"><ele>252.66666666666666</ele><time>2026-04-12T07:45:03.15Z</time></trkpt><trkpt lat="43.5714807" lon="11.319753"><ele>250.0</ele><time>2026-04-12T07:45:04.15Z</time></trkpt><trkpt lat="43.5713071" lon="11.3198451"><ele>253.0</ele><time>2026-04-12T07:45:05.15Z</time></trkpt><trkpt lat="43.5711358" lon="11.3199306"><ele>256.0</ele><time>2026-04-12T07:45:06.149Z</time></trkpt><trkpt lat="43.5709706" lon="11.3200127"><ele>259.0</ele><time>2026-04-12T07:45:07.15Z</time></trkpt><trkpt lat="43.5708137" lon="11.3200916"><ele>259.0</ele><time>2026-04-12T07:45:08.149Z</time></trkpt><trkpt lat="43.5706687" lon="11.3201595"><ele>259.0</ele><time>2026-04-12T07:45:09.15Z</time></trkpt><trkpt lat="43.5705203" lon="11.3202241"><ele>259.0</ele><time>2026-04-12T07:45:10.15Z</time></trkpt><trkpt lat="43.5703724" lon="11.3202771"><ele>260.0</ele><time>2026-04-12T07:45:11.15Z</time></trkpt><trkpt lat="43.5702209" lon="11.3203221"><ele>261.0</ele><time>2026-04-12T07:45:12.15Z</time></trkpt><trkpt lat="43.570069" lon="11.3203616"><ele>262.0</ele><time>2026-04-12T07:45:13.149Z</time></trkpt><trkpt lat="43.5699219" lon="11.3204007"><ele>262.0</ele><time>2026-04-12T07:45:14.15Z</time></trkpt><trkpt lat="43.569777" lon="11.3204382"><ele>262.0</ele><time>2026-04-12T07:45:15.15Z</time></trkpt><trkpt lat="43.5696447" lon="11.3204732"><ele>262.0</ele><time>2026-04-12T07:45:16.15Z</time></trkpt><trkpt lat="43.5695233" lon="11.3205111"><ele>262.0</ele><time>2026-04-12T07:45:17.149Z</time></trkpt><trkpt lat="43.5694167" lon="11.3205685"><ele>263.0</ele><time>2026-04-12T07:45:18.151Z</time></trkpt><trkpt lat="43.5693299" lon="11.3206486"><ele>264.0</ele><time>2026-04-12T07:45:19.149Z</time></trkpt><trkpt lat="43.5692691" lon="11.3207664"><ele>265.0</ele><time>2026-04-12T07:45:20.151Z</time></trkpt><trkpt lat="43.569229" lon="11.3209087"><ele>266.0</ele><time>2026-04-12T07:45:21.149Z</time></trkpt><trkpt lat="43.5692086" lon="11.321071"><ele>267.0</ele><time>2026-04-12T07:45:22.149Z</time></trkpt><trkpt lat="43.5691904" lon="11.3212514"><ele>265.6666666666667</ele><time>2026-04-12T07:45:23.15Z</time></trkpt><trkpt lat="43.5691616" lon="11.3214479"><ele>264.33333333333337</ele><time>2026-04-12T07:45:24.15Z</time></trkpt><trkpt lat="43.5691038" lon="11.3216518"><ele>263.0</ele><time>2026-04-12T07:45:25.15Z</time></trkpt><trkpt lat="43.5690197" lon="11.3218422"><ele>263.0</ele><time>2026-04-12T07:45:26.15Z</time></trkpt><trkpt lat="43.568922" lon="11.3220179"><ele>263.0</ele><time>2026-04-12T07:45:27.151Z</time></trkpt><trkpt lat="43.5688239" lon="11.322188"><ele>263.0</ele><time>2026-04-12T07:45:28.151Z</time></trkpt><trkpt lat="43.5687216" lon="11.3223373"><ele>267.0</ele><time>2026-04-12T07:45:29.149Z</time></trkpt><trkpt lat="43.5686092" lon="11.3224434"><ele>271.0</ele><time>2026-04-12T07:45:30.15Z</time></trkpt><trkpt lat="43.5684744" lon="11.3225091"><ele>275.0</ele><time>2026-04-12T07:45:31.149Z</time></trkpt><trkpt lat="43.5683348" lon="11.3225496"><ele>279.0</ele><time>2026-04-12T07:45:32.15Z</time></trkpt><trkpt lat="43.5681872" lon="11.3225813"><ele>279.0</ele><time>2026-04-12T07:45:33.151Z</time></trkpt><trkpt lat="43.5680421" lon="11.3226089"><ele>279.0</ele><time>2026-04-12T07:45:34.149Z</time></trkpt><trkpt lat="43.5679041" lon="11.3226386"><ele>279.0</ele><time>2026-04-12T07:45:35.15Z</time></trkpt><trkpt lat="43.5677677" lon="11.3226661"><ele>279.0</ele><time>2026-04-12T07:45:36.151Z</time></trkpt><trkpt lat="43.5676287" lon="11.322692"><ele>280.75</ele><time>2026-04-12T07:45:37.15Z</time></trkpt><trkpt lat="43.5674883" lon="11.3227049"><ele>282.5</ele><time>2026-04-12T07:45:38.149Z</time></trkpt><trkpt lat="43.5673471" lon="11.3226879"><ele>284.25</ele><time>2026-04-12T07:45:39.151Z</time></trkpt><trkpt lat="43.5672144" lon="11.3226249"><ele>286.0</ele><time>2026-04-12T07:45:40.15Z</time></trkpt><trkpt lat="43.567082" lon="11.3225362"><ele>284.66666666666663</ele><time>2026-04-12T07:45:41.151Z</time></trkpt><trkpt lat="43.5669409" lon="11.3224357"><ele>283.3333333333333</ele><time>2026-04-12T07:45:42.15Z</time></trkpt><trkpt lat="43.5667985" lon="11.3223693"><ele>282.0</ele><time>2026-04-12T07:45:43.15Z</time></trkpt><trkpt lat="43.5666538" lon="11.3223185"><ele>282.0</ele><time>2026-04-12T07:45:44.151Z</time></trkpt><trkpt lat="43.5665208" lon="11.3222846"><ele>282.0</ele><time>2026-04-12T07:45:45.149Z</time></trkpt><trkpt lat="43.5663954" lon="11.3222612"><ele>282.0</ele><time>2026-04-12T07:45:46.15Z</time></trkpt><trkpt lat="43.5662682" lon="11.3222674"><ele>282.0</ele><time>2026-04-12T07:45:47.15Z</time></trkpt><trkpt lat="43.5661505" lon="11.3222792"><ele>282.75</ele><time>2026-04-12T07:45:48.15Z</time></trkpt><trkpt lat="43.5660364" lon="11.3223121"><ele>283.5</ele><time>2026-04-12T07:45:49.149Z</time></trkpt><trkpt lat="43.5659216" lon="11.3223544"><ele>284.25</ele><time>2026-04-12T07:45:50.148Z</time></trkpt><trkpt lat="43.5658062" lon="11.3223898"><ele>285.0</ele><time>2026-04-12T07:45:51.15Z</time></trkpt><trkpt lat="43.5656845" lon="11.322423"><ele>285.0</ele><time>2026-04-12T07:45:52.15Z</time></trkpt><trkpt lat="43.5655562" lon="11.3224524"><ele>285.0</ele><time>2026-04-12T07:45:53.149Z</time></trkpt><trkpt lat="43.565427" lon="11.322471"><ele>285.0</ele><time>2026-04-12T07:45:54.149Z</time></trkpt><trkpt lat="43.5652991" lon="11.32248"><ele>285.0</ele><time>2026-04-12T07:45:55.15Z</time></trkpt><trkpt lat="43.565173" lon="11.3225023"><ele>287.5</ele><time>2026-04-12T07:45:56.149Z</time></trkpt><trkpt lat="43.5650449" lon="11.3225152"><ele>290.0</ele><time>2026-04-12T07:45:57.148Z</time></trkpt><trkpt lat="43.5649244" lon="11.3225244"><ele>292.5</ele><time>2026-04-12T07:45:58.15Z</time></trkpt><trkpt lat="43.5648066" lon="11.3225337"><ele>295.0</ele><time>2026-04-12T07:45:59.15Z</time></trkpt><trkpt lat="43.5646845" lon="11.3225507"><ele>295.0</ele><time>2026-04-12T07:46:00.15Z</time></trkpt><trkpt lat="43.5645569" lon="11.3225607"><ele>295.0</ele><time>2026-04-12T07:46:01.15Z</time></trkpt><trkpt lat="43.5644092" lon="11.3225753"><ele>295.0</ele><time>2026-04-12T07:46:02.149Z</time></trkpt><trkpt lat="43.5642658" lon="11.3225914"><ele>295.0</ele><time>2026-04-12T07:46:03.149Z</time></trkpt><trkpt lat="43.5641222" lon="11.3226072"><ele>298.66666666666663</ele><time>2026-04-12T07:46:04.15Z</time></trkpt><trkpt lat="43.5639711" lon="11.32262"><ele>302.3333333333333</ele><time>2026-04-12T07:46:05.151Z</time></trkpt><trkpt lat="43.5638117" lon="11.3226378"><ele>306.0</ele><time>2026-04-12T07:46:06.15Z</time></trkpt><trkpt lat="43.5636545" lon="11.3226475"><ele>309.0</ele><time>2026-04-12T07:46:07.15Z</time></trkpt><trkpt lat="43.563493" lon="11.3226537"><ele>312.0</ele><time>2026-04-12T07:46:08.15Z</time></trkpt><trkpt lat="43.5633533" lon="11.3226644"><ele>315.0</ele><time>2026-04-12T07:46:09.15Z</time></trkpt><trkpt lat="43.5632204" lon="11.3226743"><ele>318.0</ele><time>2026-04-12T07:46:10.15Z</time></trkpt><trkpt lat="43.5630836" lon="11.3226824"><ele>318.0</ele><time>2026-04-12T07:46:11.15Z</time></trkpt><trkpt lat="43.562944" lon="11.3226824"><ele>318.0</ele><time>2026-04-12T07:46:12.15Z</time></trkpt><trkpt lat="43.5628042" lon="11.3226819"><ele>318.0</ele><time>2026-04-12T07:46:13.151Z</time></trkpt><trkpt lat="43.5626772" lon="11.3226715"><ele>318.0</ele><time>2026-04-12T07:46:14.15Z</time></trkpt><trkpt lat="43.5625471" lon="11.3226553"><ele>320.0</ele><time>2026-04-12T07:46:15.15Z</time></trkpt><trkpt lat="43.5624191" lon="11.3226206"><ele>322.0</ele><time>2026-04-12T07:46:16.15Z</time></trkpt><trkpt lat="43.5622775" lon="11.3225848"><ele>324.0</ele><time>2026-04-12T07:46:17.151Z</time></trkpt><trkpt lat="43.5621298" lon="11.3225575"><ele>326.0</ele><time>2026-04-12T07:46:18.151Z</time></trkpt><trkpt lat="43.561971" lon="11.3225432"><ele>328.0</ele><time>2026-04-12T07:46:19.15Z</time></trkpt><trkpt lat="43.5618291" lon="11.3225272"><ele>330.0</ele><time>2026-04-12T07:46:20.15Z</time></trkpt><trkpt lat="43.5617227" lon="11.3224997"><ele>332.0</ele><time>2026-04-12T07:46:21.149Z</time></trkpt><trkpt lat="43.5616084" lon="11.3224509"><ele>334.0</ele><time>2026-04-12T07:46:22.15Z</time></trkpt><trkpt lat="43.5614794" lon="11.3223946"><ele>334.0</ele><time>2026-04-12T07:46:23.149Z</time></trkpt><trkpt lat="43.5613458" lon="11.322329"><ele>334.0</ele><time>2026-04-12T07:46:24.15Z</time></trkpt><trkpt lat="43.5612159" lon="11.3222615"><ele>334.0</ele><time>2026-04-12T07:46:25.151Z</time></trkpt><trkpt lat="43.5610976" lon="11.3222059"><ele>334.0</ele><time>2026-04-12T07:46:26.15Z</time></trkpt><trkpt lat="43.5609842" lon="11.3221537"><ele>334.2</ele><time>2026-04-12T07:46:27.149Z</time></trkpt><trkpt lat="43.5608749" lon="11.3221073"><ele>334.4</ele><time>2026-04-12T07:46:28.15Z</time></trkpt><trkpt lat="43.5607542" lon="11.3220694"><ele>334.6</ele><time>2026-04-12T07:46:29.15Z</time></trkpt><trkpt lat="43.5606515" lon="11.3220316"><ele>334.8</ele><time>2026-04-12T07:46:30.151Z</time></trkpt><trkpt lat="43.5605505" lon="11.3220099"><ele>335.0</ele><time>2026-04-12T07:46:31.149Z</time></trkpt><trkpt lat="43.5604618" lon="11.3219838"><ele>335.0</ele><time>2026-04-12T07:46:32.151Z</time></trkpt><trkpt lat="43.5603756" lon="11.321952"><ele>335.0</ele><time>2026-04-12T07:46:33.151Z</time></trkpt><trkpt lat="43.5602936" lon="11.321916"><ele>335.0</ele><time>2026-04-12T07:46:34.15Z</time></trkpt><trkpt lat="43.5602147" lon="11.3218817"><ele>335.0</ele><time>2026-04-12T07:46:35.15Z</time></trkpt><trkpt lat="43.5601416" lon="11.3218301"><ele>335.0</ele><time>2026-04-12T07:46:36.15Z</time></trkpt><trkpt lat="43.5600777" lon="11.3217775"><ele>335.0</ele><time>2026-04-12T07:46:37.15Z</time></trkpt><trkpt lat="43.5600142" lon="11.321728"><ele>336.33333333333337</ele><time>2026-04-12T07:46:38.15Z</time></trkpt><trkpt lat="43.5599456" lon="11.3216819"><ele>337.6666666666667</ele><time>2026-04-12T07:46:39.15Z</time></trkpt><trkpt lat="43.559875" lon="11.321651"><ele>339.0</ele><time>2026-04-12T07:46:40.151Z</time></trkpt><trkpt lat="43.559795" lon="11.3216316"><ele>340.3333333333333</ele><time>2026-04-12T07:46:41.149Z</time></trkpt><trkpt lat="43.5597135" lon="11.3216298"><ele>341.66666666666663</ele><time>2026-04-12T07:46:42.151Z</time></trkpt><trkpt lat="43.5596373" lon="11.3216353"><ele>343.0</ele><time>2026-04-12T07:46:43.15Z</time></trkpt><trkpt lat="43.5595482" lon="11.3216344"><ele>343.3333333333333</ele><time>2026-04-12T07:46:44.151Z</time></trkpt><trkpt lat="43.5594626" lon="11.3216347"><ele>343.66666666666663</ele><time>2026-04-12T07:46:45.15Z</time></trkpt><trkpt lat="43.5593804" lon="11.3216443"><ele>344.0</ele><time>2026-04-12T07:46:46.15Z</time></trkpt><trkpt lat="43.5592948" lon="11.321673"><ele>344.3333333333333</ele><time>2026-04-12T07:46:47.151Z</time></trkpt><trkpt lat="43.559214" lon="11.3217112"><ele>344.6666666666667</ele><time>2026-04-12T07:46:48.15Z</time></trkpt><trkpt lat="43.5591314" lon="11.3217502"><ele>345.0</ele><time>2026-04-12T07:46:49.15Z</time></trkpt><trkpt lat="43.5590434" lon="11.3217906"><ele>345.0</ele><time>2026-04-12T07:46:50.15Z</time></trkpt><trkpt lat="43.5589497" lon="11.3218217"><ele>345.0</ele><time>2026-04-12T07:46:51.15Z</time></trkpt><trkpt lat="43.5588468" lon="11.3218418"><ele>345.0</ele><time>2026-04-12T07:46:52.15Z</time></trkpt><trkpt lat="43.5587337" lon="11.321852"><ele>345.0</ele><time>2026-04-12T07:46:53.151Z</time></trkpt><trkpt lat="43.5586084" lon="11.3218626"><ele>345.0</ele><time>2026-04-12T07:46:54.15Z</time></trkpt><trkpt lat="43.5584817" lon="11.3218751"><ele>349.0</ele><time>2026-04-12T07:46:55.15Z</time></trkpt><trkpt lat="43.5583472" lon="11.3218925"><ele>353.0</ele><time>2026-04-12T07:46:56.149Z</time></trkpt><trkpt lat="43.5582227" lon="11.3219064"><ele>357.0</ele><time>2026-04-12T07:46:57.15Z</time></trkpt><trkpt lat="43.5581068" lon="11.3219187"><ele>361.0</ele><time>2026-04-12T07:46:58.149Z</time></trkpt><trkpt lat="43.5579941" lon="11.3219319"><ele>361.0</ele><time>2026-04-12T07:46:59.15Z</time></trkpt><trkpt lat="43.557883" lon="11.3219381"><ele>361.0</ele><time>2026-04-12T07:47:00.151Z</time></trkpt><trkpt lat="43.5577646" lon="11.3219426"><ele>361.0</ele><time>2026-04-12T07:47:01.15Z</time></trkpt><trkpt lat="43.5576391" lon="11.3219385"><ele>361.0</ele><time>2026-04-12T07:47:02.15Z</time></trkpt><trkpt lat="43.5575119" lon="11.3219234"><ele>362.5</ele><time>2026-04-12T07:47:03.149Z</time></trkpt><trkpt lat="43.557383" lon="11.3219081"><ele>364.0</ele><time>2026-04-12T07:47:04.152Z</time></trkpt><trkpt lat="43.5572519" lon="11.3218904"><ele>365.5</ele><time>2026-04-12T07:47:05.15Z</time></trkpt><trkpt lat="43.5571228" lon="11.3218765"><ele>367.0</ele><time>2026-04-12T07:47:06.149Z</time></trkpt><trkpt lat="43.5569949" lon="11.3218589"><ele>367.0</ele><time>2026-04-12T07:47:07.151Z</time></trkpt><trkpt lat="43.5568617" lon="11.3218421"><ele>367.0</ele><time>2026-04-12T07:47:08.15Z</time></trkpt><trkpt lat="43.5567158" lon="11.3218139"><ele>367.0</ele><time>2026-04-12T07:47:09.149Z</time></trkpt><trkpt lat="43.5565733" lon="11.3217925"><ele>367.0</ele><time>2026-04-12T07:47:10.151Z</time></trkpt><trkpt lat="43.556426" lon="11.3217625"><ele>367.0</ele><time>2026-04-12T07:47:11.151Z</time></trkpt><trkpt lat="43.5562866" lon="11.3217362"><ele>367.0</ele><time>2026-04-12T07:47:12.151Z</time></trkpt><trkpt lat="43.5561526" lon="11.3217268"><ele>367.0</ele><time>2026-04-12T07:47:13.151Z</time></trkpt><trkpt lat="43.5560419" lon="11.3217215"><ele>367.0</ele><time>2026-04-12T07:47:14.151Z</time></trkpt><trkpt lat="43.5559437" lon="11.321715"><ele>369.5</ele><time>2026-04-12T07:47:15.149Z</time></trkpt><trkpt lat="43.5558501" lon="11.3217195"><ele>372.0</ele><time>2026-04-12T07:47:16.15Z</time></trkpt><trkpt lat="43.555774" lon="11.3217389"><ele>374.5</ele><time>2026-04-12T07:47:17.151Z</time></trkpt><trkpt lat="43.5557038" lon="11.3217637"><ele>377.0</ele><time>2026-04-12T07:47:18.15Z</time></trkpt><trkpt lat="43.555644" lon="11.3218003"><ele>379.5</ele><time>2026-04-12T07:47:19.149Z</time></trkpt><trkpt lat="43.5555676" lon="11.3218871"><ele>382.0</ele><time>2026-04-12T07:47:21.15Z</time></trkpt><trkpt lat="43.5555297" lon="11.3220117"><ele>382.0</ele><time>2026-04-12T07:47:23.15Z</time></trkpt><trkpt lat="43.5554726" lon="11.3221795"><ele>382.0</ele><time>2026-04-12T07:47:25.151Z</time></trkpt><trkpt lat="43.5554346" lon="11.3222735"><ele>382.0</ele><time>2026-04-12T07:47:26.15Z</time></trkpt><trkpt lat="43.5553852" lon="11.3223486"><ele>382.0</ele><time>2026-04-12T07:47:27.15Z</time></trkpt><trkpt lat="43.5553322" lon="11.3224045"><ele>382.0</ele><time>2026-04-12T07:47:28.151Z</time></trkpt><trkpt lat="43.5552629" lon="11.3224435"><ele>382.0</ele><time>2026-04-12T07:47:29.151Z</time></trkpt><trkpt lat="43.5551788" lon="11.3224699"><ele>384.5</ele><time>2026-04-12T07:47:30.152Z</time></trkpt><trkpt lat="43.5550925" lon="11.3224768"><ele>387.0</ele><time>2026-04-12T07:47:31.15Z</time></trkpt><trkpt lat="43.5550039" lon="11.3224714"><ele>389.5</ele><time>2026-04-12T07:47:32.15Z</time></trkpt><trkpt lat="43.5549186" lon="11.3224603"><ele>392.0</ele><time>2026-04-12T07:47:33.15Z</time></trkpt><trkpt lat="43.5548465" lon="11.3224378"><ele>394.50000000000006</ele><time>2026-04-12T07:47:34.15Z</time></trkpt><trkpt lat="43.5547824" lon="11.3224018"><ele>397.0</ele><time>2026-04-12T07:47:35.15Z</time></trkpt><trkpt lat="43.5547062" lon="11.322342"><ele>397.0</ele><time>2026-04-12T07:47:36.15Z</time></trkpt><trkpt lat="43.5546207" lon="11.3222609"><ele>397.0</ele><time>2026-04-12T07:47:37.151Z</time></trkpt><trkpt lat="43.5545314" lon="11.3221694"><ele>397.0</ele><time>2026-04-12T07:47:38.15Z</time></trkpt><trkpt lat="43.5544493" lon="11.3220909"><ele>397.0</ele><time>2026-04-12T07:47:39.149Z</time></trkpt><trkpt lat="43.5543635" lon="11.3220329"><ele>397.0</ele><time>2026-04-12T07:47:40.15Z</time></trkpt><trkpt lat="43.5542652" lon="11.3220027"><ele>400.0</ele><time>2026-04-12T07:47:41.151Z</time></trkpt><trkpt lat="43.5541598" lon="11.3219951"><ele>403.0</ele><time>2026-04-12T07:47:42.15Z</time></trkpt><trkpt lat="43.5540524" lon="11.3220007"><ele>406.0</ele><time>2026-04-12T07:47:43.15Z</time></trkpt><trkpt lat="43.5539398" lon="11.32199"><ele>409.0</ele><time>2026-04-12T07:47:44.151Z</time></trkpt><trkpt lat="43.5538095" lon="11.3219828"><ele>410.0</ele><time>2026-04-12T07:47:45.15Z</time></trkpt><trkpt lat="43.5536874" lon="11.3219729"><ele>411.0</ele><time>2026-04-12T07:47:46.151Z</time></trkpt><trkpt lat="43.5535694" lon="11.3219651"><ele>412.0</ele><time>2026-04-12T07:47:47.151Z</time></trkpt><trkpt lat="43.5534624" lon="11.3219607"><ele>413.0</ele><time>2026-04-12T07:47:48.15Z</time></trkpt><trkpt lat="43.5533554" lon="11.3219493"><ele>413.0</ele><time>2026-04-12T07:47:49.149Z</time></trkpt><trkpt lat="43.5532461" lon="11.3219336"><ele>413.0</ele><time>2026-04-12T07:47:50.15Z</time></trkpt><trkpt lat="43.553127" lon="11.3219347"><ele>413.0</ele><time>2026-04-12T07:47:51.15Z</time></trkpt><trkpt lat="43.5530006" lon="11.3219453"><ele>413.0</ele><time>2026-04-12T07:47:52.149Z</time></trkpt><trkpt lat="43.5528599" lon="11.3219601"><ele>414.5</ele><time>2026-04-12T07:47:53.151Z</time></trkpt><trkpt lat="43.5527134" lon="11.3219757"><ele>416.0</ele><time>2026-04-12T07:47:54.15Z</time></trkpt><trkpt lat="43.5525724" lon="11.3219877"><ele>417.5</ele><time>2026-04-12T07:47:55.149Z</time></trkpt><trkpt lat="43.5524282" lon="11.3219913"><ele>419.0</ele><time>2026-04-12T07:47:56.152Z</time></trkpt><trkpt lat="43.5522808" lon="11.3219779"><ele>419.0</ele><time>2026-04-12T07:47:57.151Z</time></trkpt><trkpt lat="43.5521393" lon="11.3219432"><ele>419.0</ele><time>2026-04-12T07:47:58.151Z</time></trkpt><trkpt lat="43.552007" lon="11.3219069"><ele>419.0</ele><time>2026-04-12T07:47:59.151Z</time></trkpt><trkpt lat="43.5518842" lon="11.3218708"><ele>419.0</ele><time>2026-04-12T07:48:00.15Z</time></trkpt><trkpt lat="43.5517661" lon="11.321822"><ele>420.0</ele><time>2026-04-12T07:48:01.15Z</time></trkpt><trkpt lat="43.5516367" lon="11.3217548"><ele>421.0</ele><time>2026-04-12T07:48:02.15Z</time></trkpt><trkpt lat="43.5515215" lon="11.3216929"><ele>422.0</ele><time>2026-04-12T07:48:03.15Z</time></trkpt><trkpt lat="43.5514098" lon="11.3216303"><ele>423.0</ele><time>2026-04-12T07:48:04.152Z</time></trkpt><trkpt lat="43.5513058" lon="11.3215633"><ele>422.5</ele><time>2026-04-12T07:48:05.151Z</time></trkpt><trkpt lat="43.5512053" lon="11.3214975"><ele>422.0</ele><time>2026-04-12T07:48:06.15Z</time></trkpt><trkpt lat="43.5511026" lon="11.3214209"><ele>421.5</ele><time>2026-04-12T07:48:07.151Z</time></trkpt><trkpt lat="43.5509977" lon="11.3213488"><ele>421.0</ele><time>2026-04-12T07:48:08.15Z</time></trkpt><trkpt lat="43.5508988" lon="11.3212744"><ele>420.75</ele><time>2026-04-12T07:48:09.151Z</time></trkpt><trkpt lat="43.550798" lon="11.3212006"><ele>420.5</ele><time>2026-04-12T07:48:10.151Z</time></trkpt><trkpt lat="43.5506934" lon="11.3211186"><ele>420.25</ele><time>2026-04-12T07:48:11.15Z</time></trkpt><trkpt lat="43.5505907" lon="11.3210462"><ele>420.0</ele><time>2026-04-12T07:48:12.15Z</time></trkpt><trkpt lat="43.5504942" lon="11.320972"><ele>420.0</ele><time>2026-04-12T07:48:13.151Z</time></trkpt><trkpt lat="43.5504036" lon="11.3208973"><ele>420.0</ele><time>2026-04-12T07:48:14.15Z</time></trkpt><trkpt lat="43.550304" lon="11.3208268"><ele>420.0</ele><time>2026-04-12T07:48:15.151Z</time></trkpt><trkpt lat="43.5501987" lon="11.3207636"><ele>420.0</ele><time>2026-04-12T07:48:16.15Z</time></trkpt><trkpt lat="43.5500809" lon="11.3207035"><ele>420.25</ele><time>2026-04-12T07:48:17.151Z</time></trkpt><trkpt lat="43.5499473" lon="11.3206396"><ele>420.5</ele><time>2026-04-12T07:48:18.15Z</time></trkpt><trkpt lat="43.5498086" lon="11.3205765"><ele>420.75</ele><time>2026-04-12T07:48:19.151Z</time></trkpt><trkpt lat="43.5496642" lon="11.3205106"><ele>421.0</ele><time>2026-04-12T07:48:20.149Z</time></trkpt><trkpt lat="43.5495141" lon="11.3204447"><ele>423.25</ele><time>2026-04-12T07:48:21.151Z</time></trkpt><trkpt lat="43.5493663" lon="11.3203794"><ele>425.5</ele><time>2026-04-12T07:48:22.15Z</time></trkpt><trkpt lat="43.5492249" lon="11.3203195"><ele>427.75</ele><time>2026-04-12T07:48:23.149Z</time></trkpt><trkpt lat="43.5490955" lon="11.320264"><ele>430.0</ele><time>2026-04-12T07:48:24.15Z</time></trkpt><trkpt lat="43.5489819" lon="11.320213"><ele>430.0</ele><time>2026-04-12T07:48:25.15Z</time></trkpt><trkpt lat="43.5488725" lon="11.3201641"><ele>430.0</ele><time>2026-04-12T07:48:26.151Z</time></trkpt><trkpt lat="43.5487752" lon="11.3201479"><ele>430.0</ele><time>2026-04-12T07:48:27.152Z</time></trkpt><trkpt lat="43.5486743" lon="11.3201587"><ele>430.0</ele><time>2026-04-12T07:48:28.151Z</time></trkpt><trkpt lat="43.5485807" lon="11.3201788"><ele>430.0</ele><time>2026-04-12T07:48:29.15Z</time></trkpt><trkpt lat="43.5484892" lon="11.3202018"><ele>432.2</ele><time>2026-04-12T07:48:30.151Z</time></trkpt><trkpt lat="43.5483945" lon="11.3202265"><ele>434.4</ele><time>2026-04-12T07:48:31.15Z</time></trkpt><trkpt lat="43.5482838" lon="11.3202502"><ele>436.6</ele><time>2026-04-12T07:48:32.149Z</time></trkpt><trkpt lat="43.5481712" lon="11.3202684"><ele>438.8</ele><time>2026-04-12T07:48:33.149Z</time></trkpt><trkpt lat="43.548059" lon="11.3202731"><ele>441.0</ele><time>2026-04-12T07:48:34.151Z</time></trkpt><trkpt lat="43.547938" lon="11.3202909"><ele>443.6</ele><time>2026-04-12T07:48:35.15Z</time></trkpt><trkpt lat="43.5478331" lon="11.3203028"><ele>446.20000000000005</ele><time>2026-04-12T07:48:36.151Z</time></trkpt><trkpt lat="43.547749" lon="11.3203176"><ele>448.79999999999995</ele><time>2026-04-12T07:48:37.15Z</time></trkpt><trkpt lat="43.547657" lon="11.3203488"><ele>451.4</ele><time>2026-04-12T07:48:39.15Z</time></trkpt><trkpt lat="43.5475934" lon="11.3204688"><ele>454.0</ele><time>2026-04-12T07:48:43.151Z</time></trkpt><trkpt lat="43.5475623" lon="11.3205619"><ele>453.0</ele><time>2026-04-12T07:48:44.15Z</time></trkpt><trkpt lat="43.5475212" lon="11.3206724"><ele>452.0</ele><time>2026-04-12T07:48:45.15Z</time></trkpt><trkpt lat="43.5474415" lon="11.3207784"><ele>451.0</ele><time>2026-04-12T07:48:46.151Z</time></trkpt><trkpt lat="43.5473331" lon="11.3208535"><ele>450.0</ele><time>2026-04-12T07:48:47.151Z</time></trkpt><trkpt lat="43.5471965" lon="11.320893"><ele>450.0</ele><time>2026-04-12T07:48:48.152Z</time></trkpt><trkpt lat="43.5470494" lon="11.3209308"><ele>450.0</ele><time>2026-04-12T07:48:49.151Z</time></trkpt><trkpt lat="43.5468943" lon="11.3210062"><ele>450.0</ele><time>2026-04-12T07:48:50.151Z</time></trkpt><trkpt lat="43.546741" lon="11.3210787"><ele>452.33333333333337</ele><time>2026-04-12T07:48:51.15Z</time></trkpt><trkpt lat="43.546594" lon="11.3211483"><ele>454.6666666666667</ele><time>2026-04-12T07:48:52.149Z</time></trkpt><trkpt lat="43.5464246" lon="11.3211821"><ele>457.0</ele><time>2026-04-12T07:48:53.15Z</time></trkpt><trkpt lat="43.5462446" lon="11.3211902"><ele>456.6666666666667</ele><time>2026-04-12T07:48:54.151Z</time></trkpt><trkpt lat="43.5460583" lon="11.3211971"><ele>456.33333333333337</ele><time>2026-04-12T07:48:55.15Z</time></trkpt><trkpt lat="43.5458576" lon="11.3212039"><ele>456.0</ele><time>2026-04-12T07:48:56.149Z</time></trkpt><trkpt lat="43.5456661" lon="11.3212151"><ele>456.0</ele><time>2026-04-12T07:48:57.15Z</time></trkpt><trkpt lat="43.5454806" lon="11.3212255"><ele>456.0</ele><time>2026-04-12T07:48:58.151Z</time></trkpt><trkpt lat="43.5452977" lon="11.3212299"><ele>456.0</ele><time>2026-04-12T07:48:59.151Z</time></trkpt><trkpt lat="43.5451136" lon="11.3212396"><ele>454.66666666666663</ele><time>2026-04-12T07:49:00.15Z</time></trkpt><trkpt lat="43.5449357" lon="11.3212528"><ele>453.3333333333333</ele><time>2026-04-12T07:49:01.149Z</time></trkpt><trkpt lat="43.5447652" lon="11.3212627"><ele>452.0</ele><time>2026-04-12T07:49:02.152Z</time></trkpt><trkpt lat="43.5446042" lon="11.3212688"><ele>451.5</ele><time>2026-04-12T07:49:03.15Z</time></trkpt><trkpt lat="43.5444491" lon="11.3212735"><ele>451.0</ele><time>2026-04-12T07:49:04.149Z</time></trkpt><trkpt lat="43.5443124" lon="11.321298"><ele>450.5</ele><time>2026-04-12T07:49:05.152Z</time></trkpt><trkpt lat="43.5441966" lon="11.3213594"><ele>450.0</ele><time>2026-04-12T07:49:06.151Z</time></trkpt><trkpt lat="43.5441092" lon="11.3214681"><ele>447.0</ele><time>2026-04-12T07:49:07.151Z</time></trkpt><trkpt lat="43.544057" lon="11.3216126"><ele>444.0</ele><time>2026-04-12T07:49:08.151Z</time></trkpt><trkpt lat="43.5440442" lon="11.3217833"><ele>441.0</ele><time>2026-04-12T07:49:09.151Z</time></trkpt><trkpt lat="43.5440737" lon="11.3219646"><ele>438.0</ele><time>2026-04-12T07:49:10.152Z</time></trkpt><trkpt lat="43.5441326" lon="11.3221564"><ele>437.0</ele><time>2026-04-12T07:49:11.151Z</time></trkpt><trkpt lat="43.5442027" lon="11.3223503"><ele>436.0</ele><time>2026-04-12T07:49:12.15Z</time></trkpt><trkpt lat="43.5442804" lon="11.3225533"><ele>435.0</ele><time>2026-04-12T07:49:13.15Z</time></trkpt><trkpt lat="43.5443608" lon="11.3227638"><ele>435.0</ele><time>2026-04-12T07:49:14.15Z</time></trkpt><trkpt lat="43.5444374" lon="11.3229767"><ele>435.0</ele><time>2026-04-12T07:49:15.152Z</time></trkpt><trkpt lat="43.5445118" lon="11.3231884"><ele>435.0</ele><time>2026-04-12T07:49:16.15Z</time></trkpt><trkpt lat="43.5445614" lon="11.3234052"><ele>433.0</ele><time>2026-04-12T07:49:17.151Z</time></trkpt><trkpt lat="43.5445776" lon="11.3236203"><ele>431.0</ele><time>2026-04-12T07:49:18.15Z</time></trkpt><trkpt lat="43.5445573" lon="11.3238261"><ele>429.0</ele><time>2026-04-12T07:49:19.15Z</time></trkpt><trkpt lat="43.5445024" lon="11.324031"><ele>429.0</ele><time>2026-04-12T07:49:20.15Z</time></trkpt><trkpt lat="43.5444075" lon="11.324198"><ele>429.0</ele><time>2026-04-12T07:49:21.15Z</time></trkpt><trkpt lat="43.5443088" lon="11.3243467"><ele>429.0</ele><time>2026-04-12T07:49:22.151Z</time></trkpt><trkpt lat="43.5442216" lon="11.3245216"><ele>429.0</ele><time>2026-04-12T07:49:23.151Z</time></trkpt><trkpt lat="43.5441741" lon="11.3247262"><ele>429.0</ele><time>2026-04-12T07:49:24.152Z</time></trkpt><trkpt lat="43.5441535" lon="11.3249397"><ele>429.0</ele><time>2026-04-12T07:49:25.151Z</time></trkpt><trkpt lat="43.5441555" lon="11.3251753"><ele>426.66666666666663</ele><time>2026-04-12T07:49:26.151Z</time></trkpt><trkpt lat="43.5441696" lon="11.3254043"><ele>424.3333333333333</ele><time>2026-04-12T07:49:27.15Z</time></trkpt><trkpt lat="43.5441956" lon="11.3256411"><ele>422.0</ele><time>2026-04-12T07:49:28.151Z</time></trkpt><trkpt lat="43.5442367" lon="11.3258887"><ele>421.3333333333333</ele><time>2026-04-12T07:49:29.152Z</time></trkpt><trkpt lat="43.5442835" lon="11.3261357"><ele>420.66666666666663</ele><time>2026-04-12T07:49:30.15Z</time></trkpt><trkpt lat="43.5443086" lon="11.3263745"><ele>420.0</ele><time>2026-04-12T07:49:31.151Z</time></trkpt><trkpt lat="43.5443407" lon="11.3265875"><ele>421.0</ele><time>2026-04-12T07:49:32.151Z</time></trkpt><trkpt lat="43.5443824" lon="11.3267816"><ele>422.0</ele><time>2026-04-12T07:49:33.151Z</time></trkpt><trkpt lat="43.5444439" lon="11.3269432"><ele>423.0</ele><time>2026-04-12T07:49:34.151Z</time></trkpt><trkpt lat="43.5445271" lon="11.3270585"><ele>424.0</ele><time>2026-04-12T07:49:35.152Z</time></trkpt><trkpt lat="43.5446277" lon="11.3271273"><ele>422.1666666666667</ele><time>2026-04-12T07:49:36.151Z</time></trkpt><trkpt lat="43.5447303" lon="11.3271599"><ele>420.33333333333337</ele><time>2026-04-12T07:49:37.151Z</time></trkpt><trkpt lat="43.5448185" lon="11.3271788"><ele>418.5</ele><time>2026-04-12T07:49:38.152Z</time></trkpt><trkpt lat="43.5449027" lon="11.327198"><ele>416.66666666666663</ele><time>2026-04-12T07:49:39.151Z</time></trkpt><trkpt lat="43.544895" lon="11.3272992"><ele>414.8333333333333</ele><time>2026-04-12T07:49:48.15Z</time></trkpt><trkpt lat="43.5448954" lon="11.3273983"><ele>413.0</ele><time>2026-04-12T07:49:50.149Z</time></trkpt><trkpt lat="43.5448886" lon="11.3275457"><ele>413.0</ele><time>2026-04-12T07:49:52.15Z</time></trkpt><trkpt lat="43.5448608" lon="11.3276832"><ele>413.0</ele><time>2026-04-12T07:49:54.151Z</time></trkpt><trkpt lat="43.5447961" lon="11.3278241"><ele>413.0</ele><time>2026-04-12T07:49:56.15Z</time></trkpt><trkpt lat="43.5447637" lon="11.3279201"><ele>413.0</ele><time>2026-04-12T07:49:57.152Z</time></trkpt><trkpt lat="43.5447421" lon="11.328039"><ele>413.0</ele><time>2026-04-12T07:49:58.151Z</time></trkpt><trkpt lat="43.5447266" lon="11.3281629"><ele>411.4</ele><time>2026-04-12T07:49:59.15Z</time></trkpt><trkpt lat="43.5447082" lon="11.3282955"><ele>409.79999999999995</ele><time>2026-04-12T07:50:00.15Z</time></trkpt><trkpt lat="43.5447049" lon="11.3284238"><ele>408.2</ele><time>2026-04-12T07:50:01.152Z</time></trkpt><trkpt lat="43.5447189" lon="11.3285449"><ele>406.6</ele><time>2026-04-12T07:50:02.15Z</time></trkpt><trkpt lat="43.5447593" lon="11.3286771"><ele>405.0</ele><time>2026-04-12T07:50:03.151Z</time></trkpt><trkpt lat="43.5448259" lon="11.3287863"><ele>405.0</ele><time>2026-04-12T07:50:04.15Z</time></trkpt><trkpt lat="43.5449174" lon="11.3288816"><ele>405.0</ele><time>2026-04-12T07:50:05.15Z</time></trkpt><trkpt lat="43.5450158" lon="11.328957"><ele>405.0</ele><time>2026-04-12T07:50:06.152Z</time></trkpt><trkpt lat="43.5451068" lon="11.3290247"><ele>405.0</ele><time>2026-04-12T07:50:07.151Z</time></trkpt><trkpt lat="43.5451835" lon="11.3291109"><ele>405.0</ele><time>2026-04-12T07:50:08.151Z</time></trkpt><trkpt lat="43.5452364" lon="11.3292247"><ele>407.0</ele><time>2026-04-12T07:50:09.15Z</time></trkpt><trkpt lat="43.5452974" lon="11.3293615"><ele>409.0</ele><time>2026-04-12T07:50:10.151Z</time></trkpt><trkpt lat="43.54536" lon="11.3295242"><ele>411.0</ele><time>2026-04-12T07:50:11.149Z</time></trkpt><trkpt lat="43.5454259" lon="11.3296817"><ele>413.0</ele><time>2026-04-12T07:50:12.151Z</time></trkpt><trkpt lat="43.5454905" lon="11.3298243"><ele>409.2</ele><time>2026-04-12T07:50:13.151Z</time></trkpt><trkpt lat="43.5455411" lon="11.3299608"><ele>405.4</ele><time>2026-04-12T07:50:14.15Z</time></trkpt><trkpt lat="43.5455785" lon="11.3301033"><ele>401.59999999999997</ele><time>2026-04-12T07:50:15.15Z</time></trkpt><trkpt lat="43.5456148" lon="11.3302446"><ele>397.79999999999995</ele><time>2026-04-12T07:50:16.152Z</time></trkpt><trkpt lat="43.5456478" lon="11.3303683"><ele>394.0</ele><time>2026-04-12T07:50:17.151Z</time></trkpt><trkpt lat="43.5456768" lon="11.3304818"><ele>394.33333333333337</ele><time>2026-04-12T07:50:18.151Z</time></trkpt><trkpt lat="43.5457071" lon="11.3305778"><ele>394.6666666666667</ele><time>2026-04-12T07:50:19.15Z</time></trkpt><trkpt lat="43.5457331" lon="11.3306656"><ele>395.0</ele><time>2026-04-12T07:50:20.15Z</time></trkpt><trkpt lat="43.5457573" lon="11.3307623"><ele>395.33333333333337</ele><time>2026-04-12T07:50:21.152Z</time></trkpt><trkpt lat="43.5457773" lon="11.3308723"><ele>395.6666666666667</ele><time>2026-04-12T07:50:22.149Z</time></trkpt><trkpt lat="43.5457831" lon="11.3309895"><ele>396.0</ele><time>2026-04-12T07:50:23.15Z</time></trkpt><trkpt lat="43.5457593" lon="11.3311102"><ele>396.0</ele><time>2026-04-12T07:50:24.151Z</time></trkpt><trkpt lat="43.5457116" lon="11.3312358"><ele>396.0</ele><time>2026-04-12T07:50:25.151Z</time></trkpt><trkpt lat="43.5456495" lon="11.3313667"><ele>396.0</ele><time>2026-04-12T07:50:26.152Z</time></trkpt><trkpt lat="43.545573" lon="11.3314929"><ele>396.0</ele><time>2026-04-12T07:50:27.151Z</time></trkpt><trkpt lat="43.5454972" lon="11.3316262"><ele>394.75</ele><time>2026-04-12T07:50:28.152Z</time></trkpt><trkpt lat="43.5454188" lon="11.3317666"><ele>393.5</ele><time>2026-04-12T07:50:29.152Z</time></trkpt><trkpt lat="43.545341" lon="11.3319015"><ele>392.25</ele><time>2026-04-12T07:50:30.151Z</time></trkpt><trkpt lat="43.5452642" lon="11.3320287"><ele>391.0</ele><time>2026-04-12T07:50:31.15Z</time></trkpt><trkpt lat="43.5451881" lon="11.3321533"><ele>390.0</ele><time>2026-04-12T07:50:32.15Z</time></trkpt><trkpt lat="43.5451144" lon="11.3322699"><ele>389.0</ele><time>2026-04-12T07:50:33.151Z</time></trkpt><trkpt lat="43.5450402" lon="11.3323837"><ele>388.0</ele><time>2026-04-12T07:50:34.15Z</time></trkpt><trkpt lat="43.5449741" lon="11.3325003"><ele>387.0</ele><time>2026-04-12T07:50:35.15Z</time></trkpt><trkpt lat="43.5448988" lon="11.3326007"><ele>386.0</ele><time>2026-04-12T07:50:36.151Z</time></trkpt><trkpt lat="43.5448186" lon="11.3326955"><ele>386.0</ele><time>2026-04-12T07:50:37.151Z</time></trkpt><trkpt lat="43.5447374" lon="11.3327846"><ele>386.0</ele><time>2026-04-12T07:50:38.151Z</time></trkpt><trkpt lat="43.5446531" lon="11.3328707"><ele>386.0</ele><time>2026-04-12T07:50:39.149Z</time></trkpt><trkpt lat="43.5445777" lon="11.3329365"><ele>386.0</ele><time>2026-04-12T07:50:40.152Z</time></trkpt><trkpt lat="43.5445008" lon="11.3329939"><ele>386.0</ele><time>2026-04-12T07:50:41.152Z</time></trkpt><trkpt lat="43.5444356" lon="11.3330548"><ele>384.4</ele><time>2026-04-12T07:50:42.151Z</time></trkpt><trkpt lat="43.5443799" lon="11.3331272"><ele>382.8</ele><time>2026-04-12T07:50:43.151Z</time></trkpt><trkpt lat="43.5443319" lon="11.3332361"><ele>381.2</ele><time>2026-04-12T07:50:44.15Z</time></trkpt><trkpt lat="43.5442854" lon="11.3333777"><ele>379.59999999999997</ele><time>2026-04-12T07:50:45.152Z</time></trkpt><trkpt lat="43.5442416" lon="11.3335315"><ele>378.0</ele><time>2026-04-12T07:50:46.152Z</time></trkpt><trkpt lat="43.5442129" lon="11.3336765"><ele>378.0</ele><time>2026-04-12T07:50:47.15Z</time></trkpt><trkpt lat="43.5442102" lon="11.3338361"><ele>378.0</ele><time>2026-04-12T07:50:48.151Z</time></trkpt><trkpt lat="43.5442239" lon="11.3340097"><ele>378.0</ele><time>2026-04-12T07:50:49.149Z</time></trkpt><trkpt lat="43.544244" lon="11.3341913"><ele>378.0</ele><time>2026-04-12T07:50:50.149Z</time></trkpt><trkpt lat="43.5442516" lon="11.334349"><ele>377.8333333333333</ele><time>2026-04-12T07:50:51.152Z</time></trkpt><trkpt lat="43.5442488" lon="11.3344783"><ele>377.6666666666667</ele><time>2026-04-12T07:50:52.152Z</time></trkpt><trkpt lat="43.5442279" lon="11.3345847"><ele>377.5</ele><time>2026-04-12T07:50:53.151Z</time></trkpt><trkpt lat="43.5441877" lon="11.3346779"><ele>377.33333333333337</ele><time>2026-04-12T07:50:54.15Z</time></trkpt><trkpt lat="43.5441609" lon="11.33477"><ele>377.1666666666667</ele><time>2026-04-12T07:50:55.151Z</time></trkpt><trkpt lat="43.5441478" lon="11.3348647"><ele>377.0</ele><time>2026-04-12T07:50:56.152Z</time></trkpt><trkpt lat="43.5441673" lon="11.3349744"><ele>376.33333333333337</ele><time>2026-04-12T07:50:58.151Z</time></trkpt><trkpt lat="43.5442519" lon="11.3349979"><ele>375.6666666666667</ele><time>2026-04-12T07:51:00.15Z</time></trkpt><trkpt lat="43.5443742" lon="11.3349673"><ele>375.0</ele><time>2026-04-12T07:51:02.15Z</time></trkpt><trkpt lat="43.544445" lon="11.3349577"><ele>374.3333333333333</ele><time>2026-04-12T07:51:03.151Z</time></trkpt><trkpt lat="43.5445167" lon="11.3349638"><ele>373.66666666666663</ele><time>2026-04-12T07:51:04.151Z</time></trkpt><trkpt lat="43.5445947" lon="11.3349802"><ele>373.0</ele><time>2026-04-12T07:51:05.152Z</time></trkpt><trkpt lat="43.5446742" lon="11.3350094"><ele>373.0</ele><time>2026-04-12T07:51:06.151Z</time></trkpt><trkpt lat="43.5447468" lon="11.3350616"><ele>373.0</ele><time>2026-04-12T07:51:07.15Z</time></trkpt><trkpt lat="43.5448137" lon="11.3351414"><ele>373.0</ele><time>2026-04-12T07:51:08.151Z</time></trkpt><trkpt lat="43.5448697" lon="11.3352314"><ele>373.0</ele><time>2026-04-12T07:51:09.15Z</time></trkpt><trkpt lat="43.5449382" lon="11.3353028"><ele>373.0</ele><time>2026-04-12T07:51:10.152Z</time></trkpt><trkpt lat="43.5450034" lon="11.3353446"><ele>373.0</ele><time>2026-04-12T07:51:11.151Z</time></trkpt><trkpt lat="43.5450774" lon="11.3353548"><ele>373.0</ele><time>2026-04-12T07:51:12.151Z</time></trkpt><trkpt lat="43.5451493" lon="11.3353675"><ele>373.0</ele><time>2026-04-12T07:51:13.152Z</time></trkpt><trkpt lat="43.5452297" lon="11.3353951"><ele>373.0</ele><time>2026-04-12T07:51:14.152Z</time></trkpt><trkpt lat="43.545315" lon="11.3354579"><ele>373.0</ele><time>2026-04-12T07:51:15.151Z</time></trkpt><trkpt lat="43.5454037" lon="11.3355373"><ele>373.0</ele><time>2026-04-12T07:51:16.151Z</time></trkpt><trkpt lat="43.545501" lon="11.3356209"><ele>375.2</ele><time>2026-04-12T07:51:17.151Z</time></trkpt><trkpt lat="43.5455925" lon="11.3357023"><ele>377.4</ele><time>2026-04-12T07:51:18.15Z</time></trkpt><trkpt lat="43.5456479" lon="11.3358311"><ele>379.59999999999997</ele><time>2026-04-12T07:51:20.152Z</time></trkpt><trkpt lat="43.5456775" lon="11.3359341"><ele>381.79999999999995</ele><time>2026-04-12T07:51:21.152Z</time></trkpt><trkpt lat="43.5457104" lon="11.3360537"><ele>384.0</ele><time>2026-04-12T07:51:22.151Z</time></trkpt><trkpt lat="43.5457514" lon="11.3361739"><ele>384.0</ele><time>2026-04-12T07:51:23.151Z</time></trkpt><trkpt lat="43.545789" lon="11.3362951"><ele>384.0</ele><time>2026-04-12T07:51:24.151Z</time></trkpt><trkpt lat="43.5458255" lon="11.3364059"><ele>384.0</ele><time>2026-04-12T07:51:25.152Z</time></trkpt><trkpt lat="43.5458531" lon="11.3365174"><ele>384.0</ele><time>2026-04-12T07:51:26.151Z</time></trkpt><trkpt lat="43.5458666" lon="11.3366244"><ele>384.0</ele><time>2026-04-12T07:51:27.151Z</time></trkpt><trkpt lat="43.5458918" lon="11.3367168"><ele>384.0</ele><time>2026-04-12T07:51:28.151Z</time></trkpt><trkpt lat="43.5459297" lon="11.3367895"><ele>385.2857142857143</ele><time>2026-04-12T07:51:29.151Z</time></trkpt><trkpt lat="43.5459891" lon="11.3368343"><ele>386.57142857142856</ele><time>2026-04-12T07:51:30.151Z</time></trkpt><trkpt lat="43.5460532" lon="11.3368488"><ele>387.8571428571429</ele><time>2026-04-12T07:51:31.151Z</time></trkpt><trkpt lat="43.546126" lon="11.3368435"><ele>389.1428571428571</ele><time>2026-04-12T07:51:32.15Z</time></trkpt><trkpt lat="43.5462071" lon="11.3368406"><ele>390.42857142857144</ele><time>2026-04-12T07:51:33.151Z</time></trkpt><trkpt lat="43.546282" lon="11.3368427"><ele>391.7142857142857</ele><time>2026-04-12T07:51:34.151Z</time></trkpt><trkpt lat="43.5463626" lon="11.3368626"><ele>393.0</ele><time>2026-04-12T07:51:35.151Z</time></trkpt><trkpt lat="43.5464438" lon="11.3369153"><ele>393.0</ele><time>2026-04-12T07:51:36.152Z</time></trkpt><trkpt lat="43.5465264" lon="11.3369949"><ele>393.0</ele><time>2026-04-12T07:51:37.151Z</time></trkpt><trkpt lat="43.5465986" lon="11.3370932"><ele>393.0</ele><time>2026-04-12T07:51:38.151Z</time></trkpt><trkpt lat="43.5466812" lon="11.3371997"><ele>393.0</ele><time>2026-04-12T07:51:39.151Z</time></trkpt><trkpt lat="43.5467745" lon="11.3373023"><ele>393.0</ele><time>2026-04-12T07:51:40.152Z</time></trkpt><trkpt lat="43.5468555" lon="11.3373981"><ele>394.6666666666667</ele><time>2026-04-12T07:51:41.151Z</time></trkpt><trkpt lat="43.5469278" lon="11.3374827"><ele>396.33333333333337</ele><time>2026-04-12T07:51:42.152Z</time></trkpt><trkpt lat="43.5469758" lon="11.3375721"><ele>398.0</ele><time>2026-04-12T07:51:43.152Z</time></trkpt><trkpt lat="43.5470126" lon="11.3376833"><ele>399.6666666666667</ele><time>2026-04-12T07:51:44.152Z</time></trkpt><trkpt lat="43.547035" lon="11.3377982"><ele>401.33333333333337</ele><time>2026-04-12T07:51:45.152Z</time></trkpt><trkpt lat="43.5470594" lon="11.337904"><ele>403.0</ele><time>2026-04-12T07:51:46.152Z</time></trkpt><trkpt lat="43.547137" lon="11.3380132"><ele>403.00000000000006</ele><time>2026-04-12T07:51:48.151Z</time></trkpt><trkpt lat="43.5472539" lon="11.3379926"><ele>403.0</ele><time>2026-04-12T07:51:50.151Z</time></trkpt><trkpt lat="43.5473268" lon="11.337951"><ele>403.0</ele><time>2026-04-12T07:51:51.15Z</time></trkpt><trkpt lat="43.5474135" lon="11.3379231"><ele>403.0</ele><time>2026-04-12T07:51:52.152Z</time></trkpt><trkpt lat="43.547492" lon="11.337927"><ele>403.00000000000006</ele><time>2026-04-12T07:51:53.151Z</time></trkpt><trkpt lat="43.5475606" lon="11.3379709"><ele>403.0</ele><time>2026-04-12T07:51:54.15Z</time></trkpt><trkpt lat="43.5476238" lon="11.3380602"><ele>406.2</ele><time>2026-04-12T07:51:55.153Z</time></trkpt><trkpt lat="43.5476823" lon="11.3381733"><ele>409.4</ele><time>2026-04-12T07:51:56.15Z</time></trkpt><trkpt lat="43.5477457" lon="11.3382812"><ele>412.59999999999997</ele><time>2026-04-12T07:51:57.15Z</time></trkpt><trkpt lat="43.5478235" lon="11.3383529"><ele>415.79999999999995</ele><time>2026-04-12T07:51:58.152Z</time></trkpt><trkpt lat="43.547918" lon="11.3383886"><ele>419.0</ele><time>2026-04-12T07:51:59.151Z</time></trkpt><trkpt lat="43.5480165" lon="11.3383806"><ele>419.4</ele><time>2026-04-12T07:52:00.151Z</time></trkpt><trkpt lat="43.5480976" lon="11.3383404"><ele>419.79999999999995</ele><time>2026-04-12T07:52:01.15Z</time></trkpt><trkpt lat="43.5481923" lon="11.3382777"><ele>420.20000000000005</ele><time>2026-04-12T07:52:02.152Z</time></trkpt><trkpt lat="43.5482904" lon="11.3382108"><ele>420.6</ele><time>2026-04-12T07:52:03.15Z</time></trkpt><trkpt lat="43.5484017" lon="11.3381526"><ele>421.0</ele><time>2026-04-12T07:52:04.151Z</time></trkpt><trkpt lat="43.5485289" lon="11.3380999"><ele>421.0</ele><time>2026-04-12T07:52:05.15Z</time></trkpt><trkpt lat="43.5486596" lon="11.3380737"><ele>421.0</ele><time>2026-04-12T07:52:06.151Z</time></trkpt><trkpt lat="43.5487975" lon="11.338076"><ele>421.0</ele><time>2026-04-12T07:52:07.151Z</time></trkpt><trkpt lat="43.5489495" lon="11.3380962"><ele>421.0</ele><time>2026-04-12T07:52:08.15Z</time></trkpt><trkpt lat="43.5491091" lon="11.3381197"><ele>420.75</ele><time>2026-04-12T07:52:09.151Z</time></trkpt><trkpt lat="43.5492725" lon="11.3381273"><ele>420.5</ele><time>2026-04-12T07:52:10.151Z</time></trkpt><trkpt lat="43.5494235" lon="11.3381165"><ele>420.25</ele><time>2026-04-12T07:52:11.151Z</time></trkpt><trkpt lat="43.5495566" lon="11.338093"><ele>420.0</ele><time>2026-04-12T07:52:12.15Z</time></trkpt><trkpt lat="43.5496675" lon="11.3380807"><ele>420.0</ele><time>2026-04-12T07:52:13.151Z</time></trkpt><trkpt lat="43.5497685" lon="11.3380871"><ele>420.0</ele><time>2026-04-12T07:52:14.152Z</time></trkpt><trkpt lat="43.549855" lon="11.3381175"><ele>420.0</ele><time>2026-04-12T07:52:15.151Z</time></trkpt><trkpt lat="43.5499162" lon="11.3381854"><ele>420.0</ele><time>2026-04-12T07:52:16.151Z</time></trkpt><trkpt lat="43.5499416" lon="11.3382651"><ele>420.0</ele><time>2026-04-12T07:52:17.151Z</time></trkpt><trkpt lat="43.5499184" lon="11.3383911"><ele>420.0</ele><time>2026-04-12T07:52:19.151Z</time></trkpt><trkpt lat="43.5498168" lon="11.3384675"><ele>420.0</ele><time>2026-04-12T07:52:21.152Z</time></trkpt><trkpt lat="43.5497612" lon="11.3385175"><ele>420.0</ele><time>2026-04-12T07:52:22.151Z</time></trkpt><trkpt lat="43.5497048" lon="11.3385773"><ele>420.0</ele><time>2026-04-12T07:52:23.151Z</time></trkpt><trkpt lat="43.5496447" lon="11.3386247"><ele>420.0</ele><time>2026-04-12T07:52:24.151Z</time></trkpt><trkpt lat="43.5495537" lon="11.3387043"><ele>420.0</ele><time>2026-04-12T07:52:26.15Z</time></trkpt><trkpt lat="43.5494915" lon="11.3387596"><ele>420.0</ele><time>2026-04-12T07:52:29.15Z</time></trkpt><trkpt lat="43.5494244" lon="11.338839"><ele>421.0</ele><time>2026-04-12T07:52:46.152Z</time></trkpt><trkpt lat="43.5493703" lon="11.3388837"><ele>422.0</ele><time>2026-04-12T07:52:47.151Z</time></trkpt><trkpt lat="43.5493102" lon="11.3389247"><ele>423.0</ele><time>2026-04-12T07:52:48.151Z</time></trkpt><trkpt lat="43.5492394" lon="11.3389785"><ele>424.0</ele><time>2026-04-12T07:52:49.151Z</time></trkpt><trkpt lat="43.549163" lon="11.3390376"><ele>425.0</ele><time>2026-04-12T07:52:50.152Z</time></trkpt><trkpt lat="43.5490718" lon="11.3391143"><ele>426.0</ele><time>2026-04-12T07:52:51.15Z</time></trkpt><trkpt lat="43.5489895" lon="11.3391849"><ele>428.0</ele><time>2026-04-12T07:52:52.151Z</time></trkpt><trkpt lat="43.5489047" lon="11.339252"><ele>430.0</ele><time>2026-04-12T07:52:53.151Z</time></trkpt><trkpt lat="43.5488186" lon="11.3393135"><ele>432.0</ele><time>2026-04-12T07:52:54.15Z</time></trkpt><trkpt lat="43.5487292" lon="11.3393628"><ele>434.0</ele><time>2026-04-12T07:52:55.152Z</time></trkpt><trkpt lat="43.5486426" lon="11.3393961"><ele>436.0</ele><time>2026-04-12T07:52:56.152Z</time></trkpt><trkpt lat="43.5485529" lon="11.3394068"><ele>436.33333333333337</ele><time>2026-04-12T07:52:57.151Z</time></trkpt><trkpt lat="43.5484708" lon="11.3394071"><ele>436.6666666666667</ele><time>2026-04-12T07:52:58.152Z</time></trkpt><trkpt lat="43.548382" lon="11.3394152"><ele>437.0</ele><time>2026-04-12T07:52:59.151Z</time></trkpt><trkpt lat="43.5483066" lon="11.3394382"><ele>437.33333333333337</ele><time>2026-04-12T07:53:00.151Z</time></trkpt><trkpt lat="43.5482332" lon="11.3394829"><ele>437.6666666666667</ele><time>2026-04-12T07:53:01.152Z</time></trkpt><trkpt lat="43.5481617" lon="11.339548"><ele>438.0</ele><time>2026-04-12T07:53:02.151Z</time></trkpt><trkpt lat="43.5480843" lon="11.339622"><ele>438.0</ele><time>2026-04-12T07:53:03.15Z</time></trkpt><trkpt lat="43.5480087" lon="11.3397043"><ele>438.0</ele><time>2026-04-12T07:53:04.151Z</time></trkpt><trkpt lat="43.5479444" lon="11.3397889"><ele>438.0</ele><time>2026-04-12T07:53:05.153Z</time></trkpt><trkpt lat="43.5478843" lon="11.339868"><ele>438.0</ele><time>2026-04-12T07:53:06.151Z</time></trkpt><trkpt lat="43.547824" lon="11.3399469"><ele>438.0</ele><time>2026-04-12T07:53:07.153Z</time></trkpt><trkpt lat="43.5477526" lon="11.3399949"><ele>438.0</ele><time>2026-04-12T07:53:08.151Z</time></trkpt><trkpt lat="43.5476873" lon="11.3400315"><ele>441.5</ele><time>2026-04-12T07:53:09.151Z</time></trkpt><trkpt lat="43.5476194" lon="11.3400514"><ele>445.0</ele><time>2026-04-12T07:53:10.151Z</time></trkpt><trkpt lat="43.5475324" lon="11.3400324"><ele>448.5</ele><time>2026-04-12T07:53:11.151Z</time></trkpt><trkpt lat="43.5474496" lon="11.3400037"><ele>452.0</ele><time>2026-04-12T07:53:12.151Z</time></trkpt><trkpt lat="43.5473699" lon="11.3399505"><ele>455.5</ele><time>2026-04-12T07:53:13.151Z</time></trkpt><trkpt lat="43.5472911" lon="11.3398752"><ele>459.0</ele><time>2026-04-12T07:53:14.151Z</time></trkpt><trkpt lat="43.5472111" lon="11.3397846"><ele>459.0</ele><time>2026-04-12T07:53:15.151Z</time></trkpt><trkpt lat="43.5471458" lon="11.3397172"><ele>459.0</ele><time>2026-04-12T07:53:16.151Z</time></trkpt><trkpt lat="43.5470769" lon="11.3396663"><ele>459.0</ele><time>2026-04-12T07:53:17.151Z</time></trkpt><trkpt lat="43.5470081" lon="11.3396408"><ele>459.0</ele><time>2026-04-12T07:53:18.151Z</time></trkpt><trkpt lat="43.5469407" lon="11.3396486"><ele>459.0</ele><time>2026-04-12T07:53:19.151Z</time></trkpt><trkpt lat="43.5468564" lon="11.3396815"><ele>459.0</ele><time>2026-04-12T07:53:20.151Z</time></trkpt><trkpt lat="43.5467713" lon="11.3397268"><ele>461.0</ele><time>2026-04-12T07:53:21.151Z</time></trkpt><trkpt lat="43.5466793" lon="11.3397537"><ele>463.0</ele><time>2026-04-12T07:53:22.152Z</time></trkpt><trkpt lat="43.5465741" lon="11.3397702"><ele>465.0</ele><time>2026-04-12T07:53:23.153Z</time></trkpt><trkpt lat="43.546466" lon="11.3397711"><ele>467.0</ele><time>2026-04-12T07:53:24.151Z</time></trkpt><trkpt lat="43.5463683" lon="11.3397604"><ele>469.0</ele><time>2026-04-12T07:53:25.152Z</time></trkpt><trkpt lat="43.5462897" lon="11.339727"><ele>466.83333333333337</ele><time>2026-04-12T07:53:26.151Z</time></trkpt><trkpt lat="43.5462288" lon="11.3396567"><ele>464.6666666666667</ele><time>2026-04-12T07:53:27.152Z</time></trkpt><trkpt lat="43.5461832" lon="11.3395759"><ele>462.5</ele><time>2026-04-12T07:53:28.152Z</time></trkpt><trkpt lat="43.5461249" lon="11.3395004"><ele>460.33333333333337</ele><time>2026-04-12T07:53:29.152Z</time></trkpt><trkpt lat="43.5460486" lon="11.3394278"><ele>458.1666666666667</ele><time>2026-04-12T07:53:30.151Z</time></trkpt><trkpt lat="43.5459803" lon="11.3393595"><ele>456.0</ele><time>2026-04-12T07:53:31.151Z</time></trkpt><trkpt lat="43.54592" lon="11.3392862"><ele>456.0</ele><time>2026-04-12T07:53:32.151Z</time></trkpt><trkpt lat="43.5458587" lon="11.3392304"><ele>456.0</ele><time>2026-04-12T07:53:33.151Z</time></trkpt><trkpt lat="43.545795" lon="11.3392022"><ele>456.0</ele><time>2026-04-12T07:53:34.151Z</time></trkpt><trkpt lat="43.5457217" lon="11.3391978"><ele>456.0</ele><time>2026-04-12T07:53:35.15Z</time></trkpt><trkpt lat="43.5456467" lon="11.3392189"><ele>456.0</ele><time>2026-04-12T07:53:36.152Z</time></trkpt><trkpt lat="43.5455843" lon="11.3392545"><ele>456.0</ele><time>2026-04-12T07:53:37.151Z</time></trkpt><trkpt lat="43.5454873" lon="11.3392613"><ele>456.0</ele><time>2026-04-12T07:53:39.151Z</time></trkpt><trkpt lat="43.5454511" lon="11.3391317"><ele>456.0</ele><time>2026-04-12T07:53:41.152Z</time></trkpt><trkpt lat="43.5454457" lon="11.3390135"><ele>456.0</ele><time>2026-04-12T07:53:42.151Z</time></trkpt><trkpt lat="43.5454282" lon="11.3388929"><ele>456.0</ele><time>2026-04-12T07:53:43.151Z</time></trkpt><trkpt lat="43.5453961" lon="11.3387951"><ele>456.0</ele><time>2026-04-12T07:53:44.151Z</time></trkpt><trkpt lat="43.5453483" lon="11.33871"><ele>456.0</ele><time>2026-04-12T07:53:45.152Z</time></trkpt><trkpt lat="43.5452839" lon="11.3386554"><ele>457.0</ele><time>2026-04-12T07:53:46.151Z</time></trkpt><trkpt lat="43.5452041" lon="11.3386185"><ele>458.0</ele><time>2026-04-12T07:56:51.152Z</time></trkpt><trkpt lat="43.5451349" lon="11.3386269"><ele>459.0</ele><time>2026-04-12T07:56:53.151Z</time></trkpt><trkpt lat="43.5450115" lon="11.338625"><ele>460.0</ele><time>2026-04-12T07:56:55.153Z</time></trkpt><trkpt lat="43.5449449" lon="11.3386093"><ele>461.0</ele><time>2026-04-12T07:56:56.152Z</time></trkpt><trkpt lat="43.5448799" lon="11.3385948"><ele>462.0</ele><time>2026-04-12T07:56:57.152Z</time></trkpt><trkpt lat="43.5447524" lon="11.3386248"><ele>462.0</ele><time>2026-04-12T07:56:59.152Z</time></trkpt><trkpt lat="43.5446706" lon="11.3386734"><ele>462.0</ele><time>2026-04-12T07:57:00.151Z</time></trkpt><trkpt lat="43.5445912" lon="11.3387269"><ele>462.0</ele><time>2026-04-12T07:57:01.151Z</time></trkpt><trkpt lat="43.5445167" lon="11.3387799"><ele>462.0</ele><time>2026-04-12T07:57:02.152Z</time></trkpt><trkpt lat="43.5444341" lon="11.3388256"><ele>462.0</ele><time>2026-04-12T07:57:03.152Z</time></trkpt><trkpt lat="43.5443591" lon="11.3388629"><ele>462.0</ele><time>2026-04-12T07:57:04.152Z</time></trkpt><trkpt lat="43.544222" lon="11.3388355"><ele>463.6</ele><time>2026-04-12T07:57:06.152Z</time></trkpt><trkpt lat="43.5441064" lon="11.3388021"><ele>465.20000000000005</ele><time>2026-04-12T07:57:08.152Z</time></trkpt><trkpt lat="43.5440196" lon="11.3387826"><ele>466.8</ele><time>2026-04-12T07:57:09.153Z</time></trkpt><trkpt lat="43.5439284" lon="11.3387511"><ele>468.4</ele><time>2026-04-12T07:57:10.151Z</time></trkpt><trkpt lat="43.5438485" lon="11.3387362"><ele>470.0</ele><time>2026-04-12T07:57:11.151Z</time></trkpt><trkpt lat="43.5437733" lon="11.338713"><ele>472.8</ele><time>2026-04-12T07:57:12.152Z</time></trkpt><trkpt lat="43.5436873" lon="11.3386761"><ele>475.6</ele><time>2026-04-12T07:57:13.152Z</time></trkpt><trkpt lat="43.5436052" lon="11.3386268"><ele>478.4</ele><time>2026-04-12T07:57:14.152Z</time></trkpt><trkpt lat="43.5435216" lon="11.3385724"><ele>481.2</ele><time>2026-04-12T07:57:15.152Z</time></trkpt><trkpt lat="43.5434282" lon="11.3385174"><ele>484.0</ele><time>2026-04-12T07:57:16.151Z</time></trkpt><trkpt lat="43.5433547" lon="11.3384845"><ele>484.00000000000006</ele><time>2026-04-12T07:57:17.152Z</time></trkpt><trkpt lat="43.5432804" lon="11.338473"><ele>484.0</ele><time>2026-04-12T07:57:18.153Z</time></trkpt><trkpt lat="43.5432014" lon="11.3384519"><ele>484.0</ele><time>2026-04-12T07:57:19.152Z</time></trkpt><trkpt lat="43.5431123" lon="11.3384102"><ele>484.0</ele><time>2026-04-12T07:57:20.153Z</time></trkpt><trkpt lat="43.543026" lon="11.3383629"><ele>484.00000000000006</ele><time>2026-04-12T07:57:21.152Z</time></trkpt><trkpt lat="43.5429374" lon="11.3383211"><ele>484.0</ele><time>2026-04-12T07:57:22.152Z</time></trkpt><trkpt lat="43.5428555" lon="11.3383015"><ele>484.2</ele><time>2026-04-12T07:57:23.152Z</time></trkpt><trkpt lat="43.5427735" lon="11.3383085"><ele>484.4</ele><time>2026-04-12T07:57:24.152Z</time></trkpt><trkpt lat="43.5426874" lon="11.3383438"><ele>484.6</ele><time>2026-04-12T07:57:25.152Z</time></trkpt><trkpt lat="43.5425889" lon="11.3383985"><ele>484.8</ele><time>2026-04-12T07:57:26.151Z</time></trkpt><trkpt lat="43.5424956" lon="11.3384619"><ele>485.0</ele><time>2026-04-12T07:57:27.152Z</time></trkpt><trkpt lat="43.5424134" lon="11.33853"><ele>484.99999999999994</ele><time>2026-04-12T07:57:28.153Z</time></trkpt><trkpt lat="43.5423427" lon="11.3385992"><ele>485.0</ele><time>2026-04-12T07:57:29.152Z</time></trkpt><trkpt lat="43.5422802" lon="11.338655"><ele>485.0</ele><time>2026-04-12T07:57:30.152Z</time></trkpt><trkpt lat="43.5422122" lon="11.3386788"><ele>485.0</ele><time>2026-04-12T07:57:32.151Z</time></trkpt><trkpt lat="43.5421639" lon="11.3385949"><ele>484.99999999999994</ele><time>2026-04-12T07:57:35.152Z</time></trkpt><trkpt lat="43.5421595" lon="11.3384721"><ele>485.0</ele><time>2026-04-12T07:57:38.151Z</time></trkpt><trkpt lat="43.5421542" lon="11.3383524"><ele>485.0</ele><time>2026-04-12T07:57:40.154Z</time></trkpt><trkpt lat="43.5421099" lon="11.3381953"><ele>485.0</ele><time>2026-04-12T07:57:42.153Z</time></trkpt><trkpt lat="43.5420561" lon="11.3380647"><ele>485.0</ele><time>2026-04-12T07:57:44.152Z</time></trkpt><trkpt lat="43.5419897" lon="11.3379774"><ele>485.0</ele><time>2026-04-12T07:57:46.153Z</time></trkpt><trkpt lat="43.5418658" lon="11.337965"><ele>485.0</ele><time>2026-04-12T07:57:48.152Z</time></trkpt><trkpt lat="43.5417905" lon="11.3379963"><ele>487.0</ele><time>2026-04-12T07:57:49.152Z</time></trkpt><trkpt lat="43.5417133" lon="11.3380515"><ele>489.0</ele><time>2026-04-12T07:57:50.152Z</time></trkpt><trkpt lat="43.5416277" lon="11.3381263"><ele>491.0</ele><time>2026-04-12T07:57:51.151Z</time></trkpt><trkpt lat="43.5415376" lon="11.3382063"><ele>493.0</ele><time>2026-04-12T07:57:52.152Z</time></trkpt><trkpt lat="43.5414542" lon="11.3382675"><ele>495.0</ele><time>2026-04-12T07:57:53.153Z</time></trkpt><trkpt lat="43.5413844" lon="11.3383033"><ele>495.0</ele><time>2026-04-12T07:57:54.152Z</time></trkpt><trkpt lat="43.5412873" lon="11.3382758"><ele>495.0</ele><time>2026-04-12T07:57:56.152Z</time></trkpt><trkpt lat="43.5412429" lon="11.3381294"><ele>495.0</ele><time>2026-04-12T07:57:58.151Z</time></trkpt><trkpt lat="43.5412245" lon="11.3380198"><ele>495.0</ele><time>2026-04-12T07:57:59.153Z</time></trkpt><trkpt lat="43.5411872" lon="11.3379037"><ele>495.0</ele><time>2026-04-12T07:58:00.152Z</time></trkpt><trkpt lat="43.5411277" lon="11.3377933"><ele>494.5</ele><time>2026-04-12T07:58:01.154Z</time></trkpt><trkpt lat="43.5410755" lon="11.3376887"><ele>494.0</ele><time>2026-04-12T07:58:02.153Z</time></trkpt><trkpt lat="43.5410328" lon="11.3376027"><ele>493.5</ele><time>2026-04-12T07:58:03.151Z</time></trkpt><trkpt lat="43.5409877" lon="11.3375386"><ele>493.0</ele><time>2026-04-12T07:58:04.153Z</time></trkpt><trkpt lat="43.5409223" lon="11.3375097"><ele>492.5</ele><time>2026-04-12T07:58:05.152Z</time></trkpt><trkpt lat="43.5408414" lon="11.3374957"><ele>492.0</ele><time>2026-04-12T07:58:06.152Z</time></trkpt><trkpt lat="43.5407464" lon="11.3374777"><ele>492.0</ele><time>2026-04-12T07:58:07.153Z</time></trkpt><trkpt lat="43.5406454" lon="11.3374546"><ele>492.00000000000006</ele><time>2026-04-12T07:58:08.152Z</time></trkpt><trkpt lat="43.5405467" lon="11.3374278"><ele>492.00000000000006</ele><time>2026-04-12T07:58:09.153Z</time></trkpt><trkpt lat="43.5404377" lon="11.3373769"><ele>492.0</ele><time>2026-04-12T07:58:10.153Z</time></trkpt><trkpt lat="43.5403472" lon="11.3373199"><ele>492.0</ele><time>2026-04-12T07:58:11.152Z</time></trkpt><trkpt lat="43.5402665" lon="11.337281"><ele>491.6</ele><time>2026-04-12T07:58:12.151Z</time></trkpt><trkpt lat="43.540174" lon="11.3372661"><ele>491.20000000000005</ele><time>2026-04-12T07:58:13.152Z</time></trkpt><trkpt lat="43.5401001" lon="11.3372683"><ele>490.8</ele><time>2026-04-12T07:58:14.152Z</time></trkpt><trkpt lat="43.5400371" lon="11.3372462"><ele>490.4</ele><time>2026-04-12T07:58:15.154Z</time></trkpt><trkpt lat="43.5399438" lon="11.337106"><ele>490.0</ele><time>2026-04-12T07:58:17.152Z</time></trkpt><trkpt lat="43.5398894" lon="11.3370208"><ele>490.0</ele><time>2026-04-12T07:58:18.154Z</time></trkpt><trkpt lat="43.5398296" lon="11.3369458"><ele>490.0</ele><time>2026-04-12T07:58:19.153Z</time></trkpt><trkpt lat="43.5397441" lon="11.3368967"><ele>490.0</ele><time>2026-04-12T07:58:20.152Z</time></trkpt><trkpt lat="43.5396475" lon="11.336857"><ele>490.0</ele><time>2026-04-12T07:58:21.152Z</time></trkpt><trkpt lat="43.5395387" lon="11.3368159"><ele>490.0</ele><time>2026-04-12T07:58:22.153Z</time></trkpt><trkpt lat="43.5394204" lon="11.336773"><ele>494.0</ele><time>2026-04-12T07:58:23.153Z</time></trkpt><trkpt lat="43.5393213" lon="11.336721"><ele>498.0</ele><time>2026-04-12T07:58:24.152Z</time></trkpt><trkpt lat="43.539231" lon="11.3366456"><ele>502.0</ele><time>2026-04-12T07:58:25.151Z</time></trkpt><trkpt lat="43.5391451" lon="11.3365376"><ele>506.0</ele><time>2026-04-12T07:58:26.153Z</time></trkpt><trkpt lat="43.5390616" lon="11.3364141"><ele>508.5</ele><time>2026-04-12T07:58:27.153Z</time></trkpt><trkpt lat="43.5389771" lon="11.3362911"><ele>511.0</ele><time>2026-04-12T07:58:28.153Z</time></trkpt><trkpt lat="43.5388834" lon="11.336174"><ele>513.5</ele><time>2026-04-12T07:58:29.153Z</time></trkpt><trkpt lat="43.5387903" lon="11.3360663"><ele>516.0</ele><time>2026-04-12T07:58:30.152Z</time></trkpt><trkpt lat="43.5386967" lon="11.335975"><ele>516.0</ele><time>2026-04-12T07:58:31.153Z</time></trkpt><trkpt lat="43.5386" lon="11.3359036"><ele>516.0</ele><time>2026-04-12T07:58:32.151Z</time></trkpt><trkpt lat="43.5385036" lon="11.3358449"><ele>516.0</ele><time>2026-04-12T07:58:33.152Z</time></trkpt><trkpt lat="43.5384121" lon="11.3358024"><ele>516.0</ele><time>2026-04-12T07:58:34.152Z</time></trkpt><trkpt lat="43.5382984" lon="11.3357763"><ele>516.0</ele><time>2026-04-12T07:58:35.152Z</time></trkpt><trkpt lat="43.5381868" lon="11.3357509"><ele>516.0</ele><time>2026-04-12T07:58:36.153Z</time></trkpt><trkpt lat="43.5380852" lon="11.3357067"><ele>516.0</ele><time>2026-04-12T07:58:37.153Z</time></trkpt><trkpt lat="43.5379878" lon="11.3356715"><ele>516.0</ele><time>2026-04-12T07:58:38.152Z</time></trkpt><trkpt lat="43.5378918" lon="11.335666"><ele>516.0</ele><time>2026-04-12T07:58:39.152Z</time></trkpt><trkpt lat="43.537797" lon="11.3356852"><ele>516.0</ele><time>2026-04-12T07:58:40.152Z</time></trkpt><trkpt lat="43.5377102" lon="11.3357433"><ele>516.0</ele><time>2026-04-12T07:58:41.152Z</time></trkpt><trkpt lat="43.5376302" lon="11.3357958"><ele>516.0</ele><time>2026-04-12T07:58:42.153Z</time></trkpt><trkpt lat="43.5375364" lon="11.3358381"><ele>516.0</ele><time>2026-04-12T07:58:44.151Z</time></trkpt><trkpt lat="43.5374733" lon="11.3358115"><ele>516.0</ele><time>2026-04-12T07:58:47.152Z</time></trkpt><trkpt lat="43.5374333" lon="11.3357311"><ele>516.0</ele><time>2026-04-12T07:59:19.152Z</time></trkpt><trkpt lat="43.5373892" lon="11.335624"><ele>516.0</ele><time>2026-04-12T07:59:21.153Z</time></trkpt><trkpt lat="43.5373764" lon="11.3354743"><ele>516.0</ele><time>2026-04-12T07:59:23.152Z</time></trkpt><trkpt lat="43.5373724" lon="11.3353016"><ele>516.0</ele><time>2026-04-12T07:59:25.153Z</time></trkpt><trkpt lat="43.5373771" lon="11.335215"><ele>516.0</ele><time>2026-04-12T07:59:26.154Z</time></trkpt><trkpt lat="43.537369" lon="11.3351235"><ele>516.0</ele><time>2026-04-12T07:59:27.153Z</time></trkpt><trkpt lat="43.5373645" lon="11.334965"><ele>516.0</ele><time>2026-04-12T07:59:29.153Z</time></trkpt><trkpt lat="43.5373178" lon="11.3348446"><ele>515.9999999999999</ele><time>2026-04-12T07:59:31.154Z</time></trkpt><trkpt lat="43.5372947" lon="11.3347635"><ele>516.0</ele><time>2026-04-12T07:59:33.153Z</time></trkpt><trkpt lat="43.5372685" lon="11.3346786"><ele>516.0</ele><time>2026-04-12T07:59:35.152Z</time></trkpt><trkpt lat="43.5371888" lon="11.3346666"><ele>516.0</ele><time>2026-04-12T07:59:37.153Z</time></trkpt><trkpt lat="43.537123" lon="11.3346816"><ele>516.0</ele><time>2026-04-12T07:59:38.153Z</time></trkpt><trkpt lat="43.537049" lon="11.334699"><ele>515.9999999999999</ele><time>2026-04-12T07:59:39.153Z</time></trkpt><trkpt lat="43.5369649" lon="11.3347152"><ele>516.0</ele><time>2026-04-12T07:59:40.153Z</time></trkpt><trkpt lat="43.5368703" lon="11.3347305"><ele>515.8</ele><time>2026-04-12T07:59:41.151Z</time></trkpt><trkpt lat="43.5367664" lon="11.3347491"><ele>515.6</ele><time>2026-04-12T07:59:42.152Z</time></trkpt><trkpt lat="43.5366598" lon="11.3347689"><ele>515.4</ele><time>2026-04-12T07:59:43.153Z</time></trkpt><trkpt lat="43.5365525" lon="11.3347877"><ele>515.2</ele><time>2026-04-12T07:59:44.152Z</time></trkpt><trkpt lat="43.5364516" lon="11.3347984"><ele>515.0</ele><time>2026-04-12T07:59:45.155Z</time></trkpt><trkpt lat="43.5363658" lon="11.3347738"><ele>515.0</ele><time>2026-04-12T07:59:46.152Z</time></trkpt><trkpt lat="43.5362934" lon="11.3347447"><ele>515.0</ele><time>2026-04-12T07:59:47.151Z</time></trkpt><trkpt lat="43.5362385" lon="11.3346937"><ele>515.0</ele><time>2026-04-12T07:59:48.152Z</time></trkpt><trkpt lat="43.5361782" lon="11.3346336"><ele>515.0</ele><time>2026-04-12T07:59:49.153Z</time></trkpt><trkpt lat="43.5361179" lon="11.3345779"><ele>515.0</ele><time>2026-04-12T07:59:50.153Z</time></trkpt><trkpt lat="43.5360431" lon="11.3345332"><ele>515.0</ele><time>2026-04-12T07:59:51.153Z</time></trkpt><trkpt lat="43.535961" lon="11.3345111"><ele>512.3333333333333</ele><time>2026-04-12T07:59:52.152Z</time></trkpt><trkpt lat="43.5358827" lon="11.3345025"><ele>509.66666666666663</ele><time>2026-04-12T07:59:53.152Z</time></trkpt><trkpt lat="43.5358061" lon="11.3344867"><ele>507.0</ele><time>2026-04-12T07:59:54.152Z</time></trkpt><trkpt lat="43.5357276" lon="11.3344558"><ele>504.33333333333337</ele><time>2026-04-12T07:59:55.153Z</time></trkpt><trkpt lat="43.5356416" lon="11.3344059"><ele>501.6666666666667</ele><time>2026-04-12T07:59:56.153Z</time></trkpt><trkpt lat="43.5355529" lon="11.3343576"><ele>499.0</ele><time>2026-04-12T07:59:57.152Z</time></trkpt><trkpt lat="43.5354719" lon="11.3343007"><ele>499.0</ele><time>2026-04-12T07:59:58.154Z</time></trkpt><trkpt lat="43.5353927" lon="11.3342281"><ele>499.0</ele><time>2026-04-12T07:59:59.152Z</time></trkpt><trkpt lat="43.5352994" lon="11.3341445"><ele>499.0</ele><time>2026-04-12T08:00:00.153Z</time></trkpt><trkpt lat="43.5352034" lon="11.334076"><ele>499.0</ele><time>2026-04-12T08:00:01.153Z</time></trkpt><trkpt lat="43.5351091" lon="11.3340052"><ele>499.0</ele><time>2026-04-12T08:00:02.153Z</time></trkpt><trkpt lat="43.5350024" lon="11.3339245"><ele>495.6</ele><time>2026-04-12T08:00:03.154Z</time></trkpt><trkpt lat="43.5349167" lon="11.3338336"><ele>492.2</ele><time>2026-04-12T08:00:04.153Z</time></trkpt><trkpt lat="43.5348401" lon="11.3337248"><ele>488.80000000000007</ele><time>2026-04-12T08:00:05.153Z</time></trkpt><trkpt lat="43.5347886" lon="11.3336077"><ele>485.40000000000003</ele><time>2026-04-12T08:00:06.153Z</time></trkpt><trkpt lat="43.5347461" lon="11.3335002"><ele>482.0</ele><time>2026-04-12T08:00:07.154Z</time></trkpt><trkpt lat="43.5346833" lon="11.3333959"><ele>482.0</ele><time>2026-04-12T08:00:08.153Z</time></trkpt><trkpt lat="43.5346064" lon="11.3332954"><ele>482.00000000000006</ele><time>2026-04-12T08:00:09.154Z</time></trkpt><trkpt lat="43.5345127" lon="11.3332066"><ele>482.00000000000006</ele><time>2026-04-12T08:00:10.151Z</time></trkpt><trkpt lat="43.5344222" lon="11.3331436"><ele>482.0</ele><time>2026-04-12T08:00:11.152Z</time></trkpt><trkpt lat="43.5343333" lon="11.3331082"><ele>482.0</ele><time>2026-04-12T08:00:12.153Z</time></trkpt><trkpt lat="43.5342314" lon="11.3330896"><ele>481.75</ele><time>2026-04-12T08:00:13.153Z</time></trkpt><trkpt lat="43.5341209" lon="11.3330903"><ele>481.5</ele><time>2026-04-12T08:00:14.152Z</time></trkpt><trkpt lat="43.5339957" lon="11.3330814"><ele>481.25</ele><time>2026-04-12T08:00:15.153Z</time></trkpt><trkpt lat="43.5338804" lon="11.3330872"><ele>481.0</ele><time>2026-04-12T08:00:16.152Z</time></trkpt><trkpt lat="43.5337662" lon="11.3330861"><ele>479.75</ele><time>2026-04-12T08:00:17.153Z</time></trkpt><trkpt lat="43.5336454" lon="11.3330725"><ele>478.5</ele><time>2026-04-12T08:00:18.153Z</time></trkpt><trkpt lat="43.5335321" lon="11.3330466"><ele>477.25</ele><time>2026-04-12T08:00:19.153Z</time></trkpt><trkpt lat="43.5334273" lon="11.3330122"><ele>476.0</ele><time>2026-04-12T08:00:20.152Z</time></trkpt><trkpt lat="43.5333238" lon="11.3329793"><ele>475.6</ele><time>2026-04-12T08:00:21.151Z</time></trkpt><trkpt lat="43.5332206" lon="11.3329474"><ele>475.20000000000005</ele><time>2026-04-12T08:00:22.152Z</time></trkpt><trkpt lat="43.5331185" lon="11.3329114"><ele>474.79999999999995</ele><time>2026-04-12T08:00:23.153Z</time></trkpt><trkpt lat="43.5330059" lon="11.3328795"><ele>474.4</ele><time>2026-04-12T08:00:24.153Z</time></trkpt><trkpt lat="43.532889" lon="11.3328581"><ele>474.0</ele><time>2026-04-12T08:00:25.153Z</time></trkpt><trkpt lat="43.5327739" lon="11.3328508"><ele>473.4</ele><time>2026-04-12T08:00:26.153Z</time></trkpt><trkpt lat="43.5326637" lon="11.3328421"><ele>472.79999999999995</ele><time>2026-04-12T08:00:27.153Z</time></trkpt><trkpt lat="43.5325636" lon="11.3328296"><ele>472.20000000000005</ele><time>2026-04-12T08:00:28.151Z</time></trkpt><trkpt lat="43.5324707" lon="11.3328086"><ele>471.6</ele><time>2026-04-12T08:00:29.152Z</time></trkpt><trkpt lat="43.5323943" lon="11.3327625"><ele>471.0</ele><time>2026-04-12T08:00:30.153Z</time></trkpt><trkpt lat="43.532324" lon="11.3327179"><ele>471.0</ele><time>2026-04-12T08:00:31.151Z</time></trkpt><trkpt lat="43.5322457" lon="11.3326772"><ele>471.0</ele><time>2026-04-12T08:00:32.153Z</time></trkpt><trkpt lat="43.5321692" lon="11.3326162"><ele>471.0</ele><time>2026-04-12T08:00:33.152Z</time></trkpt><trkpt lat="43.5320993" lon="11.3325402"><ele>471.0</ele><time>2026-04-12T08:00:34.154Z</time></trkpt><trkpt lat="43.5320419" lon="11.332454"><ele>471.0</ele><time>2026-04-12T08:00:35.153Z</time></trkpt><trkpt lat="43.5319763" lon="11.3323627"><ele>471.0</ele><time>2026-04-12T08:00:36.152Z</time></trkpt><trkpt lat="43.5319212" lon="11.3322778"><ele>468.4</ele><time>2026-04-12T08:00:37.153Z</time></trkpt><trkpt lat="43.531872" lon="11.3321803"><ele>465.8</ele><time>2026-04-12T08:00:38.154Z</time></trkpt><trkpt lat="43.5318152" lon="11.3320569"><ele>463.19999999999993</ele><time>2026-04-12T08:00:39.153Z</time></trkpt><trkpt lat="43.5317595" lon="11.3319398"><ele>460.59999999999997</ele><time>2026-04-12T08:00:40.153Z</time></trkpt><trkpt lat="43.5317078" lon="11.3318272"><ele>458.0</ele><time>2026-04-12T08:00:41.153Z</time></trkpt><trkpt lat="43.5316743" lon="11.3317272"><ele>458.0</ele><time>2026-04-12T08:00:42.154Z</time></trkpt><trkpt lat="43.531647" lon="11.3316268"><ele>458.0</ele><time>2026-04-12T08:00:43.153Z</time></trkpt><trkpt lat="43.5316198" lon="11.3315221"><ele>458.0</ele><time>2026-04-12T08:00:44.152Z</time></trkpt><trkpt lat="43.5315861" lon="11.3314387"><ele>458.0</ele><time>2026-04-12T08:00:45.151Z</time></trkpt><trkpt lat="43.5315507" lon="11.3313547"><ele>458.0</ele><time>2026-04-12T08:00:46.153Z</time></trkpt><trkpt lat="43.5315167" lon="11.3312749"><ele>458.0</ele><time>2026-04-12T08:00:47.153Z</time></trkpt><trkpt lat="43.5314829" lon="11.3311935"><ele>458.0</ele><time>2026-04-12T08:00:48.153Z</time></trkpt><trkpt lat="43.5314453" lon="11.3311088"><ele>456.59999999999997</ele><time>2026-04-12T08:00:49.153Z</time></trkpt><trkpt lat="43.5313966" lon="11.3310309"><ele>455.19999999999993</ele><time>2026-04-12T08:00:50.153Z</time></trkpt><trkpt lat="43.5313411" lon="11.3309769"><ele>453.8</ele><time>2026-04-12T08:00:51.153Z</time></trkpt><trkpt lat="43.5312078" lon="11.330934"><ele>452.4</ele><time>2026-04-12T08:00:53.153Z</time></trkpt><trkpt lat="43.5311251" lon="11.3308896"><ele>451.0</ele><time>2026-04-12T08:00:54.152Z</time></trkpt><trkpt lat="43.5310257" lon="11.3308252"><ele>450.20000000000005</ele><time>2026-04-12T08:00:55.152Z</time></trkpt><trkpt lat="43.5309174" lon="11.3307415"><ele>449.40000000000003</ele><time>2026-04-12T08:00:56.153Z</time></trkpt><trkpt lat="43.5308193" lon="11.3306683"><ele>448.6</ele><time>2026-04-12T08:00:57.153Z</time></trkpt><trkpt lat="43.5307181" lon="11.3305964"><ele>447.8</ele><time>2026-04-12T08:00:58.152Z</time></trkpt><trkpt lat="43.5306323" lon="11.3305277"><ele>447.0</ele><time>2026-04-12T08:00:59.153Z</time></trkpt><trkpt lat="43.5305464" lon="11.3304372"><ele>446.1666666666667</ele><time>2026-04-12T08:01:00.151Z</time></trkpt><trkpt lat="43.5304643" lon="11.330356"><ele>445.33333333333337</ele><time>2026-04-12T08:01:01.153Z</time></trkpt><trkpt lat="43.5303777" lon="11.3303098"><ele>444.5</ele><time>2026-04-12T08:01:02.152Z</time></trkpt><trkpt lat="43.5303047" lon="11.3302529"><ele>443.6666666666667</ele><time>2026-04-12T08:01:03.152Z</time></trkpt><trkpt lat="43.5302435" lon="11.33018"><ele>442.83333333333337</ele><time>2026-04-12T08:01:04.151Z</time></trkpt><trkpt lat="43.5302059" lon="11.3300923"><ele>442.0</ele><time>2026-04-12T08:01:05.153Z</time></trkpt><trkpt lat="43.5301651" lon="11.3299949"><ele>440.8</ele><time>2026-04-12T08:01:06.152Z</time></trkpt><trkpt lat="43.5301244" lon="11.3298939"><ele>439.6</ele><time>2026-04-12T08:01:07.154Z</time></trkpt><trkpt lat="43.5300564" lon="11.329803"><ele>438.40000000000003</ele><time>2026-04-12T08:01:08.153Z</time></trkpt><trkpt lat="43.5299733" lon="11.3297172"><ele>437.20000000000005</ele><time>2026-04-12T08:01:09.154Z</time></trkpt><trkpt lat="43.5298626" lon="11.3296034"><ele>436.0</ele><time>2026-04-12T08:01:10.153Z</time></trkpt><trkpt lat="43.5297818" lon="11.3295059"><ele>434.6</ele><time>2026-04-12T08:01:11.153Z</time></trkpt><trkpt lat="43.529716" lon="11.3294069"><ele>433.20000000000005</ele><time>2026-04-12T08:01:12.152Z</time></trkpt><trkpt lat="43.5296539" lon="11.3293289"><ele>431.79999999999995</ele><time>2026-04-12T08:01:13.152Z</time></trkpt><trkpt lat="43.5295982" lon="11.3292762"><ele>430.4</ele><time>2026-04-12T08:01:14.153Z</time></trkpt><trkpt lat="43.5295044" lon="11.3292617"><ele>429.0</ele><time>2026-04-12T08:01:16.154Z</time></trkpt><trkpt lat="43.5293959" lon="11.3293534"><ele>428.79999999999995</ele><time>2026-04-12T08:01:18.153Z</time></trkpt><trkpt lat="43.5293123" lon="11.3294018"><ele>428.59999999999997</ele><time>2026-04-12T08:01:19.153Z</time></trkpt><trkpt lat="43.5292303" lon="11.3294552"><ele>428.4</ele><time>2026-04-12T08:01:20.153Z</time></trkpt><trkpt lat="43.5291442" lon="11.3295133"><ele>428.2</ele><time>2026-04-12T08:01:21.153Z</time></trkpt><trkpt lat="43.5290492" lon="11.3295778"><ele>428.0</ele><time>2026-04-12T08:01:22.154Z</time></trkpt><trkpt lat="43.5289536" lon="11.3296445"><ele>428.0</ele><time>2026-04-12T08:01:23.153Z</time></trkpt><trkpt lat="43.5288537" lon="11.3297062"><ele>427.99999999999994</ele><time>2026-04-12T08:01:24.153Z</time></trkpt><trkpt lat="43.5287512" lon="11.3297737"><ele>427.99999999999994</ele><time>2026-04-12T08:01:25.153Z</time></trkpt><trkpt lat="43.5286504" lon="11.3298389"><ele>428.0</ele><time>2026-04-12T08:01:26.154Z</time></trkpt><trkpt lat="43.5285508" lon="11.3299001"><ele>428.0</ele><time>2026-04-12T08:01:27.153Z</time></trkpt><trkpt lat="43.528444" lon="11.3299572"><ele>424.0</ele><time>2026-04-12T08:01:28.153Z</time></trkpt><trkpt lat="43.5283391" lon="11.3300272"><ele>420.0</ele><time>2026-04-12T08:01:29.153Z</time></trkpt><trkpt lat="43.5282323" lon="11.3300906"><ele>416.0</ele><time>2026-04-12T08:01:30.152Z</time></trkpt><trkpt lat="43.528122" lon="11.3301538"><ele>412.0</ele><time>2026-04-12T08:01:31.153Z</time></trkpt><trkpt lat="43.528018" lon="11.3302213"><ele>412.0</ele><time>2026-04-12T08:01:32.152Z</time></trkpt><trkpt lat="43.5279106" lon="11.3302893"><ele>412.0</ele><time>2026-04-12T08:01:33.154Z</time></trkpt><trkpt lat="43.5278066" lon="11.3303582"><ele>412.0</ele><time>2026-04-12T08:01:34.153Z</time></trkpt><trkpt lat="43.5277056" lon="11.3304243"><ele>412.0</ele><time>2026-04-12T08:01:35.153Z</time></trkpt><trkpt lat="43.5276151" lon="11.3304819"><ele>412.0</ele><time>2026-04-12T08:01:36.152Z</time></trkpt><trkpt lat="43.5275317" lon="11.3305341"><ele>409.1666666666667</ele><time>2026-04-12T08:01:37.153Z</time></trkpt><trkpt lat="43.5274521" lon="11.3305799"><ele>406.33333333333337</ele><time>2026-04-12T08:01:38.154Z</time></trkpt><trkpt lat="43.5273869" lon="11.3306319"><ele>403.5</ele><time>2026-04-12T08:01:39.154Z</time></trkpt><trkpt lat="43.5273296" lon="11.3306719"><ele>400.66666666666663</ele><time>2026-04-12T08:01:40.152Z</time></trkpt><trkpt lat="43.527261" lon="11.3308053"><ele>397.8333333333333</ele><time>2026-04-12T08:01:42.153Z</time></trkpt><trkpt lat="43.5272573" lon="11.3308954"><ele>395.0</ele><time>2026-04-12T08:01:43.152Z</time></trkpt><trkpt lat="43.5272675" lon="11.3309975"><ele>394.99999999999994</ele><time>2026-04-12T08:01:44.154Z</time></trkpt><trkpt lat="43.5272857" lon="11.331113"><ele>395.0</ele><time>2026-04-12T08:01:45.153Z</time></trkpt><trkpt lat="43.5273077" lon="11.3312251"><ele>395.0</ele><time>2026-04-12T08:01:46.152Z</time></trkpt><trkpt lat="43.5273299" lon="11.331341"><ele>395.0</ele><time>2026-04-12T08:01:47.153Z</time></trkpt><trkpt lat="43.5273547" lon="11.3314536"><ele>394.99999999999994</ele><time>2026-04-12T08:01:48.154Z</time></trkpt><trkpt lat="43.5273815" lon="11.3315615"><ele>395.0</ele><time>2026-04-12T08:01:49.152Z</time></trkpt><trkpt lat="43.5274146" lon="11.3316821"><ele>392.99999999999994</ele><time>2026-04-12T08:01:50.154Z</time></trkpt><trkpt lat="43.5274529" lon="11.3318019"><ele>391.0</ele><time>2026-04-12T08:01:51.153Z</time></trkpt><trkpt lat="43.5274878" lon="11.3319198"><ele>389.0</ele><time>2026-04-12T08:01:52.152Z</time></trkpt><trkpt lat="43.5275213" lon="11.332026"><ele>387.0</ele><time>2026-04-12T08:01:53.153Z</time></trkpt><trkpt lat="43.5275527" lon="11.3321233"><ele>385.0</ele><time>2026-04-12T08:01:54.153Z</time></trkpt><trkpt lat="43.5275888" lon="11.3322164"><ele>383.0</ele><time>2026-04-12T08:01:55.153Z</time></trkpt><trkpt lat="43.5276222" lon="11.332313"><ele>382.1428571428571</ele><time>2026-04-12T08:01:56.152Z</time></trkpt><trkpt lat="43.5276569" lon="11.3324072"><ele>381.2857142857143</ele><time>2026-04-12T08:01:57.153Z</time></trkpt><trkpt lat="43.5276919" lon="11.33249"><ele>380.42857142857144</ele><time>2026-04-12T08:01:58.153Z</time></trkpt><trkpt lat="43.527721" lon="11.3325721"><ele>379.57142857142856</ele><time>2026-04-12T08:01:59.154Z</time></trkpt><trkpt lat="43.5277521" lon="11.3326535"><ele>378.7142857142857</ele><time>2026-04-12T08:02:00.153Z</time></trkpt><trkpt lat="43.5277867" lon="11.3327281"><ele>377.85714285714283</ele><time>2026-04-12T08:02:01.152Z</time></trkpt><trkpt lat="43.5278443" lon="11.3328479"><ele>377.0</ele><time>2026-04-12T08:02:03.153Z</time></trkpt><trkpt lat="43.5278956" lon="11.332928"><ele>377.5</ele><time>2026-04-12T08:02:06.153Z</time></trkpt><trkpt lat="43.5279433" lon="11.3330096"><ele>378.0</ele><time>2026-04-12T08:02:10.154Z</time></trkpt><trkpt lat="43.5279897" lon="11.3330741"><ele>378.5</ele><time>2026-04-12T08:02:13.153Z</time></trkpt><trkpt lat="43.5280391" lon="11.3331688"><ele>379.0</ele><time>2026-04-12T08:02:16.153Z</time></trkpt><trkpt lat="43.5280842" lon="11.3332737"><ele>379.5</ele><time>2026-04-12T08:02:18.153Z</time></trkpt><trkpt lat="43.5281541" lon="11.3334248"><ele>380.0</ele><time>2026-04-12T08:02:20.154Z</time></trkpt><trkpt lat="43.528193" lon="11.3335085"><ele>380.0</ele><time>2026-04-12T08:02:21.152Z</time></trkpt><trkpt lat="43.5282295" lon="11.3335922"><ele>380.0</ele><time>2026-04-12T08:02:22.153Z</time></trkpt><trkpt lat="43.5282609" lon="11.3336783"><ele>380.0</ele><time>2026-04-12T08:02:23.154Z</time></trkpt><trkpt lat="43.528281" lon="11.3337745"><ele>380.0</ele><time>2026-04-12T08:02:24.153Z</time></trkpt><trkpt lat="43.5282896" lon="11.3338695"><ele>380.0</ele><time>2026-04-12T08:02:25.153Z</time></trkpt><trkpt lat="43.5282716" lon="11.3339615"><ele>380.0</ele><time>2026-04-12T08:02:26.154Z</time></trkpt><trkpt lat="43.5282357" lon="11.3340447"><ele>380.0</ele><time>2026-04-12T08:02:27.153Z</time></trkpt><trkpt lat="43.5281774" lon="11.3341136"><ele>379.6</ele><time>2026-04-12T08:02:28.154Z</time></trkpt><trkpt lat="43.5281047" lon="11.3341564"><ele>379.2</ele><time>2026-04-12T08:02:29.153Z</time></trkpt><trkpt lat="43.5280184" lon="11.3341659"><ele>378.79999999999995</ele><time>2026-04-12T08:02:30.153Z</time></trkpt><trkpt lat="43.5279207" lon="11.3341396"><ele>378.4</ele><time>2026-04-12T08:02:31.152Z</time></trkpt><trkpt lat="43.5278217" lon="11.3341108"><ele>378.0</ele><time>2026-04-12T08:02:32.153Z</time></trkpt><trkpt lat="43.5277238" lon="11.3341141"><ele>378.0</ele><time>2026-04-12T08:02:33.152Z</time></trkpt><trkpt lat="43.5276209" lon="11.3341276"><ele>378.0</ele><time>2026-04-12T08:02:34.152Z</time></trkpt><trkpt lat="43.5275188" lon="11.3341591"><ele>378.0</ele><time>2026-04-12T08:02:35.153Z</time></trkpt><trkpt lat="43.5274128" lon="11.3341955"><ele>378.0</ele><time>2026-04-12T08:02:36.152Z</time></trkpt><trkpt lat="43.5273038" lon="11.3342119"><ele>378.0</ele><time>2026-04-12T08:02:37.153Z</time></trkpt><trkpt lat="43.5271948" lon="11.3342114"><ele>378.0</ele><time>2026-04-12T08:02:38.152Z</time></trkpt><trkpt lat="43.5270896" lon="11.3341966"><ele>378.0</ele><time>2026-04-12T08:02:39.153Z</time></trkpt><trkpt lat="43.5269968" lon="11.3341603"><ele>378.0</ele><time>2026-04-12T08:02:40.153Z</time></trkpt><trkpt lat="43.526923" lon="11.3341004"><ele>378.0</ele><time>2026-04-12T08:02:41.152Z</time></trkpt><trkpt lat="43.5268533" lon="11.3340526"><ele>378.0</ele><time>2026-04-12T08:02:42.153Z</time></trkpt><trkpt lat="43.5267643" lon="11.334018"><ele>377.0</ele><time>2026-04-12T08:02:43.153Z</time></trkpt><trkpt lat="43.5266776" lon="11.3339919"><ele>376.0</ele><time>2026-04-12T08:02:44.154Z</time></trkpt><trkpt lat="43.526596" lon="11.3339421"><ele>375.0</ele><time>2026-04-12T08:02:45.154Z</time></trkpt><trkpt lat="43.5265301" lon="11.3338645"><ele>374.0</ele><time>2026-04-12T08:02:46.153Z</time></trkpt><trkpt lat="43.5264675" lon="11.3337574"><ele>373.0</ele><time>2026-04-12T08:02:47.153Z</time></trkpt><trkpt lat="43.5264108" lon="11.3336544"><ele>373.0</ele><time>2026-04-12T08:02:48.153Z</time></trkpt><trkpt lat="43.5263426" lon="11.3335729"><ele>373.0</ele><time>2026-04-12T08:02:49.153Z</time></trkpt><trkpt lat="43.526261" lon="11.333518"><ele>373.0</ele><time>2026-04-12T08:02:50.153Z</time></trkpt><trkpt lat="43.5261719" lon="11.3335142"><ele>373.0</ele><time>2026-04-12T08:02:51.152Z</time></trkpt><trkpt lat="43.5260755" lon="11.3335376"><ele>373.0</ele><time>2026-04-12T08:02:52.153Z</time></trkpt><trkpt lat="43.5259767" lon="11.3335756"><ele>376.0</ele><time>2026-04-12T08:02:53.154Z</time></trkpt><trkpt lat="43.525872" lon="11.3336069"><ele>379.0</ele><time>2026-04-12T08:02:54.154Z</time></trkpt><trkpt lat="43.5257674" lon="11.3336258"><ele>382.0</ele><time>2026-04-12T08:02:55.154Z</time></trkpt><trkpt lat="43.5256613" lon="11.3336182"><ele>385.0</ele><time>2026-04-12T08:02:56.153Z</time></trkpt><trkpt lat="43.5255587" lon="11.3335991"><ele>388.0</ele><time>2026-04-12T08:02:57.152Z</time></trkpt><trkpt lat="43.5254617" lon="11.3335789"><ele>390.4</ele><time>2026-04-12T08:02:58.153Z</time></trkpt><trkpt lat="43.5253705" lon="11.3335628"><ele>392.79999999999995</ele><time>2026-04-12T08:02:59.153Z</time></trkpt><trkpt lat="43.5252705" lon="11.3335464"><ele>395.2</ele><time>2026-04-12T08:03:00.153Z</time></trkpt><trkpt lat="43.5251779" lon="11.333552"><ele>397.6</ele><time>2026-04-12T08:03:01.154Z</time></trkpt><trkpt lat="43.5250836" lon="11.3335692"><ele>400.0</ele><time>2026-04-12T08:03:02.153Z</time></trkpt><trkpt lat="43.5249858" lon="11.333604"><ele>400.0</ele><time>2026-04-12T08:03:03.154Z</time></trkpt><trkpt lat="43.5248841" lon="11.3336647"><ele>400.0</ele><time>2026-04-12T08:03:04.155Z</time></trkpt><trkpt lat="43.5247756" lon="11.3337121"><ele>400.0</ele><time>2026-04-12T08:03:05.154Z</time></trkpt><trkpt lat="43.5246594" lon="11.3337369"><ele>400.0</ele><time>2026-04-12T08:03:06.154Z</time></trkpt><trkpt lat="43.5245489" lon="11.3337451"><ele>402.5</ele><time>2026-04-12T08:03:07.153Z</time></trkpt><trkpt lat="43.5244226" lon="11.3337248"><ele>405.0</ele><time>2026-04-12T08:03:08.152Z</time></trkpt><trkpt lat="43.5242971" lon="11.333719"><ele>407.5</ele><time>2026-04-12T08:03:09.152Z</time></trkpt><trkpt lat="43.5241949" lon="11.3337254"><ele>410.0</ele><time>2026-04-12T08:03:10.153Z</time></trkpt><trkpt lat="43.5240964" lon="11.3337481"><ele>409.99999999999994</ele><time>2026-04-12T08:03:11.154Z</time></trkpt><trkpt lat="43.5240039" lon="11.3338001"><ele>410.0</ele><time>2026-04-12T08:03:12.153Z</time></trkpt><trkpt lat="43.5239211" lon="11.3338611"><ele>410.0</ele><time>2026-04-12T08:03:13.153Z</time></trkpt><trkpt lat="43.5238448" lon="11.3338959"><ele>410.0</ele><time>2026-04-12T08:03:14.153Z</time></trkpt><trkpt lat="43.5237734" lon="11.333899"><ele>409.99999999999994</ele><time>2026-04-12T08:03:15.153Z</time></trkpt><trkpt lat="43.5237017" lon="11.3338688"><ele>410.0</ele><time>2026-04-12T08:03:16.155Z</time></trkpt><trkpt lat="43.5236282" lon="11.333823"><ele>411.99999999999994</ele><time>2026-04-12T08:03:17.152Z</time></trkpt><trkpt lat="43.5235518" lon="11.3337689"><ele>414.0</ele><time>2026-04-12T08:03:18.153Z</time></trkpt><trkpt lat="43.5234632" lon="11.3337278"><ele>416.0</ele><time>2026-04-12T08:03:19.154Z</time></trkpt><trkpt lat="43.5233849" lon="11.3337244"><ele>418.0</ele><time>2026-04-12T08:03:20.152Z</time></trkpt><trkpt lat="43.5233013" lon="11.333748"><ele>419.99999999999994</ele><time>2026-04-12T08:03:21.153Z</time></trkpt><trkpt lat="43.5232341" lon="11.3337938"><ele>422.0</ele><time>2026-04-12T08:03:22.153Z</time></trkpt><trkpt lat="43.5231474" lon="11.3338598"><ele>422.0</ele><time>2026-04-12T08:03:24.154Z</time></trkpt><trkpt lat="43.5230599" lon="11.3338745"><ele>422.0</ele><time>2026-04-12T08:03:39.154Z</time></trkpt><trkpt lat="43.5229474" lon="11.3339256"><ele>422.0</ele><time>2026-04-12T08:03:41.153Z</time></trkpt><trkpt lat="43.5228728" lon="11.33395"><ele>422.0</ele><time>2026-04-12T08:03:42.152Z</time></trkpt><trkpt lat="43.5227879" lon="11.3339737"><ele>422.0</ele><time>2026-04-12T08:03:43.153Z</time></trkpt><trkpt lat="43.522706" lon="11.3340042"><ele>424.40000000000003</ele><time>2026-04-12T08:03:44.153Z</time></trkpt><trkpt lat="43.5226201" lon="11.3340428"><ele>426.8</ele><time>2026-04-12T08:03:45.154Z</time></trkpt><trkpt lat="43.5225025" lon="11.3340671"><ele>429.2</ele><time>2026-04-12T08:03:46.154Z</time></trkpt><trkpt lat="43.5223965" lon="11.3340986"><ele>431.6</ele><time>2026-04-12T08:03:47.152Z</time></trkpt><trkpt lat="43.5222921" lon="11.3341168"><ele>434.0</ele><time>2026-04-12T08:03:48.153Z</time></trkpt><trkpt lat="43.5221934" lon="11.3341293"><ele>434.0</ele><time>2026-04-12T08:03:49.153Z</time></trkpt><trkpt lat="43.5220882" lon="11.3341529"><ele>434.0</ele><time>2026-04-12T08:03:50.154Z</time></trkpt><trkpt lat="43.5219719" lon="11.334199"><ele>434.0</ele><time>2026-04-12T08:03:51.153Z</time></trkpt><trkpt lat="43.5218612" lon="11.3342679"><ele>434.0</ele><time>2026-04-12T08:03:52.155Z</time></trkpt><trkpt lat="43.5217442" lon="11.3343474"><ele>432.6</ele><time>2026-04-12T08:03:53.153Z</time></trkpt><trkpt lat="43.5216267" lon="11.3344254"><ele>431.2</ele><time>2026-04-12T08:03:54.153Z</time></trkpt><trkpt lat="43.5215289" lon="11.3344904"><ele>429.80000000000007</ele><time>2026-04-12T08:03:55.153Z</time></trkpt><trkpt lat="43.5214489" lon="11.33454"><ele>428.40000000000003</ele><time>2026-04-12T08:03:56.152Z</time></trkpt><trkpt lat="43.5213817" lon="11.3345654"><ele>427.0</ele><time>2026-04-12T08:03:57.153Z</time></trkpt><trkpt lat="43.5213165" lon="11.3345679"><ele>427.0</ele><time>2026-04-12T08:03:58.155Z</time></trkpt><trkpt lat="43.5212594" lon="11.3345288"><ele>427.00000000000006</ele><time>2026-04-12T08:03:59.153Z</time></trkpt><trkpt lat="43.5212109" lon="11.3343611"><ele>427.00000000000006</ele><time>2026-04-12T08:04:01.154Z</time></trkpt><trkpt lat="43.521218" lon="11.3342509"><ele>427.0</ele><time>2026-04-12T08:04:02.152Z</time></trkpt><trkpt lat="43.52123" lon="11.334112"><ele>427.0</ele><time>2026-04-12T08:04:03.153Z</time></trkpt><trkpt lat="43.5212239" lon="11.3339825"><ele>429.25</ele><time>2026-04-12T08:04:04.155Z</time></trkpt><trkpt lat="43.5211942" lon="11.3338423"><ele>431.5</ele><time>2026-04-12T08:04:05.152Z</time></trkpt><trkpt lat="43.521157" lon="11.3336951"><ele>433.75</ele><time>2026-04-12T08:04:06.153Z</time></trkpt><trkpt lat="43.5211022" lon="11.3335281"><ele>436.0</ele><time>2026-04-12T08:04:07.153Z</time></trkpt><trkpt lat="43.5210548" lon="11.3333707"><ele>436.00000000000006</ele><time>2026-04-12T08:04:08.153Z</time></trkpt><trkpt lat="43.5210218" lon="11.3332335"><ele>436.0</ele><time>2026-04-12T08:04:09.154Z</time></trkpt><trkpt lat="43.5209952" lon="11.3331215"><ele>436.0</ele><time>2026-04-12T08:04:10.153Z</time></trkpt><trkpt lat="43.520951" lon="11.333017"><ele>436.0</ele><time>2026-04-12T08:04:11.153Z</time></trkpt><trkpt lat="43.5209157" lon="11.3329361"><ele>436.00000000000006</ele><time>2026-04-12T08:04:12.153Z</time></trkpt><trkpt lat="43.5208581" lon="11.3328823"><ele>436.0</ele><time>2026-04-12T08:04:13.153Z</time></trkpt><trkpt lat="43.5207806" lon="11.3328315"><ele>434.83333333333337</ele><time>2026-04-12T08:04:14.153Z</time></trkpt><trkpt lat="43.520718" lon="11.3327753"><ele>433.6666666666667</ele><time>2026-04-12T08:04:15.153Z</time></trkpt><trkpt lat="43.5206702" lon="11.3326997"><ele>432.5</ele><time>2026-04-12T08:04:16.153Z</time></trkpt><trkpt lat="43.520627" lon="11.3326086"><ele>431.33333333333337</ele><time>2026-04-12T08:04:17.153Z</time></trkpt><trkpt lat="43.5206329" lon="11.3324818"><ele>430.1666666666667</ele><time>2026-04-12T08:04:18.153Z</time></trkpt><trkpt lat="43.5206403" lon="11.3323591"><ele>429.0</ele><time>2026-04-12T08:04:19.154Z</time></trkpt><trkpt lat="43.5206724" lon="11.3322482"><ele>429.0</ele><time>2026-04-12T08:04:20.153Z</time></trkpt><trkpt lat="43.5207163" lon="11.3321491"><ele>429.0</ele><time>2026-04-12T08:04:21.154Z</time></trkpt><trkpt lat="43.520765" lon="11.3320451"><ele>429.0</ele><time>2026-04-12T08:04:22.152Z</time></trkpt><trkpt lat="43.5208043" lon="11.3319426"><ele>429.0</ele><time>2026-04-12T08:04:23.153Z</time></trkpt><trkpt lat="43.520827" lon="11.3318332"><ele>429.0</ele><time>2026-04-12T08:04:24.154Z</time></trkpt><trkpt lat="43.5208257" lon="11.3317051"><ele>429.0</ele><time>2026-04-12T08:04:25.153Z</time></trkpt><trkpt lat="43.5207968" lon="11.3315764"><ele>429.0</ele><time>2026-04-12T08:04:26.152Z</time></trkpt><trkpt lat="43.5207413" lon="11.3314436"><ele>429.0</ele><time>2026-04-12T08:04:27.153Z</time></trkpt><trkpt lat="43.520652" lon="11.3313022"><ele>429.0</ele><time>2026-04-12T08:04:28.153Z</time></trkpt><trkpt lat="43.5205495" lon="11.3311644"><ele>429.0</ele><time>2026-04-12T08:04:29.155Z</time></trkpt><trkpt lat="43.5204707" lon="11.3310366"><ele>428.6</ele><time>2026-04-12T08:04:30.153Z</time></trkpt><trkpt lat="43.5204027" lon="11.3309017"><ele>428.2</ele><time>2026-04-12T08:04:31.154Z</time></trkpt><trkpt lat="43.5203519" lon="11.3307692"><ele>427.80000000000007</ele><time>2026-04-12T08:04:32.152Z</time></trkpt><trkpt lat="43.520321" lon="11.3306355"><ele>427.40000000000003</ele><time>2026-04-12T08:04:33.154Z</time></trkpt><trkpt lat="43.5203126" lon="11.330487"><ele>427.0</ele><time>2026-04-12T08:04:34.153Z</time></trkpt><trkpt lat="43.5203091" lon="11.3303252"><ele>429.5</ele><time>2026-04-12T08:04:35.152Z</time></trkpt><trkpt lat="43.5203044" lon="11.3301467"><ele>432.0</ele><time>2026-04-12T08:04:36.154Z</time></trkpt><trkpt lat="43.5202812" lon="11.3299753"><ele>434.5</ele><time>2026-04-12T08:04:37.152Z</time></trkpt><trkpt lat="43.5202498" lon="11.3298277"><ele>437.0</ele><time>2026-04-12T08:04:38.153Z</time></trkpt><trkpt lat="43.5201892" lon="11.3296925"><ele>437.0</ele><time>2026-04-12T08:04:39.152Z</time></trkpt><trkpt lat="43.5201277" lon="11.3295794"><ele>437.00000000000006</ele><time>2026-04-12T08:04:40.154Z</time></trkpt><trkpt lat="43.5200572" lon="11.3294955"><ele>437.00000000000006</ele><time>2026-04-12T08:04:41.153Z</time></trkpt><trkpt lat="43.5199771" lon="11.3294328"><ele>437.0</ele><time>2026-04-12T08:04:42.153Z</time></trkpt><trkpt lat="43.5198876" lon="11.3293885"><ele>437.0</ele><time>2026-04-12T08:04:43.153Z</time></trkpt><trkpt lat="43.5197878" lon="11.3293427"><ele>437.0</ele><time>2026-04-12T08:04:44.155Z</time></trkpt><trkpt lat="43.519697" lon="11.3293088"><ele>437.00000000000006</ele><time>2026-04-12T08:04:45.153Z</time></trkpt><trkpt lat="43.5196065" lon="11.3292598"><ele>437.00000000000006</ele><time>2026-04-12T08:04:46.154Z</time></trkpt><trkpt lat="43.5195198" lon="11.329204"><ele>437.0</ele><time>2026-04-12T08:04:47.154Z</time></trkpt><trkpt lat="43.5194265" lon="11.3291151"><ele>437.0</ele><time>2026-04-12T08:04:48.153Z</time></trkpt><trkpt lat="43.519335" lon="11.3290046"><ele>438.0</ele><time>2026-04-12T08:04:49.152Z</time></trkpt><trkpt lat="43.5192358" lon="11.3289099"><ele>439.00000000000006</ele><time>2026-04-12T08:04:50.154Z</time></trkpt><trkpt lat="43.5191465" lon="11.3288384"><ele>440.00000000000006</ele><time>2026-04-12T08:04:51.153Z</time></trkpt><trkpt lat="43.519054" lon="11.3287947"><ele>441.0</ele><time>2026-04-12T08:04:52.153Z</time></trkpt><trkpt lat="43.5189576" lon="11.3287751"><ele>442.0</ele><time>2026-04-12T08:04:53.154Z</time></trkpt><trkpt lat="43.5188569" lon="11.3287753"><ele>442.20000000000005</ele><time>2026-04-12T08:04:54.153Z</time></trkpt><trkpt lat="43.5187582" lon="11.3287972"><ele>442.40000000000003</ele><time>2026-04-12T08:04:55.153Z</time></trkpt><trkpt lat="43.51866" lon="11.3288373"><ele>442.59999999999997</ele><time>2026-04-12T08:04:56.154Z</time></trkpt><trkpt lat="43.5185581" lon="11.3288957"><ele>442.79999999999995</ele><time>2026-04-12T08:04:57.154Z</time></trkpt><trkpt lat="43.5184553" lon="11.3289554"><ele>443.0</ele><time>2026-04-12T08:04:58.153Z</time></trkpt><trkpt lat="43.5183339" lon="11.3290182"><ele>443.0</ele><time>2026-04-12T08:04:59.153Z</time></trkpt><trkpt lat="43.5182216" lon="11.3290715"><ele>442.99999999999994</ele><time>2026-04-12T08:05:00.154Z</time></trkpt><trkpt lat="43.5181202" lon="11.329096"><ele>442.99999999999994</ele><time>2026-04-12T08:05:01.152Z</time></trkpt><trkpt lat="43.518024" lon="11.3290908"><ele>443.0</ele><time>2026-04-12T08:05:02.153Z</time></trkpt><trkpt lat="43.5179222" lon="11.329056"><ele>443.0</ele><time>2026-04-12T08:05:03.153Z</time></trkpt><trkpt lat="43.5178152" lon="11.3290013"><ele>442.0</ele><time>2026-04-12T08:05:04.153Z</time></trkpt><trkpt lat="43.5177186" lon="11.3289583"><ele>440.99999999999994</ele><time>2026-04-12T08:05:05.154Z</time></trkpt><trkpt lat="43.5176286" lon="11.3289225"><ele>439.99999999999994</ele><time>2026-04-12T08:05:06.152Z</time></trkpt><trkpt lat="43.5175437" lon="11.3289058"><ele>439.0</ele><time>2026-04-12T08:05:07.153Z</time></trkpt><trkpt lat="43.5174586" lon="11.3289185"><ele>438.0</ele><time>2026-04-12T08:05:08.152Z</time></trkpt><trkpt lat="43.5173667" lon="11.3289605"><ele>438.0</ele><time>2026-04-12T08:05:09.154Z</time></trkpt><trkpt lat="43.5172592" lon="11.329005"><ele>438.0</ele><time>2026-04-12T08:05:10.155Z</time></trkpt><trkpt lat="43.5171335" lon="11.3290424"><ele>438.0</ele><time>2026-04-12T08:05:11.153Z</time></trkpt><trkpt lat="43.5170047" lon="11.3290808"><ele>438.0</ele><time>2026-04-12T08:05:12.155Z</time></trkpt><trkpt lat="43.516874" lon="11.3291083"><ele>437.4</ele><time>2026-04-12T08:05:13.153Z</time></trkpt><trkpt lat="43.5167534" lon="11.3291405"><ele>436.79999999999995</ele><time>2026-04-12T08:05:14.153Z</time></trkpt><trkpt lat="43.5166325" lon="11.3291707"><ele>436.2</ele><time>2026-04-12T08:05:15.152Z</time></trkpt><trkpt lat="43.5165269" lon="11.3291853"><ele>435.6</ele><time>2026-04-12T08:05:16.154Z</time></trkpt><trkpt lat="43.5164465" lon="11.3291792"><ele>435.0</ele><time>2026-04-12T08:05:17.153Z</time></trkpt><trkpt lat="43.5163455" lon="11.3291636"><ele>435.0</ele><time>2026-04-12T08:05:19.152Z</time></trkpt><trkpt lat="43.5162598" lon="11.3291271"><ele>435.0</ele><time>2026-04-12T08:05:36.155Z</time></trkpt><trkpt lat="43.5162163" lon="11.3290049"><ele>435.0</ele><time>2026-04-12T08:05:38.153Z</time></trkpt><trkpt lat="43.5161803" lon="11.3289168"><ele>435.0</ele><time>2026-04-12T08:05:39.154Z</time></trkpt><trkpt lat="43.5161345" lon="11.3287689"><ele>435.0</ele><time>2026-04-12T08:05:41.154Z</time></trkpt><trkpt lat="43.5160559" lon="11.3286936"><ele>434.1666666666667</ele><time>2026-04-12T08:05:43.153Z</time></trkpt><trkpt lat="43.5159637" lon="11.3287407"><ele>433.33333333333337</ele><time>2026-04-12T08:05:45.154Z</time></trkpt><trkpt lat="43.5159279" lon="11.3288174"><ele>432.5</ele><time>2026-04-12T08:05:46.154Z</time></trkpt><trkpt lat="43.5158807" lon="11.3289043"><ele>431.6666666666667</ele><time>2026-04-12T08:05:47.153Z</time></trkpt><trkpt lat="43.515817" lon="11.3289973"><ele>430.83333333333337</ele><time>2026-04-12T08:05:48.154Z</time></trkpt><trkpt lat="43.5157297" lon="11.3290876"><ele>430.0</ele><time>2026-04-12T08:05:49.154Z</time></trkpt><trkpt lat="43.5156163" lon="11.3291594"><ele>430.0</ele><time>2026-04-12T08:05:50.152Z</time></trkpt><trkpt lat="43.5154713" lon="11.3292108"><ele>430.0</ele><time>2026-04-12T08:05:51.155Z</time></trkpt><trkpt lat="43.5153205" lon="11.3292553"><ele>430.0</ele><time>2026-04-12T08:05:52.153Z</time></trkpt><trkpt lat="43.5151596" lon="11.3293015"><ele>427.75</ele><time>2026-04-12T08:05:53.154Z</time></trkpt><trkpt lat="43.5149936" lon="11.3293662"><ele>425.5</ele><time>2026-04-12T08:05:54.154Z</time></trkpt><trkpt lat="43.5148528" lon="11.3294416"><ele>423.25</ele><time>2026-04-12T08:05:55.154Z</time></trkpt><trkpt lat="43.5147381" lon="11.3295081"><ele>421.0</ele><time>2026-04-12T08:05:56.153Z</time></trkpt><trkpt lat="43.5146443" lon="11.3295687"><ele>421.0</ele><time>2026-04-12T08:05:57.154Z</time></trkpt><trkpt lat="43.5145761" lon="11.3296268"><ele>421.0</ele><time>2026-04-12T08:05:58.154Z</time></trkpt><trkpt lat="43.5145106" lon="11.3296511"><ele>421.0</ele><time>2026-04-12T08:05:59.155Z</time></trkpt><trkpt lat="43.5143991" lon="11.3295607"><ele>421.0</ele><time>2026-04-12T08:06:01.154Z</time></trkpt><trkpt lat="43.5143445" lon="11.3294707"><ele>421.0</ele><time>2026-04-12T08:06:02.154Z</time></trkpt><trkpt lat="43.5142922" lon="11.3293566"><ele>420.0</ele><time>2026-04-12T08:06:03.154Z</time></trkpt><trkpt lat="43.5142368" lon="11.3292369"><ele>419.0</ele><time>2026-04-12T08:06:04.153Z</time></trkpt><trkpt lat="43.5141751" lon="11.3291037"><ele>418.0</ele><time>2026-04-12T08:06:05.153Z</time></trkpt><trkpt lat="43.5141059" lon="11.3289525"><ele>417.0</ele><time>2026-04-12T08:06:06.154Z</time></trkpt><trkpt lat="43.5140364" lon="11.3288096"><ele>415.3333333333333</ele><time>2026-04-12T08:06:07.154Z</time></trkpt><trkpt lat="43.5139748" lon="11.3286753"><ele>413.66666666666663</ele><time>2026-04-12T08:06:08.154Z</time></trkpt><trkpt lat="43.5139207" lon="11.3285576"><ele>412.0</ele><time>2026-04-12T08:06:09.154Z</time></trkpt><trkpt lat="43.5138703" lon="11.3284621"><ele>410.3333333333333</ele><time>2026-04-12T08:06:10.154Z</time></trkpt><trkpt lat="43.5138158" lon="11.3284"><ele>408.66666666666663</ele><time>2026-04-12T08:06:11.153Z</time></trkpt><trkpt lat="43.5137499" lon="11.3283581"><ele>407.0</ele><time>2026-04-12T08:06:12.154Z</time></trkpt><trkpt lat="43.5136754" lon="11.3283657"><ele>406.0</ele><time>2026-04-12T08:06:13.153Z</time></trkpt><trkpt lat="43.5135859" lon="11.3284075"><ele>405.0</ele><time>2026-04-12T08:06:14.154Z</time></trkpt><trkpt lat="43.5134842" lon="11.3284485"><ele>404.0</ele><time>2026-04-12T08:06:15.154Z</time></trkpt><trkpt lat="43.5133703" lon="11.3284816"><ele>403.0</ele><time>2026-04-12T08:06:16.153Z</time></trkpt><trkpt lat="43.5132285" lon="11.3285036"><ele>403.0</ele><time>2026-04-12T08:06:17.154Z</time></trkpt><trkpt lat="43.5130839" lon="11.3285309"><ele>403.0</ele><time>2026-04-12T08:06:18.153Z</time></trkpt><trkpt lat="43.5129443" lon="11.3285573"><ele>403.0</ele><time>2026-04-12T08:06:19.153Z</time></trkpt><trkpt lat="43.5128204" lon="11.3286004"><ele>403.0</ele><time>2026-04-12T08:06:20.153Z</time></trkpt><trkpt lat="43.5127216" lon="11.3286401"><ele>403.50000000000006</ele><time>2026-04-12T08:06:21.155Z</time></trkpt><trkpt lat="43.5126292" lon="11.3286593"><ele>404.0</ele><time>2026-04-12T08:06:22.153Z</time></trkpt><trkpt lat="43.5125653" lon="11.3286513"><ele>404.5</ele><time>2026-04-12T08:06:23.154Z</time></trkpt><trkpt lat="43.5124787" lon="11.3286364"><ele>405.0</ele><time>2026-04-12T08:06:25.154Z</time></trkpt><trkpt lat="43.5124239" lon="11.328551"><ele>405.50000000000006</ele><time>2026-04-12T08:06:28.153Z</time></trkpt><trkpt lat="43.5123734" lon="11.3284392"><ele>406.0</ele><time>2026-04-12T08:06:31.153Z</time></trkpt><trkpt lat="43.512326" lon="11.3283267"><ele>406.00000000000006</ele><time>2026-04-12T08:06:33.152Z</time></trkpt><trkpt lat="43.5122925" lon="11.3282452"><ele>406.0</ele><time>2026-04-12T08:06:34.153Z</time></trkpt><trkpt lat="43.5122513" lon="11.3281575"><ele>406.0</ele><time>2026-04-12T08:06:35.154Z</time></trkpt><trkpt lat="43.5122051" lon="11.3280668"><ele>406.0</ele><time>2026-04-12T08:06:36.153Z</time></trkpt><trkpt lat="43.5121579" lon="11.3279764"><ele>406.00000000000006</ele><time>2026-04-12T08:06:37.154Z</time></trkpt><trkpt lat="43.5121148" lon="11.3278858"><ele>406.0</ele><time>2026-04-12T08:06:38.154Z</time></trkpt><trkpt lat="43.5120741" lon="11.3277941"><ele>404.6666666666667</ele><time>2026-04-12T08:06:39.155Z</time></trkpt><trkpt lat="43.5120398" lon="11.3276982"><ele>403.33333333333337</ele><time>2026-04-12T08:06:40.154Z</time></trkpt><trkpt lat="43.5120157" lon="11.3276051"><ele>402.0</ele><time>2026-04-12T08:06:41.152Z</time></trkpt><trkpt lat="43.5119972" lon="11.3275191"><ele>400.66666666666663</ele><time>2026-04-12T08:06:42.154Z</time></trkpt><trkpt lat="43.5119464" lon="11.3274062"><ele>399.3333333333333</ele><time>2026-04-12T08:06:44.154Z</time></trkpt><trkpt lat="43.5118804" lon="11.3273454"><ele>398.0</ele><time>2026-04-12T08:06:46.152Z</time></trkpt><trkpt lat="43.5118277" lon="11.3272974"><ele>398.0</ele><time>2026-04-12T08:06:48.153Z</time></trkpt><trkpt lat="43.511762" lon="11.3272321"><ele>398.0</ele><time>2026-04-12T08:06:51.154Z</time></trkpt><trkpt lat="43.5117482" lon="11.3270983"><ele>398.0</ele><time>2026-04-12T08:07:08.152Z</time></trkpt><trkpt lat="43.5117169" lon="11.3269438"><ele>398.0</ele><time>2026-04-12T08:07:10.155Z</time></trkpt><trkpt lat="43.5117011" lon="11.3267635"><ele>398.0</ele><time>2026-04-12T08:07:12.154Z</time></trkpt><trkpt lat="43.5117254" lon="11.3266661"><ele>397.66666666666663</ele><time>2026-04-12T08:07:13.154Z</time></trkpt><trkpt lat="43.5117614" lon="11.3265475"><ele>397.3333333333333</ele><time>2026-04-12T08:07:14.154Z</time></trkpt><trkpt lat="43.5117932" lon="11.3264379"><ele>397.0</ele><time>2026-04-12T08:07:15.154Z</time></trkpt><trkpt lat="43.511804" lon="11.3263346"><ele>396.66666666666663</ele><time>2026-04-12T08:07:16.152Z</time></trkpt><trkpt lat="43.5117868" lon="11.326214"><ele>396.3333333333333</ele><time>2026-04-12T08:07:17.154Z</time></trkpt><trkpt lat="43.511767" lon="11.326091"><ele>396.0</ele><time>2026-04-12T08:07:18.154Z</time></trkpt><trkpt lat="43.5117337" lon="11.3259529"><ele>394.1666666666667</ele><time>2026-04-12T08:07:19.154Z</time></trkpt><trkpt lat="43.5117074" lon="11.3258333"><ele>392.33333333333337</ele><time>2026-04-12T08:07:20.153Z</time></trkpt><trkpt lat="43.5116704" lon="11.3257266"><ele>390.5</ele><time>2026-04-12T08:07:21.155Z</time></trkpt><trkpt lat="43.5116102" lon="11.3256517"><ele>388.6666666666667</ele><time>2026-04-12T08:07:22.154Z</time></trkpt><trkpt lat="43.5115441" lon="11.325591"><ele>386.83333333333337</ele><time>2026-04-12T08:07:23.153Z</time></trkpt><trkpt lat="43.5114418" lon="11.3256098"><ele>385.0</ele><time>2026-04-12T08:07:24.154Z</time></trkpt><trkpt lat="43.5113453" lon="11.32563"><ele>385.0</ele><time>2026-04-12T08:07:25.153Z</time></trkpt><trkpt lat="43.5112531" lon="11.3256726"><ele>385.0</ele><time>2026-04-12T08:07:26.155Z</time></trkpt><trkpt lat="43.5111355" lon="11.3256894"><ele>385.0</ele><time>2026-04-12T08:07:27.154Z</time></trkpt><trkpt lat="43.5110232" lon="11.3257024"><ele>385.0</ele><time>2026-04-12T08:07:28.154Z</time></trkpt><trkpt lat="43.510891" lon="11.3257008"><ele>382.5</ele><time>2026-04-12T08:07:29.154Z</time></trkpt><trkpt lat="43.5107489" lon="11.3256927"><ele>380.0</ele><time>2026-04-12T08:07:30.153Z</time></trkpt><trkpt lat="43.5106068" lon="11.3256747"><ele>377.5</ele><time>2026-04-12T08:07:31.153Z</time></trkpt><trkpt lat="43.5104706" lon="11.3256483"><ele>375.0</ele><time>2026-04-12T08:07:32.155Z</time></trkpt><trkpt lat="43.5103446" lon="11.3256011"><ele>372.8</ele><time>2026-04-12T08:07:33.153Z</time></trkpt><trkpt lat="43.5102265" lon="11.325563"><ele>370.6</ele><time>2026-04-12T08:07:34.154Z</time></trkpt><trkpt lat="43.5101152" lon="11.325516"><ele>368.4</ele><time>2026-04-12T08:07:35.155Z</time></trkpt><trkpt lat="43.5100177" lon="11.3254794"><ele>366.2</ele><time>2026-04-12T08:07:36.154Z</time></trkpt><trkpt lat="43.509927" lon="11.3254247"><ele>364.0</ele><time>2026-04-12T08:07:37.154Z</time></trkpt><trkpt lat="43.5098427" lon="11.3253836"><ele>362.2</ele><time>2026-04-12T08:07:38.155Z</time></trkpt><trkpt lat="43.5097511" lon="11.3253478"><ele>360.4</ele><time>2026-04-12T08:07:39.154Z</time></trkpt><trkpt lat="43.5096592" lon="11.3253345"><ele>358.6</ele><time>2026-04-12T08:07:40.152Z</time></trkpt><trkpt lat="43.5095656" lon="11.3253349"><ele>356.8</ele><time>2026-04-12T08:07:41.154Z</time></trkpt><trkpt lat="43.5094613" lon="11.3253383"><ele>355.0</ele><time>2026-04-12T08:07:42.155Z</time></trkpt><trkpt lat="43.5093556" lon="11.32534"><ele>352.6</ele><time>2026-04-12T08:07:43.155Z</time></trkpt><trkpt lat="43.5092476" lon="11.3253491"><ele>350.2</ele><time>2026-04-12T08:07:44.153Z</time></trkpt><trkpt lat="43.509145" lon="11.3253686"><ele>347.79999999999995</ele><time>2026-04-12T08:07:45.154Z</time></trkpt><trkpt lat="43.5090435" lon="11.3253897"><ele>345.4</ele><time>2026-04-12T08:07:46.155Z</time></trkpt><trkpt lat="43.5089419" lon="11.3254206"><ele>343.0</ele><time>2026-04-12T08:07:47.153Z</time></trkpt><trkpt lat="43.5088422" lon="11.3254596"><ele>343.0</ele><time>2026-04-12T08:07:48.155Z</time></trkpt><trkpt lat="43.5087475" lon="11.3255135"><ele>343.0</ele><time>2026-04-12T08:07:49.153Z</time></trkpt><trkpt lat="43.5086563" lon="11.3255856"><ele>343.0</ele><time>2026-04-12T08:07:50.155Z</time></trkpt><trkpt lat="43.5085726" lon="11.3256663"><ele>343.0</ele><time>2026-04-12T08:07:51.153Z</time></trkpt><trkpt lat="43.5084975" lon="11.325758"><ele>343.0</ele><time>2026-04-12T08:07:52.153Z</time></trkpt><trkpt lat="43.5084312" lon="11.3258577"><ele>340.79999999999995</ele><time>2026-04-12T08:07:53.153Z</time></trkpt><trkpt lat="43.5083755" lon="11.3259577"><ele>338.6</ele><time>2026-04-12T08:07:54.155Z</time></trkpt><trkpt lat="43.5083206" lon="11.3260481"><ele>336.4</ele><time>2026-04-12T08:07:55.154Z</time></trkpt><trkpt lat="43.5082725" lon="11.3261678"><ele>334.20000000000005</ele><time>2026-04-12T08:07:56.154Z</time></trkpt><trkpt lat="43.5082318" lon="11.3262891"><ele>332.0</ele><time>2026-04-12T08:07:57.154Z</time></trkpt><trkpt lat="43.5082007" lon="11.3264069"><ele>331.33333333333337</ele><time>2026-04-12T08:07:58.154Z</time></trkpt><trkpt lat="43.5081811" lon="11.326521"><ele>330.6666666666667</ele><time>2026-04-12T08:07:59.154Z</time></trkpt><trkpt lat="43.5081723" lon="11.3266342"><ele>330.0</ele><time>2026-04-12T08:08:00.155Z</time></trkpt><trkpt lat="43.5081975" lon="11.326744"><ele>329.3333333333333</ele><time>2026-04-12T08:08:01.154Z</time></trkpt><trkpt lat="43.50823" lon="11.3268458"><ele>328.66666666666663</ele><time>2026-04-12T08:08:02.154Z</time></trkpt><trkpt lat="43.5082796" lon="11.3269336"><ele>328.0</ele><time>2026-04-12T08:08:03.154Z</time></trkpt><trkpt lat="43.508341" lon="11.3270152"><ele>328.0</ele><time>2026-04-12T08:08:04.153Z</time></trkpt><trkpt lat="43.5084078" lon="11.3270846"><ele>328.0</ele><time>2026-04-12T08:08:05.154Z</time></trkpt><trkpt lat="43.5084736" lon="11.3271598"><ele>328.0</ele><time>2026-04-12T08:08:06.153Z</time></trkpt><trkpt lat="43.5085365" lon="11.3272166"><ele>328.0</ele><time>2026-04-12T08:08:07.153Z</time></trkpt><trkpt lat="43.5085903" lon="11.3272662"><ele>328.0</ele><time>2026-04-12T08:08:08.154Z</time></trkpt><trkpt lat="43.5086453" lon="11.3273771"><ele>328.0</ele><time>2026-04-12T08:08:10.154Z</time></trkpt><trkpt lat="43.5086102" lon="11.3274736"><ele>325.66666666666663</ele><time>2026-04-12T08:08:12.155Z</time></trkpt><trkpt lat="43.5085176" lon="11.3275111"><ele>323.3333333333333</ele><time>2026-04-12T08:08:14.154Z</time></trkpt><trkpt lat="43.5084291" lon="11.3274864"><ele>321.0</ele><time>2026-04-12T08:08:16.154Z</time></trkpt><trkpt lat="43.5083539" lon="11.3274489"><ele>318.6666666666667</ele><time>2026-04-12T08:08:18.153Z</time></trkpt><trkpt lat="43.5082895" lon="11.3274404"><ele>316.33333333333337</ele><time>2026-04-12T08:08:45.154Z</time></trkpt><trkpt lat="43.5081913" lon="11.3273926"><ele>314.0</ele><time>2026-04-12T08:08:48.154Z</time></trkpt><trkpt lat="43.5080844" lon="11.3272958"><ele>314.0</ele><time>2026-04-12T08:08:50.155Z</time></trkpt><trkpt lat="43.5080159" lon="11.3272429"><ele>314.0</ele><time>2026-04-12T08:08:51.155Z</time></trkpt><trkpt lat="43.5079449" lon="11.3271832"><ele>314.0</ele><time>2026-04-12T08:08:52.154Z</time></trkpt><trkpt lat="43.5078591" lon="11.3271145"><ele>314.0</ele><time>2026-04-12T08:08:53.153Z</time></trkpt><trkpt lat="43.507777" lon="11.3270532"><ele>314.0</ele><time>2026-04-12T08:08:54.154Z</time></trkpt><trkpt lat="43.5076867" lon="11.3270061"><ele>312.4</ele><time>2026-04-12T08:08:55.154Z</time></trkpt><trkpt lat="43.5076036" lon="11.3269573"><ele>310.79999999999995</ele><time>2026-04-12T08:08:56.154Z</time></trkpt><trkpt lat="43.507534" lon="11.3269129"><ele>309.20000000000005</ele><time>2026-04-12T08:08:57.153Z</time></trkpt><trkpt lat="43.5074427" lon="11.3268455"><ele>307.6</ele><time>2026-04-12T08:08:59.155Z</time></trkpt><trkpt lat="43.5073642" lon="11.3268221"><ele>306.0</ele><time>2026-04-12T08:09:02.153Z</time></trkpt><trkpt lat="43.5072788" lon="11.3269031"><ele>306.0</ele><time>2026-04-12T08:09:04.154Z</time></trkpt><trkpt lat="43.507211" lon="11.3269675"><ele>306.0</ele><time>2026-04-12T08:09:05.155Z</time></trkpt><trkpt lat="43.507111" lon="11.3270255"><ele>306.0</ele><time>2026-04-12T08:09:06.154Z</time></trkpt><trkpt lat="43.5069868" lon="11.3270764"><ele>306.0</ele><time>2026-04-12T08:09:07.153Z</time></trkpt><trkpt lat="43.5068371" lon="11.3271335"><ele>303.3333333333333</ele><time>2026-04-12T08:09:08.154Z</time></trkpt><trkpt lat="43.5066812" lon="11.3272098"><ele>300.66666666666663</ele><time>2026-04-12T08:09:09.155Z</time></trkpt><trkpt lat="43.5065129" lon="11.3273037"><ele>298.0</ele><time>2026-04-12T08:09:10.154Z</time></trkpt><trkpt lat="43.5063415" lon="11.3274175"><ele>298.3333333333333</ele><time>2026-04-12T08:09:11.154Z</time></trkpt><trkpt lat="43.5061652" lon="11.3275644"><ele>298.6666666666667</ele><time>2026-04-12T08:09:12.153Z</time></trkpt><trkpt lat="43.5059931" lon="11.3277314"><ele>299.0</ele><time>2026-04-12T08:09:13.154Z</time></trkpt><trkpt lat="43.5058173" lon="11.3279125"><ele>299.5</ele><time>2026-04-12T08:09:14.154Z</time></trkpt><trkpt lat="43.5056403" lon="11.3281004"><ele>300.0</ele><time>2026-04-12T08:09:15.153Z</time></trkpt><trkpt lat="43.5054547" lon="11.3282854"><ele>301.3333333333333</ele><time>2026-04-12T08:09:16.153Z</time></trkpt><trkpt lat="43.50527" lon="11.3284623"><ele>302.66666666666663</ele><time>2026-04-12T08:09:17.155Z</time></trkpt><trkpt lat="43.5050915" lon="11.3286218"><ele>304.0</ele><time>2026-04-12T08:09:18.154Z</time></trkpt><trkpt lat="43.5049178" lon="11.3287589"><ele>304.0</ele><time>2026-04-12T08:09:19.153Z</time></trkpt><trkpt lat="43.5047582" lon="11.3288838"><ele>304.0</ele><time>2026-04-12T08:09:20.154Z</time></trkpt><trkpt lat="43.5045948" lon="11.3290012"><ele>304.0</ele><time>2026-04-12T08:09:21.153Z</time></trkpt><trkpt lat="43.5044348" lon="11.32911"><ele>304.3333333333333</ele><time>2026-04-12T08:09:22.154Z</time></trkpt><trkpt lat="43.5042707" lon="11.3292115"><ele>304.6666666666667</ele><time>2026-04-12T08:09:23.153Z</time></trkpt><trkpt lat="43.5040943" lon="11.3292927"><ele>305.0</ele><time>2026-04-12T08:09:24.155Z</time></trkpt><trkpt lat="43.503924" lon="11.3293966"><ele>305.0</ele><time>2026-04-12T08:09:25.154Z</time></trkpt><trkpt lat="43.5037687" lon="11.3295446"><ele>305.0</ele><time>2026-04-12T08:09:26.154Z</time></trkpt><trkpt lat="43.5036213" lon="11.3297062"><ele>305.0</ele><time>2026-04-12T08:09:27.156Z</time></trkpt><trkpt lat="43.5034993" lon="11.3299374"><ele>305.33333333333337</ele><time>2026-04-12T08:09:28.153Z</time></trkpt><trkpt lat="43.5033732" lon="11.3301588"><ele>305.6666666666667</ele><time>2026-04-12T08:09:29.154Z</time></trkpt><trkpt lat="43.5032398" lon="11.330378"><ele>306.0</ele><time>2026-04-12T08:09:30.154Z</time></trkpt><trkpt lat="43.5030993" lon="11.3305882"><ele>306.0</ele><time>2026-04-12T08:09:31.153Z</time></trkpt><trkpt lat="43.5029544" lon="11.3307924"><ele>306.0</ele><time>2026-04-12T08:09:32.155Z</time></trkpt><trkpt lat="43.5028104" lon="11.3309974"><ele>306.0</ele><time>2026-04-12T08:09:33.154Z</time></trkpt><trkpt lat="43.5026709" lon="11.33121"><ele>306.3333333333333</ele><time>2026-04-12T08:09:34.154Z</time></trkpt><trkpt lat="43.5025352" lon="11.3314255"><ele>306.66666666666663</ele><time>2026-04-12T08:09:35.155Z</time></trkpt><trkpt lat="43.5023978" lon="11.3316434"><ele>307.0</ele><time>2026-04-12T08:09:36.153Z</time></trkpt><trkpt lat="43.5022494" lon="11.331856"><ele>307.0</ele><time>2026-04-12T08:09:37.153Z</time></trkpt><trkpt lat="43.5020927" lon="11.3320583"><ele>307.0</ele><time>2026-04-12T08:09:38.154Z</time></trkpt><trkpt lat="43.5019171" lon="11.3322332"><ele>307.0</ele><time>2026-04-12T08:09:39.154Z</time></trkpt><trkpt lat="43.5017293" lon="11.3323953"><ele>307.66666666666663</ele><time>2026-04-12T08:09:40.154Z</time></trkpt><trkpt lat="43.5015455" lon="11.3325691"><ele>308.3333333333333</ele><time>2026-04-12T08:09:41.155Z</time></trkpt><trkpt lat="43.5013634" lon="11.3327505"><ele>309.0</ele><time>2026-04-12T08:09:42.153Z</time></trkpt><trkpt lat="43.5011888" lon="11.3329388"><ele>310.3333333333333</ele><time>2026-04-12T08:09:43.154Z</time></trkpt><trkpt lat="43.5010234" lon="11.3331319"><ele>311.66666666666663</ele><time>2026-04-12T08:09:44.154Z</time></trkpt><trkpt lat="43.5008623" lon="11.3333434"><ele>313.0</ele><time>2026-04-12T08:09:45.154Z</time></trkpt><trkpt lat="43.5007058" lon="11.3335611"><ele>313.0</ele><time>2026-04-12T08:09:46.153Z</time></trkpt><trkpt lat="43.5005688" lon="11.3337967"><ele>313.0</ele><time>2026-04-12T08:09:47.153Z</time></trkpt><trkpt lat="43.5004393" lon="11.3340486"><ele>313.0</ele><time>2026-04-12T08:09:48.153Z</time></trkpt><trkpt lat="43.5003194" lon="11.3343065"><ele>312.3333333333333</ele><time>2026-04-12T08:09:49.154Z</time></trkpt><trkpt lat="43.5001966" lon="11.3345588"><ele>311.6666666666667</ele><time>2026-04-12T08:09:50.155Z</time></trkpt><trkpt lat="43.5000743" lon="11.334812"><ele>311.0</ele><time>2026-04-12T08:09:51.155Z</time></trkpt><trkpt lat="43.4999534" lon="11.3350644"><ele>311.0</ele><time>2026-04-12T08:09:52.154Z</time></trkpt><trkpt lat="43.499835" lon="11.3353216"><ele>311.0</ele><time>2026-04-12T08:09:53.155Z</time></trkpt><trkpt lat="43.4997093" lon="11.335581"><ele>311.0</ele><time>2026-04-12T08:09:54.153Z</time></trkpt><trkpt lat="43.4995883" lon="11.3358339"><ele>311.33333333333337</ele><time>2026-04-12T08:09:55.156Z</time></trkpt><trkpt lat="43.4994647" lon="11.3360882"><ele>311.6666666666667</ele><time>2026-04-12T08:09:56.153Z</time></trkpt><trkpt lat="43.499337" lon="11.3363366"><ele>312.0</ele><time>2026-04-12T08:09:57.153Z</time></trkpt><trkpt lat="43.4992066" lon="11.3365792"><ele>312.0</ele><time>2026-04-12T08:09:58.154Z</time></trkpt><trkpt lat="43.4990668" lon="11.3368262"><ele>312.0</ele><time>2026-04-12T08:09:59.154Z</time></trkpt><trkpt lat="43.4989118" lon="11.3370524"><ele>311.0</ele><time>2026-04-12T08:10:00.153Z</time></trkpt><trkpt lat="43.4987517" lon="11.3372648"><ele>310.0</ele><time>2026-04-12T08:10:01.153Z</time></trkpt><trkpt lat="43.4985852" lon="11.3374723"><ele>309.0</ele><time>2026-04-12T08:10:02.154Z</time></trkpt><trkpt lat="43.4984169" lon="11.3376686"><ele>310.3333333333333</ele><time>2026-04-12T08:10:03.155Z</time></trkpt><trkpt lat="43.4982496" lon="11.3378638"><ele>311.66666666666663</ele><time>2026-04-12T08:10:04.154Z</time></trkpt><trkpt lat="43.4980945" lon="11.3380722"><ele>313.0</ele><time>2026-04-12T08:10:05.153Z</time></trkpt><trkpt lat="43.4979517" lon="11.3383022"><ele>314.66666666666663</ele><time>2026-04-12T08:10:06.154Z</time></trkpt><trkpt lat="43.4978168" lon="11.3385428"><ele>316.3333333333333</ele><time>2026-04-12T08:10:07.154Z</time></trkpt><trkpt lat="43.4976828" lon="11.3387853"><ele>318.0</ele><time>2026-04-12T08:10:08.155Z</time></trkpt><trkpt lat="43.4975505" lon="11.3390336"><ele>318.0</ele><time>2026-04-12T08:10:09.154Z</time></trkpt><trkpt lat="43.4974264" lon="11.3392984"><ele>318.0</ele><time>2026-04-12T08:10:10.154Z</time></trkpt><trkpt lat="43.4973253" lon="11.3395863"><ele>314.5</ele><time>2026-04-12T08:10:11.155Z</time></trkpt><trkpt lat="43.4972336" lon="11.3398813"><ele>311.0</ele><time>2026-04-12T08:10:12.153Z</time></trkpt><trkpt lat="43.4971461" lon="11.3401768"><ele>315.5</ele><time>2026-04-12T08:10:13.155Z</time></trkpt><trkpt lat="43.4970637" lon="11.3404698"><ele>320.0</ele><time>2026-04-12T08:10:14.154Z</time></trkpt><trkpt lat="43.4969843" lon="11.3407601"><ele>320.0</ele><time>2026-04-12T08:10:15.155Z</time></trkpt><trkpt lat="43.4969067" lon="11.3410531"><ele>320.0</ele><time>2026-04-12T08:10:16.154Z</time></trkpt><trkpt lat="43.4968249" lon="11.3413389"><ele>320.0</ele><time>2026-04-12T08:10:17.154Z</time></trkpt><trkpt lat="43.4967398" lon="11.3416271"><ele>319.6666666666667</ele><time>2026-04-12T08:10:18.155Z</time></trkpt><trkpt lat="43.4966492" lon="11.3419076"><ele>319.3333333333333</ele><time>2026-04-12T08:10:19.155Z</time></trkpt><trkpt lat="43.4965471" lon="11.3421696"><ele>319.0</ele><time>2026-04-12T08:10:20.154Z</time></trkpt><trkpt lat="43.4964312" lon="11.3424158"><ele>319.0</ele><time>2026-04-12T08:10:21.154Z</time></trkpt><trkpt lat="43.4962908" lon="11.3426436"><ele>319.0</ele><time>2026-04-12T08:10:22.154Z</time></trkpt><trkpt lat="43.4961409" lon="11.3428522"><ele>319.0</ele><time>2026-04-12T08:10:23.156Z</time></trkpt><trkpt lat="43.4959977" lon="11.3430523"><ele>319.66666666666663</ele><time>2026-04-12T08:10:24.155Z</time></trkpt><trkpt lat="43.4958768" lon="11.3432584"><ele>320.3333333333333</ele><time>2026-04-12T08:10:25.155Z</time></trkpt><trkpt lat="43.4957677" lon="11.3434706"><ele>321.0</ele><time>2026-04-12T08:10:26.155Z</time></trkpt><trkpt lat="43.4956659" lon="11.3436923"><ele>320.0</ele><time>2026-04-12T08:10:27.154Z</time></trkpt><trkpt lat="43.4955667" lon="11.3439255"><ele>319.0</ele><time>2026-04-12T08:10:28.155Z</time></trkpt><trkpt lat="43.4954679" lon="11.3441649"><ele>318.0</ele><time>2026-04-12T08:10:29.154Z</time></trkpt><trkpt lat="43.4953738" lon="11.344403"><ele>319.0</ele><time>2026-04-12T08:10:30.154Z</time></trkpt><trkpt lat="43.4952845" lon="11.3446392"><ele>320.0</ele><time>2026-04-12T08:10:31.155Z</time></trkpt><trkpt lat="43.4952003" lon="11.3448848"><ele>321.0</ele><time>2026-04-12T08:10:32.155Z</time></trkpt><trkpt lat="43.4951126" lon="11.3451191"><ele>321.0</ele><time>2026-04-12T08:10:33.153Z</time></trkpt><trkpt lat="43.4950216" lon="11.345351"><ele>321.0</ele><time>2026-04-12T08:10:34.154Z</time></trkpt><trkpt lat="43.4949327" lon="11.34559"><ele>321.0</ele><time>2026-04-12T08:10:35.153Z</time></trkpt><trkpt lat="43.4948427" lon="11.3458374"><ele>320.6666666666667</ele><time>2026-04-12T08:10:36.155Z</time></trkpt><trkpt lat="43.4947534" lon="11.3460897"><ele>320.33333333333337</ele><time>2026-04-12T08:10:37.153Z</time></trkpt><trkpt lat="43.494665" lon="11.3463405"><ele>320.0</ele><time>2026-04-12T08:10:38.154Z</time></trkpt><trkpt lat="43.4945734" lon="11.3465886"><ele>322.0</ele><time>2026-04-12T08:10:39.154Z</time></trkpt><trkpt lat="43.4944894" lon="11.3468319"><ele>324.0</ele><time>2026-04-12T08:10:40.154Z</time></trkpt><trkpt lat="43.4943981" lon="11.3470755"><ele>326.0</ele><time>2026-04-12T08:10:41.155Z</time></trkpt><trkpt lat="43.4942958" lon="11.3473056"><ele>326.0</ele><time>2026-04-12T08:10:42.153Z</time></trkpt><trkpt lat="43.4941734" lon="11.3475249"><ele>326.0</ele><time>2026-04-12T08:10:43.154Z</time></trkpt><trkpt lat="43.4940504" lon="11.3477497"><ele>326.0</ele><time>2026-04-12T08:10:44.154Z</time></trkpt><trkpt lat="43.4939177" lon="11.3479631"><ele>326.0</ele><time>2026-04-12T08:10:45.154Z</time></trkpt><trkpt lat="43.4937802" lon="11.3481709"><ele>326.0</ele><time>2026-04-12T08:10:46.155Z</time></trkpt><trkpt lat="43.493642" lon="11.3483747"><ele>326.0</ele><time>2026-04-12T08:10:47.155Z</time></trkpt><trkpt lat="43.4935016" lon="11.3485702"><ele>326.0</ele><time>2026-04-12T08:10:48.154Z</time></trkpt><trkpt lat="43.4933551" lon="11.3487572"><ele>326.0</ele><time>2026-04-12T08:10:49.154Z</time></trkpt><trkpt lat="43.4932071" lon="11.3489326"><ele>326.0</ele><time>2026-04-12T08:10:50.155Z</time></trkpt><trkpt lat="43.4930483" lon="11.3490922"><ele>327.33333333333337</ele><time>2026-04-12T08:10:51.155Z</time></trkpt><trkpt lat="43.4928849" lon="11.3492309"><ele>328.6666666666667</ele><time>2026-04-12T08:10:52.153Z</time></trkpt><trkpt lat="43.4927175" lon="11.34939"><ele>330.0</ele><time>2026-04-12T08:10:53.154Z</time></trkpt><trkpt lat="43.4925494" lon="11.349546"><ele>330.0</ele><time>2026-04-12T08:10:54.154Z</time></trkpt><trkpt lat="43.4923846" lon="11.3497019"><ele>330.0</ele><time>2026-04-12T08:10:55.155Z</time></trkpt><trkpt lat="43.4922213" lon="11.3498661"><ele>330.0</ele><time>2026-04-12T08:10:56.154Z</time></trkpt><trkpt lat="43.492063" lon="11.3500296"><ele>331.3333333333333</ele><time>2026-04-12T08:10:57.154Z</time></trkpt><trkpt lat="43.4919081" lon="11.3501847"><ele>332.66666666666663</ele><time>2026-04-12T08:10:58.154Z</time></trkpt><trkpt lat="43.49175" lon="11.3503355"><ele>334.0</ele><time>2026-04-12T08:10:59.154Z</time></trkpt><trkpt lat="43.4915973" lon="11.3504799"><ele>334.0</ele><time>2026-04-12T08:11:00.154Z</time></trkpt><trkpt lat="43.4914469" lon="11.3506195"><ele>334.0</ele><time>2026-04-12T08:11:01.154Z</time></trkpt><trkpt lat="43.4913062" lon="11.350752"><ele>334.0</ele><time>2026-04-12T08:11:02.155Z</time></trkpt><trkpt lat="43.4911553" lon="11.3508718"><ele>334.0</ele><time>2026-04-12T08:11:03.154Z</time></trkpt><trkpt lat="43.4909896" lon="11.3509658"><ele>334.0</ele><time>2026-04-12T08:11:04.155Z</time></trkpt><trkpt lat="43.4908201" lon="11.3510451"><ele>334.0</ele><time>2026-04-12T08:11:05.155Z</time></trkpt><trkpt lat="43.4906606" lon="11.3511382"><ele>334.0</ele><time>2026-04-12T08:11:06.154Z</time></trkpt><trkpt lat="43.490513" lon="11.3512586"><ele>334.0</ele><time>2026-04-12T08:11:07.155Z</time></trkpt><trkpt lat="43.4903905" lon="11.3514097"><ele>334.0</ele><time>2026-04-12T08:11:08.155Z</time></trkpt><trkpt lat="43.4902971" lon="11.3515786"><ele>333.75</ele><time>2026-04-12T08:11:09.153Z</time></trkpt><trkpt lat="43.4902391" lon="11.3517586"><ele>333.5</ele><time>2026-04-12T08:11:10.154Z</time></trkpt><trkpt lat="43.490229" lon="11.3519464"><ele>333.25</ele><time>2026-04-12T08:11:11.155Z</time></trkpt><trkpt lat="43.4902532" lon="11.3521394"><ele>333.0</ele><time>2026-04-12T08:11:12.154Z</time></trkpt><trkpt lat="43.4902932" lon="11.352324"><ele>333.75</ele><time>2026-04-12T08:11:13.153Z</time></trkpt><trkpt lat="43.4903495" lon="11.3525036"><ele>334.5</ele><time>2026-04-12T08:11:14.153Z</time></trkpt><trkpt lat="43.4904205" lon="11.3526802"><ele>335.25</ele><time>2026-04-12T08:11:15.155Z</time></trkpt><trkpt lat="43.4904866" lon="11.3528516"><ele>336.0</ele><time>2026-04-12T08:11:16.154Z</time></trkpt><trkpt lat="43.4905431" lon="11.35302"><ele>335.25</ele><time>2026-04-12T08:11:17.154Z</time></trkpt><trkpt lat="43.4905932" lon="11.3531874"><ele>334.5</ele><time>2026-04-12T08:11:18.154Z</time></trkpt><trkpt lat="43.4906247" lon="11.3533606"><ele>333.75</ele><time>2026-04-12T08:11:19.154Z</time></trkpt><trkpt lat="43.4906399" lon="11.3535212"><ele>333.0</ele><time>2026-04-12T08:11:20.155Z</time></trkpt><trkpt lat="43.490651" lon="11.3536802"><ele>333.0</ele><time>2026-04-12T08:11:21.155Z</time></trkpt><trkpt lat="43.4906672" lon="11.353831"><ele>333.0</ele><time>2026-04-12T08:11:22.155Z</time></trkpt><trkpt lat="43.4906926" lon="11.3539672"><ele>333.0</ele><time>2026-04-12T08:11:23.155Z</time></trkpt><trkpt lat="43.4907294" lon="11.3540845"><ele>333.0</ele><time>2026-04-12T08:11:24.154Z</time></trkpt><trkpt lat="43.4907718" lon="11.3541888"><ele>333.0</ele><time>2026-04-12T08:11:25.156Z</time></trkpt><trkpt lat="43.4908198" lon="11.3542471"><ele>333.2857142857143</ele><time>2026-04-12T08:11:26.155Z</time></trkpt><trkpt lat="43.490903" lon="11.3542517"><ele>333.57142857142856</ele><time>2026-04-12T08:11:28.155Z</time></trkpt><trkpt lat="43.4909437" lon="11.3541707"><ele>333.85714285714283</ele><time>2026-04-12T08:11:32.154Z</time></trkpt><trkpt lat="43.4909358" lon="11.3542666"><ele>334.1428571428571</ele><time>2026-04-12T08:13:39.154Z</time></trkpt><trkpt lat="43.4909186" lon="11.3543526"><ele>334.42857142857144</ele><time>2026-04-12T08:13:59.155Z</time></trkpt><trkpt lat="43.4909332" lon="11.3544443"><ele>334.71428571428567</ele><time>2026-04-12T08:14:01.155Z</time></trkpt><trkpt lat="43.4909792" lon="11.354528"><ele>335.0</ele><time>2026-04-12T08:14:03.155Z</time></trkpt><trkpt lat="43.4909982" lon="11.3546176"><ele>336.0</ele><time>2026-04-12T08:14:05.155Z</time></trkpt><trkpt lat="43.4909772" lon="11.3547067"><ele>337.0</ele><time>2026-04-12T08:14:08.154Z</time></trkpt><trkpt lat="43.4909335" lon="11.3547937"><ele>338.0</ele><time>2026-04-12T08:14:11.155Z</time></trkpt><trkpt lat="43.4908989" lon="11.3548808"><ele>339.0</ele><time>2026-04-12T08:14:13.154Z</time></trkpt><trkpt lat="43.4908488" lon="11.3549834"><ele>340.0</ele><time>2026-04-12T08:14:16.155Z</time></trkpt><trkpt lat="43.4907717" lon="11.3550767"><ele>341.0</ele><time>2026-04-12T08:14:18.155Z</time></trkpt><trkpt lat="43.4907057" lon="11.3551389"><ele>341.0</ele><time>2026-04-12T08:14:19.155Z</time></trkpt><trkpt lat="43.4906346" lon="11.3552077"><ele>341.0</ele><time>2026-04-12T08:14:20.154Z</time></trkpt><trkpt lat="43.4905485" lon="11.3552709"><ele>341.0</ele><time>2026-04-12T08:14:21.155Z</time></trkpt><trkpt lat="43.4904565" lon="11.3553363"><ele>341.0</ele><time>2026-04-12T08:14:22.154Z</time></trkpt><trkpt lat="43.4903515" lon="11.3553957"><ele>341.0</ele><time>2026-04-12T08:14:23.156Z</time></trkpt><trkpt lat="43.4902396" lon="11.3554625"><ele>342.6</ele><time>2026-04-12T08:14:24.156Z</time></trkpt><trkpt lat="43.4901259" lon="11.3555186"><ele>344.20000000000005</ele><time>2026-04-12T08:14:25.154Z</time></trkpt><trkpt lat="43.4900236" lon="11.3555677"><ele>345.79999999999995</ele><time>2026-04-12T08:14:26.156Z</time></trkpt><trkpt lat="43.489944" lon="11.355603"><ele>347.4</ele><time>2026-04-12T08:14:27.155Z</time></trkpt><trkpt lat="43.4898833" lon="11.3557286"><ele>349.0</ele><time>2026-04-12T08:14:29.156Z</time></trkpt><trkpt lat="43.4899074" lon="11.3558147"><ele>349.57142857142856</ele><time>2026-04-12T08:14:30.154Z</time></trkpt><trkpt lat="43.4899662" lon="11.3558772"><ele>350.1428571428571</ele><time>2026-04-12T08:14:31.155Z</time></trkpt><trkpt lat="43.4900206" lon="11.3559264"><ele>350.71428571428567</ele><time>2026-04-12T08:14:32.156Z</time></trkpt><trkpt lat="43.490082" lon="11.3559781"><ele>351.2857142857143</ele><time>2026-04-12T08:14:33.155Z</time></trkpt><trkpt lat="43.4901295" lon="11.3560447"><ele>351.8571428571429</ele><time>2026-04-12T08:14:34.155Z</time></trkpt><trkpt lat="43.4901596" lon="11.3561229"><ele>352.4285714285714</ele><time>2026-04-12T08:14:35.154Z</time></trkpt><trkpt lat="43.4901513" lon="11.3562179"><ele>353.0</ele><time>2026-04-12T08:14:36.153Z</time></trkpt><trkpt lat="43.4901076" lon="11.3563056"><ele>355.59999999999997</ele><time>2026-04-12T08:14:37.156Z</time></trkpt><trkpt lat="43.4900438" lon="11.3563804"><ele>358.2</ele><time>2026-04-12T08:14:38.155Z</time></trkpt><trkpt lat="43.4899746" lon="11.3564557"><ele>360.8</ele><time>2026-04-12T08:14:39.155Z</time></trkpt><trkpt lat="43.4898968" lon="11.356537"><ele>363.4</ele><time>2026-04-12T08:14:40.156Z</time></trkpt><trkpt lat="43.4898173" lon="11.3566356"><ele>366.0</ele><time>2026-04-12T08:14:41.155Z</time></trkpt><trkpt lat="43.4897219" lon="11.3567448"><ele>366.0</ele><time>2026-04-12T08:14:42.154Z</time></trkpt><trkpt lat="43.4896132" lon="11.3568628"><ele>366.0</ele><time>2026-04-12T08:14:43.156Z</time></trkpt><trkpt lat="43.4894934" lon="11.3570009"><ele>366.0</ele><time>2026-04-12T08:14:44.154Z</time></trkpt><trkpt lat="43.4893855" lon="11.357162"><ele>370.0</ele><time>2026-04-12T08:14:45.154Z</time></trkpt><trkpt lat="43.4892879" lon="11.3573457"><ele>374.0</ele><time>2026-04-12T08:14:46.154Z</time></trkpt><trkpt lat="43.4892014" lon="11.3575561"><ele>378.0</ele><time>2026-04-12T08:14:47.155Z</time></trkpt><trkpt lat="43.489125" lon="11.3577906"><ele>378.0</ele><time>2026-04-12T08:14:48.155Z</time></trkpt><trkpt lat="43.4890626" lon="11.3580315"><ele>378.0</ele><time>2026-04-12T08:14:49.154Z</time></trkpt><trkpt lat="43.4890142" lon="11.3582861"><ele>378.0</ele><time>2026-04-12T08:14:50.156Z</time></trkpt><trkpt lat="43.4889758" lon="11.3585389"><ele>382.66666666666663</ele><time>2026-04-12T08:14:51.155Z</time></trkpt><trkpt lat="43.4889316" lon="11.3587966"><ele>387.3333333333333</ele><time>2026-04-12T08:14:52.156Z</time></trkpt><trkpt lat="43.4888852" lon="11.3590553"><ele>392.0</ele><time>2026-04-12T08:14:53.154Z</time></trkpt><trkpt lat="43.488835" lon="11.3593051"><ele>395.66666666666663</ele><time>2026-04-12T08:14:54.156Z</time></trkpt><trkpt lat="43.4887651" lon="11.3595515"><ele>399.33333333333337</ele><time>2026-04-12T08:14:55.156Z</time></trkpt><trkpt lat="43.4886783" lon="11.3597848"><ele>403.0</ele><time>2026-04-12T08:14:56.154Z</time></trkpt><trkpt lat="43.4885864" lon="11.3600168"><ele>405.0</ele><time>2026-04-12T08:14:57.154Z</time></trkpt><trkpt lat="43.4884876" lon="11.3602497"><ele>407.0</ele><time>2026-04-12T08:14:58.156Z</time></trkpt><trkpt lat="43.4883865" lon="11.3604808"><ele>409.0</ele><time>2026-04-12T08:14:59.155Z</time></trkpt><trkpt lat="43.4882997" lon="11.3606783"><ele>411.2</ele><time>2026-04-12T08:15:00.156Z</time></trkpt><trkpt lat="43.4882217" lon="11.3608474"><ele>413.4</ele><time>2026-04-12T08:15:01.155Z</time></trkpt><trkpt lat="43.4881584" lon="11.3609835"><ele>415.6</ele><time>2026-04-12T08:15:02.155Z</time></trkpt><trkpt lat="43.4881348" lon="11.3610883"><ele>417.8</ele><time>2026-04-12T08:15:03.155Z</time></trkpt><trkpt lat="43.4881491" lon="11.3611771"><ele>420.0</ele><time>2026-04-12T08:15:04.154Z</time></trkpt><trkpt lat="43.4882068" lon="11.3612519"><ele>420.0</ele><time>2026-04-12T08:15:05.156Z</time></trkpt><trkpt lat="43.4882934" lon="11.3612917"><ele>420.0</ele><time>2026-04-12T08:15:06.154Z</time></trkpt><trkpt lat="43.4883769" lon="11.3613208"><ele>420.0</ele><time>2026-04-12T08:15:07.155Z</time></trkpt><trkpt lat="43.4884379" lon="11.3613838"><ele>420.0</ele><time>2026-04-12T08:15:08.155Z</time></trkpt><trkpt lat="43.4884268" lon="11.361534"><ele>420.0</ele><time>2026-04-12T08:15:10.154Z</time></trkpt><trkpt lat="43.488366" lon="11.3616064"><ele>420.0</ele><time>2026-04-12T08:15:11.155Z</time></trkpt><trkpt lat="43.4882718" lon="11.3616833"><ele>424.0</ele><time>2026-04-12T08:15:12.155Z</time></trkpt><trkpt lat="43.4881732" lon="11.3617639"><ele>428.0</ele><time>2026-04-12T08:15:13.155Z</time></trkpt><trkpt lat="43.4880761" lon="11.3618659"><ele>432.0</ele><time>2026-04-12T08:15:14.155Z</time></trkpt><trkpt lat="43.4880021" lon="11.3620166"><ele>436.0</ele><time>2026-04-12T08:15:15.155Z</time></trkpt><trkpt lat="43.4879461" lon="11.3622054"><ele>439.0</ele><time>2026-04-12T08:15:16.155Z</time></trkpt><trkpt lat="43.4878961" lon="11.3623888"><ele>442.0</ele><time>2026-04-12T08:15:17.156Z</time></trkpt><trkpt lat="43.4878383" lon="11.3625943"><ele>445.0</ele><time>2026-04-12T08:15:18.156Z</time></trkpt><trkpt lat="43.4877759" lon="11.3627891"><ele>445.0</ele><time>2026-04-12T08:15:19.156Z</time></trkpt><trkpt lat="43.4877088" lon="11.3629644"><ele>445.0</ele><time>2026-04-12T08:15:20.154Z</time></trkpt><trkpt lat="43.4876226" lon="11.363122"><ele>445.0</ele><time>2026-04-12T08:15:21.154Z</time></trkpt><trkpt lat="43.4875209" lon="11.3632679"><ele>445.0</ele><time>2026-04-12T08:15:22.155Z</time></trkpt><trkpt lat="43.4873756" lon="11.3633938"><ele>447.0</ele><time>2026-04-12T08:15:23.155Z</time></trkpt><trkpt lat="43.4872372" lon="11.3635237"><ele>449.0</ele><time>2026-04-12T08:15:24.155Z</time></trkpt><trkpt lat="43.487095" lon="11.3636543"><ele>451.0</ele><time>2026-04-12T08:15:25.155Z</time></trkpt><trkpt lat="43.4869452" lon="11.3637893"><ele>456.0</ele><time>2026-04-12T08:15:26.154Z</time></trkpt><trkpt lat="43.4867997" lon="11.363937"><ele>461.0</ele><time>2026-04-12T08:15:27.154Z</time></trkpt><trkpt lat="43.4866906" lon="11.364087"><ele>466.0</ele><time>2026-04-12T08:15:28.155Z</time></trkpt><trkpt lat="43.4866021" lon="11.3642236"><ele>466.0</ele><time>2026-04-12T08:15:29.154Z</time></trkpt><trkpt lat="43.4865371" lon="11.3643533"><ele>466.0</ele><time>2026-04-12T08:15:30.156Z</time></trkpt><trkpt lat="43.4864665" lon="11.3644643"><ele>466.0</ele><time>2026-04-12T08:15:31.155Z</time></trkpt><trkpt lat="43.4863879" lon="11.3645692"><ele>466.0</ele><time>2026-04-12T08:15:32.155Z</time></trkpt><trkpt lat="43.4863052" lon="11.3646693"><ele>466.0</ele><time>2026-04-12T08:15:33.155Z</time></trkpt><trkpt lat="43.4862253" lon="11.3647903"><ele>470.20000000000005</ele><time>2026-04-12T08:15:34.156Z</time></trkpt><trkpt lat="43.4861601" lon="11.3649204"><ele>474.40000000000003</ele><time>2026-04-12T08:15:35.155Z</time></trkpt><trkpt lat="43.486104" lon="11.3650233"><ele>478.6</ele><time>2026-04-12T08:15:36.156Z</time></trkpt><trkpt lat="43.4860541" lon="11.3651207"><ele>482.8</ele><time>2026-04-12T08:15:37.155Z</time></trkpt><trkpt lat="43.4859978" lon="11.3652058"><ele>487.0</ele><time>2026-04-12T08:15:38.155Z</time></trkpt><trkpt lat="43.4859274" lon="11.3652722"><ele>487.00000000000006</ele><time>2026-04-12T08:15:39.156Z</time></trkpt><trkpt lat="43.48586" lon="11.3653397"><ele>487.0</ele><time>2026-04-12T08:15:40.155Z</time></trkpt><trkpt lat="43.4857878" lon="11.3653856"><ele>487.0</ele><time>2026-04-12T08:15:41.154Z</time></trkpt><trkpt lat="43.4857273" lon="11.3654416"><ele>487.0</ele><time>2026-04-12T08:15:42.156Z</time></trkpt><trkpt lat="43.4856682" lon="11.3654937"><ele>487.00000000000006</ele><time>2026-04-12T08:15:43.155Z</time></trkpt><trkpt lat="43.4856055" lon="11.3655397"><ele>487.0</ele><time>2026-04-12T08:15:44.155Z</time></trkpt><trkpt lat="43.4855022" lon="11.3656344"><ele>488.8</ele><time>2026-04-12T08:15:46.155Z</time></trkpt><trkpt lat="43.4854158" lon="11.3657261"><ele>490.6</ele><time>2026-04-12T08:15:48.154Z</time></trkpt><trkpt lat="43.4853223" lon="11.3658192"><ele>492.40000000000003</ele><time>2026-04-12T08:15:50.155Z</time></trkpt><trkpt lat="43.4852134" lon="11.3659189"><ele>494.20000000000005</ele><time>2026-04-12T08:15:52.154Z</time></trkpt><trkpt lat="43.4851606" lon="11.3659741"><ele>496.0</ele><time>2026-04-12T08:15:53.154Z</time></trkpt><trkpt lat="43.4851049" lon="11.3660394"><ele>496.0</ele><time>2026-04-12T08:15:54.156Z</time></trkpt><trkpt lat="43.4850509" lon="11.3660964"><ele>496.00000000000006</ele><time>2026-04-12T08:15:55.155Z</time></trkpt><trkpt lat="43.4849926" lon="11.3661474"><ele>496.0</ele><time>2026-04-12T08:15:56.156Z</time></trkpt><trkpt lat="43.4849424" lon="11.3661999"><ele>496.0</ele><time>2026-04-12T08:15:57.155Z</time></trkpt><trkpt lat="43.4848604" lon="11.3662778"><ele>496.00000000000006</ele><time>2026-04-12T08:15:59.156Z</time></trkpt><trkpt lat="43.4848039" lon="11.3663379"><ele>496.0</ele><time>2026-04-12T08:16:02.155Z</time></trkpt><trkpt lat="43.4847488" lon="11.3663847"><ele>496.0</ele><time>2026-04-12T08:16:04.154Z</time></trkpt><trkpt lat="43.4846886" lon="11.3664319"><ele>495.8</ele><time>2026-04-12T08:16:06.156Z</time></trkpt><trkpt lat="43.4845928" lon="11.3664966"><ele>495.6</ele><time>2026-04-12T08:16:08.155Z</time></trkpt><trkpt lat="43.4845138" lon="11.3665835"><ele>495.4</ele><time>2026-04-12T08:16:10.155Z</time></trkpt><trkpt lat="43.4844646" lon="11.3667152"><ele>495.2</ele><time>2026-04-12T08:16:12.156Z</time></trkpt><trkpt lat="43.4844405" lon="11.3668545"><ele>495.0</ele><time>2026-04-12T08:16:14.155Z</time></trkpt><trkpt lat="43.4844391" lon="11.3669442"><ele>495.0</ele><time>2026-04-12T08:16:15.155Z</time></trkpt><trkpt lat="43.4844541" lon="11.3670651"><ele>495.0</ele><time>2026-04-12T08:16:16.155Z</time></trkpt><trkpt lat="43.4844849" lon="11.3672066"><ele>495.0</ele><time>2026-04-12T08:16:17.156Z</time></trkpt><trkpt lat="43.4845184" lon="11.3673539"><ele>495.0</ele><time>2026-04-12T08:16:18.155Z</time></trkpt><trkpt lat="43.4845427" lon="11.3674961"><ele>495.0</ele><time>2026-04-12T08:16:19.155Z</time></trkpt><trkpt lat="43.4845693" lon="11.3676416"><ele>494.75</ele><time>2026-04-12T08:16:20.155Z</time></trkpt><trkpt lat="43.4845934" lon="11.3677992"><ele>494.5</ele><time>2026-04-12T08:16:21.155Z</time></trkpt><trkpt lat="43.484617" lon="11.3679691"><ele>494.25</ele><time>2026-04-12T08:16:22.154Z</time></trkpt><trkpt lat="43.4846364" lon="11.3681305"><ele>494.0</ele><time>2026-04-12T08:16:23.156Z</time></trkpt><trkpt lat="43.4846584" lon="11.3682849"><ele>496.0</ele><time>2026-04-12T08:16:24.156Z</time></trkpt><trkpt lat="43.48468" lon="11.3684447"><ele>498.0</ele><time>2026-04-12T08:16:25.155Z</time></trkpt><trkpt lat="43.4847013" lon="11.368609"><ele>500.0</ele><time>2026-04-12T08:16:26.156Z</time></trkpt><trkpt lat="43.4847217" lon="11.3687804"><ele>502.0</ele><time>2026-04-12T08:16:27.156Z</time></trkpt><trkpt lat="43.4847414" lon="11.368948"><ele>503.25</ele><time>2026-04-12T08:16:28.154Z</time></trkpt><trkpt lat="43.4847763" lon="11.3691127"><ele>504.5</ele><time>2026-04-12T08:16:29.154Z</time></trkpt><trkpt lat="43.4848324" lon="11.3692739"><ele>505.75</ele><time>2026-04-12T08:16:30.155Z</time></trkpt><trkpt lat="43.4849067" lon="11.3694168"><ele>507.0</ele><time>2026-04-12T08:16:31.156Z</time></trkpt><trkpt lat="43.485014" lon="11.3695598"><ele>507.0</ele><time>2026-04-12T08:16:32.154Z</time></trkpt><trkpt lat="43.48513" lon="11.3696792"><ele>507.0</ele><time>2026-04-12T08:16:33.155Z</time></trkpt><trkpt lat="43.4852666" lon="11.3697622"><ele>507.0</ele><time>2026-04-12T08:16:34.156Z</time></trkpt><trkpt lat="43.485407" lon="11.3698139"><ele>507.0</ele><time>2026-04-12T08:16:35.155Z</time></trkpt><trkpt lat="43.4855281" lon="11.3698552"><ele>508.25</ele><time>2026-04-12T08:16:36.154Z</time></trkpt><trkpt lat="43.4856473" lon="11.3699141"><ele>509.5</ele><time>2026-04-12T08:16:37.155Z</time></trkpt><trkpt lat="43.4857507" lon="11.3700169"><ele>510.75</ele><time>2026-04-12T08:16:38.155Z</time></trkpt><trkpt lat="43.4858422" lon="11.3701379"><ele>512.0</ele><time>2026-04-12T08:16:39.155Z</time></trkpt><trkpt lat="43.4859205" lon="11.3702821"><ele>512.0</ele><time>2026-04-12T08:16:40.155Z</time></trkpt><trkpt lat="43.4859947" lon="11.3704308"><ele>512.0</ele><time>2026-04-12T08:16:41.155Z</time></trkpt><trkpt lat="43.4860393" lon="11.3706008"><ele>512.0</ele><time>2026-04-12T08:16:42.155Z</time></trkpt><trkpt lat="43.4860941" lon="11.3707665"><ele>512.0</ele><time>2026-04-12T08:16:43.156Z</time></trkpt><trkpt lat="43.486143" lon="11.3709337"><ele>513.75</ele><time>2026-04-12T08:16:44.156Z</time></trkpt><trkpt lat="43.4861867" lon="11.3711041"><ele>515.5</ele><time>2026-04-12T08:16:45.155Z</time></trkpt><trkpt lat="43.4862206" lon="11.3712785"><ele>517.25</ele><time>2026-04-12T08:16:46.156Z</time></trkpt><trkpt lat="43.4862472" lon="11.371454"><ele>519.0</ele><time>2026-04-12T08:16:47.155Z</time></trkpt><trkpt lat="43.4862733" lon="11.3716349"><ele>518.0</ele><time>2026-04-12T08:16:48.155Z</time></trkpt><trkpt lat="43.4862944" lon="11.3718074"><ele>517.0</ele><time>2026-04-12T08:16:49.156Z</time></trkpt><trkpt lat="43.4863099" lon="11.3719726"><ele>516.0</ele><time>2026-04-12T08:16:50.156Z</time></trkpt><trkpt lat="43.4863241" lon="11.3721327"><ele>515.0</ele><time>2026-04-12T08:16:51.156Z</time></trkpt><trkpt lat="43.4863424" lon="11.3722859"><ele>515.0</ele><time>2026-04-12T08:16:52.154Z</time></trkpt><trkpt lat="43.4863587" lon="11.3724376"><ele>515.0</ele><time>2026-04-12T08:16:53.155Z</time></trkpt><trkpt lat="43.4863797" lon="11.3725863"><ele>515.0</ele><time>2026-04-12T08:16:54.156Z</time></trkpt><trkpt lat="43.4863925" lon="11.372734"><ele>515.0</ele><time>2026-04-12T08:16:55.155Z</time></trkpt><trkpt lat="43.4864038" lon="11.3728887"><ele>515.0</ele><time>2026-04-12T08:16:56.155Z</time></trkpt><trkpt lat="43.4863976" lon="11.3730325"><ele>515.8</ele><time>2026-04-12T08:16:57.155Z</time></trkpt><trkpt lat="43.4863817" lon="11.3731668"><ele>516.6</ele><time>2026-04-12T08:16:58.155Z</time></trkpt><trkpt lat="43.4863548" lon="11.3733028"><ele>517.4</ele><time>2026-04-12T08:16:59.156Z</time></trkpt><trkpt lat="43.4863086" lon="11.3734234"><ele>518.2</ele><time>2026-04-12T08:17:00.156Z</time></trkpt><trkpt lat="43.486266" lon="11.3735569"><ele>519.0</ele><time>2026-04-12T08:17:01.155Z</time></trkpt><trkpt lat="43.4862256" lon="11.3736873"><ele>519.0</ele><time>2026-04-12T08:17:02.155Z</time></trkpt><trkpt lat="43.4861941" lon="11.3738314"><ele>519.0</ele><time>2026-04-12T08:17:03.155Z</time></trkpt><trkpt lat="43.4861584" lon="11.3739752"><ele>519.0</ele><time>2026-04-12T08:17:04.155Z</time></trkpt><trkpt lat="43.4861304" lon="11.3741293"><ele>519.0</ele><time>2026-04-12T08:17:05.156Z</time></trkpt><trkpt lat="43.4861148" lon="11.3742808"><ele>519.0</ele><time>2026-04-12T08:17:06.155Z</time></trkpt><trkpt lat="43.4861245" lon="11.3744232"><ele>518.8333333333334</ele><time>2026-04-12T08:17:07.154Z</time></trkpt><trkpt lat="43.4861562" lon="11.3745638"><ele>518.6666666666666</ele><time>2026-04-12T08:17:08.155Z</time></trkpt><trkpt lat="43.486197" lon="11.3746736"><ele>518.5</ele><time>2026-04-12T08:17:09.155Z</time></trkpt><trkpt lat="43.4862293" lon="11.3747572"><ele>518.3333333333333</ele><time>2026-04-12T08:17:10.155Z</time></trkpt><trkpt lat="43.4861983" lon="11.3748596"><ele>518.1666666666666</ele><time>2026-04-12T08:17:12.156Z</time></trkpt><trkpt lat="43.4861269" lon="11.3748239"><ele>518.0</ele><time>2026-04-12T08:17:14.155Z</time></trkpt><trkpt lat="43.4860725" lon="11.3747224"><ele>518.6</ele><time>2026-04-12T08:17:16.155Z</time></trkpt><trkpt lat="43.4860074" lon="11.3746126"><ele>519.1999999999999</ele><time>2026-04-12T08:17:18.156Z</time></trkpt><trkpt lat="43.4859232" lon="11.37449"><ele>519.8</ele><time>2026-04-12T08:17:20.157Z</time></trkpt><trkpt lat="43.4858556" lon="11.3744348"><ele>520.4</ele><time>2026-04-12T08:17:21.155Z</time></trkpt><trkpt lat="43.4857719" lon="11.3744009"><ele>521.0</ele><time>2026-04-12T08:17:22.156Z</time></trkpt><trkpt lat="43.4856752" lon="11.3743959"><ele>521.0</ele><time>2026-04-12T08:17:23.156Z</time></trkpt><trkpt lat="43.4855823" lon="11.3744232"><ele>521.0</ele><time>2026-04-12T08:17:24.155Z</time></trkpt><trkpt lat="43.4854961" lon="11.3744826"><ele>521.0</ele><time>2026-04-12T08:17:25.155Z</time></trkpt><trkpt lat="43.4854205" lon="11.3745767"><ele>521.0</ele><time>2026-04-12T08:17:26.155Z</time></trkpt><trkpt lat="43.4853738" lon="11.3747022"><ele>521.0</ele><time>2026-04-12T08:17:27.154Z</time></trkpt><trkpt lat="43.4853457" lon="11.3748447"><ele>520.25</ele><time>2026-04-12T08:17:28.155Z</time></trkpt><trkpt lat="43.485336" lon="11.3749954"><ele>519.5</ele><time>2026-04-12T08:17:29.156Z</time></trkpt><trkpt lat="43.4853521" lon="11.375153"><ele>518.75</ele><time>2026-04-12T08:17:30.155Z</time></trkpt><trkpt lat="43.4853848" lon="11.3753122"><ele>518.0</ele><time>2026-04-12T08:17:31.154Z</time></trkpt><trkpt lat="43.4854403" lon="11.3754609"><ele>514.75</ele><time>2026-04-12T08:17:32.155Z</time></trkpt><trkpt lat="43.4855012" lon="11.3756057"><ele>511.5</ele><time>2026-04-12T08:17:33.154Z</time></trkpt><trkpt lat="43.4855635" lon="11.3757474"><ele>508.25</ele><time>2026-04-12T08:17:34.156Z</time></trkpt><trkpt lat="43.4856191" lon="11.3758879"><ele>505.0</ele><time>2026-04-12T08:17:35.155Z</time></trkpt><trkpt lat="43.4856624" lon="11.3760318"><ele>505.0</ele><time>2026-04-12T08:17:36.155Z</time></trkpt><trkpt lat="43.4856893" lon="11.3761798"><ele>505.0</ele><time>2026-04-12T08:17:37.155Z</time></trkpt><trkpt lat="43.4856811" lon="11.3763339"><ele>505.0</ele><time>2026-04-12T08:17:38.155Z</time></trkpt><trkpt lat="43.485637" lon="11.3764851"><ele>505.0</ele><time>2026-04-12T08:17:39.156Z</time></trkpt><trkpt lat="43.4855579" lon="11.3766131"><ele>502.5</ele><time>2026-04-12T08:17:40.157Z</time></trkpt><trkpt lat="43.4854636" lon="11.3767239"><ele>500.0</ele><time>2026-04-12T08:17:41.155Z</time></trkpt><trkpt lat="43.4853439" lon="11.3767946"><ele>497.5</ele><time>2026-04-12T08:17:42.157Z</time></trkpt><trkpt lat="43.485194" lon="11.3767723"><ele>495.0</ele><time>2026-04-12T08:17:43.156Z</time></trkpt><trkpt lat="43.4850644" lon="11.3767942"><ele>492.75</ele><time>2026-04-12T08:17:44.155Z</time></trkpt><trkpt lat="43.4849309" lon="11.3768108"><ele>490.5</ele><time>2026-04-12T08:17:45.157Z</time></trkpt><trkpt lat="43.4847927" lon="11.3768303"><ele>488.25</ele><time>2026-04-12T08:17:46.154Z</time></trkpt><trkpt lat="43.4846514" lon="11.3768605"><ele>486.0</ele><time>2026-04-12T08:17:47.155Z</time></trkpt><trkpt lat="43.484506" lon="11.3769077"><ele>483.75</ele><time>2026-04-12T08:17:48.155Z</time></trkpt><trkpt lat="43.4843759" lon="11.376974"><ele>481.5</ele><time>2026-04-12T08:17:49.155Z</time></trkpt><trkpt lat="43.4842456" lon="11.3770643"><ele>479.25</ele><time>2026-04-12T08:17:50.155Z</time></trkpt><trkpt lat="43.4841238" lon="11.3771681"><ele>477.0</ele><time>2026-04-12T08:17:51.154Z</time></trkpt><trkpt lat="43.484021" lon="11.3772895"><ele>477.0</ele><time>2026-04-12T08:17:52.155Z</time></trkpt><trkpt lat="43.4839332" lon="11.3774214"><ele>477.0</ele><time>2026-04-12T08:17:53.157Z</time></trkpt><trkpt lat="43.4838498" lon="11.3775557"><ele>477.0</ele><time>2026-04-12T08:17:54.154Z</time></trkpt><trkpt lat="43.4837775" lon="11.3776956"><ele>477.0</ele><time>2026-04-12T08:17:55.155Z</time></trkpt><trkpt lat="43.4837201" lon="11.3778335"><ele>475.20000000000005</ele><time>2026-04-12T08:17:56.155Z</time></trkpt><trkpt lat="43.4836854" lon="11.3779503"><ele>473.40000000000003</ele><time>2026-04-12T08:17:57.156Z</time></trkpt><trkpt lat="43.4836717" lon="11.3780507"><ele>471.59999999999997</ele><time>2026-04-12T08:17:58.156Z</time></trkpt><trkpt lat="43.483627" lon="11.3781823"><ele>469.79999999999995</ele><time>2026-04-12T08:18:00.155Z</time></trkpt><trkpt lat="43.4835423" lon="11.3782714"><ele>468.0</ele><time>2026-04-12T08:18:02.157Z</time></trkpt><trkpt lat="43.4834312" lon="11.378316"><ele>468.0</ele><time>2026-04-12T08:18:04.157Z</time></trkpt><trkpt lat="43.4833009" lon="11.3782997"><ele>467.99999999999994</ele><time>2026-04-12T08:18:06.156Z</time></trkpt><trkpt lat="43.4832223" lon="11.3782885"><ele>467.99999999999994</ele><time>2026-04-12T08:18:07.154Z</time></trkpt><trkpt lat="43.4831336" lon="11.3782847"><ele>468.0</ele><time>2026-04-12T08:18:08.156Z</time></trkpt><trkpt lat="43.4830544" lon="11.3782937"><ele>468.0</ele><time>2026-04-12T08:18:09.155Z</time></trkpt><trkpt lat="43.4829832" lon="11.3783083"><ele>466.5</ele><time>2026-04-12T08:18:10.156Z</time></trkpt><trkpt lat="43.4829115" lon="11.3783413"><ele>465.0</ele><time>2026-04-12T08:18:11.156Z</time></trkpt><trkpt lat="43.4828406" lon="11.378381"><ele>463.5</ele><time>2026-04-12T08:18:12.156Z</time></trkpt><trkpt lat="43.4827639" lon="11.3784236"><ele>462.0</ele><time>2026-04-12T08:18:13.154Z</time></trkpt><trkpt lat="43.4826817" lon="11.3784553"><ele>460.5</ele><time>2026-04-12T08:18:14.155Z</time></trkpt><trkpt lat="43.4825947" lon="11.3784597"><ele>459.0</ele><time>2026-04-12T08:18:15.155Z</time></trkpt><trkpt lat="43.4825177" lon="11.3784337"><ele>459.0</ele><time>2026-04-12T08:18:16.155Z</time></trkpt><trkpt lat="43.4824384" lon="11.3784014"><ele>459.0</ele><time>2026-04-12T08:18:17.155Z</time></trkpt><trkpt lat="43.4823482" lon="11.3783736"><ele>459.0</ele><time>2026-04-12T08:18:18.155Z</time></trkpt><trkpt lat="43.4822471" lon="11.3783524"><ele>459.0</ele><time>2026-04-12T08:18:19.154Z</time></trkpt><trkpt lat="43.4821487" lon="11.3783432"><ele>459.0</ele><time>2026-04-12T08:18:20.156Z</time></trkpt><trkpt lat="43.4820581" lon="11.3783357"><ele>456.5714285714286</ele><time>2026-04-12T08:18:21.156Z</time></trkpt><trkpt lat="43.4819771" lon="11.3783277"><ele>454.1428571428571</ele><time>2026-04-12T08:18:22.155Z</time></trkpt><trkpt lat="43.4819015" lon="11.3783249"><ele>451.7142857142857</ele><time>2026-04-12T08:18:23.155Z</time></trkpt><trkpt lat="43.4818201" lon="11.3783118"><ele>449.28571428571433</ele><time>2026-04-12T08:18:24.157Z</time></trkpt><trkpt lat="43.4817555" lon="11.3783004"><ele>446.8571428571429</ele><time>2026-04-12T08:18:25.154Z</time></trkpt><trkpt lat="43.4816911" lon="11.3782918"><ele>444.42857142857144</ele><time>2026-04-12T08:18:26.155Z</time></trkpt><trkpt lat="43.4816223" lon="11.3782664"><ele>442.0</ele><time>2026-04-12T08:18:27.155Z</time></trkpt><trkpt lat="43.4815585" lon="11.3782386"><ele>442.0</ele><time>2026-04-12T08:18:28.156Z</time></trkpt><trkpt lat="43.481499" lon="11.378206"><ele>442.00000000000006</ele><time>2026-04-12T08:18:29.156Z</time></trkpt><trkpt lat="43.4813917" lon="11.3781368"><ele>442.00000000000006</ele><time>2026-04-12T08:18:31.155Z</time></trkpt><trkpt lat="43.4812838" lon="11.3780458"><ele>442.0</ele><time>2026-04-12T08:18:33.156Z</time></trkpt><trkpt lat="43.4812278" lon="11.3780007"><ele>442.0</ele><time>2026-04-12T08:18:34.156Z</time></trkpt><trkpt lat="43.4811145" lon="11.3779175"><ele>439.6666666666667</ele><time>2026-04-12T08:18:36.155Z</time></trkpt><trkpt lat="43.4809893" lon="11.377909"><ele>437.33333333333337</ele><time>2026-04-12T08:18:38.155Z</time></trkpt><trkpt lat="43.4809193" lon="11.3779036"><ele>435.0</ele><time>2026-04-12T08:18:39.156Z</time></trkpt><trkpt lat="43.4808557" lon="11.3779138"><ele>432.66666666666663</ele><time>2026-04-12T08:18:40.155Z</time></trkpt><trkpt lat="43.4807894" lon="11.377924"><ele>430.3333333333333</ele><time>2026-04-12T08:18:41.155Z</time></trkpt><trkpt lat="43.4806685" lon="11.3779446"><ele>428.0</ele><time>2026-04-12T08:18:43.156Z</time></trkpt><trkpt lat="43.4805846" lon="11.3779505"><ele>427.99999999999994</ele><time>2026-04-12T08:18:45.156Z</time></trkpt><trkpt lat="43.4805305" lon="11.3778817"><ele>428.0</ele><time>2026-04-12T08:18:47.154Z</time></trkpt><trkpt lat="43.4805132" lon="11.3777713"><ele>428.0</ele><time>2026-04-12T08:18:49.156Z</time></trkpt><trkpt lat="43.4804993" lon="11.3776718"><ele>428.0</ele><time>2026-04-12T08:18:52.157Z</time></trkpt><trkpt lat="43.4804288" lon="11.3776373"><ele>427.99999999999994</ele><time>2026-04-12T08:18:56.157Z</time></trkpt><trkpt lat="43.48037" lon="11.3777234"><ele>428.0</ele><time>2026-04-12T08:18:58.155Z</time></trkpt><trkpt lat="43.4802779" lon="11.3778043"><ele>426.2</ele><time>2026-04-12T08:19:00.155Z</time></trkpt><trkpt lat="43.4802188" lon="11.3778438"><ele>424.4</ele><time>2026-04-12T08:19:01.154Z</time></trkpt><trkpt lat="43.4801572" lon="11.3778799"><ele>422.59999999999997</ele><time>2026-04-12T08:19:02.156Z</time></trkpt><trkpt lat="43.4800435" lon="11.3779269"><ele>420.79999999999995</ele><time>2026-04-12T08:19:04.156Z</time></trkpt><trkpt lat="43.4799429" lon="11.3779395"><ele>419.0</ele><time>2026-04-12T08:19:06.155Z</time></trkpt><trkpt lat="43.4798602" lon="11.3778577"><ele>418.99999999999994</ele><time>2026-04-12T08:19:08.154Z</time></trkpt><trkpt lat="43.479808" lon="11.3777996"><ele>419.0</ele><time>2026-04-12T08:19:09.158Z</time></trkpt><trkpt lat="43.4797492" lon="11.3777448"><ele>419.0</ele><time>2026-04-12T08:19:10.155Z</time></trkpt><trkpt lat="43.4796452" lon="11.377652"><ele>419.0</ele><time>2026-04-12T08:19:12.155Z</time></trkpt><trkpt lat="43.4795796" lon="11.3775922"><ele>418.99999999999994</ele><time>2026-04-12T08:19:13.156Z</time></trkpt><trkpt lat="43.4795275" lon="11.3775364"><ele>419.0</ele><time>2026-04-12T08:19:14.154Z</time></trkpt><trkpt lat="43.4794767" lon="11.3774693"><ele>418.66666666666663</ele><time>2026-04-12T08:19:15.154Z</time></trkpt><trkpt lat="43.4794307" lon="11.3773916"><ele>418.3333333333333</ele><time>2026-04-12T08:19:16.157Z</time></trkpt><trkpt lat="43.4793962" lon="11.3773057"><ele>418.0</ele><time>2026-04-12T08:19:17.155Z</time></trkpt><trkpt lat="43.4793826" lon="11.3772115"><ele>417.66666666666663</ele><time>2026-04-12T08:19:18.154Z</time></trkpt><trkpt lat="43.4793933" lon="11.3770563"><ele>417.3333333333333</ele><time>2026-04-12T08:19:20.155Z</time></trkpt><trkpt lat="43.4793636" lon="11.376912"><ele>417.0</ele><time>2026-04-12T08:19:22.154Z</time></trkpt><trkpt lat="43.4792304" lon="11.3768033"><ele>417.0</ele><time>2026-04-12T08:19:24.156Z</time></trkpt><trkpt lat="43.4791559" lon="11.3767569"><ele>417.0</ele><time>2026-04-12T08:19:25.155Z</time></trkpt><trkpt lat="43.4790862" lon="11.3767097"><ele>417.0</ele><time>2026-04-12T08:19:26.156Z</time></trkpt><trkpt lat="43.4790071" lon="11.376663"><ele>417.0</ele><time>2026-04-12T08:19:27.155Z</time></trkpt><trkpt lat="43.4789157" lon="11.3765987"><ele>417.0</ele><time>2026-04-12T08:19:28.156Z</time></trkpt><trkpt lat="43.4788244" lon="11.3765329"><ele>416.6666666666667</ele><time>2026-04-12T08:19:29.155Z</time></trkpt><trkpt lat="43.4787359" lon="11.3764689"><ele>416.33333333333337</ele><time>2026-04-12T08:19:30.156Z</time></trkpt><trkpt lat="43.4786589" lon="11.3764014"><ele>416.0</ele><time>2026-04-12T08:19:31.156Z</time></trkpt><trkpt lat="43.4785896" lon="11.3763316"><ele>415.6666666666667</ele><time>2026-04-12T08:19:32.155Z</time></trkpt><trkpt lat="43.4785277" lon="11.3762643"><ele>415.33333333333337</ele><time>2026-04-12T08:19:33.156Z</time></trkpt><trkpt lat="43.4784584" lon="11.3762094"><ele>415.0</ele><time>2026-04-12T08:19:34.155Z</time></trkpt><trkpt lat="43.4783868" lon="11.3761663"><ele>415.0</ele><time>2026-04-12T08:19:35.155Z</time></trkpt><trkpt lat="43.47831" lon="11.3761428"><ele>415.0</ele><time>2026-04-12T08:19:36.155Z</time></trkpt><trkpt lat="43.4782401" lon="11.3761391"><ele>415.0</ele><time>2026-04-12T08:19:37.156Z</time></trkpt><trkpt lat="43.4781327" lon="11.3761573"><ele>415.0</ele><time>2026-04-12T08:19:38.154Z</time></trkpt><trkpt lat="43.4780307" lon="11.3761827"><ele>415.0</ele><time>2026-04-12T08:19:39.156Z</time></trkpt><trkpt lat="43.4779251" lon="11.3762059"><ele>413.50000000000006</ele><time>2026-04-12T08:19:40.155Z</time></trkpt><trkpt lat="43.4778352" lon="11.3762283"><ele>412.0</ele><time>2026-04-12T08:19:41.155Z</time></trkpt><trkpt lat="43.4777414" lon="11.3762385"><ele>410.5</ele><time>2026-04-12T08:19:42.156Z</time></trkpt><trkpt lat="43.477647" lon="11.3762373"><ele>409.0</ele><time>2026-04-12T08:19:43.155Z</time></trkpt><trkpt lat="43.4775671" lon="11.3762449"><ele>407.50000000000006</ele><time>2026-04-12T08:19:44.156Z</time></trkpt><trkpt lat="43.4774827" lon="11.3762439"><ele>406.0</ele><time>2026-04-12T08:19:45.157Z</time></trkpt><trkpt lat="43.4774007" lon="11.3762406"><ele>406.00000000000006</ele><time>2026-04-12T08:19:46.155Z</time></trkpt><trkpt lat="43.4773211" lon="11.3762379"><ele>406.0</ele><time>2026-04-12T08:19:47.157Z</time></trkpt><trkpt lat="43.4772468" lon="11.3762223"><ele>406.0</ele><time>2026-04-12T08:19:48.156Z</time></trkpt><trkpt lat="43.4771893" lon="11.3761787"><ele>406.0</ele><time>2026-04-12T08:19:49.155Z</time></trkpt><trkpt lat="43.4771188" lon="11.3760579"><ele>406.00000000000006</ele><time>2026-04-12T08:19:51.155Z</time></trkpt><trkpt lat="43.477096" lon="11.3759675"><ele>406.0</ele><time>2026-04-12T08:19:52.156Z</time></trkpt><trkpt lat="43.4770679" lon="11.3758796"><ele>405.33333333333337</ele><time>2026-04-12T08:19:53.155Z</time></trkpt><trkpt lat="43.4770241" lon="11.375798"><ele>404.6666666666667</ele><time>2026-04-12T08:19:54.155Z</time></trkpt><trkpt lat="43.4769778" lon="11.3757241"><ele>404.0</ele><time>2026-04-12T08:19:55.156Z</time></trkpt><trkpt lat="43.4769252" lon="11.3756695"><ele>403.33333333333337</ele><time>2026-04-12T08:19:56.154Z</time></trkpt><trkpt lat="43.4768398" lon="11.3756604"><ele>402.6666666666667</ele><time>2026-04-12T08:19:57.156Z</time></trkpt><trkpt lat="43.4767681" lon="11.3756432"><ele>402.0</ele><time>2026-04-12T08:19:58.155Z</time></trkpt><trkpt lat="43.4766882" lon="11.3756189"><ele>402.0</ele><time>2026-04-12T08:19:59.155Z</time></trkpt><trkpt lat="43.4766091" lon="11.3755743"><ele>402.0</ele><time>2026-04-12T08:20:00.156Z</time></trkpt><trkpt lat="43.4765265" lon="11.3755204"><ele>402.0</ele><time>2026-04-12T08:20:01.154Z</time></trkpt><trkpt lat="43.4764398" lon="11.3754489"><ele>402.0</ele><time>2026-04-12T08:20:02.156Z</time></trkpt><trkpt lat="43.4763461" lon="11.3753671"><ele>402.0</ele><time>2026-04-12T08:20:03.156Z</time></trkpt><trkpt lat="43.4762453" lon="11.3752865"><ele>403.25</ele><time>2026-04-12T08:20:04.156Z</time></trkpt><trkpt lat="43.4761213" lon="11.3752204"><ele>404.5</ele><time>2026-04-12T08:20:05.154Z</time></trkpt><trkpt lat="43.4759936" lon="11.3751377"><ele>405.75</ele><time>2026-04-12T08:20:06.156Z</time></trkpt><trkpt lat="43.4758721" lon="11.3750688"><ele>407.0</ele><time>2026-04-12T08:20:07.156Z</time></trkpt><trkpt lat="43.4757482" lon="11.3750161"><ele>407.0</ele><time>2026-04-12T08:20:08.155Z</time></trkpt><trkpt lat="43.4756231" lon="11.3749764"><ele>407.0</ele><time>2026-04-12T08:20:09.157Z</time></trkpt><trkpt lat="43.4755033" lon="11.3749298"><ele>407.0</ele><time>2026-04-12T08:20:10.156Z</time></trkpt><trkpt lat="43.4753982" lon="11.3748895"><ele>407.0</ele><time>2026-04-12T08:20:11.156Z</time></trkpt><trkpt lat="43.4753087" lon="11.374853"><ele>405.99999999999994</ele><time>2026-04-12T08:20:12.156Z</time></trkpt><trkpt lat="43.4752421" lon="11.3748129"><ele>405.0</ele><time>2026-04-12T08:20:13.155Z</time></trkpt><trkpt lat="43.4751832" lon="11.3747673"><ele>404.0</ele><time>2026-04-12T08:20:14.157Z</time></trkpt><trkpt lat="43.4750549" lon="11.3747592"><ele>403.0</ele><time>2026-04-12T08:20:16.156Z</time></trkpt><trkpt lat="43.4749788" lon="11.3747849"><ele>401.99999999999994</ele><time>2026-04-12T08:20:17.156Z</time></trkpt><trkpt lat="43.474903" lon="11.3748011"><ele>401.0</ele><time>2026-04-12T08:20:18.156Z</time></trkpt><trkpt lat="43.4748175" lon="11.3748024"><ele>401.0</ele><time>2026-04-12T08:20:19.156Z</time></trkpt><trkpt lat="43.4747182" lon="11.3747889"><ele>401.0</ele><time>2026-04-12T08:20:20.157Z</time></trkpt><trkpt lat="43.4746112" lon="11.374769"><ele>401.0</ele><time>2026-04-12T08:20:21.155Z</time></trkpt><trkpt lat="43.4745027" lon="11.3747463"><ele>401.0</ele><time>2026-04-12T08:20:22.156Z</time></trkpt><trkpt lat="43.4743875" lon="11.3747247"><ele>401.0</ele><time>2026-04-12T08:20:23.156Z</time></trkpt><trkpt lat="43.4742729" lon="11.3746952"><ele>400.4</ele><time>2026-04-12T08:20:24.156Z</time></trkpt><trkpt lat="43.4741666" lon="11.3746715"><ele>399.8</ele><time>2026-04-12T08:20:25.156Z</time></trkpt><trkpt lat="43.4740719" lon="11.3746732"><ele>399.2</ele><time>2026-04-12T08:20:26.157Z</time></trkpt><trkpt lat="43.4739693" lon="11.3747049"><ele>398.59999999999997</ele><time>2026-04-12T08:20:27.155Z</time></trkpt><trkpt lat="43.4738898" lon="11.3747441"><ele>398.0</ele><time>2026-04-12T08:20:28.155Z</time></trkpt><trkpt lat="43.4738056" lon="11.3747862"><ele>397.99999999999994</ele><time>2026-04-12T08:20:29.157Z</time></trkpt><trkpt lat="43.4737167" lon="11.3748184"><ele>398.0</ele><time>2026-04-12T08:20:30.156Z</time></trkpt><trkpt lat="43.4736236" lon="11.374841"><ele>398.0</ele><time>2026-04-12T08:20:31.155Z</time></trkpt><trkpt lat="43.4735462" lon="11.3748699"><ele>398.0</ele><time>2026-04-12T08:20:32.154Z</time></trkpt><trkpt lat="43.4734645" lon="11.3748982"><ele>397.99999999999994</ele><time>2026-04-12T08:20:33.156Z</time></trkpt><trkpt lat="43.4733835" lon="11.3749064"><ele>398.0</ele><time>2026-04-12T08:20:34.157Z</time></trkpt><trkpt lat="43.4732938" lon="11.3748896"><ele>398.0</ele><time>2026-04-12T08:20:35.157Z</time></trkpt><trkpt lat="43.4731942" lon="11.3748492"><ele>398.0</ele><time>2026-04-12T08:20:36.156Z</time></trkpt><trkpt lat="43.4730811" lon="11.374805"><ele>398.0</ele><time>2026-04-12T08:20:37.156Z</time></trkpt><trkpt lat="43.4729656" lon="11.3747531"><ele>398.0</ele><time>2026-04-12T08:20:38.156Z</time></trkpt><trkpt lat="43.4728486" lon="11.3746921"><ele>399.25</ele><time>2026-04-12T08:20:39.155Z</time></trkpt><trkpt lat="43.472732" lon="11.3746169"><ele>400.5</ele><time>2026-04-12T08:20:40.156Z</time></trkpt><trkpt lat="43.4726083" lon="11.3745208"><ele>401.75</ele><time>2026-04-12T08:20:41.154Z</time></trkpt><trkpt lat="43.4724808" lon="11.3744114"><ele>403.0</ele><time>2026-04-12T08:20:42.154Z</time></trkpt><trkpt lat="43.4723543" lon="11.3743051"><ele>403.0</ele><time>2026-04-12T08:20:43.155Z</time></trkpt><trkpt lat="43.4722253" lon="11.3742196"><ele>403.0</ele><time>2026-04-12T08:20:44.155Z</time></trkpt><trkpt lat="43.4720962" lon="11.3741578"><ele>403.0</ele><time>2026-04-12T08:20:45.157Z</time></trkpt><trkpt lat="43.471983" lon="11.3741134"><ele>403.0</ele><time>2026-04-12T08:20:46.156Z</time></trkpt><trkpt lat="43.4718797" lon="11.3740686"><ele>402.14285714285717</ele><time>2026-04-12T08:20:47.157Z</time></trkpt><trkpt lat="43.4718053" lon="11.3740449"><ele>401.2857142857143</ele><time>2026-04-12T08:20:48.157Z</time></trkpt><trkpt lat="43.4717415" lon="11.3740233"><ele>400.42857142857144</ele><time>2026-04-12T08:20:50.156Z</time></trkpt><trkpt lat="43.4716734" lon="11.3740048"><ele>399.57142857142856</ele><time>2026-04-12T08:20:52.156Z</time></trkpt><trkpt lat="43.4716056" lon="11.3740019"><ele>398.71428571428567</ele><time>2026-04-12T08:20:53.157Z</time></trkpt><trkpt lat="43.4715358" lon="11.374017"><ele>397.85714285714283</ele><time>2026-04-12T08:20:54.156Z</time></trkpt><trkpt lat="43.471467" lon="11.3740441"><ele>397.0</ele><time>2026-04-12T08:20:55.156Z</time></trkpt><trkpt lat="43.4714052" lon="11.3740631"><ele>397.00000000000006</ele><time>2026-04-12T08:20:56.156Z</time></trkpt><trkpt lat="43.4713007" lon="11.3741076"><ele>397.0</ele><time>2026-04-12T08:20:58.156Z</time></trkpt><trkpt lat="43.4712117" lon="11.374134"><ele>397.0</ele><time>2026-04-12T08:21:00.156Z</time></trkpt><trkpt lat="43.4711371" lon="11.3741548"><ele>397.0</ele><time>2026-04-12T08:21:02.156Z</time></trkpt><trkpt lat="43.4710691" lon="11.3741654"><ele>397.00000000000006</ele><time>2026-04-12T08:21:04.155Z</time></trkpt><trkpt lat="43.4709776" lon="11.3741938"><ele>397.0</ele><time>2026-04-12T08:21:07.156Z</time></trkpt><trkpt lat="43.4708897" lon="11.3741996"><ele>396.6666666666667</ele><time>2026-04-12T08:21:09.156Z</time></trkpt><trkpt lat="43.4708256" lon="11.3742032"><ele>396.33333333333337</ele><time>2026-04-12T08:21:10.156Z</time></trkpt><trkpt lat="43.4707498" lon="11.3742113"><ele>396.0</ele><time>2026-04-12T08:21:11.156Z</time></trkpt><trkpt lat="43.4706694" lon="11.3742149"><ele>395.66666666666663</ele><time>2026-04-12T08:21:12.156Z</time></trkpt><trkpt lat="43.4705922" lon="11.374218"><ele>395.3333333333333</ele><time>2026-04-12T08:21:13.156Z</time></trkpt><trkpt lat="43.4705203" lon="11.374225"><ele>395.0</ele><time>2026-04-12T08:21:14.154Z</time></trkpt><trkpt lat="43.4704395" lon="11.3742165"><ele>394.4</ele><time>2026-04-12T08:21:15.157Z</time></trkpt><trkpt lat="43.4703468" lon="11.3742105"><ele>393.8</ele><time>2026-04-12T08:21:16.155Z</time></trkpt><trkpt lat="43.4702502" lon="11.3742051"><ele>393.20000000000005</ele><time>2026-04-12T08:21:17.156Z</time></trkpt><trkpt lat="43.4701523" lon="11.374201"><ele>392.6</ele><time>2026-04-12T08:21:18.156Z</time></trkpt><trkpt lat="43.4700526" lon="11.3741957"><ele>392.0</ele><time>2026-04-12T08:21:19.155Z</time></trkpt><trkpt lat="43.4699597" lon="11.3741917"><ele>392.0</ele><time>2026-04-12T08:21:20.155Z</time></trkpt><trkpt lat="43.4698449" lon="11.3741882"><ele>392.0</ele><time>2026-04-12T08:21:21.155Z</time></trkpt><trkpt lat="43.469735" lon="11.3741774"><ele>392.0</ele><time>2026-04-12T08:21:22.156Z</time></trkpt><trkpt lat="43.4696264" lon="11.3741741"><ele>392.0</ele><time>2026-04-12T08:21:23.156Z</time></trkpt><trkpt lat="43.4695203" lon="11.3741707"><ele>392.0</ele><time>2026-04-12T08:21:24.155Z</time></trkpt><trkpt lat="43.4694243" lon="11.3741687"><ele>390.8333333333333</ele><time>2026-04-12T08:21:25.156Z</time></trkpt><trkpt lat="43.4693279" lon="11.3741729"><ele>389.66666666666663</ele><time>2026-04-12T08:21:26.156Z</time></trkpt><trkpt lat="43.4692468" lon="11.3741674"><ele>388.5</ele><time>2026-04-12T08:21:27.156Z</time></trkpt><trkpt lat="43.4691587" lon="11.3741588"><ele>387.33333333333337</ele><time>2026-04-12T08:21:28.156Z</time></trkpt><trkpt lat="43.4690701" lon="11.374138"><ele>386.1666666666667</ele><time>2026-04-12T08:21:29.155Z</time></trkpt><trkpt lat="43.4689839" lon="11.3741018"><ele>385.0</ele><time>2026-04-12T08:21:30.157Z</time></trkpt><trkpt lat="43.4688974" lon="11.3740201"><ele>385.0</ele><time>2026-04-12T08:21:31.156Z</time></trkpt><trkpt lat="43.468804" lon="11.3739282"><ele>385.0</ele><time>2026-04-12T08:21:32.156Z</time></trkpt><trkpt lat="43.4687195" lon="11.3738213"><ele>385.0</ele><time>2026-04-12T08:21:33.157Z</time></trkpt><trkpt lat="43.4686466" lon="11.373715"><ele>385.0</ele><time>2026-04-12T08:21:34.155Z</time></trkpt><trkpt lat="43.4685625" lon="11.3735999"><ele>384.5</ele><time>2026-04-12T08:21:35.156Z</time></trkpt><trkpt lat="43.4684606" lon="11.3734972"><ele>384.0</ele><time>2026-04-12T08:21:36.156Z</time></trkpt><trkpt lat="43.468347" lon="11.3734176"><ele>383.5</ele><time>2026-04-12T08:21:37.157Z</time></trkpt><trkpt lat="43.4682349" lon="11.3733601"><ele>383.0</ele><time>2026-04-12T08:21:38.156Z</time></trkpt><trkpt lat="43.4681316" lon="11.37331"><ele>383.0</ele><time>2026-04-12T08:21:39.156Z</time></trkpt><trkpt lat="43.4680341" lon="11.3732698"><ele>383.0</ele><time>2026-04-12T08:21:40.156Z</time></trkpt><trkpt lat="43.4679554" lon="11.3732091"><ele>383.0</ele><time>2026-04-12T08:21:41.156Z</time></trkpt><trkpt lat="43.4679027" lon="11.3731178"><ele>383.0</ele><time>2026-04-12T08:21:42.155Z</time></trkpt><trkpt lat="43.4678787" lon="11.3730021"><ele>383.0</ele><time>2026-04-12T08:21:43.156Z</time></trkpt><trkpt lat="43.4678686" lon="11.3728753"><ele>381.59999999999997</ele><time>2026-04-12T08:21:44.155Z</time></trkpt><trkpt lat="43.4678492" lon="11.3727373"><ele>380.2</ele><time>2026-04-12T08:21:45.156Z</time></trkpt><trkpt lat="43.4678266" lon="11.3725954"><ele>378.8</ele><time>2026-04-12T08:21:46.156Z</time></trkpt><trkpt lat="43.4677925" lon="11.3724597"><ele>377.4</ele><time>2026-04-12T08:21:47.156Z</time></trkpt><trkpt lat="43.4677514" lon="11.3723281"><ele>376.0</ele><time>2026-04-12T08:21:48.156Z</time></trkpt><trkpt lat="43.4677068" lon="11.3721953"><ele>377.0</ele><time>2026-04-12T08:21:49.156Z</time></trkpt><trkpt lat="43.4676501" lon="11.3720528"><ele>378.0</ele><time>2026-04-12T08:21:50.156Z</time></trkpt><trkpt lat="43.4675866" lon="11.3719071"><ele>379.0</ele><time>2026-04-12T08:21:51.156Z</time></trkpt><trkpt lat="43.4675152" lon="11.3717795"><ele>380.0</ele><time>2026-04-12T08:21:52.155Z</time></trkpt><trkpt lat="43.4674335" lon="11.3716642"><ele>380.0</ele><time>2026-04-12T08:21:53.156Z</time></trkpt><trkpt lat="43.467338" lon="11.3715618"><ele>380.0</ele><time>2026-04-12T08:21:54.156Z</time></trkpt><trkpt lat="43.4672297" lon="11.3714626"><ele>380.0</ele><time>2026-04-12T08:21:55.155Z</time></trkpt><trkpt lat="43.4671129" lon="11.3713751"><ele>380.0</ele><time>2026-04-12T08:21:56.156Z</time></trkpt><trkpt lat="43.4669871" lon="11.371287"><ele>379.75</ele><time>2026-04-12T08:21:57.157Z</time></trkpt><trkpt lat="43.4668599" lon="11.3711943"><ele>379.5</ele><time>2026-04-12T08:21:58.156Z</time></trkpt><trkpt lat="43.4667502" lon="11.3710786"><ele>379.25</ele><time>2026-04-12T08:21:59.156Z</time></trkpt><trkpt lat="43.4666515" lon="11.3709394"><ele>379.0</ele><time>2026-04-12T08:22:00.156Z</time></trkpt><trkpt lat="43.4665477" lon="11.3707845"><ele>379.0</ele><time>2026-04-12T08:22:01.155Z</time></trkpt><trkpt lat="43.4664375" lon="11.3706159"><ele>379.0</ele><time>2026-04-12T08:22:02.157Z</time></trkpt><trkpt lat="43.4663356" lon="11.3704379"><ele>379.0</ele><time>2026-04-12T08:22:03.157Z</time></trkpt><trkpt lat="43.4662495" lon="11.3702662"><ele>378.25</ele><time>2026-04-12T08:22:04.155Z</time></trkpt><trkpt lat="43.4661758" lon="11.370105"><ele>377.5</ele><time>2026-04-12T08:22:05.155Z</time></trkpt><trkpt lat="43.466108" lon="11.3699294"><ele>376.75</ele><time>2026-04-12T08:22:06.155Z</time></trkpt><trkpt lat="43.4660469" lon="11.3697501"><ele>376.0</ele><time>2026-04-12T08:22:07.156Z</time></trkpt><trkpt lat="43.4659882" lon="11.3695626"><ele>375.3333333333333</ele><time>2026-04-12T08:22:08.156Z</time></trkpt><trkpt lat="43.4659321" lon="11.3693654"><ele>374.6666666666667</ele><time>2026-04-12T08:22:09.156Z</time></trkpt><trkpt lat="43.4658761" lon="11.3691498"><ele>374.0</ele><time>2026-04-12T08:22:10.156Z</time></trkpt><trkpt lat="43.4658208" lon="11.3689221"><ele>374.0</ele><time>2026-04-12T08:22:11.156Z</time></trkpt><trkpt lat="43.4657761" lon="11.3686984"><ele>374.0</ele><time>2026-04-12T08:22:12.155Z</time></trkpt><trkpt lat="43.4657546" lon="11.3684969"><ele>374.0</ele><time>2026-04-12T08:22:13.156Z</time></trkpt><trkpt lat="43.4657573" lon="11.3682943"><ele>374.0</ele><time>2026-04-12T08:22:14.156Z</time></trkpt><trkpt lat="43.4657823" lon="11.3680848"><ele>374.0</ele><time>2026-04-12T08:22:15.156Z</time></trkpt><trkpt lat="43.4658197" lon="11.3678693"><ele>374.0</ele><time>2026-04-12T08:22:16.155Z</time></trkpt><trkpt lat="43.4658645" lon="11.3676627"><ele>373.0</ele><time>2026-04-12T08:22:17.156Z</time></trkpt><trkpt lat="43.4659025" lon="11.36745"><ele>372.0</ele><time>2026-04-12T08:22:18.156Z</time></trkpt><trkpt lat="43.4659424" lon="11.3672455"><ele>371.0</ele><time>2026-04-12T08:22:19.156Z</time></trkpt><trkpt lat="43.4659916" lon="11.3670229"><ele>370.33333333333337</ele><time>2026-04-12T08:22:20.155Z</time></trkpt><trkpt lat="43.4660394" lon="11.3667901"><ele>369.6666666666667</ele><time>2026-04-12T08:22:21.156Z</time></trkpt><trkpt lat="43.4660936" lon="11.3665477"><ele>369.0</ele><time>2026-04-12T08:22:22.156Z</time></trkpt><trkpt lat="43.4661491" lon="11.3662934"><ele>368.6666666666667</ele><time>2026-04-12T08:22:23.156Z</time></trkpt><trkpt lat="43.4662061" lon="11.3660293"><ele>368.33333333333337</ele><time>2026-04-12T08:22:24.156Z</time></trkpt><trkpt lat="43.466263" lon="11.3657542"><ele>368.0</ele><time>2026-04-12T08:22:25.156Z</time></trkpt><trkpt lat="43.466324" lon="11.3654675"><ele>368.33333333333337</ele><time>2026-04-12T08:22:26.156Z</time></trkpt><trkpt lat="43.4663827" lon="11.3651915"><ele>368.6666666666667</ele><time>2026-04-12T08:22:27.155Z</time></trkpt><trkpt lat="43.4664386" lon="11.3649363"><ele>369.0</ele><time>2026-04-12T08:22:28.157Z</time></trkpt><trkpt lat="43.4664883" lon="11.3646927"><ele>369.0</ele><time>2026-04-12T08:22:29.157Z</time></trkpt><trkpt lat="43.4665435" lon="11.3644509"><ele>369.0</ele><time>2026-04-12T08:22:30.156Z</time></trkpt><trkpt lat="43.4665981" lon="11.3642152"><ele>369.0</ele><time>2026-04-12T08:22:31.156Z</time></trkpt><trkpt lat="43.4666438" lon="11.3639894"><ele>368.25</ele><time>2026-04-12T08:22:32.156Z</time></trkpt><trkpt lat="43.4666913" lon="11.3637845"><ele>367.5</ele><time>2026-04-12T08:22:33.155Z</time></trkpt><trkpt lat="43.4667348" lon="11.3635966"><ele>366.75</ele><time>2026-04-12T08:22:34.156Z</time></trkpt><trkpt lat="43.4667755" lon="11.3634216"><ele>366.0</ele><time>2026-04-12T08:22:35.156Z</time></trkpt><trkpt lat="43.4668104" lon="11.3632601"><ele>366.0</ele><time>2026-04-12T08:22:36.156Z</time></trkpt><trkpt lat="43.4668276" lon="11.3631132"><ele>366.0</ele><time>2026-04-12T08:22:37.156Z</time></trkpt><trkpt lat="43.4668293" lon="11.3629822"><ele>366.0</ele><time>2026-04-12T08:22:38.156Z</time></trkpt><trkpt lat="43.4668066" lon="11.3628657"><ele>366.0</ele><time>2026-04-12T08:22:39.155Z</time></trkpt><trkpt lat="43.4667545" lon="11.3627508"><ele>366.0</ele><time>2026-04-12T08:22:40.156Z</time></trkpt><trkpt lat="43.4666956" lon="11.3626532"><ele>366.6</ele><time>2026-04-12T08:22:41.156Z</time></trkpt><trkpt lat="43.4666413" lon="11.3625668"><ele>367.20000000000005</ele><time>2026-04-12T08:22:42.157Z</time></trkpt><trkpt lat="43.4665871" lon="11.3624728"><ele>367.79999999999995</ele><time>2026-04-12T08:22:43.156Z</time></trkpt><trkpt lat="43.4665345" lon="11.3623591"><ele>368.4</ele><time>2026-04-12T08:22:44.155Z</time></trkpt><trkpt lat="43.4664813" lon="11.3622427"><ele>369.0</ele><time>2026-04-12T08:22:45.156Z</time></trkpt><trkpt lat="43.4664329" lon="11.3621223"><ele>368.6</ele><time>2026-04-12T08:22:46.156Z</time></trkpt><trkpt lat="43.4663863" lon="11.3619939"><ele>368.2</ele><time>2026-04-12T08:22:47.157Z</time></trkpt><trkpt lat="43.4663448" lon="11.3618585"><ele>367.8</ele><time>2026-04-12T08:22:48.155Z</time></trkpt><trkpt lat="43.4663035" lon="11.3617165"><ele>367.40000000000003</ele><time>2026-04-12T08:22:49.156Z</time></trkpt><trkpt lat="43.4662674" lon="11.3615824"><ele>367.0</ele><time>2026-04-12T08:22:50.156Z</time></trkpt><trkpt lat="43.4662364" lon="11.3614596"><ele>367.4285714285714</ele><time>2026-04-12T08:22:51.156Z</time></trkpt><trkpt lat="43.4662076" lon="11.3613455"><ele>367.8571428571429</ele><time>2026-04-12T08:22:52.157Z</time></trkpt><trkpt lat="43.4661741" lon="11.3612549"><ele>368.2857142857143</ele><time>2026-04-12T08:22:53.156Z</time></trkpt><trkpt lat="43.4661369" lon="11.3611789"><ele>368.71428571428567</ele><time>2026-04-12T08:22:54.157Z</time></trkpt><trkpt lat="43.466091" lon="11.361104"><ele>369.1428571428571</ele><time>2026-04-12T08:22:55.156Z</time></trkpt><trkpt lat="43.4660323" lon="11.3610352"><ele>369.57142857142856</ele><time>2026-04-12T08:22:56.155Z</time></trkpt><trkpt lat="43.4659722" lon="11.3609846"><ele>370.0</ele><time>2026-04-12T08:22:57.157Z</time></trkpt><trkpt lat="43.4659085" lon="11.3609377"><ele>370.0</ele><time>2026-04-12T08:22:58.156Z</time></trkpt><trkpt lat="43.4658331" lon="11.3608821"><ele>370.0</ele><time>2026-04-12T08:22:59.156Z</time></trkpt><trkpt lat="43.465763" lon="11.3608097"><ele>370.0</ele><time>2026-04-12T08:23:00.157Z</time></trkpt><trkpt lat="43.4657028" lon="11.3607372"><ele>370.0</ele><time>2026-04-12T08:23:01.156Z</time></trkpt><trkpt lat="43.4656407" lon="11.3606343"><ele>370.0</ele><time>2026-04-12T08:23:02.156Z</time></trkpt><trkpt lat="43.4655825" lon="11.3605185"><ele>370.4</ele><time>2026-04-12T08:23:03.156Z</time></trkpt><trkpt lat="43.4655245" lon="11.3603989"><ele>370.8</ele><time>2026-04-12T08:23:04.157Z</time></trkpt><trkpt lat="43.4654625" lon="11.3602832"><ele>371.20000000000005</ele><time>2026-04-12T08:23:05.156Z</time></trkpt><trkpt lat="43.465399" lon="11.3601854"><ele>371.6</ele><time>2026-04-12T08:23:06.156Z</time></trkpt><trkpt lat="43.4653309" lon="11.3600959"><ele>372.0</ele><time>2026-04-12T08:23:07.156Z</time></trkpt><trkpt lat="43.4652641" lon="11.3600098"><ele>370.6</ele><time>2026-04-12T08:23:08.156Z</time></trkpt><trkpt lat="43.4651998" lon="11.3599065"><ele>369.20000000000005</ele><time>2026-04-12T08:23:09.157Z</time></trkpt><trkpt lat="43.4651459" lon="11.3597903"><ele>367.8</ele><time>2026-04-12T08:23:10.156Z</time></trkpt><trkpt lat="43.4650963" lon="11.359663"><ele>366.4</ele><time>2026-04-12T08:23:11.156Z</time></trkpt><trkpt lat="43.4650537" lon="11.3595417"><ele>365.0</ele><time>2026-04-12T08:23:12.156Z</time></trkpt><trkpt lat="43.4650161" lon="11.3594004"><ele>365.0</ele><time>2026-04-12T08:23:13.155Z</time></trkpt><trkpt lat="43.4649849" lon="11.3592497"><ele>365.0</ele><time>2026-04-12T08:23:14.156Z</time></trkpt><trkpt lat="43.4649511" lon="11.3590903"><ele>365.0</ele><time>2026-04-12T08:23:15.157Z</time></trkpt><trkpt lat="43.464927" lon="11.3589379"><ele>365.0</ele><time>2026-04-12T08:23:16.156Z</time></trkpt><trkpt lat="43.4648971" lon="11.3587772"><ele>366.0</ele><time>2026-04-12T08:23:17.157Z</time></trkpt><trkpt lat="43.4648654" lon="11.358613"><ele>367.0</ele><time>2026-04-12T08:23:18.156Z</time></trkpt><trkpt lat="43.4648292" lon="11.3584458"><ele>368.0</ele><time>2026-04-12T08:23:19.156Z</time></trkpt><trkpt lat="43.4647889" lon="11.3582895"><ele>369.0</ele><time>2026-04-12T08:23:20.157Z</time></trkpt><trkpt lat="43.4647469" lon="11.3581484"><ele>367.75</ele><time>2026-04-12T08:23:21.157Z</time></trkpt><trkpt lat="43.4647021" lon="11.3580076"><ele>366.5</ele><time>2026-04-12T08:23:22.155Z</time></trkpt><trkpt lat="43.4646443" lon="11.3578657"><ele>365.25</ele><time>2026-04-12T08:23:23.156Z</time></trkpt><trkpt lat="43.4645718" lon="11.3577283"><ele>364.0</ele><time>2026-04-12T08:23:24.156Z</time></trkpt><trkpt lat="43.4644836" lon="11.3575942"><ele>364.0</ele><time>2026-04-12T08:23:25.156Z</time></trkpt><trkpt lat="43.4643869" lon="11.3574739"><ele>364.0</ele><time>2026-04-12T08:23:26.156Z</time></trkpt><trkpt lat="43.4642889" lon="11.357381"><ele>364.0</ele><time>2026-04-12T08:23:27.157Z</time></trkpt><trkpt lat="43.464185" lon="11.3572893"><ele>364.0</ele><time>2026-04-12T08:23:28.157Z</time></trkpt><trkpt lat="43.4640917" lon="11.3572103"><ele>364.79999999999995</ele><time>2026-04-12T08:23:29.156Z</time></trkpt><trkpt lat="43.4639949" lon="11.3571365"><ele>365.59999999999997</ele><time>2026-04-12T08:23:30.155Z</time></trkpt><trkpt lat="43.4639004" lon="11.3570881"><ele>366.4</ele><time>2026-04-12T08:23:31.158Z</time></trkpt><trkpt lat="43.4638079" lon="11.3570652"><ele>367.2</ele><time>2026-04-12T08:23:32.156Z</time></trkpt><trkpt lat="43.4637041" lon="11.3570416"><ele>368.0</ele><time>2026-04-12T08:23:33.156Z</time></trkpt><trkpt lat="43.4635957" lon="11.3570216"><ele>368.0</ele><time>2026-04-12T08:23:34.157Z</time></trkpt><trkpt lat="43.4634799" lon="11.3569921"><ele>368.0</ele><time>2026-04-12T08:23:35.157Z</time></trkpt><trkpt lat="43.4633691" lon="11.3569738"><ele>368.0</ele><time>2026-04-12T08:23:36.156Z</time></trkpt><trkpt lat="43.4632578" lon="11.3569576"><ele>368.0</ele><time>2026-04-12T08:23:37.156Z</time></trkpt><trkpt lat="43.4631487" lon="11.3569335"><ele>368.0</ele><time>2026-04-12T08:23:38.156Z</time></trkpt><trkpt lat="43.4630512" lon="11.3568875"><ele>368.0</ele><time>2026-04-12T08:23:39.157Z</time></trkpt><trkpt lat="43.4629544" lon="11.3568209"><ele>368.0</ele><time>2026-04-12T08:23:40.156Z</time></trkpt><trkpt lat="43.4628569" lon="11.3567308"><ele>368.0</ele><time>2026-04-12T08:23:41.157Z</time></trkpt><trkpt lat="43.4627462" lon="11.3566311"><ele>367.0</ele><time>2026-04-12T08:23:42.156Z</time></trkpt><trkpt lat="43.4626281" lon="11.3565185"><ele>366.0</ele><time>2026-04-12T08:23:43.156Z</time></trkpt><trkpt lat="43.4625088" lon="11.3563996"><ele>365.0</ele><time>2026-04-12T08:23:44.156Z</time></trkpt><trkpt lat="43.462382" lon="11.3562852"><ele>364.0</ele><time>2026-04-12T08:23:45.156Z</time></trkpt><trkpt lat="43.462254" lon="11.3561622"><ele>364.0</ele><time>2026-04-12T08:23:46.156Z</time></trkpt><trkpt lat="43.4621251" lon="11.35603"><ele>364.0</ele><time>2026-04-12T08:23:47.156Z</time></trkpt><trkpt lat="43.4619816" lon="11.3558904"><ele>364.0</ele><time>2026-04-12T08:23:48.156Z</time></trkpt><trkpt lat="43.4618498" lon="11.35577"><ele>362.0</ele><time>2026-04-12T08:23:49.156Z</time></trkpt><trkpt lat="43.4617219" lon="11.355665"><ele>360.0</ele><time>2026-04-12T08:23:50.155Z</time></trkpt><trkpt lat="43.4615969" lon="11.3555741"><ele>358.0</ele><time>2026-04-12T08:23:51.155Z</time></trkpt><trkpt lat="43.4614895" lon="11.3555102"><ele>356.0</ele><time>2026-04-12T08:23:52.156Z</time></trkpt><trkpt lat="43.4613906" lon="11.3554745"><ele>355.6</ele><time>2026-04-12T08:23:53.157Z</time></trkpt><trkpt lat="43.4612973" lon="11.3554679"><ele>355.20000000000005</ele><time>2026-04-12T08:23:54.156Z</time></trkpt><trkpt lat="43.461194" lon="11.3554848"><ele>354.79999999999995</ele><time>2026-04-12T08:23:55.155Z</time></trkpt><trkpt lat="43.4610815" lon="11.3555128"><ele>354.4</ele><time>2026-04-12T08:23:56.156Z</time></trkpt><trkpt lat="43.4609693" lon="11.3555414"><ele>354.0</ele><time>2026-04-12T08:23:57.156Z</time></trkpt><trkpt lat="43.4608522" lon="11.3555515"><ele>354.0</ele><time>2026-04-12T08:23:58.156Z</time></trkpt><trkpt lat="43.4607236" lon="11.3555547"><ele>354.0</ele><time>2026-04-12T08:23:59.156Z</time></trkpt><trkpt lat="43.4605877" lon="11.3555369"><ele>354.0</ele><time>2026-04-12T08:24:00.156Z</time></trkpt><trkpt lat="43.4604574" lon="11.3555062"><ele>354.0</ele><time>2026-04-12T08:24:01.156Z</time></trkpt><trkpt lat="43.4603306" lon="11.355475"><ele>357.25</ele><time>2026-04-12T08:24:02.156Z</time></trkpt><trkpt lat="43.4602092" lon="11.3554572"><ele>360.5</ele><time>2026-04-12T08:24:03.156Z</time></trkpt><trkpt lat="43.4600928" lon="11.3554672"><ele>363.75</ele><time>2026-04-12T08:24:04.156Z</time></trkpt><trkpt lat="43.4599765" lon="11.3554939"><ele>367.0</ele><time>2026-04-12T08:24:05.158Z</time></trkpt><trkpt lat="43.4598609" lon="11.3555189"><ele>367.0</ele><time>2026-04-12T08:24:06.156Z</time></trkpt><trkpt lat="43.4597347" lon="11.3555203"><ele>367.0</ele><time>2026-04-12T08:24:07.158Z</time></trkpt><trkpt lat="43.459596" lon="11.3554994"><ele>367.0</ele><time>2026-04-12T08:24:08.155Z</time></trkpt><trkpt lat="43.4594515" lon="11.3554769"><ele>367.0</ele><time>2026-04-12T08:24:09.156Z</time></trkpt><trkpt lat="43.4593095" lon="11.3554494"><ele>364.25</ele><time>2026-04-12T08:24:10.157Z</time></trkpt><trkpt lat="43.459172" lon="11.3554183"><ele>361.5</ele><time>2026-04-12T08:24:11.156Z</time></trkpt><trkpt lat="43.4590326" lon="11.3553768"><ele>358.75</ele><time>2026-04-12T08:24:12.156Z</time></trkpt><trkpt lat="43.4588914" lon="11.3553164"><ele>356.0</ele><time>2026-04-12T08:24:13.157Z</time></trkpt><trkpt lat="43.4587488" lon="11.3552438"><ele>354.0</ele><time>2026-04-12T08:24:14.156Z</time></trkpt><trkpt lat="43.4586076" lon="11.3551481"><ele>352.0</ele><time>2026-04-12T08:24:15.156Z</time></trkpt><trkpt lat="43.4584681" lon="11.3550336"><ele>350.0</ele><time>2026-04-12T08:24:16.157Z</time></trkpt><trkpt lat="43.4583424" lon="11.3549236"><ele>350.0</ele><time>2026-04-12T08:24:17.157Z</time></trkpt><trkpt lat="43.4582284" lon="11.3548264"><ele>350.0</ele><time>2026-04-12T08:24:18.155Z</time></trkpt><trkpt lat="43.4581226" lon="11.3547518"><ele>350.0</ele><time>2026-04-12T08:24:19.157Z</time></trkpt><trkpt lat="43.4580149" lon="11.3547007"><ele>350.0</ele><time>2026-04-12T08:24:20.155Z</time></trkpt><trkpt lat="43.4578916" lon="11.3546545"><ele>351.25</ele><time>2026-04-12T08:24:21.156Z</time></trkpt><trkpt lat="43.4577574" lon="11.3546104"><ele>352.5</ele><time>2026-04-12T08:24:22.157Z</time></trkpt><trkpt lat="43.457613" lon="11.35456"><ele>353.75</ele><time>2026-04-12T08:24:23.156Z</time></trkpt><trkpt lat="43.4574772" lon="11.3544949"><ele>355.0</ele><time>2026-04-12T08:24:24.155Z</time></trkpt><trkpt lat="43.4573512" lon="11.3544174"><ele>355.0</ele><time>2026-04-12T08:24:25.158Z</time></trkpt><trkpt lat="43.4572272" lon="11.3543428"><ele>355.0</ele><time>2026-04-12T08:24:26.157Z</time></trkpt><trkpt lat="43.4570996" lon="11.3542953"><ele>355.0</ele><time>2026-04-12T08:24:27.156Z</time></trkpt><trkpt lat="43.4569818" lon="11.3542576"><ele>355.0</ele><time>2026-04-12T08:24:28.157Z</time></trkpt><trkpt lat="43.4568664" lon="11.3542239"><ele>352.75</ele><time>2026-04-12T08:24:29.156Z</time></trkpt><trkpt lat="43.4567452" lon="11.3541913"><ele>350.5</ele><time>2026-04-12T08:24:30.155Z</time></trkpt><trkpt lat="43.4566172" lon="11.3541635"><ele>348.25</ele><time>2026-04-12T08:24:31.156Z</time></trkpt><trkpt lat="43.4564844" lon="11.3541398"><ele>346.0</ele><time>2026-04-12T08:24:32.157Z</time></trkpt><trkpt lat="43.4563585" lon="11.3541244"><ele>345.75</ele><time>2026-04-12T08:24:33.156Z</time></trkpt><trkpt lat="43.4562353" lon="11.3541058"><ele>345.5</ele><time>2026-04-12T08:24:34.156Z</time></trkpt><trkpt lat="43.4561077" lon="11.3540782"><ele>345.25</ele><time>2026-04-12T08:24:35.157Z</time></trkpt><trkpt lat="43.4559795" lon="11.3540438"><ele>345.0</ele><time>2026-04-12T08:24:36.157Z</time></trkpt><trkpt lat="43.4558519" lon="11.3539977"><ele>345.0</ele><time>2026-04-12T08:24:37.157Z</time></trkpt><trkpt lat="43.4557244" lon="11.3539472"><ele>345.0</ele><time>2026-04-12T08:24:38.156Z</time></trkpt><trkpt lat="43.4556079" lon="11.3539058"><ele>345.0</ele><time>2026-04-12T08:24:39.156Z</time></trkpt><trkpt lat="43.4555041" lon="11.353878"><ele>345.0</ele><time>2026-04-12T08:24:40.157Z</time></trkpt><trkpt lat="43.4554108" lon="11.3538662"><ele>344.6</ele><time>2026-04-12T08:24:41.158Z</time></trkpt><trkpt lat="43.4553194" lon="11.3538742"><ele>344.2</ele><time>2026-04-12T08:24:42.158Z</time></trkpt><trkpt lat="43.4552333" lon="11.3538973"><ele>343.79999999999995</ele><time>2026-04-12T08:24:43.157Z</time></trkpt><trkpt lat="43.4551451" lon="11.3539224"><ele>343.4</ele><time>2026-04-12T08:24:44.156Z</time></trkpt><trkpt lat="43.455045" lon="11.3539459"><ele>343.0</ele><time>2026-04-12T08:24:45.158Z</time></trkpt><trkpt lat="43.4549495" lon="11.3539735"><ele>343.0</ele><time>2026-04-12T08:24:46.157Z</time></trkpt><trkpt lat="43.4548589" lon="11.3540132"><ele>343.0</ele><time>2026-04-12T08:24:47.155Z</time></trkpt><trkpt lat="43.4547668" lon="11.354068"><ele>343.0</ele><time>2026-04-12T08:24:48.157Z</time></trkpt><trkpt lat="43.4546803" lon="11.3541233"><ele>343.0</ele><time>2026-04-12T08:24:49.155Z</time></trkpt><trkpt lat="43.4545918" lon="11.3541862"><ele>343.0</ele><time>2026-04-12T08:24:50.157Z</time></trkpt><trkpt lat="43.4545022" lon="11.3542395"><ele>341.8333333333333</ele><time>2026-04-12T08:24:51.156Z</time></trkpt><trkpt lat="43.4544137" lon="11.3542817"><ele>340.66666666666663</ele><time>2026-04-12T08:24:52.155Z</time></trkpt><trkpt lat="43.4543287" lon="11.3543031"><ele>339.5</ele><time>2026-04-12T08:24:53.157Z</time></trkpt><trkpt lat="43.4542531" lon="11.3543036"><ele>338.3333333333333</ele><time>2026-04-12T08:24:54.156Z</time></trkpt><trkpt lat="43.454181" lon="11.3542784"><ele>337.1666666666667</ele><time>2026-04-12T08:24:55.156Z</time></trkpt><trkpt lat="43.4541185" lon="11.3542429"><ele>336.0</ele><time>2026-04-12T08:24:56.157Z</time></trkpt><trkpt lat="43.4540461" lon="11.3542245"><ele>336.0</ele><time>2026-04-12T08:24:57.157Z</time></trkpt><trkpt lat="43.4539699" lon="11.3542294"><ele>336.0</ele><time>2026-04-12T08:24:58.155Z</time></trkpt><trkpt lat="43.4538711" lon="11.3542552"><ele>336.0</ele><time>2026-04-12T08:24:59.156Z</time></trkpt><trkpt lat="43.4537673" lon="11.3543042"><ele>336.0</ele><time>2026-04-12T08:25:00.157Z</time></trkpt><trkpt lat="43.453653" lon="11.3543545"><ele>336.0</ele><time>2026-04-12T08:25:01.155Z</time></trkpt><trkpt lat="43.4535313" lon="11.3544031"><ele>338.0</ele><time>2026-04-12T08:25:02.155Z</time></trkpt><trkpt lat="43.4534219" lon="11.35446"><ele>340.0</ele><time>2026-04-12T08:25:03.156Z</time></trkpt><trkpt lat="43.4532958" lon="11.3545301"><ele>342.0</ele><time>2026-04-12T08:25:04.155Z</time></trkpt><trkpt lat="43.4531628" lon="11.3546021"><ele>344.0</ele><time>2026-04-12T08:25:05.156Z</time></trkpt><trkpt lat="43.4530251" lon="11.3546863"><ele>343.33333333333337</ele><time>2026-04-12T08:25:06.155Z</time></trkpt><trkpt lat="43.4528714" lon="11.3547822"><ele>342.6666666666667</ele><time>2026-04-12T08:25:07.155Z</time></trkpt><trkpt lat="43.4527206" lon="11.3548781"><ele>342.0</ele><time>2026-04-12T08:25:08.155Z</time></trkpt><trkpt lat="43.4525757" lon="11.3549581"><ele>342.0</ele><time>2026-04-12T08:25:09.158Z</time></trkpt><trkpt lat="43.4524401" lon="11.3550204"><ele>342.0</ele><time>2026-04-12T08:25:10.157Z</time></trkpt><trkpt lat="43.4523111" lon="11.3550744"><ele>342.0</ele><time>2026-04-12T08:25:11.157Z</time></trkpt><trkpt lat="43.4521897" lon="11.3551288"><ele>342.0</ele><time>2026-04-12T08:25:12.156Z</time></trkpt><trkpt lat="43.4520691" lon="11.3551758"><ele>343.75</ele><time>2026-04-12T08:25:13.156Z</time></trkpt><trkpt lat="43.4519421" lon="11.3552142"><ele>345.5</ele><time>2026-04-12T08:25:14.156Z</time></trkpt><trkpt lat="43.4518087" lon="11.3552402"><ele>347.25</ele><time>2026-04-12T08:25:15.156Z</time></trkpt><trkpt lat="43.451674" lon="11.3552796"><ele>349.0</ele><time>2026-04-12T08:25:16.157Z</time></trkpt><trkpt lat="43.4515485" lon="11.3553435"><ele>349.0</ele><time>2026-04-12T08:25:17.157Z</time></trkpt><trkpt lat="43.4514241" lon="11.3554165"><ele>349.0</ele><time>2026-04-12T08:25:18.156Z</time></trkpt><trkpt lat="43.4512951" lon="11.355507"><ele>349.0</ele><time>2026-04-12T08:25:19.157Z</time></trkpt><trkpt lat="43.4511758" lon="11.3555923"><ele>349.0</ele><time>2026-04-12T08:25:20.157Z</time></trkpt><trkpt lat="43.4510712" lon="11.3556929"><ele>348.5</ele><time>2026-04-12T08:25:21.157Z</time></trkpt><trkpt lat="43.4509653" lon="11.3557965"><ele>348.0</ele><time>2026-04-12T08:25:22.157Z</time></trkpt><trkpt lat="43.4508652" lon="11.3559053"><ele>347.5</ele><time>2026-04-12T08:25:23.157Z</time></trkpt><trkpt lat="43.4507777" lon="11.3560035"><ele>347.0</ele><time>2026-04-12T08:25:24.156Z</time></trkpt><trkpt lat="43.4506951" lon="11.3560993"><ele>347.0</ele><time>2026-04-12T08:25:25.156Z</time></trkpt><trkpt lat="43.4506106" lon="11.3561843"><ele>347.0</ele><time>2026-04-12T08:25:26.157Z</time></trkpt><trkpt lat="43.4505242" lon="11.3562852"><ele>347.0</ele><time>2026-04-12T08:25:27.157Z</time></trkpt><trkpt lat="43.4504173" lon="11.3563807"><ele>347.0</ele><time>2026-04-12T08:25:28.156Z</time></trkpt><trkpt lat="43.4503102" lon="11.3564785"><ele>345.25</ele><time>2026-04-12T08:25:29.156Z</time></trkpt><trkpt lat="43.450211" lon="11.3565615"><ele>343.5</ele><time>2026-04-12T08:25:30.157Z</time></trkpt><trkpt lat="43.4501156" lon="11.3566207"><ele>341.75</ele><time>2026-04-12T08:25:31.156Z</time></trkpt><trkpt lat="43.4500058" lon="11.356662"><ele>340.0</ele><time>2026-04-12T08:25:32.155Z</time></trkpt><trkpt lat="43.4498857" lon="11.3566815"><ele>340.0</ele><time>2026-04-12T08:25:33.157Z</time></trkpt><trkpt lat="43.4497611" lon="11.3566818"><ele>340.0</ele><time>2026-04-12T08:25:34.156Z</time></trkpt><trkpt lat="43.4496404" lon="11.3566718"><ele>340.0</ele><time>2026-04-12T08:25:35.155Z</time></trkpt><trkpt lat="43.449524" lon="11.356655"><ele>340.0</ele><time>2026-04-12T08:25:36.156Z</time></trkpt><trkpt lat="43.4494055" lon="11.3566237"><ele>338.0</ele><time>2026-04-12T08:25:37.156Z</time></trkpt><trkpt lat="43.4492888" lon="11.3565685"><ele>336.0</ele><time>2026-04-12T08:25:38.156Z</time></trkpt><trkpt lat="43.449169" lon="11.356494"><ele>334.0</ele><time>2026-04-12T08:25:39.157Z</time></trkpt><trkpt lat="43.4490369" lon="11.3563893"><ele>332.0</ele><time>2026-04-12T08:25:40.155Z</time></trkpt><trkpt lat="43.4489006" lon="11.3562829"><ele>333.33333333333337</ele><time>2026-04-12T08:25:41.156Z</time></trkpt><trkpt lat="43.4487444" lon="11.35618"><ele>334.6666666666667</ele><time>2026-04-12T08:25:42.156Z</time></trkpt><trkpt lat="43.448585" lon="11.3560791"><ele>336.0</ele><time>2026-04-12T08:25:43.156Z</time></trkpt><trkpt lat="43.4484263" lon="11.3559815"><ele>336.0</ele><time>2026-04-12T08:25:44.157Z</time></trkpt><trkpt lat="43.4482612" lon="11.3558845"><ele>336.0</ele><time>2026-04-12T08:25:45.155Z</time></trkpt><trkpt lat="43.4481099" lon="11.3557907"><ele>336.0</ele><time>2026-04-12T08:25:46.156Z</time></trkpt><trkpt lat="43.4479744" lon="11.3557067"><ele>334.75</ele><time>2026-04-12T08:25:47.157Z</time></trkpt><trkpt lat="43.4478437" lon="11.355625"><ele>333.5</ele><time>2026-04-12T08:25:48.157Z</time></trkpt><trkpt lat="43.4477167" lon="11.3555504"><ele>332.25</ele><time>2026-04-12T08:25:49.157Z</time></trkpt><trkpt lat="43.4475852" lon="11.3554812"><ele>331.0</ele><time>2026-04-12T08:25:50.156Z</time></trkpt><trkpt lat="43.4474383" lon="11.3554235"><ele>333.0</ele><time>2026-04-12T08:25:51.157Z</time></trkpt><trkpt lat="43.4472782" lon="11.3553736"><ele>335.0</ele><time>2026-04-12T08:25:52.156Z</time></trkpt><trkpt lat="43.4471051" lon="11.3553341"><ele>337.0</ele><time>2026-04-12T08:25:53.157Z</time></trkpt><trkpt lat="43.4469263" lon="11.3552968"><ele>337.0</ele><time>2026-04-12T08:25:54.156Z</time></trkpt><trkpt lat="43.4467392" lon="11.3552594"><ele>337.0</ele><time>2026-04-12T08:25:55.157Z</time></trkpt><trkpt lat="43.4465596" lon="11.3552264"><ele>337.0</ele><time>2026-04-12T08:25:56.157Z</time></trkpt><trkpt lat="43.4463851" lon="11.3551932"><ele>335.3333333333333</ele><time>2026-04-12T08:25:57.156Z</time></trkpt><trkpt lat="43.4462191" lon="11.3551716"><ele>333.6666666666667</ele><time>2026-04-12T08:25:58.156Z</time></trkpt><trkpt lat="43.4460652" lon="11.3551549"><ele>332.0</ele><time>2026-04-12T08:25:59.156Z</time></trkpt><trkpt lat="43.4459239" lon="11.3551436"><ele>332.0</ele><time>2026-04-12T08:26:00.155Z</time></trkpt><trkpt lat="43.4457952" lon="11.3551249"><ele>332.0</ele><time>2026-04-12T08:26:01.157Z</time></trkpt><trkpt lat="43.4456656" lon="11.3550877"><ele>332.0</ele><time>2026-04-12T08:26:02.156Z</time></trkpt><trkpt lat="43.4455301" lon="11.355026"><ele>332.0</ele><time>2026-04-12T08:26:03.156Z</time></trkpt><trkpt lat="43.4454036" lon="11.3549408"><ele>331.0</ele><time>2026-04-12T08:26:04.157Z</time></trkpt><trkpt lat="43.445281" lon="11.354832"><ele>330.0</ele><time>2026-04-12T08:26:05.157Z</time></trkpt><trkpt lat="43.4451707" lon="11.354702"><ele>329.0</ele><time>2026-04-12T08:26:06.158Z</time></trkpt><trkpt lat="43.445082" lon="11.3545762"><ele>328.0</ele><time>2026-04-12T08:26:07.157Z</time></trkpt><trkpt lat="43.4450152" lon="11.3544451"><ele>328.0</ele><time>2026-04-12T08:26:08.157Z</time></trkpt><trkpt lat="43.4449716" lon="11.3543114"><ele>328.0</ele><time>2026-04-12T08:26:09.156Z</time></trkpt><trkpt lat="43.4449451" lon="11.3541631"><ele>328.0</ele><time>2026-04-12T08:26:10.157Z</time></trkpt><trkpt lat="43.4449323" lon="11.3540351"><ele>328.0</ele><time>2026-04-12T08:26:11.156Z</time></trkpt><trkpt lat="43.4449196" lon="11.3539158"><ele>328.0</ele><time>2026-04-12T08:26:12.156Z</time></trkpt><trkpt lat="43.4449095" lon="11.3538096"><ele>327.79999999999995</ele><time>2026-04-12T08:26:13.157Z</time></trkpt><trkpt lat="43.4448733" lon="11.3536753"><ele>327.6</ele><time>2026-04-12T08:26:15.158Z</time></trkpt><trkpt lat="43.4448777" lon="11.3535667"><ele>327.4</ele><time>2026-04-12T08:27:19.157Z</time></trkpt><trkpt lat="43.4449768" lon="11.3534483"><ele>327.20000000000005</ele><time>2026-04-12T08:27:21.157Z</time></trkpt><trkpt lat="43.4450463" lon="11.3533705"><ele>327.0</ele><time>2026-04-12T08:27:22.156Z</time></trkpt><trkpt lat="43.4451171" lon="11.3532987"><ele>327.0</ele><time>2026-04-12T08:27:23.157Z</time></trkpt><trkpt lat="43.4451957" lon="11.3532285"><ele>327.0</ele><time>2026-04-12T08:27:24.157Z</time></trkpt><trkpt lat="43.4452852" lon="11.3531523"><ele>327.0</ele><time>2026-04-12T08:27:25.156Z</time></trkpt><trkpt lat="43.4453925" lon="11.353073"><ele>327.0</ele><time>2026-04-12T08:27:26.156Z</time></trkpt><trkpt lat="43.4455146" lon="11.3529872"><ele>328.3333333333333</ele><time>2026-04-12T08:27:27.156Z</time></trkpt><trkpt lat="43.4456448" lon="11.3528972"><ele>329.66666666666663</ele><time>2026-04-12T08:27:28.156Z</time></trkpt><trkpt lat="43.4457892" lon="11.3528013"><ele>331.0</ele><time>2026-04-12T08:27:29.157Z</time></trkpt><trkpt lat="43.4459414" lon="11.3527021"><ele>331.0</ele><time>2026-04-12T08:27:30.157Z</time></trkpt><trkpt lat="43.4460934" lon="11.3526"><ele>331.0</ele><time>2026-04-12T08:27:31.156Z</time></trkpt><trkpt lat="43.4462476" lon="11.3525029"><ele>331.0</ele><time>2026-04-12T08:27:32.157Z</time></trkpt><trkpt lat="43.4463964" lon="11.3523943"><ele>332.0</ele><time>2026-04-12T08:27:33.156Z</time></trkpt><trkpt lat="43.446541" lon="11.3522866"><ele>333.0</ele><time>2026-04-12T08:27:34.156Z</time></trkpt><trkpt lat="43.4466856" lon="11.3521703"><ele>334.0</ele><time>2026-04-12T08:27:35.157Z</time></trkpt><trkpt lat="43.4468276" lon="11.3520445"><ele>334.0</ele><time>2026-04-12T08:27:36.156Z</time></trkpt><trkpt lat="43.446966" lon="11.3519129"><ele>334.0</ele><time>2026-04-12T08:27:37.157Z</time></trkpt><trkpt lat="43.4471007" lon="11.351775"><ele>334.0</ele><time>2026-04-12T08:27:38.156Z</time></trkpt><trkpt lat="43.4472272" lon="11.3516469"><ele>334.75</ele><time>2026-04-12T08:27:39.157Z</time></trkpt><trkpt lat="43.4473503" lon="11.351533"><ele>335.5</ele><time>2026-04-12T08:27:40.157Z</time></trkpt><trkpt lat="43.4474808" lon="11.3514296"><ele>336.25</ele><time>2026-04-12T08:27:41.157Z</time></trkpt><trkpt lat="43.4476127" lon="11.3513298"><ele>337.0</ele><time>2026-04-12T08:27:42.157Z</time></trkpt><trkpt lat="43.4477477" lon="11.3512245"><ele>337.3333333333333</ele><time>2026-04-12T08:27:43.157Z</time></trkpt><trkpt lat="43.4478837" lon="11.3511192"><ele>337.6666666666667</ele><time>2026-04-12T08:27:44.157Z</time></trkpt><trkpt lat="43.4480231" lon="11.3510118"><ele>338.0</ele><time>2026-04-12T08:27:45.158Z</time></trkpt><trkpt lat="43.4481547" lon="11.3509182"><ele>338.0</ele><time>2026-04-12T08:27:46.157Z</time></trkpt><trkpt lat="43.4482699" lon="11.3508348"><ele>338.0</ele><time>2026-04-12T08:27:47.157Z</time></trkpt><trkpt lat="43.4483803" lon="11.3507493"><ele>338.0</ele><time>2026-04-12T08:27:48.156Z</time></trkpt><trkpt lat="43.4484759" lon="11.3506392"><ele>338.0</ele><time>2026-04-12T08:27:49.157Z</time></trkpt><trkpt lat="43.4485666" lon="11.3505063"><ele>339.0</ele><time>2026-04-12T08:27:50.156Z</time></trkpt><trkpt lat="43.4486608" lon="11.3503598"><ele>340.0</ele><time>2026-04-12T08:27:51.157Z</time></trkpt><trkpt lat="43.4487708" lon="11.3502188"><ele>341.0</ele><time>2026-04-12T08:27:52.156Z</time></trkpt><trkpt lat="43.4489003" lon="11.3500764"><ele>341.0</ele><time>2026-04-12T08:27:53.157Z</time></trkpt><trkpt lat="43.4490347" lon="11.3499493"><ele>341.0</ele><time>2026-04-12T08:27:54.157Z</time></trkpt><trkpt lat="43.4491732" lon="11.349816"><ele>341.0</ele><time>2026-04-12T08:27:55.157Z</time></trkpt><trkpt lat="43.4493101" lon="11.3496661"><ele>340.33333333333337</ele><time>2026-04-12T08:27:56.157Z</time></trkpt><trkpt lat="43.4494451" lon="11.3495041"><ele>339.6666666666667</ele><time>2026-04-12T08:27:57.157Z</time></trkpt><trkpt lat="43.4495747" lon="11.3493382"><ele>339.0</ele><time>2026-04-12T08:27:58.158Z</time></trkpt><trkpt lat="43.4496937" lon="11.3491829"><ele>339.75</ele><time>2026-04-12T08:27:59.157Z</time></trkpt><trkpt lat="43.4498016" lon="11.3490336"><ele>340.5</ele><time>2026-04-12T08:28:00.157Z</time></trkpt><trkpt lat="43.4498944" lon="11.348888"><ele>341.25</ele><time>2026-04-12T08:28:01.157Z</time></trkpt><trkpt lat="43.4499722" lon="11.3487359"><ele>342.0</ele><time>2026-04-12T08:28:02.158Z</time></trkpt><trkpt lat="43.4500385" lon="11.3485807"><ele>342.0</ele><time>2026-04-12T08:28:03.156Z</time></trkpt><trkpt lat="43.4501012" lon="11.348424"><ele>342.0</ele><time>2026-04-12T08:28:04.157Z</time></trkpt><trkpt lat="43.4501716" lon="11.3482718"><ele>342.0</ele><time>2026-04-12T08:28:05.157Z</time></trkpt><trkpt lat="43.4502513" lon="11.3481225"><ele>342.0</ele><time>2026-04-12T08:28:06.156Z</time></trkpt><trkpt lat="43.4503488" lon="11.3479774"><ele>343.6666666666667</ele><time>2026-04-12T08:28:07.157Z</time></trkpt><trkpt lat="43.4504614" lon="11.3478368"><ele>345.33333333333337</ele><time>2026-04-12T08:28:08.157Z</time></trkpt><trkpt lat="43.4505777" lon="11.3476975"><ele>347.0</ele><time>2026-04-12T08:28:09.158Z</time></trkpt><trkpt lat="43.4507127" lon="11.3475756"><ele>347.0</ele><time>2026-04-12T08:28:10.157Z</time></trkpt><trkpt lat="43.450837" lon="11.3474615"><ele>347.0</ele><time>2026-04-12T08:28:11.156Z</time></trkpt><trkpt lat="43.450942" lon="11.3473531"><ele>347.0</ele><time>2026-04-12T08:28:12.157Z</time></trkpt><trkpt lat="43.4510351" lon="11.3472349"><ele>347.0</ele><time>2026-04-12T08:28:13.157Z</time></trkpt><trkpt lat="43.4511188" lon="11.3471009"><ele>346.0</ele><time>2026-04-12T08:28:14.157Z</time></trkpt><trkpt lat="43.4511975" lon="11.3469442"><ele>345.0</ele><time>2026-04-12T08:28:15.157Z</time></trkpt><trkpt lat="43.4512706" lon="11.3467927"><ele>344.0</ele><time>2026-04-12T08:28:16.157Z</time></trkpt><trkpt lat="43.4513332" lon="11.346653"><ele>343.0</ele><time>2026-04-12T08:28:17.156Z</time></trkpt><trkpt lat="43.4513989" lon="11.3465312"><ele>345.2</ele><time>2026-04-12T08:28:18.158Z</time></trkpt><trkpt lat="43.4514595" lon="11.3464111"><ele>347.4</ele><time>2026-04-12T08:28:19.157Z</time></trkpt><trkpt lat="43.4515147" lon="11.3462813"><ele>349.59999999999997</ele><time>2026-04-12T08:28:20.157Z</time></trkpt><trkpt lat="43.4515635" lon="11.3461393"><ele>351.79999999999995</ele><time>2026-04-12T08:28:21.156Z</time></trkpt><trkpt lat="43.4516229" lon="11.3460043"><ele>354.0</ele><time>2026-04-12T08:28:22.157Z</time></trkpt><trkpt lat="43.4516908" lon="11.34588"><ele>354.0</ele><time>2026-04-12T08:28:23.157Z</time></trkpt><trkpt lat="43.4517742" lon="11.34577"><ele>354.0</ele><time>2026-04-12T08:28:24.156Z</time></trkpt><trkpt lat="43.4518763" lon="11.3456765"><ele>354.0</ele><time>2026-04-12T08:28:25.157Z</time></trkpt><trkpt lat="43.4519766" lon="11.3456039"><ele>354.0</ele><time>2026-04-12T08:28:26.157Z</time></trkpt><trkpt lat="43.4520825" lon="11.3455344"><ele>357.75</ele><time>2026-04-12T08:28:27.156Z</time></trkpt><trkpt lat="43.4521979" lon="11.3454613"><ele>361.5</ele><time>2026-04-12T08:28:28.157Z</time></trkpt><trkpt lat="43.4523105" lon="11.3453914"><ele>365.25</ele><time>2026-04-12T08:28:29.157Z</time></trkpt><trkpt lat="43.4524166" lon="11.3453277"><ele>369.0</ele><time>2026-04-12T08:28:30.156Z</time></trkpt><trkpt lat="43.452518" lon="11.3452781"><ele>369.0</ele><time>2026-04-12T08:28:31.157Z</time></trkpt><trkpt lat="43.4526036" lon="11.3452364"><ele>369.0</ele><time>2026-04-12T08:28:32.157Z</time></trkpt><trkpt lat="43.4526691" lon="11.3451915"><ele>369.0</ele><time>2026-04-12T08:28:33.155Z</time></trkpt><trkpt lat="43.4527137" lon="11.3450725"><ele>369.0</ele><time>2026-04-12T08:28:35.156Z</time></trkpt><trkpt lat="43.4526481" lon="11.34495"><ele>369.0</ele><time>2026-04-12T08:28:37.156Z</time></trkpt><trkpt lat="43.4525984" lon="11.3448902"><ele>369.0</ele><time>2026-04-12T08:28:38.158Z</time></trkpt><trkpt lat="43.4525244" lon="11.3448181"><ele>369.0</ele><time>2026-04-12T08:28:39.157Z</time></trkpt><trkpt lat="43.4524479" lon="11.3447415"><ele>369.0</ele><time>2026-04-12T08:28:40.156Z</time></trkpt><trkpt lat="43.4523823" lon="11.3446579"><ele>369.0</ele><time>2026-04-12T08:28:41.156Z</time></trkpt><trkpt lat="43.4523217" lon="11.3445643"><ele>369.0</ele><time>2026-04-12T08:28:42.157Z</time></trkpt><trkpt lat="43.4522671" lon="11.3444543"><ele>369.0</ele><time>2026-04-12T08:28:43.156Z</time></trkpt><trkpt lat="43.4522304" lon="11.3443483"><ele>371.0</ele><time>2026-04-12T08:28:44.156Z</time></trkpt><trkpt lat="43.452206" lon="11.3442407"><ele>373.0</ele><time>2026-04-12T08:28:45.157Z</time></trkpt><trkpt lat="43.4522078" lon="11.3441507"><ele>375.0</ele><time>2026-04-12T08:28:46.157Z</time></trkpt><trkpt lat="43.4522277" lon="11.3440672"><ele>377.0</ele><time>2026-04-12T08:28:47.157Z</time></trkpt><trkpt lat="43.4523109" lon="11.3439921"><ele>379.0</ele><time>2026-04-12T08:28:49.156Z</time></trkpt><trkpt lat="43.4523766" lon="11.3439717"><ele>381.0</ele><time>2026-04-12T08:28:50.158Z</time></trkpt><trkpt lat="43.4524565" lon="11.3439498"><ele>381.0</ele><time>2026-04-12T08:28:51.156Z</time></trkpt><trkpt lat="43.4525407" lon="11.343918"><ele>381.0</ele><time>2026-04-12T08:28:52.157Z</time></trkpt><trkpt lat="43.4526219" lon="11.3438552"><ele>381.0</ele><time>2026-04-12T08:28:53.158Z</time></trkpt><trkpt lat="43.4526793" lon="11.343783"><ele>381.0</ele><time>2026-04-12T08:28:54.157Z</time></trkpt><trkpt lat="43.4527106" lon="11.3436891"><ele>381.0</ele><time>2026-04-12T08:28:55.157Z</time></trkpt><trkpt lat="43.4527381" lon="11.3435792"><ele>381.0</ele><time>2026-04-12T08:28:56.157Z</time></trkpt><trkpt lat="43.4527621" lon="11.343466"><ele>383.0</ele><time>2026-04-12T08:28:57.157Z</time></trkpt><trkpt lat="43.4527931" lon="11.3433504"><ele>385.0</ele><time>2026-04-12T08:28:58.158Z</time></trkpt><trkpt lat="43.4528369" lon="11.3432351"><ele>387.0</ele><time>2026-04-12T08:28:59.157Z</time></trkpt><trkpt lat="43.4528864" lon="11.3431079"><ele>389.0</ele><time>2026-04-12T08:29:00.156Z</time></trkpt><trkpt lat="43.4529383" lon="11.3430033"><ele>391.0</ele><time>2026-04-12T08:29:01.157Z</time></trkpt><trkpt lat="43.4529925" lon="11.3428924"><ele>394.25</ele><time>2026-04-12T08:29:02.157Z</time></trkpt><trkpt lat="43.4530514" lon="11.3427705"><ele>397.5</ele><time>2026-04-12T08:29:03.156Z</time></trkpt><trkpt lat="43.4531058" lon="11.3426397"><ele>400.75</ele><time>2026-04-12T08:29:04.158Z</time></trkpt><trkpt lat="43.4531699" lon="11.3425009"><ele>404.0</ele><time>2026-04-12T08:29:05.157Z</time></trkpt><trkpt lat="43.4532313" lon="11.3423622"><ele>404.0</ele><time>2026-04-12T08:29:06.157Z</time></trkpt><trkpt lat="43.4532917" lon="11.342228"><ele>404.0</ele><time>2026-04-12T08:29:07.157Z</time></trkpt><trkpt lat="43.4533542" lon="11.3420965"><ele>404.0</ele><time>2026-04-12T08:29:08.158Z</time></trkpt><trkpt lat="43.4534222" lon="11.3419753"><ele>404.0</ele><time>2026-04-12T08:29:09.157Z</time></trkpt><trkpt lat="43.4534921" lon="11.3418419"><ele>405.75</ele><time>2026-04-12T08:29:10.158Z</time></trkpt><trkpt lat="43.4535605" lon="11.3417006"><ele>407.5</ele><time>2026-04-12T08:29:11.157Z</time></trkpt><trkpt lat="43.453623" lon="11.3415396"><ele>409.25</ele><time>2026-04-12T08:29:12.157Z</time></trkpt><trkpt lat="43.4536851" lon="11.3413857"><ele>411.0</ele><time>2026-04-12T08:29:13.157Z</time></trkpt><trkpt lat="43.4537422" lon="11.3412263"><ele>414.25</ele><time>2026-04-12T08:29:14.156Z</time></trkpt><trkpt lat="43.4537943" lon="11.3410756"><ele>417.5</ele><time>2026-04-12T08:29:15.157Z</time></trkpt><trkpt lat="43.4538533" lon="11.3409181"><ele>420.75</ele><time>2026-04-12T08:29:16.156Z</time></trkpt><trkpt lat="43.4539227" lon="11.3407549"><ele>424.0</ele><time>2026-04-12T08:29:17.157Z</time></trkpt><trkpt lat="43.4539991" lon="11.3406061"><ele>424.5</ele><time>2026-04-12T08:29:18.157Z</time></trkpt><trkpt lat="43.4540767" lon="11.3404699"><ele>425.0</ele><time>2026-04-12T08:29:19.156Z</time></trkpt><trkpt lat="43.4541698" lon="11.3403289"><ele>425.5</ele><time>2026-04-12T08:29:20.157Z</time></trkpt><trkpt lat="43.4542542" lon="11.3402005"><ele>426.0</ele><time>2026-04-12T08:29:21.157Z</time></trkpt><trkpt lat="43.4543489" lon="11.3400777"><ele>426.0</ele><time>2026-04-12T08:29:22.157Z</time></trkpt><trkpt lat="43.4544389" lon="11.3399543"><ele>426.0</ele><time>2026-04-12T08:29:23.157Z</time></trkpt><trkpt lat="43.4545309" lon="11.339827"><ele>426.0</ele><time>2026-04-12T08:29:24.156Z</time></trkpt><trkpt lat="43.454628" lon="11.3396937"><ele>426.0</ele><time>2026-04-12T08:29:25.16Z</time></trkpt><trkpt lat="43.4547285" lon="11.3395582"><ele>429.5</ele><time>2026-04-12T08:29:26.156Z</time></trkpt><trkpt lat="43.4548266" lon="11.3394081"><ele>433.0</ele><time>2026-04-12T08:29:27.156Z</time></trkpt><trkpt lat="43.4549197" lon="11.3392593"><ele>436.5</ele><time>2026-04-12T08:29:28.157Z</time></trkpt><trkpt lat="43.4550115" lon="11.3391058"><ele>440.0</ele><time>2026-04-12T08:29:29.157Z</time></trkpt><trkpt lat="43.4551077" lon="11.3389458"><ele>440.5</ele><time>2026-04-12T08:29:30.157Z</time></trkpt><trkpt lat="43.4551964" lon="11.3387892"><ele>441.0</ele><time>2026-04-12T08:29:31.157Z</time></trkpt><trkpt lat="43.4552824" lon="11.33863"><ele>441.5</ele><time>2026-04-12T08:29:32.157Z</time></trkpt><trkpt lat="43.4553653" lon="11.3384773"><ele>442.0</ele><time>2026-04-12T08:29:33.158Z</time></trkpt><trkpt lat="43.4554457" lon="11.338323"><ele>446.75</ele><time>2026-04-12T08:29:34.158Z</time></trkpt><trkpt lat="43.4555369" lon="11.3381915"><ele>451.5</ele><time>2026-04-12T08:29:35.158Z</time></trkpt><trkpt lat="43.455629" lon="11.3380576"><ele>456.25</ele><time>2026-04-12T08:29:36.157Z</time></trkpt><trkpt lat="43.4557165" lon="11.3379193"><ele>461.0</ele><time>2026-04-12T08:29:37.157Z</time></trkpt><trkpt lat="43.4557908" lon="11.3377705"><ele>461.25</ele><time>2026-04-12T08:29:38.157Z</time></trkpt><trkpt lat="43.4558559" lon="11.337617"><ele>461.5</ele><time>2026-04-12T08:29:39.158Z</time></trkpt><trkpt lat="43.455914" lon="11.3374698"><ele>461.75</ele><time>2026-04-12T08:29:40.156Z</time></trkpt><trkpt lat="43.4559694" lon="11.3373397"><ele>462.0</ele><time>2026-04-12T08:29:41.157Z</time></trkpt><trkpt lat="43.4560266" lon="11.3372251"><ele>461.40000000000003</ele><time>2026-04-12T08:29:42.157Z</time></trkpt><trkpt lat="43.4560883" lon="11.3371107"><ele>460.80000000000007</ele><time>2026-04-12T08:29:43.157Z</time></trkpt><trkpt lat="43.4561409" lon="11.3369837"><ele>460.2</ele><time>2026-04-12T08:29:44.157Z</time></trkpt><trkpt lat="43.4561801" lon="11.3368406"><ele>459.6</ele><time>2026-04-12T08:29:45.156Z</time></trkpt><trkpt lat="43.4562038" lon="11.3366807"><ele>459.0</ele><time>2026-04-12T08:29:46.156Z</time></trkpt><trkpt lat="43.4562199" lon="11.3365094"><ele>461.0</ele><time>2026-04-12T08:29:47.158Z</time></trkpt><trkpt lat="43.4562245" lon="11.3363355"><ele>463.0</ele><time>2026-04-12T08:29:48.156Z</time></trkpt><trkpt lat="43.4562229" lon="11.3361575"><ele>465.0</ele><time>2026-04-12T08:29:49.157Z</time></trkpt><trkpt lat="43.4562187" lon="11.3359863"><ele>467.0</ele><time>2026-04-12T08:29:50.157Z</time></trkpt><trkpt lat="43.4562183" lon="11.3358281"><ele>466.99999999999994</ele><time>2026-04-12T08:29:51.156Z</time></trkpt><trkpt lat="43.4562208" lon="11.335704"><ele>467.0</ele><time>2026-04-12T08:29:52.157Z</time></trkpt><trkpt lat="43.4562123" lon="11.3356129"><ele>467.0</ele><time>2026-04-12T08:29:53.156Z</time></trkpt><trkpt lat="43.4561466" lon="11.3354627"><ele>467.0</ele><time>2026-04-12T08:29:55.157Z</time></trkpt><trkpt lat="43.4560945" lon="11.3353891"><ele>466.99999999999994</ele><time>2026-04-12T08:29:56.157Z</time></trkpt><trkpt lat="43.4560436" lon="11.3353084"><ele>467.0</ele><time>2026-04-12T08:29:57.157Z</time></trkpt><trkpt lat="43.4559906" lon="11.3352293"><ele>469.49999999999994</ele><time>2026-04-12T08:29:58.157Z</time></trkpt><trkpt lat="43.4559441" lon="11.3351418"><ele>472.0</ele><time>2026-04-12T08:29:59.156Z</time></trkpt><trkpt lat="43.4559016" lon="11.3350562"><ele>474.5</ele><time>2026-04-12T08:30:00.157Z</time></trkpt><trkpt lat="43.4558662" lon="11.3349666"><ele>477.0</ele><time>2026-04-12T08:30:01.159Z</time></trkpt><trkpt lat="43.4558512" lon="11.3348714"><ele>479.49999999999994</ele><time>2026-04-12T08:30:02.158Z</time></trkpt><trkpt lat="43.4558532" lon="11.3347725"><ele>482.0</ele><time>2026-04-12T08:30:03.158Z</time></trkpt><trkpt lat="43.4558753" lon="11.3346529"><ele>482.20000000000005</ele><time>2026-04-12T08:30:04.156Z</time></trkpt><trkpt lat="43.4558992" lon="11.3345301"><ele>482.40000000000003</ele><time>2026-04-12T08:30:05.157Z</time></trkpt><trkpt lat="43.4559375" lon="11.3344106"><ele>482.59999999999997</ele><time>2026-04-12T08:30:06.157Z</time></trkpt><trkpt lat="43.455978" lon="11.3342855"><ele>482.79999999999995</ele><time>2026-04-12T08:30:07.156Z</time></trkpt><trkpt lat="43.4560109" lon="11.3341434"><ele>483.0</ele><time>2026-04-12T08:30:08.156Z</time></trkpt><trkpt lat="43.4560316" lon="11.3339821"><ele>483.0</ele><time>2026-04-12T08:30:09.157Z</time></trkpt><trkpt lat="43.4560494" lon="11.3338336"><ele>482.99999999999994</ele><time>2026-04-12T08:30:10.157Z</time></trkpt><trkpt lat="43.4560685" lon="11.3337059"><ele>482.99999999999994</ele><time>2026-04-12T08:30:11.156Z</time></trkpt><trkpt lat="43.4560949" lon="11.3335896"><ele>483.0</ele><time>2026-04-12T08:30:12.157Z</time></trkpt><trkpt lat="43.4561363" lon="11.3334908"><ele>483.0</ele><time>2026-04-12T08:30:13.158Z</time></trkpt><trkpt lat="43.4562001" lon="11.333396"><ele>483.0</ele><time>2026-04-12T08:30:14.157Z</time></trkpt><trkpt lat="43.45626" lon="11.3333086"><ele>483.0</ele><time>2026-04-12T08:30:15.156Z</time></trkpt><trkpt lat="43.4563014" lon="11.3332243"><ele>483.0</ele><time>2026-04-12T08:30:16.157Z</time></trkpt><trkpt lat="43.4563182" lon="11.3330792"><ele>483.0</ele><time>2026-04-12T08:30:18.157Z</time></trkpt><trkpt lat="43.456297" lon="11.3329962"><ele>483.0</ele><time>2026-04-12T08:30:19.157Z</time></trkpt><trkpt lat="43.4562499" lon="11.3328873"><ele>483.0</ele><time>2026-04-12T08:30:20.156Z</time></trkpt><trkpt lat="43.4561887" lon="11.3327777"><ele>483.79999999999995</ele><time>2026-04-12T08:30:21.157Z</time></trkpt><trkpt lat="43.4561154" lon="11.3326476"><ele>484.59999999999997</ele><time>2026-04-12T08:30:22.156Z</time></trkpt><trkpt lat="43.4560541" lon="11.3325181"><ele>485.40000000000003</ele><time>2026-04-12T08:30:23.157Z</time></trkpt><trkpt lat="43.4560019" lon="11.3323883"><ele>486.20000000000005</ele><time>2026-04-12T08:30:24.156Z</time></trkpt><trkpt lat="43.4559603" lon="11.3322502"><ele>487.0</ele><time>2026-04-12T08:30:25.158Z</time></trkpt><trkpt lat="43.4559345" lon="11.3321014"><ele>488.0</ele><time>2026-04-12T08:30:26.157Z</time></trkpt><trkpt lat="43.4559104" lon="11.3319537"><ele>489.0</ele><time>2026-04-12T08:30:27.157Z</time></trkpt><trkpt lat="43.4558697" lon="11.3317894"><ele>490.0</ele><time>2026-04-12T08:30:28.157Z</time></trkpt><trkpt lat="43.4558325" lon="11.3316249"><ele>491.0</ele><time>2026-04-12T08:30:29.157Z</time></trkpt><trkpt lat="43.4557966" lon="11.3314785"><ele>490.75</ele><time>2026-04-12T08:30:30.158Z</time></trkpt><trkpt lat="43.4557581" lon="11.3313316"><ele>490.5</ele><time>2026-04-12T08:30:31.157Z</time></trkpt><trkpt lat="43.4557343" lon="11.3311747"><ele>490.25</ele><time>2026-04-12T08:30:32.157Z</time></trkpt><trkpt lat="43.4557232" lon="11.3309916"><ele>490.0</ele><time>2026-04-12T08:30:33.157Z</time></trkpt><trkpt lat="43.4557186" lon="11.3307922"><ele>490.0</ele><time>2026-04-12T08:30:34.158Z</time></trkpt><trkpt lat="43.4557186" lon="11.3305872"><ele>490.0</ele><time>2026-04-12T08:30:35.158Z</time></trkpt><trkpt lat="43.4557286" lon="11.3303845"><ele>490.0</ele><time>2026-04-12T08:30:36.158Z</time></trkpt><trkpt lat="43.4557474" lon="11.3301998"><ele>490.0</ele><time>2026-04-12T08:30:37.156Z</time></trkpt><trkpt lat="43.4557688" lon="11.3300357"><ele>490.2</ele><time>2026-04-12T08:30:38.158Z</time></trkpt><trkpt lat="43.4557939" lon="11.3298947"><ele>490.4</ele><time>2026-04-12T08:30:39.157Z</time></trkpt><trkpt lat="43.4558062" lon="11.3297587"><ele>490.6</ele><time>2026-04-12T08:30:40.157Z</time></trkpt><trkpt lat="43.455805" lon="11.3296187"><ele>490.8</ele><time>2026-04-12T08:30:41.159Z</time></trkpt><trkpt lat="43.4557809" lon="11.3294839"><ele>491.0</ele><time>2026-04-12T08:30:42.157Z</time></trkpt><trkpt lat="43.45573" lon="11.3293618"><ele>490.0</ele><time>2026-04-12T08:30:43.156Z</time></trkpt><trkpt lat="43.4556673" lon="11.3292438"><ele>489.0</ele><time>2026-04-12T08:30:44.157Z</time></trkpt><trkpt lat="43.4556026" lon="11.3291306"><ele>488.0</ele><time>2026-04-12T08:30:45.157Z</time></trkpt><trkpt lat="43.4555404" lon="11.3290027"><ele>487.0</ele><time>2026-04-12T08:30:46.158Z</time></trkpt><trkpt lat="43.4554968" lon="11.3288564"><ele>486.0</ele><time>2026-04-12T08:30:47.158Z</time></trkpt><trkpt lat="43.4554741" lon="11.3287057"><ele>485.6</ele><time>2026-04-12T08:30:48.157Z</time></trkpt><trkpt lat="43.4554609" lon="11.3285545"><ele>485.20000000000005</ele><time>2026-04-12T08:30:49.157Z</time></trkpt><trkpt lat="43.4554548" lon="11.3284055"><ele>484.79999999999995</ele><time>2026-04-12T08:30:50.157Z</time></trkpt><trkpt lat="43.4554513" lon="11.3282646"><ele>484.4</ele><time>2026-04-12T08:30:51.157Z</time></trkpt><trkpt lat="43.45546" lon="11.328134"><ele>484.0</ele><time>2026-04-12T08:30:52.157Z</time></trkpt><trkpt lat="43.4554854" lon="11.3279959"><ele>482.25</ele><time>2026-04-12T08:30:53.156Z</time></trkpt><trkpt lat="43.4555307" lon="11.3278478"><ele>480.5</ele><time>2026-04-12T08:30:54.156Z</time></trkpt><trkpt lat="43.4555963" lon="11.3276896"><ele>478.75</ele><time>2026-04-12T08:30:55.158Z</time></trkpt><trkpt lat="43.4556692" lon="11.3275226"><ele>477.0</ele><time>2026-04-12T08:30:56.157Z</time></trkpt><trkpt lat="43.4557494" lon="11.3273428"><ele>477.66666666666663</ele><time>2026-04-12T08:30:57.157Z</time></trkpt><trkpt lat="43.4558399" lon="11.3271649"><ele>478.3333333333333</ele><time>2026-04-12T08:30:58.157Z</time></trkpt><trkpt lat="43.4559282" lon="11.3269967"><ele>479.0</ele><time>2026-04-12T08:30:59.157Z</time></trkpt><trkpt lat="43.4560071" lon="11.3268239"><ele>479.0</ele><time>2026-04-12T08:31:00.157Z</time></trkpt><trkpt lat="43.4560796" lon="11.3266468"><ele>479.0</ele><time>2026-04-12T08:31:01.157Z</time></trkpt><trkpt lat="43.4561379" lon="11.3264616"><ele>479.0</ele><time>2026-04-12T08:31:02.158Z</time></trkpt><trkpt lat="43.4561838" lon="11.3262645"><ele>479.0</ele><time>2026-04-12T08:31:03.158Z</time></trkpt><trkpt lat="43.4562145" lon="11.3260549"><ele>479.3333333333333</ele><time>2026-04-12T08:31:04.157Z</time></trkpt><trkpt lat="43.4562419" lon="11.3258318"><ele>479.66666666666663</ele><time>2026-04-12T08:31:05.157Z</time></trkpt><trkpt lat="43.4562736" lon="11.3256119"><ele>480.0</ele><time>2026-04-12T08:31:06.156Z</time></trkpt><trkpt lat="43.456308" lon="11.3253971"><ele>487.66666666666663</ele><time>2026-04-12T08:31:07.157Z</time></trkpt><trkpt lat="43.4563413" lon="11.3251891"><ele>495.3333333333333</ele><time>2026-04-12T08:31:08.157Z</time></trkpt><trkpt lat="43.456367" lon="11.3249796"><ele>503.0</ele><time>2026-04-12T08:31:09.157Z</time></trkpt><trkpt lat="43.4563915" lon="11.3247683"><ele>506.25</ele><time>2026-04-12T08:31:10.159Z</time></trkpt><trkpt lat="43.4564186" lon="11.3245704"><ele>509.5</ele><time>2026-04-12T08:31:11.158Z</time></trkpt><trkpt lat="43.4564383" lon="11.3243757"><ele>512.75</ele><time>2026-04-12T08:31:12.156Z</time></trkpt><trkpt lat="43.4564595" lon="11.3241882"><ele>516.0</ele><time>2026-04-12T08:31:13.157Z</time></trkpt><trkpt lat="43.4564792" lon="11.3240108"><ele>518.75</ele><time>2026-04-12T08:31:14.159Z</time></trkpt><trkpt lat="43.4564988" lon="11.3238448"><ele>521.5</ele><time>2026-04-12T08:31:15.156Z</time></trkpt><trkpt lat="43.4565199" lon="11.3236815"><ele>524.25</ele><time>2026-04-12T08:31:16.156Z</time></trkpt><trkpt lat="43.4565419" lon="11.3235108"><ele>527.0</ele><time>2026-04-12T08:31:17.157Z</time></trkpt><trkpt lat="43.4565653" lon="11.3233388"><ele>527.0</ele><time>2026-04-12T08:31:18.157Z</time></trkpt><trkpt lat="43.4565903" lon="11.3231668"><ele>527.0</ele><time>2026-04-12T08:31:19.157Z</time></trkpt><trkpt lat="43.4566144" lon="11.3229954"><ele>527.0</ele><time>2026-04-12T08:31:20.156Z</time></trkpt><trkpt lat="43.4566379" lon="11.322832"><ele>527.0</ele><time>2026-04-12T08:31:21.156Z</time></trkpt><trkpt lat="43.4566588" lon="11.3226641"><ele>528.25</ele><time>2026-04-12T08:31:22.157Z</time></trkpt><trkpt lat="43.4566844" lon="11.3224927"><ele>529.5</ele><time>2026-04-12T08:31:23.158Z</time></trkpt><trkpt lat="43.4567167" lon="11.3223217"><ele>530.75</ele><time>2026-04-12T08:31:24.157Z</time></trkpt><trkpt lat="43.4567503" lon="11.322139"><ele>532.0</ele><time>2026-04-12T08:31:25.157Z</time></trkpt><trkpt lat="43.4567837" lon="11.3219726"><ele>532.75</ele><time>2026-04-12T08:31:26.158Z</time></trkpt><trkpt lat="43.4568225" lon="11.3218028"><ele>533.5</ele><time>2026-04-12T08:31:27.158Z</time></trkpt><trkpt lat="43.4568664" lon="11.3216282"><ele>534.25</ele><time>2026-04-12T08:31:28.156Z</time></trkpt><trkpt lat="43.4569118" lon="11.3214486"><ele>535.0</ele><time>2026-04-12T08:31:29.157Z</time></trkpt><trkpt lat="43.4569528" lon="11.3212549"><ele>536.5</ele><time>2026-04-12T08:31:30.157Z</time></trkpt><trkpt lat="43.4569887" lon="11.3210559"><ele>538.0</ele><time>2026-04-12T08:31:31.157Z</time></trkpt><trkpt lat="43.4570123" lon="11.3208564"><ele>539.5</ele><time>2026-04-12T08:31:32.157Z</time></trkpt><trkpt lat="43.4570191" lon="11.3206545"><ele>541.0</ele><time>2026-04-12T08:31:33.157Z</time></trkpt><trkpt lat="43.4570182" lon="11.3204594"><ele>543.8</ele><time>2026-04-12T08:31:34.157Z</time></trkpt><trkpt lat="43.4570109" lon="11.3202739"><ele>546.6</ele><time>2026-04-12T08:31:35.156Z</time></trkpt><trkpt lat="43.4570028" lon="11.3201095"><ele>549.4</ele><time>2026-04-12T08:31:36.158Z</time></trkpt><trkpt lat="43.4570177" lon="11.3199737"><ele>552.2</ele><time>2026-04-12T08:31:37.157Z</time></trkpt><trkpt lat="43.4570492" lon="11.3198554"><ele>555.0</ele><time>2026-04-12T08:31:38.158Z</time></trkpt><trkpt lat="43.4570925" lon="11.31976"><ele>555.8333333333334</ele><time>2026-04-12T08:31:39.157Z</time></trkpt><trkpt lat="43.4571369" lon="11.3196879"><ele>556.6666666666666</ele><time>2026-04-12T08:31:40.157Z</time></trkpt><trkpt lat="43.4571892" lon="11.3196229"><ele>557.5</ele><time>2026-04-12T08:31:41.158Z</time></trkpt><trkpt lat="43.457247" lon="11.3195424"><ele>558.3333333333333</ele><time>2026-04-12T08:31:42.157Z</time></trkpt><trkpt lat="43.4572959" lon="11.3194424"><ele>559.1666666666666</ele><time>2026-04-12T08:31:43.157Z</time></trkpt><trkpt lat="43.457334" lon="11.3193256"><ele>560.0</ele><time>2026-04-12T08:31:44.158Z</time></trkpt><trkpt lat="43.4573631" lon="11.3191971"><ele>560.0</ele><time>2026-04-12T08:31:45.157Z</time></trkpt><trkpt lat="43.4573771" lon="11.3190438"><ele>560.0</ele><time>2026-04-12T08:31:46.157Z</time></trkpt><trkpt lat="43.4573903" lon="11.3188616"><ele>560.0</ele><time>2026-04-12T08:31:47.158Z</time></trkpt><trkpt lat="43.4574129" lon="11.3186725"><ele>560.0</ele><time>2026-04-12T08:31:48.156Z</time></trkpt><trkpt lat="43.4574482" lon="11.3184927"><ele>561.0</ele><time>2026-04-12T08:31:49.158Z</time></trkpt><trkpt lat="43.4574979" lon="11.3183093"><ele>562.0</ele><time>2026-04-12T08:31:50.158Z</time></trkpt><trkpt lat="43.457559" lon="11.318146"><ele>563.0</ele><time>2026-04-12T08:31:51.159Z</time></trkpt><trkpt lat="43.4576225" lon="11.3179714"><ele>564.0</ele><time>2026-04-12T08:31:52.157Z</time></trkpt><trkpt lat="43.4576972" lon="11.3178042"><ele>565.0</ele><time>2026-04-12T08:31:53.157Z</time></trkpt><trkpt lat="43.4577884" lon="11.3176474"><ele>566.0</ele><time>2026-04-12T08:31:54.158Z</time></trkpt><trkpt lat="43.457875" lon="11.3174944"><ele>567.0</ele><time>2026-04-12T08:31:55.157Z</time></trkpt><trkpt lat="43.4579603" lon="11.3173286"><ele>568.0</ele><time>2026-04-12T08:31:56.158Z</time></trkpt><trkpt lat="43.4580381" lon="11.3171657"><ele>566.0</ele><time>2026-04-12T08:31:57.156Z</time></trkpt><trkpt lat="43.4581182" lon="11.3170039"><ele>564.0</ele><time>2026-04-12T08:31:58.157Z</time></trkpt><trkpt lat="43.4581919" lon="11.3168536"><ele>562.0</ele><time>2026-04-12T08:31:59.157Z</time></trkpt><trkpt lat="43.4582603" lon="11.3167099"><ele>560.0</ele><time>2026-04-12T08:32:00.156Z</time></trkpt><trkpt lat="43.4583428" lon="11.3165888"><ele>560.0</ele><time>2026-04-12T08:32:01.157Z</time></trkpt><trkpt lat="43.4584229" lon="11.3164811"><ele>560.0</ele><time>2026-04-12T08:32:02.157Z</time></trkpt><trkpt lat="43.4584925" lon="11.3163742"><ele>560.0</ele><time>2026-04-12T08:32:03.157Z</time></trkpt><trkpt lat="43.4585551" lon="11.3162533"><ele>560.0</ele><time>2026-04-12T08:32:04.158Z</time></trkpt><trkpt lat="43.4586056" lon="11.3161046"><ele>560.0</ele><time>2026-04-12T08:32:05.158Z</time></trkpt><trkpt lat="43.4586561" lon="11.3159303"><ele>560.25</ele><time>2026-04-12T08:32:06.158Z</time></trkpt><trkpt lat="43.4587055" lon="11.3157551"><ele>560.5</ele><time>2026-04-12T08:32:07.158Z</time></trkpt><trkpt lat="43.4587609" lon="11.3155721"><ele>560.75</ele><time>2026-04-12T08:32:08.156Z</time></trkpt><trkpt lat="43.4588218" lon="11.3153982"><ele>561.0</ele><time>2026-04-12T08:32:09.156Z</time></trkpt><trkpt lat="43.4588767" lon="11.3152083"><ele>560.25</ele><time>2026-04-12T08:32:10.157Z</time></trkpt><trkpt lat="43.4589188" lon="11.3150266"><ele>559.5</ele><time>2026-04-12T08:32:11.158Z</time></trkpt><trkpt lat="43.4589533" lon="11.3148549"><ele>558.75</ele><time>2026-04-12T08:32:12.158Z</time></trkpt><trkpt lat="43.4589898" lon="11.3146818"><ele>558.0</ele><time>2026-04-12T08:32:13.158Z</time></trkpt><trkpt lat="43.4590331" lon="11.3145463"><ele>556.75</ele><time>2026-04-12T08:32:14.157Z</time></trkpt><trkpt lat="43.4590873" lon="11.3144118"><ele>555.5</ele><time>2026-04-12T08:32:15.157Z</time></trkpt><trkpt lat="43.459142" lon="11.314269"><ele>554.25</ele><time>2026-04-12T08:32:16.157Z</time></trkpt><trkpt lat="43.4591956" lon="11.3141323"><ele>553.0</ele><time>2026-04-12T08:32:17.156Z</time></trkpt><trkpt lat="43.4592484" lon="11.31399"><ele>551.8</ele><time>2026-04-12T08:32:18.157Z</time></trkpt><trkpt lat="43.4592985" lon="11.3138601"><ele>550.5999999999999</ele><time>2026-04-12T08:32:19.158Z</time></trkpt><trkpt lat="43.4593738" lon="11.3137588"><ele>549.4000000000001</ele><time>2026-04-12T08:32:20.157Z</time></trkpt><trkpt lat="43.4594556" lon="11.3136764"><ele>548.2</ele><time>2026-04-12T08:32:21.158Z</time></trkpt><trkpt lat="43.4595471" lon="11.3136042"><ele>547.0</ele><time>2026-04-12T08:32:22.157Z</time></trkpt><trkpt lat="43.4596348" lon="11.3135336"><ele>546.8000000000001</ele><time>2026-04-12T08:32:23.157Z</time></trkpt><trkpt lat="43.4597272" lon="11.3134633"><ele>546.6</ele><time>2026-04-12T08:32:24.157Z</time></trkpt><trkpt lat="43.4598151" lon="11.3133959"><ele>546.4000000000001</ele><time>2026-04-12T08:32:25.157Z</time></trkpt><trkpt lat="43.4598918" lon="11.3133175"><ele>546.2</ele><time>2026-04-12T08:32:26.159Z</time></trkpt><trkpt lat="43.4599451" lon="11.313227"><ele>546.0</ele><time>2026-04-12T08:32:27.158Z</time></trkpt><trkpt lat="43.4599871" lon="11.3131056"><ele>543.75</ele><time>2026-04-12T08:32:28.158Z</time></trkpt><trkpt lat="43.4600191" lon="11.3129605"><ele>541.5</ele><time>2026-04-12T08:32:29.156Z</time></trkpt><trkpt lat="43.4600373" lon="11.3127975"><ele>539.25</ele><time>2026-04-12T08:32:30.158Z</time></trkpt><trkpt lat="43.4600473" lon="11.3126196"><ele>537.0</ele><time>2026-04-12T08:32:31.157Z</time></trkpt><trkpt lat="43.4600309" lon="11.3124501"><ele>537.0</ele><time>2026-04-12T08:32:32.157Z</time></trkpt><trkpt lat="43.4599944" lon="11.3122778"><ele>537.0</ele><time>2026-04-12T08:32:33.157Z</time></trkpt><trkpt lat="43.4599452" lon="11.3121085"><ele>537.0</ele><time>2026-04-12T08:32:34.158Z</time></trkpt><trkpt lat="43.4598784" lon="11.3119548"><ele>537.0</ele><time>2026-04-12T08:32:35.156Z</time></trkpt><trkpt lat="43.459793" lon="11.3117984"><ele>537.0</ele><time>2026-04-12T08:32:36.156Z</time></trkpt><trkpt lat="43.4597022" lon="11.3116575"><ele>537.0</ele><time>2026-04-12T08:32:37.157Z</time></trkpt><trkpt lat="43.4596056" lon="11.3115348"><ele>537.0</ele><time>2026-04-12T08:32:38.157Z</time></trkpt><trkpt lat="43.4594998" lon="11.3114341"><ele>537.0</ele><time>2026-04-12T08:32:39.157Z</time></trkpt><trkpt lat="43.4593834" lon="11.3113544"><ele>537.0</ele><time>2026-04-12T08:32:40.159Z</time></trkpt><trkpt lat="43.4592634" lon="11.3112927"><ele>537.0</ele><time>2026-04-12T08:32:41.158Z</time></trkpt><trkpt lat="43.4591443" lon="11.3112311"><ele>537.0</ele><time>2026-04-12T08:32:42.158Z</time></trkpt><trkpt lat="43.4590337" lon="11.3111708"><ele>537.0</ele><time>2026-04-12T08:32:43.157Z</time></trkpt><trkpt lat="43.458925" lon="11.3111124"><ele>537.0</ele><time>2026-04-12T08:32:44.158Z</time></trkpt><trkpt lat="43.4588131" lon="11.3110361"><ele>537.0</ele><time>2026-04-12T08:32:45.158Z</time></trkpt><trkpt lat="43.4586969" lon="11.3109487"><ele>537.0</ele><time>2026-04-12T08:32:46.157Z</time></trkpt><trkpt lat="43.4585812" lon="11.3108611"><ele>537.0</ele><time>2026-04-12T08:32:47.158Z</time></trkpt><trkpt lat="43.45848" lon="11.3107648"><ele>537.4</ele><time>2026-04-12T08:32:48.156Z</time></trkpt><trkpt lat="43.458385" lon="11.3106513"><ele>537.8000000000001</ele><time>2026-04-12T08:32:49.157Z</time></trkpt><trkpt lat="43.4583108" lon="11.3105467"><ele>538.2</ele><time>2026-04-12T08:32:50.158Z</time></trkpt><trkpt lat="43.4582457" lon="11.3104315"><ele>538.6</ele><time>2026-04-12T08:32:51.156Z</time></trkpt><trkpt lat="43.4581787" lon="11.3103147"><ele>539.0</ele><time>2026-04-12T08:32:52.157Z</time></trkpt><trkpt lat="43.4581066" lon="11.3101908"><ele>539.75</ele><time>2026-04-12T08:32:53.159Z</time></trkpt><trkpt lat="43.4580294" lon="11.3100635"><ele>540.5</ele><time>2026-04-12T08:32:54.157Z</time></trkpt><trkpt lat="43.4579537" lon="11.3099324"><ele>541.25</ele><time>2026-04-12T08:32:55.158Z</time></trkpt><trkpt lat="43.4578729" lon="11.3097976"><ele>542.0</ele><time>2026-04-12T08:32:56.157Z</time></trkpt><trkpt lat="43.4578019" lon="11.3096564"><ele>543.0</ele><time>2026-04-12T08:32:57.158Z</time></trkpt><trkpt lat="43.4577492" lon="11.3095149"><ele>544.0</ele><time>2026-04-12T08:32:58.156Z</time></trkpt><trkpt lat="43.4577164" lon="11.3093648"><ele>545.0</ele><time>2026-04-12T08:32:59.158Z</time></trkpt><trkpt lat="43.4577038" lon="11.3092264"><ele>546.0</ele><time>2026-04-12T08:33:00.158Z</time></trkpt><trkpt lat="43.4576871" lon="11.3090859"><ele>547.0</ele><time>2026-04-12T08:33:01.157Z</time></trkpt><trkpt lat="43.4576669" lon="11.3089412"><ele>546.0</ele><time>2026-04-12T08:33:02.157Z</time></trkpt><trkpt lat="43.4576367" lon="11.3087936"><ele>545.0</ele><time>2026-04-12T08:33:03.157Z</time></trkpt><trkpt lat="43.4575879" lon="11.3086427"><ele>544.0</ele><time>2026-04-12T08:33:04.157Z</time></trkpt><trkpt lat="43.4575316" lon="11.3084785"><ele>543.0</ele><time>2026-04-12T08:33:05.156Z</time></trkpt><trkpt lat="43.4574801" lon="11.3083096"><ele>543.0</ele><time>2026-04-12T08:33:06.157Z</time></trkpt><trkpt lat="43.4574471" lon="11.308138"><ele>543.0</ele><time>2026-04-12T08:33:07.156Z</time></trkpt><trkpt lat="43.4574307" lon="11.3079643"><ele>543.0</ele><time>2026-04-12T08:33:08.159Z</time></trkpt><trkpt lat="43.4574211" lon="11.3077894"><ele>543.0</ele><time>2026-04-12T08:33:09.158Z</time></trkpt><trkpt lat="43.4574054" lon="11.3076112"><ele>543.25</ele><time>2026-04-12T08:33:10.159Z</time></trkpt><trkpt lat="43.4573744" lon="11.307428"><ele>543.5</ele><time>2026-04-12T08:33:11.158Z</time></trkpt><trkpt lat="43.4573557" lon="11.3072445"><ele>543.75</ele><time>2026-04-12T08:33:12.157Z</time></trkpt><trkpt lat="43.4573406" lon="11.307071"><ele>544.0</ele><time>2026-04-12T08:33:13.157Z</time></trkpt><trkpt lat="43.457333" lon="11.3069045"><ele>544.4</ele><time>2026-04-12T08:33:14.157Z</time></trkpt><trkpt lat="43.4573396" lon="11.3067431"><ele>544.8</ele><time>2026-04-12T08:33:15.157Z</time></trkpt><trkpt lat="43.4573558" lon="11.3066088"><ele>545.2</ele><time>2026-04-12T08:33:16.157Z</time></trkpt><trkpt lat="43.457353" lon="11.3064655"><ele>545.6</ele><time>2026-04-12T08:33:17.156Z</time></trkpt><trkpt lat="43.457333" lon="11.3063108"><ele>546.0</ele><time>2026-04-12T08:33:18.157Z</time></trkpt><trkpt lat="43.4572999" lon="11.3061469"><ele>546.0</ele><time>2026-04-12T08:33:19.158Z</time></trkpt><trkpt lat="43.4572622" lon="11.3059631"><ele>546.0</ele><time>2026-04-12T08:33:20.158Z</time></trkpt><trkpt lat="43.4572327" lon="11.3057731"><ele>546.0</ele><time>2026-04-12T08:33:21.157Z</time></trkpt><trkpt lat="43.4572173" lon="11.3055779"><ele>546.0</ele><time>2026-04-12T08:33:22.157Z</time></trkpt><trkpt lat="43.4571967" lon="11.3053982"><ele>545.25</ele><time>2026-04-12T08:33:23.158Z</time></trkpt><trkpt lat="43.4571647" lon="11.3052268"><ele>544.5</ele><time>2026-04-12T08:33:24.156Z</time></trkpt><trkpt lat="43.4571213" lon="11.3050614"><ele>543.75</ele><time>2026-04-12T08:33:25.157Z</time></trkpt><trkpt lat="43.4570711" lon="11.3048859"><ele>543.0</ele><time>2026-04-12T08:33:26.157Z</time></trkpt><trkpt lat="43.4570242" lon="11.3046961"><ele>546.25</ele><time>2026-04-12T08:33:27.158Z</time></trkpt><trkpt lat="43.4569886" lon="11.3045034"><ele>549.5</ele><time>2026-04-12T08:33:28.156Z</time></trkpt><trkpt lat="43.4569587" lon="11.3043497"><ele>552.75</ele><time>2026-04-12T08:33:29.157Z</time></trkpt><trkpt lat="43.4569241" lon="11.304233"><ele>556.0</ele><time>2026-04-12T08:33:30.158Z</time></trkpt><trkpt lat="43.4568823" lon="11.3041068"><ele>556.0</ele><time>2026-04-12T08:33:31.159Z</time></trkpt><trkpt lat="43.4568323" lon="11.3039866"><ele>556.0</ele><time>2026-04-12T08:33:32.158Z</time></trkpt><trkpt lat="43.4567714" lon="11.3038767"><ele>556.0</ele><time>2026-04-12T08:33:33.159Z</time></trkpt><trkpt lat="43.4566936" lon="11.3037694"><ele>556.0</ele><time>2026-04-12T08:33:34.158Z</time></trkpt><trkpt lat="43.4566211" lon="11.3036527"><ele>556.0</ele><time>2026-04-12T08:33:35.159Z</time></trkpt><trkpt lat="43.4565501" lon="11.3035475"><ele>556.2</ele><time>2026-04-12T08:33:36.157Z</time></trkpt><trkpt lat="43.4564884" lon="11.303461"><ele>556.4000000000001</ele><time>2026-04-12T08:33:37.157Z</time></trkpt><trkpt lat="43.4564274" lon="11.3033736"><ele>556.6</ele><time>2026-04-12T08:33:38.158Z</time></trkpt><trkpt lat="43.4563706" lon="11.3032884"><ele>556.8000000000001</ele><time>2026-04-12T08:33:39.158Z</time></trkpt><trkpt lat="43.456321" lon="11.3032103"><ele>557.0</ele><time>2026-04-12T08:33:40.158Z</time></trkpt><trkpt lat="43.4563149" lon="11.3030449"><ele>557.3333333333333</ele><time>2026-04-12T08:33:42.157Z</time></trkpt><trkpt lat="43.4563513" lon="11.3029598"><ele>557.6666666666666</ele><time>2026-04-12T08:33:43.158Z</time></trkpt><trkpt lat="43.4563765" lon="11.3028621"><ele>558.0</ele><time>2026-04-12T08:33:44.158Z</time></trkpt><trkpt lat="43.4563923" lon="11.3027315"><ele>558.3333333333334</ele><time>2026-04-12T08:33:45.157Z</time></trkpt><trkpt lat="43.4563917" lon="11.3026137"><ele>558.6666666666667</ele><time>2026-04-12T08:33:46.158Z</time></trkpt><trkpt lat="43.4563667" lon="11.3024963"><ele>559.0</ele><time>2026-04-12T08:33:47.157Z</time></trkpt><trkpt lat="43.4563202" lon="11.3023826"><ele>559.4</ele><time>2026-04-12T08:33:48.157Z</time></trkpt><trkpt lat="43.4562636" lon="11.3022858"><ele>559.8</ele><time>2026-04-12T08:33:49.158Z</time></trkpt><trkpt lat="43.4562033" lon="11.3021823"><ele>560.2</ele><time>2026-04-12T08:33:50.156Z</time></trkpt><trkpt lat="43.4561373" lon="11.3020688"><ele>560.6</ele><time>2026-04-12T08:33:51.158Z</time></trkpt><trkpt lat="43.4560704" lon="11.30194"><ele>561.0</ele><time>2026-04-12T08:33:52.158Z</time></trkpt><trkpt lat="43.4560079" lon="11.3017992"><ele>560.75</ele><time>2026-04-12T08:33:53.158Z</time></trkpt><trkpt lat="43.4559452" lon="11.3016621"><ele>560.5</ele><time>2026-04-12T08:33:54.156Z</time></trkpt><trkpt lat="43.4558915" lon="11.3015282"><ele>560.25</ele><time>2026-04-12T08:33:55.158Z</time></trkpt><trkpt lat="43.4558279" lon="11.3013975"><ele>560.0</ele><time>2026-04-12T08:33:56.157Z</time></trkpt><trkpt lat="43.4557641" lon="11.3012632"><ele>560.0</ele><time>2026-04-12T08:33:57.156Z</time></trkpt><trkpt lat="43.4557129" lon="11.3011345"><ele>560.0</ele><time>2026-04-12T08:33:58.157Z</time></trkpt><trkpt lat="43.4556722" lon="11.3009875"><ele>560.0</ele><time>2026-04-12T08:33:59.158Z</time></trkpt><trkpt lat="43.4556533" lon="11.3008162"><ele>560.0</ele><time>2026-04-12T08:34:00.157Z</time></trkpt><trkpt lat="43.4556446" lon="11.3006304"><ele>561.25</ele><time>2026-04-12T08:34:01.157Z</time></trkpt><trkpt lat="43.4556454" lon="11.3004335"><ele>562.5</ele><time>2026-04-12T08:34:02.158Z</time></trkpt><trkpt lat="43.4556523" lon="11.3002549"><ele>563.75</ele><time>2026-04-12T08:34:03.157Z</time></trkpt><trkpt lat="43.4556565" lon="11.300104"><ele>565.0</ele><time>2026-04-12T08:34:04.157Z</time></trkpt><trkpt lat="43.4556639" lon="11.2999754"><ele>565.0</ele><time>2026-04-12T08:34:05.157Z</time></trkpt><trkpt lat="43.4556761" lon="11.2998702"><ele>565.0</ele><time>2026-04-12T08:34:06.158Z</time></trkpt><trkpt lat="43.455737" lon="11.2997195"><ele>565.0</ele><time>2026-04-12T08:34:08.158Z</time></trkpt><trkpt lat="43.4558408" lon="11.2996336"><ele>565.0</ele><time>2026-04-12T08:34:10.158Z</time></trkpt><trkpt lat="43.4559021" lon="11.2995973"><ele>565.0</ele><time>2026-04-12T08:34:11.157Z</time></trkpt><trkpt lat="43.4559697" lon="11.2995434"><ele>566.4</ele><time>2026-04-12T08:34:12.158Z</time></trkpt><trkpt lat="43.4560401" lon="11.2994531"><ele>567.8</ele><time>2026-04-12T08:34:13.159Z</time></trkpt><trkpt lat="43.4561074" lon="11.2993492"><ele>569.2</ele><time>2026-04-12T08:34:14.159Z</time></trkpt><trkpt lat="43.4561726" lon="11.2992337"><ele>570.6</ele><time>2026-04-12T08:34:15.157Z</time></trkpt><trkpt lat="43.4562428" lon="11.2991041"><ele>572.0</ele><time>2026-04-12T08:34:16.158Z</time></trkpt><trkpt lat="43.4563079" lon="11.298958"><ele>574.0</ele><time>2026-04-12T08:34:17.158Z</time></trkpt><trkpt lat="43.4563654" lon="11.2988235"><ele>576.0</ele><time>2026-04-12T08:34:18.159Z</time></trkpt><trkpt lat="43.4563963" lon="11.298679"><ele>578.0</ele><time>2026-04-12T08:34:19.156Z</time></trkpt><trkpt lat="43.4564268" lon="11.2985182"><ele>580.0</ele><time>2026-04-12T08:34:20.157Z</time></trkpt><trkpt lat="43.4564538" lon="11.2983551"><ele>580.0</ele><time>2026-04-12T08:34:21.158Z</time></trkpt><trkpt lat="43.4564722" lon="11.2982031"><ele>580.0</ele><time>2026-04-12T08:34:22.158Z</time></trkpt><trkpt lat="43.4564941" lon="11.2980588"><ele>580.0</ele><time>2026-04-12T08:34:23.157Z</time></trkpt><trkpt lat="43.4565002" lon="11.2979121"><ele>580.0</ele><time>2026-04-12T08:34:24.158Z</time></trkpt><trkpt lat="43.4564879" lon="11.2977505"><ele>580.0</ele><time>2026-04-12T08:34:25.158Z</time></trkpt><trkpt lat="43.4564656" lon="11.2975806"><ele>579.75</ele><time>2026-04-12T08:34:26.157Z</time></trkpt><trkpt lat="43.4564242" lon="11.2974044"><ele>579.5</ele><time>2026-04-12T08:34:27.157Z</time></trkpt><trkpt lat="43.4563783" lon="11.2972312"><ele>579.25</ele><time>2026-04-12T08:34:28.158Z</time></trkpt><trkpt lat="43.4563398" lon="11.2970498"><ele>579.0</ele><time>2026-04-12T08:34:29.157Z</time></trkpt><trkpt lat="43.4563179" lon="11.2968672"><ele>579.0</ele><time>2026-04-12T08:34:30.157Z</time></trkpt><trkpt lat="43.4563166" lon="11.2967109"><ele>579.0</ele><time>2026-04-12T08:34:31.158Z</time></trkpt><trkpt lat="43.4563283" lon="11.2965664"><ele>579.0</ele><time>2026-04-12T08:34:32.156Z</time></trkpt><trkpt lat="43.456355" lon="11.2964412"><ele>579.0</ele><time>2026-04-12T08:34:33.158Z</time></trkpt><trkpt lat="43.4564042" lon="11.2963283"><ele>579.0</ele><time>2026-04-12T08:34:34.157Z</time></trkpt><trkpt lat="43.4564753" lon="11.2962108"><ele>579.75</ele><time>2026-04-12T08:34:35.159Z</time></trkpt><trkpt lat="43.4565493" lon="11.2960946"><ele>580.5</ele><time>2026-04-12T08:34:36.157Z</time></trkpt><trkpt lat="43.4566371" lon="11.2959785"><ele>581.25</ele><time>2026-04-12T08:34:37.157Z</time></trkpt><trkpt lat="43.4567305" lon="11.2958514"><ele>582.0</ele><time>2026-04-12T08:34:38.158Z</time></trkpt><trkpt lat="43.4568288" lon="11.2957074"><ele>583.0</ele><time>2026-04-12T08:34:39.159Z</time></trkpt><trkpt lat="43.4569221" lon="11.2955572"><ele>584.0</ele><time>2026-04-12T08:34:40.157Z</time></trkpt><trkpt lat="43.4570096" lon="11.2953917"><ele>585.0</ele><time>2026-04-12T08:34:41.158Z</time></trkpt><trkpt lat="43.4570801" lon="11.295243"><ele>586.0</ele><time>2026-04-12T08:34:42.158Z</time></trkpt><trkpt lat="43.4571422" lon="11.2950857"><ele>586.75</ele><time>2026-04-12T08:34:43.156Z</time></trkpt><trkpt lat="43.4572012" lon="11.2949324"><ele>587.5</ele><time>2026-04-12T08:34:44.158Z</time></trkpt><trkpt lat="43.4572558" lon="11.2947677"><ele>588.25</ele><time>2026-04-12T08:34:45.158Z</time></trkpt><trkpt lat="43.4573072" lon="11.2946005"><ele>589.0</ele><time>2026-04-12T08:34:46.158Z</time></trkpt><trkpt lat="43.4573618" lon="11.2944345"><ele>588.5</ele><time>2026-04-12T08:34:47.158Z</time></trkpt><trkpt lat="43.4574176" lon="11.2942736"><ele>588.0</ele><time>2026-04-12T08:34:48.157Z</time></trkpt><trkpt lat="43.4574697" lon="11.2941161"><ele>587.5</ele><time>2026-04-12T08:34:49.158Z</time></trkpt><trkpt lat="43.4575224" lon="11.2939741"><ele>587.0</ele><time>2026-04-12T08:34:50.158Z</time></trkpt><trkpt lat="43.4575707" lon="11.2938378"><ele>587.0</ele><time>2026-04-12T08:34:51.158Z</time></trkpt><trkpt lat="43.4576186" lon="11.2937138"><ele>587.0</ele><time>2026-04-12T08:34:52.157Z</time></trkpt><trkpt lat="43.4576619" lon="11.2935929"><ele>587.0</ele><time>2026-04-12T08:34:53.157Z</time></trkpt><trkpt lat="43.4577006" lon="11.2934744"><ele>587.0</ele><time>2026-04-12T08:34:54.157Z</time></trkpt><trkpt lat="43.457712" lon="11.2933441"><ele>587.0</ele><time>2026-04-12T08:34:55.158Z</time></trkpt><trkpt lat="43.4577034" lon="11.2932305"><ele>587.0</ele><time>2026-04-12T08:34:56.158Z</time></trkpt><trkpt lat="43.4576829" lon="11.2931216"><ele>587.0</ele><time>2026-04-12T08:34:57.158Z</time></trkpt><trkpt lat="43.4576475" lon="11.2930186"><ele>587.0</ele><time>2026-04-12T08:34:58.158Z</time></trkpt><trkpt lat="43.4575961" lon="11.2929133"><ele>587.0</ele><time>2026-04-12T08:34:59.158Z</time></trkpt><trkpt lat="43.4575226" lon="11.2928035"><ele>587.0</ele><time>2026-04-12T08:35:00.157Z</time></trkpt><trkpt lat="43.4574466" lon="11.2927054"><ele>586.0</ele><time>2026-04-12T08:35:01.158Z</time></trkpt><trkpt lat="43.4573669" lon="11.2926315"><ele>585.0</ele><time>2026-04-12T08:35:02.158Z</time></trkpt><trkpt lat="43.4572851" lon="11.2925817"><ele>584.0</ele><time>2026-04-12T08:35:03.157Z</time></trkpt><trkpt lat="43.4571957" lon="11.2925511"><ele>583.0</ele><time>2026-04-12T08:35:04.158Z</time></trkpt><trkpt lat="43.4571033" lon="11.2925361"><ele>582.0</ele><time>2026-04-12T08:35:05.158Z</time></trkpt><trkpt lat="43.4570108" lon="11.2925306"><ele>581.0</ele><time>2026-04-12T08:35:06.158Z</time></trkpt><trkpt lat="43.4569137" lon="11.2925209"><ele>580.0</ele><time>2026-04-12T08:35:07.158Z</time></trkpt><trkpt lat="43.4568259" lon="11.2925099"><ele>579.0</ele><time>2026-04-12T08:35:08.158Z</time></trkpt><trkpt lat="43.4567492" lon="11.2924939"><ele>578.0</ele><time>2026-04-12T08:35:09.158Z</time></trkpt><trkpt lat="43.4566626" lon="11.2924193"><ele>577.0</ele><time>2026-04-12T08:35:11.159Z</time></trkpt><trkpt lat="43.4566664" lon="11.2923143"><ele>576.0</ele><time>2026-04-12T08:35:13.158Z</time></trkpt><trkpt lat="43.4567578" lon="11.2922832"><ele>576.0</ele><time>2026-04-12T08:35:15.159Z</time></trkpt><trkpt lat="43.4568229" lon="11.2922784"><ele>576.0</ele><time>2026-04-12T08:35:16.159Z</time></trkpt><trkpt lat="43.4569381" lon="11.2922686"><ele>576.0</ele><time>2026-04-12T08:35:18.159Z</time></trkpt><trkpt lat="43.4570181" lon="11.2922496"><ele>576.0</ele><time>2026-04-12T08:35:20.158Z</time></trkpt><trkpt lat="43.457083" lon="11.2922387"><ele>576.0</ele><time>2026-04-12T08:35:22.158Z</time></trkpt><trkpt lat="43.4571666" lon="11.2922346"><ele>576.0</ele><time>2026-04-12T08:35:25.157Z</time></trkpt><trkpt lat="43.457253" lon="11.2922253"><ele>573.6666666666666</ele><time>2026-04-12T08:35:29.158Z</time></trkpt><trkpt lat="43.4573336" lon="11.2921994"><ele>571.3333333333334</ele><time>2026-04-12T08:35:31.158Z</time></trkpt><trkpt lat="43.4574166" lon="11.2921854"><ele>569.0</ele><time>2026-04-12T08:35:32.158Z</time></trkpt><trkpt lat="43.4574928" lon="11.29217"><ele>566.6666666666667</ele><time>2026-04-12T08:35:33.159Z</time></trkpt><trkpt lat="43.4575846" lon="11.2921472"><ele>564.3333333333334</ele><time>2026-04-12T08:35:34.158Z</time></trkpt><trkpt lat="43.4576808" lon="11.2921218"><ele>562.0</ele><time>2026-04-12T08:35:35.158Z</time></trkpt><trkpt lat="43.4577939" lon="11.2921027"><ele>562.0</ele><time>2026-04-12T08:35:36.158Z</time></trkpt><trkpt lat="43.4579102" lon="11.2920787"><ele>562.0</ele><time>2026-04-12T08:35:37.158Z</time></trkpt><trkpt lat="43.458036" lon="11.292049"><ele>562.0</ele><time>2026-04-12T08:35:38.158Z</time></trkpt><trkpt lat="43.4581653" lon="11.2920178"><ele>562.0</ele><time>2026-04-12T08:35:39.158Z</time></trkpt><trkpt lat="43.4582983" lon="11.2919781"><ele>562.25</ele><time>2026-04-12T08:35:40.157Z</time></trkpt><trkpt lat="43.4584307" lon="11.2919256"><ele>562.5</ele><time>2026-04-12T08:35:41.158Z</time></trkpt><trkpt lat="43.4585732" lon="11.2918644"><ele>562.75</ele><time>2026-04-12T08:35:42.158Z</time></trkpt><trkpt lat="43.4587144" lon="11.2917975"><ele>563.0</ele><time>2026-04-12T08:35:43.157Z</time></trkpt><trkpt lat="43.4588627" lon="11.2917268"><ele>565.0</ele><time>2026-04-12T08:35:44.158Z</time></trkpt><trkpt lat="43.4590073" lon="11.2916463"><ele>567.0</ele><time>2026-04-12T08:35:45.158Z</time></trkpt><trkpt lat="43.4591641" lon="11.2915818"><ele>569.0</ele><time>2026-04-12T08:35:46.158Z</time></trkpt><trkpt lat="43.4593255" lon="11.291497"><ele>566.0</ele><time>2026-04-12T08:35:47.158Z</time></trkpt><trkpt lat="43.4594837" lon="11.2914126"><ele>563.0</ele><time>2026-04-12T08:35:48.158Z</time></trkpt><trkpt lat="43.4596417" lon="11.2913268"><ele>560.0</ele><time>2026-04-12T08:35:49.158Z</time></trkpt><trkpt lat="43.4598006" lon="11.2912484"><ele>560.0</ele><time>2026-04-12T08:35:50.158Z</time></trkpt><trkpt lat="43.4599595" lon="11.2911745"><ele>560.0</ele><time>2026-04-12T08:35:51.157Z</time></trkpt><trkpt lat="43.4601174" lon="11.2911043"><ele>560.0</ele><time>2026-04-12T08:35:52.158Z</time></trkpt><trkpt lat="43.4602687" lon="11.2910283"><ele>560.0</ele><time>2026-04-12T08:35:53.159Z</time></trkpt><trkpt lat="43.4604142" lon="11.290959"><ele>560.0</ele><time>2026-04-12T08:35:54.158Z</time></trkpt><trkpt lat="43.4605623" lon="11.2908798"><ele>560.0</ele><time>2026-04-12T08:35:55.158Z</time></trkpt><trkpt lat="43.4607041" lon="11.2908004"><ele>559.0</ele><time>2026-04-12T08:35:56.158Z</time></trkpt><trkpt lat="43.4608313" lon="11.2907225"><ele>558.0</ele><time>2026-04-12T08:35:57.158Z</time></trkpt><trkpt lat="43.4609314" lon="11.2906699"><ele>557.0</ele><time>2026-04-12T08:35:58.158Z</time></trkpt><trkpt lat="43.460996" lon="11.2906361"><ele>556.0</ele><time>2026-04-12T08:35:59.157Z</time></trkpt><trkpt lat="43.461069" lon="11.290586"><ele>555.0</ele><time>2026-04-12T08:36:18.157Z</time></trkpt><trkpt lat="43.4611486" lon="11.2905616"><ele>555.0</ele><time>2026-04-12T08:36:20.158Z</time></trkpt><trkpt lat="43.4612316" lon="11.2905043"><ele>555.0</ele><time>2026-04-12T08:36:22.158Z</time></trkpt><trkpt lat="43.4612923" lon="11.2904564"><ele>555.0</ele><time>2026-04-12T08:36:25.159Z</time></trkpt><trkpt lat="43.4613973" lon="11.2904084"><ele>555.0</ele><time>2026-04-12T08:37:13.158Z</time></trkpt><trkpt lat="43.4615094" lon="11.2903533"><ele>555.0</ele><time>2026-04-12T08:37:15.158Z</time></trkpt><trkpt lat="43.4615755" lon="11.2903216"><ele>556.2</ele><time>2026-04-12T08:37:16.158Z</time></trkpt><trkpt lat="43.4616589" lon="11.2902881"><ele>557.4</ele><time>2026-04-12T08:37:17.157Z</time></trkpt><trkpt lat="43.4617444" lon="11.2902558"><ele>558.6</ele><time>2026-04-12T08:37:18.158Z</time></trkpt><trkpt lat="43.4618315" lon="11.2902243"><ele>559.8</ele><time>2026-04-12T08:37:19.159Z</time></trkpt><trkpt lat="43.4619297" lon="11.2901993"><ele>561.0</ele><time>2026-04-12T08:37:20.158Z</time></trkpt><trkpt lat="43.462036" lon="11.2901727"><ele>561.25</ele><time>2026-04-12T08:37:21.159Z</time></trkpt><trkpt lat="43.4621506" lon="11.2901449"><ele>561.5</ele><time>2026-04-12T08:37:22.158Z</time></trkpt><trkpt lat="43.4622729" lon="11.2901234"><ele>561.75</ele><time>2026-04-12T08:37:23.159Z</time></trkpt><trkpt lat="43.4624053" lon="11.2901024"><ele>562.0</ele><time>2026-04-12T08:37:24.158Z</time></trkpt><trkpt lat="43.4625246" lon="11.2900701"><ele>562.0</ele><time>2026-04-12T08:37:25.158Z</time></trkpt><trkpt lat="43.4626428" lon="11.2900439"><ele>562.0</ele><time>2026-04-12T08:37:26.158Z</time></trkpt><trkpt lat="43.4627603" lon="11.2900146"><ele>562.0</ele><time>2026-04-12T08:37:27.16Z</time></trkpt><trkpt lat="43.4628832" lon="11.2899789"><ele>562.0</ele><time>2026-04-12T08:37:28.158Z</time></trkpt><trkpt lat="43.4630036" lon="11.2899445"><ele>562.5</ele><time>2026-04-12T08:37:29.158Z</time></trkpt><trkpt lat="43.4631298" lon="11.2899077"><ele>563.0</ele><time>2026-04-12T08:37:30.158Z</time></trkpt><trkpt lat="43.4632568" lon="11.2898705"><ele>563.5</ele><time>2026-04-12T08:37:31.158Z</time></trkpt><trkpt lat="43.4633876" lon="11.2898367"><ele>564.0</ele><time>2026-04-12T08:37:32.158Z</time></trkpt><trkpt lat="43.463519" lon="11.289802"><ele>564.0</ele><time>2026-04-12T08:37:33.157Z</time></trkpt><trkpt lat="43.4636489" lon="11.289759"><ele>564.0</ele><time>2026-04-12T08:37:34.157Z</time></trkpt><trkpt lat="43.4637711" lon="11.2897209"><ele>564.0</ele><time>2026-04-12T08:37:35.159Z</time></trkpt><trkpt lat="43.4638831" lon="11.2896874"><ele>564.0</ele><time>2026-04-12T08:37:36.158Z</time></trkpt><trkpt lat="43.4639908" lon="11.2896513"><ele>563.4</ele><time>2026-04-12T08:37:37.158Z</time></trkpt><trkpt lat="43.4640896" lon="11.2896184"><ele>562.8</ele><time>2026-04-12T08:37:38.158Z</time></trkpt><trkpt lat="43.4641847" lon="11.2895887"><ele>562.2</ele><time>2026-04-12T08:37:39.158Z</time></trkpt><trkpt lat="43.4642816" lon="11.2895567"><ele>561.6</ele><time>2026-04-12T08:37:40.157Z</time></trkpt><trkpt lat="43.4643787" lon="11.2895255"><ele>561.0</ele><time>2026-04-12T08:37:41.158Z</time></trkpt><trkpt lat="43.4644882" lon="11.2895025"><ele>561.0</ele><time>2026-04-12T08:37:42.158Z</time></trkpt><trkpt lat="43.4645891" lon="11.2894765"><ele>561.0</ele><time>2026-04-12T08:37:43.159Z</time></trkpt><trkpt lat="43.4646783" lon="11.2894533"><ele>561.0</ele><time>2026-04-12T08:37:44.157Z</time></trkpt><trkpt lat="43.4647626" lon="11.2894268"><ele>561.0</ele><time>2026-04-12T08:37:45.159Z</time></trkpt><trkpt lat="43.4648376" lon="11.289402"><ele>561.0</ele><time>2026-04-12T08:37:46.158Z</time></trkpt><trkpt lat="43.4649099" lon="11.2893834"><ele>561.0</ele><time>2026-04-12T08:37:47.157Z</time></trkpt><trkpt lat="43.4649881" lon="11.2893592"><ele>561.5</ele><time>2026-04-12T08:37:48.158Z</time></trkpt><trkpt lat="43.4650687" lon="11.2893298"><ele>562.0</ele><time>2026-04-12T08:37:49.158Z</time></trkpt><trkpt lat="43.4651502" lon="11.2893016"><ele>562.5</ele><time>2026-04-12T08:37:50.158Z</time></trkpt><trkpt lat="43.4652292" lon="11.289278"><ele>563.0</ele><time>2026-04-12T08:37:51.16Z</time></trkpt><trkpt lat="43.4653046" lon="11.2892484"><ele>563.5</ele><time>2026-04-12T08:37:52.158Z</time></trkpt><trkpt lat="43.4653813" lon="11.2892257"><ele>564.0</ele><time>2026-04-12T08:37:53.159Z</time></trkpt><trkpt lat="43.4654529" lon="11.2892026"><ele>564.5</ele><time>2026-04-12T08:37:54.158Z</time></trkpt><trkpt lat="43.4655321" lon="11.2891793"><ele>565.0</ele><time>2026-04-12T08:37:55.159Z</time></trkpt><trkpt lat="43.4656025" lon="11.2891548"><ele>565.5</ele><time>2026-04-12T08:37:56.158Z</time></trkpt><trkpt lat="43.4656719" lon="11.2891357"><ele>566.0</ele><time>2026-04-12T08:37:57.158Z</time></trkpt><trkpt lat="43.4657451" lon="11.2891094"><ele>566.5</ele><time>2026-04-12T08:37:58.158Z</time></trkpt><trkpt lat="43.4658197" lon="11.2890867"><ele>567.0</ele><time>2026-04-12T08:37:59.158Z</time></trkpt><trkpt lat="43.4659002" lon="11.2890598"><ele>567.0</ele><time>2026-04-12T08:38:00.157Z</time></trkpt><trkpt lat="43.4659859" lon="11.2890298"><ele>567.0</ele><time>2026-04-12T08:38:01.158Z</time></trkpt><trkpt lat="43.4660723" lon="11.2889966"><ele>567.0</ele><time>2026-04-12T08:38:02.158Z</time></trkpt><trkpt lat="43.4661621" lon="11.2889644"><ele>567.0</ele><time>2026-04-12T08:38:03.159Z</time></trkpt><trkpt lat="43.4662489" lon="11.2889268"><ele>567.0</ele><time>2026-04-12T08:38:04.159Z</time></trkpt><trkpt lat="43.4663406" lon="11.2888763"><ele>568.0</ele><time>2026-04-12T08:38:05.158Z</time></trkpt><trkpt lat="43.4664312" lon="11.2888231"><ele>569.0</ele><time>2026-04-12T08:38:06.158Z</time></trkpt><trkpt lat="43.4665225" lon="11.2887674"><ele>570.0</ele><time>2026-04-12T08:38:07.159Z</time></trkpt><trkpt lat="43.4666173" lon="11.2887128"><ele>571.0</ele><time>2026-04-12T08:38:08.158Z</time></trkpt><trkpt lat="43.4667135" lon="11.2886495"><ele>572.0</ele><time>2026-04-12T08:38:09.158Z</time></trkpt><trkpt lat="43.4668048" lon="11.2885879"><ele>572.0</ele><time>2026-04-12T08:38:10.158Z</time></trkpt><trkpt lat="43.4668966" lon="11.2885261"><ele>572.0</ele><time>2026-04-12T08:38:11.158Z</time></trkpt><trkpt lat="43.466988" lon="11.2884553"><ele>572.0</ele><time>2026-04-12T08:38:12.159Z</time></trkpt><trkpt lat="43.4670778" lon="11.288367"><ele>572.0</ele><time>2026-04-12T08:38:13.158Z</time></trkpt><trkpt lat="43.4671533" lon="11.2882709"><ele>572.0</ele><time>2026-04-12T08:38:14.158Z</time></trkpt><trkpt lat="43.4672223" lon="11.2881693"><ele>571.4</ele><time>2026-04-12T08:38:15.159Z</time></trkpt><trkpt lat="43.4672877" lon="11.2880602"><ele>570.8000000000001</ele><time>2026-04-12T08:38:16.157Z</time></trkpt><trkpt lat="43.4673508" lon="11.2879472"><ele>570.2</ele><time>2026-04-12T08:38:17.159Z</time></trkpt><trkpt lat="43.4674153" lon="11.2878317"><ele>569.6</ele><time>2026-04-12T08:38:18.158Z</time></trkpt><trkpt lat="43.4674775" lon="11.2877155"><ele>569.0</ele><time>2026-04-12T08:38:19.159Z</time></trkpt><trkpt lat="43.4675365" lon="11.2876022"><ele>569.0</ele><time>2026-04-12T08:38:20.158Z</time></trkpt><trkpt lat="43.4675983" lon="11.2874993"><ele>569.0</ele><time>2026-04-12T08:38:21.158Z</time></trkpt><trkpt lat="43.46767" lon="11.2874098"><ele>569.0</ele><time>2026-04-12T08:38:22.157Z</time></trkpt><trkpt lat="43.467754" lon="11.2873362"><ele>569.0</ele><time>2026-04-12T08:38:23.157Z</time></trkpt><trkpt lat="43.4678337" lon="11.2872754"><ele>569.0</ele><time>2026-04-12T08:38:24.158Z</time></trkpt><trkpt lat="43.4679172" lon="11.2872314"><ele>568.4</ele><time>2026-04-12T08:38:25.158Z</time></trkpt><trkpt lat="43.4679998" lon="11.2871925"><ele>567.8</ele><time>2026-04-12T08:38:26.158Z</time></trkpt><trkpt lat="43.4680846" lon="11.2871556"><ele>567.2</ele><time>2026-04-12T08:38:27.157Z</time></trkpt><trkpt lat="43.4681747" lon="11.2871032"><ele>566.6</ele><time>2026-04-12T08:38:28.158Z</time></trkpt><trkpt lat="43.4682529" lon="11.287037"><ele>566.0</ele><time>2026-04-12T08:38:29.158Z</time></trkpt><trkpt lat="43.4683286" lon="11.2869663"><ele>566.0</ele><time>2026-04-12T08:38:30.158Z</time></trkpt><trkpt lat="43.4683955" lon="11.2868757"><ele>566.0</ele><time>2026-04-12T08:38:31.159Z</time></trkpt><trkpt lat="43.4684607" lon="11.2867894"><ele>566.0</ele><time>2026-04-12T08:38:32.16Z</time></trkpt><trkpt lat="43.468521" lon="11.2867034"><ele>566.0</ele><time>2026-04-12T08:38:33.157Z</time></trkpt><trkpt lat="43.4685767" lon="11.2866277"><ele>566.0</ele><time>2026-04-12T08:38:34.158Z</time></trkpt><trkpt lat="43.4686285" lon="11.2865557"><ele>566.0</ele><time>2026-04-12T08:38:35.158Z</time></trkpt><trkpt lat="43.4686859" lon="11.2864861"><ele>566.0</ele><time>2026-04-12T08:38:36.158Z</time></trkpt><trkpt lat="43.4687465" lon="11.2864039"><ele>566.0</ele><time>2026-04-12T08:38:37.16Z</time></trkpt><trkpt lat="43.4688113" lon="11.286325"><ele>566.0</ele><time>2026-04-12T08:38:38.158Z</time></trkpt><trkpt lat="43.4688835" lon="11.2862542"><ele>566.0</ele><time>2026-04-12T08:38:39.158Z</time></trkpt><trkpt lat="43.4689652" lon="11.2861898"><ele>566.0</ele><time>2026-04-12T08:38:40.158Z</time></trkpt><trkpt lat="43.4690573" lon="11.2861443"><ele>566.0</ele><time>2026-04-12T08:38:41.158Z</time></trkpt><trkpt lat="43.4691535" lon="11.2861131"><ele>566.0</ele><time>2026-04-12T08:38:42.159Z</time></trkpt><trkpt lat="43.4692538" lon="11.286092"><ele>566.0</ele><time>2026-04-12T08:38:43.159Z</time></trkpt><trkpt lat="43.4693562" lon="11.2860782"><ele>566.0</ele><time>2026-04-12T08:38:44.158Z</time></trkpt><trkpt lat="43.4694593" lon="11.286066"><ele>566.0</ele><time>2026-04-12T08:38:45.158Z</time></trkpt><trkpt lat="43.4695553" lon="11.2860546"><ele>566.4</ele><time>2026-04-12T08:38:46.158Z</time></trkpt><trkpt lat="43.4696444" lon="11.2860514"><ele>566.8</ele><time>2026-04-12T08:38:47.158Z</time></trkpt><trkpt lat="43.4697313" lon="11.2860429"><ele>567.1999999999999</ele><time>2026-04-12T08:38:48.16Z</time></trkpt><trkpt lat="43.4698256" lon="11.2860306"><ele>567.6</ele><time>2026-04-12T08:38:49.16Z</time></trkpt><trkpt lat="43.4699137" lon="11.2859993"><ele>568.0</ele><time>2026-04-12T08:38:50.159Z</time></trkpt><trkpt lat="43.4700041" lon="11.2859534"><ele>568.0</ele><time>2026-04-12T08:38:51.157Z</time></trkpt><trkpt lat="43.4700904" lon="11.2858985"><ele>568.0</ele><time>2026-04-12T08:38:52.158Z</time></trkpt><trkpt lat="43.470173" lon="11.2858502"><ele>568.0</ele><time>2026-04-12T08:38:53.158Z</time></trkpt><trkpt lat="43.470255" lon="11.285805"><ele>568.0</ele><time>2026-04-12T08:38:54.159Z</time></trkpt><trkpt lat="43.4703374" lon="11.2857599"><ele>568.0</ele><time>2026-04-12T08:38:55.158Z</time></trkpt><trkpt lat="43.4704259" lon="11.28571"><ele>568.1999999999999</ele><time>2026-04-12T08:38:56.16Z</time></trkpt><trkpt lat="43.4705232" lon="11.285659"><ele>568.4</ele><time>2026-04-12T08:38:57.158Z</time></trkpt><trkpt lat="43.4706221" lon="11.2856036"><ele>568.5999999999999</ele><time>2026-04-12T08:38:58.158Z</time></trkpt><trkpt lat="43.4707211" lon="11.2855485"><ele>568.8</ele><time>2026-04-12T08:38:59.158Z</time></trkpt><trkpt lat="43.4708214" lon="11.2854959"><ele>569.0</ele><time>2026-04-12T08:39:00.158Z</time></trkpt><trkpt lat="43.4709172" lon="11.2854529"><ele>567.8333333333333</ele><time>2026-04-12T08:39:01.159Z</time></trkpt><trkpt lat="43.4710021" lon="11.2854204"><ele>566.6666666666666</ele><time>2026-04-12T08:39:02.159Z</time></trkpt><trkpt lat="43.4710781" lon="11.2854029"><ele>565.5</ele><time>2026-04-12T08:39:03.159Z</time></trkpt><trkpt lat="43.4711517" lon="11.285397"><ele>564.3333333333334</ele><time>2026-04-12T08:39:04.159Z</time></trkpt><trkpt lat="43.471268" lon="11.2854048"><ele>563.1666666666667</ele><time>2026-04-12T08:39:06.16Z</time></trkpt><trkpt lat="43.4713619" lon="11.2854014"><ele>562.0</ele><time>2026-04-12T08:39:08.159Z</time></trkpt><trkpt lat="43.4713368" lon="11.285307"><ele>564.3333333333334</ele><time>2026-04-12T08:41:37.158Z</time></trkpt><trkpt lat="43.471308" lon="11.2853886"><ele>566.6666666666667</ele><time>2026-04-12T08:41:41.159Z</time></trkpt><trkpt lat="43.4713766" lon="11.2854574"><ele>569.0</ele><time>2026-04-12T08:41:43.159Z</time></trkpt><trkpt lat="43.4714411" lon="11.2854859"><ele>571.3333333333334</ele><time>2026-04-12T08:41:45.159Z</time></trkpt><trkpt lat="43.4715067" lon="11.2855006"><ele>573.6666666666666</ele><time>2026-04-12T08:41:49.159Z</time></trkpt><trkpt lat="43.4715903" lon="11.2855183"><ele>576.0</ele><time>2026-04-12T08:41:51.159Z</time></trkpt><trkpt lat="43.4717208" lon="11.2855498"><ele>576.0</ele><time>2026-04-12T08:41:53.157Z</time></trkpt><trkpt lat="43.4718034" lon="11.2855764"><ele>576.0</ele><time>2026-04-12T08:41:54.158Z</time></trkpt><trkpt lat="43.471898" lon="11.2856025"><ele>576.0</ele><time>2026-04-12T08:41:55.157Z</time></trkpt><trkpt lat="43.4719998" lon="11.2856307"><ele>576.0</ele><time>2026-04-12T08:41:56.158Z</time></trkpt><trkpt lat="43.4721083" lon="11.2856584"><ele>576.0</ele><time>2026-04-12T08:41:57.159Z</time></trkpt><trkpt lat="43.4722145" lon="11.2856923"><ele>576.5</ele><time>2026-04-12T08:41:58.157Z</time></trkpt><trkpt lat="43.4723237" lon="11.2857298"><ele>577.0</ele><time>2026-04-12T08:41:59.159Z</time></trkpt><trkpt lat="43.4724348" lon="11.2857586"><ele>577.5</ele><time>2026-04-12T08:42:00.158Z</time></trkpt><trkpt lat="43.4725472" lon="11.2857941"><ele>578.0</ele><time>2026-04-12T08:42:01.159Z</time></trkpt><trkpt lat="43.472662" lon="11.2858538"><ele>578.0</ele><time>2026-04-12T08:42:02.159Z</time></trkpt><trkpt lat="43.4727645" lon="11.2859472"><ele>578.0</ele><time>2026-04-12T08:42:03.158Z</time></trkpt><trkpt lat="43.4728604" lon="11.286071"><ele>578.0</ele><time>2026-04-12T08:42:04.16Z</time></trkpt><trkpt lat="43.4729427" lon="11.2862053"><ele>578.0</ele><time>2026-04-12T08:42:05.158Z</time></trkpt><trkpt lat="43.4730029" lon="11.2863421"><ele>576.6</ele><time>2026-04-12T08:42:06.158Z</time></trkpt><trkpt lat="43.4730484" lon="11.286475"><ele>575.1999999999999</ele><time>2026-04-12T08:42:07.159Z</time></trkpt><trkpt lat="43.4730809" lon="11.2866069"><ele>573.8</ele><time>2026-04-12T08:42:08.159Z</time></trkpt><trkpt lat="43.473104" lon="11.2867421"><ele>572.4</ele><time>2026-04-12T08:42:09.158Z</time></trkpt><trkpt lat="43.4731134" lon="11.2868818"><ele>571.0</ele><time>2026-04-12T08:42:10.159Z</time></trkpt><trkpt lat="43.4731094" lon="11.2870331"><ele>571.0</ele><time>2026-04-12T08:42:11.159Z</time></trkpt><trkpt lat="43.4730928" lon="11.2871967"><ele>571.0</ele><time>2026-04-12T08:42:12.159Z</time></trkpt><trkpt lat="43.4730726" lon="11.2873661"><ele>571.0</ele><time>2026-04-12T08:42:13.159Z</time></trkpt><trkpt lat="43.4730498" lon="11.2875376"><ele>571.0</ele><time>2026-04-12T08:42:14.159Z</time></trkpt><trkpt lat="43.4730221" lon="11.2877039"><ele>570.8</ele><time>2026-04-12T08:42:15.16Z</time></trkpt><trkpt lat="43.4730008" lon="11.2878585"><ele>570.6</ele><time>2026-04-12T08:42:16.159Z</time></trkpt><trkpt lat="43.4729847" lon="11.2880013"><ele>570.4</ele><time>2026-04-12T08:42:17.159Z</time></trkpt><trkpt lat="43.4729717" lon="11.2881255"><ele>570.2</ele><time>2026-04-12T08:42:18.158Z</time></trkpt><trkpt lat="43.472954" lon="11.2882503"><ele>570.0</ele><time>2026-04-12T08:42:19.157Z</time></trkpt><trkpt lat="43.4729476" lon="11.2883755"><ele>569.5</ele><time>2026-04-12T08:42:20.159Z</time></trkpt><trkpt lat="43.4729571" lon="11.28848"><ele>569.0</ele><time>2026-04-12T08:42:21.159Z</time></trkpt><trkpt lat="43.472984" lon="11.2885743"><ele>568.5</ele><time>2026-04-12T08:42:22.158Z</time></trkpt><trkpt lat="43.4730204" lon="11.2886585"><ele>568.0</ele><time>2026-04-12T08:42:23.158Z</time></trkpt><trkpt lat="43.4730717" lon="11.2887218"><ele>567.5</ele><time>2026-04-12T08:42:24.158Z</time></trkpt><trkpt lat="43.4731369" lon="11.2887748"><ele>567.0</ele><time>2026-04-12T08:42:25.158Z</time></trkpt><trkpt lat="43.473222" lon="11.2888035"><ele>567.0</ele><time>2026-04-12T08:42:26.16Z</time></trkpt><trkpt lat="43.4733144" lon="11.2887928"><ele>567.0</ele><time>2026-04-12T08:42:27.158Z</time></trkpt><trkpt lat="43.4734055" lon="11.2887282"><ele>567.0</ele><time>2026-04-12T08:42:28.158Z</time></trkpt><trkpt lat="43.473484" lon="11.2886248"><ele>567.0</ele><time>2026-04-12T08:42:29.159Z</time></trkpt><trkpt lat="43.4735486" lon="11.2884966"><ele>567.0</ele><time>2026-04-12T08:42:30.16Z</time></trkpt><trkpt lat="43.4736105" lon="11.2883563"><ele>567.0</ele><time>2026-04-12T08:42:31.159Z</time></trkpt><trkpt lat="43.4736662" lon="11.2882123"><ele>567.0</ele><time>2026-04-12T08:42:32.16Z</time></trkpt><trkpt lat="43.4737188" lon="11.2880509"><ele>567.0</ele><time>2026-04-12T08:42:33.157Z</time></trkpt><trkpt lat="43.4737673" lon="11.2878825"><ele>567.0</ele><time>2026-04-12T08:42:34.158Z</time></trkpt><trkpt lat="43.4738112" lon="11.2876873"><ele>563.75</ele><time>2026-04-12T08:42:35.159Z</time></trkpt><trkpt lat="43.4738441" lon="11.287492"><ele>560.5</ele><time>2026-04-12T08:42:36.16Z</time></trkpt><trkpt lat="43.4738721" lon="11.2872919"><ele>557.25</ele><time>2026-04-12T08:42:37.159Z</time></trkpt><trkpt lat="43.4738984" lon="11.2870994"><ele>554.0</ele><time>2026-04-12T08:42:38.159Z</time></trkpt><trkpt lat="43.4739264" lon="11.2869065"><ele>554.0</ele><time>2026-04-12T08:42:39.158Z</time></trkpt><trkpt lat="43.4739492" lon="11.2867156"><ele>554.0</ele><time>2026-04-12T08:42:40.159Z</time></trkpt><trkpt lat="43.473974" lon="11.2865343"><ele>554.0</ele><time>2026-04-12T08:42:41.159Z</time></trkpt><trkpt lat="43.4740073" lon="11.2863631"><ele>554.0</ele><time>2026-04-12T08:42:42.159Z</time></trkpt><trkpt lat="43.4740526" lon="11.2862023"><ele>554.2</ele><time>2026-04-12T08:42:43.158Z</time></trkpt><trkpt lat="43.4741224" lon="11.2860637"><ele>554.4</ele><time>2026-04-12T08:42:44.159Z</time></trkpt><trkpt lat="43.4742024" lon="11.2859609"><ele>554.6</ele><time>2026-04-12T08:42:45.158Z</time></trkpt><trkpt lat="43.4742913" lon="11.2859025"><ele>554.8</ele><time>2026-04-12T08:42:46.159Z</time></trkpt><trkpt lat="43.4743749" lon="11.2858899"><ele>555.0</ele><time>2026-04-12T08:42:47.16Z</time></trkpt><trkpt lat="43.4744534" lon="11.2859171"><ele>555.0</ele><time>2026-04-12T08:42:48.158Z</time></trkpt><trkpt lat="43.4745237" lon="11.2859804"><ele>555.0</ele><time>2026-04-12T08:42:49.16Z</time></trkpt><trkpt lat="43.4745735" lon="11.2860813"><ele>555.0</ele><time>2026-04-12T08:42:50.159Z</time></trkpt><trkpt lat="43.4746023" lon="11.2861986"><ele>555.0</ele><time>2026-04-12T08:42:51.159Z</time></trkpt><trkpt lat="43.4746208" lon="11.28634"><ele>555.0</ele><time>2026-04-12T08:42:52.159Z</time></trkpt><trkpt lat="43.4746408" lon="11.2864979"><ele>558.3333333333334</ele><time>2026-04-12T08:42:53.159Z</time></trkpt><trkpt lat="43.4746745" lon="11.2866857"><ele>561.6666666666667</ele><time>2026-04-12T08:42:54.16Z</time></trkpt><trkpt lat="43.4747071" lon="11.2869077"><ele>565.0</ele><time>2026-04-12T08:42:55.159Z</time></trkpt><trkpt lat="43.4747386" lon="11.2871563"><ele>562.3333333333334</ele><time>2026-04-12T08:42:56.159Z</time></trkpt><trkpt lat="43.4747733" lon="11.2874234"><ele>559.6666666666666</ele><time>2026-04-12T08:42:57.159Z</time></trkpt><trkpt lat="43.4748177" lon="11.2876813"><ele>557.0</ele><time>2026-04-12T08:42:58.16Z</time></trkpt><trkpt lat="43.4748743" lon="11.2879194"><ele>553.6666666666666</ele><time>2026-04-12T08:42:59.159Z</time></trkpt><trkpt lat="43.4749582" lon="11.2881266"><ele>550.3333333333334</ele><time>2026-04-12T08:43:00.159Z</time></trkpt><trkpt lat="43.4750708" lon="11.2882964"><ele>547.0</ele><time>2026-04-12T08:43:01.159Z</time></trkpt><trkpt lat="43.4752088" lon="11.2884338"><ele>547.0</ele><time>2026-04-12T08:43:02.159Z</time></trkpt><trkpt lat="43.4753785" lon="11.2885263"><ele>547.0</ele><time>2026-04-12T08:43:03.159Z</time></trkpt><trkpt lat="43.4755663" lon="11.2885925"><ele>547.0</ele><time>2026-04-12T08:43:04.159Z</time></trkpt><trkpt lat="43.4757451" lon="11.2886738"><ele>548.3333333333334</ele><time>2026-04-12T08:43:05.158Z</time></trkpt><trkpt lat="43.4759006" lon="11.2887774"><ele>549.6666666666666</ele><time>2026-04-12T08:43:06.16Z</time></trkpt><trkpt lat="43.4760269" lon="11.2889136"><ele>551.0</ele><time>2026-04-12T08:43:07.16Z</time></trkpt><trkpt lat="43.4761242" lon="11.2890954"><ele>549.3333333333333</ele><time>2026-04-12T08:43:08.159Z</time></trkpt><trkpt lat="43.4761925" lon="11.2893073"><ele>547.6666666666666</ele><time>2026-04-12T08:43:09.159Z</time></trkpt><trkpt lat="43.4762485" lon="11.2895593"><ele>546.0</ele><time>2026-04-12T08:43:10.161Z</time></trkpt><trkpt lat="43.4763008" lon="11.2898134"><ele>546.0</ele><time>2026-04-12T08:43:11.159Z</time></trkpt><trkpt lat="43.4763514" lon="11.290077"><ele>546.0</ele><time>2026-04-12T08:43:12.159Z</time></trkpt><trkpt lat="43.4763957" lon="11.2903285"><ele>546.0</ele><time>2026-04-12T08:43:13.16Z</time></trkpt><trkpt lat="43.4764433" lon="11.2905639"><ele>546.0</ele><time>2026-04-12T08:43:14.159Z</time></trkpt><trkpt lat="43.4764819" lon="11.2907691"><ele>546.0</ele><time>2026-04-12T08:43:15.159Z</time></trkpt><trkpt lat="43.476488" lon="11.2909534"><ele>546.0</ele><time>2026-04-12T08:43:16.158Z</time></trkpt><trkpt lat="43.4764471" lon="11.2911012"><ele>546.0</ele><time>2026-04-12T08:43:17.158Z</time></trkpt><trkpt lat="43.4763624" lon="11.291197"><ele>545.75</ele><time>2026-04-12T08:43:18.157Z</time></trkpt><trkpt lat="43.4762461" lon="11.2912571"><ele>545.5</ele><time>2026-04-12T08:43:19.159Z</time></trkpt><trkpt lat="43.4761244" lon="11.2913218"><ele>545.25</ele><time>2026-04-12T08:43:20.159Z</time></trkpt><trkpt lat="43.4760054" lon="11.2914262"><ele>545.0</ele><time>2026-04-12T08:43:21.159Z</time></trkpt><trkpt lat="43.4758938" lon="11.2915539"><ele>545.0</ele><time>2026-04-12T08:43:22.159Z</time></trkpt><trkpt lat="43.4757939" lon="11.2916986"><ele>545.0</ele><time>2026-04-12T08:43:23.159Z</time></trkpt><trkpt lat="43.4756915" lon="11.2918558"><ele>545.0</ele><time>2026-04-12T08:43:24.159Z</time></trkpt><trkpt lat="43.4755866" lon="11.2920291"><ele>545.0</ele><time>2026-04-12T08:43:25.159Z</time></trkpt><trkpt lat="43.4754957" lon="11.2922185"><ele>545.0</ele><time>2026-04-12T08:43:26.159Z</time></trkpt><trkpt lat="43.4754247" lon="11.2924172"><ele>545.0</ele><time>2026-04-12T08:43:27.159Z</time></trkpt><trkpt lat="43.4753756" lon="11.2926252"><ele>543.3333333333333</ele><time>2026-04-12T08:43:28.159Z</time></trkpt><trkpt lat="43.4753399" lon="11.2928421"><ele>541.6666666666666</ele><time>2026-04-12T08:43:29.159Z</time></trkpt><trkpt lat="43.4753132" lon="11.2930683"><ele>540.0</ele><time>2026-04-12T08:43:30.159Z</time></trkpt><trkpt lat="43.4752915" lon="11.2932889"><ele>540.0</ele><time>2026-04-12T08:43:31.16Z</time></trkpt><trkpt lat="43.4752777" lon="11.2935215"><ele>540.0</ele><time>2026-04-12T08:43:32.158Z</time></trkpt><trkpt lat="43.4752662" lon="11.2937544"><ele>540.0</ele><time>2026-04-12T08:43:33.159Z</time></trkpt><trkpt lat="43.4752445" lon="11.293992"><ele>542.6666666666666</ele><time>2026-04-12T08:43:34.159Z</time></trkpt><trkpt lat="43.4752262" lon="11.2942371"><ele>545.3333333333333</ele><time>2026-04-12T08:43:35.159Z</time></trkpt><trkpt lat="43.4752108" lon="11.2944828"><ele>548.0</ele><time>2026-04-12T08:43:36.158Z</time></trkpt><trkpt lat="43.4751928" lon="11.2947291"><ele>549.0</ele><time>2026-04-12T08:43:37.159Z</time></trkpt><trkpt lat="43.4751748" lon="11.2949646"><ele>550.0</ele><time>2026-04-12T08:43:38.159Z</time></trkpt><trkpt lat="43.4751663" lon="11.2951989"><ele>551.0</ele><time>2026-04-12T08:43:39.158Z</time></trkpt><trkpt lat="43.4751832" lon="11.2954442"><ele>550.3333333333333</ele><time>2026-04-12T08:43:40.159Z</time></trkpt><trkpt lat="43.4752264" lon="11.2956861"><ele>549.6666666666666</ele><time>2026-04-12T08:43:41.159Z</time></trkpt><trkpt lat="43.4752995" lon="11.2959239"><ele>549.0</ele><time>2026-04-12T08:43:42.159Z</time></trkpt><trkpt lat="43.4753989" lon="11.2961461"><ele>553.3333333333334</ele><time>2026-04-12T08:43:43.159Z</time></trkpt><trkpt lat="43.475523" lon="11.2963373"><ele>557.6666666666667</ele><time>2026-04-12T08:43:44.158Z</time></trkpt><trkpt lat="43.4756627" lon="11.2964926"><ele>562.0</ele><time>2026-04-12T08:43:45.159Z</time></trkpt><trkpt lat="43.4758138" lon="11.2966147"><ele>562.0</ele><time>2026-04-12T08:43:46.158Z</time></trkpt><trkpt lat="43.4759597" lon="11.2967004"><ele>562.0</ele><time>2026-04-12T08:43:47.16Z</time></trkpt><trkpt lat="43.4761045" lon="11.2967679"><ele>562.0</ele><time>2026-04-12T08:43:48.159Z</time></trkpt><trkpt lat="43.4762382" lon="11.296828"><ele>564.1666666666667</ele><time>2026-04-12T08:43:49.159Z</time></trkpt><trkpt lat="43.4763526" lon="11.2968802"><ele>566.3333333333334</ele><time>2026-04-12T08:43:50.159Z</time></trkpt><trkpt lat="43.476435" lon="11.2969182"><ele>568.5</ele><time>2026-04-12T08:43:51.159Z</time></trkpt><trkpt lat="43.476498" lon="11.2969486"><ele>570.6666666666666</ele><time>2026-04-12T08:43:52.159Z</time></trkpt><trkpt lat="43.47658" lon="11.2970007"><ele>572.8333333333333</ele><time>2026-04-12T08:43:54.159Z</time></trkpt><trkpt lat="43.4766332" lon="11.2970776"><ele>575.0</ele><time>2026-04-12T08:43:58.158Z</time></trkpt><trkpt lat="43.4766896" lon="11.297198"><ele>573.4</ele><time>2026-04-12T08:44:05.158Z</time></trkpt><trkpt lat="43.4767497" lon="11.2973326"><ele>571.8</ele><time>2026-04-12T08:44:07.16Z</time></trkpt><trkpt lat="43.4767889" lon="11.297422"><ele>570.2</ele><time>2026-04-12T08:44:08.159Z</time></trkpt><trkpt lat="43.4768414" lon="11.297543"><ele>568.6</ele><time>2026-04-12T08:44:09.159Z</time></trkpt><trkpt lat="43.4768944" lon="11.29768"><ele>567.0</ele><time>2026-04-12T08:44:10.16Z</time></trkpt><trkpt lat="43.4769457" lon="11.2978468"><ele>567.0</ele><time>2026-04-12T08:44:11.159Z</time></trkpt><trkpt lat="43.4770005" lon="11.2980213"><ele>567.0</ele><time>2026-04-12T08:44:12.159Z</time></trkpt><trkpt lat="43.477058" lon="11.2982043"><ele>567.0</ele><time>2026-04-12T08:44:13.159Z</time></trkpt><trkpt lat="43.4771099" lon="11.2983888"><ele>567.0</ele><time>2026-04-12T08:44:14.16Z</time></trkpt><trkpt lat="43.47716" lon="11.298555"><ele>567.25</ele><time>2026-04-12T08:44:15.16Z</time></trkpt><trkpt lat="43.477212" lon="11.298729"><ele>567.5</ele><time>2026-04-12T08:44:16.159Z</time></trkpt><trkpt lat="43.4772602" lon="11.2989062"><ele>567.75</ele><time>2026-04-12T08:44:17.16Z</time></trkpt><trkpt lat="43.4772931" lon="11.2990813"><ele>568.0</ele><time>2026-04-12T08:44:18.159Z</time></trkpt><trkpt lat="43.4772994" lon="11.2992634"><ele>568.0</ele><time>2026-04-12T08:44:19.159Z</time></trkpt><trkpt lat="43.477283" lon="11.2994573"><ele>568.0</ele><time>2026-04-12T08:44:20.159Z</time></trkpt><trkpt lat="43.47725" lon="11.2996525"><ele>568.0</ele><time>2026-04-12T08:44:21.16Z</time></trkpt><trkpt lat="43.4772103" lon="11.2998565"><ele>568.0</ele><time>2026-04-12T08:44:22.159Z</time></trkpt><trkpt lat="43.4771658" lon="11.3000632"><ele>569.3333333333334</ele><time>2026-04-12T08:44:23.158Z</time></trkpt><trkpt lat="43.477124" lon="11.3002707"><ele>570.6666666666666</ele><time>2026-04-12T08:44:24.159Z</time></trkpt><trkpt lat="43.4770796" lon="11.3004756"><ele>572.0</ele><time>2026-04-12T08:44:25.159Z</time></trkpt><trkpt lat="43.4770325" lon="11.300681"><ele>575.75</ele><time>2026-04-12T08:44:26.159Z</time></trkpt><trkpt lat="43.4769892" lon="11.3008725"><ele>579.5</ele><time>2026-04-12T08:44:27.16Z</time></trkpt><trkpt lat="43.4769719" lon="11.3010536"><ele>583.25</ele><time>2026-04-12T08:44:28.159Z</time></trkpt><trkpt lat="43.4769873" lon="11.301228"><ele>587.0</ele><time>2026-04-12T08:44:29.159Z</time></trkpt><trkpt lat="43.4770439" lon="11.3013975"><ele>585.0</ele><time>2026-04-12T08:44:30.159Z</time></trkpt><trkpt lat="43.4771428" lon="11.301545"><ele>583.0</ele><time>2026-04-12T08:44:31.158Z</time></trkpt><trkpt lat="43.4772746" lon="11.3016621"><ele>581.0</ele><time>2026-04-12T08:44:32.159Z</time></trkpt><trkpt lat="43.4774357" lon="11.3017635"><ele>581.0</ele><time>2026-04-12T08:44:33.159Z</time></trkpt><trkpt lat="43.4775946" lon="11.3018611"><ele>581.0</ele><time>2026-04-12T08:44:34.159Z</time></trkpt><trkpt lat="43.4777411" lon="11.3019666"><ele>581.0</ele><time>2026-04-12T08:44:35.159Z</time></trkpt><trkpt lat="43.4778701" lon="11.3020802"><ele>583.3333333333333</ele><time>2026-04-12T08:44:36.158Z</time></trkpt><trkpt lat="43.4779875" lon="11.3022199"><ele>585.6666666666666</ele><time>2026-04-12T08:44:37.159Z</time></trkpt><trkpt lat="43.4780825" lon="11.3023908"><ele>588.0</ele><time>2026-04-12T08:44:38.16Z</time></trkpt><trkpt lat="43.4781611" lon="11.3025851"><ele>588.0</ele><time>2026-04-12T08:44:39.16Z</time></trkpt><trkpt lat="43.4782223" lon="11.3027951"><ele>588.0</ele><time>2026-04-12T08:44:40.16Z</time></trkpt><trkpt lat="43.4782702" lon="11.303012"><ele>588.0</ele><time>2026-04-12T08:44:41.159Z</time></trkpt><trkpt lat="43.4783299" lon="11.303217"><ele>587.6666666666666</ele><time>2026-04-12T08:44:42.158Z</time></trkpt><trkpt lat="43.4784165" lon="11.3034183"><ele>587.3333333333333</ele><time>2026-04-12T08:44:43.159Z</time></trkpt><trkpt lat="43.478525" lon="11.3036029"><ele>587.0</ele><time>2026-04-12T08:44:44.16Z</time></trkpt><trkpt lat="43.478646" lon="11.303778"><ele>586.0</ele><time>2026-04-12T08:44:45.16Z</time></trkpt><trkpt lat="43.4787662" lon="11.30395"><ele>585.0</ele><time>2026-04-12T08:44:46.158Z</time></trkpt><trkpt lat="43.4788756" lon="11.3041128"><ele>584.0</ele><time>2026-04-12T08:44:47.159Z</time></trkpt><trkpt lat="43.478976" lon="11.3042732"><ele>584.0</ele><time>2026-04-12T08:44:48.159Z</time></trkpt><trkpt lat="43.4790767" lon="11.3044284"><ele>584.0</ele><time>2026-04-12T08:44:49.16Z</time></trkpt><trkpt lat="43.4791784" lon="11.3045941"><ele>584.0</ele><time>2026-04-12T08:44:50.16Z</time></trkpt><trkpt lat="43.4792901" lon="11.3047643"><ele>583.6666666666666</ele><time>2026-04-12T08:44:51.16Z</time></trkpt><trkpt lat="43.4794152" lon="11.3049341"><ele>583.3333333333334</ele><time>2026-04-12T08:44:52.16Z</time></trkpt><trkpt lat="43.4795585" lon="11.3051002"><ele>583.0</ele><time>2026-04-12T08:44:53.161Z</time></trkpt><trkpt lat="43.4797118" lon="11.3052591"><ele>581.6666666666667</ele><time>2026-04-12T08:44:54.158Z</time></trkpt><trkpt lat="43.479868" lon="11.3054095"><ele>580.3333333333334</ele><time>2026-04-12T08:44:55.158Z</time></trkpt><trkpt lat="43.4800232" lon="11.3055314"><ele>579.0</ele><time>2026-04-12T08:44:56.159Z</time></trkpt><trkpt lat="43.4801676" lon="11.3056365"><ele>578.75</ele><time>2026-04-12T08:44:57.159Z</time></trkpt><trkpt lat="43.4803042" lon="11.3056983"><ele>578.5</ele><time>2026-04-12T08:44:58.16Z</time></trkpt><trkpt lat="43.480442" lon="11.3057105"><ele>578.25</ele><time>2026-04-12T08:44:59.159Z</time></trkpt><trkpt lat="43.480561" lon="11.3056593"><ele>578.0</ele><time>2026-04-12T08:45:00.16Z</time></trkpt><trkpt lat="43.4806698" lon="11.3055762"><ele>577.8</ele><time>2026-04-12T08:45:01.159Z</time></trkpt><trkpt lat="43.4807724" lon="11.3055212"><ele>577.5999999999999</ele><time>2026-04-12T08:45:02.16Z</time></trkpt><trkpt lat="43.4808693" lon="11.3055246"><ele>577.4000000000001</ele><time>2026-04-12T08:45:03.159Z</time></trkpt><trkpt lat="43.4809517" lon="11.3055614"><ele>577.2</ele><time>2026-04-12T08:45:04.159Z</time></trkpt><trkpt lat="43.4810195" lon="11.3056373"><ele>577.0</ele><time>2026-04-12T08:45:05.161Z</time></trkpt><trkpt lat="43.4810569" lon="11.3057194"><ele>577.8333333333334</ele><time>2026-04-12T08:45:06.159Z</time></trkpt><trkpt lat="43.4810742" lon="11.3058034"><ele>578.6666666666667</ele><time>2026-04-12T08:45:07.158Z</time></trkpt><trkpt lat="43.481074" lon="11.3059421"><ele>579.5</ele><time>2026-04-12T08:45:09.161Z</time></trkpt><trkpt lat="43.4810451" lon="11.3060895"><ele>580.3333333333334</ele><time>2026-04-12T08:45:11.16Z</time></trkpt><trkpt lat="43.4810316" lon="11.3061902"><ele>581.1666666666666</ele><time>2026-04-12T08:45:12.16Z</time></trkpt><trkpt lat="43.4810125" lon="11.3063095"><ele>582.0</ele><time>2026-04-12T08:45:13.159Z</time></trkpt><trkpt lat="43.4810032" lon="11.3064542"><ele>583.25</ele><time>2026-04-12T08:45:14.16Z</time></trkpt><trkpt lat="43.4810045" lon="11.3066086"><ele>584.5</ele><time>2026-04-12T08:45:15.159Z</time></trkpt><trkpt lat="43.4810098" lon="11.3067861"><ele>585.75</ele><time>2026-04-12T08:45:16.159Z</time></trkpt><trkpt lat="43.4810228" lon="11.3069806"><ele>587.0</ele><time>2026-04-12T08:45:17.159Z</time></trkpt><trkpt lat="43.4810414" lon="11.3071726"><ele>588.75</ele><time>2026-04-12T08:45:18.159Z</time></trkpt><trkpt lat="43.481071" lon="11.3073752"><ele>590.5</ele><time>2026-04-12T08:45:19.16Z</time></trkpt><trkpt lat="43.4811046" lon="11.3075748"><ele>592.25</ele><time>2026-04-12T08:45:20.159Z</time></trkpt><trkpt lat="43.481133" lon="11.3077607"><ele>594.0</ele><time>2026-04-12T08:45:21.16Z</time></trkpt><trkpt lat="43.4811751" lon="11.3079214"><ele>596.0</ele><time>2026-04-12T08:45:22.158Z</time></trkpt><trkpt lat="43.481234" lon="11.308094"><ele>598.0</ele><time>2026-04-12T08:45:23.158Z</time></trkpt><trkpt lat="43.4813048" lon="11.3082838"><ele>600.0</ele><time>2026-04-12T08:45:24.159Z</time></trkpt><trkpt lat="43.4813835" lon="11.3084925"><ele>600.6666666666666</ele><time>2026-04-12T08:45:25.16Z</time></trkpt><trkpt lat="43.4814539" lon="11.3087105"><ele>601.3333333333333</ele><time>2026-04-12T08:45:26.16Z</time></trkpt><trkpt lat="43.4815112" lon="11.3089378"><ele>602.0</ele><time>2026-04-12T08:45:27.159Z</time></trkpt><trkpt lat="43.4815324" lon="11.3091818"><ele>602.6666666666666</ele><time>2026-04-12T08:45:28.159Z</time></trkpt><trkpt lat="43.4815204" lon="11.3094414"><ele>603.3333333333334</ele><time>2026-04-12T08:45:29.16Z</time></trkpt><trkpt lat="43.4814991" lon="11.3096935"><ele>604.0</ele><time>2026-04-12T08:45:30.161Z</time></trkpt><trkpt lat="43.4814728" lon="11.3099128"><ele>604.5</ele><time>2026-04-12T08:45:31.16Z</time></trkpt><trkpt lat="43.481428" lon="11.310102"><ele>605.0</ele><time>2026-04-12T08:45:32.158Z</time></trkpt><trkpt lat="43.4813512" lon="11.3102718"><ele>605.5</ele><time>2026-04-12T08:45:33.158Z</time></trkpt><trkpt lat="43.4812489" lon="11.3104142"><ele>606.0</ele><time>2026-04-12T08:45:34.158Z</time></trkpt><trkpt lat="43.4811638" lon="11.3105349"><ele>606.0</ele><time>2026-04-12T08:45:35.16Z</time></trkpt><trkpt lat="43.4811091" lon="11.3106784"><ele>606.0</ele><time>2026-04-12T08:45:36.159Z</time></trkpt><trkpt lat="43.4810837" lon="11.3108314"><ele>606.0</ele><time>2026-04-12T08:45:37.158Z</time></trkpt><trkpt lat="43.4810972" lon="11.3109881"><ele>606.0</ele><time>2026-04-12T08:45:38.159Z</time></trkpt><trkpt lat="43.4811595" lon="11.3111454"><ele>606.0</ele><time>2026-04-12T08:45:39.158Z</time></trkpt><trkpt lat="43.4812677" lon="11.3112972"><ele>606.0</ele><time>2026-04-12T08:45:40.159Z</time></trkpt><trkpt lat="43.4813852" lon="11.3114533"><ele>606.0</ele><time>2026-04-12T08:45:41.159Z</time></trkpt><trkpt lat="43.4810451" lon="11.3060895"><ele>602.2</ele><time>2026-04-12T08:45:11.16Z</time></trkpt><trkpt lat="43.4810316" lon="11.3061902"><ele>598.4000000000001</ele><time>2026-04-12T08:45:12.16Z</time></trkpt><trkpt lat="43.4810125" lon="11.3063095"><ele>594.6</ele><time>2026-04-12T08:45:13.159Z</time></trkpt><trkpt lat="43.4810032" lon="11.3064542"><ele>590.8000000000001</ele><time>2026-04-12T08:45:14.16Z</time></trkpt><trkpt lat="43.4810045" lon="11.3066086"><ele>587.0</ele><time>2026-04-12T08:45:15.159Z</time></trkpt><trkpt lat="43.4810098" lon="11.3067861"><ele>587.0</ele><time>2026-04-12T08:45:16.159Z</time></trkpt><trkpt lat="43.4810228" lon="11.3069806"><ele>587.0</ele><time>2026-04-12T08:45:17.159Z</time></trkpt><trkpt lat="43.4810414" lon="11.3071726"><ele>587.0</ele><time>2026-04-12T08:45:18.159Z</time></trkpt><trkpt lat="43.481071" lon="11.3073752"><ele>587.0</ele><time>2026-04-12T08:45:19.16Z</time></trkpt><trkpt lat="43.4811046" lon="11.3075748"><ele>588.75</ele><time>2026-04-12T08:45:20.159Z</time></trkpt><trkpt lat="43.481133" lon="11.3077607"><ele>590.5</ele><time>2026-04-12T08:45:21.16Z</time></trkpt><trkpt lat="43.4811751" lon="11.3079214"><ele>592.25</ele><time>2026-04-12T08:45:22.158Z</time></trkpt><trkpt lat="43.481234" lon="11.308094"><ele>594.0</ele><time>2026-04-12T08:45:23.158Z</time></trkpt><trkpt lat="43.4813048" lon="11.3082838"><ele>596.6666666666666</ele><time>2026-04-12T08:45:24.159Z</time></trkpt><trkpt lat="43.4813835" lon="11.3084925"><ele>599.3333333333333</ele><time>2026-04-12T08:45:25.16Z</time></trkpt><trkpt lat="43.4814539" lon="11.3087105"><ele>602.0</ele><time>2026-04-12T08:45:26.16Z</time></trkpt><trkpt lat="43.4815112" lon="11.3089378"><ele>602.6666666666666</ele><time>2026-04-12T08:45:27.159Z</time></trkpt><trkpt lat="43.4815324" lon="11.3091818"><ele>603.3333333333334</ele><time>2026-04-12T08:45:28.159Z</time></trkpt><trkpt lat="43.4815204" lon="11.3094414"><ele>604.0</ele><time>2026-04-12T08:45:29.16Z</time></trkpt><trkpt lat="43.4814991" lon="11.3096935"><ele>604.6666666666667</ele><time>2026-04-12T08:45:30.161Z</time></trkpt><trkpt lat="43.4814728" lon="11.3099128"><ele>605.3333333333334</ele><time>2026-04-12T08:45:31.16Z</time></trkpt><trkpt lat="43.481428" lon="11.310102"><ele>606.0</ele><time>2026-04-12T08:45:32.158Z</time></trkpt><trkpt lat="43.4813512" lon="11.3102718"><ele>606.0</ele><time>2026-04-12T08:45:33.158Z</time></trkpt><trkpt lat="43.4812489" lon="11.3104142"><ele>606.0</ele><time>2026-04-12T08:45:34.158Z</time></trkpt><trkpt lat="43.4811638" lon="11.3105349"><ele>606.0</ele><time>2026-04-12T08:45:35.16Z</time></trkpt><trkpt lat="43.4811091" lon="11.3106784"><ele>606.0</ele><time>2026-04-12T08:45:36.159Z</time></trkpt><trkpt lat="43.4810837" lon="11.3108314"><ele>606.0</ele><time>2026-04-12T08:45:37.158Z</time></trkpt><trkpt lat="43.4810972" lon="11.3109881"><ele>606.0</ele><time>2026-04-12T08:45:38.159Z</time></trkpt><trkpt lat="43.4811595" lon="11.3111454"><ele>606.0</ele><time>2026-04-12T08:45:39.158Z</time></trkpt><trkpt lat="43.4812677" lon="11.3112972"><ele>606.0</ele><time>2026-04-12T08:45:40.159Z</time></trkpt><trkpt lat="43.4813852" lon="11.3114533"><ele>606.0</ele><time>2026-04-12T08:45:41.159Z</time></trkpt><trkpt lat="43.4814955" lon="11.3115875"><ele>606.0</ele><time>2026-04-12T08:45:42.159Z</time></trkpt><trkpt lat="43.4815997" lon="11.3117186"><ele>606.0</ele><time>2026-04-12T08:45:43.161Z</time></trkpt><trkpt lat="43.4817103" lon="11.3118462"><ele>606.0</ele><time>2026-04-12T08:45:44.159Z</time></trkpt><trkpt lat="43.4818468" lon="11.3119531"><ele>606.0</ele><time>2026-04-12T08:45:45.158Z</time></trkpt><trkpt lat="43.4820132" lon="11.3120344"><ele>606.0</ele><time>2026-04-12T08:45:46.16Z</time></trkpt><trkpt lat="43.4821956" lon="11.3120914"><ele>606.0</ele><time>2026-04-12T08:45:47.159Z</time></trkpt><trkpt lat="43.4823639" lon="11.3121445"><ele>605.3333333333334</ele><time>2026-04-12T08:45:48.16Z</time></trkpt><trkpt lat="43.4825189" lon="11.3122067"><ele>604.6666666666667</ele><time>2026-04-12T08:45:49.158Z</time></trkpt><trkpt lat="43.4826652" lon="11.3122919"><ele>604.0</ele><time>2026-04-12T08:45:50.16Z</time></trkpt><trkpt lat="43.4828028" lon="11.3124126"><ele>604.0</ele><time>2026-04-12T08:45:51.159Z</time></trkpt><trkpt lat="43.4829234" lon="11.3125616"><ele>604.0</ele><time>2026-04-12T08:45:52.16Z</time></trkpt><trkpt lat="43.4830276" lon="11.312705"><ele>604.0</ele><time>2026-04-12T08:45:53.161Z</time></trkpt><trkpt lat="43.4831366" lon="11.3128506"><ele>602.3333333333334</ele><time>2026-04-12T08:45:54.159Z</time></trkpt><trkpt lat="43.4832667" lon="11.3129932"><ele>600.6666666666666</ele><time>2026-04-12T08:45:55.159Z</time></trkpt><trkpt lat="43.4834249" lon="11.3131047"><ele>599.0</ele><time>2026-04-12T08:45:56.159Z</time></trkpt><trkpt lat="43.4836111" lon="11.3131847"><ele>601.6666666666666</ele><time>2026-04-12T08:45:57.16Z</time></trkpt><trkpt lat="43.4837988" lon="11.3132296"><ele>604.3333333333334</ele><time>2026-04-12T08:45:58.16Z</time></trkpt><trkpt lat="43.4839749" lon="11.3132563"><ele>607.0</ele><time>2026-04-12T08:45:59.16Z</time></trkpt><trkpt lat="43.4841425" lon="11.31329"><ele>607.0</ele><time>2026-04-12T08:46:00.159Z</time></trkpt><trkpt lat="43.4842965" lon="11.3133512"><ele>607.0</ele><time>2026-04-12T08:46:01.16Z</time></trkpt><trkpt lat="43.4844385" lon="11.3134607"><ele>607.0</ele><time>2026-04-12T08:46:02.16Z</time></trkpt><trkpt lat="43.4845624" lon="11.3136091"><ele>609.3333333333334</ele><time>2026-04-12T08:46:03.159Z</time></trkpt><trkpt lat="43.4846517" lon="11.3138117"><ele>611.6666666666666</ele><time>2026-04-12T08:46:04.159Z</time></trkpt><trkpt lat="43.4847096" lon="11.31404"><ele>614.0</ele><time>2026-04-12T08:46:05.159Z</time></trkpt><trkpt lat="43.4847322" lon="11.3142746"><ele>614.0</ele><time>2026-04-12T08:46:06.159Z</time></trkpt><trkpt lat="43.4847558" lon="11.3144919"><ele>614.0</ele><time>2026-04-12T08:46:07.159Z</time></trkpt><trkpt lat="43.4847938" lon="11.3147204"><ele>614.0</ele><time>2026-04-12T08:46:08.16Z</time></trkpt><trkpt lat="43.4848431" lon="11.3149275"><ele>610.6666666666666</ele><time>2026-04-12T08:46:09.16Z</time></trkpt><trkpt lat="43.4849145" lon="11.3151176"><ele>607.3333333333334</ele><time>2026-04-12T08:46:10.158Z</time></trkpt><trkpt lat="43.4850189" lon="11.3152742"><ele>604.0</ele><time>2026-04-12T08:46:11.16Z</time></trkpt><trkpt lat="43.4851445" lon="11.3153974"><ele>604.0</ele><time>2026-04-12T08:46:12.159Z</time></trkpt><trkpt lat="43.4852677" lon="11.3155009"><ele>604.0</ele><time>2026-04-12T08:46:13.16Z</time></trkpt><trkpt lat="43.4853768" lon="11.3156317"><ele>604.0</ele><time>2026-04-12T08:46:14.16Z</time></trkpt><trkpt lat="43.485453" lon="11.315799"><ele>604.0</ele><time>2026-04-12T08:46:15.159Z</time></trkpt><trkpt lat="43.4854888" lon="11.3159973"><ele>604.6666666666667</ele><time>2026-04-12T08:46:16.159Z</time></trkpt><trkpt lat="43.4854987" lon="11.3162155"><ele>605.3333333333334</ele><time>2026-04-12T08:46:17.159Z</time></trkpt><trkpt lat="43.4855226" lon="11.3164488"><ele>606.0</ele><time>2026-04-12T08:46:18.16Z</time></trkpt><trkpt lat="43.4855721" lon="11.3166654"><ele>606.0</ele><time>2026-04-12T08:46:19.159Z</time></trkpt><trkpt lat="43.4856459" lon="11.316865"><ele>606.0</ele><time>2026-04-12T08:46:20.159Z</time></trkpt><trkpt lat="43.485735" lon="11.3170469"><ele>606.0</ele><time>2026-04-12T08:46:21.159Z</time></trkpt><trkpt lat="43.4858341" lon="11.3171871"><ele>603.75</ele><time>2026-04-12T08:46:22.158Z</time></trkpt><trkpt lat="43.4859232" lon="11.3173158"><ele>601.5</ele><time>2026-04-12T08:46:23.16Z</time></trkpt><trkpt lat="43.4859883" lon="11.3174575"><ele>599.25</ele><time>2026-04-12T08:46:24.16Z</time></trkpt><trkpt lat="43.4860236" lon="11.3176164"><ele>597.0</ele><time>2026-04-12T08:46:25.16Z</time></trkpt><trkpt lat="43.485996" lon="11.3177878"><ele>597.0</ele><time>2026-04-12T08:46:26.159Z</time></trkpt><trkpt lat="43.4859283" lon="11.3179513"><ele>597.0</ele><time>2026-04-12T08:46:27.16Z</time></trkpt><trkpt lat="43.4858264" lon="11.318107"><ele>597.0</ele><time>2026-04-12T08:46:28.16Z</time></trkpt><trkpt lat="43.4857197" lon="11.3182653"><ele>597.0</ele><time>2026-04-12T08:46:29.159Z</time></trkpt><trkpt lat="43.4856111" lon="11.3184261"><ele>596.3333333333334</ele><time>2026-04-12T08:46:30.159Z</time></trkpt><trkpt lat="43.4855092" lon="11.3185821"><ele>595.6666666666667</ele><time>2026-04-12T08:46:31.159Z</time></trkpt><trkpt lat="43.4854159" lon="11.3187616"><ele>595.0</ele><time>2026-04-12T08:46:32.16Z</time></trkpt><trkpt lat="43.4853341" lon="11.3189624"><ele>598.6666666666667</ele><time>2026-04-12T08:46:33.16Z</time></trkpt><trkpt lat="43.4852732" lon="11.319181"><ele>602.3333333333334</ele><time>2026-04-12T08:46:34.159Z</time></trkpt><trkpt lat="43.485223" lon="11.3193917"><ele>606.0</ele><time>2026-04-12T08:46:35.159Z</time></trkpt><trkpt lat="43.485202" lon="11.319605"><ele>607.0</ele><time>2026-04-12T08:46:36.159Z</time></trkpt><trkpt lat="43.4852109" lon="11.3198276"><ele>608.0</ele><time>2026-04-12T08:46:37.159Z</time></trkpt><trkpt lat="43.4852246" lon="11.3200445"><ele>609.0</ele><time>2026-04-12T08:46:38.159Z</time></trkpt><trkpt lat="43.4852208" lon="11.3202633"><ele>609.0</ele><time>2026-04-12T08:46:39.159Z</time></trkpt><trkpt lat="43.4851896" lon="11.3204949"><ele>609.0</ele><time>2026-04-12T08:46:40.159Z</time></trkpt><trkpt lat="43.48514" lon="11.32072"><ele>609.0</ele><time>2026-04-12T08:46:41.16Z</time></trkpt><trkpt lat="43.4850734" lon="11.3209386"><ele>606.3333333333334</ele><time>2026-04-12T08:46:42.158Z</time></trkpt><trkpt lat="43.4849921" lon="11.3211477"><ele>603.6666666666667</ele><time>2026-04-12T08:46:43.158Z</time></trkpt><trkpt lat="43.4849119" lon="11.3213744"><ele>601.0</ele><time>2026-04-12T08:46:44.159Z</time></trkpt><trkpt lat="43.4848329" lon="11.3216053"><ele>600.3333333333334</ele><time>2026-04-12T08:46:45.159Z</time></trkpt><trkpt lat="43.4847629" lon="11.3218394"><ele>599.6666666666666</ele><time>2026-04-12T08:46:46.158Z</time></trkpt><trkpt lat="43.4846952" lon="11.3220799"><ele>599.0</ele><time>2026-04-12T08:46:47.161Z</time></trkpt><trkpt lat="43.4846352" lon="11.322343"><ele>597.3333333333333</ele><time>2026-04-12T08:46:48.159Z</time></trkpt><trkpt lat="43.4845821" lon="11.3226314"><ele>595.6666666666666</ele><time>2026-04-12T08:46:49.16Z</time></trkpt><trkpt lat="43.484541" lon="11.3229158"><ele>594.0</ele><time>2026-04-12T08:46:50.158Z</time></trkpt><trkpt lat="43.4845037" lon="11.3232032"><ele>594.0</ele><time>2026-04-12T08:46:51.16Z</time></trkpt><trkpt lat="43.4844719" lon="11.3234774"><ele>594.0</ele><time>2026-04-12T08:46:52.161Z</time></trkpt><trkpt lat="43.4844294" lon="11.3237369"><ele>594.0</ele><time>2026-04-12T08:46:53.16Z</time></trkpt><trkpt lat="43.4843774" lon="11.3239844"><ele>596.0</ele><time>2026-04-12T08:46:54.16Z</time></trkpt><trkpt lat="43.4843103" lon="11.3242163"><ele>598.0</ele><time>2026-04-12T08:46:55.159Z</time></trkpt><trkpt lat="43.4842324" lon="11.3244359"><ele>600.0</ele><time>2026-04-12T08:46:56.16Z</time></trkpt><trkpt lat="43.4841477" lon="11.3246363"><ele>601.6666666666666</ele><time>2026-04-12T08:46:57.16Z</time></trkpt><trkpt lat="43.4840427" lon="11.324819"><ele>603.3333333333333</ele><time>2026-04-12T08:46:58.159Z</time></trkpt><trkpt lat="43.4839089" lon="11.3249749"><ele>605.0</ele><time>2026-04-12T08:46:59.16Z</time></trkpt><trkpt lat="43.4837531" lon="11.3251093"><ele>606.6666666666666</ele><time>2026-04-12T08:47:00.16Z</time></trkpt><trkpt lat="43.4835883" lon="11.3252215"><ele>608.3333333333334</ele><time>2026-04-12T08:47:01.159Z</time></trkpt><trkpt lat="43.4834266" lon="11.3253269"><ele>610.0</ele><time>2026-04-12T08:47:02.159Z</time></trkpt><trkpt lat="43.4832659" lon="11.3254282"><ele>610.0</ele><time>2026-04-12T08:47:03.16Z</time></trkpt><trkpt lat="43.4831135" lon="11.3255162"><ele>610.0</ele><time>2026-04-12T08:47:04.159Z</time></trkpt><trkpt lat="43.4829528" lon="11.3255832"><ele>610.0</ele><time>2026-04-12T08:47:05.16Z</time></trkpt><trkpt lat="43.4827845" lon="11.325609"><ele>609.3333333333334</ele><time>2026-04-12T08:47:06.16Z</time></trkpt><trkpt lat="43.4826087" lon="11.3255989"><ele>608.6666666666666</ele><time>2026-04-12T08:47:07.16Z</time></trkpt><trkpt lat="43.4824279" lon="11.3255671"><ele>608.0</ele><time>2026-04-12T08:47:08.159Z</time></trkpt><trkpt lat="43.4822528" lon="11.3255238"><ele>611.0</ele><time>2026-04-12T08:47:09.16Z</time></trkpt><trkpt lat="43.4820704" lon="11.3254803"><ele>614.0</ele><time>2026-04-12T08:47:10.159Z</time></trkpt><trkpt lat="43.4818899" lon="11.3254297"><ele>617.0</ele><time>2026-04-12T08:47:11.16Z</time></trkpt><trkpt lat="43.4817109" lon="11.3253857"><ele>617.0</ele><time>2026-04-12T08:47:12.158Z</time></trkpt><trkpt lat="43.4815444" lon="11.3253457"><ele>617.0</ele><time>2026-04-12T08:47:13.16Z</time></trkpt><trkpt lat="43.4813893" lon="11.3253205"><ele>617.0</ele><time>2026-04-12T08:47:14.161Z</time></trkpt><trkpt lat="43.4812424" lon="11.3253389"><ele>617.3333333333333</ele><time>2026-04-12T08:47:15.159Z</time></trkpt><trkpt lat="43.4811045" lon="11.3254145"><ele>617.6666666666666</ele><time>2026-04-12T08:47:16.158Z</time></trkpt><trkpt lat="43.4809797" lon="11.3255522"><ele>618.0</ele><time>2026-04-12T08:47:17.16Z</time></trkpt><trkpt lat="43.480877" lon="11.3257344"><ele>617.3333333333334</ele><time>2026-04-12T08:47:18.159Z</time></trkpt><trkpt lat="43.4807772" lon="11.3259269"><ele>616.6666666666667</ele><time>2026-04-12T08:47:19.159Z</time></trkpt><trkpt lat="43.4806776" lon="11.3261042"><ele>616.0</ele><time>2026-04-12T08:47:20.16Z</time></trkpt><trkpt lat="43.4805723" lon="11.3262659"><ele>614.75</ele><time>2026-04-12T08:47:21.159Z</time></trkpt><trkpt lat="43.4804684" lon="11.3264264"><ele>613.5</ele><time>2026-04-12T08:47:22.159Z</time></trkpt><trkpt lat="43.4803672" lon="11.3265825"><ele>612.25</ele><time>2026-04-12T08:47:23.159Z</time></trkpt><trkpt lat="43.4802989" lon="11.3267468"><ele>611.0</ele><time>2026-04-12T08:47:24.16Z</time></trkpt><trkpt lat="43.4802671" lon="11.3269329"><ele>611.0</ele><time>2026-04-12T08:47:25.159Z</time></trkpt><trkpt lat="43.4802753" lon="11.3271239"><ele>611.0</ele><time>2026-04-12T08:47:26.159Z</time></trkpt><trkpt lat="43.4803016" lon="11.327316"><ele>611.0</ele><time>2026-04-12T08:47:27.159Z</time></trkpt><trkpt lat="43.4803371" lon="11.3275057"><ele>611.0</ele><time>2026-04-12T08:47:28.16Z</time></trkpt><trkpt lat="43.4803698" lon="11.3277158"><ele>610.0</ele><time>2026-04-12T08:47:29.159Z</time></trkpt><trkpt lat="43.4803895" lon="11.3279221"><ele>609.0</ele><time>2026-04-12T08:47:30.158Z</time></trkpt><trkpt lat="43.4803881" lon="11.3281335"><ele>608.0</ele><time>2026-04-12T08:47:31.159Z</time></trkpt><trkpt lat="43.4803664" lon="11.3283383"><ele>608.0</ele><time>2026-04-12T08:47:32.16Z</time></trkpt><trkpt lat="43.4803246" lon="11.3285184"><ele>608.0</ele><time>2026-04-12T08:47:33.159Z</time></trkpt><trkpt lat="43.4802549" lon="11.3286806"><ele>608.0</ele><time>2026-04-12T08:47:34.16Z</time></trkpt><trkpt lat="43.480159" lon="11.3288183"><ele>608.0</ele><time>2026-04-12T08:47:35.16Z</time></trkpt><trkpt lat="43.4800312" lon="11.3289057"><ele>608.25</ele><time>2026-04-12T08:47:36.16Z</time></trkpt><trkpt lat="43.4798949" lon="11.3289321"><ele>608.5</ele><time>2026-04-12T08:47:37.16Z</time></trkpt><trkpt lat="43.4797641" lon="11.3289483"><ele>608.75</ele><time>2026-04-12T08:47:38.16Z</time></trkpt><trkpt lat="43.4796404" lon="11.3290255"><ele>609.0</ele><time>2026-04-12T08:47:39.16Z</time></trkpt><trkpt lat="43.4795298" lon="11.3291548"><ele>609.0</ele><time>2026-04-12T08:47:40.16Z</time></trkpt><trkpt lat="43.4794416" lon="11.3293236"><ele>609.0</ele><time>2026-04-12T08:47:41.159Z</time></trkpt><trkpt lat="43.4793735" lon="11.3295018"><ele>609.0</ele><time>2026-04-12T08:47:42.16Z</time></trkpt><trkpt lat="43.4793121" lon="11.3296783"><ele>609.0</ele><time>2026-04-12T08:47:43.159Z</time></trkpt><trkpt lat="43.4792544" lon="11.3298526"><ele>612.0</ele><time>2026-04-12T08:47:44.16Z</time></trkpt><trkpt lat="43.4792003" lon="11.3300341"><ele>615.0</ele><time>2026-04-12T08:47:45.16Z</time></trkpt><trkpt lat="43.4791672" lon="11.3302399"><ele>618.0</ele><time>2026-04-12T08:47:46.159Z</time></trkpt><trkpt lat="43.4791561" lon="11.3304682"><ele>618.5</ele><time>2026-04-12T08:47:47.16Z</time></trkpt><trkpt lat="43.4791682" lon="11.3306916"><ele>619.0</ele><time>2026-04-12T08:47:48.159Z</time></trkpt><trkpt lat="43.479183" lon="11.3308951"><ele>619.5</ele><time>2026-04-12T08:47:49.159Z</time></trkpt><trkpt lat="43.4791975" lon="11.3310809"><ele>620.0</ele><time>2026-04-12T08:47:50.159Z</time></trkpt><trkpt lat="43.4791929" lon="11.3312474"><ele>618.75</ele><time>2026-04-12T08:47:51.16Z</time></trkpt><trkpt lat="43.4791568" lon="11.3314083"><ele>617.5</ele><time>2026-04-12T08:47:52.161Z</time></trkpt><trkpt lat="43.4790788" lon="11.3315436"><ele>616.25</ele><time>2026-04-12T08:47:53.161Z</time></trkpt><trkpt lat="43.4789624" lon="11.3316669"><ele>615.0</ele><time>2026-04-12T08:47:54.16Z</time></trkpt><trkpt lat="43.4788074" lon="11.3317826"><ele>616.0</ele><time>2026-04-12T08:47:55.159Z</time></trkpt><trkpt lat="43.478627" lon="11.3319027"><ele>617.0</ele><time>2026-04-12T08:47:56.16Z</time></trkpt><trkpt lat="43.4784438" lon="11.3320517"><ele>618.0</ele><time>2026-04-12T08:47:57.16Z</time></trkpt><trkpt lat="43.4782612" lon="11.3322337"><ele>615.5</ele><time>2026-04-12T08:47:58.16Z</time></trkpt><trkpt lat="43.478072" lon="11.3324284"><ele>613.0</ele><time>2026-04-12T08:47:59.159Z</time></trkpt><trkpt lat="43.4778628" lon="11.3325986"><ele>613.0</ele><time>2026-04-12T08:48:00.159Z</time></trkpt><trkpt lat="43.4776584" lon="11.332743"><ele>613.0</ele><time>2026-04-12T08:48:01.159Z</time></trkpt><trkpt lat="43.4774692" lon="11.3328554"><ele>613.0</ele><time>2026-04-12T08:48:02.159Z</time></trkpt><trkpt lat="43.4772854" lon="11.3329288"><ele>612.0</ele><time>2026-04-12T08:48:03.159Z</time></trkpt><trkpt lat="43.4770983" lon="11.332951"><ele>611.0</ele><time>2026-04-12T08:48:04.161Z</time></trkpt><trkpt lat="43.4769038" lon="11.3329166"><ele>610.0</ele><time>2026-04-12T08:48:05.16Z</time></trkpt><trkpt lat="43.4767328" lon="11.3328543"><ele>610.0</ele><time>2026-04-12T08:48:06.159Z</time></trkpt><trkpt lat="43.4765795" lon="11.3328256"><ele>610.0</ele><time>2026-04-12T08:48:07.159Z</time></trkpt><trkpt lat="43.476442" lon="11.3328545"><ele>610.0</ele><time>2026-04-12T08:48:08.159Z</time></trkpt><trkpt lat="43.4763108" lon="11.3329436"><ele>610.0</ele><time>2026-04-12T08:48:09.16Z</time></trkpt><trkpt lat="43.4761994" lon="11.3330916"><ele>608.3333333333334</ele><time>2026-04-12T08:48:10.16Z</time></trkpt><trkpt lat="43.4760975" lon="11.3332715"><ele>606.6666666666666</ele><time>2026-04-12T08:48:11.16Z</time></trkpt><trkpt lat="43.4759823" lon="11.3334331"><ele>605.0</ele><time>2026-04-12T08:48:12.16Z</time></trkpt><trkpt lat="43.4758423" lon="11.3335686"><ele>605.0</ele><time>2026-04-12T08:48:13.159Z</time></trkpt><trkpt lat="43.4756802" lon="11.3336424"><ele>605.0</ele><time>2026-04-12T08:48:14.161Z</time></trkpt><trkpt lat="43.4754905" lon="11.3336633"><ele>605.0</ele><time>2026-04-12T08:48:15.16Z</time></trkpt><trkpt lat="43.4752908" lon="11.3336575"><ele>604.0</ele><time>2026-04-12T08:48:16.161Z</time></trkpt><trkpt lat="43.4750763" lon="11.3336403"><ele>603.0</ele><time>2026-04-12T08:48:17.16Z</time></trkpt><trkpt lat="43.4748492" lon="11.3336177"><ele>602.0</ele><time>2026-04-12T08:48:18.16Z</time></trkpt><trkpt lat="43.474638" lon="11.3335933"><ele>601.5</ele><time>2026-04-12T08:48:19.159Z</time></trkpt><trkpt lat="43.4744642" lon="11.3335761"><ele>601.0</ele><time>2026-04-12T08:48:20.16Z</time></trkpt><trkpt lat="43.474323" lon="11.3335571"><ele>600.5</ele><time>2026-04-12T08:48:21.16Z</time></trkpt><trkpt lat="43.4742009" lon="11.3335885"><ele>600.0</ele><time>2026-04-12T08:48:22.159Z</time></trkpt><trkpt lat="43.4741129" lon="11.3336663"><ele>600.0</ele><time>2026-04-12T08:48:23.161Z</time></trkpt><trkpt lat="43.4740629" lon="11.3338006"><ele>600.0</ele><time>2026-04-12T08:48:24.161Z</time></trkpt><trkpt lat="43.4740542" lon="11.3339534"><ele>600.0</ele><time>2026-04-12T08:48:25.16Z</time></trkpt><trkpt lat="43.4740679" lon="11.3341182"><ele>600.0</ele><time>2026-04-12T08:48:26.159Z</time></trkpt><trkpt lat="43.4741533" lon="11.3343264"><ele>600.6666666666666</ele><time>2026-04-12T08:48:27.16Z</time></trkpt><trkpt lat="43.4742364" lon="11.3345482"><ele>601.3333333333333</ele><time>2026-04-12T08:48:28.159Z</time></trkpt><trkpt lat="43.474336" lon="11.3347829"><ele>602.0</ele><time>2026-04-12T08:48:29.159Z</time></trkpt><trkpt lat="43.4744456" lon="11.3350281"><ele>602.0</ele><time>2026-04-12T08:48:30.16Z</time></trkpt><trkpt lat="43.4745621" lon="11.3352923"><ele>602.0</ele><time>2026-04-12T08:48:31.159Z</time></trkpt><trkpt lat="43.4746842" lon="11.3355702"><ele>596.5</ele><time>2026-04-12T08:48:32.158Z</time></trkpt><trkpt lat="43.4748177" lon="11.3358526"><ele>591.0</ele><time>2026-04-12T08:48:33.16Z</time></trkpt><trkpt lat="43.4749628" lon="11.3361249"><ele>595.5</ele><time>2026-04-12T08:48:34.16Z</time></trkpt><trkpt lat="43.4751246" lon="11.3364011"><ele>600.0</ele><time>2026-04-12T08:48:35.159Z</time></trkpt><trkpt lat="43.4752929" lon="11.3366656"><ele>594.5</ele><time>2026-04-12T08:48:36.16Z</time></trkpt><trkpt lat="43.4754645" lon="11.3369264"><ele>589.0</ele><time>2026-04-12T08:48:37.16Z</time></trkpt><trkpt lat="43.4756188" lon="11.3371661"><ele>592.0</ele><time>2026-04-12T08:48:38.16Z</time></trkpt><trkpt lat="43.4757519" lon="11.3373836"><ele>595.0</ele><time>2026-04-12T08:48:39.16Z</time></trkpt><trkpt lat="43.4758454" lon="11.3376093"><ele>598.0</ele><time>2026-04-12T08:48:40.16Z</time></trkpt><trkpt lat="43.4759246" lon="11.3378566"><ele>597.0</ele><time>2026-04-12T08:48:41.159Z</time></trkpt><trkpt lat="43.4759863" lon="11.338113"><ele>596.0</ele><time>2026-04-12T08:48:42.16Z</time></trkpt><trkpt lat="43.4760108" lon="11.3383863"><ele>595.0</ele><time>2026-04-12T08:48:43.16Z</time></trkpt><trkpt lat="43.4759929" lon="11.3386779"><ele>593.3333333333334</ele><time>2026-04-12T08:48:44.158Z</time></trkpt><trkpt lat="43.4759365" lon="11.3389778"><ele>591.6666666666666</ele><time>2026-04-12T08:48:45.158Z</time></trkpt><trkpt lat="43.475872" lon="11.3392737"><ele>590.0</ele><time>2026-04-12T08:48:46.16Z</time></trkpt><trkpt lat="43.4758138" lon="11.339554"><ele>590.0</ele><time>2026-04-12T08:48:47.159Z</time></trkpt><trkpt lat="43.4757712" lon="11.3398235"><ele>590.0</ele><time>2026-04-12T08:48:48.16Z</time></trkpt><trkpt lat="43.4757621" lon="11.3401146"><ele>590.0</ele><time>2026-04-12T08:48:49.16Z</time></trkpt><trkpt lat="43.4757809" lon="11.3404052"><ele>589.0</ele><time>2026-04-12T08:48:50.16Z</time></trkpt><trkpt lat="43.4757785" lon="11.3406969"><ele>588.0</ele><time>2026-04-12T08:48:51.16Z</time></trkpt><trkpt lat="43.4757508" lon="11.3410079"><ele>587.0</ele><time>2026-04-12T08:48:52.159Z</time></trkpt><trkpt lat="43.4757006" lon="11.3413276"><ele>586.0</ele><time>2026-04-12T08:48:53.161Z</time></trkpt><trkpt lat="43.4756481" lon="11.3416612"><ele>585.0</ele><time>2026-04-12T08:48:54.161Z</time></trkpt><trkpt lat="43.4755985" lon="11.3419707"><ele>584.3333333333334</ele><time>2026-04-12T08:48:55.159Z</time></trkpt><trkpt lat="43.4755582" lon="11.3422497"><ele>583.6666666666667</ele><time>2026-04-12T08:48:56.16Z</time></trkpt><trkpt lat="43.4755234" lon="11.3424852"><ele>583.0</ele><time>2026-04-12T08:48:57.159Z</time></trkpt><trkpt lat="43.4755023" lon="11.3426751"><ele>583.0</ele><time>2026-04-12T08:48:58.159Z</time></trkpt><trkpt lat="43.4755001" lon="11.3428265"><ele>583.0</ele><time>2026-04-12T08:48:59.16Z</time></trkpt><trkpt lat="43.4755186" lon="11.3429536"><ele>583.0</ele><time>2026-04-12T08:49:00.161Z</time></trkpt><trkpt lat="43.4755403" lon="11.3430545"><ele>583.0</ele><time>2026-04-12T08:49:01.159Z</time></trkpt><trkpt lat="43.4755643" lon="11.3431351"><ele>583.0</ele><time>2026-04-12T08:49:02.159Z</time></trkpt><trkpt lat="43.4756122" lon="11.3432759"><ele>582.0</ele><time>2026-04-12T08:49:04.159Z</time></trkpt><trkpt lat="43.4756585" lon="11.3434171"><ele>581.0</ele><time>2026-04-12T08:49:06.161Z</time></trkpt><trkpt lat="43.4756976" lon="11.3435428"><ele>580.0</ele><time>2026-04-12T08:49:08.159Z</time></trkpt><trkpt lat="43.4757373" lon="11.3436729"><ele>579.0</ele><time>2026-04-12T08:49:10.159Z</time></trkpt><trkpt lat="43.4757539" lon="11.3437599"><ele>578.0</ele><time>2026-04-12T08:49:11.16Z</time></trkpt><trkpt lat="43.4757781" lon="11.343854"><ele>577.8</ele><time>2026-04-12T08:49:12.159Z</time></trkpt><trkpt lat="43.4757947" lon="11.3439656"><ele>577.5999999999999</ele><time>2026-04-12T08:49:13.16Z</time></trkpt><trkpt lat="43.4758022" lon="11.3440842"><ele>577.4000000000001</ele><time>2026-04-12T08:49:14.161Z</time></trkpt><trkpt lat="43.4758072" lon="11.3442241"><ele>577.2</ele><time>2026-04-12T08:49:15.16Z</time></trkpt><trkpt lat="43.4758045" lon="11.3443884"><ele>577.0</ele><time>2026-04-12T08:49:16.16Z</time></trkpt><trkpt lat="43.4757904" lon="11.3445813"><ele>576.0</ele><time>2026-04-12T08:49:17.159Z</time></trkpt><trkpt lat="43.4757484" lon="11.3447929"><ele>575.0</ele><time>2026-04-12T08:49:18.161Z</time></trkpt><trkpt lat="43.4756855" lon="11.3450069"><ele>574.0</ele><time>2026-04-12T08:49:19.16Z</time></trkpt><trkpt lat="43.4756101" lon="11.3452459"><ele>574.0</ele><time>2026-04-12T08:49:20.161Z</time></trkpt><trkpt lat="43.4755362" lon="11.3455064"><ele>574.0</ele><time>2026-04-12T08:49:21.16Z</time></trkpt><trkpt lat="43.4754619" lon="11.345759"><ele>574.0</ele><time>2026-04-12T08:49:22.16Z</time></trkpt><trkpt lat="43.4753878" lon="11.3459824"><ele>576.5</ele><time>2026-04-12T08:49:23.16Z</time></trkpt><trkpt lat="43.4753311" lon="11.3461734"><ele>579.0</ele><time>2026-04-12T08:49:24.16Z</time></trkpt><trkpt lat="43.4752837" lon="11.3463335"><ele>581.5</ele><time>2026-04-12T08:49:25.159Z</time></trkpt><trkpt lat="43.4752778" lon="11.3464854"><ele>584.0</ele><time>2026-04-12T08:49:26.162Z</time></trkpt><trkpt lat="43.4753091" lon="11.3466197"><ele>584.25</ele><time>2026-04-12T08:49:27.16Z</time></trkpt><trkpt lat="43.475391" lon="11.3467285"><ele>584.5</ele><time>2026-04-12T08:49:28.16Z</time></trkpt><trkpt lat="43.4754996" lon="11.3467781"><ele>584.75</ele><time>2026-04-12T08:49:29.16Z</time></trkpt><trkpt lat="43.475634" lon="11.3467702"><ele>585.0</ele><time>2026-04-12T08:49:30.16Z</time></trkpt><trkpt lat="43.4757878" lon="11.3467271"><ele>580.0</ele><time>2026-04-12T08:49:31.16Z</time></trkpt><trkpt lat="43.4759589" lon="11.346676"><ele>575.0</ele><time>2026-04-12T08:49:32.16Z</time></trkpt><trkpt lat="43.4761377" lon="11.3466556"><ele>570.0</ele><time>2026-04-12T08:49:33.16Z</time></trkpt><trkpt lat="43.4763049" lon="11.346673"><ele>567.0</ele><time>2026-04-12T08:49:34.16Z</time></trkpt><trkpt lat="43.4764539" lon="11.3467374"><ele>564.0</ele><time>2026-04-12T08:49:35.159Z</time></trkpt><trkpt lat="43.4765793" lon="11.3468488"><ele>561.0</ele><time>2026-04-12T08:49:36.16Z</time></trkpt><trkpt lat="43.4766761" lon="11.3470212"><ele>564.6666666666666</ele><time>2026-04-12T08:49:37.159Z</time></trkpt><trkpt lat="43.4767512" lon="11.3472419"><ele>568.3333333333333</ele><time>2026-04-12T08:49:38.161Z</time></trkpt><trkpt lat="43.4768084" lon="11.3474944"><ele>572.0</ele><time>2026-04-12T08:49:39.16Z</time></trkpt><trkpt lat="43.4768579" lon="11.3477727"><ele>574.0</ele><time>2026-04-12T08:49:40.161Z</time></trkpt><trkpt lat="43.4769019" lon="11.3480675"><ele>576.0</ele><time>2026-04-12T08:49:41.16Z</time></trkpt><trkpt lat="43.4769338" lon="11.3483434"><ele>578.0</ele><time>2026-04-12T08:49:42.16Z</time></trkpt><trkpt lat="43.47698" lon="11.3486002"><ele>578.0</ele><time>2026-04-12T08:49:43.159Z</time></trkpt><trkpt lat="43.4770544" lon="11.3488249"><ele>578.0</ele><time>2026-04-12T08:49:44.159Z</time></trkpt><trkpt lat="43.4771726" lon="11.3490213"><ele>578.0</ele><time>2026-04-12T08:49:45.16Z</time></trkpt><trkpt lat="43.4773085" lon="11.3491759"><ele>575.0</ele><time>2026-04-12T08:49:46.16Z</time></trkpt><trkpt lat="43.4774234" lon="11.3493509"><ele>572.0</ele><time>2026-04-12T08:49:47.16Z</time></trkpt><trkpt lat="43.477506" lon="11.3495507"><ele>569.0</ele><time>2026-04-12T08:49:48.161Z</time></trkpt><trkpt lat="43.4775419" lon="11.3497635"><ele>569.0</ele><time>2026-04-12T08:49:49.159Z</time></trkpt><trkpt lat="43.4775343" lon="11.3500075"><ele>569.0</ele><time>2026-04-12T08:49:50.159Z</time></trkpt><trkpt lat="43.4775034" lon="11.350263"><ele>569.0</ele><time>2026-04-12T08:49:51.16Z</time></trkpt><trkpt lat="43.4774935" lon="11.3505441"><ele>570.0</ele><time>2026-04-12T08:49:52.159Z</time></trkpt><trkpt lat="43.4775115" lon="11.3508361"><ele>571.0</ele><time>2026-04-12T08:49:53.159Z</time></trkpt><trkpt lat="43.4775584" lon="11.3511054"><ele>572.0</ele><time>2026-04-12T08:49:54.159Z</time></trkpt><trkpt lat="43.477651" lon="11.3513546"><ele>574.3333333333333</ele><time>2026-04-12T08:49:55.16Z</time></trkpt><trkpt lat="43.4777561" lon="11.3515656"><ele>576.6666666666666</ele><time>2026-04-12T08:49:56.16Z</time></trkpt><trkpt lat="43.4778351" lon="11.3517835"><ele>579.0</ele><time>2026-04-12T08:49:57.161Z</time></trkpt><trkpt lat="43.4778717" lon="11.3520181"><ele>580.6666666666666</ele><time>2026-04-12T08:49:58.16Z</time></trkpt><trkpt lat="43.4778671" lon="11.3522803"><ele>582.3333333333333</ele><time>2026-04-12T08:49:59.16Z</time></trkpt><trkpt lat="43.4778638" lon="11.3525356"><ele>584.0</ele><time>2026-04-12T08:50:00.159Z</time></trkpt><trkpt lat="43.4779028" lon="11.3527761"><ele>575.6666666666666</ele><time>2026-04-12T08:50:01.16Z</time></trkpt><trkpt lat="43.477992" lon="11.3530063"><ele>567.3333333333334</ele><time>2026-04-12T08:50:02.16Z</time></trkpt><trkpt lat="43.4781078" lon="11.3532373"><ele>559.0</ele><time>2026-04-12T08:50:03.161Z</time></trkpt><trkpt lat="43.4782214" lon="11.3534897"><ele>559.0</ele><time>2026-04-12T08:50:04.16Z</time></trkpt><trkpt lat="43.4783408" lon="11.3537698"><ele>559.0</ele><time>2026-04-12T08:50:05.16Z</time></trkpt><trkpt lat="43.4784536" lon="11.3540723"><ele>560.0</ele><time>2026-04-12T08:50:06.16Z</time></trkpt><trkpt lat="43.4785451" lon="11.3544019"><ele>561.0</ele><time>2026-04-12T08:50:07.16Z</time></trkpt><trkpt lat="43.478623" lon="11.3547549"><ele>561.0</ele><time>2026-04-12T08:50:08.161Z</time></trkpt><trkpt lat="43.4786895" lon="11.3551212"><ele>561.0</ele><time>2026-04-12T08:50:09.161Z</time></trkpt><trkpt lat="43.4787553" lon="11.3554901"><ele>560.5</ele><time>2026-04-12T08:50:10.16Z</time></trkpt><trkpt lat="43.4788218" lon="11.3558703"><ele>560.0</ele><time>2026-04-12T08:50:11.16Z</time></trkpt><trkpt lat="43.4788836" lon="11.3562283"><ele>560.6666666666666</ele><time>2026-04-12T08:50:12.16Z</time></trkpt><trkpt lat="43.4789434" lon="11.3565507"><ele>561.3333333333334</ele><time>2026-04-12T08:50:13.159Z</time></trkpt><trkpt lat="43.478989" lon="11.3568209"><ele>562.0</ele><time>2026-04-12T08:50:14.16Z</time></trkpt><trkpt lat="43.4790079" lon="11.3570628"><ele>564.0</ele><time>2026-04-12T08:50:15.159Z</time></trkpt><trkpt lat="43.4789777" lon="11.357286"><ele>566.0</ele><time>2026-04-12T08:50:16.159Z</time></trkpt><trkpt lat="43.4789022" lon="11.3574976"><ele>568.0</ele><time>2026-04-12T08:50:17.159Z</time></trkpt><trkpt lat="43.4787781" lon="11.3576976"><ele>562.6666666666667</ele><time>2026-04-12T08:50:18.159Z</time></trkpt><trkpt lat="43.4786608" lon="11.3579015"><ele>557.3333333333334</ele><time>2026-04-12T08:50:19.16Z</time></trkpt><trkpt lat="43.4785695" lon="11.358107"><ele>552.0</ele><time>2026-04-12T08:50:20.163Z</time></trkpt><trkpt lat="43.4785192" lon="11.3583062"><ele>552.0</ele><time>2026-04-12T08:50:21.161Z</time></trkpt><trkpt lat="43.4785166" lon="11.3585046"><ele>552.0</ele><time>2026-04-12T08:50:22.159Z</time></trkpt><trkpt lat="43.4785484" lon="11.3586965"><ele>552.0</ele><time>2026-04-12T08:50:23.16Z</time></trkpt><trkpt lat="43.4786006" lon="11.3588651"><ele>552.0</ele><time>2026-04-12T08:50:24.16Z</time></trkpt><trkpt lat="43.4786577" lon="11.3590354"><ele>550.75</ele><time>2026-04-12T08:50:25.16Z</time></trkpt><trkpt lat="43.4787149" lon="11.3592014"><ele>549.5</ele><time>2026-04-12T08:50:26.16Z</time></trkpt><trkpt lat="43.4787692" lon="11.3593717"><ele>548.25</ele><time>2026-04-12T08:50:27.16Z</time></trkpt><trkpt lat="43.4788273" lon="11.3595383"><ele>547.0</ele><time>2026-04-12T08:50:28.161Z</time></trkpt><trkpt lat="43.4788849" lon="11.3597092"><ele>550.75</ele><time>2026-04-12T08:50:29.16Z</time></trkpt><trkpt lat="43.4789374" lon="11.359887"><ele>554.5</ele><time>2026-04-12T08:50:30.16Z</time></trkpt><trkpt lat="43.4789853" lon="11.3600619"><ele>558.25</ele><time>2026-04-12T08:50:31.159Z</time></trkpt><trkpt lat="43.4790307" lon="11.3602263"><ele>562.0</ele><time>2026-04-12T08:50:32.16Z</time></trkpt><trkpt lat="43.4790741" lon="11.3603948"><ele>560.75</ele><time>2026-04-12T08:50:33.16Z</time></trkpt><trkpt lat="43.479119" lon="11.3605605"><ele>559.5</ele><time>2026-04-12T08:50:34.159Z</time></trkpt><trkpt lat="43.4791638" lon="11.3607273"><ele>558.25</ele><time>2026-04-12T08:50:35.16Z</time></trkpt><trkpt lat="43.4792025" lon="11.3609023"><ele>557.0</ele><time>2026-04-12T08:50:36.16Z</time></trkpt><trkpt lat="43.4792316" lon="11.3610753"><ele>557.0</ele><time>2026-04-12T08:50:37.16Z</time></trkpt><trkpt lat="43.4792441" lon="11.3612552"><ele>557.0</ele><time>2026-04-12T08:50:38.16Z</time></trkpt><trkpt lat="43.479251" lon="11.3614356"><ele>557.0</ele><time>2026-04-12T08:50:39.159Z</time></trkpt><trkpt lat="43.4792651" lon="11.3616078"><ele>557.0</ele><time>2026-04-12T08:50:40.161Z</time></trkpt><trkpt lat="43.4792912" lon="11.3617669"><ele>556.6</ele><time>2026-04-12T08:50:41.161Z</time></trkpt><trkpt lat="43.4793287" lon="11.3619125"><ele>556.2</ele><time>2026-04-12T08:50:42.16Z</time></trkpt><trkpt lat="43.479372" lon="11.3620537"><ele>555.8</ele><time>2026-04-12T08:50:43.159Z</time></trkpt><trkpt lat="43.4794045" lon="11.362205"><ele>555.4</ele><time>2026-04-12T08:50:44.159Z</time></trkpt><trkpt lat="43.4794177" lon="11.3623454"><ele>555.0</ele><time>2026-04-12T08:50:45.16Z</time></trkpt><trkpt lat="43.4794007" lon="11.3624838"><ele>554.4</ele><time>2026-04-12T08:50:46.16Z</time></trkpt><trkpt lat="43.4793667" lon="11.3626136"><ele>553.8</ele><time>2026-04-12T08:50:47.16Z</time></trkpt><trkpt lat="43.4793181" lon="11.3627354"><ele>553.2</ele><time>2026-04-12T08:50:48.16Z</time></trkpt><trkpt lat="43.4792511" lon="11.3628397"><ele>552.6</ele><time>2026-04-12T08:50:49.159Z</time></trkpt><trkpt lat="43.4791694" lon="11.3629309"><ele>552.0</ele><time>2026-04-12T08:50:50.159Z</time></trkpt><trkpt lat="43.4790818" lon="11.3629982"><ele>551.2</ele><time>2026-04-12T08:50:51.16Z</time></trkpt><trkpt lat="43.4789821" lon="11.363042"><ele>550.4000000000001</ele><time>2026-04-12T08:50:52.161Z</time></trkpt><trkpt lat="43.4788793" lon="11.3630871"><ele>549.5999999999999</ele><time>2026-04-12T08:50:53.159Z</time></trkpt><trkpt lat="43.4787767" lon="11.3631438"><ele>548.8</ele><time>2026-04-12T08:50:54.162Z</time></trkpt><trkpt lat="43.478679" lon="11.3632294"><ele>548.0</ele><time>2026-04-12T08:50:55.16Z</time></trkpt><trkpt lat="43.478593" lon="11.3633227"><ele>548.0</ele><time>2026-04-12T08:50:56.16Z</time></trkpt><trkpt lat="43.4785161" lon="11.3634158"><ele>548.0</ele><time>2026-04-12T08:50:57.16Z</time></trkpt><trkpt lat="43.4784329" lon="11.3635018"><ele>548.0</ele><time>2026-04-12T08:50:58.161Z</time></trkpt><trkpt lat="43.4783443" lon="11.3635846"><ele>548.0</ele><time>2026-04-12T08:50:59.161Z</time></trkpt><trkpt lat="43.478257" lon="11.3636602"><ele>548.0</ele><time>2026-04-12T08:51:00.159Z</time></trkpt><trkpt lat="43.4781661" lon="11.3637342"><ele>548.0</ele><time>2026-04-12T08:51:01.162Z</time></trkpt><trkpt lat="43.478069" lon="11.3637984"><ele>548.0</ele><time>2026-04-12T08:51:02.16Z</time></trkpt><trkpt lat="43.4779714" lon="11.3638629"><ele>548.0</ele><time>2026-04-12T08:51:03.16Z</time></trkpt><trkpt lat="43.4778715" lon="11.3639232"><ele>548.0</ele><time>2026-04-12T08:51:04.16Z</time></trkpt><trkpt lat="43.4777674" lon="11.3639858"><ele>548.0</ele><time>2026-04-12T08:51:05.16Z</time></trkpt><trkpt lat="43.4776585" lon="11.3640549"><ele>548.25</ele><time>2026-04-12T08:51:06.16Z</time></trkpt><trkpt lat="43.4775467" lon="11.3641236"><ele>548.5</ele><time>2026-04-12T08:51:07.161Z</time></trkpt><trkpt lat="43.4774392" lon="11.3641988"><ele>548.75</ele><time>2026-04-12T08:51:08.16Z</time></trkpt><trkpt lat="43.4773377" lon="11.3642844"><ele>549.0</ele><time>2026-04-12T08:51:09.16Z</time></trkpt><trkpt lat="43.4772412" lon="11.3643841"><ele>549.0</ele><time>2026-04-12T08:51:10.16Z</time></trkpt><trkpt lat="43.4771554" lon="11.3645005"><ele>549.0</ele><time>2026-04-12T08:51:11.159Z</time></trkpt><trkpt lat="43.4770757" lon="11.3646279"><ele>549.0</ele><time>2026-04-12T08:51:12.16Z</time></trkpt><trkpt lat="43.4769964" lon="11.3647455"><ele>549.0</ele><time>2026-04-12T08:51:13.16Z</time></trkpt><trkpt lat="43.4769189" lon="11.3648717"><ele>547.25</ele><time>2026-04-12T08:51:14.161Z</time></trkpt><trkpt lat="43.4768553" lon="11.3650038"><ele>545.5</ele><time>2026-04-12T08:51:15.159Z</time></trkpt><trkpt lat="43.4767981" lon="11.3651363"><ele>543.75</ele><time>2026-04-12T08:51:16.16Z</time></trkpt><trkpt lat="43.4767457" lon="11.3652778"><ele>542.0</ele><time>2026-04-12T08:51:17.161Z</time></trkpt><trkpt lat="43.4766944" lon="11.3654236"><ele>543.25</ele><time>2026-04-12T08:51:18.16Z</time></trkpt><trkpt lat="43.476642" lon="11.3655655"><ele>544.5</ele><time>2026-04-12T08:51:19.16Z</time></trkpt><trkpt lat="43.4765952" lon="11.3657205"><ele>545.75</ele><time>2026-04-12T08:51:20.16Z</time></trkpt><trkpt lat="43.4765655" lon="11.3658766"><ele>547.0</ele><time>2026-04-12T08:51:21.16Z</time></trkpt><trkpt lat="43.4765609" lon="11.3660282"><ele>547.0</ele><time>2026-04-12T08:51:22.162Z</time></trkpt><trkpt lat="43.4765943" lon="11.366175"><ele>547.0</ele><time>2026-04-12T08:51:23.16Z</time></trkpt><trkpt lat="43.4766575" lon="11.3662868"><ele>547.0</ele><time>2026-04-12T08:51:24.161Z</time></trkpt><trkpt lat="43.4767499" lon="11.3663581"><ele>547.0</ele><time>2026-04-12T08:51:25.16Z</time></trkpt><trkpt lat="43.4768629" lon="11.366384"><ele>547.0</ele><time>2026-04-12T08:51:26.16Z</time></trkpt><trkpt lat="43.4769954" lon="11.3663665"><ele>549.3333333333334</ele><time>2026-04-12T08:51:27.16Z</time></trkpt><trkpt lat="43.4771468" lon="11.3663362"><ele>551.6666666666666</ele><time>2026-04-12T08:51:28.16Z</time></trkpt><trkpt lat="43.4773005" lon="11.366322"><ele>554.0</ele><time>2026-04-12T08:51:29.159Z</time></trkpt><trkpt lat="43.4774601" lon="11.3663359"><ele>552.3333333333333</ele><time>2026-04-12T08:51:30.163Z</time></trkpt><trkpt lat="43.4776171" lon="11.3663724"><ele>550.6666666666666</ele><time>2026-04-12T08:51:31.16Z</time></trkpt><trkpt lat="43.4777776" lon="11.3663779"><ele>549.0</ele><time>2026-04-12T08:51:32.159Z</time></trkpt><trkpt lat="43.4779426" lon="11.3663418"><ele>549.0</ele><time>2026-04-12T08:51:33.16Z</time></trkpt><trkpt lat="43.4781177" lon="11.3662604"><ele>549.0</ele><time>2026-04-12T08:51:34.159Z</time></trkpt><trkpt lat="43.4782983" lon="11.3662069"><ele>549.0</ele><time>2026-04-12T08:51:35.16Z</time></trkpt><trkpt lat="43.4784819" lon="11.3661688"><ele>549.0</ele><time>2026-04-12T08:51:36.159Z</time></trkpt><trkpt lat="43.4786624" lon="11.3661312"><ele>549.0</ele><time>2026-04-12T08:51:37.16Z</time></trkpt><trkpt lat="43.4788473" lon="11.366089"><ele>549.0</ele><time>2026-04-12T08:51:38.162Z</time></trkpt><trkpt lat="43.4790305" lon="11.3660494"><ele>545.6666666666666</ele><time>2026-04-12T08:51:39.16Z</time></trkpt><trkpt lat="43.4792168" lon="11.3660112"><ele>542.3333333333333</ele><time>2026-04-12T08:51:40.161Z</time></trkpt><trkpt lat="43.4793968" lon="11.3659591"><ele>539.0</ele><time>2026-04-12T08:51:41.16Z</time></trkpt><trkpt lat="43.4795769" lon="11.3658855"><ele>535.0</ele><time>2026-04-12T08:51:42.159Z</time></trkpt><trkpt lat="43.479754" lon="11.3657807"><ele>531.0</ele><time>2026-04-12T08:51:43.16Z</time></trkpt><trkpt lat="43.4799216" lon="11.3656931"><ele>527.0</ele><time>2026-04-12T08:51:44.16Z</time></trkpt><trkpt lat="43.4800988" lon="11.365655"><ele>527.0</ele><time>2026-04-12T08:51:45.16Z</time></trkpt><trkpt lat="43.4802683" lon="11.3656299"><ele>527.0</ele><time>2026-04-12T08:51:46.16Z</time></trkpt><trkpt lat="43.4804352" lon="11.3656082"><ele>527.0</ele><time>2026-04-12T08:51:47.161Z</time></trkpt><trkpt lat="43.480609" lon="11.3655894"><ele>524.6666666666666</ele><time>2026-04-12T08:51:48.161Z</time></trkpt><trkpt lat="43.48078" lon="11.3655906"><ele>522.3333333333334</ele><time>2026-04-12T08:51:49.16Z</time></trkpt><trkpt lat="43.4809446" lon="11.3656109"><ele>520.0</ele><time>2026-04-12T08:51:50.16Z</time></trkpt><trkpt lat="43.4811039" lon="11.3656381"><ele>520.0</ele><time>2026-04-12T08:51:51.16Z</time></trkpt><trkpt lat="43.4812653" lon="11.3656611"><ele>520.0</ele><time>2026-04-12T08:51:52.159Z</time></trkpt><trkpt lat="43.4814236" lon="11.3656684"><ele>520.0</ele><time>2026-04-12T08:51:53.159Z</time></trkpt><trkpt lat="43.4815721" lon="11.3656578"><ele>518.3333333333334</ele><time>2026-04-12T08:51:54.161Z</time></trkpt><trkpt lat="43.4817147" lon="11.3656041"><ele>516.6666666666666</ele><time>2026-04-12T08:51:55.16Z</time></trkpt><trkpt lat="43.4818487" lon="11.3654923"><ele>515.0</ele><time>2026-04-12T08:51:56.159Z</time></trkpt><trkpt lat="43.4819758" lon="11.3653571"><ele>515.75</ele><time>2026-04-12T08:51:57.159Z</time></trkpt><trkpt lat="43.4820982" lon="11.365225"><ele>516.5</ele><time>2026-04-12T08:51:58.159Z</time></trkpt><trkpt lat="43.4822064" lon="11.3651145"><ele>517.25</ele><time>2026-04-12T08:51:59.16Z</time></trkpt><trkpt lat="43.4822999" lon="11.3650468"><ele>518.0</ele><time>2026-04-12T08:52:00.16Z</time></trkpt><trkpt lat="43.4823886" lon="11.3650385"><ele>518.0</ele><time>2026-04-12T08:52:01.159Z</time></trkpt><trkpt lat="43.4824726" lon="11.3650989"><ele>518.0</ele><time>2026-04-12T08:52:02.16Z</time></trkpt><trkpt lat="43.482543" lon="11.3652134"><ele>518.0</ele><time>2026-04-12T08:52:03.162Z</time></trkpt><trkpt lat="43.4826199" lon="11.3653495"><ele>518.0</ele><time>2026-04-12T08:52:04.161Z</time></trkpt><trkpt lat="43.482699" lon="11.3654916"><ele>515.5</ele><time>2026-04-12T08:52:05.159Z</time></trkpt><trkpt lat="43.4827768" lon="11.3656275"><ele>513.0</ele><time>2026-04-12T08:52:06.159Z</time></trkpt><trkpt lat="43.4828566" lon="11.3657527"><ele>510.5</ele><time>2026-04-12T08:52:07.16Z</time></trkpt><trkpt lat="43.4829489" lon="11.3658571"><ele>508.0</ele><time>2026-04-12T08:52:08.16Z</time></trkpt><trkpt lat="43.483068" lon="11.3659146"><ele>507.75</ele><time>2026-04-12T08:52:09.159Z</time></trkpt><trkpt lat="43.4831964" lon="11.3659375"><ele>507.5</ele><time>2026-04-12T08:52:10.16Z</time></trkpt><trkpt lat="43.483332" lon="11.3659088"><ele>507.25</ele><time>2026-04-12T08:52:11.161Z</time></trkpt><trkpt lat="43.4834619" lon="11.3658303"><ele>507.0</ele><time>2026-04-12T08:52:12.161Z</time></trkpt><trkpt lat="43.483574" lon="11.3657244"><ele>507.0</ele><time>2026-04-12T08:52:13.159Z</time></trkpt><trkpt lat="43.4836749" lon="11.3656138"><ele>507.0</ele><time>2026-04-12T08:52:14.16Z</time></trkpt><trkpt lat="43.4837627" lon="11.3655098"><ele>507.0</ele><time>2026-04-12T08:52:15.16Z</time></trkpt><trkpt lat="43.4838588" lon="11.3654408"><ele>507.0</ele><time>2026-04-12T08:52:16.16Z</time></trkpt><trkpt lat="43.4839644" lon="11.365436"><ele>507.5</ele><time>2026-04-12T08:52:17.16Z</time></trkpt><trkpt lat="43.4840565" lon="11.3654637"><ele>508.0</ele><time>2026-04-12T08:52:18.16Z</time></trkpt><trkpt lat="43.4841426" lon="11.3655079"><ele>508.5</ele><time>2026-04-12T08:52:19.16Z</time></trkpt><trkpt lat="43.4842176" lon="11.3655616"><ele>509.0</ele><time>2026-04-12T08:52:20.16Z</time></trkpt><trkpt lat="43.4842903" lon="11.3656222"><ele>509.5</ele><time>2026-04-12T08:52:21.161Z</time></trkpt><trkpt lat="43.4843458" lon="11.3657076"><ele>510.0</ele><time>2026-04-12T08:52:22.159Z</time></trkpt><trkpt lat="43.4843823" lon="11.3658148"><ele>508.2</ele><time>2026-04-12T08:52:23.16Z</time></trkpt><trkpt lat="43.4843938" lon="11.3659279"><ele>506.4</ele><time>2026-04-12T08:52:24.161Z</time></trkpt><trkpt lat="43.4843887" lon="11.3660566"><ele>504.6</ele><time>2026-04-12T08:52:25.161Z</time></trkpt><trkpt lat="43.4843703" lon="11.366192"><ele>502.8</ele><time>2026-04-12T08:52:26.161Z</time></trkpt><trkpt lat="43.4843533" lon="11.3663229"><ele>501.0</ele><time>2026-04-12T08:52:27.16Z</time></trkpt><trkpt lat="43.4843392" lon="11.3664493"><ele>500.0</ele><time>2026-04-12T08:52:28.16Z</time></trkpt><trkpt lat="43.4843353" lon="11.3665744"><ele>499.0</ele><time>2026-04-12T08:52:29.161Z</time></trkpt><trkpt lat="43.4843401" lon="11.3666898"><ele>498.0</ele><time>2026-04-12T08:52:30.16Z</time></trkpt><trkpt lat="43.4843604" lon="11.3667783"><ele>497.0</ele><time>2026-04-12T08:52:31.16Z</time></trkpt><trkpt lat="43.4844259" lon="11.366849"><ele>496.0</ele><time>2026-04-12T08:52:33.16Z</time></trkpt><trkpt lat="43.4844675" lon="11.3667713"><ele>495.0</ele><time>2026-04-12T08:52:35.161Z</time></trkpt><trkpt lat="43.4844899" lon="11.3666837"><ele>495.0</ele><time>2026-04-12T08:52:36.161Z</time></trkpt><trkpt lat="43.4845263" lon="11.3666059"><ele>495.0</ele><time>2026-04-12T08:52:37.161Z</time></trkpt><trkpt lat="43.4845883" lon="11.3665407"><ele>495.0</ele><time>2026-04-12T08:52:38.161Z</time></trkpt><trkpt lat="43.4846738" lon="11.3664744"><ele>495.0</ele><time>2026-04-12T08:52:39.16Z</time></trkpt><trkpt lat="43.4847632" lon="11.3664073"><ele>495.0</ele><time>2026-04-12T08:52:40.161Z</time></trkpt><trkpt lat="43.4848573" lon="11.3663306"><ele>495.25</ele><time>2026-04-12T08:52:41.16Z</time></trkpt><trkpt lat="43.4849574" lon="11.3662354"><ele>495.5</ele><time>2026-04-12T08:52:42.162Z</time></trkpt><trkpt lat="43.4850638" lon="11.3661218"><ele>495.75</ele><time>2026-04-12T08:52:43.161Z</time></trkpt><trkpt lat="43.4851797" lon="11.3660099"><ele>496.0</ele><time>2026-04-12T08:52:44.16Z</time></trkpt><trkpt lat="43.4852948" lon="11.365894"><ele>496.0</ele><time>2026-04-12T08:52:45.161Z</time></trkpt><trkpt lat="43.4854141" lon="11.3657795"><ele>496.0</ele><time>2026-04-12T08:52:46.16Z</time></trkpt><trkpt lat="43.4855374" lon="11.3656638"><ele>496.0</ele><time>2026-04-12T08:52:47.16Z</time></trkpt><trkpt lat="43.4856709" lon="11.3655518"><ele>493.75</ele><time>2026-04-12T08:52:48.161Z</time></trkpt><trkpt lat="43.4857984" lon="11.3654509"><ele>491.5</ele><time>2026-04-12T08:52:49.16Z</time></trkpt><trkpt lat="43.4859175" lon="11.3653418"><ele>489.25</ele><time>2026-04-12T08:52:50.161Z</time></trkpt><trkpt lat="43.4860238" lon="11.3652079"><ele>487.0</ele><time>2026-04-12T08:52:51.161Z</time></trkpt><trkpt lat="43.4861185" lon="11.3650508"><ele>487.0</ele><time>2026-04-12T08:52:52.161Z</time></trkpt><trkpt lat="43.4862037" lon="11.3648784"><ele>487.0</ele><time>2026-04-12T08:52:53.161Z</time></trkpt><trkpt lat="43.4863019" lon="11.3647255"><ele>487.0</ele><time>2026-04-12T08:52:54.16Z</time></trkpt><trkpt lat="43.4864053" lon="11.3645915"><ele>487.0</ele><time>2026-04-12T08:52:55.162Z</time></trkpt><trkpt lat="43.4864995" lon="11.364454"><ele>481.75</ele><time>2026-04-12T08:52:56.16Z</time></trkpt><trkpt lat="43.486583" lon="11.3643046"><ele>476.5</ele><time>2026-04-12T08:52:57.162Z</time></trkpt><trkpt lat="43.486665" lon="11.3641533"><ele>471.25</ele><time>2026-04-12T08:52:58.162Z</time></trkpt><trkpt lat="43.4867669" lon="11.3640184"><ele>466.0</ele><time>2026-04-12T08:52:59.162Z</time></trkpt><trkpt lat="43.4868868" lon="11.3638837"><ele>466.0</ele><time>2026-04-12T08:53:00.16Z</time></trkpt><trkpt lat="43.487013" lon="11.3637539"><ele>466.0</ele><time>2026-04-12T08:53:01.161Z</time></trkpt><trkpt lat="43.4871417" lon="11.3636379"><ele>466.0</ele><time>2026-04-12T08:53:02.16Z</time></trkpt><trkpt lat="43.4872707" lon="11.3635242"><ele>462.25</ele><time>2026-04-12T08:53:03.162Z</time></trkpt><trkpt lat="43.4874032" lon="11.3634153"><ele>458.5</ele><time>2026-04-12T08:53:04.16Z</time></trkpt><trkpt lat="43.4875234" lon="11.3632988"><ele>454.75</ele><time>2026-04-12T08:53:05.159Z</time></trkpt><trkpt lat="43.4876297" lon="11.3631672"><ele>451.0</ele><time>2026-04-12T08:53:06.161Z</time></trkpt><trkpt lat="43.4877129" lon="11.3630174"><ele>450.25</ele><time>2026-04-12T08:53:07.162Z</time></trkpt><trkpt lat="43.4877804" lon="11.3628617"><ele>449.5</ele><time>2026-04-12T08:53:08.16Z</time></trkpt><trkpt lat="43.4878336" lon="11.3627033"><ele>448.75</ele><time>2026-04-12T08:53:09.16Z</time></trkpt><trkpt lat="43.4878853" lon="11.3625345"><ele>448.0</ele><time>2026-04-12T08:53:10.161Z</time></trkpt><trkpt lat="43.4879316" lon="11.362367"><ele>445.0</ele><time>2026-04-12T08:53:11.161Z</time></trkpt><trkpt lat="43.487977" lon="11.3621952"><ele>442.0</ele><time>2026-04-12T08:53:12.162Z</time></trkpt><trkpt lat="43.4880243" lon="11.3620342"><ele>439.0</ele><time>2026-04-12T08:53:13.16Z</time></trkpt><trkpt lat="43.4881003" lon="11.3618956"><ele>436.0</ele><time>2026-04-12T08:53:14.159Z</time></trkpt><trkpt lat="43.4882053" lon="11.3617824"><ele>436.0</ele><time>2026-04-12T08:53:15.16Z</time></trkpt><trkpt lat="43.4883084" lon="11.3616872"><ele>436.0</ele><time>2026-04-12T08:53:16.161Z</time></trkpt><trkpt lat="43.4883849" lon="11.3616081"><ele>436.0</ele><time>2026-04-12T08:53:17.16Z</time></trkpt><trkpt lat="43.4884425" lon="11.3615478"><ele>436.0</ele><time>2026-04-12T08:53:18.16Z</time></trkpt><trkpt lat="43.4884759" lon="11.3614698"><ele>436.0</ele><time>2026-04-12T08:53:19.16Z</time></trkpt><trkpt lat="43.4884235" lon="11.3613214"><ele>433.33333333333337</ele><time>2026-04-12T08:53:21.161Z</time></trkpt><trkpt lat="43.4883428" lon="11.3612904"><ele>430.6666666666667</ele><time>2026-04-12T08:53:22.161Z</time></trkpt><trkpt lat="43.4882626" lon="11.3612579"><ele>428.0</ele><time>2026-04-12T08:53:23.161Z</time></trkpt><trkpt lat="43.4882039" lon="11.3612135"><ele>425.33333333333337</ele><time>2026-04-12T08:53:24.161Z</time></trkpt><trkpt lat="43.4881643" lon="11.3611442"><ele>422.6666666666667</ele><time>2026-04-12T08:53:25.161Z</time></trkpt><trkpt lat="43.4881625" lon="11.3610538"><ele>420.0</ele><time>2026-04-12T08:53:26.16Z</time></trkpt><trkpt lat="43.4881974" lon="11.3609361"><ele>420.0</ele><time>2026-04-12T08:53:27.161Z</time></trkpt><trkpt lat="43.4882514" lon="11.3608102"><ele>420.0</ele><time>2026-04-12T08:53:28.161Z</time></trkpt><trkpt lat="43.4883175" lon="11.3606717"><ele>420.0</ele><time>2026-04-12T08:53:29.159Z</time></trkpt><trkpt lat="43.488381" lon="11.3605313"><ele>420.0</ele><time>2026-04-12T08:53:30.16Z</time></trkpt><trkpt lat="43.4884467" lon="11.360381"><ele>417.25</ele><time>2026-04-12T08:53:31.161Z</time></trkpt><trkpt lat="43.4885179" lon="11.3602147"><ele>414.5</ele><time>2026-04-12T08:53:32.159Z</time></trkpt><trkpt lat="43.48859" lon="11.3600423"><ele>411.75</ele><time>2026-04-12T08:53:33.16Z</time></trkpt><trkpt lat="43.4886573" lon="11.3598633"><ele>409.0</ele><time>2026-04-12T08:53:34.16Z</time></trkpt><trkpt lat="43.4887292" lon="11.3596734"><ele>407.0</ele><time>2026-04-12T08:53:35.16Z</time></trkpt><trkpt lat="43.4887917" lon="11.3594773"><ele>405.0</ele><time>2026-04-12T08:53:36.161Z</time></trkpt><trkpt lat="43.4888413" lon="11.3592577"><ele>403.0</ele><time>2026-04-12T08:53:37.16Z</time></trkpt><trkpt lat="43.4888875" lon="11.3590284"><ele>399.33333333333337</ele><time>2026-04-12T08:53:38.16Z</time></trkpt><trkpt lat="43.4889331" lon="11.3587984"><ele>395.66666666666663</ele><time>2026-04-12T08:53:39.161Z</time></trkpt><trkpt lat="43.4889736" lon="11.3585693"><ele>392.0</ele><time>2026-04-12T08:53:40.16Z</time></trkpt><trkpt lat="43.4890114" lon="11.35834"><ele>392.0</ele><time>2026-04-12T08:53:41.161Z</time></trkpt><trkpt lat="43.4890523" lon="11.3581138"><ele>392.0</ele><time>2026-04-12T08:53:42.159Z</time></trkpt><trkpt lat="43.4890991" lon="11.3578893"><ele>392.0</ele><time>2026-04-12T08:53:43.16Z</time></trkpt><trkpt lat="43.4891537" lon="11.3576738"><ele>387.3333333333333</ele><time>2026-04-12T08:53:44.16Z</time></trkpt><trkpt lat="43.4892194" lon="11.3574786"><ele>382.66666666666663</ele><time>2026-04-12T08:53:45.159Z</time></trkpt><trkpt lat="43.4893006" lon="11.3573043"><ele>378.0</ele><time>2026-04-12T08:53:46.161Z</time></trkpt><trkpt lat="43.4893911" lon="11.3571457"><ele>375.5</ele><time>2026-04-12T08:53:47.159Z</time></trkpt><trkpt lat="43.489488" lon="11.3570004"><ele>373.0</ele><time>2026-04-12T08:53:48.161Z</time></trkpt><trkpt lat="43.4895927" lon="11.3568654"><ele>370.5</ele><time>2026-04-12T08:53:49.161Z</time></trkpt><trkpt lat="43.4897037" lon="11.356737"><ele>368.0</ele><time>2026-04-12T08:53:50.161Z</time></trkpt><trkpt lat="43.4898137" lon="11.3566154"><ele>367.59999999999997</ele><time>2026-04-12T08:53:51.159Z</time></trkpt><trkpt lat="43.4899128" lon="11.3565084"><ele>367.2</ele><time>2026-04-12T08:53:52.16Z</time></trkpt><trkpt lat="43.4900065" lon="11.356425"><ele>366.8</ele><time>2026-04-12T08:53:53.162Z</time></trkpt><trkpt lat="43.4900864" lon="11.3563466"><ele>366.4</ele><time>2026-04-12T08:53:54.16Z</time></trkpt><trkpt lat="43.4901476" lon="11.3562677"><ele>366.0</ele><time>2026-04-12T08:53:55.161Z</time></trkpt><trkpt lat="43.4901852" lon="11.3561692"><ele>363.8333333333333</ele><time>2026-04-12T08:53:56.16Z</time></trkpt><trkpt lat="43.4901726" lon="11.3560647"><ele>361.6666666666667</ele><time>2026-04-12T08:53:57.161Z</time></trkpt><trkpt lat="43.4901243" lon="11.3559784"><ele>359.5</ele><time>2026-04-12T08:53:58.16Z</time></trkpt><trkpt lat="43.4900524" lon="11.3559123"><ele>357.33333333333337</ele><time>2026-04-12T08:53:59.161Z</time></trkpt><trkpt lat="43.489984" lon="11.3558724"><ele>355.1666666666667</ele><time>2026-04-12T08:54:00.16Z</time></trkpt><trkpt lat="43.4899186" lon="11.3558377"><ele>353.0</ele><time>2026-04-12T08:54:01.16Z</time></trkpt><trkpt lat="43.4898667" lon="11.3557068"><ele>353.0</ele><time>2026-04-12T08:54:03.16Z</time></trkpt><trkpt lat="43.4899642" lon="11.3555952"><ele>353.0</ele><time>2026-04-12T08:54:05.161Z</time></trkpt><trkpt lat="43.4900468" lon="11.3555565"><ele>353.0</ele><time>2026-04-12T08:54:06.16Z</time></trkpt><trkpt lat="43.4901381" lon="11.355514"><ele>353.0</ele><time>2026-04-12T08:54:07.161Z</time></trkpt><trkpt lat="43.4902392" lon="11.3554592"><ele>353.0</ele><time>2026-04-12T08:54:08.16Z</time></trkpt><trkpt lat="43.4903482" lon="11.3553975"><ele>350.0</ele><time>2026-04-12T08:54:09.16Z</time></trkpt><trkpt lat="43.4904657" lon="11.3553294"><ele>347.0</ele><time>2026-04-12T08:54:10.16Z</time></trkpt><trkpt lat="43.4905857" lon="11.3552491"><ele>344.0</ele><time>2026-04-12T08:54:11.16Z</time></trkpt><trkpt lat="43.4907051" lon="11.3551545"><ele>341.0</ele><time>2026-04-12T08:54:12.16Z</time></trkpt><trkpt lat="43.4908111" lon="11.3550398"><ele>341.0</ele><time>2026-04-12T08:54:13.161Z</time></trkpt><trkpt lat="43.4908948" lon="11.3549111"><ele>341.0</ele><time>2026-04-12T08:54:14.161Z</time></trkpt><trkpt lat="43.4909601" lon="11.3547943"><ele>341.0</ele><time>2026-04-12T08:54:15.16Z</time></trkpt><trkpt lat="43.4910064" lon="11.3546885"><ele>341.0</ele><time>2026-04-12T08:54:16.161Z</time></trkpt><trkpt lat="43.4910329" lon="11.3546062"><ele>341.0</ele><time>2026-04-12T08:54:17.159Z</time></trkpt><trkpt lat="43.4910337" lon="11.3545108"><ele>339.8</ele><time>2026-04-12T08:54:23.16Z</time></trkpt><trkpt lat="43.490991" lon="11.3544179"><ele>338.6</ele><time>2026-04-12T08:54:25.16Z</time></trkpt><trkpt lat="43.490938" lon="11.354293"><ele>337.4</ele><time>2026-04-12T08:54:27.161Z</time></trkpt><trkpt lat="43.4909284" lon="11.3541273"><ele>336.2</ele><time>2026-04-12T08:54:29.16Z</time></trkpt><trkpt lat="43.4909427" lon="11.3540146"><ele>335.0</ele><time>2026-04-12T08:54:30.161Z</time></trkpt><trkpt lat="43.4909653" lon="11.3538946"><ele>334.5</ele><time>2026-04-12T08:54:31.161Z</time></trkpt><trkpt lat="43.4909969" lon="11.35376"><ele>334.0</ele><time>2026-04-12T08:54:32.161Z</time></trkpt><trkpt lat="43.4910364" lon="11.3536052"><ele>333.5</ele><time>2026-04-12T08:54:33.162Z</time></trkpt><trkpt lat="43.4910728" lon="11.3534489"><ele>333.0</ele><time>2026-04-12T08:54:34.161Z</time></trkpt><trkpt lat="43.4910967" lon="11.3532908"><ele>333.0</ele><time>2026-04-12T08:54:35.16Z</time></trkpt><trkpt lat="43.4911283" lon="11.3531465"><ele>333.0</ele><time>2026-04-12T08:54:36.161Z</time></trkpt><trkpt lat="43.4911682" lon="11.353025"><ele>333.0</ele><time>2026-04-12T08:54:37.161Z</time></trkpt><trkpt lat="43.4912227" lon="11.352929"><ele>333.0</ele><time>2026-04-12T08:54:38.161Z</time></trkpt><trkpt lat="43.4912881" lon="11.3528562"><ele>333.0</ele><time>2026-04-12T08:54:39.16Z</time></trkpt><trkpt lat="43.4913613" lon="11.352806"><ele>332.0</ele><time>2026-04-12T08:54:40.161Z</time></trkpt><trkpt lat="43.4914383" lon="11.352774"><ele>331.0</ele><time>2026-04-12T08:54:41.161Z</time></trkpt><trkpt lat="43.491513" lon="11.3527301"><ele>330.0</ele><time>2026-04-12T08:54:42.159Z</time></trkpt><trkpt lat="43.4915694" lon="11.352677"><ele>329.0</ele><time>2026-04-12T08:54:43.161Z</time></trkpt><trkpt lat="43.4916456" lon="11.3525625"><ele>328.0</ele><time>2026-04-12T08:54:45.162Z</time></trkpt><trkpt lat="43.491714" lon="11.3524497"><ele>327.0</ele><time>2026-04-12T08:54:47.16Z</time></trkpt><trkpt lat="43.4917984" lon="11.352336"><ele>327.0</ele><time>2026-04-12T08:54:49.16Z</time></trkpt><trkpt lat="43.4918794" lon="11.3522228"><ele>327.0</ele><time>2026-04-12T08:54:51.162Z</time></trkpt><trkpt lat="43.4919477" lon="11.3521275"><ele>327.0</ele><time>2026-04-12T08:54:53.16Z</time></trkpt><trkpt lat="43.4920186" lon="11.352073"><ele>327.0</ele><time>2026-04-12T08:54:55.162Z</time></trkpt><trkpt lat="43.4921014" lon="11.3521293"><ele>327.0</ele><time>2026-04-12T08:54:58.161Z</time></trkpt><trkpt lat="43.4921554" lon="11.3522334"><ele>327.40000000000003</ele><time>2026-04-12T08:55:00.161Z</time></trkpt><trkpt lat="43.4922138" lon="11.3523644"><ele>327.8</ele><time>2026-04-12T08:55:02.161Z</time></trkpt><trkpt lat="43.4922766" lon="11.3524943"><ele>328.2</ele><time>2026-04-12T08:55:04.159Z</time></trkpt><trkpt lat="43.4923428" lon="11.3526176"><ele>328.6</ele><time>2026-04-12T08:55:06.16Z</time></trkpt><trkpt lat="43.4924327" lon="11.3526954"><ele>329.0</ele><time>2026-04-12T08:55:08.161Z</time></trkpt><trkpt lat="43.4925607" lon="11.3526887"><ele>329.0</ele><time>2026-04-12T08:55:10.161Z</time></trkpt><trkpt lat="43.4926349" lon="11.3526829"><ele>329.0</ele><time>2026-04-12T08:55:11.161Z</time></trkpt><trkpt lat="43.4927164" lon="11.3526814"><ele>329.0</ele><time>2026-04-12T08:55:12.161Z</time></trkpt><trkpt lat="43.492802" lon="11.3527039"><ele>329.0</ele><time>2026-04-12T08:55:13.161Z</time></trkpt><trkpt lat="43.4928895" lon="11.3527237"><ele>329.0</ele><time>2026-04-12T08:55:14.162Z</time></trkpt><trkpt lat="43.4929719" lon="11.3527494"><ele>329.0</ele><time>2026-04-12T08:55:15.162Z</time></trkpt><trkpt lat="43.4930614" lon="11.3527691"><ele>331.2</ele><time>2026-04-12T08:55:16.161Z</time></trkpt><trkpt lat="43.4931567" lon="11.3527914"><ele>333.4</ele><time>2026-04-12T08:55:17.162Z</time></trkpt><trkpt lat="43.4932524" lon="11.3528449"><ele>335.6</ele><time>2026-04-12T08:55:18.16Z</time></trkpt><trkpt lat="43.4933364" lon="11.3529054"><ele>337.8</ele><time>2026-04-12T08:55:19.161Z</time></trkpt><trkpt lat="43.4934214" lon="11.3529723"><ele>340.0</ele><time>2026-04-12T08:55:20.161Z</time></trkpt><trkpt lat="43.4935048" lon="11.3530375"><ele>339.66666666666663</ele><time>2026-04-12T08:55:21.161Z</time></trkpt><trkpt lat="43.4935886" lon="11.3530976"><ele>339.3333333333333</ele><time>2026-04-12T08:55:22.16Z</time></trkpt><trkpt lat="43.4936757" lon="11.3531491"><ele>339.0</ele><time>2026-04-12T08:55:23.162Z</time></trkpt><trkpt lat="43.49376" lon="11.3531778"><ele>338.6666666666667</ele><time>2026-04-12T08:55:24.16Z</time></trkpt><trkpt lat="43.4938423" lon="11.353187"><ele>338.33333333333337</ele><time>2026-04-12T08:55:25.161Z</time></trkpt><trkpt lat="43.4939129" lon="11.3531787"><ele>338.0</ele><time>2026-04-12T08:55:26.161Z</time></trkpt><trkpt lat="43.4939916" lon="11.3531564"><ele>340.6666666666667</ele><time>2026-04-12T08:55:27.16Z</time></trkpt><trkpt lat="43.4940679" lon="11.3531186"><ele>343.33333333333337</ele><time>2026-04-12T08:55:28.16Z</time></trkpt><trkpt lat="43.4941386" lon="11.3530603"><ele>346.0</ele><time>2026-04-12T08:55:29.161Z</time></trkpt><trkpt lat="43.4942127" lon="11.3529978"><ele>348.6666666666667</ele><time>2026-04-12T08:55:30.16Z</time></trkpt><trkpt lat="43.4942815" lon="11.3529449"><ele>351.3333333333333</ele><time>2026-04-12T08:55:31.161Z</time></trkpt><trkpt lat="43.4943989" lon="11.3529293"><ele>354.0</ele><time>2026-04-12T08:55:33.161Z</time></trkpt><trkpt lat="43.4944905" lon="11.3530297"><ele>354.0</ele><time>2026-04-12T08:55:35.161Z</time></trkpt><trkpt lat="43.4945841" lon="11.3531414"><ele>354.0</ele><time>2026-04-12T08:55:37.16Z</time></trkpt><trkpt lat="43.4946599" lon="11.3531869"><ele>354.0</ele><time>2026-04-12T08:55:38.16Z</time></trkpt><trkpt lat="43.494739" lon="11.3532151"><ele>354.0</ele><time>2026-04-12T08:55:39.161Z</time></trkpt><trkpt lat="43.4948317" lon="11.3532222"><ele>354.0</ele><time>2026-04-12T08:55:40.161Z</time></trkpt><trkpt lat="43.4949286" lon="11.3532251"><ele>357.6</ele><time>2026-04-12T08:55:41.16Z</time></trkpt><trkpt lat="43.4950365" lon="11.3532313"><ele>361.2</ele><time>2026-04-12T08:55:42.161Z</time></trkpt><trkpt lat="43.4951416" lon="11.3532345"><ele>364.8</ele><time>2026-04-12T08:55:43.16Z</time></trkpt><trkpt lat="43.4952539" lon="11.3532493"><ele>368.40000000000003</ele><time>2026-04-12T08:55:44.161Z</time></trkpt><trkpt lat="43.4953552" lon="11.3532626"><ele>372.0</ele><time>2026-04-12T08:55:45.16Z</time></trkpt><trkpt lat="43.495461" lon="11.353276"><ele>375.20000000000005</ele><time>2026-04-12T08:55:46.161Z</time></trkpt><trkpt lat="43.4955676" lon="11.3532925"><ele>378.4</ele><time>2026-04-12T08:55:47.16Z</time></trkpt><trkpt lat="43.495664" lon="11.3532907"><ele>381.6</ele><time>2026-04-12T08:55:48.161Z</time></trkpt><trkpt lat="43.4957561" lon="11.3532594"><ele>384.79999999999995</ele><time>2026-04-12T08:55:49.16Z</time></trkpt><trkpt lat="43.4958449" lon="11.3532171"><ele>388.0</ele><time>2026-04-12T08:55:50.161Z</time></trkpt><trkpt lat="43.4959387" lon="11.3531688"><ele>388.00000000000006</ele><time>2026-04-12T08:55:51.16Z</time></trkpt><trkpt lat="43.4960225" lon="11.3531163"><ele>388.0</ele><time>2026-04-12T08:55:52.157Z</time></trkpt><trkpt lat="43.4960955" lon="11.3530489"><ele>388.0</ele><time>2026-04-12T08:55:53.161Z</time></trkpt><trkpt lat="43.4961574" lon="11.3529633"><ele>388.0</ele><time>2026-04-12T08:55:54.168Z</time></trkpt><trkpt lat="43.4962092" lon="11.352864"><ele>388.00000000000006</ele><time>2026-04-12T08:55:55.155Z</time></trkpt><trkpt lat="43.4962658" lon="11.3527693"><ele>388.0</ele><time>2026-04-12T08:55:56.166Z</time></trkpt><trkpt lat="43.4963252" lon="11.3527049"><ele>390.6666666666667</ele><time>2026-04-12T08:55:57.165Z</time></trkpt><trkpt lat="43.4963923" lon="11.3526878"><ele>393.33333333333337</ele><time>2026-04-12T08:55:58.163Z</time></trkpt><trkpt lat="43.4964661" lon="11.3526885"><ele>396.0</ele><time>2026-04-12T08:55:59.155Z</time></trkpt><trkpt lat="43.4965493" lon="11.352688"><ele>398.66666666666663</ele><time>2026-04-12T08:56:00.163Z</time></trkpt><trkpt lat="43.4966455" lon="11.3526905"><ele>401.3333333333333</ele><time>2026-04-12T08:56:01.165Z</time></trkpt><trkpt lat="43.496748" lon="11.3526909"><ele>404.0</ele><time>2026-04-12T08:56:02.165Z</time></trkpt><trkpt lat="43.4968532" lon="11.3526812"><ele>404.0</ele><time>2026-04-12T08:56:03.167Z</time></trkpt><trkpt lat="43.4969585" lon="11.3526617"><ele>404.0</ele><time>2026-04-12T08:56:04.168Z</time></trkpt><trkpt lat="43.4970705" lon="11.3526228"><ele>404.0</ele><time>2026-04-12T08:56:05.163Z</time></trkpt><trkpt lat="43.4971782" lon="11.3525666"><ele>404.0</ele><time>2026-04-12T08:56:06.159Z</time></trkpt><trkpt lat="43.4972886" lon="11.3524874"><ele>405.25</ele><time>2026-04-12T08:56:07.157Z</time></trkpt><trkpt lat="43.4974095" lon="11.3523875"><ele>406.5</ele><time>2026-04-12T08:56:08.159Z</time></trkpt><trkpt lat="43.4975336" lon="11.3522854"><ele>407.75</ele><time>2026-04-12T08:56:09.158Z</time></trkpt><trkpt lat="43.4976545" lon="11.3522058"><ele>409.0</ele><time>2026-04-12T08:56:10.156Z</time></trkpt><trkpt lat="43.4977891" lon="11.3521504"><ele>411.0</ele><time>2026-04-12T08:56:11.159Z</time></trkpt><trkpt lat="43.4979231" lon="11.3520997"><ele>413.0</ele><time>2026-04-12T08:56:12.167Z</time></trkpt><trkpt lat="43.4980547" lon="11.3520334"><ele>415.0</ele><time>2026-04-12T08:56:13.163Z</time></trkpt><trkpt lat="43.4981924" lon="11.3519631"><ele>417.0</ele><time>2026-04-12T08:56:14.162Z</time></trkpt><trkpt lat="43.4983207" lon="11.3518929"><ele>417.0</ele><time>2026-04-12T08:56:15.158Z</time></trkpt><trkpt lat="43.4984366" lon="11.3518315"><ele>417.0</ele><time>2026-04-12T08:56:16.156Z</time></trkpt><trkpt lat="43.4985612" lon="11.351787"><ele>417.0</ele><time>2026-04-12T08:56:17.167Z</time></trkpt><trkpt lat="43.4986863" lon="11.3517644"><ele>417.0</ele><time>2026-04-12T08:56:18.156Z</time></trkpt><trkpt lat="43.4988108" lon="11.3517705"><ele>416.5</ele><time>2026-04-12T08:56:19.162Z</time></trkpt><trkpt lat="43.4989271" lon="11.3518033"><ele>416.0</ele><time>2026-04-12T08:56:20.166Z</time></trkpt><trkpt lat="43.4990545" lon="11.3518764"><ele>415.5</ele><time>2026-04-12T08:56:21.167Z</time></trkpt><trkpt lat="43.4991899" lon="11.3519701"><ele>415.0</ele><time>2026-04-12T08:56:22.16Z</time></trkpt><trkpt lat="43.4993233" lon="11.3520753"><ele>415.0</ele><time>2026-04-12T08:56:23.163Z</time></trkpt><trkpt lat="43.4994528" lon="11.3521846"><ele>415.0</ele><time>2026-04-12T08:56:24.155Z</time></trkpt><trkpt lat="43.4995825" lon="11.3522762"><ele>415.0</ele><time>2026-04-12T08:56:25.158Z</time></trkpt><trkpt lat="43.4997252" lon="11.3523446"><ele>415.0</ele><time>2026-04-12T08:56:26.164Z</time></trkpt><trkpt lat="43.4998753" lon="11.3524019"><ele>417.33333333333337</ele><time>2026-04-12T08:56:27.157Z</time></trkpt><trkpt lat="43.5000302" lon="11.352462"><ele>419.66666666666663</ele><time>2026-04-12T08:56:28.165Z</time></trkpt><trkpt lat="43.5001765" lon="11.352523"><ele>422.0</ele><time>2026-04-12T08:56:29.166Z</time></trkpt><trkpt lat="43.5003098" lon="11.3525828"><ele>422.5</ele><time>2026-04-12T08:56:30.164Z</time></trkpt><trkpt lat="43.5004399" lon="11.3526494"><ele>423.0</ele><time>2026-04-12T08:56:31.164Z</time></trkpt><trkpt lat="43.5005591" lon="11.3527127"><ele>423.5</ele><time>2026-04-12T08:56:32.158Z</time></trkpt><trkpt lat="43.5006654" lon="11.3527542"><ele>424.0</ele><time>2026-04-12T08:56:33.157Z</time></trkpt><trkpt lat="43.500765" lon="11.352781"><ele>424.00000000000006</ele><time>2026-04-12T08:56:34.159Z</time></trkpt><trkpt lat="43.5008656" lon="11.3528148"><ele>424.0</ele><time>2026-04-12T08:56:35.167Z</time></trkpt><trkpt lat="43.5009602" lon="11.3528491"><ele>424.0</ele><time>2026-04-12T08:56:36.163Z</time></trkpt><trkpt lat="43.5010489" lon="11.3528633"><ele>424.0</ele><time>2026-04-12T08:56:37.161Z</time></trkpt><trkpt lat="43.5011273" lon="11.3528594"><ele>424.00000000000006</ele><time>2026-04-12T08:56:38.158Z</time></trkpt><trkpt lat="43.5011942" lon="11.3528388"><ele>424.0</ele><time>2026-04-12T08:56:39.162Z</time></trkpt><trkpt lat="43.501256" lon="11.352811"><ele>424.00000000000006</ele><time>2026-04-12T08:56:40.161Z</time></trkpt><trkpt lat="43.5013651" lon="11.3527548"><ele>424.0</ele><time>2026-04-12T08:56:42.165Z</time></trkpt><trkpt lat="43.5014305" lon="11.3527281"><ele>424.0</ele><time>2026-04-12T08:56:43.153Z</time></trkpt><trkpt lat="43.5014963" lon="11.3527009"><ele>424.0</ele><time>2026-04-12T08:56:44.166Z</time></trkpt><trkpt lat="43.5016047" lon="11.3527506"><ele>424.00000000000006</ele><time>2026-04-12T08:56:46.167Z</time></trkpt><trkpt lat="43.5016593" lon="11.3528118"><ele>424.0</ele><time>2026-04-12T08:56:47.159Z</time></trkpt><trkpt lat="43.5017336" lon="11.3528801"><ele>424.0</ele><time>2026-04-12T08:56:48.167Z</time></trkpt><trkpt lat="43.5018253" lon="11.3529356"><ele>424.0</ele><time>2026-04-12T08:56:49.155Z</time></trkpt><trkpt lat="43.5019351" lon="11.3529679"><ele>424.0</ele><time>2026-04-12T08:56:50.155Z</time></trkpt><trkpt lat="43.5020613" lon="11.3529858"><ele>424.0</ele><time>2026-04-12T08:56:51.162Z</time></trkpt><trkpt lat="43.502196" lon="11.3530058"><ele>424.75</ele><time>2026-04-12T08:56:52.161Z</time></trkpt><trkpt lat="43.5023155" lon="11.3530251"><ele>425.5</ele><time>2026-04-12T08:56:53.168Z</time></trkpt><trkpt lat="43.5024356" lon="11.3530366"><ele>426.25</ele><time>2026-04-12T08:56:54.163Z</time></trkpt><trkpt lat="43.5025678" lon="11.3530506"><ele>427.0</ele><time>2026-04-12T08:56:55.157Z</time></trkpt><trkpt lat="43.5027006" lon="11.3530675"><ele>427.75</ele><time>2026-04-12T08:56:56.161Z</time></trkpt><trkpt lat="43.5028321" lon="11.3530834"><ele>428.5</ele><time>2026-04-12T08:56:57.165Z</time></trkpt><trkpt lat="43.5029591" lon="11.3531092"><ele>429.25</ele><time>2026-04-12T08:56:58.162Z</time></trkpt><trkpt lat="43.5030702" lon="11.3531248"><ele>430.0</ele><time>2026-04-12T08:56:59.16Z</time></trkpt><trkpt lat="43.5031565" lon="11.3531188"><ele>431.83333333333337</ele><time>2026-04-12T08:57:00.158Z</time></trkpt><trkpt lat="43.5032191" lon="11.3530973"><ele>433.6666666666667</ele><time>2026-04-12T08:57:01.167Z</time></trkpt><trkpt lat="43.5032547" lon="11.3530039"><ele>435.5</ele><time>2026-04-12T08:57:03.16Z</time></trkpt><trkpt lat="43.5032407" lon="11.3529071"><ele>437.33333333333337</ele><time>2026-04-12T08:57:05.167Z</time></trkpt><trkpt lat="43.503244" lon="11.3527715"><ele>439.1666666666667</ele><time>2026-04-12T08:57:07.166Z</time></trkpt><trkpt lat="43.503271" lon="11.352641"><ele>441.0</ele><time>2026-04-12T08:57:09.157Z</time></trkpt><trkpt lat="43.5033336" lon="11.3525133"><ele>441.0</ele><time>2026-04-12T08:57:11.16Z</time></trkpt><trkpt lat="43.5034087" lon="11.352381"><ele>441.0</ele><time>2026-04-12T08:57:13.161Z</time></trkpt><trkpt lat="43.5034499" lon="11.3523087"><ele>441.0</ele><time>2026-04-12T08:57:14.154Z</time></trkpt><trkpt lat="43.5035293" lon="11.3521981"><ele>441.0</ele><time>2026-04-12T08:57:16.165Z</time></trkpt><trkpt lat="43.5036438" lon="11.3521048"><ele>441.0</ele><time>2026-04-12T08:57:18.162Z</time></trkpt><trkpt lat="43.503724" lon="11.3520353"><ele>443.20000000000005</ele><time>2026-04-12T08:57:19.158Z</time></trkpt><trkpt lat="43.5038059" lon="11.3519466"><ele>445.40000000000003</ele><time>2026-04-12T08:57:20.159Z</time></trkpt><trkpt lat="43.5038843" lon="11.3518407"><ele>447.6</ele><time>2026-04-12T08:57:21.158Z</time></trkpt><trkpt lat="43.5039538" lon="11.351723"><ele>449.8</ele><time>2026-04-12T08:57:22.165Z</time></trkpt><trkpt lat="43.5040211" lon="11.3515955"><ele>452.0</ele><time>2026-04-12T08:57:23.162Z</time></trkpt><trkpt lat="43.5040959" lon="11.3514615"><ele>451.0</ele><time>2026-04-12T08:57:24.162Z</time></trkpt><trkpt lat="43.5041688" lon="11.3513197"><ele>450.0</ele><time>2026-04-12T08:57:25.155Z</time></trkpt><trkpt lat="43.5042548" lon="11.351202"><ele>449.0</ele><time>2026-04-12T08:57:26.166Z</time></trkpt><trkpt lat="43.5043541" lon="11.3511112"><ele>448.0</ele><time>2026-04-12T08:57:27.159Z</time></trkpt><trkpt lat="43.5044602" lon="11.3510234"><ele>448.00000000000006</ele><time>2026-04-12T08:57:28.167Z</time></trkpt><trkpt lat="43.5045481" lon="11.3509544"><ele>448.0</ele><time>2026-04-12T08:57:29.166Z</time></trkpt><trkpt lat="43.5046064" lon="11.3509175"><ele>448.0</ele><time>2026-04-12T08:57:30.168Z</time></trkpt><trkpt lat="43.5046832" lon="11.3509253"><ele>448.0</ele><time>2026-04-12T08:57:33.167Z</time></trkpt><trkpt lat="43.5047424" lon="11.351053"><ele>448.00000000000006</ele><time>2026-04-12T08:57:39.167Z</time></trkpt><trkpt lat="43.5047856" lon="11.3511165"><ele>448.0</ele><time>2026-04-12T08:57:40.16Z</time></trkpt><trkpt lat="43.5048505" lon="11.3511895"><ele>449.4</ele><time>2026-04-12T08:57:41.162Z</time></trkpt><trkpt lat="43.5049122" lon="11.3512647"><ele>450.79999999999995</ele><time>2026-04-12T08:57:42.156Z</time></trkpt><trkpt lat="43.504968" lon="11.3513602"><ele>452.2</ele><time>2026-04-12T08:57:43.164Z</time></trkpt><trkpt lat="43.5050189" lon="11.3514836"><ele>453.6</ele><time>2026-04-12T08:57:44.166Z</time></trkpt><trkpt lat="43.5050583" lon="11.3516168"><ele>455.0</ele><time>2026-04-12T08:57:45.167Z</time></trkpt><trkpt lat="43.5050978" lon="11.3517668"><ele>456.49999999999994</ele><time>2026-04-12T08:57:46.167Z</time></trkpt><trkpt lat="43.5051321" lon="11.3519036"><ele>458.0</ele><time>2026-04-12T08:57:47.165Z</time></trkpt><trkpt lat="43.5051698" lon="11.3519989"><ele>459.5</ele><time>2026-04-12T08:57:48.157Z</time></trkpt><trkpt lat="43.5052175" lon="11.3520711"><ele>461.0</ele><time>2026-04-12T08:57:49.163Z</time></trkpt><trkpt lat="43.5052743" lon="11.3521282"><ele>462.49999999999994</ele><time>2026-04-12T08:57:50.162Z</time></trkpt><trkpt lat="43.5053396" lon="11.3521843"><ele>464.0</ele><time>2026-04-12T08:57:51.156Z</time></trkpt><trkpt lat="43.5054227" lon="11.3522487"><ele>466.79999999999995</ele><time>2026-04-12T08:57:52.163Z</time></trkpt><trkpt lat="43.5055077" lon="11.352323"><ele>469.59999999999997</ele><time>2026-04-12T08:57:53.157Z</time></trkpt><trkpt lat="43.5055985" lon="11.3523794"><ele>472.4</ele><time>2026-04-12T08:57:54.16Z</time></trkpt><trkpt lat="43.505704" lon="11.3524257"><ele>475.2</ele><time>2026-04-12T08:57:55.166Z</time></trkpt><trkpt lat="43.5058194" lon="11.3524598"><ele>478.0</ele><time>2026-04-12T08:57:56.158Z</time></trkpt><trkpt lat="43.50591" lon="11.3524867"><ele>478.00000000000006</ele><time>2026-04-12T08:57:57.167Z</time></trkpt><trkpt lat="43.5060059" lon="11.3525047"><ele>478.0</ele><time>2026-04-12T08:57:58.157Z</time></trkpt><trkpt lat="43.5060822" lon="11.3525008"><ele>478.0</ele><time>2026-04-12T08:57:59.158Z</time></trkpt><trkpt lat="43.5061669" lon="11.3524806"><ele>478.0</ele><time>2026-04-12T08:58:00.167Z</time></trkpt><trkpt lat="43.5062572" lon="11.3524543"><ele>478.00000000000006</ele><time>2026-04-12T08:58:01.156Z</time></trkpt><trkpt lat="43.5063477" lon="11.3524341"><ele>478.0</ele><time>2026-04-12T08:58:02.161Z</time></trkpt><trkpt lat="43.5064232" lon="11.352421"><ele>479.1666666666667</ele><time>2026-04-12T08:58:03.156Z</time></trkpt><trkpt lat="43.5064876" lon="11.3524256"><ele>480.33333333333337</ele><time>2026-04-12T08:58:04.162Z</time></trkpt><trkpt lat="43.5065513" lon="11.3524437"><ele>481.5</ele><time>2026-04-12T08:58:05.165Z</time></trkpt><trkpt lat="43.5066737" lon="11.3525271"><ele>482.66666666666663</ele><time>2026-04-12T08:58:07.16Z</time></trkpt><trkpt lat="43.5067486" lon="11.3525691"><ele>483.8333333333333</ele><time>2026-04-12T08:58:08.157Z</time></trkpt><trkpt lat="43.5068229" lon="11.3526284"><ele>485.0</ele><time>2026-04-12T08:58:09.155Z</time></trkpt><trkpt lat="43.5068963" lon="11.3527062"><ele>484.99999999999994</ele><time>2026-04-12T08:58:10.162Z</time></trkpt><trkpt lat="43.506978" lon="11.3527926"><ele>485.0</ele><time>2026-04-12T08:58:11.16Z</time></trkpt><trkpt lat="43.5070524" lon="11.3528619"><ele>485.0</ele><time>2026-04-12T08:58:12.162Z</time></trkpt><trkpt lat="43.5071239" lon="11.3529091"><ele>485.0</ele><time>2026-04-12T08:58:13.163Z</time></trkpt><trkpt lat="43.5072033" lon="11.3529339"><ele>484.99999999999994</ele><time>2026-04-12T08:58:14.169Z</time></trkpt><trkpt lat="43.5072836" lon="11.3529704"><ele>485.0</ele><time>2026-04-12T08:58:15.159Z</time></trkpt><trkpt lat="43.5073682" lon="11.3530089"><ele>486.8</ele><time>2026-04-12T08:58:16.161Z</time></trkpt><trkpt lat="43.5074429" lon="11.3530522"><ele>488.6</ele><time>2026-04-12T08:58:17.156Z</time></trkpt><trkpt lat="43.5075218" lon="11.3531153"><ele>490.4</ele><time>2026-04-12T08:58:18.161Z</time></trkpt><trkpt lat="43.5076105" lon="11.3531578"><ele>492.2</ele><time>2026-04-12T08:58:19.157Z</time></trkpt><trkpt lat="43.5077204" lon="11.3531917"><ele>494.0</ele><time>2026-04-12T08:58:20.168Z</time></trkpt><trkpt lat="43.5078331" lon="11.3532166"><ele>495.0</ele><time>2026-04-12T08:58:21.157Z</time></trkpt><trkpt lat="43.5079555" lon="11.3532306"><ele>496.0</ele><time>2026-04-12T08:58:22.163Z</time></trkpt><trkpt lat="43.5080843" lon="11.3532275"><ele>497.0</ele><time>2026-04-12T08:58:23.162Z</time></trkpt><trkpt lat="43.5082173" lon="11.3532191"><ele>498.0</ele><time>2026-04-12T08:58:24.155Z</time></trkpt><trkpt lat="43.5083391" lon="11.353216"><ele>498.0</ele><time>2026-04-12T08:58:25.166Z</time></trkpt><trkpt lat="43.5084383" lon="11.353199"><ele>497.99999999999994</ele><time>2026-04-12T08:58:26.156Z</time></trkpt><trkpt lat="43.5085247" lon="11.3531912"><ele>497.99999999999994</ele><time>2026-04-12T08:58:27.161Z</time></trkpt><trkpt lat="43.5086092" lon="11.3532131"><ele>498.0</ele><time>2026-04-12T08:58:28.166Z</time></trkpt><trkpt lat="43.5087038" lon="11.3532491"><ele>498.0</ele><time>2026-04-12T08:58:29.155Z</time></trkpt><trkpt lat="43.508805" lon="11.3532934"><ele>500.4</ele><time>2026-04-12T08:58:30.155Z</time></trkpt><trkpt lat="43.5088893" lon="11.3533409"><ele>502.79999999999995</ele><time>2026-04-12T08:58:31.158Z</time></trkpt><trkpt lat="43.5089549" lon="11.3533794"><ele>505.2</ele><time>2026-04-12T08:58:32.163Z</time></trkpt><trkpt lat="43.5090486" lon="11.3535055"><ele>507.6</ele><time>2026-04-12T08:58:34.159Z</time></trkpt><trkpt lat="43.5090907" lon="11.3535834"><ele>510.0</ele><time>2026-04-12T08:58:35.166Z</time></trkpt><trkpt lat="43.5091863" lon="11.353674"><ele>510.0</ele><time>2026-04-12T08:58:37.157Z</time></trkpt><trkpt lat="43.509294" lon="11.3536793"><ele>510.0</ele><time>2026-04-12T08:58:39.159Z</time></trkpt><trkpt lat="43.5093563" lon="11.3536445"><ele>510.0</ele><time>2026-04-12T08:58:40.155Z</time></trkpt><trkpt lat="43.5094307" lon="11.3536046"><ele>510.0</ele><time>2026-04-12T08:58:41.163Z</time></trkpt><trkpt lat="43.5095142" lon="11.353581"><ele>510.0</ele><time>2026-04-12T08:58:42.156Z</time></trkpt><trkpt lat="43.5095936" lon="11.3535619"><ele>510.0</ele><time>2026-04-12T08:58:43.164Z</time></trkpt><trkpt lat="43.5096794" lon="11.353548"><ele>512.5</ele><time>2026-04-12T08:58:44.162Z</time></trkpt><trkpt lat="43.5097736" lon="11.3535473"><ele>515.0</ele><time>2026-04-12T08:58:45.162Z</time></trkpt><trkpt lat="43.5098696" lon="11.3535469"><ele>517.5</ele><time>2026-04-12T08:58:46.167Z</time></trkpt><trkpt lat="43.5099621" lon="11.353532"><ele>520.0</ele><time>2026-04-12T08:58:47.158Z</time></trkpt><trkpt lat="43.5100374" lon="11.3534987"><ele>522.5</ele><time>2026-04-12T08:58:48.163Z</time></trkpt><trkpt lat="43.5101051" lon="11.3534565"><ele>525.0</ele><time>2026-04-12T08:58:49.163Z</time></trkpt><trkpt lat="43.5101751" lon="11.3533959"><ele>525.0</ele><time>2026-04-12T08:58:50.167Z</time></trkpt><trkpt lat="43.5102464" lon="11.353319"><ele>525.0</ele><time>2026-04-12T08:58:51.158Z</time></trkpt><trkpt lat="43.5103218" lon="11.3532252"><ele>525.0</ele><time>2026-04-12T08:58:52.168Z</time></trkpt><trkpt lat="43.5104002" lon="11.3531383"><ele>525.0</ele><time>2026-04-12T08:58:53.167Z</time></trkpt><trkpt lat="43.5104623" lon="11.3530851"><ele>525.0</ele><time>2026-04-12T08:58:54.158Z</time></trkpt><trkpt lat="43.5105703" lon="11.353075"><ele>526.3333333333334</ele><time>2026-04-12T08:58:56.159Z</time></trkpt><trkpt lat="43.5106716" lon="11.3531402"><ele>527.6666666666666</ele><time>2026-04-12T08:58:58.158Z</time></trkpt><trkpt lat="43.5107325" lon="11.3531942"><ele>529.0</ele><time>2026-04-12T08:58:59.167Z</time></trkpt><trkpt lat="43.5108012" lon="11.353248"><ele>530.3333333333333</ele><time>2026-04-12T08:59:00.157Z</time></trkpt><trkpt lat="43.5108728" lon="11.3532963"><ele>531.6666666666666</ele><time>2026-04-12T08:59:01.168Z</time></trkpt><trkpt lat="43.5109441" lon="11.3533441"><ele>533.0</ele><time>2026-04-12T08:59:02.166Z</time></trkpt><trkpt lat="43.5110146" lon="11.353385"><ele>533.0</ele><time>2026-04-12T08:59:03.164Z</time></trkpt><trkpt lat="43.5110821" lon="11.353428"><ele>533.0</ele><time>2026-04-12T08:59:04.157Z</time></trkpt><trkpt lat="43.5111556" lon="11.3534797"><ele>533.0</ele><time>2026-04-12T08:59:05.162Z</time></trkpt><trkpt lat="43.5112379" lon="11.3535411"><ele>533.0</ele><time>2026-04-12T08:59:06.154Z</time></trkpt><trkpt lat="43.5113306" lon="11.3536099"><ele>533.0</ele><time>2026-04-12T08:59:07.166Z</time></trkpt><trkpt lat="43.511426" lon="11.3536823"><ele>533.25</ele><time>2026-04-12T08:59:08.155Z</time></trkpt><trkpt lat="43.5115323" lon="11.3537656"><ele>533.5</ele><time>2026-04-12T08:59:09.165Z</time></trkpt><trkpt lat="43.5116428" lon="11.3538641"><ele>533.75</ele><time>2026-04-12T08:59:10.167Z</time></trkpt><trkpt lat="43.5117553" lon="11.3539557"><ele>534.0</ele><time>2026-04-12T08:59:11.155Z</time></trkpt><trkpt lat="43.5118701" lon="11.3540136"><ele>534.75</ele><time>2026-04-12T08:59:12.157Z</time></trkpt><trkpt lat="43.5119893" lon="11.3540631"><ele>535.5</ele><time>2026-04-12T08:59:13.168Z</time></trkpt><trkpt lat="43.5121092" lon="11.3541296"><ele>536.25</ele><time>2026-04-12T08:59:14.167Z</time></trkpt><trkpt lat="43.5122311" lon="11.3542006"><ele>537.0</ele><time>2026-04-12T08:59:15.161Z</time></trkpt><trkpt lat="43.5123598" lon="11.3542508"><ele>539.75</ele><time>2026-04-12T08:59:16.165Z</time></trkpt><trkpt lat="43.5124879" lon="11.3543121"><ele>542.5</ele><time>2026-04-12T08:59:17.167Z</time></trkpt><trkpt lat="43.5126091" lon="11.3544001"><ele>545.25</ele><time>2026-04-12T08:59:18.166Z</time></trkpt><trkpt lat="43.5127219" lon="11.3544794"><ele>548.0</ele><time>2026-04-12T08:59:19.154Z</time></trkpt><trkpt lat="43.5128476" lon="11.3545351"><ele>549.6666666666666</ele><time>2026-04-12T08:59:20.167Z</time></trkpt><trkpt lat="43.5129935" lon="11.3545773"><ele>551.3333333333334</ele><time>2026-04-12T08:59:21.154Z</time></trkpt><trkpt lat="43.5131503" lon="11.3546134"><ele>553.0</ele><time>2026-04-12T08:59:22.165Z</time></trkpt><trkpt lat="43.5132985" lon="11.3546391"><ele>553.0</ele><time>2026-04-12T08:59:23.165Z</time></trkpt><trkpt lat="43.5134174" lon="11.3546468"><ele>553.0</ele><time>2026-04-12T08:59:24.159Z</time></trkpt><trkpt lat="43.5135127" lon="11.3546409"><ele>553.0</ele><time>2026-04-12T08:59:25.167Z</time></trkpt><trkpt lat="43.5135831" lon="11.3546093"><ele>553.0</ele><time>2026-04-12T08:59:26.16Z</time></trkpt><trkpt lat="43.5136522" lon="11.3545423"><ele>553.0</ele><time>2026-04-12T08:59:27.157Z</time></trkpt><trkpt lat="43.5137372" lon="11.3544449"><ele>551.0</ele><time>2026-04-12T08:59:28.162Z</time></trkpt><trkpt lat="43.5138336" lon="11.354355"><ele>549.0</ele><time>2026-04-12T08:59:29.164Z</time></trkpt><trkpt lat="43.5139369" lon="11.3542987"><ele>547.0</ele><time>2026-04-12T08:59:30.163Z</time></trkpt><trkpt lat="43.5140566" lon="11.3542532"><ele>545.0</ele><time>2026-04-12T08:59:31.157Z</time></trkpt><trkpt lat="43.5141912" lon="11.3542092"><ele>545.0</ele><time>2026-04-12T08:59:32.169Z</time></trkpt><trkpt lat="43.5143314" lon="11.3541571"><ele>545.0</ele><time>2026-04-12T08:59:33.155Z</time></trkpt><trkpt lat="43.5144713" lon="11.354109"><ele>545.0</ele><time>2026-04-12T08:59:34.161Z</time></trkpt><trkpt lat="43.5146022" lon="11.3540709"><ele>545.0</ele><time>2026-04-12T08:59:35.163Z</time></trkpt><trkpt lat="43.514732" lon="11.3540291"><ele>545.75</ele><time>2026-04-12T08:59:36.155Z</time></trkpt><trkpt lat="43.5148595" lon="11.3539876"><ele>546.5</ele><time>2026-04-12T08:59:37.168Z</time></trkpt><trkpt lat="43.51499" lon="11.3539505"><ele>547.25</ele><time>2026-04-12T08:59:38.156Z</time></trkpt><trkpt lat="43.5151314" lon="11.3539136"><ele>548.0</ele><time>2026-04-12T08:59:39.159Z</time></trkpt><trkpt lat="43.5152878" lon="11.3538702"><ele>551.0</ele><time>2026-04-12T08:59:40.161Z</time></trkpt><trkpt lat="43.5154451" lon="11.3538218"><ele>554.0</ele><time>2026-04-12T08:59:41.157Z</time></trkpt><trkpt lat="43.5155992" lon="11.3537745"><ele>557.0</ele><time>2026-04-12T08:59:42.166Z</time></trkpt><trkpt lat="43.5157538" lon="11.3537287"><ele>557.0</ele><time>2026-04-12T08:59:43.161Z</time></trkpt><trkpt lat="43.5159111" lon="11.3536823"><ele>557.0</ele><time>2026-04-12T08:59:44.162Z</time></trkpt><trkpt lat="43.5160741" lon="11.3536369"><ele>557.0</ele><time>2026-04-12T08:59:45.155Z</time></trkpt><trkpt lat="43.5162276" lon="11.3535935"><ele>559.5</ele><time>2026-04-12T08:59:46.157Z</time></trkpt><trkpt lat="43.5163736" lon="11.3535539"><ele>562.0</ele><time>2026-04-12T08:59:47.16Z</time></trkpt><trkpt lat="43.516516" lon="11.353514"><ele>564.5</ele><time>2026-04-12T08:59:48.162Z</time></trkpt><trkpt lat="43.5166543" lon="11.3534774"><ele>567.0</ele><time>2026-04-12T08:59:49.162Z</time></trkpt><trkpt lat="43.5167768" lon="11.3534413"><ele>567.0</ele><time>2026-04-12T08:59:50.166Z</time></trkpt><trkpt lat="43.5168807" lon="11.3534145"><ele>567.0</ele><time>2026-04-12T08:59:51.159Z</time></trkpt><trkpt lat="43.5169661" lon="11.3533927"><ele>567.0</ele><time>2026-04-12T08:59:52.164Z</time></trkpt><trkpt lat="43.5170241" lon="11.35335"><ele>567.0</ele><time>2026-04-12T08:59:53.169Z</time></trkpt><trkpt lat="43.5170486" lon="11.3532445"><ele>567.0</ele><time>2026-04-12T08:59:55.166Z</time></trkpt><trkpt lat="43.5170384" lon="11.353158"><ele>567.0</ele><time>2026-04-12T08:59:56.163Z</time></trkpt><trkpt lat="43.5170303" lon="11.3530452"><ele>568.0</ele><time>2026-04-12T08:59:57.16Z</time></trkpt><trkpt lat="43.5170255" lon="11.3529078"><ele>569.0</ele><time>2026-04-12T08:59:58.159Z</time></trkpt><trkpt lat="43.5170219" lon="11.352759"><ele>570.0</ele><time>2026-04-12T08:59:59.162Z</time></trkpt><trkpt lat="43.5170226" lon="11.3526061"><ele>571.0</ele><time>2026-04-12T09:00:00.165Z</time></trkpt><trkpt lat="43.5170337" lon="11.3524481"><ele>572.0</ele><time>2026-04-12T09:00:01.159Z</time></trkpt><trkpt lat="43.5170539" lon="11.35231"><ele>574.1666666666666</ele><time>2026-04-12T09:00:02.165Z</time></trkpt><trkpt lat="43.5170826" lon="11.352199"><ele>576.3333333333333</ele><time>2026-04-12T09:00:03.158Z</time></trkpt><trkpt lat="43.5171211" lon="11.3521189"><ele>578.5</ele><time>2026-04-12T09:00:04.156Z</time></trkpt><trkpt lat="43.5172431" lon="11.3520595"><ele>580.6666666666666</ele><time>2026-04-12T09:00:06.16Z</time></trkpt><trkpt lat="43.5173221" lon="11.3520634"><ele>582.8333333333334</ele><time>2026-04-12T09:00:07.16Z</time></trkpt><trkpt lat="43.5174074" lon="11.3520748"><ele>585.0</ele><time>2026-04-12T09:00:08.166Z</time></trkpt><trkpt lat="43.5175003" lon="11.3520834"><ele>585.0</ele><time>2026-04-12T09:00:09.165Z</time></trkpt><trkpt lat="43.5175948" lon="11.352082"><ele>585.0</ele><time>2026-04-12T09:00:10.169Z</time></trkpt><trkpt lat="43.5176905" lon="11.3520683"><ele>585.0</ele><time>2026-04-12T09:00:11.156Z</time></trkpt><trkpt lat="43.5177861" lon="11.352044"><ele>585.0</ele><time>2026-04-12T09:00:12.157Z</time></trkpt><trkpt lat="43.5178811" lon="11.3520143"><ele>585.0</ele><time>2026-04-12T09:00:13.168Z</time></trkpt><trkpt lat="43.5179793" lon="11.3519988"><ele>589.25</ele><time>2026-04-12T09:00:14.164Z</time></trkpt><trkpt lat="43.5180831" lon="11.351998"><ele>593.5</ele><time>2026-04-12T09:00:15.161Z</time></trkpt><trkpt lat="43.5181916" lon="11.3519869"><ele>597.75</ele><time>2026-04-12T09:00:16.159Z</time></trkpt><trkpt lat="43.5183094" lon="11.351962"><ele>602.0</ele><time>2026-04-12T09:00:17.167Z</time></trkpt><trkpt lat="43.5184324" lon="11.351925"><ele>602.0</ele><time>2026-04-12T09:00:18.157Z</time></trkpt><trkpt lat="43.5185487" lon="11.3518939"><ele>602.0</ele><time>2026-04-12T09:00:19.163Z</time></trkpt><trkpt lat="43.5186594" lon="11.351878"><ele>602.0</ele><time>2026-04-12T09:00:20.158Z</time></trkpt><trkpt lat="43.5187738" lon="11.3518838"><ele>602.0</ele><time>2026-04-12T09:00:21.167Z</time></trkpt><trkpt lat="43.5188973" lon="11.3519084"><ele>605.5</ele><time>2026-04-12T09:00:22.16Z</time></trkpt><trkpt lat="43.5190243" lon="11.351929"><ele>609.0</ele><time>2026-04-12T09:00:23.165Z</time></trkpt><trkpt lat="43.5191486" lon="11.3519378"><ele>612.5</ele><time>2026-04-12T09:00:24.162Z</time></trkpt><trkpt lat="43.5192709" lon="11.3519437"><ele>616.0</ele><time>2026-04-12T09:00:25.156Z</time></trkpt><trkpt lat="43.5194003" lon="11.3519472"><ele>616.0</ele><time>2026-04-12T09:00:26.164Z</time></trkpt><trkpt lat="43.5195321" lon="11.3519529"><ele>616.0</ele><time>2026-04-12T09:00:27.162Z</time></trkpt><trkpt lat="43.5196685" lon="11.3519667"><ele>616.0</ele><time>2026-04-12T09:00:28.16Z</time></trkpt><trkpt lat="43.5198012" lon="11.3520077"><ele>616.0</ele><time>2026-04-12T09:00:29.156Z</time></trkpt><trkpt lat="43.5199339" lon="11.3520771"><ele>616.0</ele><time>2026-04-12T09:00:30.161Z</time></trkpt><trkpt lat="43.5200566" lon="11.3521776"><ele>616.0</ele><time>2026-04-12T09:00:31.168Z</time></trkpt><trkpt lat="43.5201603" lon="11.3522964"><ele>616.0</ele><time>2026-04-12T09:00:32.168Z</time></trkpt><trkpt lat="43.5202457" lon="11.352423"><ele>616.0</ele><time>2026-04-12T09:00:33.165Z</time></trkpt><trkpt lat="43.5203242" lon="11.352542"><ele>616.0</ele><time>2026-04-12T09:00:34.16Z</time></trkpt><trkpt lat="43.5203984" lon="11.352642"><ele>616.0</ele><time>2026-04-12T09:00:35.168Z</time></trkpt><trkpt lat="43.5204731" lon="11.3527157"><ele>616.0</ele><time>2026-04-12T09:00:36.157Z</time></trkpt><trkpt lat="43.5205566" lon="11.352767"><ele>616.0</ele><time>2026-04-12T09:00:37.157Z</time></trkpt><trkpt lat="43.5206597" lon="11.3527952"><ele>616.0</ele><time>2026-04-12T09:00:38.167Z</time></trkpt><trkpt lat="43.5207843" lon="11.3528173"><ele>616.75</ele><time>2026-04-12T09:00:39.163Z</time></trkpt><trkpt lat="43.5209211" lon="11.3528586"><ele>617.5</ele><time>2026-04-12T09:00:40.168Z</time></trkpt><trkpt lat="43.521051" lon="11.3529204"><ele>618.25</ele><time>2026-04-12T09:00:41.162Z</time></trkpt><trkpt lat="43.521186" lon="11.3530005"><ele>619.0</ele><time>2026-04-12T09:00:42.164Z</time></trkpt><trkpt lat="43.5213303" lon="11.3530931"><ele>619.3333333333334</ele><time>2026-04-12T09:00:43.161Z</time></trkpt><trkpt lat="43.5214687" lon="11.3532027"><ele>619.6666666666666</ele><time>2026-04-12T09:00:44.167Z</time></trkpt><trkpt lat="43.521598" lon="11.3533194"><ele>620.0</ele><time>2026-04-12T09:00:45.156Z</time></trkpt><trkpt lat="43.521711" lon="11.3534227"><ele>620.0</ele><time>2026-04-12T09:00:46.159Z</time></trkpt><trkpt lat="43.5218098" lon="11.3535166"><ele>620.0</ele><time>2026-04-12T09:00:47.159Z</time></trkpt><trkpt lat="43.5218875" lon="11.3535987"><ele>620.0</ele><time>2026-04-12T09:00:48.155Z</time></trkpt><trkpt lat="43.521949" lon="11.3536684"><ele>620.0</ele><time>2026-04-12T09:00:49.156Z</time></trkpt><trkpt lat="43.5220257" lon="11.3537604"><ele>620.0</ele><time>2026-04-12T09:00:51.164Z</time></trkpt><trkpt lat="43.5220816" lon="11.3538106"><ele>619.3333333333333</ele><time>2026-04-12T09:00:55.165Z</time></trkpt><trkpt lat="43.5221627" lon="11.3538116"><ele>618.6666666666666</ele><time>2026-04-12T09:12:47.164Z</time></trkpt><trkpt lat="43.5222555" lon="11.3538446"><ele>618.0</ele><time>2026-04-12T09:13:00.165Z</time></trkpt><trkpt lat="43.5223596" lon="11.3539218"><ele>617.3333333333334</ele><time>2026-04-12T09:13:02.165Z</time></trkpt><trkpt lat="43.5224143" lon="11.3539686"><ele>616.6666666666667</ele><time>2026-04-12T09:13:03.165Z</time></trkpt><trkpt lat="43.5224793" lon="11.3540119"><ele>616.0</ele><time>2026-04-12T09:13:04.165Z</time></trkpt><trkpt lat="43.5225531" lon="11.3540441"><ele>618.5</ele><time>2026-04-12T09:13:05.165Z</time></trkpt><trkpt lat="43.5226319" lon="11.3540605"><ele>621.0</ele><time>2026-04-12T09:13:06.164Z</time></trkpt><trkpt lat="43.5227094" lon="11.3540639"><ele>623.5</ele><time>2026-04-12T09:13:07.165Z</time></trkpt><trkpt lat="43.5227875" lon="11.3540568"><ele>626.0</ele><time>2026-04-12T09:13:08.165Z</time></trkpt><trkpt lat="43.5228773" lon="11.3540339"><ele>628.5</ele><time>2026-04-12T09:13:09.164Z</time></trkpt><trkpt lat="43.5229807" lon="11.3539977"><ele>631.0</ele><time>2026-04-12T09:13:10.164Z</time></trkpt><trkpt lat="43.5230874" lon="11.3539418"><ele>628.6</ele><time>2026-04-12T09:13:11.164Z</time></trkpt><trkpt lat="43.5231887" lon="11.3538607"><ele>626.2</ele><time>2026-04-12T09:13:12.165Z</time></trkpt><trkpt lat="43.5232864" lon="11.3537701"><ele>623.8</ele><time>2026-04-12T09:13:13.165Z</time></trkpt><trkpt lat="43.5233784" lon="11.3536896"><ele>621.4</ele><time>2026-04-12T09:13:14.165Z</time></trkpt><trkpt lat="43.5234722" lon="11.3536275"><ele>619.0</ele><time>2026-04-12T09:13:15.165Z</time></trkpt><trkpt lat="43.5235716" lon="11.3535747"><ele>619.0</ele><time>2026-04-12T09:13:16.164Z</time></trkpt><trkpt lat="43.5236814" lon="11.3535301"><ele>619.0</ele><time>2026-04-12T09:13:17.165Z</time></trkpt><trkpt lat="43.5237834" lon="11.3535112"><ele>619.0</ele><time>2026-04-12T09:13:18.165Z</time></trkpt><trkpt lat="43.523871" lon="11.3535146"><ele>619.0</ele><time>2026-04-12T09:13:19.165Z</time></trkpt><trkpt lat="43.5239435" lon="11.3535639"><ele>619.0</ele><time>2026-04-12T09:13:20.165Z</time></trkpt><trkpt lat="43.5239931" lon="11.3536461"><ele>619.6</ele><time>2026-04-12T09:13:21.164Z</time></trkpt><trkpt lat="43.5240343" lon="11.3537455"><ele>620.2</ele><time>2026-04-12T09:13:22.165Z</time></trkpt><trkpt lat="43.5240637" lon="11.3538774"><ele>620.8000000000001</ele><time>2026-04-12T09:13:23.164Z</time></trkpt><trkpt lat="43.524095" lon="11.354022"><ele>621.4</ele><time>2026-04-12T09:13:24.164Z</time></trkpt><trkpt lat="43.5241197" lon="11.3541748"><ele>622.0</ele><time>2026-04-12T09:13:25.164Z</time></trkpt><trkpt lat="43.5241376" lon="11.3543099"><ele>624.8000000000001</ele><time>2026-04-12T09:13:26.165Z</time></trkpt><trkpt lat="43.5241676" lon="11.354424"><ele>627.6</ele><time>2026-04-12T09:13:27.164Z</time></trkpt><trkpt lat="43.5242174" lon="11.35452"><ele>630.4000000000001</ele><time>2026-04-12T09:13:28.165Z</time></trkpt><trkpt lat="43.524288" lon="11.3545936"><ele>633.2</ele><time>2026-04-12T09:13:29.165Z</time></trkpt><trkpt lat="43.5243788" lon="11.3546434"><ele>636.0</ele><time>2026-04-12T09:13:30.165Z</time></trkpt><trkpt lat="43.5244796" lon="11.3546788"><ele>638.25</ele><time>2026-04-12T09:13:31.164Z</time></trkpt><trkpt lat="43.5245802" lon="11.3547193"><ele>640.5</ele><time>2026-04-12T09:13:32.164Z</time></trkpt><trkpt lat="43.5246877" lon="11.3547788"><ele>642.75</ele><time>2026-04-12T09:13:33.165Z</time></trkpt><trkpt lat="43.5247983" lon="11.3548261"><ele>645.0</ele><time>2026-04-12T09:13:34.165Z</time></trkpt><trkpt lat="43.5249178" lon="11.3548673"><ele>645.0</ele><time>2026-04-12T09:13:35.165Z</time></trkpt><trkpt lat="43.5250474" lon="11.3548833"><ele>645.0</ele><time>2026-04-12T09:13:36.165Z</time></trkpt><trkpt lat="43.5251728" lon="11.3548812"><ele>645.0</ele><time>2026-04-12T09:13:37.165Z</time></trkpt><trkpt lat="43.5252931" lon="11.3548924"><ele>645.0</ele><time>2026-04-12T09:13:38.164Z</time></trkpt><trkpt lat="43.5254169" lon="11.3549369"><ele>645.0</ele><time>2026-04-12T09:13:39.165Z</time></trkpt><trkpt lat="43.52554" lon="11.3549895"><ele>645.0</ele><time>2026-04-12T09:13:40.165Z</time></trkpt><trkpt lat="43.5256643" lon="11.3550584"><ele>645.0</ele><time>2026-04-12T09:13:41.165Z</time></trkpt><trkpt lat="43.5257934" lon="11.3551246"><ele>645.0</ele><time>2026-04-12T09:13:42.164Z</time></trkpt><trkpt lat="43.5259215" lon="11.3551956"><ele>645.0</ele><time>2026-04-12T09:13:43.165Z</time></trkpt><trkpt lat="43.5260496" lon="11.3552584"><ele>645.0</ele><time>2026-04-12T09:13:44.165Z</time></trkpt><trkpt lat="43.5261851" lon="11.3553221"><ele>645.0</ele><time>2026-04-12T09:13:45.165Z</time></trkpt><trkpt lat="43.526332" lon="11.3553909"><ele>645.0</ele><time>2026-04-12T09:13:46.164Z</time></trkpt><trkpt lat="43.5264721" lon="11.3554579"><ele>644.75</ele><time>2026-04-12T09:13:47.165Z</time></trkpt><trkpt lat="43.5266006" lon="11.3555259"><ele>644.5</ele><time>2026-04-12T09:13:48.165Z</time></trkpt><trkpt lat="43.5267227" lon="11.3555932"><ele>644.25</ele><time>2026-04-12T09:13:49.165Z</time></trkpt><trkpt lat="43.5268388" lon="11.3556364"><ele>644.0</ele><time>2026-04-12T09:13:50.165Z</time></trkpt><trkpt lat="43.5269707" lon="11.3556449"><ele>648.0</ele><time>2026-04-12T09:13:51.165Z</time></trkpt><trkpt lat="43.5271081" lon="11.35563"><ele>652.0</ele><time>2026-04-12T09:13:52.165Z</time></trkpt><trkpt lat="43.5272492" lon="11.3556176"><ele>656.0</ele><time>2026-04-12T09:13:53.165Z</time></trkpt><trkpt lat="43.5273945" lon="11.3556237"><ele>660.0</ele><time>2026-04-12T09:13:54.164Z</time></trkpt><trkpt lat="43.5275347" lon="11.355649"><ele>660.0</ele><time>2026-04-12T09:13:55.165Z</time></trkpt><trkpt lat="43.5276533" lon="11.3556696"><ele>660.0</ele><time>2026-04-12T09:13:56.165Z</time></trkpt><trkpt lat="43.5277677" lon="11.3556931"><ele>660.0</ele><time>2026-04-12T09:13:57.165Z</time></trkpt><trkpt lat="43.5278677" lon="11.3557134"><ele>660.0</ele><time>2026-04-12T09:13:58.164Z</time></trkpt><trkpt lat="43.5279558" lon="11.355731"><ele>660.0</ele><time>2026-04-12T09:13:59.165Z</time></trkpt><trkpt lat="43.5280398" lon="11.3557492"><ele>660.8</ele><time>2026-04-12T09:14:00.164Z</time></trkpt><trkpt lat="43.5281325" lon="11.355817"><ele>661.6</ele><time>2026-04-12T09:14:02.165Z</time></trkpt><trkpt lat="43.5281307" lon="11.3559343"><ele>662.4000000000001</ele><time>2026-04-12T09:14:05.165Z</time></trkpt><trkpt lat="43.5280536" lon="11.3560905"><ele>663.2</ele><time>2026-04-12T09:14:07.165Z</time></trkpt><trkpt lat="43.5280065" lon="11.3561844"><ele>664.0</ele><time>2026-04-12T09:14:08.165Z</time></trkpt><trkpt lat="43.5279623" lon="11.3562848"><ele>665.8000000000001</ele><time>2026-04-12T09:14:09.164Z</time></trkpt><trkpt lat="43.5279114" lon="11.3563916"><ele>667.6</ele><time>2026-04-12T09:14:10.165Z</time></trkpt><trkpt lat="43.5278597" lon="11.3564957"><ele>669.4</ele><time>2026-04-12T09:14:11.165Z</time></trkpt><trkpt lat="43.5278062" lon="11.3566131"><ele>671.2</ele><time>2026-04-12T09:14:12.165Z</time></trkpt><trkpt lat="43.5277517" lon="11.3567376"><ele>673.0</ele><time>2026-04-12T09:14:13.165Z</time></trkpt><trkpt lat="43.5276962" lon="11.3568654"><ele>673.4</ele><time>2026-04-12T09:14:14.164Z</time></trkpt><trkpt lat="43.5276387" lon="11.3570017"><ele>673.8</ele><time>2026-04-12T09:14:15.164Z</time></trkpt><trkpt lat="43.5275856" lon="11.3571401"><ele>674.2</ele><time>2026-04-12T09:14:16.165Z</time></trkpt><trkpt lat="43.5275425" lon="11.357276"><ele>674.6</ele><time>2026-04-12T09:14:17.165Z</time></trkpt><trkpt lat="43.527517" lon="11.3574227"><ele>675.0</ele><time>2026-04-12T09:14:18.165Z</time></trkpt><trkpt lat="43.5275106" lon="11.3575722"><ele>675.5</ele><time>2026-04-12T09:14:19.165Z</time></trkpt><trkpt lat="43.5275162" lon="11.3577286"><ele>676.0</ele><time>2026-04-12T09:14:20.165Z</time></trkpt><trkpt lat="43.5275277" lon="11.3578915"><ele>676.5</ele><time>2026-04-12T09:14:21.165Z</time></trkpt><trkpt lat="43.5275307" lon="11.3580552"><ele>677.0</ele><time>2026-04-12T09:14:22.165Z</time></trkpt><trkpt lat="43.5275118" lon="11.35822"><ele>677.25</ele><time>2026-04-12T09:14:23.164Z</time></trkpt><trkpt lat="43.5274754" lon="11.3583792"><ele>677.5</ele><time>2026-04-12T09:14:24.165Z</time></trkpt><trkpt lat="43.5274224" lon="11.3585374"><ele>677.75</ele><time>2026-04-12T09:14:25.165Z</time></trkpt><trkpt lat="43.5273536" lon="11.3586884"><ele>678.0</ele><time>2026-04-12T09:14:26.165Z</time></trkpt><trkpt lat="43.5272748" lon="11.3588249"><ele>676.5</ele><time>2026-04-12T09:14:27.165Z</time></trkpt><trkpt lat="43.52718" lon="11.3589393"><ele>675.0</ele><time>2026-04-12T09:14:28.165Z</time></trkpt><trkpt lat="43.5270704" lon="11.3590609"><ele>673.5</ele><time>2026-04-12T09:14:29.164Z</time></trkpt><trkpt lat="43.5269406" lon="11.3591791"><ele>672.0</ele><time>2026-04-12T09:14:30.165Z</time></trkpt><trkpt lat="43.5268081" lon="11.3593093"><ele>676.3333333333334</ele><time>2026-04-12T09:14:31.165Z</time></trkpt><trkpt lat="43.5266814" lon="11.3594482"><ele>680.6666666666667</ele><time>2026-04-12T09:14:32.165Z</time></trkpt><trkpt lat="43.5265596" lon="11.3596071"><ele>685.0</ele><time>2026-04-12T09:14:33.165Z</time></trkpt><trkpt lat="43.5264427" lon="11.3597783"><ele>685.0</ele><time>2026-04-12T09:14:34.165Z</time></trkpt><trkpt lat="43.5263389" lon="11.3599364"><ele>685.0</ele><time>2026-04-12T09:14:35.165Z</time></trkpt><trkpt lat="43.5262358" lon="11.3600891"><ele>685.0</ele><time>2026-04-12T09:14:36.165Z</time></trkpt><trkpt lat="43.5261312" lon="11.3602305"><ele>686.25</ele><time>2026-04-12T09:14:37.165Z</time></trkpt><trkpt lat="43.5260331" lon="11.3603694"><ele>687.5</ele><time>2026-04-12T09:14:38.165Z</time></trkpt><trkpt lat="43.5259425" lon="11.360511"><ele>688.75</ele><time>2026-04-12T09:14:39.165Z</time></trkpt><trkpt lat="43.5258678" lon="11.3606622"><ele>690.0</ele><time>2026-04-12T09:14:40.165Z</time></trkpt><trkpt lat="43.5258211" lon="11.3608256"><ele>690.0</ele><time>2026-04-12T09:14:41.165Z</time></trkpt><trkpt lat="43.525797" lon="11.3609976"><ele>690.0</ele><time>2026-04-12T09:14:42.165Z</time></trkpt><trkpt lat="43.5257921" lon="11.3611702"><ele>690.0</ele><time>2026-04-12T09:14:43.165Z</time></trkpt><trkpt lat="43.5258025" lon="11.3613386"><ele>690.0</ele><time>2026-04-12T09:14:44.165Z</time></trkpt><trkpt lat="43.5258128" lon="11.3615265"><ele>690.75</ele><time>2026-04-12T09:14:45.164Z</time></trkpt><trkpt lat="43.5258282" lon="11.3617163"><ele>691.5</ele><time>2026-04-12T09:14:46.165Z</time></trkpt><trkpt lat="43.525849" lon="11.3619185"><ele>692.25</ele><time>2026-04-12T09:14:47.165Z</time></trkpt><trkpt lat="43.5258691" lon="11.3621195"><ele>693.0</ele><time>2026-04-12T09:14:48.165Z</time></trkpt><trkpt lat="43.525885" lon="11.3623094"><ele>693.75</ele><time>2026-04-12T09:14:49.165Z</time></trkpt><trkpt lat="43.5259023" lon="11.3624861"><ele>694.5</ele><time>2026-04-12T09:14:50.164Z</time></trkpt><trkpt lat="43.5259157" lon="11.3626603"><ele>695.25</ele><time>2026-04-12T09:14:51.165Z</time></trkpt><trkpt lat="43.5259362" lon="11.3628346"><ele>696.0</ele><time>2026-04-12T09:14:52.165Z</time></trkpt><trkpt lat="43.5259523" lon="11.3630194"><ele>695.25</ele><time>2026-04-12T09:14:53.164Z</time></trkpt><trkpt lat="43.5259709" lon="11.3632147"><ele>694.5</ele><time>2026-04-12T09:14:54.164Z</time></trkpt><trkpt lat="43.5259865" lon="11.3634071"><ele>693.75</ele><time>2026-04-12T09:14:55.165Z</time></trkpt><trkpt lat="43.5260111" lon="11.3635963"><ele>693.0</ele><time>2026-04-12T09:14:56.165Z</time></trkpt><trkpt lat="43.5260416" lon="11.3637808"><ele>693.0</ele><time>2026-04-12T09:14:57.165Z</time></trkpt><trkpt lat="43.5260902" lon="11.3639526"><ele>693.0</ele><time>2026-04-12T09:14:58.165Z</time></trkpt><trkpt lat="43.5261568" lon="11.3641217"><ele>693.0</ele><time>2026-04-12T09:14:59.165Z</time></trkpt><trkpt lat="43.5262432" lon="11.3642823"><ele>693.0</ele><time>2026-04-12T09:15:00.165Z</time></trkpt><trkpt lat="43.5263338" lon="11.3644332"><ele>693.0</ele><time>2026-04-12T09:15:01.164Z</time></trkpt><trkpt lat="43.526409" lon="11.36456"><ele>693.0</ele><time>2026-04-12T09:15:02.165Z</time></trkpt><trkpt lat="43.5264627" lon="11.3646648"><ele>693.0</ele><time>2026-04-12T09:15:03.165Z</time></trkpt><trkpt lat="43.5265149" lon="11.3647465"><ele>693.0</ele><time>2026-04-12T09:15:04.165Z</time></trkpt><trkpt lat="43.5265651" lon="11.364799"><ele>693.0</ele><time>2026-04-12T09:15:05.165Z</time></trkpt><trkpt lat="43.5266358" lon="11.364885"><ele>693.0</ele><time>2026-04-12T09:15:07.164Z</time></trkpt><trkpt lat="43.5266652" lon="11.3649687"><ele>694.5999999999999</ele><time>2026-04-12T09:15:28.165Z</time></trkpt><trkpt lat="43.5267183" lon="11.3651155"><ele>696.1999999999999</ele><time>2026-04-12T09:15:30.165Z</time></trkpt><trkpt lat="43.5267486" lon="11.3652157"><ele>697.8</ele><time>2026-04-12T09:15:31.165Z</time></trkpt><trkpt lat="43.5267885" lon="11.365327"><ele>699.4</ele><time>2026-04-12T09:15:32.164Z</time></trkpt><trkpt lat="43.5268444" lon="11.3654391"><ele>701.0</ele><time>2026-04-12T09:15:33.164Z</time></trkpt><trkpt lat="43.5269154" lon="11.3655532"><ele>701.8</ele><time>2026-04-12T09:15:34.164Z</time></trkpt><trkpt lat="43.5269833" lon="11.3656733"><ele>702.5999999999999</ele><time>2026-04-12T09:15:35.164Z</time></trkpt><trkpt lat="43.5270328" lon="11.3658006"><ele>703.4</ele><time>2026-04-12T09:15:36.165Z</time></trkpt><trkpt lat="43.5270759" lon="11.3659262"><ele>704.2</ele><time>2026-04-12T09:15:37.165Z</time></trkpt><trkpt lat="43.5271151" lon="11.3660372"><ele>705.0</ele><time>2026-04-12T09:15:38.165Z</time></trkpt><trkpt lat="43.5271496" lon="11.3661456"><ele>705.5</ele><time>2026-04-12T09:15:39.165Z</time></trkpt><trkpt lat="43.5271876" lon="11.3662485"><ele>706.0</ele><time>2026-04-12T09:15:40.165Z</time></trkpt><trkpt lat="43.5272317" lon="11.3663561"><ele>706.5</ele><time>2026-04-12T09:15:41.165Z</time></trkpt><trkpt lat="43.5272687" lon="11.3664592"><ele>707.0</ele><time>2026-04-12T09:15:42.165Z</time></trkpt><trkpt lat="43.5273097" lon="11.3665677"><ele>707.5</ele><time>2026-04-12T09:15:43.165Z</time></trkpt><trkpt lat="43.5273519" lon="11.3666779"><ele>708.0</ele><time>2026-04-12T09:15:44.164Z</time></trkpt><trkpt lat="43.5274026" lon="11.3667838"><ele>709.4</ele><time>2026-04-12T09:15:45.165Z</time></trkpt><trkpt lat="43.5274455" lon="11.3668944"><ele>710.8</ele><time>2026-04-12T09:15:46.165Z</time></trkpt><trkpt lat="43.5274825" lon="11.3670173"><ele>712.2</ele><time>2026-04-12T09:15:47.165Z</time></trkpt><trkpt lat="43.5275253" lon="11.3671368"><ele>713.6</ele><time>2026-04-12T09:15:48.165Z</time></trkpt><trkpt lat="43.5275743" lon="11.3672623"><ele>715.0</ele><time>2026-04-12T09:15:49.164Z</time></trkpt><trkpt lat="43.5276329" lon="11.367377"><ele>715.6</ele><time>2026-04-12T09:15:50.164Z</time></trkpt><trkpt lat="43.5277013" lon="11.3674889"><ele>716.2</ele><time>2026-04-12T09:15:51.165Z</time></trkpt><trkpt lat="43.5277642" lon="11.3676024"><ele>716.8</ele><time>2026-04-12T09:15:52.165Z</time></trkpt><trkpt lat="43.527822" lon="11.3677193"><ele>717.4</ele><time>2026-04-12T09:15:53.165Z</time></trkpt><trkpt lat="43.5278703" lon="11.3678227"><ele>718.0</ele><time>2026-04-12T09:15:54.165Z</time></trkpt><trkpt lat="43.5279141" lon="11.3679076"><ele>718.2857142857143</ele><time>2026-04-12T09:15:55.165Z</time></trkpt><trkpt lat="43.5279496" lon="11.3679995"><ele>718.5714285714287</ele><time>2026-04-12T09:15:56.165Z</time></trkpt><trkpt lat="43.5279877" lon="11.3680832"><ele>718.8571428571429</ele><time>2026-04-12T09:15:57.164Z</time></trkpt><trkpt lat="43.5280301" lon="11.368175"><ele>719.1428571428571</ele><time>2026-04-12T09:15:58.165Z</time></trkpt><trkpt lat="43.5280775" lon="11.3682546"><ele>719.4285714285714</ele><time>2026-04-12T09:15:59.165Z</time></trkpt><trkpt lat="43.5281233" lon="11.368321"><ele>719.7142857142857</ele><time>2026-04-12T09:16:00.164Z</time></trkpt><trkpt lat="43.5281761" lon="11.3683752"><ele>720.0</ele><time>2026-04-12T09:16:01.165Z</time></trkpt><trkpt lat="43.5282431" lon="11.3684259"><ele>721.4285714285714</ele><time>2026-04-12T09:16:02.164Z</time></trkpt><trkpt lat="43.5283089" lon="11.3684744"><ele>722.8571428571429</ele><time>2026-04-12T09:16:03.165Z</time></trkpt><trkpt lat="43.5283711" lon="11.3685341"><ele>724.2857142857143</ele><time>2026-04-12T09:16:04.165Z</time></trkpt><trkpt lat="43.5284235" lon="11.3686005"><ele>725.7142857142858</ele><time>2026-04-12T09:16:05.165Z</time></trkpt><trkpt lat="43.5284694" lon="11.3686716"><ele>727.1428571428571</ele><time>2026-04-12T09:16:06.165Z</time></trkpt><trkpt lat="43.5285154" lon="11.3687489"><ele>728.5714285714287</ele><time>2026-04-12T09:16:07.165Z</time></trkpt><trkpt lat="43.5285577" lon="11.3688149"><ele>730.0</ele><time>2026-04-12T09:16:08.165Z</time></trkpt><trkpt lat="43.5286011" lon="11.3688921"><ele>731.0000000000001</ele><time>2026-04-12T09:16:09.165Z</time></trkpt><trkpt lat="43.5286413" lon="11.368967"><ele>732.0</ele><time>2026-04-12T09:16:10.165Z</time></trkpt><trkpt lat="43.5286867" lon="11.3690295"><ele>733.0</ele><time>2026-04-12T09:16:11.165Z</time></trkpt><trkpt lat="43.5287421" lon="11.3690948"><ele>734.0</ele><time>2026-04-12T09:16:12.165Z</time></trkpt><trkpt lat="43.528782" lon="11.3691805"><ele>735.0</ele><time>2026-04-12T09:16:13.165Z</time></trkpt><trkpt lat="43.5288031" lon="11.3692836"><ele>736.0000000000001</ele><time>2026-04-12T09:16:14.165Z</time></trkpt><trkpt lat="43.5288242" lon="11.3693988"><ele>737.0</ele><time>2026-04-12T09:16:15.165Z</time></trkpt><trkpt lat="43.5288672" lon="11.3695173"><ele>738.0</ele><time>2026-04-12T09:16:16.164Z</time></trkpt><trkpt lat="43.5289188" lon="11.3696295"><ele>739.0</ele><time>2026-04-12T09:16:17.164Z</time></trkpt><trkpt lat="43.5289652" lon="11.3697199"><ele>740.0</ele><time>2026-04-12T09:16:18.164Z</time></trkpt><trkpt lat="43.5290018" lon="11.369823"><ele>741.0</ele><time>2026-04-12T09:16:19.165Z</time></trkpt><trkpt lat="43.5290378" lon="11.3699773"><ele>742.0</ele><time>2026-04-12T09:16:21.165Z</time></trkpt><trkpt lat="43.529077" lon="11.3700483"><ele>743.0</ele><time>2026-04-12T09:16:22.165Z</time></trkpt><trkpt lat="43.5291267" lon="11.3701348"><ele>744.5</ele><time>2026-04-12T09:16:23.165Z</time></trkpt><trkpt lat="43.5291705" lon="11.370211"><ele>746.0</ele><time>2026-04-12T09:16:24.164Z</time></trkpt><trkpt lat="43.5292064" lon="11.3702974"><ele>747.5</ele><time>2026-04-12T09:16:25.165Z</time></trkpt><trkpt lat="43.5292343" lon="11.3704056"><ele>749.0</ele><time>2026-04-12T09:16:26.165Z</time></trkpt><trkpt lat="43.529252" lon="11.3705366"><ele>750.5</ele><time>2026-04-12T09:16:27.164Z</time></trkpt><trkpt lat="43.5292623" lon="11.3706479"><ele>752.0</ele><time>2026-04-12T09:16:28.165Z</time></trkpt><trkpt lat="43.5292751" lon="11.3707514"><ele>753.0</ele><time>2026-04-12T09:16:29.165Z</time></trkpt><trkpt lat="43.5292883" lon="11.3708417"><ele>754.0</ele><time>2026-04-12T09:16:30.164Z</time></trkpt><trkpt lat="43.5292962" lon="11.3709358"><ele>755.0</ele><time>2026-04-12T09:16:31.165Z</time></trkpt><trkpt lat="43.5293036" lon="11.371038"><ele>756.0</ele><time>2026-04-12T09:16:32.165Z</time></trkpt><trkpt lat="43.5293266" lon="11.3711467"><ele>757.0</ele><time>2026-04-12T09:16:33.165Z</time></trkpt><trkpt lat="43.5293557" lon="11.3712702"><ele>758.0</ele><time>2026-04-12T09:16:34.165Z</time></trkpt><trkpt lat="43.5293803" lon="11.3713958"><ele>758.8333333333333</ele><time>2026-04-12T09:16:35.165Z</time></trkpt><trkpt lat="43.5294" lon="11.3715277"><ele>759.6666666666666</ele><time>2026-04-12T09:16:36.164Z</time></trkpt><trkpt lat="43.5294157" lon="11.3716493"><ele>760.5</ele><time>2026-04-12T09:16:37.165Z</time></trkpt><trkpt lat="43.5294388" lon="11.3717711"><ele>761.3333333333334</ele><time>2026-04-12T09:16:38.165Z</time></trkpt><trkpt lat="43.5294598" lon="11.3718868"><ele>762.1666666666667</ele><time>2026-04-12T09:16:39.165Z</time></trkpt><trkpt lat="43.5294739" lon="11.3719905"><ele>763.0</ele><time>2026-04-12T09:16:40.165Z</time></trkpt><trkpt lat="43.529489" lon="11.3721104"><ele>763.2</ele><time>2026-04-12T09:16:41.165Z</time></trkpt><trkpt lat="43.5295124" lon="11.3722466"><ele>763.4</ele><time>2026-04-12T09:16:42.164Z</time></trkpt><trkpt lat="43.5295463" lon="11.3723697"><ele>763.6</ele><time>2026-04-12T09:16:43.165Z</time></trkpt><trkpt lat="43.5295842" lon="11.3724979"><ele>763.8000000000001</ele><time>2026-04-12T09:16:44.165Z</time></trkpt><trkpt lat="43.5296311" lon="11.372608"><ele>764.0</ele><time>2026-04-12T09:16:45.165Z</time></trkpt><trkpt lat="43.529687" lon="11.3727151"><ele>765.6</ele><time>2026-04-12T09:16:46.165Z</time></trkpt><trkpt lat="43.5297551" lon="11.3728323"><ele>767.2</ele><time>2026-04-12T09:16:47.164Z</time></trkpt><trkpt lat="43.5298168" lon="11.3729414"><ele>768.8000000000001</ele><time>2026-04-12T09:16:48.165Z</time></trkpt><trkpt lat="43.5298812" lon="11.3730145"><ele>770.4000000000001</ele><time>2026-04-12T09:16:49.165Z</time></trkpt><trkpt lat="43.5299554" lon="11.3730779"><ele>772.0</ele><time>2026-04-12T09:16:50.164Z</time></trkpt><trkpt lat="43.5300411" lon="11.3731435"><ele>773.0</ele><time>2026-04-12T09:16:51.164Z</time></trkpt><trkpt lat="43.5301269" lon="11.3732047"><ele>774.0</ele><time>2026-04-12T09:16:52.164Z</time></trkpt><trkpt lat="43.5302184" lon="11.3732585"><ele>775.0</ele><time>2026-04-12T09:16:53.164Z</time></trkpt><trkpt lat="43.5302969" lon="11.3732982"><ele>776.0</ele><time>2026-04-12T09:16:54.165Z</time></trkpt><trkpt lat="43.5303583" lon="11.3733285"><ele>777.0</ele><time>2026-04-12T09:16:55.165Z</time></trkpt><trkpt lat="43.5304357" lon="11.373439"><ele>777.0</ele><time>2026-04-12T09:16:57.164Z</time></trkpt><trkpt lat="43.5304705" lon="11.3735146"><ele>777.0</ele><time>2026-04-12T09:16:58.165Z</time></trkpt><trkpt lat="43.5305174" lon="11.3736"><ele>777.0</ele><time>2026-04-12T09:17:00.165Z</time></trkpt><trkpt lat="43.5305446" lon="11.3737082"><ele>777.0</ele><time>2026-04-12T09:17:37.164Z</time></trkpt><trkpt lat="43.5305876" lon="11.3738454"><ele>777.0</ele><time>2026-04-12T09:17:39.165Z</time></trkpt><trkpt lat="43.5306155" lon="11.3739272"><ele>777.0</ele><time>2026-04-12T09:17:40.165Z</time></trkpt><trkpt lat="43.5306382" lon="11.3740206"><ele>778.8333333333334</ele><time>2026-04-12T09:17:41.165Z</time></trkpt><trkpt lat="43.5306727" lon="11.3741105"><ele>780.6666666666667</ele><time>2026-04-12T09:17:42.164Z</time></trkpt><trkpt lat="43.5307095" lon="11.3741965"><ele>782.5</ele><time>2026-04-12T09:17:43.164Z</time></trkpt><trkpt lat="43.5307335" lon="11.374287"><ele>784.3333333333334</ele><time>2026-04-12T09:17:44.165Z</time></trkpt><trkpt lat="43.5307563" lon="11.3743911"><ele>786.1666666666667</ele><time>2026-04-12T09:17:45.165Z</time></trkpt><trkpt lat="43.5307656" lon="11.3745016"><ele>788.0</ele><time>2026-04-12T09:17:46.165Z</time></trkpt><trkpt lat="43.530767" lon="11.3746175"><ele>789.5000000000001</ele><time>2026-04-12T09:17:47.165Z</time></trkpt><trkpt lat="43.5307826" lon="11.3747446"><ele>791.0</ele><time>2026-04-12T09:17:48.165Z</time></trkpt><trkpt lat="43.5307938" lon="11.3748489"><ele>792.5</ele><time>2026-04-12T09:17:49.164Z</time></trkpt><trkpt lat="43.5308046" lon="11.3749393"><ele>794.0</ele><time>2026-04-12T09:17:50.165Z</time></trkpt><trkpt lat="43.5308173" lon="11.3750426"><ele>795.5000000000001</ele><time>2026-04-12T09:17:51.165Z</time></trkpt><trkpt lat="43.5308329" lon="11.3751676"><ele>797.0</ele><time>2026-04-12T09:17:52.165Z</time></trkpt><trkpt lat="43.5308348" lon="11.3752978"><ele>797.0000000000001</ele><time>2026-04-12T09:17:53.164Z</time></trkpt><trkpt lat="43.5308166" lon="11.3754232"><ele>797.0</ele><time>2026-04-12T09:17:54.165Z</time></trkpt><trkpt lat="43.5307944" lon="11.3755424"><ele>797.0</ele><time>2026-04-12T09:17:55.165Z</time></trkpt><trkpt lat="43.5307881" lon="11.375666"><ele>797.0</ele><time>2026-04-12T09:17:56.165Z</time></trkpt><trkpt lat="43.5307978" lon="11.3757802"><ele>797.0000000000001</ele><time>2026-04-12T09:17:57.165Z</time></trkpt><trkpt lat="43.5308096" lon="11.3758933"><ele>797.0</ele><time>2026-04-12T09:17:58.165Z</time></trkpt><trkpt lat="43.5308185" lon="11.376017"><ele>798.6</ele><time>2026-04-12T09:17:59.165Z</time></trkpt><trkpt lat="43.5308358" lon="11.376144"><ele>800.2</ele><time>2026-04-12T09:18:00.164Z</time></trkpt><trkpt lat="43.5308696" lon="11.3762868"><ele>801.8</ele><time>2026-04-12T09:18:01.164Z</time></trkpt><trkpt lat="43.5309223" lon="11.3764347"><ele>803.4</ele><time>2026-04-12T09:18:02.164Z</time></trkpt><trkpt lat="43.5309681" lon="11.3765684"><ele>805.0</ele><time>2026-04-12T09:18:03.165Z</time></trkpt><trkpt lat="43.5310134" lon="11.3766898"><ele>806.6</ele><time>2026-04-12T09:18:04.165Z</time></trkpt><trkpt lat="43.5310551" lon="11.3768099"><ele>808.2</ele><time>2026-04-12T09:18:05.165Z</time></trkpt><trkpt lat="43.5311081" lon="11.3769466"><ele>809.8</ele><time>2026-04-12T09:18:06.165Z</time></trkpt><trkpt lat="43.5311655" lon="11.3770841"><ele>811.4</ele><time>2026-04-12T09:18:07.165Z</time></trkpt><trkpt lat="43.5312264" lon="11.377186"><ele>813.0</ele><time>2026-04-12T09:18:08.165Z</time></trkpt><trkpt lat="43.531288" lon="11.3772975"><ele>813.2</ele><time>2026-04-12T09:18:09.165Z</time></trkpt><trkpt lat="43.5313509" lon="11.3774126"><ele>813.4</ele><time>2026-04-12T09:18:10.165Z</time></trkpt><trkpt lat="43.531425" lon="11.3775282"><ele>813.6</ele><time>2026-04-12T09:18:11.165Z</time></trkpt><trkpt lat="43.5314971" lon="11.3776309"><ele>813.8000000000001</ele><time>2026-04-12T09:18:12.165Z</time></trkpt><trkpt lat="43.5315578" lon="11.3777131"><ele>814.0</ele><time>2026-04-12T09:18:13.164Z</time></trkpt><trkpt lat="43.5316213" lon="11.3777968"><ele>813.9999999999999</ele><time>2026-04-12T09:18:14.165Z</time></trkpt><trkpt lat="43.5316931" lon="11.377873"><ele>814.0</ele><time>2026-04-12T09:18:15.164Z</time></trkpt><trkpt lat="43.5317578" lon="11.377947"><ele>814.0</ele><time>2026-04-12T09:18:16.165Z</time></trkpt><trkpt lat="43.5318028" lon="11.3780293"><ele>814.0</ele><time>2026-04-12T09:18:17.165Z</time></trkpt><trkpt lat="43.5318661" lon="11.3781801"><ele>813.9999999999999</ele><time>2026-04-12T09:18:19.165Z</time></trkpt><trkpt lat="43.5319032" lon="11.3782559"><ele>814.0</ele><time>2026-04-12T09:18:20.165Z</time></trkpt><trkpt lat="43.5319677" lon="11.3783763"><ele>816.0</ele><time>2026-04-12T09:18:22.164Z</time></trkpt><trkpt lat="43.5320457" lon="11.3785153"><ele>818.0</ele><time>2026-04-12T09:18:24.165Z</time></trkpt><trkpt lat="43.5321246" lon="11.3786596"><ele>820.0</ele><time>2026-04-12T09:18:26.165Z</time></trkpt><trkpt lat="43.532181" lon="11.3787961"><ele>822.0</ele><time>2026-04-12T09:18:28.165Z</time></trkpt><trkpt lat="43.5322371" lon="11.3789423"><ele>824.8</ele><time>2026-04-12T09:18:30.164Z</time></trkpt><trkpt lat="43.5322739" lon="11.3790913"><ele>827.6</ele><time>2026-04-12T09:18:32.164Z</time></trkpt><trkpt lat="43.5323379" lon="11.3792197"><ele>830.4</ele><time>2026-04-12T09:18:34.165Z</time></trkpt><trkpt lat="43.5323797" lon="11.3792973"><ele>833.1999999999999</ele><time>2026-04-12T09:18:35.165Z</time></trkpt><trkpt lat="43.5324182" lon="11.3794036"><ele>836.0</ele><time>2026-04-12T09:18:36.165Z</time></trkpt><trkpt lat="43.5324365" lon="11.3795093"><ele>836.0000000000001</ele><time>2026-04-12T09:18:37.165Z</time></trkpt><trkpt lat="43.5324454" lon="11.3796099"><ele>836.0</ele><time>2026-04-12T09:18:38.164Z</time></trkpt><trkpt lat="43.5324572" lon="11.3797466"><ele>836.0</ele><time>2026-04-12T09:18:40.164Z</time></trkpt><trkpt lat="43.5324644" lon="11.3798715"><ele>836.0</ele><time>2026-04-12T09:23:20.165Z</time></trkpt><trkpt lat="43.5324665" lon="11.3800187"><ele>836.0000000000001</ele><time>2026-04-12T09:23:22.164Z</time></trkpt><trkpt lat="43.5324723" lon="11.3801193"><ele>836.0</ele><time>2026-04-12T09:23:23.165Z</time></trkpt><trkpt lat="43.5324714" lon="11.380229"><ele>836.1999999999999</ele><time>2026-04-12T09:23:24.165Z</time></trkpt><trkpt lat="43.5324775" lon="11.380363"><ele>836.4</ele><time>2026-04-12T09:23:25.165Z</time></trkpt><trkpt lat="43.5324856" lon="11.3804881"><ele>836.6</ele><time>2026-04-12T09:23:26.165Z</time></trkpt><trkpt lat="43.5324966" lon="11.3805934"><ele>836.8</ele><time>2026-04-12T09:23:27.165Z</time></trkpt><trkpt lat="43.5325137" lon="11.3806843"><ele>837.0</ele><time>2026-04-12T09:23:28.164Z</time></trkpt><trkpt lat="43.5325134" lon="11.3808537"><ele>837.0</ele><time>2026-04-12T09:23:30.164Z</time></trkpt><trkpt lat="43.5324724" lon="11.3809991"><ele>837.0</ele><time>2026-04-12T09:23:32.165Z</time></trkpt><trkpt lat="43.5324433" lon="11.3811038"><ele>837.0</ele><time>2026-04-12T09:23:34.165Z</time></trkpt><trkpt lat="43.5324259" lon="11.3812004"><ele>837.0</ele><time>2026-04-12T09:23:52.165Z</time></trkpt><trkpt lat="43.5324021" lon="11.381326"><ele>837.0</ele><time>2026-04-12T09:23:54.164Z</time></trkpt><trkpt lat="43.5324123" lon="11.3814538"><ele>837.2</ele><time>2026-04-12T09:23:56.165Z</time></trkpt><trkpt lat="43.5324675" lon="11.3816312"><ele>837.4000000000001</ele><time>2026-04-12T09:23:58.165Z</time></trkpt><trkpt lat="43.5325085" lon="11.3817461"><ele>837.5999999999999</ele><time>2026-04-12T09:23:59.165Z</time></trkpt><trkpt lat="43.5325428" lon="11.3818666"><ele>837.8</ele><time>2026-04-12T09:24:00.165Z</time></trkpt><trkpt lat="43.5325726" lon="11.3819757"><ele>838.0</ele><time>2026-04-12T09:24:01.165Z</time></trkpt><trkpt lat="43.5326212" lon="11.3820553"><ele>838.0</ele><time>2026-04-12T09:24:02.164Z</time></trkpt><trkpt lat="43.532679" lon="11.3821239"><ele>838.0</ele><time>2026-04-12T09:24:03.165Z</time></trkpt><trkpt lat="43.5327526" lon="11.3821546"><ele>838.0</ele><time>2026-04-12T09:24:04.165Z</time></trkpt><trkpt lat="43.5328734" lon="11.3821989"><ele>838.0</ele><time>2026-04-12T09:24:06.165Z</time></trkpt><trkpt lat="43.5330242" lon="11.3823148"><ele>837.2</ele><time>2026-04-12T09:24:08.165Z</time></trkpt><trkpt lat="43.5331054" lon="11.3823749"><ele>836.4</ele><time>2026-04-12T09:24:09.164Z</time></trkpt><trkpt lat="43.5331847" lon="11.3824401"><ele>835.6</ele><time>2026-04-12T09:24:10.164Z</time></trkpt><trkpt lat="43.5332644" lon="11.3824971"><ele>834.8000000000001</ele><time>2026-04-12T09:24:11.165Z</time></trkpt><trkpt lat="43.5333428" lon="11.3825432"><ele>834.0</ele><time>2026-04-12T09:24:12.165Z</time></trkpt><trkpt lat="43.5334386" lon="11.3825744"><ele>834.0</ele><time>2026-04-12T09:24:13.164Z</time></trkpt><trkpt lat="43.5335362" lon="11.3825917"><ele>834.0</ele><time>2026-04-12T09:24:14.165Z</time></trkpt><trkpt lat="43.5336374" lon="11.3826121"><ele>834.0</ele><time>2026-04-12T09:24:15.164Z</time></trkpt><trkpt lat="43.533753" lon="11.3826235"><ele>834.0</ele><time>2026-04-12T09:24:16.164Z</time></trkpt><trkpt lat="43.5338713" lon="11.3826307"><ele>834.0</ele><time>2026-04-12T09:24:17.165Z</time></trkpt><trkpt lat="43.5339966" lon="11.3826468"><ele>830.25</ele><time>2026-04-12T09:24:18.164Z</time></trkpt><trkpt lat="43.5341288" lon="11.3826607"><ele>826.5</ele><time>2026-04-12T09:24:19.165Z</time></trkpt><trkpt lat="43.534248" lon="11.3826801"><ele>822.75</ele><time>2026-04-12T09:24:20.165Z</time></trkpt><trkpt lat="43.5343537" lon="11.3827217"><ele>819.0</ele><time>2026-04-12T09:24:21.165Z</time></trkpt><trkpt lat="43.5344393" lon="11.3827756"><ele>819.0</ele><time>2026-04-12T09:24:22.165Z</time></trkpt><trkpt lat="43.534505" lon="11.3828245"><ele>819.0</ele><time>2026-04-12T09:24:23.165Z</time></trkpt><trkpt lat="43.5345871" lon="11.3828625"><ele>819.0</ele><time>2026-04-12T09:24:24.164Z</time></trkpt><trkpt lat="43.5346548" lon="11.3828979"><ele>819.0</ele><time>2026-04-12T09:24:25.165Z</time></trkpt><trkpt lat="43.5347601" lon="11.3829851"><ele>819.0</ele><time>2026-04-12T09:24:27.165Z</time></trkpt><trkpt lat="43.5348284" lon="11.3830225"><ele>819.0</ele><time>2026-04-12T09:24:28.165Z</time></trkpt><trkpt lat="43.5348965" lon="11.3830367"><ele>817.8000000000001</ele><time>2026-04-12T09:24:29.164Z</time></trkpt><trkpt lat="43.5350347" lon="11.3829821"><ele>816.6</ele><time>2026-04-12T09:24:31.165Z</time></trkpt><trkpt lat="43.5351119" lon="11.382922"><ele>815.4</ele><time>2026-04-12T09:24:32.165Z</time></trkpt><trkpt lat="43.5351944" lon="11.3828695"><ele>814.2</ele><time>2026-04-12T09:24:33.165Z</time></trkpt><trkpt lat="43.5352677" lon="11.3828232"><ele>813.0</ele><time>2026-04-12T09:24:34.164Z</time></trkpt><trkpt lat="43.5353242" lon="11.3827846"><ele>813.0</ele><time>2026-04-12T09:24:35.165Z</time></trkpt><trkpt lat="43.5353813" lon="11.3827276"><ele>813.0</ele><time>2026-04-12T09:24:37.165Z</time></trkpt><trkpt lat="43.5354493" lon="11.3826824"><ele>813.0</ele><time>2026-04-12T09:24:40.165Z</time></trkpt><trkpt lat="43.5355205" lon="11.3826157"><ele>813.0</ele><time>2026-04-12T09:24:42.164Z</time></trkpt><trkpt lat="43.5356075" lon="11.3826104"><ele>813.0</ele><time>2026-04-12T09:27:51.165Z</time></trkpt><trkpt lat="43.535686" lon="11.3826254"><ele>813.0</ele><time>2026-04-12T09:27:53.165Z</time></trkpt><trkpt lat="43.5357589" lon="11.3826159"><ele>814.0</ele><time>2026-04-12T09:27:55.165Z</time></trkpt><trkpt lat="43.5358294" lon="11.38261"><ele>815.0</ele><time>2026-04-12T09:27:57.165Z</time></trkpt><trkpt lat="43.5359082" lon="11.3826148"><ele>816.0</ele><time>2026-04-12T09:27:59.164Z</time></trkpt><trkpt lat="43.535997" lon="11.3826448"><ele>817.0</ele><time>2026-04-12T09:28:01.164Z</time></trkpt><trkpt lat="43.5361327" lon="11.3826636"><ele>818.0</ele><time>2026-04-12T09:28:03.164Z</time></trkpt><trkpt lat="43.5362059" lon="11.3826929"><ele>817.6666666666667</ele><time>2026-04-12T09:28:04.164Z</time></trkpt><trkpt lat="43.5362803" lon="11.3827443"><ele>817.3333333333334</ele><time>2026-04-12T09:28:05.165Z</time></trkpt><trkpt lat="43.5363366" lon="11.3828014"><ele>817.0</ele><time>2026-04-12T09:28:06.165Z</time></trkpt><trkpt lat="43.5364005" lon="11.3828429"><ele>816.6666666666667</ele><time>2026-04-12T09:28:07.165Z</time></trkpt><trkpt lat="43.5364676" lon="11.3828753"><ele>816.3333333333334</ele><time>2026-04-12T09:28:08.165Z</time></trkpt><trkpt lat="43.5365873" lon="11.3829177"><ele>816.0</ele><time>2026-04-12T09:28:10.164Z</time></trkpt><trkpt lat="43.5366561" lon="11.3829564"><ele>817.1999999999999</ele><time>2026-04-12T09:28:11.165Z</time></trkpt><trkpt lat="43.5367692" lon="11.3830267"><ele>818.4</ele><time>2026-04-12T09:28:13.164Z</time></trkpt><trkpt lat="43.5368551" lon="11.3831187"><ele>819.6</ele><time>2026-04-12T09:28:15.165Z</time></trkpt><trkpt lat="43.5369073" lon="11.3831784"><ele>820.8</ele><time>2026-04-12T09:28:16.165Z</time></trkpt><trkpt lat="43.5369801" lon="11.3832549"><ele>822.0</ele><time>2026-04-12T09:28:17.165Z</time></trkpt><trkpt lat="43.537057" lon="11.383313"><ele>822.0</ele><time>2026-04-12T09:28:18.164Z</time></trkpt><trkpt lat="43.5371288" lon="11.3833432"><ele>822.0</ele><time>2026-04-12T09:28:19.165Z</time></trkpt><trkpt lat="43.5372015" lon="11.3833312"><ele>822.0</ele><time>2026-04-12T09:28:20.165Z</time></trkpt><trkpt lat="43.5372793" lon="11.3832765"><ele>822.0</ele><time>2026-04-12T09:28:21.164Z</time></trkpt><trkpt lat="43.5373859" lon="11.383242"><ele>822.0</ele><time>2026-04-12T09:28:22.165Z</time></trkpt><trkpt lat="43.5374867" lon="11.3832087"><ele>822.0</ele><time>2026-04-12T09:28:23.165Z</time></trkpt><trkpt lat="43.5375866" lon="11.3831823"><ele>822.0</ele><time>2026-04-12T09:28:24.165Z</time></trkpt><trkpt lat="43.5376831" lon="11.3831275"><ele>822.0</ele><time>2026-04-12T09:28:25.165Z</time></trkpt><trkpt lat="43.5377845" lon="11.3830464"><ele>822.0</ele><time>2026-04-12T09:28:26.165Z</time></trkpt><trkpt lat="43.5378612" lon="11.3829755"><ele>822.0</ele><time>2026-04-12T09:28:27.165Z</time></trkpt><trkpt lat="43.5379165" lon="11.3829123"><ele>822.0</ele><time>2026-04-12T09:28:28.164Z</time></trkpt><trkpt lat="43.5379645" lon="11.382818"><ele>822.6</ele><time>2026-04-12T09:28:57.165Z</time></trkpt><trkpt lat="43.5379687" lon="11.382681"><ele>823.2</ele><time>2026-04-12T09:28:59.164Z</time></trkpt><trkpt lat="43.5380015" lon="11.38252"><ele>823.8</ele><time>2026-04-12T09:29:01.165Z</time></trkpt><trkpt lat="43.5380709" lon="11.3824171"><ele>824.4</ele><time>2026-04-12T09:29:03.165Z</time></trkpt><trkpt lat="43.5381569" lon="11.3824045"><ele>825.0</ele><time>2026-04-12T09:29:05.165Z</time></trkpt><trkpt lat="43.538292" lon="11.3823744"><ele>825.0</ele><time>2026-04-12T09:29:07.165Z</time></trkpt><trkpt lat="43.5383829" lon="11.3823313"><ele>825.0</ele><time>2026-04-12T09:29:08.164Z</time></trkpt><trkpt lat="43.5384879" lon="11.3822772"><ele>825.0</ele><time>2026-04-12T09:29:09.165Z</time></trkpt><trkpt lat="43.5386009" lon="11.3822323"><ele>825.0</ele><time>2026-04-12T09:29:10.165Z</time></trkpt><trkpt lat="43.5387104" lon="11.3822044"><ele>825.0</ele><time>2026-04-12T09:29:11.165Z</time></trkpt><trkpt lat="43.5388191" lon="11.3821597"><ele>823.8</ele><time>2026-04-12T09:29:12.165Z</time></trkpt><trkpt lat="43.5389218" lon="11.3821036"><ele>822.6</ele><time>2026-04-12T09:29:13.165Z</time></trkpt><trkpt lat="43.5390198" lon="11.3820259"><ele>821.4000000000001</ele><time>2026-04-12T09:29:14.165Z</time></trkpt><trkpt lat="43.5391076" lon="11.3819542"><ele>820.2</ele><time>2026-04-12T09:29:15.164Z</time></trkpt><trkpt lat="43.5392105" lon="11.3819006"><ele>819.0</ele><time>2026-04-12T09:29:16.165Z</time></trkpt><trkpt lat="43.5393253" lon="11.3818435"><ele>819.0</ele><time>2026-04-12T09:29:17.165Z</time></trkpt><trkpt lat="43.5394495" lon="11.381784"><ele>819.0</ele><time>2026-04-12T09:29:18.165Z</time></trkpt><trkpt lat="43.5395787" lon="11.3817225"><ele>819.0</ele><time>2026-04-12T09:29:19.164Z</time></trkpt><trkpt lat="43.5397167" lon="11.3816629"><ele>819.0</ele><time>2026-04-12T09:29:20.165Z</time></trkpt><trkpt lat="43.5398493" lon="11.3816067"><ele>818.75</ele><time>2026-04-12T09:29:21.164Z</time></trkpt><trkpt lat="43.5399742" lon="11.3815596"><ele>818.5</ele><time>2026-04-12T09:29:22.165Z</time></trkpt><trkpt lat="43.540098" lon="11.3814998"><ele>818.25</ele><time>2026-04-12T09:29:23.165Z</time></trkpt><trkpt lat="43.5402103" lon="11.3814426"><ele>818.0</ele><time>2026-04-12T09:29:24.165Z</time></trkpt><trkpt lat="43.5403185" lon="11.3813778"><ele>818.0000000000001</ele><time>2026-04-12T09:29:25.164Z</time></trkpt><trkpt lat="43.5404183" lon="11.3813252"><ele>818.0</ele><time>2026-04-12T09:29:26.164Z</time></trkpt><trkpt lat="43.5405135" lon="11.381271"><ele>818.0</ele><time>2026-04-12T09:29:27.164Z</time></trkpt><trkpt lat="43.5405982" lon="11.3812366"><ele>818.0</ele><time>2026-04-12T09:29:28.165Z</time></trkpt><trkpt lat="43.5406665" lon="11.3812195"><ele>818.0000000000001</ele><time>2026-04-12T09:29:29.165Z</time></trkpt><trkpt lat="43.5407317" lon="11.3812131"><ele>818.0</ele><time>2026-04-12T09:29:30.165Z</time></trkpt><trkpt lat="43.5408396" lon="11.3811731"><ele>818.0</ele><time>2026-04-12T09:29:32.164Z</time></trkpt><trkpt lat="43.5409051" lon="11.3810715"><ele>818.0</ele><time>2026-04-12T09:29:34.164Z</time></trkpt><trkpt lat="43.5409463" lon="11.3809656"><ele>818.0</ele><time>2026-04-12T09:29:36.164Z</time></trkpt><trkpt lat="43.541001" lon="11.3808688"><ele>818.0</ele><time>2026-04-12T09:29:38.165Z</time></trkpt><trkpt lat="43.5410799" lon="11.3807741"><ele>818.0</ele><time>2026-04-12T09:29:40.165Z</time></trkpt><trkpt lat="43.5411423" lon="11.3806821"><ele>818.0000000000001</ele><time>2026-04-12T09:29:42.165Z</time></trkpt><trkpt lat="43.5412" lon="11.380638"><ele>818.0</ele><time>2026-04-12T09:29:45.164Z</time></trkpt><trkpt lat="43.5412428" lon="11.3805571"><ele>818.0</ele><time>2026-04-12T09:29:50.165Z</time></trkpt><trkpt lat="43.5412862" lon="11.3804904"><ele>818.0</ele><time>2026-04-12T09:29:55.165Z</time></trkpt><trkpt lat="43.5413323" lon="11.3804156"><ele>818.0000000000001</ele><time>2026-04-12T09:30:01.165Z</time></trkpt><trkpt lat="43.5413988" lon="11.3803613"><ele>818.0</ele><time>2026-04-12T09:30:03.164Z</time></trkpt><trkpt lat="43.5414935" lon="11.3802843"><ele>819.5999999999999</ele><time>2026-04-12T09:30:05.165Z</time></trkpt><trkpt lat="43.5415601" lon="11.3802133"><ele>821.1999999999999</ele><time>2026-04-12T09:30:06.164Z</time></trkpt><trkpt lat="43.541633" lon="11.3801339"><ele>822.8</ele><time>2026-04-12T09:30:07.165Z</time></trkpt><trkpt lat="43.5417231" lon="11.3800524"><ele>824.4</ele><time>2026-04-12T09:30:08.165Z</time></trkpt><trkpt lat="43.5418127" lon="11.3799927"><ele>826.0</ele><time>2026-04-12T09:30:09.165Z</time></trkpt><trkpt lat="43.541922" lon="11.379941"><ele>826.0</ele><time>2026-04-12T09:30:10.164Z</time></trkpt><trkpt lat="43.5420346" lon="11.3798924"><ele>826.0</ele><time>2026-04-12T09:30:11.165Z</time></trkpt><trkpt lat="43.5421382" lon="11.3798389"><ele>826.0</ele><time>2026-04-12T09:30:12.165Z</time></trkpt><trkpt lat="43.5422513" lon="11.3797659"><ele>826.0</ele><time>2026-04-12T09:30:13.165Z</time></trkpt><trkpt lat="43.5423544" lon="11.3796914"><ele>829.5</ele><time>2026-04-12T09:30:14.165Z</time></trkpt><trkpt lat="43.5424573" lon="11.379618"><ele>833.0</ele><time>2026-04-12T09:30:15.165Z</time></trkpt><trkpt lat="43.542572" lon="11.3795624"><ele>836.5</ele><time>2026-04-12T09:30:16.164Z</time></trkpt><trkpt lat="43.5427041" lon="11.3795016"><ele>840.0</ele><time>2026-04-12T09:30:17.165Z</time></trkpt><trkpt lat="43.5428306" lon="11.3794338"><ele>839.25</ele><time>2026-04-12T09:30:18.165Z</time></trkpt><trkpt lat="43.5429478" lon="11.3793703"><ele>838.5</ele><time>2026-04-12T09:30:19.164Z</time></trkpt><trkpt lat="43.5430579" lon="11.3793246"><ele>837.75</ele><time>2026-04-12T09:30:20.165Z</time></trkpt><trkpt lat="43.5431619" lon="11.3792947"><ele>837.0</ele><time>2026-04-12T09:30:21.165Z</time></trkpt><trkpt lat="43.5432641" lon="11.3792663"><ele>837.0</ele><time>2026-04-12T09:30:22.165Z</time></trkpt><trkpt lat="43.5433595" lon="11.3792164"><ele>837.0</ele><time>2026-04-12T09:30:23.165Z</time></trkpt><trkpt lat="43.5434599" lon="11.3791462"><ele>837.0</ele><time>2026-04-12T09:30:24.164Z</time></trkpt><trkpt lat="43.5435631" lon="11.3790794"><ele>837.0</ele><time>2026-04-12T09:30:25.165Z</time></trkpt><trkpt lat="43.5436492" lon="11.379016"><ele>837.0</ele><time>2026-04-12T09:30:26.165Z</time></trkpt><trkpt lat="43.5437419" lon="11.3789517"><ele>837.4000000000001</ele><time>2026-04-12T09:30:27.164Z</time></trkpt><trkpt lat="43.5438323" lon="11.3788944"><ele>837.8000000000001</ele><time>2026-04-12T09:30:28.164Z</time></trkpt><trkpt lat="43.5439323" lon="11.3788567"><ele>838.2</ele><time>2026-04-12T09:30:29.165Z</time></trkpt><trkpt lat="43.5440414" lon="11.3788422"><ele>838.6</ele><time>2026-04-12T09:30:30.165Z</time></trkpt><trkpt lat="43.5441619" lon="11.3788466"><ele>839.0</ele><time>2026-04-12T09:30:31.165Z</time></trkpt><trkpt lat="43.544285" lon="11.3788581"><ele>839.0000000000001</ele><time>2026-04-12T09:30:32.164Z</time></trkpt><trkpt lat="43.5443853" lon="11.3788537"><ele>839.0</ele><time>2026-04-12T09:30:33.165Z</time></trkpt><trkpt lat="43.5444761" lon="11.3788398"><ele>839.0</ele><time>2026-04-12T09:30:34.164Z</time></trkpt><trkpt lat="43.5445568" lon="11.3788458"><ele>839.0</ele><time>2026-04-12T09:30:35.165Z</time></trkpt><trkpt lat="43.5446184" lon="11.3788801"><ele>839.0000000000001</ele><time>2026-04-12T09:30:36.165Z</time></trkpt><trkpt lat="43.5446964" lon="11.3789484"><ele>839.0</ele><time>2026-04-12T09:30:38.165Z</time></trkpt><trkpt lat="43.544744" lon="11.3790377"><ele>838.1666666666667</ele><time>2026-04-12T09:31:10.165Z</time></trkpt><trkpt lat="43.5448134" lon="11.3791606"><ele>837.3333333333334</ele><time>2026-04-12T09:31:12.164Z</time></trkpt><trkpt lat="43.5448494" lon="11.3792566"><ele>836.5</ele><time>2026-04-12T09:31:13.165Z</time></trkpt><trkpt lat="43.544883" lon="11.3793451"><ele>835.6666666666667</ele><time>2026-04-12T09:31:14.165Z</time></trkpt><trkpt lat="43.5449356" lon="11.3794211"><ele>834.8333333333334</ele><time>2026-04-12T09:31:15.165Z</time></trkpt><trkpt lat="43.5449913" lon="11.3795052"><ele>834.0</ele><time>2026-04-12T09:31:16.165Z</time></trkpt><trkpt lat="43.5450491" lon="11.3796107"><ele>834.6666666666666</ele><time>2026-04-12T09:31:17.165Z</time></trkpt><trkpt lat="43.5450988" lon="11.3797172"><ele>835.3333333333333</ele><time>2026-04-12T09:31:18.164Z</time></trkpt><trkpt lat="43.545141" lon="11.3798251"><ele>836.0</ele><time>2026-04-12T09:31:19.165Z</time></trkpt><trkpt lat="43.5451905" lon="11.3799109"><ele>836.6666666666666</ele><time>2026-04-12T09:31:20.165Z</time></trkpt><trkpt lat="43.5452477" lon="11.3799574"><ele>837.3333333333333</ele><time>2026-04-12T09:31:21.165Z</time></trkpt><trkpt lat="43.545311" lon="11.3799681"><ele>838.0</ele><time>2026-04-12T09:31:22.165Z</time></trkpt><trkpt lat="43.5453802" lon="11.3799571"><ele>838.0</ele><time>2026-04-12T09:31:23.165Z</time></trkpt><trkpt lat="43.5454471" lon="11.3799759"><ele>838.0</ele><time>2026-04-12T09:31:24.164Z</time></trkpt><trkpt lat="43.545518" lon="11.3800161"><ele>838.0</ele><time>2026-04-12T09:31:25.165Z</time></trkpt><trkpt lat="43.5456052" lon="11.3801194"><ele>838.0</ele><time>2026-04-12T09:31:27.165Z</time></trkpt><trkpt lat="43.545694" lon="11.3802524"><ele>838.0</ele><time>2026-04-12T09:31:29.165Z</time></trkpt><trkpt lat="43.5457586" lon="11.3803416"><ele>837.9999999999999</ele><time>2026-04-12T09:31:30.164Z</time></trkpt><trkpt lat="43.5458322" lon="11.3804455"><ele>838.0</ele><time>2026-04-12T09:31:31.165Z</time></trkpt><trkpt lat="43.5459059" lon="11.3805469"><ele>838.0</ele><time>2026-04-12T09:31:32.164Z</time></trkpt><trkpt lat="43.5459608" lon="11.3806098"><ele>838.0</ele><time>2026-04-12T09:31:33.165Z</time></trkpt><trkpt lat="43.546018" lon="11.3806524"><ele>837.9999999999999</ele><time>2026-04-12T09:31:34.165Z</time></trkpt><trkpt lat="43.5460829" lon="11.3807461"><ele>838.0</ele><time>2026-04-12T09:31:36.165Z</time></trkpt><trkpt lat="43.5461523" lon="11.3808547"><ele>840.5999999999999</ele><time>2026-04-12T09:31:38.165Z</time></trkpt><trkpt lat="43.5462535" lon="11.3809474"><ele>843.1999999999999</ele><time>2026-04-12T09:31:40.165Z</time></trkpt><trkpt lat="43.5463347" lon="11.3809816"><ele>845.8</ele><time>2026-04-12T09:31:41.164Z</time></trkpt><trkpt lat="43.546421" lon="11.3810099"><ele>848.4</ele><time>2026-04-12T09:31:42.165Z</time></trkpt><trkpt lat="43.5465117" lon="11.381055"><ele>851.0</ele><time>2026-04-12T09:31:43.165Z</time></trkpt><trkpt lat="43.5465904" lon="11.3810917"><ele>851.0</ele><time>2026-04-12T09:31:44.165Z</time></trkpt><trkpt lat="43.546654" lon="11.381118"><ele>851.0</ele><time>2026-04-12T09:31:45.165Z</time></trkpt><trkpt lat="43.5467712" lon="11.3811854"><ele>851.0</ele><time>2026-04-12T09:31:47.165Z</time></trkpt><trkpt lat="43.546839" lon="11.3812147"><ele>851.0</ele><time>2026-04-12T09:31:48.165Z</time></trkpt><trkpt lat="43.5469502" lon="11.3812981"><ele>851.0</ele><time>2026-04-12T09:31:50.164Z</time></trkpt><trkpt lat="43.5470166" lon="11.3813685"><ele>851.5000000000001</ele><time>2026-04-12T09:31:51.165Z</time></trkpt><trkpt lat="43.5470715" lon="11.3814513"><ele>852.0</ele><time>2026-04-12T09:31:52.164Z</time></trkpt><trkpt lat="43.5471115" lon="11.3815343"><ele>852.5</ele><time>2026-04-12T09:31:53.165Z</time></trkpt><trkpt lat="43.5471471" lon="11.3816195"><ele>853.0</ele><time>2026-04-12T09:31:54.165Z</time></trkpt><trkpt lat="43.547205" lon="11.381704"><ele>853.5000000000001</ele><time>2026-04-12T09:32:33.164Z</time></trkpt><trkpt lat="43.5472812" lon="11.3817476"><ele>854.0</ele><time>2026-04-12T09:32:35.164Z</time></trkpt><trkpt lat="43.5473873" lon="11.3818172"><ele>854.0</ele><time>2026-04-12T09:32:37.164Z</time></trkpt><trkpt lat="43.5474649" lon="11.3818907"><ele>854.0000000000001</ele><time>2026-04-12T09:32:39.165Z</time></trkpt><trkpt lat="43.547589" lon="11.3819274"><ele>854.0000000000001</ele><time>2026-04-12T09:32:41.165Z</time></trkpt><trkpt lat="43.5476684" lon="11.3819529"><ele>854.0</ele><time>2026-04-12T09:32:42.165Z</time></trkpt><trkpt lat="43.5477572" lon="11.3820006"><ele>854.0</ele><time>2026-04-12T09:32:43.165Z</time></trkpt><trkpt lat="43.5478447" lon="11.3820591"><ele>854.0</ele><time>2026-04-12T09:32:44.165Z</time></trkpt><trkpt lat="43.5479233" lon="11.3821538"><ele>854.0000000000001</ele><time>2026-04-12T09:32:45.165Z</time></trkpt><trkpt lat="43.5479917" lon="11.38226"><ele>854.0000000000001</ele><time>2026-04-12T09:32:46.165Z</time></trkpt><trkpt lat="43.5480491" lon="11.3823791"><ele>854.0</ele><time>2026-04-12T09:32:47.164Z</time></trkpt><trkpt lat="43.5480982" lon="11.3824816"><ele>854.0</ele><time>2026-04-12T09:32:48.165Z</time></trkpt><trkpt lat="43.5481426" lon="11.3825826"><ele>854.0000000000001</ele><time>2026-04-12T09:32:49.164Z</time></trkpt><trkpt lat="43.5481522" lon="11.3826879"><ele>854.0</ele><time>2026-04-12T09:32:50.165Z</time></trkpt><trkpt lat="43.5481338" lon="11.3828071"><ele>854.0</ele><time>2026-04-12T09:32:51.165Z</time></trkpt><trkpt lat="43.548134" lon="11.3829135"><ele>854.0</ele><time>2026-04-12T09:32:52.165Z</time></trkpt><trkpt lat="43.5481489" lon="11.383021"><ele>854.0000000000001</ele><time>2026-04-12T09:32:53.165Z</time></trkpt><trkpt lat="43.5481826" lon="11.3831256"><ele>854.0</ele><time>2026-04-12T09:32:54.164Z</time></trkpt><trkpt lat="43.5482198" lon="11.3832368"><ele>853.6</ele><time>2026-04-12T09:32:55.165Z</time></trkpt><trkpt lat="43.5482528" lon="11.3833375"><ele>853.2</ele><time>2026-04-12T09:32:56.165Z</time></trkpt><trkpt lat="43.5482873" lon="11.3834167"><ele>852.8000000000001</ele><time>2026-04-12T09:32:57.165Z</time></trkpt><trkpt lat="43.5483666" lon="11.3835336"><ele>852.4000000000001</ele><time>2026-04-12T09:32:59.165Z</time></trkpt><trkpt lat="43.548452" lon="11.3836593"><ele>852.0</ele><time>2026-04-12T09:33:01.165Z</time></trkpt><trkpt lat="43.5485407" lon="11.3837857"><ele>850.6666666666666</ele><time>2026-04-12T09:33:03.165Z</time></trkpt><trkpt lat="43.5485975" lon="11.3838532"><ele>849.3333333333333</ele><time>2026-04-12T09:33:04.164Z</time></trkpt><trkpt lat="43.5486444" lon="11.3839215"><ele>848.0</ele><time>2026-04-12T09:33:05.165Z</time></trkpt><trkpt lat="43.5486956" lon="11.3839984"><ele>846.6666666666666</ele><time>2026-04-12T09:33:06.164Z</time></trkpt><trkpt lat="43.5487481" lon="11.3840678"><ele>845.3333333333333</ele><time>2026-04-12T09:33:07.164Z</time></trkpt><trkpt lat="43.5488043" lon="11.3841605"><ele>844.0</ele><time>2026-04-12T09:33:08.164Z</time></trkpt><trkpt lat="43.5488559" lon="11.3842528"><ele>843.6666666666666</ele><time>2026-04-12T09:33:09.165Z</time></trkpt><trkpt lat="43.5489052" lon="11.3843285"><ele>843.3333333333333</ele><time>2026-04-12T09:33:10.165Z</time></trkpt><trkpt lat="43.5489892" lon="11.3844318"><ele>843.0</ele><time>2026-04-12T09:33:12.165Z</time></trkpt><trkpt lat="43.5490419" lon="11.3844875"><ele>842.6666666666667</ele><time>2026-04-12T09:33:15.165Z</time></trkpt><trkpt lat="43.5490929" lon="11.3845578"><ele>842.3333333333334</ele><time>2026-04-12T09:34:01.165Z</time></trkpt><trkpt lat="43.5491606" lon="11.3846784"><ele>842.0</ele><time>2026-04-12T09:34:03.165Z</time></trkpt><trkpt lat="43.5491997" lon="11.3847556"><ele>842.0000000000001</ele><time>2026-04-12T09:34:04.165Z</time></trkpt><trkpt lat="43.5492428" lon="11.3848374"><ele>842.0</ele><time>2026-04-12T09:34:05.165Z</time></trkpt><trkpt lat="43.5492892" lon="11.3849202"><ele>842.0</ele><time>2026-04-12T09:34:06.164Z</time></trkpt><trkpt lat="43.5493472" lon="11.3850118"><ele>842.0</ele><time>2026-04-12T09:34:07.165Z</time></trkpt><trkpt lat="43.5493993" lon="11.3851101"><ele>842.0000000000001</ele><time>2026-04-12T09:34:08.165Z</time></trkpt><trkpt lat="43.5494536" lon="11.3852145"><ele>842.0</ele><time>2026-04-12T09:34:09.165Z</time></trkpt><trkpt lat="43.5495107" lon="11.385308"><ele>843.8333333333334</ele><time>2026-04-12T09:34:10.165Z</time></trkpt><trkpt lat="43.5495633" lon="11.3853762"><ele>845.6666666666667</ele><time>2026-04-12T09:34:11.165Z</time></trkpt><trkpt lat="43.5496198" lon="11.3854242"><ele>847.5</ele><time>2026-04-12T09:34:12.165Z</time></trkpt><trkpt lat="43.549693" lon="11.3854562"><ele>849.3333333333333</ele><time>2026-04-12T09:34:13.165Z</time></trkpt><trkpt lat="43.5497733" lon="11.3854875"><ele>851.1666666666666</ele><time>2026-04-12T09:34:14.165Z</time></trkpt><trkpt lat="43.5498502" lon="11.3855265"><ele>853.0</ele><time>2026-04-12T09:34:15.164Z</time></trkpt><trkpt lat="43.549925" lon="11.385588"><ele>854.4999999999999</ele><time>2026-04-12T09:34:16.164Z</time></trkpt><trkpt lat="43.5500057" lon="11.3856491"><ele>856.0</ele><time>2026-04-12T09:34:17.164Z</time></trkpt><trkpt lat="43.5500752" lon="11.3857386"><ele>857.5</ele><time>2026-04-12T09:34:18.164Z</time></trkpt><trkpt lat="43.5501424" lon="11.3858307"><ele>859.0</ele><time>2026-04-12T09:34:19.165Z</time></trkpt><trkpt lat="43.5501825" lon="11.3859278"><ele>860.4999999999999</ele><time>2026-04-12T09:34:20.165Z</time></trkpt><trkpt lat="43.5502155" lon="11.3860188"><ele>862.0</ele><time>2026-04-12T09:34:21.165Z</time></trkpt><trkpt lat="43.5501807" lon="11.386172"><ele>862.0</ele><time>2026-04-12T09:34:23.165Z</time></trkpt><trkpt lat="43.5501732" lon="11.3863384"><ele>862.0</ele><time>2026-04-12T09:34:25.165Z</time></trkpt><trkpt lat="43.5501995" lon="11.3864314"><ele>862.0</ele><time>2026-04-12T09:34:26.165Z</time></trkpt><trkpt lat="43.5502123" lon="11.3865183"><ele>862.0</ele><time>2026-04-12T09:34:27.165Z</time></trkpt><trkpt lat="43.5502038" lon="11.3866888"><ele>862.0</ele><time>2026-04-12T09:34:29.164Z</time></trkpt><trkpt lat="43.5501964" lon="11.3867899"><ele>863.8333333333333</ele><time>2026-04-12T09:34:30.165Z</time></trkpt><trkpt lat="43.5501861" lon="11.386893"><ele>865.6666666666666</ele><time>2026-04-12T09:34:31.165Z</time></trkpt><trkpt lat="43.5501823" lon="11.3869925"><ele>867.5</ele><time>2026-04-12T09:34:32.165Z</time></trkpt><trkpt lat="43.550175" lon="11.387101"><ele>869.3333333333333</ele><time>2026-04-12T09:34:33.165Z</time></trkpt><trkpt lat="43.5501546" lon="11.38721"><ele>871.1666666666666</ele><time>2026-04-12T09:34:34.165Z</time></trkpt><trkpt lat="43.5501262" lon="11.3873074"><ele>873.0</ele><time>2026-04-12T09:34:35.165Z</time></trkpt><trkpt lat="43.5500951" lon="11.3874106"><ele>875.5999999999999</ele><time>2026-04-12T09:34:36.165Z</time></trkpt><trkpt lat="43.5500848" lon="11.387569"><ele>878.1999999999999</ele><time>2026-04-12T09:34:38.165Z</time></trkpt><trkpt lat="43.5501191" lon="11.3876546"><ele>880.8</ele><time>2026-04-12T09:34:39.165Z</time></trkpt><trkpt lat="43.5501809" lon="11.3877459"><ele>883.4</ele><time>2026-04-12T09:34:40.165Z</time></trkpt><trkpt lat="43.5502715" lon="11.3878412"><ele>886.0</ele><time>2026-04-12T09:34:41.164Z</time></trkpt><trkpt lat="43.5503691" lon="11.3879361"><ele>889.25</ele><time>2026-04-12T09:34:42.165Z</time></trkpt><trkpt lat="43.5504703" lon="11.3880254"><ele>892.5</ele><time>2026-04-12T09:34:43.165Z</time></trkpt><trkpt lat="43.5505987" lon="11.3881003"><ele>895.75</ele><time>2026-04-12T09:34:44.164Z</time></trkpt><trkpt lat="43.5507342" lon="11.3881741"><ele>899.0</ele><time>2026-04-12T09:34:45.164Z</time></trkpt><trkpt lat="43.5508677" lon="11.3882646"><ele>899.0</ele><time>2026-04-12T09:34:46.165Z</time></trkpt><trkpt lat="43.5510127" lon="11.3883331"><ele>899.0</ele><time>2026-04-12T09:34:47.165Z</time></trkpt><trkpt lat="43.5511413" lon="11.3883881"><ele>899.0</ele><time>2026-04-12T09:34:48.165Z</time></trkpt><trkpt lat="43.5512533" lon="11.3884347"><ele>899.0</ele><time>2026-04-12T09:34:49.165Z</time></trkpt><trkpt lat="43.5513701" lon="11.3884904"><ele>899.5000000000001</ele><time>2026-04-12T09:34:50.164Z</time></trkpt><trkpt lat="43.5514648" lon="11.3885487"><ele>900.0</ele><time>2026-04-12T09:34:51.165Z</time></trkpt><trkpt lat="43.5515563" lon="11.3886024"><ele>900.5</ele><time>2026-04-12T09:34:52.165Z</time></trkpt><trkpt lat="43.5516417" lon="11.3885912"><ele>901.0</ele><time>2026-04-12T09:34:54.165Z</time></trkpt><trkpt lat="43.5517182" lon="11.3886143"><ele>901.5000000000001</ele><time>2026-04-12T09:35:34.165Z</time></trkpt><trkpt lat="43.5517852" lon="11.3886055"><ele>902.0</ele><time>2026-04-12T09:35:36.165Z</time></trkpt><trkpt lat="43.5518369" lon="11.3886893"><ele>902.0</ele><time>2026-04-12T09:35:38.165Z</time></trkpt><trkpt lat="43.5519089" lon="11.3888316"><ele>902.0</ele><time>2026-04-12T09:35:40.165Z</time></trkpt><trkpt lat="43.5519536" lon="11.3888944"><ele>902.0</ele><time>2026-04-12T09:35:41.165Z</time></trkpt><trkpt lat="43.5520232" lon="11.388921"><ele>902.0</ele><time>2026-04-12T09:35:42.165Z</time></trkpt><trkpt lat="43.5521473" lon="11.3889006"><ele>902.0</ele><time>2026-04-12T09:35:44.164Z</time></trkpt><trkpt lat="43.5522081" lon="11.3888771"><ele>902.2</ele><time>2026-04-12T09:35:45.165Z</time></trkpt><trkpt lat="43.5522751" lon="11.3888251"><ele>902.4000000000001</ele><time>2026-04-12T09:35:46.164Z</time></trkpt><trkpt lat="43.5523533" lon="11.3887572"><ele>902.5999999999999</ele><time>2026-04-12T09:35:47.165Z</time></trkpt><trkpt lat="43.5524576" lon="11.3886731"><ele>902.8</ele><time>2026-04-12T09:35:48.164Z</time></trkpt><trkpt lat="43.5525583" lon="11.388586"><ele>903.0</ele><time>2026-04-12T09:35:49.165Z</time></trkpt><trkpt lat="43.5526652" lon="11.3884821"><ele>903.0</ele><time>2026-04-12T09:35:50.165Z</time></trkpt><trkpt lat="43.5527872" lon="11.3883732"><ele>903.0</ele><time>2026-04-12T09:35:51.165Z</time></trkpt><trkpt lat="43.5528944" lon="11.3882713"><ele>903.0</ele><time>2026-04-12T09:35:52.165Z</time></trkpt><trkpt lat="43.5529948" lon="11.3881735"><ele>903.0</ele><time>2026-04-12T09:35:53.165Z</time></trkpt><trkpt lat="43.553086" lon="11.3880951"><ele>901.1666666666666</ele><time>2026-04-12T09:35:54.164Z</time></trkpt><trkpt lat="43.5531781" lon="11.3880296"><ele>899.3333333333333</ele><time>2026-04-12T09:35:55.165Z</time></trkpt><trkpt lat="43.5532607" lon="11.3879738"><ele>897.5</ele><time>2026-04-12T09:35:56.165Z</time></trkpt><trkpt lat="43.5533261" lon="11.3879126"><ele>895.6666666666666</ele><time>2026-04-12T09:35:57.165Z</time></trkpt><trkpt lat="43.5533862" lon="11.3878479"><ele>893.8333333333333</ele><time>2026-04-12T09:35:58.165Z</time></trkpt><trkpt lat="43.5534471" lon="11.3877839"><ele>892.0</ele><time>2026-04-12T09:35:59.165Z</time></trkpt><trkpt lat="43.5535102" lon="11.3877248"><ele>891.9999999999999</ele><time>2026-04-12T09:36:00.165Z</time></trkpt><trkpt lat="43.553581" lon="11.387678"><ele>892.0</ele><time>2026-04-12T09:36:01.164Z</time></trkpt><trkpt lat="43.5536559" lon="11.3876188"><ele>892.0</ele><time>2026-04-12T09:36:02.165Z</time></trkpt><trkpt lat="43.55372" lon="11.3875445"><ele>892.0</ele><time>2026-04-12T09:36:03.165Z</time></trkpt><trkpt lat="43.5537765" lon="11.3874694"><ele>891.9999999999999</ele><time>2026-04-12T09:36:04.165Z</time></trkpt><trkpt lat="43.5538148" lon="11.3873886"><ele>892.0</ele><time>2026-04-12T09:36:05.165Z</time></trkpt><trkpt lat="43.553851" lon="11.3872879"><ele>890.9999999999999</ele><time>2026-04-12T09:36:06.165Z</time></trkpt><trkpt lat="43.5538866" lon="11.3872028"><ele>890.0</ele><time>2026-04-12T09:36:07.165Z</time></trkpt><trkpt lat="43.5539298" lon="11.3871333"><ele>889.0</ele><time>2026-04-12T09:36:08.165Z</time></trkpt><trkpt lat="43.5539831" lon="11.3870861"><ele>888.0</ele><time>2026-04-12T09:36:09.165Z</time></trkpt><trkpt lat="43.5540467" lon="11.3870734"><ele>886.9999999999999</ele><time>2026-04-12T09:36:10.165Z</time></trkpt><trkpt lat="43.5541572" lon="11.3870239"><ele>886.0</ele><time>2026-04-12T09:36:12.165Z</time></trkpt><trkpt lat="43.5542091" lon="11.3869091"><ele>885.0</ele><time>2026-04-12T09:36:14.164Z</time></trkpt><trkpt lat="43.5542297" lon="11.3868258"><ele>883.9999999999999</ele><time>2026-04-12T09:36:16.165Z</time></trkpt><trkpt lat="43.5542354" lon="11.386701"><ele>882.9999999999999</ele><time>2026-04-12T09:36:27.165Z</time></trkpt><trkpt lat="43.5542585" lon="11.3865718"><ele>882.0</ele><time>2026-04-12T09:36:29.165Z</time></trkpt><trkpt lat="43.5542588" lon="11.3864181"><ele>881.0</ele><time>2026-04-12T09:36:31.165Z</time></trkpt><trkpt lat="43.5542691" lon="11.3862596"><ele>878.8333333333334</ele><time>2026-04-12T09:36:33.165Z</time></trkpt><trkpt lat="43.5543121" lon="11.3861193"><ele>876.6666666666667</ele><time>2026-04-12T09:36:35.165Z</time></trkpt><trkpt lat="43.5543466" lon="11.3860463"><ele>874.5</ele><time>2026-04-12T09:36:36.164Z</time></trkpt><trkpt lat="43.5543833" lon="11.38596"><ele>872.3333333333333</ele><time>2026-04-12T09:36:37.165Z</time></trkpt><trkpt lat="43.5544236" lon="11.3858786"><ele>870.1666666666666</ele><time>2026-04-12T09:36:38.164Z</time></trkpt><trkpt lat="43.5544651" lon="11.3858017"><ele>868.0</ele><time>2026-04-12T09:36:39.164Z</time></trkpt><trkpt lat="43.5545068" lon="11.385705"><ele>867.9999999999999</ele><time>2026-04-12T09:36:40.165Z</time></trkpt><trkpt lat="43.5545548" lon="11.385603"><ele>868.0</ele><time>2026-04-12T09:36:41.164Z</time></trkpt><trkpt lat="43.5545932" lon="11.3855041"><ele>868.0</ele><time>2026-04-12T09:36:42.165Z</time></trkpt><trkpt lat="43.5546396" lon="11.3854249"><ele>868.0</ele><time>2026-04-12T09:36:43.164Z</time></trkpt><trkpt lat="43.5546841" lon="11.3853307"><ele>867.9999999999999</ele><time>2026-04-12T09:36:44.165Z</time></trkpt><trkpt lat="43.5547254" lon="11.3852262"><ele>868.0</ele><time>2026-04-12T09:36:45.165Z</time></trkpt><trkpt lat="43.5547655" lon="11.3851312"><ele>867.9999999999999</ele><time>2026-04-12T09:36:46.165Z</time></trkpt><trkpt lat="43.5548084" lon="11.3850275"><ele>868.0</ele><time>2026-04-12T09:36:47.165Z</time></trkpt><trkpt lat="43.5548475" lon="11.3849191"><ele>868.0</ele><time>2026-04-12T09:36:48.164Z</time></trkpt><trkpt lat="43.5548854" lon="11.384816"><ele>868.0</ele><time>2026-04-12T09:36:49.165Z</time></trkpt><trkpt lat="43.5549271" lon="11.384717"><ele>867.9999999999999</ele><time>2026-04-12T09:36:50.165Z</time></trkpt><trkpt lat="43.5549723" lon="11.3846314"><ele>868.0</ele><time>2026-04-12T09:36:51.165Z</time></trkpt><trkpt lat="43.5550139" lon="11.3845501"><ele>866.9999999999999</ele><time>2026-04-12T09:36:52.164Z</time></trkpt><trkpt lat="43.5550683" lon="11.3844895"><ele>866.0</ele><time>2026-04-12T09:36:53.165Z</time></trkpt><trkpt lat="43.5551371" lon="11.3844496"><ele>865.0</ele><time>2026-04-12T09:36:54.165Z</time></trkpt><trkpt lat="43.5552065" lon="11.3844298"><ele>864.0</ele><time>2026-04-12T09:36:55.164Z</time></trkpt><trkpt lat="43.5552819" lon="11.3844252"><ele>862.9999999999999</ele><time>2026-04-12T09:36:56.165Z</time></trkpt><trkpt lat="43.5553623" lon="11.3844156"><ele>862.0</ele><time>2026-04-12T09:36:57.165Z</time></trkpt><trkpt lat="43.5554514" lon="11.3844185"><ele>861.9999999999999</ele><time>2026-04-12T09:36:58.165Z</time></trkpt><trkpt lat="43.5555379" lon="11.3844038"><ele>862.0</ele><time>2026-04-12T09:36:59.164Z</time></trkpt><trkpt lat="43.5556245" lon="11.3843664"><ele>862.0</ele><time>2026-04-12T09:37:00.165Z</time></trkpt><trkpt lat="43.5557079" lon="11.3842939"><ele>862.0</ele><time>2026-04-12T09:37:01.165Z</time></trkpt><trkpt lat="43.5557735" lon="11.3842161"><ele>861.9999999999999</ele><time>2026-04-12T09:37:02.165Z</time></trkpt><trkpt lat="43.5558329" lon="11.38415"><ele>862.0</ele><time>2026-04-12T09:37:03.164Z</time></trkpt><trkpt lat="43.555888" lon="11.384097"><ele>861.9999999999999</ele><time>2026-04-12T09:37:04.165Z</time></trkpt><trkpt lat="43.5559416" lon="11.3840431"><ele>862.0</ele><time>2026-04-12T09:37:06.165Z</time></trkpt><trkpt lat="43.5560406" lon="11.3839736"><ele>862.0</ele><time>2026-04-12T09:37:31.164Z</time></trkpt><trkpt lat="43.5561023" lon="11.383939"><ele>862.0</ele><time>2026-04-12T09:37:32.164Z</time></trkpt><trkpt lat="43.5561822" lon="11.3838993"><ele>861.9999999999999</ele><time>2026-04-12T09:37:33.165Z</time></trkpt><trkpt lat="43.5562658" lon="11.3838581"><ele>862.0</ele><time>2026-04-12T09:37:34.164Z</time></trkpt><trkpt lat="43.556354" lon="11.3838233"><ele>860.0</ele><time>2026-04-12T09:37:35.165Z</time></trkpt><trkpt lat="43.5564434" lon="11.3837777"><ele>858.0</ele><time>2026-04-12T09:37:36.165Z</time></trkpt><trkpt lat="43.5565847" lon="11.3837138"><ele>856.0</ele><time>2026-04-12T09:37:37.165Z</time></trkpt><trkpt lat="43.5566982" lon="11.3836575"><ele>854.0</ele><time>2026-04-12T09:37:38.165Z</time></trkpt><trkpt lat="43.5567866" lon="11.3836441"><ele>854.0</ele><time>2026-04-12T09:37:39.166Z</time></trkpt><trkpt lat="43.5568962" lon="11.383647"><ele>854.0000000000001</ele><time>2026-04-12T09:37:40.161Z</time></trkpt><trkpt lat="43.5569947" lon="11.3836753"><ele>854.0000000000001</ele><time>2026-04-12T09:37:41.165Z</time></trkpt><trkpt lat="43.5570762" lon="11.3837079"><ele>854.0</ele><time>2026-04-12T09:37:42.16Z</time></trkpt><trkpt lat="43.5571519" lon="11.3837402"><ele>854.0</ele><time>2026-04-12T09:37:43.172Z</time></trkpt><trkpt lat="43.5572271" lon="11.3837626"><ele>854.0</ele><time>2026-04-12T09:37:44.174Z</time></trkpt><trkpt lat="43.5572909" lon="11.3837619"><ele>854.0000000000001</ele><time>2026-04-12T09:37:45.174Z</time></trkpt><trkpt lat="43.5574082" lon="11.3837221"><ele>854.0000000000001</ele><time>2026-04-12T09:37:47.175Z</time></trkpt><trkpt lat="43.5574693" lon="11.3836881"><ele>854.0</ele><time>2026-04-12T09:37:48.175Z</time></trkpt><trkpt lat="43.5575901" lon="11.3836144"><ele>854.0</ele><time>2026-04-12T09:37:50.175Z</time></trkpt><trkpt lat="43.5576619" lon="11.3835737"><ele>854.0000000000001</ele><time>2026-04-12T09:37:51.175Z</time></trkpt><trkpt lat="43.5577304" lon="11.3835241"><ele>854.0</ele><time>2026-04-12T09:37:52.174Z</time></trkpt><trkpt lat="43.5578088" lon="11.383474"><ele>854.0</ele><time>2026-04-12T09:37:53.175Z</time></trkpt><trkpt lat="43.5578874" lon="11.3834247"><ele>854.0</ele><time>2026-04-12T09:37:54.174Z</time></trkpt><trkpt lat="43.5579668" lon="11.383378"><ele>854.0000000000001</ele><time>2026-04-12T09:37:55.174Z</time></trkpt><trkpt lat="43.5580415" lon="11.3833295"><ele>854.0</ele><time>2026-04-12T09:37:56.175Z</time></trkpt><trkpt lat="43.5581168" lon="11.383291"><ele>854.4000000000001</ele><time>2026-04-12T09:37:57.175Z</time></trkpt><trkpt lat="43.5581924" lon="11.3832269"><ele>854.8000000000001</ele><time>2026-04-12T09:37:58.175Z</time></trkpt><trkpt lat="43.5582612" lon="11.3831583"><ele>855.1999999999999</ele><time>2026-04-12T09:37:59.175Z</time></trkpt><trkpt lat="43.5583353" lon="11.3830813"><ele>855.5999999999999</ele><time>2026-04-12T09:38:00.175Z</time></trkpt><trkpt lat="43.5584124" lon="11.3830074"><ele>856.0</ele><time>2026-04-12T09:38:01.175Z</time></trkpt><trkpt lat="43.5584888" lon="11.3829426"><ele>854.0</ele><time>2026-04-12T09:38:02.174Z</time></trkpt><trkpt lat="43.5585644" lon="11.3829007"><ele>851.9999999999999</ele><time>2026-04-12T09:38:03.174Z</time></trkpt><trkpt lat="43.5586482" lon="11.3828684"><ele>850.0</ele><time>2026-04-12T09:38:04.175Z</time></trkpt><trkpt lat="43.5587416" lon="11.3828333"><ele>848.0</ele><time>2026-04-12T09:38:05.175Z</time></trkpt><trkpt lat="43.5588459" lon="11.3827913"><ele>846.0</ele><time>2026-04-12T09:38:06.174Z</time></trkpt><trkpt lat="43.5589545" lon="11.3827344"><ele>845.5</ele><time>2026-04-12T09:38:07.175Z</time></trkpt><trkpt lat="43.5590645" lon="11.3826681"><ele>845.0</ele><time>2026-04-12T09:38:08.175Z</time></trkpt><trkpt lat="43.5591777" lon="11.3825787"><ele>844.5</ele><time>2026-04-12T09:38:09.175Z</time></trkpt><trkpt lat="43.55928" lon="11.3824658"><ele>844.0</ele><time>2026-04-12T09:38:10.175Z</time></trkpt><trkpt lat="43.559384" lon="11.3823307"><ele>844.0</ele><time>2026-04-12T09:38:11.175Z</time></trkpt><trkpt lat="43.5594891" lon="11.3821847"><ele>844.0</ele><time>2026-04-12T09:38:12.175Z</time></trkpt><trkpt lat="43.559591" lon="11.3820213"><ele>844.0</ele><time>2026-04-12T09:38:13.175Z</time></trkpt><trkpt lat="43.5596931" lon="11.3818442"><ele>845.0</ele><time>2026-04-12T09:38:14.175Z</time></trkpt><trkpt lat="43.5598038" lon="11.381652"><ele>846.0</ele><time>2026-04-12T09:38:15.175Z</time></trkpt><trkpt lat="43.5599098" lon="11.3814552"><ele>847.0</ele><time>2026-04-12T09:38:16.174Z</time></trkpt><trkpt lat="43.560018" lon="11.3812573"><ele>847.0</ele><time>2026-04-12T09:38:17.175Z</time></trkpt><trkpt lat="43.5601212" lon="11.3810729"><ele>847.0</ele><time>2026-04-12T09:38:18.175Z</time></trkpt><trkpt lat="43.5602175" lon="11.3809178"><ele>847.0</ele><time>2026-04-12T09:38:19.174Z</time></trkpt><trkpt lat="43.5603067" lon="11.3807941"><ele>847.0</ele><time>2026-04-12T09:38:20.175Z</time></trkpt><trkpt lat="43.5603892" lon="11.3807085"><ele>846.75</ele><time>2026-04-12T09:38:21.175Z</time></trkpt><trkpt lat="43.560481" lon="11.380647"><ele>846.5</ele><time>2026-04-12T09:38:22.174Z</time></trkpt><trkpt lat="43.5605839" lon="11.3805993"><ele>846.25</ele><time>2026-04-12T09:38:23.174Z</time></trkpt><trkpt lat="43.5606961" lon="11.3805551"><ele>846.0</ele><time>2026-04-12T09:38:24.174Z</time></trkpt><trkpt lat="43.5608179" lon="11.3805057"><ele>847.75</ele><time>2026-04-12T09:38:25.175Z</time></trkpt><trkpt lat="43.5609487" lon="11.3804499"><ele>849.5</ele><time>2026-04-12T09:38:26.174Z</time></trkpt><trkpt lat="43.5610709" lon="11.3803919"><ele>851.25</ele><time>2026-04-12T09:38:27.175Z</time></trkpt><trkpt lat="43.5611819" lon="11.3803286"><ele>853.0</ele><time>2026-04-12T09:38:28.175Z</time></trkpt><trkpt lat="43.5612862" lon="11.3802508"><ele>853.0</ele><time>2026-04-12T09:38:29.175Z</time></trkpt><trkpt lat="43.5613822" lon="11.38015"><ele>853.0</ele><time>2026-04-12T09:38:30.175Z</time></trkpt><trkpt lat="43.5614731" lon="11.3800237"><ele>853.0</ele><time>2026-04-12T09:38:31.175Z</time></trkpt><trkpt lat="43.5615656" lon="11.3798813"><ele>853.0</ele><time>2026-04-12T09:38:32.175Z</time></trkpt><trkpt lat="43.5616643" lon="11.3797219"><ele>857.3333333333333</ele><time>2026-04-12T09:38:33.174Z</time></trkpt><trkpt lat="43.5617642" lon="11.379559"><ele>861.6666666666667</ele><time>2026-04-12T09:38:34.175Z</time></trkpt><trkpt lat="43.5618629" lon="11.3794018"><ele>866.0</ele><time>2026-04-12T09:38:35.175Z</time></trkpt><trkpt lat="43.5619548" lon="11.3792473"><ele>860.25</ele><time>2026-04-12T09:38:36.175Z</time></trkpt><trkpt lat="43.562033" lon="11.3790887"><ele>854.5</ele><time>2026-04-12T09:38:37.175Z</time></trkpt><trkpt lat="43.5621016" lon="11.3789293"><ele>848.75</ele><time>2026-04-12T09:38:38.175Z</time></trkpt><trkpt lat="43.5621708" lon="11.3787802"><ele>843.0</ele><time>2026-04-12T09:38:39.175Z</time></trkpt><trkpt lat="43.5622506" lon="11.3786377"><ele>843.0</ele><time>2026-04-12T09:38:40.175Z</time></trkpt><trkpt lat="43.5623472" lon="11.3784986"><ele>843.0</ele><time>2026-04-12T09:38:41.175Z</time></trkpt><trkpt lat="43.5624502" lon="11.3783758"><ele>843.0</ele><time>2026-04-12T09:38:42.175Z</time></trkpt><trkpt lat="43.5625645" lon="11.3782728"><ele>843.0</ele><time>2026-04-12T09:38:43.174Z</time></trkpt><trkpt lat="43.5626909" lon="11.3781906"><ele>843.0</ele><time>2026-04-12T09:38:44.174Z</time></trkpt><trkpt lat="43.5628319" lon="11.3781215"><ele>843.0</ele><time>2026-04-12T09:38:45.175Z</time></trkpt><trkpt lat="43.5629672" lon="11.378057"><ele>843.0</ele><time>2026-04-12T09:38:46.175Z</time></trkpt><trkpt lat="43.5630993" lon="11.3779956"><ele>843.0</ele><time>2026-04-12T09:38:47.174Z</time></trkpt><trkpt lat="43.5632265" lon="11.377936"><ele>839.5</ele><time>2026-04-12T09:38:48.175Z</time></trkpt><trkpt lat="43.563349" lon="11.3778793"><ele>836.0</ele><time>2026-04-12T09:38:49.174Z</time></trkpt><trkpt lat="43.5634653" lon="11.3778269"><ele>832.5</ele><time>2026-04-12T09:38:50.174Z</time></trkpt><trkpt lat="43.5635701" lon="11.3777871"><ele>829.0</ele><time>2026-04-12T09:38:51.174Z</time></trkpt><trkpt lat="43.5636682" lon="11.3777697"><ele>828.1666666666666</ele><time>2026-04-12T09:38:52.175Z</time></trkpt><trkpt lat="43.563755" lon="11.3777856"><ele>827.3333333333333</ele><time>2026-04-12T09:38:53.175Z</time></trkpt><trkpt lat="43.5638331" lon="11.3778322"><ele>826.5</ele><time>2026-04-12T09:38:54.175Z</time></trkpt><trkpt lat="43.5638916" lon="11.3779083"><ele>825.6666666666667</ele><time>2026-04-12T09:38:55.174Z</time></trkpt><trkpt lat="43.5639204" lon="11.3780059"><ele>824.8333333333334</ele><time>2026-04-12T09:38:56.175Z</time></trkpt><trkpt lat="43.5639195" lon="11.3781074"><ele>824.0</ele><time>2026-04-12T09:38:57.175Z</time></trkpt><trkpt lat="43.5638924" lon="11.3782144"><ele>823.6666666666667</ele><time>2026-04-12T09:38:58.175Z</time></trkpt><trkpt lat="43.5638658" lon="11.3783337"><ele>823.3333333333334</ele><time>2026-04-12T09:38:59.175Z</time></trkpt><trkpt lat="43.5638517" lon="11.3784567"><ele>823.0</ele><time>2026-04-12T09:39:00.174Z</time></trkpt><trkpt lat="43.563861" lon="11.3785773"><ele>822.6666666666667</ele><time>2026-04-12T09:39:01.175Z</time></trkpt><trkpt lat="43.5638964" lon="11.3786852"><ele>822.3333333333334</ele><time>2026-04-12T09:39:02.175Z</time></trkpt><trkpt lat="43.5639517" lon="11.3787573"><ele>822.0</ele><time>2026-04-12T09:39:03.175Z</time></trkpt><trkpt lat="43.5640186" lon="11.3787976"><ele>822.0</ele><time>2026-04-12T09:39:04.175Z</time></trkpt><trkpt lat="43.5640901" lon="11.3788101"><ele>822.0</ele><time>2026-04-12T09:39:05.175Z</time></trkpt><trkpt lat="43.564172" lon="11.3788027"><ele>822.0</ele><time>2026-04-12T09:39:06.175Z</time></trkpt><trkpt lat="43.5642722" lon="11.378783"><ele>822.0</ele><time>2026-04-12T09:39:07.175Z</time></trkpt><trkpt lat="43.5643838" lon="11.3787572"><ele>822.0</ele><time>2026-04-12T09:39:08.175Z</time></trkpt><trkpt lat="43.5645171" lon="11.3787127"><ele>817.0</ele><time>2026-04-12T09:39:09.175Z</time></trkpt><trkpt lat="43.5646586" lon="11.3786543"><ele>812.0</ele><time>2026-04-12T09:39:10.175Z</time></trkpt><trkpt lat="43.5648047" lon="11.3785786"><ele>807.0</ele><time>2026-04-12T09:39:11.175Z</time></trkpt><trkpt lat="43.5649441" lon="11.3784892"><ele>807.0</ele><time>2026-04-12T09:39:12.175Z</time></trkpt><trkpt lat="43.5650703" lon="11.378385"><ele>807.0</ele><time>2026-04-12T09:39:13.174Z</time></trkpt><trkpt lat="43.5651903" lon="11.3782651"><ele>807.0</ele><time>2026-04-12T09:39:14.175Z</time></trkpt><trkpt lat="43.5652998" lon="11.3781347"><ele>807.0</ele><time>2026-04-12T09:39:15.175Z</time></trkpt><trkpt lat="43.5654042" lon="11.3780084"><ele>803.75</ele><time>2026-04-12T09:39:16.174Z</time></trkpt><trkpt lat="43.5655022" lon="11.3778935"><ele>800.5</ele><time>2026-04-12T09:39:17.175Z</time></trkpt><trkpt lat="43.5655967" lon="11.3777916"><ele>797.25</ele><time>2026-04-12T09:39:18.175Z</time></trkpt><trkpt lat="43.5656907" lon="11.3777086"><ele>794.0</ele><time>2026-04-12T09:39:19.174Z</time></trkpt><trkpt lat="43.5657892" lon="11.3776541"><ele>794.0</ele><time>2026-04-12T09:39:20.175Z</time></trkpt><trkpt lat="43.5658939" lon="11.377632"><ele>794.0</ele><time>2026-04-12T09:39:21.174Z</time></trkpt><trkpt lat="43.5659909" lon="11.3776386"><ele>794.0</ele><time>2026-04-12T09:39:22.175Z</time></trkpt><trkpt lat="43.566081" lon="11.3776668"><ele>794.0</ele><time>2026-04-12T09:39:23.174Z</time></trkpt><trkpt lat="43.5661677" lon="11.3777088"><ele>794.0</ele><time>2026-04-12T09:39:24.175Z</time></trkpt><trkpt lat="43.5662516" lon="11.3777587"><ele>791.25</ele><time>2026-04-12T09:39:25.175Z</time></trkpt><trkpt lat="43.5663443" lon="11.3778161"><ele>788.5</ele><time>2026-04-12T09:39:26.174Z</time></trkpt><trkpt lat="43.5664489" lon="11.3778744"><ele>785.75</ele><time>2026-04-12T09:39:27.175Z</time></trkpt><trkpt lat="43.5665673" lon="11.3779255"><ele>783.0</ele><time>2026-04-12T09:39:28.174Z</time></trkpt><trkpt lat="43.5666888" lon="11.3779694"><ele>783.0</ele><time>2026-04-12T09:39:29.174Z</time></trkpt><trkpt lat="43.5668125" lon="11.3780134"><ele>783.0</ele><time>2026-04-12T09:39:30.175Z</time></trkpt><trkpt lat="43.5669393" lon="11.3780535"><ele>783.0</ele><time>2026-04-12T09:39:31.175Z</time></trkpt><trkpt lat="43.567066" lon="11.3780882"><ele>783.0</ele><time>2026-04-12T09:39:32.175Z</time></trkpt><trkpt lat="43.5671901" lon="11.3781215"><ele>781.25</ele><time>2026-04-12T09:39:33.174Z</time></trkpt><trkpt lat="43.5673139" lon="11.3781487"><ele>779.5</ele><time>2026-04-12T09:39:34.175Z</time></trkpt><trkpt lat="43.567431" lon="11.3781632"><ele>777.75</ele><time>2026-04-12T09:39:35.174Z</time></trkpt><trkpt lat="43.5675395" lon="11.3781572"><ele>776.0</ele><time>2026-04-12T09:39:36.175Z</time></trkpt><trkpt lat="43.567641" lon="11.3781248"><ele>776.0</ele><time>2026-04-12T09:39:37.175Z</time></trkpt><trkpt lat="43.5677357" lon="11.3780644"><ele>776.0</ele><time>2026-04-12T09:39:38.175Z</time></trkpt><trkpt lat="43.5678269" lon="11.3779813"><ele>776.0</ele><time>2026-04-12T09:39:39.175Z</time></trkpt><trkpt lat="43.5679141" lon="11.3778905"><ele>776.0</ele><time>2026-04-12T09:39:40.175Z</time></trkpt><trkpt lat="43.5679917" lon="11.3777916"><ele>776.0</ele><time>2026-04-12T09:39:41.175Z</time></trkpt><trkpt lat="43.5680549" lon="11.3776807"><ele>773.8</ele><time>2026-04-12T09:39:42.175Z</time></trkpt><trkpt lat="43.5680967" lon="11.3775595"><ele>771.5999999999999</ele><time>2026-04-12T09:39:43.175Z</time></trkpt><trkpt lat="43.5681184" lon="11.3774332"><ele>769.4</ele><time>2026-04-12T09:39:44.175Z</time></trkpt><trkpt lat="43.5681292" lon="11.377313"><ele>767.2</ele><time>2026-04-12T09:39:45.175Z</time></trkpt><trkpt lat="43.5681461" lon="11.3772134"><ele>765.0</ele><time>2026-04-12T09:39:46.175Z</time></trkpt><trkpt lat="43.5682266" lon="11.3770882"><ele>765.0</ele><time>2026-04-12T09:39:48.174Z</time></trkpt><trkpt lat="43.5683417" lon="11.377103"><ele>765.0</ele><time>2026-04-12T09:39:50.175Z</time></trkpt><trkpt lat="43.5684296" lon="11.3771952"><ele>765.0</ele><time>2026-04-12T09:39:52.174Z</time></trkpt><trkpt lat="43.568481" lon="11.3772537"><ele>765.0</ele><time>2026-04-12T09:39:55.175Z</time></trkpt><trkpt lat="43.56855" lon="11.3773173"><ele>765.0</ele><time>2026-04-12T09:40:02.175Z</time></trkpt><trkpt lat="43.5686346" lon="11.3774253"><ele>761.8</ele><time>2026-04-12T09:40:04.174Z</time></trkpt><trkpt lat="43.5687383" lon="11.3774974"><ele>758.6</ele><time>2026-04-12T09:40:06.174Z</time></trkpt><trkpt lat="43.5688354" lon="11.3775677"><ele>755.4000000000001</ele><time>2026-04-12T09:40:08.165Z</time></trkpt><trkpt lat="43.568917" lon="11.3776427"><ele>752.2</ele><time>2026-04-12T09:40:10.164Z</time></trkpt><trkpt lat="43.5689839" lon="11.3776951"><ele>749.0</ele><time>2026-04-12T09:40:12.165Z</time></trkpt><trkpt lat="43.5690531" lon="11.3777618"><ele>749.0</ele><time>2026-04-12T09:40:14.164Z</time></trkpt><trkpt lat="43.5691387" lon="11.3778039"><ele>749.0</ele><time>2026-04-12T09:40:16.165Z</time></trkpt><trkpt lat="43.569215" lon="11.3778572"><ele>749.0</ele><time>2026-04-12T09:40:18.165Z</time></trkpt><trkpt lat="43.5692973" lon="11.3779134"><ele>749.0</ele><time>2026-04-12T09:40:21.164Z</time></trkpt><trkpt lat="43.5693977" lon="11.3779035"><ele>749.0</ele><time>2026-04-12T09:41:04.165Z</time></trkpt><trkpt lat="43.569526" lon="11.3778251"><ele>748.2</ele><time>2026-04-12T09:41:06.165Z</time></trkpt><trkpt lat="43.5696068" lon="11.3777584"><ele>747.4000000000001</ele><time>2026-04-12T09:41:07.164Z</time></trkpt><trkpt lat="43.5696899" lon="11.3776887"><ele>746.6</ele><time>2026-04-12T09:41:08.165Z</time></trkpt><trkpt lat="43.5697849" lon="11.3776155"><ele>745.8</ele><time>2026-04-12T09:41:09.164Z</time></trkpt><trkpt lat="43.5698924" lon="11.3775439"><ele>745.0</ele><time>2026-04-12T09:41:10.165Z</time></trkpt><trkpt lat="43.5700112" lon="11.377473"><ele>745.0</ele><time>2026-04-12T09:41:11.164Z</time></trkpt><trkpt lat="43.5701282" lon="11.3773951"><ele>745.0</ele><time>2026-04-12T09:41:12.165Z</time></trkpt><trkpt lat="43.5702488" lon="11.3773138"><ele>745.0</ele><time>2026-04-12T09:41:13.165Z</time></trkpt><trkpt lat="43.5703799" lon="11.3772302"><ele>745.0</ele><time>2026-04-12T09:41:14.165Z</time></trkpt><trkpt lat="43.5705163" lon="11.3771417"><ele>746.0</ele><time>2026-04-12T09:41:15.165Z</time></trkpt><trkpt lat="43.5706443" lon="11.3770668"><ele>747.0</ele><time>2026-04-12T09:41:16.165Z</time></trkpt><trkpt lat="43.570776" lon="11.3770002"><ele>748.0</ele><time>2026-04-12T09:41:17.165Z</time></trkpt><trkpt lat="43.5709142" lon="11.3769481"><ele>749.0</ele><time>2026-04-12T09:41:18.165Z</time></trkpt><trkpt lat="43.5710553" lon="11.3769146"><ele>749.6666666666666</ele><time>2026-04-12T09:41:19.165Z</time></trkpt><trkpt lat="43.5712051" lon="11.3768888"><ele>750.3333333333334</ele><time>2026-04-12T09:41:20.165Z</time></trkpt><trkpt lat="43.5713554" lon="11.3768549"><ele>751.0</ele><time>2026-04-12T09:41:21.165Z</time></trkpt><trkpt lat="43.571504" lon="11.3768083"><ele>751.0</ele><time>2026-04-12T09:41:22.164Z</time></trkpt><trkpt lat="43.5716458" lon="11.3767502"><ele>751.0</ele><time>2026-04-12T09:41:23.165Z</time></trkpt><trkpt lat="43.5717827" lon="11.3766791"><ele>751.0</ele><time>2026-04-12T09:41:24.165Z</time></trkpt><trkpt lat="43.5719195" lon="11.3766105"><ele>751.0</ele><time>2026-04-12T09:41:25.165Z</time></trkpt><trkpt lat="43.5720594" lon="11.376556"><ele>750.25</ele><time>2026-04-12T09:41:26.165Z</time></trkpt><trkpt lat="43.5721947" lon="11.3764999"><ele>749.5</ele><time>2026-04-12T09:41:27.165Z</time></trkpt><trkpt lat="43.57233" lon="11.3764412"><ele>748.75</ele><time>2026-04-12T09:41:28.165Z</time></trkpt><trkpt lat="43.57247" lon="11.3763748"><ele>748.0</ele><time>2026-04-12T09:41:29.165Z</time></trkpt><trkpt lat="43.5726082" lon="11.3763138"><ele>746.75</ele><time>2026-04-12T09:41:30.165Z</time></trkpt><trkpt lat="43.5727464" lon="11.3762608"><ele>745.5</ele><time>2026-04-12T09:41:31.164Z</time></trkpt><trkpt lat="43.5728865" lon="11.3762234"><ele>744.25</ele><time>2026-04-12T09:41:32.165Z</time></trkpt><trkpt lat="43.5730356" lon="11.3761831"><ele>743.0</ele><time>2026-04-12T09:41:33.164Z</time></trkpt><trkpt lat="43.5731781" lon="11.3761206"><ele>742.3333333333333</ele><time>2026-04-12T09:41:34.165Z</time></trkpt><trkpt lat="43.5733182" lon="11.3760378"><ele>741.6666666666666</ele><time>2026-04-12T09:41:35.164Z</time></trkpt><trkpt lat="43.5734661" lon="11.3759412"><ele>741.0</ele><time>2026-04-12T09:41:36.165Z</time></trkpt><trkpt lat="43.573622" lon="11.3758438"><ele>742.6666666666666</ele><time>2026-04-12T09:41:37.165Z</time></trkpt><trkpt lat="43.5737679" lon="11.3757618"><ele>744.3333333333333</ele><time>2026-04-12T09:41:38.165Z</time></trkpt><trkpt lat="43.5739132" lon="11.3756835"><ele>746.0</ele><time>2026-04-12T09:41:39.165Z</time></trkpt><trkpt lat="43.5740483" lon="11.3755983"><ele>742.75</ele><time>2026-04-12T09:41:40.165Z</time></trkpt><trkpt lat="43.5741733" lon="11.3755203"><ele>739.5</ele><time>2026-04-12T09:41:41.165Z</time></trkpt><trkpt lat="43.5742853" lon="11.3754527"><ele>736.25</ele><time>2026-04-12T09:41:42.165Z</time></trkpt><trkpt lat="43.5743923" lon="11.3753775"><ele>733.0</ele><time>2026-04-12T09:41:43.165Z</time></trkpt><trkpt lat="43.5744813" lon="11.3752998"><ele>733.25</ele><time>2026-04-12T09:41:44.164Z</time></trkpt><trkpt lat="43.5745726" lon="11.3752033"><ele>733.5</ele><time>2026-04-12T09:41:45.165Z</time></trkpt><trkpt lat="43.5746695" lon="11.3750757"><ele>733.75</ele><time>2026-04-12T09:41:46.165Z</time></trkpt><trkpt lat="43.5747672" lon="11.3749323"><ele>734.0</ele><time>2026-04-12T09:41:47.165Z</time></trkpt><trkpt lat="43.5748784" lon="11.3747775"><ele>731.75</ele><time>2026-04-12T09:41:48.165Z</time></trkpt><trkpt lat="43.574986" lon="11.3746294"><ele>729.5</ele><time>2026-04-12T09:41:49.165Z</time></trkpt><trkpt lat="43.5750832" lon="11.3744851"><ele>727.25</ele><time>2026-04-12T09:41:50.165Z</time></trkpt><trkpt lat="43.5751822" lon="11.3743446"><ele>725.0</ele><time>2026-04-12T09:41:51.165Z</time></trkpt><trkpt lat="43.5752836" lon="11.3742123"><ele>724.75</ele><time>2026-04-12T09:41:52.164Z</time></trkpt><trkpt lat="43.5753771" lon="11.3740822"><ele>724.5</ele><time>2026-04-12T09:41:53.165Z</time></trkpt><trkpt lat="43.5754744" lon="11.3739634"><ele>724.25</ele><time>2026-04-12T09:41:54.165Z</time></trkpt><trkpt lat="43.5755654" lon="11.3738436"><ele>724.0</ele><time>2026-04-12T09:41:55.165Z</time></trkpt><trkpt lat="43.57566" lon="11.3737428"><ele>723.75</ele><time>2026-04-12T09:41:56.164Z</time></trkpt><trkpt lat="43.5757643" lon="11.3736574"><ele>723.5</ele><time>2026-04-12T09:41:57.165Z</time></trkpt><trkpt lat="43.5758747" lon="11.3735878"><ele>723.25</ele><time>2026-04-12T09:41:58.165Z</time></trkpt><trkpt lat="43.5759938" lon="11.3735348"><ele>723.0</ele><time>2026-04-12T09:41:59.165Z</time></trkpt><trkpt lat="43.5761246" lon="11.3735047"><ele>724.25</ele><time>2026-04-12T09:42:00.165Z</time></trkpt><trkpt lat="43.5762551" lon="11.3734981"><ele>725.5</ele><time>2026-04-12T09:42:01.165Z</time></trkpt><trkpt lat="43.5763842" lon="11.3735233"><ele>726.75</ele><time>2026-04-12T09:42:02.165Z</time></trkpt><trkpt lat="43.5765171" lon="11.3735639"><ele>728.0</ele><time>2026-04-12T09:42:03.164Z</time></trkpt><trkpt lat="43.5766443" lon="11.373591"><ele>728.0</ele><time>2026-04-12T09:42:04.165Z</time></trkpt><trkpt lat="43.5767627" lon="11.3736055"><ele>728.0</ele><time>2026-04-12T09:42:05.165Z</time></trkpt><trkpt lat="43.576866" lon="11.37361"><ele>728.0</ele><time>2026-04-12T09:42:06.165Z</time></trkpt><trkpt lat="43.5769615" lon="11.3735832"><ele>728.0</ele><time>2026-04-12T09:42:07.165Z</time></trkpt><trkpt lat="43.577059" lon="11.373541"><ele>728.0</ele><time>2026-04-12T09:42:08.165Z</time></trkpt><trkpt lat="43.5771685" lon="11.3734861"><ele>727.25</ele><time>2026-04-12T09:42:09.165Z</time></trkpt><trkpt lat="43.5772882" lon="11.3734501"><ele>726.5</ele><time>2026-04-12T09:42:10.165Z</time></trkpt><trkpt lat="43.5774172" lon="11.37344"><ele>725.75</ele><time>2026-04-12T09:42:11.165Z</time></trkpt><trkpt lat="43.5775453" lon="11.3734347"><ele>725.0</ele><time>2026-04-12T09:42:12.165Z</time></trkpt><trkpt lat="43.5776637" lon="11.3734253"><ele>725.0</ele><time>2026-04-12T09:42:13.165Z</time></trkpt><trkpt lat="43.5777644" lon="11.3733957"><ele>725.0</ele><time>2026-04-12T09:42:14.164Z</time></trkpt><trkpt lat="43.5778449" lon="11.3733454"><ele>725.0</ele><time>2026-04-12T09:42:15.165Z</time></trkpt><trkpt lat="43.5779116" lon="11.373273"><ele>725.0</ele><time>2026-04-12T09:42:16.165Z</time></trkpt><trkpt lat="43.5779744" lon="11.37318"><ele>725.0</ele><time>2026-04-12T09:42:17.164Z</time></trkpt><trkpt lat="43.5780332" lon="11.373067"><ele>724.25</ele><time>2026-04-12T09:42:18.165Z</time></trkpt><trkpt lat="43.5780994" lon="11.3729367"><ele>723.5</ele><time>2026-04-12T09:42:19.165Z</time></trkpt><trkpt lat="43.5781604" lon="11.3728159"><ele>722.75</ele><time>2026-04-12T09:42:20.165Z</time></trkpt><trkpt lat="43.5782361" lon="11.3726914"><ele>722.0</ele><time>2026-04-12T09:42:21.165Z</time></trkpt><trkpt lat="43.5783342" lon="11.3725706"><ele>722.0</ele><time>2026-04-12T09:42:22.164Z</time></trkpt><trkpt lat="43.5784545" lon="11.3724424"><ele>722.0</ele><time>2026-04-12T09:42:23.164Z</time></trkpt><trkpt lat="43.5785723" lon="11.3723264"><ele>722.0</ele><time>2026-04-12T09:42:24.165Z</time></trkpt><trkpt lat="43.5786974" lon="11.3722331"><ele>722.0</ele><time>2026-04-12T09:42:25.165Z</time></trkpt><trkpt lat="43.5788229" lon="11.3721514"><ele>718.75</ele><time>2026-04-12T09:42:26.164Z</time></trkpt><trkpt lat="43.5789356" lon="11.3720719"><ele>715.5</ele><time>2026-04-12T09:42:27.165Z</time></trkpt><trkpt lat="43.5790358" lon="11.3719773"><ele>712.25</ele><time>2026-04-12T09:42:28.164Z</time></trkpt><trkpt lat="43.5791173" lon="11.3718745"><ele>709.0</ele><time>2026-04-12T09:42:29.164Z</time></trkpt><trkpt lat="43.5791868" lon="11.3717699"><ele>709.0</ele><time>2026-04-12T09:42:30.165Z</time></trkpt><trkpt lat="43.5792593" lon="11.3716722"><ele>709.0</ele><time>2026-04-12T09:42:31.165Z</time></trkpt><trkpt lat="43.5793404" lon="11.3715862"><ele>709.0</ele><time>2026-04-12T09:42:32.165Z</time></trkpt><trkpt lat="43.5794323" lon="11.3715121"><ele>709.0</ele><time>2026-04-12T09:42:33.165Z</time></trkpt><trkpt lat="43.5795412" lon="11.3714616"><ele>709.0</ele><time>2026-04-12T09:42:34.164Z</time></trkpt><trkpt lat="43.5796602" lon="11.3714395"><ele>709.75</ele><time>2026-04-12T09:42:35.165Z</time></trkpt><trkpt lat="43.5797725" lon="11.3714147"><ele>710.5</ele><time>2026-04-12T09:42:36.165Z</time></trkpt><trkpt lat="43.5798811" lon="11.3713742"><ele>711.25</ele><time>2026-04-12T09:42:37.165Z</time></trkpt><trkpt lat="43.5799811" lon="11.3713041"><ele>712.0</ele><time>2026-04-12T09:42:38.164Z</time></trkpt><trkpt lat="43.5800705" lon="11.3712016"><ele>709.0</ele><time>2026-04-12T09:42:39.165Z</time></trkpt><trkpt lat="43.5801459" lon="11.3711021"><ele>706.0</ele><time>2026-04-12T09:42:40.165Z</time></trkpt><trkpt lat="43.5802142" lon="11.3710185"><ele>703.0</ele><time>2026-04-12T09:42:41.164Z</time></trkpt><trkpt lat="43.5802789" lon="11.3709493"><ele>700.0</ele><time>2026-04-12T09:42:42.165Z</time></trkpt><trkpt lat="43.580342" lon="11.3708908"><ele>697.0</ele><time>2026-04-12T09:42:43.164Z</time></trkpt><trkpt lat="43.5804245" lon="11.3709377"><ele>694.0</ele><time>2026-04-12T09:42:44.165Z</time></trkpt><trkpt lat="43.5805154" lon="11.3709857"><ele>692.75</ele><time>2026-04-12T09:42:45.165Z</time></trkpt><trkpt lat="43.5806171" lon="11.3710579"><ele>691.5</ele><time>2026-04-12T09:42:46.165Z</time></trkpt><trkpt lat="43.5807202" lon="11.3711298"><ele>690.25</ele><time>2026-04-12T09:42:47.164Z</time></trkpt><trkpt lat="43.5808362" lon="11.3711867"><ele>689.0</ele><time>2026-04-12T09:42:48.165Z</time></trkpt><trkpt lat="43.5809614" lon="11.3712198"><ele>689.0</ele><time>2026-04-12T09:42:49.165Z</time></trkpt><trkpt lat="43.5810998" lon="11.3712323"><ele>689.0</ele><time>2026-04-12T09:42:50.165Z</time></trkpt><trkpt lat="43.5812356" lon="11.3712194"><ele>689.0</ele><time>2026-04-12T09:42:51.165Z</time></trkpt><trkpt lat="43.5813905" lon="11.371201"><ele>689.0</ele><time>2026-04-12T09:42:52.165Z</time></trkpt><trkpt lat="43.5815328" lon="11.3711816"><ele>685.6666666666666</ele><time>2026-04-12T09:42:53.165Z</time></trkpt><trkpt lat="43.5816932" lon="11.3711509"><ele>682.3333333333334</ele><time>2026-04-12T09:42:54.165Z</time></trkpt><trkpt lat="43.5818524" lon="11.3711092"><ele>679.0</ele><time>2026-04-12T09:42:55.165Z</time></trkpt><trkpt lat="43.5820222" lon="11.3710553"><ele>676.0</ele><time>2026-04-12T09:42:56.165Z</time></trkpt><trkpt lat="43.5821823" lon="11.3710041"><ele>673.0</ele><time>2026-04-12T09:42:57.164Z</time></trkpt><trkpt lat="43.5823318" lon="11.3709536"><ele>670.0</ele><time>2026-04-12T09:42:58.165Z</time></trkpt><trkpt lat="43.5824759" lon="11.3708958"><ele>670.0</ele><time>2026-04-12T09:42:59.165Z</time></trkpt><trkpt lat="43.5826165" lon="11.3708347"><ele>670.0</ele><time>2026-04-12T09:43:00.164Z</time></trkpt><trkpt lat="43.5827444" lon="11.3707628"><ele>670.0</ele><time>2026-04-12T09:43:01.164Z</time></trkpt><trkpt lat="43.5828656" lon="11.3706743"><ele>670.0</ele><time>2026-04-12T09:43:02.164Z</time></trkpt><trkpt lat="43.5829812" lon="11.3705732"><ele>668.25</ele><time>2026-04-12T09:43:03.165Z</time></trkpt><trkpt lat="43.5830919" lon="11.3704541"><ele>666.5</ele><time>2026-04-12T09:43:04.165Z</time></trkpt><trkpt lat="43.5832" lon="11.3703319"><ele>664.75</ele><time>2026-04-12T09:43:05.165Z</time></trkpt><trkpt lat="43.5833064" lon="11.3702123"><ele>663.0</ele><time>2026-04-12T09:43:06.165Z</time></trkpt><trkpt lat="43.5834198" lon="11.3700796"><ele>663.0</ele><time>2026-04-12T09:43:07.165Z</time></trkpt><trkpt lat="43.5835417" lon="11.3699378"><ele>663.0</ele><time>2026-04-12T09:43:08.164Z</time></trkpt><trkpt lat="43.5836659" lon="11.3697957"><ele>663.0</ele><time>2026-04-12T09:43:09.165Z</time></trkpt><trkpt lat="43.5837947" lon="11.3696503"><ele>661.6666666666666</ele><time>2026-04-12T09:43:10.165Z</time></trkpt><trkpt lat="43.5839264" lon="11.3695016"><ele>660.3333333333333</ele><time>2026-04-12T09:43:11.165Z</time></trkpt><trkpt lat="43.5840593" lon="11.3693552"><ele>659.0</ele><time>2026-04-12T09:43:12.165Z</time></trkpt><trkpt lat="43.5841848" lon="11.3692134"><ele>659.0</ele><time>2026-04-12T09:43:13.164Z</time></trkpt><trkpt lat="43.5843043" lon="11.3690843"><ele>659.0</ele><time>2026-04-12T09:43:14.164Z</time></trkpt><trkpt lat="43.5844232" lon="11.3689716"><ele>659.0</ele><time>2026-04-12T09:43:15.164Z</time></trkpt><trkpt lat="43.5845451" lon="11.3688592"><ele>659.0</ele><time>2026-04-12T09:43:16.165Z</time></trkpt><trkpt lat="43.5846607" lon="11.3687521"><ele>656.0</ele><time>2026-04-12T09:43:17.165Z</time></trkpt><trkpt lat="43.5847731" lon="11.368647"><ele>653.0</ele><time>2026-04-12T09:43:18.164Z</time></trkpt><trkpt lat="43.5848808" lon="11.368539"><ele>650.0</ele><time>2026-04-12T09:43:19.164Z</time></trkpt><trkpt lat="43.5849918" lon="11.3684383"><ele>647.0</ele><time>2026-04-12T09:43:20.165Z</time></trkpt><trkpt lat="43.5851021" lon="11.3683345"><ele>647.0</ele><time>2026-04-12T09:43:21.164Z</time></trkpt><trkpt lat="43.5851982" lon="11.3682429"><ele>647.0</ele><time>2026-04-12T09:43:22.165Z</time></trkpt><trkpt lat="43.5852807" lon="11.368159"><ele>647.0</ele><time>2026-04-12T09:43:23.164Z</time></trkpt><trkpt lat="43.585354" lon="11.3680817"><ele>647.0</ele><time>2026-04-12T09:43:24.164Z</time></trkpt><trkpt lat="43.5853978" lon="11.3680144"><ele>647.0</ele><time>2026-04-12T09:43:25.165Z</time></trkpt><trkpt lat="43.585428" lon="11.3679001"><ele>646.2</ele><time>2026-04-12T09:43:27.164Z</time></trkpt><trkpt lat="43.5853966" lon="11.3677783"><ele>645.4000000000001</ele><time>2026-04-12T09:43:29.165Z</time></trkpt><trkpt lat="43.5853767" lon="11.3676758"><ele>644.5999999999999</ele><time>2026-04-12T09:43:30.165Z</time></trkpt><trkpt lat="43.5853576" lon="11.3675499"><ele>643.8</ele><time>2026-04-12T09:43:31.164Z</time></trkpt><trkpt lat="43.5853428" lon="11.367416"><ele>643.0</ele><time>2026-04-12T09:43:32.164Z</time></trkpt><trkpt lat="43.5853427" lon="11.3672873"><ele>640.3333333333334</ele><time>2026-04-12T09:43:33.165Z</time></trkpt><trkpt lat="43.585351" lon="11.3671605"><ele>637.6666666666667</ele><time>2026-04-12T09:43:34.165Z</time></trkpt><trkpt lat="43.5853578" lon="11.3670384"><ele>635.0</ele><time>2026-04-12T09:43:35.165Z</time></trkpt><trkpt lat="43.5853635" lon="11.3669191"><ele>632.3333333333334</ele><time>2026-04-12T09:43:36.165Z</time></trkpt><trkpt lat="43.5853748" lon="11.3668041"><ele>629.6666666666666</ele><time>2026-04-12T09:43:37.165Z</time></trkpt><trkpt lat="43.5853865" lon="11.366694"><ele>627.0</ele><time>2026-04-12T09:43:38.165Z</time></trkpt><trkpt lat="43.5853943" lon="11.3665957"><ele>627.0</ele><time>2026-04-12T09:43:39.165Z</time></trkpt><trkpt lat="43.5854037" lon="11.3664918"><ele>627.0</ele><time>2026-04-12T09:43:40.165Z</time></trkpt><trkpt lat="43.5854143" lon="11.366405"><ele>627.0</ele><time>2026-04-12T09:43:41.165Z</time></trkpt><trkpt lat="43.5854648" lon="11.3663026"><ele>627.0</ele><time>2026-04-12T09:43:43.165Z</time></trkpt><trkpt lat="43.5855291" lon="11.3662456"><ele>627.0</ele><time>2026-04-12T09:43:45.165Z</time></trkpt><trkpt lat="43.5855925" lon="11.3662752"><ele>627.0</ele><time>2026-04-12T09:43:55.164Z</time></trkpt><trkpt lat="43.5856554" lon="11.3662788"><ele>627.0</ele><time>2026-04-12T09:44:39.165Z</time></trkpt><trkpt lat="43.585783" lon="11.3662993"><ele>627.0</ele><time>2026-04-12T09:44:43.165Z</time></trkpt><trkpt lat="43.5858603" lon="11.3663092"><ele>627.0</ele><time>2026-04-12T09:44:44.164Z</time></trkpt><trkpt lat="43.5859616" lon="11.3663154"><ele>627.0</ele><time>2026-04-12T09:44:45.164Z</time></trkpt><trkpt lat="43.5860646" lon="11.3663247"><ele>627.0</ele><time>2026-04-12T09:44:46.165Z</time></trkpt><trkpt lat="43.5861717" lon="11.3663356"><ele>627.0</ele><time>2026-04-12T09:44:47.165Z</time></trkpt><trkpt lat="43.5862902" lon="11.3663445"><ele>627.0</ele><time>2026-04-12T09:44:48.165Z</time></trkpt><trkpt lat="43.5864132" lon="11.3663564"><ele>627.0</ele><time>2026-04-12T09:44:49.164Z</time></trkpt><trkpt lat="43.5865352" lon="11.3663707"><ele>627.0</ele><time>2026-04-12T09:44:50.165Z</time></trkpt><trkpt lat="43.5866498" lon="11.3663834"><ele>627.0</ele><time>2026-04-12T09:44:51.165Z</time></trkpt><trkpt lat="43.5867613" lon="11.3663877"><ele>627.0</ele><time>2026-04-12T09:44:52.165Z</time></trkpt><trkpt lat="43.5868832" lon="11.366383"><ele>627.0</ele><time>2026-04-12T09:44:53.164Z</time></trkpt><trkpt lat="43.587007" lon="11.366376"><ele>627.0</ele><time>2026-04-12T09:44:54.165Z</time></trkpt><trkpt lat="43.5871396" lon="11.3663622"><ele>627.0</ele><time>2026-04-12T09:44:55.165Z</time></trkpt><trkpt lat="43.5872702" lon="11.3663576"><ele>626.25</ele><time>2026-04-12T09:44:56.165Z</time></trkpt><trkpt lat="43.58739" lon="11.3663554"><ele>625.5</ele><time>2026-04-12T09:44:57.165Z</time></trkpt><trkpt lat="43.5875057" lon="11.3663546"><ele>624.75</ele><time>2026-04-12T09:44:58.165Z</time></trkpt><trkpt lat="43.5876193" lon="11.3663647"><ele>624.0</ele><time>2026-04-12T09:44:59.165Z</time></trkpt><trkpt lat="43.5877318" lon="11.3663712"><ele>623.8</ele><time>2026-04-12T09:45:00.165Z</time></trkpt><trkpt lat="43.5878324" lon="11.366379"><ele>623.5999999999999</ele><time>2026-04-12T09:45:01.164Z</time></trkpt><trkpt lat="43.5879376" lon="11.3663852"><ele>623.4</ele><time>2026-04-12T09:45:02.164Z</time></trkpt><trkpt lat="43.5880356" lon="11.3664188"><ele>623.1999999999999</ele><time>2026-04-12T09:45:03.165Z</time></trkpt><trkpt lat="43.5881282" lon="11.3664419"><ele>623.0</ele><time>2026-04-12T09:45:04.165Z</time></trkpt><trkpt lat="43.5882188" lon="11.366461"><ele>622.5</ele><time>2026-04-12T09:45:05.164Z</time></trkpt><trkpt lat="43.5883045" lon="11.3664816"><ele>622.0</ele><time>2026-04-12T09:45:06.165Z</time></trkpt><trkpt lat="43.588388" lon="11.3665015"><ele>621.5</ele><time>2026-04-12T09:45:07.164Z</time></trkpt><trkpt lat="43.5884792" lon="11.366516"><ele>621.0</ele><time>2026-04-12T09:45:08.164Z</time></trkpt><trkpt lat="43.5885714" lon="11.3665102"><ele>620.5</ele><time>2026-04-12T09:45:09.165Z</time></trkpt><trkpt lat="43.5886603" lon="11.3664861"><ele>620.0</ele><time>2026-04-12T09:45:10.165Z</time></trkpt><trkpt lat="43.588735" lon="11.3664642"><ele>619.6</ele><time>2026-04-12T09:45:11.165Z</time></trkpt><trkpt lat="43.5888058" lon="11.3664608"><ele>619.2</ele><time>2026-04-12T09:45:12.165Z</time></trkpt><trkpt lat="43.5889213" lon="11.3665112"><ele>618.8</ele><time>2026-04-12T09:45:14.164Z</time></trkpt><trkpt lat="43.5889915" lon="11.3665418"><ele>618.4</ele><time>2026-04-12T09:45:15.165Z</time></trkpt><trkpt lat="43.589111" lon="11.3665941"><ele>618.0</ele><time>2026-04-12T09:45:17.164Z</time></trkpt><trkpt lat="43.5892182" lon="11.3666206"><ele>618.0</ele><time>2026-04-12T09:45:19.165Z</time></trkpt><trkpt lat="43.589281" lon="11.3666145"><ele>618.0</ele><time>2026-04-12T09:45:20.164Z</time></trkpt><trkpt lat="43.5893846" lon="11.3666274"><ele>618.0</ele><time>2026-04-12T09:45:22.165Z</time></trkpt><trkpt lat="43.589442" lon="11.3667028"><ele>618.0</ele><time>2026-04-12T09:45:24.165Z</time></trkpt><trkpt lat="43.5894914" lon="11.3667838"><ele>618.0</ele><time>2026-04-12T09:45:26.165Z</time></trkpt><trkpt lat="43.5895746" lon="11.366836"><ele>618.0</ele><time>2026-04-12T09:45:28.165Z</time></trkpt><trkpt lat="43.5896472" lon="11.3668843"><ele>616.6</ele><time>2026-04-12T09:45:30.165Z</time></trkpt><trkpt lat="43.5897397" lon="11.3669662"><ele>615.1999999999999</ele><time>2026-04-12T09:45:32.165Z</time></trkpt><trkpt lat="43.5898053" lon="11.3669898"><ele>613.8</ele><time>2026-04-12T09:45:33.165Z</time></trkpt><trkpt lat="43.5899189" lon="11.3670087"><ele>612.4</ele><time>2026-04-12T09:45:35.164Z</time></trkpt><trkpt lat="43.5899732" lon="11.3669522"><ele>611.0</ele><time>2026-04-12T09:45:36.165Z</time></trkpt><trkpt lat="43.5900739" lon="11.3669116"><ele>611.0</ele><time>2026-04-12T09:45:38.164Z</time></trkpt><trkpt lat="43.5901702" lon="11.3668243"><ele>611.0</ele><time>2026-04-12T09:45:40.165Z</time></trkpt><trkpt lat="43.59023" lon="11.3667781"><ele>611.0</ele><time>2026-04-12T09:45:41.164Z</time></trkpt><trkpt lat="43.590298" lon="11.3667522"><ele>611.0</ele><time>2026-04-12T09:45:42.165Z</time></trkpt><trkpt lat="43.5903622" lon="11.3667058"><ele>611.0</ele><time>2026-04-12T09:45:43.165Z</time></trkpt><trkpt lat="43.5904168" lon="11.3666143"><ele>611.0</ele><time>2026-04-12T09:45:44.165Z</time></trkpt><trkpt lat="43.5904835" lon="11.3665101"><ele>608.8333333333333</ele><time>2026-04-12T09:45:45.165Z</time></trkpt><trkpt lat="43.5905327" lon="11.366407"><ele>606.6666666666666</ele><time>2026-04-12T09:45:46.164Z</time></trkpt><trkpt lat="43.5905558" lon="11.366311"><ele>604.5</ele><time>2026-04-12T09:45:47.164Z</time></trkpt><trkpt lat="43.5906077" lon="11.3662157"><ele>602.3333333333334</ele><time>2026-04-12T09:45:49.165Z</time></trkpt><trkpt lat="43.5906903" lon="11.3662254"><ele>600.1666666666667</ele><time>2026-04-12T09:45:51.164Z</time></trkpt><trkpt lat="43.5907536" lon="11.366272"><ele>598.0</ele><time>2026-04-12T09:45:52.165Z</time></trkpt><trkpt lat="43.5908277" lon="11.3663542"><ele>598.0</ele><time>2026-04-12T09:45:54.165Z</time></trkpt><trkpt lat="43.5908929" lon="11.366455"><ele>598.0</ele><time>2026-04-12T09:45:56.164Z</time></trkpt><trkpt lat="43.5909502" lon="11.3665051"><ele>598.0</ele><time>2026-04-12T09:45:58.165Z</time></trkpt><trkpt lat="43.5910057" lon="11.3665471"><ele>598.0</ele><time>2026-04-12T09:46:26.164Z</time></trkpt><trkpt lat="43.5910346" lon="11.3666294"><ele>598.0</ele><time>2026-04-12T09:46:28.165Z</time></trkpt><trkpt lat="43.5910247" lon="11.3667744"><ele>598.0</ele><time>2026-04-12T09:46:30.165Z</time></trkpt><trkpt lat="43.5910173" lon="11.3668731"><ele>598.0</ele><time>2026-04-12T09:46:31.165Z</time></trkpt><trkpt lat="43.5910344" lon="11.366968"><ele>598.0</ele><time>2026-04-12T09:46:32.165Z</time></trkpt><trkpt lat="43.5911184" lon="11.3670242"><ele>598.0</ele><time>2026-04-12T09:46:34.165Z</time></trkpt><trkpt lat="43.5912346" lon="11.3669699"><ele>598.0</ele><time>2026-04-12T09:46:36.165Z</time></trkpt><trkpt lat="43.591348" lon="11.3669095"><ele>598.0</ele><time>2026-04-12T09:46:38.165Z</time></trkpt><trkpt lat="43.5914778" lon="11.3668362"><ele>598.6666666666667</ele><time>2026-04-12T09:46:40.165Z</time></trkpt><trkpt lat="43.5915782" lon="11.3667314"><ele>599.3333333333334</ele><time>2026-04-12T09:46:42.165Z</time></trkpt><trkpt lat="43.5916324" lon="11.366663"><ele>600.0</ele><time>2026-04-12T09:46:43.164Z</time></trkpt><trkpt lat="43.5916865" lon="11.3666096"><ele>600.6666666666666</ele><time>2026-04-12T09:46:44.165Z</time></trkpt><trkpt lat="43.5917365" lon="11.366536"><ele>601.3333333333333</ele><time>2026-04-12T09:46:47.165Z</time></trkpt><trkpt lat="43.5917981" lon="11.3664691"><ele>602.0</ele><time>2026-04-12T09:46:50.165Z</time></trkpt><trkpt lat="43.5918832" lon="11.3664007"><ele>602.3333333333333</ele><time>2026-04-12T09:46:52.165Z</time></trkpt><trkpt lat="43.5919388" lon="11.3663529"><ele>602.6666666666666</ele><time>2026-04-12T09:46:53.165Z</time></trkpt><trkpt lat="43.5920345" lon="11.3662898"><ele>603.0</ele><time>2026-04-12T09:46:55.165Z</time></trkpt><trkpt lat="43.5920889" lon="11.3662418"><ele>603.3333333333334</ele><time>2026-04-12T09:47:04.165Z</time></trkpt><trkpt lat="43.5921693" lon="11.3662376"><ele>603.6666666666667</ele><time>2026-04-12T09:47:10.165Z</time></trkpt><trkpt lat="43.5922593" lon="11.3662361"><ele>604.0</ele><time>2026-04-12T09:49:52.165Z</time></trkpt><trkpt lat="43.5923511" lon="11.366249"><ele>604.0</ele><time>2026-04-12T09:49:54.164Z</time></trkpt><trkpt lat="43.5924401" lon="11.3662488"><ele>604.0</ele><time>2026-04-12T09:49:56.164Z</time></trkpt><trkpt lat="43.592538" lon="11.3662338"><ele>604.0</ele><time>2026-04-12T09:49:58.165Z</time></trkpt><trkpt lat="43.5926158" lon="11.3662223"><ele>604.0</ele><time>2026-04-12T09:49:59.165Z</time></trkpt><trkpt lat="43.5926911" lon="11.3662161"><ele>604.0</ele><time>2026-04-12T09:50:00.164Z</time></trkpt><trkpt lat="43.5927748" lon="11.3661971"><ele>604.0</ele><time>2026-04-12T09:50:01.165Z</time></trkpt><trkpt lat="43.5928773" lon="11.3661649"><ele>604.1428571428572</ele><time>2026-04-12T09:50:02.165Z</time></trkpt><trkpt lat="43.5929677" lon="11.3661372"><ele>604.2857142857143</ele><time>2026-04-12T09:50:03.165Z</time></trkpt><trkpt lat="43.593036" lon="11.366147"><ele>604.4285714285714</ele><time>2026-04-12T09:50:04.165Z</time></trkpt><trkpt lat="43.5930971" lon="11.366197"><ele>604.5714285714287</ele><time>2026-04-12T09:50:05.165Z</time></trkpt><trkpt lat="43.593153" lon="11.3662666"><ele>604.7142857142858</ele><time>2026-04-12T09:50:06.165Z</time></trkpt><trkpt lat="43.593203" lon="11.3663267"><ele>604.8571428571429</ele><time>2026-04-12T09:50:07.165Z</time></trkpt><trkpt lat="43.5932583" lon="11.3663921"><ele>605.0</ele><time>2026-04-12T09:50:08.164Z</time></trkpt><trkpt lat="43.5933104" lon="11.3664552"><ele>605.0</ele><time>2026-04-12T09:50:09.165Z</time></trkpt><trkpt lat="43.5933565" lon="11.3665295"><ele>605.0</ele><time>2026-04-12T09:50:10.165Z</time></trkpt><trkpt lat="43.59344" lon="11.3666359"><ele>605.0</ele><time>2026-04-12T09:50:12.165Z</time></trkpt><trkpt lat="43.5935513" lon="11.3665971"><ele>605.0</ele><time>2026-04-12T09:50:14.165Z</time></trkpt><trkpt lat="43.5936284" lon="11.3664785"><ele>605.0</ele><time>2026-04-12T09:50:16.165Z</time></trkpt><trkpt lat="43.5937084" lon="11.3663634"><ele>601.8</ele><time>2026-04-12T09:50:18.164Z</time></trkpt><trkpt lat="43.5937656" lon="11.3662221"><ele>598.6</ele><time>2026-04-12T09:50:20.164Z</time></trkpt><trkpt lat="43.5938049" lon="11.3660839"><ele>595.4</ele><time>2026-04-12T09:50:22.165Z</time></trkpt><trkpt lat="43.5938137" lon="11.365971"><ele>592.2</ele><time>2026-04-12T09:50:24.165Z</time></trkpt><trkpt lat="43.5938822" lon="11.3659868"><ele>589.0</ele><time>2026-04-12T09:50:28.165Z</time></trkpt><trkpt lat="43.5939579" lon="11.3660246"><ele>589.0</ele><time>2026-04-12T09:50:48.164Z</time></trkpt><trkpt lat="43.594025" lon="11.3660335"><ele>589.0</ele><time>2026-04-12T09:50:50.165Z</time></trkpt><trkpt lat="43.5941489" lon="11.3659764"><ele>589.0</ele><time>2026-04-12T09:50:52.165Z</time></trkpt><trkpt lat="43.5942138" lon="11.365925"><ele>589.0</ele><time>2026-04-12T09:50:53.165Z</time></trkpt><trkpt lat="43.5942771" lon="11.3658611"><ele>589.0</ele><time>2026-04-12T09:50:54.165Z</time></trkpt><trkpt lat="43.5943421" lon="11.3658116"><ele>589.0</ele><time>2026-04-12T09:50:55.165Z</time></trkpt><trkpt lat="43.594409" lon="11.3657869"><ele>589.0</ele><time>2026-04-12T09:50:56.164Z</time></trkpt><trkpt lat="43.5944778" lon="11.3657822"><ele>589.0</ele><time>2026-04-12T09:50:57.165Z</time></trkpt><trkpt lat="43.5945511" lon="11.3658049"><ele>589.0</ele><time>2026-04-12T09:50:58.164Z</time></trkpt><trkpt lat="43.5946507" lon="11.3658417"><ele>589.0</ele><time>2026-04-12T09:50:59.165Z</time></trkpt><trkpt lat="43.5947492" lon="11.3658938"><ele>589.0</ele><time>2026-04-12T09:51:00.165Z</time></trkpt><trkpt lat="43.5948541" lon="11.3659313"><ele>586.8</ele><time>2026-04-12T09:51:01.164Z</time></trkpt><trkpt lat="43.5949556" lon="11.3659501"><ele>584.5999999999999</ele><time>2026-04-12T09:51:02.165Z</time></trkpt><trkpt lat="43.5950615" lon="11.3659469"><ele>582.4</ele><time>2026-04-12T09:51:03.164Z</time></trkpt><trkpt lat="43.595165" lon="11.3659163"><ele>580.1999999999999</ele><time>2026-04-12T09:51:04.164Z</time></trkpt><trkpt lat="43.5952744" lon="11.3658655"><ele>578.0</ele><time>2026-04-12T09:51:05.164Z</time></trkpt><trkpt lat="43.5953765" lon="11.3658074"><ele>578.0</ele><time>2026-04-12T09:51:06.165Z</time></trkpt><trkpt lat="43.5954793" lon="11.3657538"><ele>578.0</ele><time>2026-04-12T09:51:07.165Z</time></trkpt><trkpt lat="43.5955626" lon="11.3656879"><ele>578.0</ele><time>2026-04-12T09:51:08.165Z</time></trkpt><trkpt lat="43.5956295" lon="11.3655898"><ele>578.0</ele><time>2026-04-12T09:51:09.164Z</time></trkpt><trkpt lat="43.5956837" lon="11.3654706"><ele>578.0</ele><time>2026-04-12T09:51:10.164Z</time></trkpt><trkpt lat="43.5957218" lon="11.3653326"><ele>576.8</ele><time>2026-04-12T09:51:11.165Z</time></trkpt><trkpt lat="43.5957454" lon="11.3651819"><ele>575.5999999999999</ele><time>2026-04-12T09:51:12.164Z</time></trkpt><trkpt lat="43.5957492" lon="11.3650237"><ele>574.4000000000001</ele><time>2026-04-12T09:51:13.165Z</time></trkpt><trkpt lat="43.5957309" lon="11.3648772"><ele>573.2</ele><time>2026-04-12T09:51:14.165Z</time></trkpt><trkpt lat="43.595706" lon="11.364742"><ele>572.0</ele><time>2026-04-12T09:51:15.165Z</time></trkpt><trkpt lat="43.5956889" lon="11.3646114"><ele>570.2</ele><time>2026-04-12T09:51:16.165Z</time></trkpt><trkpt lat="43.5956762" lon="11.364482"><ele>568.4000000000001</ele><time>2026-04-12T09:51:17.165Z</time></trkpt><trkpt lat="43.5956788" lon="11.3643391"><ele>566.5999999999999</ele><time>2026-04-12T09:51:18.165Z</time></trkpt><trkpt lat="43.595692" lon="11.3641992"><ele>564.8</ele><time>2026-04-12T09:51:19.165Z</time></trkpt><trkpt lat="43.5957123" lon="11.3640574"><ele>563.0</ele><time>2026-04-12T09:51:20.165Z</time></trkpt><trkpt lat="43.5957399" lon="11.3639138"><ele>560.5</ele><time>2026-04-12T09:51:21.164Z</time></trkpt><trkpt lat="43.5957781" lon="11.3638091"><ele>558.0</ele><time>2026-04-12T09:51:22.165Z</time></trkpt><trkpt lat="43.5958254" lon="11.3637231"><ele>555.5</ele><time>2026-04-12T09:51:23.165Z</time></trkpt><trkpt lat="43.5958876" lon="11.3636595"><ele>553.0</ele><time>2026-04-12T09:51:24.165Z</time></trkpt><trkpt lat="43.5959639" lon="11.3636127"><ele>550.5</ele><time>2026-04-12T09:51:25.165Z</time></trkpt><trkpt lat="43.5960376" lon="11.3635729"><ele>548.0</ele><time>2026-04-12T09:51:26.164Z</time></trkpt><trkpt lat="43.5961093" lon="11.3635428"><ele>547.1666666666666</ele><time>2026-04-12T09:51:27.164Z</time></trkpt><trkpt lat="43.5961787" lon="11.3635194"><ele>546.3333333333333</ele><time>2026-04-12T09:51:28.165Z</time></trkpt><trkpt lat="43.5962539" lon="11.3635308"><ele>545.5</ele><time>2026-04-12T09:51:29.164Z</time></trkpt><trkpt lat="43.5963425" lon="11.3635603"><ele>544.6666666666666</ele><time>2026-04-12T09:51:30.165Z</time></trkpt><trkpt lat="43.5964277" lon="11.3636093"><ele>543.8333333333334</ele><time>2026-04-12T09:51:31.165Z</time></trkpt><trkpt lat="43.5965075" lon="11.3636527"><ele>543.0</ele><time>2026-04-12T09:51:32.165Z</time></trkpt><trkpt lat="43.5965781" lon="11.3637108"><ele>543.0</ele><time>2026-04-12T09:51:33.165Z</time></trkpt><trkpt lat="43.5966396" lon="11.3637898"><ele>543.0</ele><time>2026-04-12T09:51:34.165Z</time></trkpt><trkpt lat="43.5967051" lon="11.3638588"><ele>543.0</ele><time>2026-04-12T09:51:35.165Z</time></trkpt><trkpt lat="43.5967758" lon="11.363909"><ele>543.0</ele><time>2026-04-12T09:51:36.165Z</time></trkpt><trkpt lat="43.5968552" lon="11.363928"><ele>543.0</ele><time>2026-04-12T09:51:37.165Z</time></trkpt><trkpt lat="43.5969443" lon="11.3639307"><ele>543.0</ele><time>2026-04-12T09:51:38.164Z</time></trkpt><trkpt lat="43.5970427" lon="11.3639105"><ele>542.0</ele><time>2026-04-12T09:51:39.164Z</time></trkpt><trkpt lat="43.5971562" lon="11.3638715"><ele>541.0</ele><time>2026-04-12T09:51:40.165Z</time></trkpt><trkpt lat="43.5972719" lon="11.3638119"><ele>540.0</ele><time>2026-04-12T09:51:41.165Z</time></trkpt><trkpt lat="43.5973847" lon="11.3637545"><ele>539.0</ele><time>2026-04-12T09:51:42.165Z</time></trkpt><trkpt lat="43.5974884" lon="11.3637054"><ele>537.8333333333333</ele><time>2026-04-12T09:51:43.165Z</time></trkpt><trkpt lat="43.5975833" lon="11.3636878"><ele>536.6666666666666</ele><time>2026-04-12T09:51:44.165Z</time></trkpt><trkpt lat="43.5976717" lon="11.3637073"><ele>535.5</ele><time>2026-04-12T09:51:45.165Z</time></trkpt><trkpt lat="43.5977544" lon="11.3637315"><ele>534.3333333333334</ele><time>2026-04-12T09:51:46.164Z</time></trkpt><trkpt lat="43.5978299" lon="11.363749"><ele>533.1666666666667</ele><time>2026-04-12T09:51:47.165Z</time></trkpt><trkpt lat="43.5978978" lon="11.3637633"><ele>532.0</ele><time>2026-04-12T09:51:48.165Z</time></trkpt><trkpt lat="43.5980092" lon="11.3637786"><ele>532.0</ele><time>2026-04-12T09:51:50.165Z</time></trkpt><trkpt lat="43.5981059" lon="11.363786"><ele>532.0</ele><time>2026-04-12T09:51:52.165Z</time></trkpt><trkpt lat="43.598171" lon="11.363778"><ele>532.0</ele><time>2026-04-12T09:51:55.165Z</time></trkpt><trkpt lat="43.5982258" lon="11.3637005"><ele>532.0</ele><time>2026-04-12T09:56:22.165Z</time></trkpt><trkpt lat="43.5981932" lon="11.3635988"><ele>532.0</ele><time>2026-04-12T09:56:24.165Z</time></trkpt><trkpt lat="43.5981272" lon="11.3634776"><ele>532.0</ele><time>2026-04-12T09:56:26.165Z</time></trkpt><trkpt lat="43.5980814" lon="11.3634006"><ele>532.0</ele><time>2026-04-12T09:56:27.165Z</time></trkpt><trkpt lat="43.5980289" lon="11.363328"><ele>532.0</ele><time>2026-04-12T09:56:28.165Z</time></trkpt><trkpt lat="43.597964" lon="11.3632556"><ele>532.0</ele><time>2026-04-12T09:56:29.165Z</time></trkpt><trkpt lat="43.5978824" lon="11.3631892"><ele>532.0</ele><time>2026-04-12T09:56:30.165Z</time></trkpt><trkpt lat="43.5977753" lon="11.3631381"><ele>532.0</ele><time>2026-04-12T09:56:31.165Z</time></trkpt><trkpt lat="43.5976575" lon="11.3630995"><ele>532.0</ele><time>2026-04-12T09:56:32.165Z</time></trkpt><trkpt lat="43.5975302" lon="11.363062"><ele>532.0</ele><time>2026-04-12T09:56:33.165Z</time></trkpt><trkpt lat="43.5973963" lon="11.3630267"><ele>532.0</ele><time>2026-04-12T09:56:34.165Z</time></trkpt><trkpt lat="43.5972526" lon="11.3629855"><ele>532.0</ele><time>2026-04-12T09:56:35.165Z</time></trkpt><trkpt lat="43.5971116" lon="11.3629269"><ele>530.5</ele><time>2026-04-12T09:56:36.165Z</time></trkpt><trkpt lat="43.5969739" lon="11.3628441"><ele>529.0</ele><time>2026-04-12T09:56:37.165Z</time></trkpt><trkpt lat="43.5968613" lon="11.362715"><ele>527.5</ele><time>2026-04-12T09:56:38.164Z</time></trkpt><trkpt lat="43.5967815" lon="11.3625612"><ele>526.0</ele><time>2026-04-12T09:56:39.165Z</time></trkpt><trkpt lat="43.5967231" lon="11.3623977"><ele>526.0</ele><time>2026-04-12T09:56:40.165Z</time></trkpt><trkpt lat="43.5966552" lon="11.3622647"><ele>526.0</ele><time>2026-04-12T09:56:41.165Z</time></trkpt><trkpt lat="43.5965608" lon="11.3621661"><ele>526.0</ele><time>2026-04-12T09:56:42.165Z</time></trkpt><trkpt lat="43.5964409" lon="11.362123"><ele>526.0</ele><time>2026-04-12T09:56:43.164Z</time></trkpt><trkpt lat="43.5962991" lon="11.3621149"><ele>525.0</ele><time>2026-04-12T09:56:44.164Z</time></trkpt><trkpt lat="43.5961464" lon="11.362144"><ele>524.0</ele><time>2026-04-12T09:56:45.165Z</time></trkpt><trkpt lat="43.5959953" lon="11.3622089"><ele>523.0</ele><time>2026-04-12T09:56:46.165Z</time></trkpt><trkpt lat="43.595843" lon="11.3623091"><ele>523.0</ele><time>2026-04-12T09:56:47.165Z</time></trkpt><trkpt lat="43.5956931" lon="11.3624302"><ele>523.0</ele><time>2026-04-12T09:56:48.165Z</time></trkpt><trkpt lat="43.5955364" lon="11.3625548"><ele>523.0</ele><time>2026-04-12T09:56:49.164Z</time></trkpt><trkpt lat="43.5953754" lon="11.3626718"><ele>517.3333333333334</ele><time>2026-04-12T09:56:50.165Z</time></trkpt><trkpt lat="43.5952069" lon="11.3627739"><ele>511.66666666666663</ele><time>2026-04-12T09:56:51.165Z</time></trkpt><trkpt lat="43.5950479" lon="11.362866"><ele>506.0</ele><time>2026-04-12T09:56:52.164Z</time></trkpt><trkpt lat="43.5948995" lon="11.3629868"><ele>513.3333333333333</ele><time>2026-04-12T09:56:53.164Z</time></trkpt><trkpt lat="43.5947718" lon="11.3631387"><ele>520.6666666666666</ele><time>2026-04-12T09:56:54.165Z</time></trkpt><trkpt lat="43.5946405" lon="11.3632816"><ele>528.0</ele><time>2026-04-12T09:56:55.164Z</time></trkpt><trkpt lat="43.5945077" lon="11.3633869"><ele>525.3333333333334</ele><time>2026-04-12T09:56:56.165Z</time></trkpt><trkpt lat="43.594367" lon="11.3634553"><ele>522.6666666666667</ele><time>2026-04-12T09:56:57.165Z</time></trkpt><trkpt lat="43.5942147" lon="11.3634678"><ele>520.0</ele><time>2026-04-12T09:56:58.165Z</time></trkpt><trkpt lat="43.5940633" lon="11.3634277"><ele>520.0</ele><time>2026-04-12T09:56:59.165Z</time></trkpt><trkpt lat="43.5939026" lon="11.3633541"><ele>520.0</ele><time>2026-04-12T09:57:00.164Z</time></trkpt><trkpt lat="43.5937407" lon="11.3632758"><ele>520.0</ele><time>2026-04-12T09:57:01.165Z</time></trkpt><trkpt lat="43.5935787" lon="11.3632193"><ele>522.3333333333334</ele><time>2026-04-12T09:57:02.164Z</time></trkpt><trkpt lat="43.5934082" lon="11.363212"><ele>524.6666666666666</ele><time>2026-04-12T09:57:03.165Z</time></trkpt><trkpt lat="43.5932361" lon="11.3632341"><ele>527.0</ele><time>2026-04-12T09:57:04.164Z</time></trkpt><trkpt lat="43.5930754" lon="11.3632664"><ele>527.0</ele><time>2026-04-12T09:57:05.165Z</time></trkpt><trkpt lat="43.5929206" lon="11.363279"><ele>527.0</ele><time>2026-04-12T09:57:06.165Z</time></trkpt><trkpt lat="43.5927884" lon="11.3632915"><ele>527.0</ele><time>2026-04-12T09:57:07.165Z</time></trkpt><trkpt lat="43.5926708" lon="11.3632816"><ele>527.0</ele><time>2026-04-12T09:57:08.165Z</time></trkpt><trkpt lat="43.5925715" lon="11.3632331"><ele>528.0</ele><time>2026-04-12T09:57:09.165Z</time></trkpt><trkpt lat="43.5925" lon="11.3631474"><ele>529.0</ele><time>2026-04-12T09:57:10.165Z</time></trkpt><trkpt lat="43.5924678" lon="11.3630301"><ele>530.0</ele><time>2026-04-12T09:57:11.165Z</time></trkpt><trkpt lat="43.5924679" lon="11.3628859"><ele>531.0</ele><time>2026-04-12T09:57:12.165Z</time></trkpt><trkpt lat="43.5924947" lon="11.3627202"><ele>532.0</ele><time>2026-04-12T09:57:13.164Z</time></trkpt><trkpt lat="43.5925405" lon="11.362549"><ele>532.0</ele><time>2026-04-12T09:57:14.165Z</time></trkpt><trkpt lat="43.5926024" lon="11.3623695"><ele>532.0</ele><time>2026-04-12T09:57:15.164Z</time></trkpt><trkpt lat="43.5926782" lon="11.3621762"><ele>532.0</ele><time>2026-04-12T09:57:16.165Z</time></trkpt><trkpt lat="43.5927603" lon="11.361972"><ele>532.0</ele><time>2026-04-12T09:57:17.165Z</time></trkpt><trkpt lat="43.5928284" lon="11.3617659"><ele>532.0</ele><time>2026-04-12T09:57:18.165Z</time></trkpt><trkpt lat="43.5928814" lon="11.3615484"><ele>532.0</ele><time>2026-04-12T09:57:19.165Z</time></trkpt><trkpt lat="43.5929093" lon="11.3613382"><ele>529.25</ele><time>2026-04-12T09:57:20.165Z</time></trkpt><trkpt lat="43.5929189" lon="11.3611373"><ele>526.5</ele><time>2026-04-12T09:57:21.165Z</time></trkpt><trkpt lat="43.5928778" lon="11.3609613"><ele>523.75</ele><time>2026-04-12T09:57:22.165Z</time></trkpt><trkpt lat="43.5928119" lon="11.3608191"><ele>521.0</ele><time>2026-04-12T09:57:23.164Z</time></trkpt><trkpt lat="43.592706" lon="11.3607211"><ele>521.0</ele><time>2026-04-12T09:57:24.165Z</time></trkpt><trkpt lat="43.5925907" lon="11.3606626"><ele>521.0</ele><time>2026-04-12T09:57:25.164Z</time></trkpt><trkpt lat="43.5924941" lon="11.3605757"><ele>521.0</ele><time>2026-04-12T09:57:26.164Z</time></trkpt><trkpt lat="43.5924262" lon="11.3604463"><ele>521.0</ele><time>2026-04-12T09:57:27.164Z</time></trkpt><trkpt lat="43.5923991" lon="11.3602808"><ele>516.6666666666666</ele><time>2026-04-12T09:57:28.165Z</time></trkpt><trkpt lat="43.5924061" lon="11.3600892"><ele>512.3333333333334</ele><time>2026-04-12T09:57:29.164Z</time></trkpt><trkpt lat="43.5924319" lon="11.3598749"><ele>508.0</ele><time>2026-04-12T09:57:30.165Z</time></trkpt><trkpt lat="43.5924583" lon="11.3596562"><ele>507.6666666666667</ele><time>2026-04-12T09:57:31.165Z</time></trkpt><trkpt lat="43.5925026" lon="11.3594469"><ele>507.33333333333337</ele><time>2026-04-12T09:57:32.165Z</time></trkpt><trkpt lat="43.5925829" lon="11.3592555"><ele>507.0</ele><time>2026-04-12T09:57:33.164Z</time></trkpt><trkpt lat="43.5926686" lon="11.3591004"><ele>507.0</ele><time>2026-04-12T09:57:34.164Z</time></trkpt><trkpt lat="43.5927252" lon="11.3589443"><ele>507.0</ele><time>2026-04-12T09:57:35.165Z</time></trkpt><trkpt lat="43.5927329" lon="11.3587868"><ele>507.0</ele><time>2026-04-12T09:57:36.165Z</time></trkpt><trkpt lat="43.5927177" lon="11.3586221"><ele>507.0</ele><time>2026-04-12T09:57:37.165Z</time></trkpt><trkpt lat="43.592633" lon="11.3584682"><ele>505.66666666666663</ele><time>2026-04-12T09:57:38.165Z</time></trkpt><trkpt lat="43.59255" lon="11.3582869"><ele>504.3333333333333</ele><time>2026-04-12T09:57:39.164Z</time></trkpt><trkpt lat="43.5924856" lon="11.3580765"><ele>503.0</ele><time>2026-04-12T09:57:40.164Z</time></trkpt><trkpt lat="43.5924327" lon="11.3578487"><ele>497.0</ele><time>2026-04-12T09:57:41.165Z</time></trkpt><trkpt lat="43.5923968" lon="11.3575955"><ele>491.0</ele><time>2026-04-12T09:57:42.165Z</time></trkpt><trkpt lat="43.5923553" lon="11.357339"><ele>485.0</ele><time>2026-04-12T09:57:43.165Z</time></trkpt><trkpt lat="43.5923181" lon="11.3570987"><ele>479.66666666666663</ele><time>2026-04-12T09:57:44.164Z</time></trkpt><trkpt lat="43.592281" lon="11.3568776"><ele>474.33333333333337</ele><time>2026-04-12T09:57:45.164Z</time></trkpt><trkpt lat="43.5922322" lon="11.3566748"><ele>469.0</ele><time>2026-04-12T09:57:46.165Z</time></trkpt><trkpt lat="43.5921533" lon="11.3565017"><ele>471.0</ele><time>2026-04-12T09:57:47.165Z</time></trkpt><trkpt lat="43.5920319" lon="11.3563655"><ele>473.0</ele><time>2026-04-12T09:57:48.165Z</time></trkpt><trkpt lat="43.5918964" lon="11.3562542"><ele>475.0</ele><time>2026-04-12T09:57:49.165Z</time></trkpt><trkpt lat="43.5917718" lon="11.3561358"><ele>475.0</ele><time>2026-04-12T09:57:50.165Z</time></trkpt><trkpt lat="43.5916768" lon="11.3559948"><ele>475.0</ele><time>2026-04-12T09:57:51.165Z</time></trkpt><trkpt lat="43.5915876" lon="11.355853"><ele>475.0</ele><time>2026-04-12T09:57:52.165Z</time></trkpt><trkpt lat="43.5914898" lon="11.3557583"><ele>475.0</ele><time>2026-04-12T09:57:53.165Z</time></trkpt><trkpt lat="43.5913712" lon="11.3557078"><ele>475.0</ele><time>2026-04-12T09:57:54.164Z</time></trkpt><trkpt lat="43.591251" lon="11.355716"><ele>475.0</ele><time>2026-04-12T09:57:55.165Z</time></trkpt><trkpt lat="43.5911304" lon="11.3557519"><ele>475.0</ele><time>2026-04-12T09:57:56.165Z</time></trkpt><trkpt lat="43.5910098" lon="11.3557447"><ele>475.0</ele><time>2026-04-12T09:57:57.165Z</time></trkpt><trkpt lat="43.5908972" lon="11.3556871"><ele>475.6</ele><time>2026-04-12T09:57:58.165Z</time></trkpt><trkpt lat="43.5908158" lon="11.3555781"><ele>476.2</ele><time>2026-04-12T09:57:59.165Z</time></trkpt><trkpt lat="43.5907755" lon="11.3554458"><ele>476.79999999999995</ele><time>2026-04-12T09:58:00.165Z</time></trkpt><trkpt lat="43.5907892" lon="11.3552946"><ele>477.4</ele><time>2026-04-12T09:58:01.165Z</time></trkpt><trkpt lat="43.5908651" lon="11.3551661"><ele>478.0</ele><time>2026-04-12T09:58:02.165Z</time></trkpt><trkpt lat="43.5909608" lon="11.3550429"><ele>478.33333333333337</ele><time>2026-04-12T09:58:03.164Z</time></trkpt><trkpt lat="43.5911083" lon="11.3549551"><ele>478.66666666666663</ele><time>2026-04-12T09:58:04.165Z</time></trkpt><trkpt lat="43.5912514" lon="11.3548862"><ele>479.0</ele><time>2026-04-12T09:58:05.165Z</time></trkpt><trkpt lat="43.5914047" lon="11.3548085"><ele>480.25</ele><time>2026-04-12T09:58:06.164Z</time></trkpt><trkpt lat="43.5915444" lon="11.3547106"><ele>481.5</ele><time>2026-04-12T09:58:07.164Z</time></trkpt><trkpt lat="43.591667" lon="11.3545956"><ele>482.75</ele><time>2026-04-12T09:58:08.165Z</time></trkpt><trkpt lat="43.5917766" lon="11.3544843"><ele>484.0</ele><time>2026-04-12T09:58:09.164Z</time></trkpt><trkpt lat="43.5918846" lon="11.3543927"><ele>484.0</ele><time>2026-04-12T09:58:10.164Z</time></trkpt><trkpt lat="43.5919959" lon="11.3543321"><ele>484.0</ele><time>2026-04-12T09:58:11.165Z</time></trkpt><trkpt lat="43.5921024" lon="11.3542966"><ele>484.0</ele><time>2026-04-12T09:58:12.164Z</time></trkpt><trkpt lat="43.5921972" lon="11.3542551"><ele>484.0</ele><time>2026-04-12T09:58:13.164Z</time></trkpt><trkpt lat="43.5922759" lon="11.3541986"><ele>484.0</ele><time>2026-04-12T09:58:14.164Z</time></trkpt><trkpt lat="43.5923492" lon="11.3541104"><ele>480.5</ele><time>2026-04-12T09:58:15.164Z</time></trkpt><trkpt lat="43.5924247" lon="11.3540069"><ele>477.0</ele><time>2026-04-12T09:58:16.165Z</time></trkpt><trkpt lat="43.592504" lon="11.3538887"><ele>473.5</ele><time>2026-04-12T09:58:17.164Z</time></trkpt><trkpt lat="43.592588" lon="11.3537753"><ele>470.0</ele><time>2026-04-12T09:58:18.165Z</time></trkpt><trkpt lat="43.5926733" lon="11.3536677"><ele>470.0</ele><time>2026-04-12T09:58:19.164Z</time></trkpt><trkpt lat="43.5927554" lon="11.3535601"><ele>470.0</ele><time>2026-04-12T09:58:20.164Z</time></trkpt><trkpt lat="43.5928276" lon="11.3534196"><ele>470.0</ele><time>2026-04-12T09:58:21.165Z</time></trkpt><trkpt lat="43.5928905" lon="11.3532247"><ele>470.0</ele><time>2026-04-12T09:58:22.165Z</time></trkpt><trkpt lat="43.5929461" lon="11.3530106"><ele>468.0</ele><time>2026-04-12T09:58:23.164Z</time></trkpt><trkpt lat="43.5930066" lon="11.3528001"><ele>466.0</ele><time>2026-04-12T09:58:24.165Z</time></trkpt><trkpt lat="43.5931019" lon="11.3525933"><ele>464.0</ele><time>2026-04-12T09:58:25.165Z</time></trkpt><trkpt lat="43.5932104" lon="11.3524002"><ele>464.0</ele><time>2026-04-12T09:58:26.165Z</time></trkpt><trkpt lat="43.5933242" lon="11.35221"><ele>464.0</ele><time>2026-04-12T09:58:27.165Z</time></trkpt><trkpt lat="43.5934228" lon="11.3520038"><ele>464.0</ele><time>2026-04-12T09:58:28.165Z</time></trkpt><trkpt lat="43.593504" lon="11.3517822"><ele>467.0</ele><time>2026-04-12T09:58:29.165Z</time></trkpt><trkpt lat="43.5935737" lon="11.3515603"><ele>470.0</ele><time>2026-04-12T09:58:30.165Z</time></trkpt><trkpt lat="43.5936259" lon="11.351339"><ele>473.0</ele><time>2026-04-12T09:58:31.165Z</time></trkpt><trkpt lat="43.5936498" lon="11.3511134"><ele>473.0</ele><time>2026-04-12T09:58:32.165Z</time></trkpt><trkpt lat="43.5936397" lon="11.3508791"><ele>473.0</ele><time>2026-04-12T09:58:33.165Z</time></trkpt><trkpt lat="43.5935981" lon="11.3506574"><ele>473.0</ele><time>2026-04-12T09:58:34.165Z</time></trkpt><trkpt lat="43.593517" lon="11.3504476"><ele>470.3333333333333</ele><time>2026-04-12T09:58:35.165Z</time></trkpt><trkpt lat="43.5934236" lon="11.3502292"><ele>467.66666666666663</ele><time>2026-04-12T09:58:36.165Z</time></trkpt><trkpt lat="43.5933711" lon="11.3499883"><ele>465.0</ele><time>2026-04-12T09:58:37.164Z</time></trkpt><trkpt lat="43.5933543" lon="11.349743"><ele>462.0</ele><time>2026-04-12T09:58:38.164Z</time></trkpt><trkpt lat="43.5933826" lon="11.3495105"><ele>459.0</ele><time>2026-04-12T09:58:39.165Z</time></trkpt><trkpt lat="43.5934316" lon="11.3493313"><ele>456.0</ele><time>2026-04-12T09:58:40.165Z</time></trkpt><trkpt lat="43.5934625" lon="11.3491427"><ele>456.0</ele><time>2026-04-12T09:58:41.164Z</time></trkpt><trkpt lat="43.593452" lon="11.3489442"><ele>456.0</ele><time>2026-04-12T09:58:42.164Z</time></trkpt><trkpt lat="43.5933964" lon="11.3487444"><ele>456.0</ele><time>2026-04-12T09:58:43.165Z</time></trkpt><trkpt lat="43.5933225" lon="11.3485345"><ele>452.0</ele><time>2026-04-12T09:58:44.165Z</time></trkpt><trkpt lat="43.5932438" lon="11.3483349"><ele>448.0</ele><time>2026-04-12T09:58:45.165Z</time></trkpt><trkpt lat="43.5931749" lon="11.348144"><ele>444.0</ele><time>2026-04-12T09:58:46.165Z</time></trkpt><trkpt lat="43.5931469" lon="11.3479417"><ele>442.5</ele><time>2026-04-12T09:58:47.165Z</time></trkpt><trkpt lat="43.5931646" lon="11.3477342"><ele>441.0</ele><time>2026-04-12T09:58:48.164Z</time></trkpt><trkpt lat="43.5931972" lon="11.3475515"><ele>439.5</ele><time>2026-04-12T09:58:49.165Z</time></trkpt><trkpt lat="43.5932185" lon="11.3473449"><ele>438.0</ele><time>2026-04-12T09:58:50.165Z</time></trkpt><trkpt lat="43.5931937" lon="11.3471616"><ele>433.33333333333337</ele><time>2026-04-12T09:58:51.164Z</time></trkpt><trkpt lat="43.5931329" lon="11.3469908"><ele>428.6666666666667</ele><time>2026-04-12T09:58:52.165Z</time></trkpt><trkpt lat="43.5930266" lon="11.3468384"><ele>424.0</ele><time>2026-04-12T09:58:53.165Z</time></trkpt><trkpt lat="43.5929028" lon="11.3466862"><ele>423.0</ele><time>2026-04-12T09:58:54.164Z</time></trkpt><trkpt lat="43.5927702" lon="11.3465527"><ele>422.0</ele><time>2026-04-12T09:58:55.165Z</time></trkpt><trkpt lat="43.5926318" lon="11.3464261"><ele>421.0</ele><time>2026-04-12T09:58:56.165Z</time></trkpt><trkpt lat="43.5924946" lon="11.3463214"><ele>421.0</ele><time>2026-04-12T09:58:57.164Z</time></trkpt><trkpt lat="43.5923518" lon="11.3462571"><ele>421.0</ele><time>2026-04-12T09:58:58.165Z</time></trkpt><trkpt lat="43.5922221" lon="11.3462229"><ele>421.0</ele><time>2026-04-12T09:58:59.165Z</time></trkpt><trkpt lat="43.5920925" lon="11.3462147"><ele>421.0</ele><time>2026-04-12T09:59:00.165Z</time></trkpt><trkpt lat="43.5919667" lon="11.3462228"><ele>422.20000000000005</ele><time>2026-04-12T09:59:01.164Z</time></trkpt><trkpt lat="43.5918492" lon="11.3462398"><ele>423.40000000000003</ele><time>2026-04-12T09:59:02.165Z</time></trkpt><trkpt lat="43.5917345" lon="11.3462421"><ele>424.6</ele><time>2026-04-12T09:59:03.165Z</time></trkpt><trkpt lat="43.5916292" lon="11.3462509"><ele>425.8</ele><time>2026-04-12T09:59:04.165Z</time></trkpt><trkpt lat="43.5915338" lon="11.3462471"><ele>427.0</ele><time>2026-04-12T09:59:05.165Z</time></trkpt><trkpt lat="43.5914418" lon="11.3462272"><ele>427.00000000000006</ele><time>2026-04-12T09:59:06.165Z</time></trkpt><trkpt lat="43.5913596" lon="11.3461839"><ele>427.0</ele><time>2026-04-12T09:59:07.165Z</time></trkpt><trkpt lat="43.5912934" lon="11.3461187"><ele>427.0</ele><time>2026-04-12T09:59:08.165Z</time></trkpt><trkpt lat="43.5912362" lon="11.3460456"><ele>427.0</ele><time>2026-04-12T09:59:09.165Z</time></trkpt><trkpt lat="43.5911957" lon="11.3459571"><ele>427.00000000000006</ele><time>2026-04-12T09:59:10.164Z</time></trkpt><trkpt lat="43.5911672" lon="11.3458611"><ele>427.0</ele><time>2026-04-12T09:59:11.165Z</time></trkpt><trkpt lat="43.5911517" lon="11.34576"><ele>427.57142857142856</ele><time>2026-04-12T09:59:12.165Z</time></trkpt><trkpt lat="43.591141" lon="11.3456655"><ele>428.1428571428571</ele><time>2026-04-12T09:59:13.165Z</time></trkpt><trkpt lat="43.5911325" lon="11.3455673"><ele>428.7142857142857</ele><time>2026-04-12T09:59:14.165Z</time></trkpt><trkpt lat="43.5911267" lon="11.3454732"><ele>429.2857142857143</ele><time>2026-04-12T09:59:15.165Z</time></trkpt><trkpt lat="43.5911245" lon="11.3453765"><ele>429.85714285714283</ele><time>2026-04-12T09:59:16.165Z</time></trkpt><trkpt lat="43.5911219" lon="11.3452795"><ele>430.42857142857144</ele><time>2026-04-12T09:59:17.165Z</time></trkpt><trkpt lat="43.5911303" lon="11.3451841"><ele>431.0</ele><time>2026-04-12T09:59:18.165Z</time></trkpt><trkpt lat="43.5911476" lon="11.3450947"><ele>430.99999999999994</ele><time>2026-04-12T09:59:19.165Z</time></trkpt><trkpt lat="43.5911683" lon="11.3450038"><ele>431.0</ele><time>2026-04-12T09:59:20.164Z</time></trkpt><trkpt lat="43.5911922" lon="11.3449147"><ele>431.0</ele><time>2026-04-12T09:59:21.165Z</time></trkpt><trkpt lat="43.5912267" lon="11.3448167"><ele>431.0</ele><time>2026-04-12T09:59:22.165Z</time></trkpt><trkpt lat="43.5912737" lon="11.3446975"><ele>430.99999999999994</ele><time>2026-04-12T09:59:23.165Z</time></trkpt><trkpt lat="43.5913241" lon="11.3445578"><ele>431.0</ele><time>2026-04-12T09:59:24.164Z</time></trkpt><trkpt lat="43.5913847" lon="11.3443791"><ele>428.3333333333333</ele><time>2026-04-12T09:59:25.165Z</time></trkpt><trkpt lat="43.5914432" lon="11.3441959"><ele>425.66666666666663</ele><time>2026-04-12T09:59:26.165Z</time></trkpt><trkpt lat="43.5915148" lon="11.3439948"><ele>423.0</ele><time>2026-04-12T09:59:27.165Z</time></trkpt><trkpt lat="43.5915831" lon="11.3438029"><ele>422.66666666666663</ele><time>2026-04-12T09:59:28.164Z</time></trkpt><trkpt lat="43.5916637" lon="11.3436199"><ele>422.3333333333333</ele><time>2026-04-12T09:59:29.165Z</time></trkpt><trkpt lat="43.5917707" lon="11.3434676"><ele>422.0</ele><time>2026-04-12T09:59:30.164Z</time></trkpt><trkpt lat="43.5919108" lon="11.3433469"><ele>422.25</ele><time>2026-04-12T09:59:31.164Z</time></trkpt><trkpt lat="43.5920494" lon="11.3432551"><ele>422.5</ele><time>2026-04-12T09:59:32.165Z</time></trkpt><trkpt lat="43.5921766" lon="11.3431709"><ele>422.75</ele><time>2026-04-12T09:59:33.164Z</time></trkpt><trkpt lat="43.5922836" lon="11.3430758"><ele>423.0</ele><time>2026-04-12T09:59:34.165Z</time></trkpt><trkpt lat="43.5923701" lon="11.3429447"><ele>423.0</ele><time>2026-04-12T09:59:35.165Z</time></trkpt><trkpt lat="43.5924203" lon="11.342798"><ele>423.0</ele><time>2026-04-12T09:59:36.164Z</time></trkpt><trkpt lat="43.5924492" lon="11.3426577"><ele>423.0</ele><time>2026-04-12T09:59:37.165Z</time></trkpt><trkpt lat="43.5924925" lon="11.3425257"><ele>423.0</ele><time>2026-04-12T09:59:38.165Z</time></trkpt><trkpt lat="43.5925733" lon="11.3424278"><ele>423.0</ele><time>2026-04-12T09:59:39.165Z</time></trkpt><trkpt lat="43.5926881" lon="11.3423788"><ele>423.0</ele><time>2026-04-12T09:59:40.164Z</time></trkpt><trkpt lat="43.5928233" lon="11.3423338"><ele>423.0</ele><time>2026-04-12T09:59:41.164Z</time></trkpt><trkpt lat="43.5929534" lon="11.3422376"><ele>423.0</ele><time>2026-04-12T09:59:42.164Z</time></trkpt><trkpt lat="43.593093" lon="11.3421196"><ele>420.33333333333337</ele><time>2026-04-12T09:59:43.164Z</time></trkpt><trkpt lat="43.5932306" lon="11.342005"><ele>417.6666666666667</ele><time>2026-04-12T09:59:44.165Z</time></trkpt><trkpt lat="43.5933678" lon="11.3419076"><ele>415.0</ele><time>2026-04-12T09:59:45.165Z</time></trkpt><trkpt lat="43.5934809" lon="11.3418032"><ele>415.0</ele><time>2026-04-12T09:59:46.165Z</time></trkpt><trkpt lat="43.5935562" lon="11.3416784"><ele>415.0</ele><time>2026-04-12T09:59:47.165Z</time></trkpt><trkpt lat="43.5935989" lon="11.3415366"><ele>415.0</ele><time>2026-04-12T09:59:48.165Z</time></trkpt><trkpt lat="43.5935875" lon="11.3413822"><ele>415.0</ele><time>2026-04-12T09:59:49.165Z</time></trkpt><trkpt lat="43.593536" lon="11.3412156"><ele>413.33333333333337</ele><time>2026-04-12T09:59:50.165Z</time></trkpt><trkpt lat="43.5934489" lon="11.341059"><ele>411.66666666666663</ele><time>2026-04-12T09:59:51.165Z</time></trkpt><trkpt lat="43.5933363" lon="11.3408987"><ele>410.0</ele><time>2026-04-12T09:59:52.165Z</time></trkpt><trkpt lat="43.5932024" lon="11.3407558"><ele>410.0</ele><time>2026-04-12T09:59:53.164Z</time></trkpt><trkpt lat="43.5930413" lon="11.3406309"><ele>410.0</ele><time>2026-04-12T09:59:54.164Z</time></trkpt><trkpt lat="43.592887" lon="11.3404944"><ele>410.0</ele><time>2026-04-12T09:59:55.165Z</time></trkpt><trkpt lat="43.5927649" lon="11.3403219"><ele>410.0</ele><time>2026-04-12T09:59:56.164Z</time></trkpt><trkpt lat="43.5926516" lon="11.3401159"><ele>410.0</ele><time>2026-04-12T09:59:57.165Z</time></trkpt><trkpt lat="43.5925617" lon="11.3398711"><ele>410.0</ele><time>2026-04-12T09:59:58.165Z</time></trkpt><trkpt lat="43.5925033" lon="11.33961"><ele>406.3333333333333</ele><time>2026-04-12T09:59:59.165Z</time></trkpt><trkpt lat="43.5924469" lon="11.3393399"><ele>402.66666666666663</ele><time>2026-04-12T10:00:00.164Z</time></trkpt><trkpt lat="43.5923877" lon="11.3390719"><ele>399.0</ele><time>2026-04-12T10:00:01.165Z</time></trkpt><trkpt lat="43.5923324" lon="11.3388198"><ele>395.66666666666663</ele><time>2026-04-12T10:00:02.164Z</time></trkpt><trkpt lat="43.5922732" lon="11.3385743"><ele>392.3333333333333</ele><time>2026-04-12T10:00:03.165Z</time></trkpt><trkpt lat="43.5922161" lon="11.3383495"><ele>389.0</ele><time>2026-04-12T10:00:04.165Z</time></trkpt><trkpt lat="43.5921565" lon="11.3381358"><ele>389.66666666666663</ele><time>2026-04-12T10:00:05.165Z</time></trkpt><trkpt lat="43.592067" lon="11.3379506"><ele>390.33333333333337</ele><time>2026-04-12T10:00:06.165Z</time></trkpt><trkpt lat="43.5919474" lon="11.3378056"><ele>391.0</ele><time>2026-04-12T10:00:07.165Z</time></trkpt><trkpt lat="43.5918016" lon="11.337673"><ele>391.0</ele><time>2026-04-12T10:00:08.165Z</time></trkpt><trkpt lat="43.5916668" lon="11.3375115"><ele>391.0</ele><time>2026-04-12T10:00:09.165Z</time></trkpt><trkpt lat="43.5915604" lon="11.3373199"><ele>391.0</ele><time>2026-04-12T10:00:10.165Z</time></trkpt><trkpt lat="43.591475" lon="11.3371114"><ele>384.0</ele><time>2026-04-12T10:00:11.165Z</time></trkpt><trkpt lat="43.591423" lon="11.3368821"><ele>377.0</ele><time>2026-04-12T10:00:12.165Z</time></trkpt><trkpt lat="43.5913922" lon="11.3366442"><ele>370.0</ele><time>2026-04-12T10:00:13.165Z</time></trkpt><trkpt lat="43.5913373" lon="11.3364015"><ele>372.66666666666663</ele><time>2026-04-12T10:00:14.164Z</time></trkpt><trkpt lat="43.5912444" lon="11.3361728"><ele>375.3333333333333</ele><time>2026-04-12T10:00:15.165Z</time></trkpt><trkpt lat="43.5911235" lon="11.3359513"><ele>378.0</ele><time>2026-04-12T10:00:16.164Z</time></trkpt><trkpt lat="43.5909847" lon="11.3357474"><ele>372.0</ele><time>2026-04-12T10:00:17.164Z</time></trkpt><trkpt lat="43.5908299" lon="11.3355411"><ele>366.0</ele><time>2026-04-12T10:00:18.165Z</time></trkpt><trkpt lat="43.5906811" lon="11.3353277"><ele>360.0</ele><time>2026-04-12T10:00:19.164Z</time></trkpt><trkpt lat="43.5905318" lon="11.3351131"><ele>360.0</ele><time>2026-04-12T10:00:20.164Z</time></trkpt><trkpt lat="43.5903743" lon="11.3349181"><ele>360.0</ele><time>2026-04-12T10:00:21.164Z</time></trkpt><trkpt lat="43.5902197" lon="11.3347232"><ele>360.0</ele><time>2026-04-12T10:00:22.165Z</time></trkpt><trkpt lat="43.5900918" lon="11.3345023"><ele>360.6666666666667</ele><time>2026-04-12T10:00:23.165Z</time></trkpt><trkpt lat="43.589984" lon="11.3342743"><ele>361.33333333333337</ele><time>2026-04-12T10:00:24.165Z</time></trkpt><trkpt lat="43.5898889" lon="11.3340502"><ele>362.0</ele><time>2026-04-12T10:00:25.165Z</time></trkpt><trkpt lat="43.5897967" lon="11.3338369"><ele>357.0</ele><time>2026-04-12T10:00:26.165Z</time></trkpt><trkpt lat="43.589716" lon="11.3336426"><ele>352.0</ele><time>2026-04-12T10:00:27.165Z</time></trkpt><trkpt lat="43.5896438" lon="11.3334631"><ele>347.0</ele><time>2026-04-12T10:00:28.164Z</time></trkpt><trkpt lat="43.5895591" lon="11.3333051"><ele>349.75</ele><time>2026-04-12T10:00:29.164Z</time></trkpt><trkpt lat="43.5894476" lon="11.3331802"><ele>352.5</ele><time>2026-04-12T10:00:30.165Z</time></trkpt><trkpt lat="43.589321" lon="11.3330947"><ele>355.25</ele><time>2026-04-12T10:00:31.164Z</time></trkpt><trkpt lat="43.5891693" lon="11.3330659"><ele>358.0</ele><time>2026-04-12T10:00:32.164Z</time></trkpt><trkpt lat="43.5890159" lon="11.3330841"><ele>358.0</ele><time>2026-04-12T10:00:33.165Z</time></trkpt><trkpt lat="43.5888768" lon="11.3331694"><ele>358.0</ele><time>2026-04-12T10:00:34.165Z</time></trkpt><trkpt lat="43.5887697" lon="11.3332834"><ele>358.0</ele><time>2026-04-12T10:00:35.165Z</time></trkpt><trkpt lat="43.5887009" lon="11.33344"><ele>358.0</ele><time>2026-04-12T10:00:36.165Z</time></trkpt><trkpt lat="43.5886663" lon="11.3336215"><ele>359.66666666666663</ele><time>2026-04-12T10:00:37.165Z</time></trkpt><trkpt lat="43.5886693" lon="11.3338368"><ele>361.3333333333333</ele><time>2026-04-12T10:00:38.165Z</time></trkpt><trkpt lat="43.5886953" lon="11.3340726"><ele>363.0</ele><time>2026-04-12T10:00:39.165Z</time></trkpt><trkpt lat="43.5887122" lon="11.3343156"><ele>363.0</ele><time>2026-04-12T10:00:40.165Z</time></trkpt><trkpt lat="43.5887179" lon="11.3345806"><ele>363.0</ele><time>2026-04-12T10:00:41.164Z</time></trkpt><trkpt lat="43.5887192" lon="11.3348432"><ele>363.0</ele><time>2026-04-12T10:00:42.164Z</time></trkpt><trkpt lat="43.5887253" lon="11.3351093"><ele>363.0</ele><time>2026-04-12T10:00:43.165Z</time></trkpt><trkpt lat="43.5887376" lon="11.335378"><ele>363.0</ele><time>2026-04-12T10:00:44.165Z</time></trkpt><trkpt lat="43.5887665" lon="11.3356398"><ele>363.0</ele><time>2026-04-12T10:00:45.165Z</time></trkpt><trkpt lat="43.5888003" lon="11.3358872"><ele>361.6666666666667</ele><time>2026-04-12T10:00:46.165Z</time></trkpt><trkpt lat="43.5888385" lon="11.336123"><ele>360.33333333333337</ele><time>2026-04-12T10:00:47.164Z</time></trkpt><trkpt lat="43.5888735" lon="11.3363448"><ele>359.0</ele><time>2026-04-12T10:00:48.165Z</time></trkpt><trkpt lat="43.5888857" lon="11.3365493"><ele>357.25</ele><time>2026-04-12T10:00:49.165Z</time></trkpt><trkpt lat="43.5888602" lon="11.336736"><ele>355.5</ele><time>2026-04-12T10:00:50.165Z</time></trkpt><trkpt lat="43.5887984" lon="11.336899"><ele>353.75</ele><time>2026-04-12T10:00:51.165Z</time></trkpt><trkpt lat="43.5887021" lon="11.3370333"><ele>352.0</ele><time>2026-04-12T10:00:52.165Z</time></trkpt><trkpt lat="43.5885969" lon="11.3371506"><ele>348.5</ele><time>2026-04-12T10:00:53.165Z</time></trkpt><trkpt lat="43.5884772" lon="11.3371331"><ele>345.0</ele><time>2026-04-12T10:00:54.165Z</time></trkpt><trkpt lat="43.5883722" lon="11.3370965"><ele>341.5</ele><time>2026-04-12T10:00:55.165Z</time></trkpt><trkpt lat="43.5882955" lon="11.3369928"><ele>338.0</ele><time>2026-04-12T10:00:56.165Z</time></trkpt><trkpt lat="43.5882437" lon="11.3368468"><ele>338.0</ele><time>2026-04-12T10:00:57.164Z</time></trkpt><trkpt lat="43.5882072" lon="11.3366593"><ele>338.0</ele><time>2026-04-12T10:00:58.165Z</time></trkpt><trkpt lat="43.5881487" lon="11.3364668"><ele>338.0</ele><time>2026-04-12T10:00:59.165Z</time></trkpt><trkpt lat="43.5880882" lon="11.336287"><ele>338.0</ele><time>2026-04-12T10:01:00.165Z</time></trkpt><trkpt lat="43.5880071" lon="11.3361323"><ele>336.25</ele><time>2026-04-12T10:01:01.165Z</time></trkpt><trkpt lat="43.5879204" lon="11.3360025"><ele>334.5</ele><time>2026-04-12T10:01:02.165Z</time></trkpt><trkpt lat="43.5877691" lon="11.3359273"><ele>332.75</ele><time>2026-04-12T10:01:03.165Z</time></trkpt><trkpt lat="43.5876191" lon="11.3358622"><ele>331.0</ele><time>2026-04-12T10:01:04.165Z</time></trkpt><trkpt lat="43.5874614" lon="11.3357968"><ele>331.0</ele><time>2026-04-12T10:01:05.165Z</time></trkpt><trkpt lat="43.5872963" lon="11.3357158"><ele>331.0</ele><time>2026-04-12T10:01:06.165Z</time></trkpt><trkpt lat="43.5871243" lon="11.3356199"><ele>331.0</ele><time>2026-04-12T10:01:07.164Z</time></trkpt><trkpt lat="43.5869493" lon="11.3355085"><ele>326.3333333333333</ele><time>2026-04-12T10:01:08.164Z</time></trkpt><trkpt lat="43.5867759" lon="11.335379"><ele>321.6666666666667</ele><time>2026-04-12T10:01:09.165Z</time></trkpt><trkpt lat="43.5866102" lon="11.3352279"><ele>317.0</ele><time>2026-04-12T10:01:10.165Z</time></trkpt><trkpt lat="43.5864387" lon="11.3350806"><ele>317.0</ele><time>2026-04-12T10:01:11.164Z</time></trkpt><trkpt lat="43.5862506" lon="11.3349594"><ele>317.0</ele><time>2026-04-12T10:01:12.165Z</time></trkpt><trkpt lat="43.5860596" lon="11.33485"><ele>317.0</ele><time>2026-04-12T10:01:13.164Z</time></trkpt><trkpt lat="43.585886" lon="11.3347371"><ele>313.0</ele><time>2026-04-12T10:01:14.165Z</time></trkpt><trkpt lat="43.5857215" lon="11.3345989"><ele>309.0</ele><time>2026-04-12T10:01:15.164Z</time></trkpt><trkpt lat="43.5856006" lon="11.3344192"><ele>305.0</ele><time>2026-04-12T10:01:16.165Z</time></trkpt><trkpt lat="43.585485" lon="11.3342428"><ele>305.0</ele><time>2026-04-12T10:01:17.164Z</time></trkpt><trkpt lat="43.5853586" lon="11.334115"><ele>305.0</ele><time>2026-04-12T10:01:18.165Z</time></trkpt><trkpt lat="43.585217" lon="11.3340394"><ele>305.0</ele><time>2026-04-12T10:01:19.164Z</time></trkpt><trkpt lat="43.58506" lon="11.3340006"><ele>305.25</ele><time>2026-04-12T10:01:20.165Z</time></trkpt><trkpt lat="43.5849108" lon="11.3340009"><ele>305.5</ele><time>2026-04-12T10:01:21.165Z</time></trkpt><trkpt lat="43.5847663" lon="11.333997"><ele>305.75</ele><time>2026-04-12T10:01:22.165Z</time></trkpt><trkpt lat="43.5846339" lon="11.3339873"><ele>306.0</ele><time>2026-04-12T10:01:23.165Z</time></trkpt><trkpt lat="43.5845163" lon="11.3339374"><ele>305.25</ele><time>2026-04-12T10:01:24.165Z</time></trkpt><trkpt lat="43.5844303" lon="11.333837"><ele>304.5</ele><time>2026-04-12T10:01:25.164Z</time></trkpt><trkpt lat="43.5843873" lon="11.3336985"><ele>303.75</ele><time>2026-04-12T10:01:26.165Z</time></trkpt><trkpt lat="43.5843827" lon="11.3335281"><ele>303.0</ele><time>2026-04-12T10:01:27.165Z</time></trkpt><trkpt lat="43.5843867" lon="11.333325"><ele>303.0</ele><time>2026-04-12T10:01:28.165Z</time></trkpt><trkpt lat="43.5843701" lon="11.3331186"><ele>303.0</ele><time>2026-04-12T10:01:29.165Z</time></trkpt><trkpt lat="43.5843318" lon="11.3329267"><ele>303.0</ele><time>2026-04-12T10:01:30.165Z</time></trkpt><trkpt lat="43.5842678" lon="11.3327482"><ele>303.0</ele><time>2026-04-12T10:01:31.165Z</time></trkpt><trkpt lat="43.5841723" lon="11.3325867"><ele>299.3333333333333</ele><time>2026-04-12T10:01:32.165Z</time></trkpt><trkpt lat="43.5840473" lon="11.3324396"><ele>295.66666666666663</ele><time>2026-04-12T10:01:33.165Z</time></trkpt><trkpt lat="43.5839159" lon="11.3323171"><ele>292.0</ele><time>2026-04-12T10:01:34.165Z</time></trkpt><trkpt lat="43.5837978" lon="11.3322047"><ele>292.0</ele><time>2026-04-12T10:01:35.165Z</time></trkpt><trkpt lat="43.5836952" lon="11.3320856"><ele>292.0</ele><time>2026-04-12T10:01:36.165Z</time></trkpt><trkpt lat="43.5836109" lon="11.3319523"><ele>292.0</ele><time>2026-04-12T10:01:37.164Z</time></trkpt><trkpt lat="43.5835714" lon="11.3318006"><ele>292.0</ele><time>2026-04-12T10:01:38.165Z</time></trkpt><trkpt lat="43.5835868" lon="11.3316571"><ele>292.0</ele><time>2026-04-12T10:01:39.165Z</time></trkpt><trkpt lat="43.5836453" lon="11.3315375"><ele>292.0</ele><time>2026-04-12T10:01:40.165Z</time></trkpt><trkpt lat="43.5837466" lon="11.3314528"><ele>292.0</ele><time>2026-04-12T10:01:41.164Z</time></trkpt><trkpt lat="43.5838846" lon="11.331392"><ele>292.0</ele><time>2026-04-12T10:01:42.164Z</time></trkpt><trkpt lat="43.584034" lon="11.3313306"><ele>290.0</ele><time>2026-04-12T10:01:43.164Z</time></trkpt><trkpt lat="43.5841767" lon="11.3312214"><ele>288.0</ele><time>2026-04-12T10:01:44.165Z</time></trkpt><trkpt lat="43.5843075" lon="11.3310751"><ele>286.0</ele><time>2026-04-12T10:01:45.165Z</time></trkpt><trkpt lat="43.5844306" lon="11.3309038"><ele>286.0</ele><time>2026-04-12T10:01:46.165Z</time></trkpt><trkpt lat="43.5845484" lon="11.3307235"><ele>286.0</ele><time>2026-04-12T10:01:47.165Z</time></trkpt><trkpt lat="43.5846618" lon="11.330561"><ele>286.0</ele><time>2026-04-12T10:01:48.165Z</time></trkpt><trkpt lat="43.5847538" lon="11.3304092"><ele>284.3333333333333</ele><time>2026-04-12T10:01:49.164Z</time></trkpt><trkpt lat="43.5848162" lon="11.3302346"><ele>282.6666666666667</ele><time>2026-04-12T10:01:50.165Z</time></trkpt><trkpt lat="43.5848432" lon="11.33003"><ele>281.0</ele><time>2026-04-12T10:01:51.165Z</time></trkpt><trkpt lat="43.5848304" lon="11.3298032"><ele>280.0</ele><time>2026-04-12T10:01:52.164Z</time></trkpt><trkpt lat="43.5848018" lon="11.3295744"><ele>279.0</ele><time>2026-04-12T10:01:53.165Z</time></trkpt><trkpt lat="43.5847717" lon="11.3293475"><ele>278.0</ele><time>2026-04-12T10:01:54.165Z</time></trkpt><trkpt lat="43.5847372" lon="11.3291177"><ele>276.33333333333337</ele><time>2026-04-12T10:01:55.165Z</time></trkpt><trkpt lat="43.5847029" lon="11.3288825"><ele>274.6666666666667</ele><time>2026-04-12T10:01:56.165Z</time></trkpt><trkpt lat="43.5846622" lon="11.3286402"><ele>273.0</ele><time>2026-04-12T10:01:57.165Z</time></trkpt><trkpt lat="43.5846274" lon="11.3283946"><ele>273.0</ele><time>2026-04-12T10:01:58.165Z</time></trkpt><trkpt lat="43.5845951" lon="11.3281556"><ele>273.0</ele><time>2026-04-12T10:01:59.165Z</time></trkpt><trkpt lat="43.5845618" lon="11.3279243"><ele>273.0</ele><time>2026-04-12T10:02:00.164Z</time></trkpt><trkpt lat="43.5845353" lon="11.3277082"><ele>272.3333333333333</ele><time>2026-04-12T10:02:01.165Z</time></trkpt><trkpt lat="43.5845027" lon="11.3274992"><ele>271.66666666666663</ele><time>2026-04-12T10:02:02.164Z</time></trkpt><trkpt lat="43.5844593" lon="11.3272945"><ele>271.0</ele><time>2026-04-12T10:02:03.164Z</time></trkpt><trkpt lat="43.5843958" lon="11.3271115"><ele>269.3333333333333</ele><time>2026-04-12T10:02:04.165Z</time></trkpt><trkpt lat="43.5843088" lon="11.326945"><ele>267.6666666666667</ele><time>2026-04-12T10:02:05.165Z</time></trkpt><trkpt lat="43.5842051" lon="11.326782"><ele>266.0</ele><time>2026-04-12T10:02:06.164Z</time></trkpt><trkpt lat="43.5841009" lon="11.3266128"><ele>266.0</ele><time>2026-04-12T10:02:07.165Z</time></trkpt><trkpt lat="43.5840008" lon="11.3264383"><ele>266.0</ele><time>2026-04-12T10:02:08.165Z</time></trkpt><trkpt lat="43.5839135" lon="11.3262569"><ele>266.0</ele><time>2026-04-12T10:02:09.164Z</time></trkpt><trkpt lat="43.5838392" lon="11.3260761"><ele>265.33333333333337</ele><time>2026-04-12T10:02:10.165Z</time></trkpt><trkpt lat="43.5837921" lon="11.3258785"><ele>264.6666666666667</ele><time>2026-04-12T10:02:11.165Z</time></trkpt><trkpt lat="43.5837488" lon="11.3256763"><ele>264.0</ele><time>2026-04-12T10:02:12.165Z</time></trkpt><trkpt lat="43.5837154" lon="11.3254716"><ele>262.3333333333333</ele><time>2026-04-12T10:02:13.165Z</time></trkpt><trkpt lat="43.5836931" lon="11.3252628"><ele>260.66666666666663</ele><time>2026-04-12T10:02:14.164Z</time></trkpt><trkpt lat="43.5836733" lon="11.3250473"><ele>259.0</ele><time>2026-04-12T10:02:15.165Z</time></trkpt><trkpt lat="43.5836557" lon="11.3248277"><ele>257.66666666666663</ele><time>2026-04-12T10:02:16.165Z</time></trkpt><trkpt lat="43.5836338" lon="11.3245995"><ele>256.3333333333333</ele><time>2026-04-12T10:02:17.165Z</time></trkpt><trkpt lat="43.5836088" lon="11.3243714"><ele>255.0</ele><time>2026-04-12T10:02:18.165Z</time></trkpt><trkpt lat="43.5835844" lon="11.3241362"><ele>253.66666666666669</ele><time>2026-04-12T10:02:19.165Z</time></trkpt><trkpt lat="43.5835611" lon="11.3238949"><ele>252.33333333333334</ele><time>2026-04-12T10:02:20.165Z</time></trkpt><trkpt lat="43.5835385" lon="11.3236552"><ele>251.0</ele><time>2026-04-12T10:02:21.165Z</time></trkpt><trkpt lat="43.5835128" lon="11.3234059"><ele>251.0</ele><time>2026-04-12T10:02:22.165Z</time></trkpt><trkpt lat="43.583482" lon="11.3231579"><ele>251.0</ele><time>2026-04-12T10:02:23.165Z</time></trkpt><trkpt lat="43.5834579" lon="11.3229151"><ele>251.0</ele><time>2026-04-12T10:02:24.165Z</time></trkpt><trkpt lat="43.5834329" lon="11.3226823"><ele>251.0</ele><time>2026-04-12T10:02:25.165Z</time></trkpt><trkpt lat="43.5834104" lon="11.3224593"><ele>251.0</ele><time>2026-04-12T10:02:26.165Z</time></trkpt><trkpt lat="43.5833891" lon="11.3222469"><ele>251.0</ele><time>2026-04-12T10:02:27.165Z</time></trkpt><trkpt lat="43.5833646" lon="11.3220319"><ele>251.0</ele><time>2026-04-12T10:02:28.165Z</time></trkpt><trkpt lat="43.5833467" lon="11.3218073"><ele>251.0</ele><time>2026-04-12T10:02:29.165Z</time></trkpt><trkpt lat="43.5833248" lon="11.3215761"><ele>251.0</ele><time>2026-04-12T10:02:30.164Z</time></trkpt><trkpt lat="43.5833044" lon="11.321344"><ele>251.0</ele><time>2026-04-12T10:02:31.165Z</time></trkpt><trkpt lat="43.58328" lon="11.3211013"><ele>251.0</ele><time>2026-04-12T10:02:32.165Z</time></trkpt><trkpt lat="43.5832564" lon="11.3208579"><ele>251.0</ele><time>2026-04-12T10:02:33.165Z</time></trkpt><trkpt lat="43.5832335" lon="11.3206146"><ele>251.33333333333334</ele><time>2026-04-12T10:02:34.165Z</time></trkpt><trkpt lat="43.5832117" lon="11.320366"><ele>251.66666666666669</ele><time>2026-04-12T10:02:35.165Z</time></trkpt><trkpt lat="43.5831893" lon="11.3201143"><ele>252.0</ele><time>2026-04-12T10:02:36.165Z</time></trkpt><trkpt lat="43.5831673" lon="11.31986"><ele>249.33333333333331</ele><time>2026-04-12T10:02:37.165Z</time></trkpt><trkpt lat="43.5831437" lon="11.3196201"><ele>246.66666666666666</ele><time>2026-04-12T10:02:38.164Z</time></trkpt><trkpt lat="43.5831204" lon="11.3193879"><ele>244.0</ele><time>2026-04-12T10:02:39.165Z</time></trkpt><trkpt lat="43.5830991" lon="11.3191756"><ele>244.0</ele><time>2026-04-12T10:02:40.165Z</time></trkpt><trkpt lat="43.5830769" lon="11.3189982"><ele>243.99999999999997</ele><time>2026-04-12T10:02:41.165Z</time></trkpt><trkpt lat="43.5830622" lon="11.3188621"><ele>243.99999999999997</ele><time>2026-04-12T10:02:42.165Z</time></trkpt><trkpt lat="43.583072" lon="11.3187762"><ele>244.0</ele><time>2026-04-12T10:02:43.165Z</time></trkpt><trkpt lat="43.583124" lon="11.3187034"><ele>244.0</ele><time>2026-04-12T10:02:46.164Z</time></trkpt><trkpt lat="43.583245" lon="11.3186665"><ele>243.39999999999998</ele><time>2026-04-12T10:02:49.165Z</time></trkpt><trkpt lat="43.5833157" lon="11.3186283"><ele>242.79999999999998</ele><time>2026-04-12T10:02:50.164Z</time></trkpt><trkpt lat="43.5833955" lon="11.3185803"><ele>242.20000000000002</ele><time>2026-04-12T10:02:51.164Z</time></trkpt><trkpt lat="43.5834958" lon="11.3185252"><ele>241.60000000000002</ele><time>2026-04-12T10:02:52.165Z</time></trkpt><trkpt lat="43.5836046" lon="11.3184594"><ele>241.0</ele><time>2026-04-12T10:02:53.165Z</time></trkpt><trkpt lat="43.5837257" lon="11.3183893"><ele>241.0</ele><time>2026-04-12T10:02:54.164Z</time></trkpt><trkpt lat="43.5838472" lon="11.3183167"><ele>241.0</ele><time>2026-04-12T10:02:55.165Z</time></trkpt><trkpt lat="43.583966" lon="11.3182329"><ele>241.0</ele><time>2026-04-12T10:02:56.164Z</time></trkpt><trkpt lat="43.5840878" lon="11.3181328"><ele>241.0</ele><time>2026-04-12T10:02:57.164Z</time></trkpt><trkpt lat="43.584202" lon="11.3180074"><ele>240.66666666666666</ele><time>2026-04-12T10:02:58.165Z</time></trkpt><trkpt lat="43.5843199" lon="11.3178813"><ele>240.33333333333331</ele><time>2026-04-12T10:02:59.165Z</time></trkpt><trkpt lat="43.5844419" lon="11.3177606"><ele>240.0</ele><time>2026-04-12T10:03:00.165Z</time></trkpt><trkpt lat="43.5845687" lon="11.3176492"><ele>240.0</ele><time>2026-04-12T10:03:01.165Z</time></trkpt><trkpt lat="43.5847034" lon="11.3175647"><ele>240.0</ele><time>2026-04-12T10:03:02.165Z</time></trkpt><trkpt lat="43.5848479" lon="11.3175199"><ele>240.0</ele><time>2026-04-12T10:03:03.165Z</time></trkpt><trkpt lat="43.5850076" lon="11.3175018"><ele>240.0</ele><time>2026-04-12T10:03:04.165Z</time></trkpt><trkpt lat="43.5851683" lon="11.3175017"><ele>240.0</ele><time>2026-04-12T10:03:05.165Z</time></trkpt><trkpt lat="43.5853336" lon="11.3174935"><ele>240.0</ele><time>2026-04-12T10:03:06.165Z</time></trkpt><trkpt lat="43.5854969" lon="11.317477"><ele>241.66666666666669</ele><time>2026-04-12T10:03:07.165Z</time></trkpt><trkpt lat="43.5856643" lon="11.3174379"><ele>243.33333333333334</ele><time>2026-04-12T10:03:08.165Z</time></trkpt><trkpt lat="43.5858288" lon="11.3173901"><ele>245.0</ele><time>2026-04-12T10:03:09.165Z</time></trkpt><trkpt lat="43.5859864" lon="11.3173249"><ele>245.0</ele><time>2026-04-12T10:03:10.165Z</time></trkpt><trkpt lat="43.5861216" lon="11.3172726"><ele>245.0</ele><time>2026-04-12T10:03:11.165Z</time></trkpt><trkpt lat="43.5862454" lon="11.317229"><ele>245.0</ele><time>2026-04-12T10:03:12.164Z</time></trkpt><trkpt lat="43.5863513" lon="11.3171889"><ele>245.0</ele><time>2026-04-12T10:03:13.165Z</time></trkpt><trkpt lat="43.586427" lon="11.3171516"><ele>244.66666666666669</ele><time>2026-04-12T10:03:14.165Z</time></trkpt><trkpt lat="43.5864888" lon="11.3171037"><ele>244.33333333333334</ele><time>2026-04-12T10:03:16.165Z</time></trkpt><trkpt lat="43.5865134" lon="11.31702"><ele>244.0</ele><time>2026-04-12T10:03:18.165Z</time></trkpt><trkpt lat="43.5865104" lon="11.316921"><ele>243.66666666666669</ele><time>2026-04-12T10:03:19.165Z</time></trkpt><trkpt lat="43.5864933" lon="11.3168051"><ele>243.33333333333334</ele><time>2026-04-12T10:03:20.164Z</time></trkpt><trkpt lat="43.5864808" lon="11.3166725"><ele>243.0</ele><time>2026-04-12T10:03:21.165Z</time></trkpt><trkpt lat="43.5864656" lon="11.3165398"><ele>243.0</ele><time>2026-04-12T10:03:22.165Z</time></trkpt><trkpt lat="43.5864424" lon="11.3164103"><ele>243.0</ele><time>2026-04-12T10:03:23.164Z</time></trkpt><trkpt lat="43.5864299" lon="11.3162726"><ele>243.0</ele><time>2026-04-12T10:03:24.165Z</time></trkpt><trkpt lat="43.5864209" lon="11.3161398"><ele>243.0</ele><time>2026-04-12T10:03:25.164Z</time></trkpt><trkpt lat="43.586404" lon="11.3160302"><ele>243.0</ele><time>2026-04-12T10:03:26.165Z</time></trkpt><trkpt lat="43.586392" lon="11.315936"><ele>243.0</ele><time>2026-04-12T10:03:27.165Z</time></trkpt><trkpt lat="43.5864501" lon="11.3158102"><ele>241.2</ele><time>2026-04-12T10:03:29.165Z</time></trkpt><trkpt lat="43.5865204" lon="11.3157816"><ele>239.4</ele><time>2026-04-12T10:03:30.165Z</time></trkpt><trkpt lat="43.586609" lon="11.3157672"><ele>237.59999999999997</ele><time>2026-04-12T10:03:31.165Z</time></trkpt><trkpt lat="43.586712" lon="11.3157477"><ele>235.79999999999998</ele><time>2026-04-12T10:03:32.165Z</time></trkpt><trkpt lat="43.5868342" lon="11.3157317"><ele>234.0</ele><time>2026-04-12T10:03:33.165Z</time></trkpt><trkpt lat="43.5869547" lon="11.3157085"><ele>234.0</ele><time>2026-04-12T10:03:34.165Z</time></trkpt><trkpt lat="43.5870796" lon="11.3156875"><ele>234.0</ele><time>2026-04-12T10:03:35.164Z</time></trkpt><trkpt lat="43.5872148" lon="11.3156614"><ele>234.0</ele><time>2026-04-12T10:03:36.165Z</time></trkpt><trkpt lat="43.5873517" lon="11.3156348"><ele>234.0</ele><time>2026-04-12T10:03:37.164Z</time></trkpt><trkpt lat="43.5874792" lon="11.315607"><ele>234.0</ele><time>2026-04-12T10:03:38.165Z</time></trkpt><trkpt lat="43.5876059" lon="11.3155834"><ele>234.0</ele><time>2026-04-12T10:03:39.165Z</time></trkpt><trkpt lat="43.5877433" lon="11.3155635"><ele>234.0</ele><time>2026-04-12T10:03:40.165Z</time></trkpt><trkpt lat="43.5878716" lon="11.315538"><ele>234.0</ele><time>2026-04-12T10:03:41.165Z</time></trkpt><trkpt lat="43.5879957" lon="11.3155169"><ele>232.6</ele><time>2026-04-12T10:03:42.164Z</time></trkpt><trkpt lat="43.588116" lon="11.3154961"><ele>231.2</ele><time>2026-04-12T10:03:43.165Z</time></trkpt><trkpt lat="43.5882185" lon="11.3154752"><ele>229.79999999999998</ele><time>2026-04-12T10:03:44.165Z</time></trkpt><trkpt lat="43.5882942" lon="11.315451"><ele>228.39999999999998</ele><time>2026-04-12T10:03:45.165Z</time></trkpt><trkpt lat="43.5883753" lon="11.3154003"><ele>227.0</ele><time>2026-04-12T10:03:47.165Z</time></trkpt><trkpt lat="43.5884522" lon="11.3152762"><ele>227.00000000000003</ele><time>2026-04-12T10:03:49.165Z</time></trkpt><trkpt lat="43.5884847" lon="11.3151614"><ele>227.0</ele><time>2026-04-12T10:03:50.165Z</time></trkpt><trkpt lat="43.5885297" lon="11.3150474"><ele>227.0</ele><time>2026-04-12T10:03:51.164Z</time></trkpt><trkpt lat="43.5885697" lon="11.314943"><ele>227.0</ele><time>2026-04-12T10:03:52.165Z</time></trkpt><trkpt lat="43.5886162" lon="11.3148536"><ele>227.00000000000003</ele><time>2026-04-12T10:03:53.165Z</time></trkpt><trkpt lat="43.588665" lon="11.3147794"><ele>227.0</ele><time>2026-04-12T10:03:54.165Z</time></trkpt><trkpt lat="43.5887203" lon="11.3147124"><ele>226.6</ele><time>2026-04-12T10:03:55.165Z</time></trkpt><trkpt lat="43.5887958" lon="11.3146703"><ele>226.2</ele><time>2026-04-12T10:03:56.165Z</time></trkpt><trkpt lat="43.5888858" lon="11.3146517"><ele>225.8</ele><time>2026-04-12T10:03:57.165Z</time></trkpt><trkpt lat="43.5890028" lon="11.3146281"><ele>225.4</ele><time>2026-04-12T10:03:58.165Z</time></trkpt><trkpt lat="43.5891414" lon="11.3146049"><ele>225.0</ele><time>2026-04-12T10:03:59.165Z</time></trkpt><trkpt lat="43.5892657" lon="11.3145828"><ele>225.0</ele><time>2026-04-12T10:04:00.164Z</time></trkpt><trkpt lat="43.5893913" lon="11.3145645"><ele>225.0</ele><time>2026-04-12T10:04:01.165Z</time></trkpt><trkpt lat="43.5895161" lon="11.3145449"><ele>225.0</ele><time>2026-04-12T10:04:02.165Z</time></trkpt><trkpt lat="43.5896529" lon="11.3145169"><ele>225.0</ele><time>2026-04-12T10:04:03.165Z</time></trkpt><trkpt lat="43.5897793" lon="11.3144906"><ele>224.5</ele><time>2026-04-12T10:04:04.165Z</time></trkpt><trkpt lat="43.5899109" lon="11.3144609"><ele>224.0</ele><time>2026-04-12T10:04:05.165Z</time></trkpt><trkpt lat="43.5900454" lon="11.3144336"><ele>223.5</ele><time>2026-04-12T10:04:06.165Z</time></trkpt><trkpt lat="43.5901719" lon="11.314415"><ele>223.0</ele><time>2026-04-12T10:04:07.165Z</time></trkpt><trkpt lat="43.5903073" lon="11.3143871"><ele>222.75</ele><time>2026-04-12T10:04:08.164Z</time></trkpt><trkpt lat="43.5904371" lon="11.3143813"><ele>222.5</ele><time>2026-04-12T10:04:09.164Z</time></trkpt><trkpt lat="43.5905713" lon="11.314381"><ele>222.25</ele><time>2026-04-12T10:04:10.165Z</time></trkpt><trkpt lat="43.590709" lon="11.3143955"><ele>222.0</ele><time>2026-04-12T10:04:11.165Z</time></trkpt><trkpt lat="43.5908382" lon="11.3144226"><ele>222.0</ele><time>2026-04-12T10:04:12.164Z</time></trkpt><trkpt lat="43.5909618" lon="11.314463"><ele>222.0</ele><time>2026-04-12T10:04:13.165Z</time></trkpt><trkpt lat="43.5910862" lon="11.3145185"><ele>222.0</ele><time>2026-04-12T10:04:14.165Z</time></trkpt><trkpt lat="43.5912241" lon="11.3145672"><ele>222.0</ele><time>2026-04-12T10:04:15.165Z</time></trkpt><trkpt lat="43.5913598" lon="11.3146261"><ele>222.0</ele><time>2026-04-12T10:04:16.165Z</time></trkpt><trkpt lat="43.5914873" lon="11.3146981"><ele>222.0</ele><time>2026-04-12T10:04:17.164Z</time></trkpt><trkpt lat="43.5916105" lon="11.3147716"><ele>222.0</ele><time>2026-04-12T10:04:18.165Z</time></trkpt><trkpt lat="43.5917212" lon="11.3148449"><ele>222.0</ele><time>2026-04-12T10:04:19.165Z</time></trkpt><trkpt lat="43.5918188" lon="11.3149244"><ele>222.0</ele><time>2026-04-12T10:04:20.165Z</time></trkpt><trkpt lat="43.5919007" lon="11.3150186"><ele>222.0</ele><time>2026-04-12T10:04:21.164Z</time></trkpt><trkpt lat="43.5919656" lon="11.3151106"><ele>222.0</ele><time>2026-04-12T10:04:22.165Z</time></trkpt><trkpt lat="43.5920425" lon="11.3151683"><ele>222.0</ele><time>2026-04-12T10:04:23.164Z</time></trkpt><trkpt lat="43.5921325" lon="11.3151971"><ele>222.0</ele><time>2026-04-12T10:04:24.165Z</time></trkpt><trkpt lat="43.5922223" lon="11.3152286"><ele>221.8</ele><time>2026-04-12T10:04:25.165Z</time></trkpt><trkpt lat="43.5923005" lon="11.3152737"><ele>221.6</ele><time>2026-04-12T10:04:26.165Z</time></trkpt><trkpt lat="43.5923799" lon="11.3153234"><ele>221.40000000000003</ele><time>2026-04-12T10:04:27.164Z</time></trkpt><trkpt lat="43.5924612" lon="11.3153829"><ele>221.20000000000002</ele><time>2026-04-12T10:04:28.165Z</time></trkpt><trkpt lat="43.5925491" lon="11.3154433"><ele>221.0</ele><time>2026-04-12T10:04:29.165Z</time></trkpt><trkpt lat="43.5926406" lon="11.3154924"><ele>221.0</ele><time>2026-04-12T10:04:30.165Z</time></trkpt><trkpt lat="43.5927438" lon="11.3155358"><ele>221.00000000000003</ele><time>2026-04-12T10:04:31.164Z</time></trkpt><trkpt lat="43.5928497" lon="11.3155783"><ele>221.00000000000003</ele><time>2026-04-12T10:04:32.165Z</time></trkpt><trkpt lat="43.5929568" lon="11.31562"><ele>221.0</ele><time>2026-04-12T10:04:33.165Z</time></trkpt><trkpt lat="43.5930696" lon="11.3156678"><ele>221.0</ele><time>2026-04-12T10:04:34.165Z</time></trkpt><trkpt lat="43.5931836" lon="11.3157205"><ele>221.75</ele><time>2026-04-12T10:04:35.165Z</time></trkpt><trkpt lat="43.5932922" lon="11.3157799"><ele>222.5</ele><time>2026-04-12T10:04:36.164Z</time></trkpt><trkpt lat="43.5933958" lon="11.3158463"><ele>223.25</ele><time>2026-04-12T10:04:37.165Z</time></trkpt><trkpt lat="43.5935031" lon="11.3159214"><ele>224.0</ele><time>2026-04-12T10:04:38.165Z</time></trkpt><trkpt lat="43.5936126" lon="11.3159999"><ele>223.0</ele><time>2026-04-12T10:04:39.165Z</time></trkpt><trkpt lat="43.5937256" lon="11.3160797"><ele>222.0</ele><time>2026-04-12T10:04:40.164Z</time></trkpt><trkpt lat="43.5938386" lon="11.3161588"><ele>221.0</ele><time>2026-04-12T10:04:41.165Z</time></trkpt><trkpt lat="43.5939501" lon="11.3162313"><ele>220.0</ele><time>2026-04-12T10:04:42.164Z</time></trkpt><trkpt lat="43.5940604" lon="11.3163053"><ele>220.0</ele><time>2026-04-12T10:04:43.165Z</time></trkpt><trkpt lat="43.5941845" lon="11.3163778"><ele>220.0</ele><time>2026-04-12T10:04:44.164Z</time></trkpt><trkpt lat="43.5943018" lon="11.3164598"><ele>220.0</ele><time>2026-04-12T10:04:45.164Z</time></trkpt><trkpt lat="43.5944198" lon="11.3165473"><ele>220.0</ele><time>2026-04-12T10:04:46.165Z</time></trkpt><trkpt lat="43.5945543" lon="11.3166207"><ele>220.66666666666666</ele><time>2026-04-12T10:04:47.164Z</time></trkpt><trkpt lat="43.5946957" lon="11.3166647"><ele>221.33333333333331</ele><time>2026-04-12T10:04:48.164Z</time></trkpt><trkpt lat="43.5948491" lon="11.3166788"><ele>222.0</ele><time>2026-04-12T10:04:49.165Z</time></trkpt><trkpt lat="43.595007" lon="11.3166685"><ele>222.0</ele><time>2026-04-12T10:04:50.165Z</time></trkpt><trkpt lat="43.5951673" lon="11.3166541"><ele>222.0</ele><time>2026-04-12T10:04:51.165Z</time></trkpt><trkpt lat="43.5953203" lon="11.3166508"><ele>222.0</ele><time>2026-04-12T10:04:52.164Z</time></trkpt><trkpt lat="43.5954777" lon="11.3166751"><ele>220.66666666666669</ele><time>2026-04-12T10:04:53.164Z</time></trkpt><trkpt lat="43.5956447" lon="11.3167076"><ele>219.33333333333334</ele><time>2026-04-12T10:04:54.164Z</time></trkpt><trkpt lat="43.5958208" lon="11.3167583"><ele>218.0</ele><time>2026-04-12T10:04:55.164Z</time></trkpt><trkpt lat="43.5959993" lon="11.31682"><ele>218.0</ele><time>2026-04-12T10:04:56.164Z</time></trkpt><trkpt lat="43.5961774" lon="11.3168772"><ele>218.0</ele><time>2026-04-12T10:04:57.164Z</time></trkpt><trkpt lat="43.5963553" lon="11.3169255"><ele>218.0</ele><time>2026-04-12T10:04:58.165Z</time></trkpt><trkpt lat="43.5965188" lon="11.3169294"><ele>218.0</ele><time>2026-04-12T10:04:59.165Z</time></trkpt><trkpt lat="43.5966849" lon="11.3169236"><ele>218.0</ele><time>2026-04-12T10:05:00.165Z</time></trkpt><trkpt lat="43.5968524" lon="11.316886"><ele>218.0</ele><time>2026-04-12T10:05:01.165Z</time></trkpt><trkpt lat="43.5970146" lon="11.3168249"><ele>218.66666666666669</ele><time>2026-04-12T10:05:02.165Z</time></trkpt><trkpt lat="43.5971722" lon="11.3167333"><ele>219.33333333333331</ele><time>2026-04-12T10:05:03.165Z</time></trkpt><trkpt lat="43.5973178" lon="11.3166383"><ele>220.0</ele><time>2026-04-12T10:05:04.165Z</time></trkpt><trkpt lat="43.5974558" lon="11.3165478"><ele>220.0</ele><time>2026-04-12T10:05:05.165Z</time></trkpt><trkpt lat="43.5975914" lon="11.316461"><ele>220.0</ele><time>2026-04-12T10:05:06.165Z</time></trkpt><trkpt lat="43.5977269" lon="11.3163707"><ele>220.0</ele><time>2026-04-12T10:05:07.165Z</time></trkpt><trkpt lat="43.5978437" lon="11.3162675"><ele>220.0</ele><time>2026-04-12T10:05:08.165Z</time></trkpt><trkpt lat="43.5979531" lon="11.3161458"><ele>220.0</ele><time>2026-04-12T10:05:09.165Z</time></trkpt><trkpt lat="43.5980494" lon="11.3160049"><ele>220.0</ele><time>2026-04-12T10:05:10.165Z</time></trkpt><trkpt lat="43.5981319" lon="11.3158653"><ele>220.0</ele><time>2026-04-12T10:05:11.164Z</time></trkpt><trkpt lat="43.5982052" lon="11.3157289"><ele>220.0</ele><time>2026-04-12T10:05:12.164Z</time></trkpt><trkpt lat="43.5982818" lon="11.3155837"><ele>219.0</ele><time>2026-04-12T10:05:13.164Z</time></trkpt><trkpt lat="43.5983578" lon="11.3154386"><ele>218.0</ele><time>2026-04-12T10:05:14.165Z</time></trkpt><trkpt lat="43.5984425" lon="11.3152885"><ele>217.0</ele><time>2026-04-12T10:05:15.164Z</time></trkpt><trkpt lat="43.598532" lon="11.3151245"><ele>216.0</ele><time>2026-04-12T10:05:16.164Z</time></trkpt><trkpt lat="43.5986292" lon="11.314954"><ele>216.33333333333331</ele><time>2026-04-12T10:05:17.165Z</time></trkpt><trkpt lat="43.5987225" lon="11.3147808"><ele>216.66666666666666</ele><time>2026-04-12T10:05:18.165Z</time></trkpt><trkpt lat="43.5988161" lon="11.314607"><ele>217.0</ele><time>2026-04-12T10:05:19.165Z</time></trkpt><trkpt lat="43.5989088" lon="11.3144397"><ele>217.0</ele><time>2026-04-12T10:05:20.164Z</time></trkpt><trkpt lat="43.5989966" lon="11.3142778"><ele>217.0</ele><time>2026-04-12T10:05:21.165Z</time></trkpt><trkpt lat="43.5990854" lon="11.3141244"><ele>217.0</ele><time>2026-04-12T10:05:22.165Z</time></trkpt><trkpt lat="43.5991639" lon="11.3139792"><ele>217.0</ele><time>2026-04-12T10:05:23.165Z</time></trkpt><trkpt lat="43.5992449" lon="11.3138311"><ele>216.75</ele><time>2026-04-12T10:05:24.165Z</time></trkpt><trkpt lat="43.5993273" lon="11.3136829"><ele>216.5</ele><time>2026-04-12T10:05:25.165Z</time></trkpt><trkpt lat="43.5994098" lon="11.3135305"><ele>216.25</ele><time>2026-04-12T10:05:26.165Z</time></trkpt><trkpt lat="43.5994968" lon="11.3133782"><ele>216.0</ele><time>2026-04-12T10:05:27.165Z</time></trkpt><trkpt lat="43.5995838" lon="11.3132243"><ele>215.25</ele><time>2026-04-12T10:05:28.165Z</time></trkpt><trkpt lat="43.5996728" lon="11.3130599"><ele>214.5</ele><time>2026-04-12T10:05:29.165Z</time></trkpt><trkpt lat="43.5997571" lon="11.3129114"><ele>213.75</ele><time>2026-04-12T10:05:30.165Z</time></trkpt><trkpt lat="43.5998384" lon="11.3127636"><ele>213.0</ele><time>2026-04-12T10:05:31.165Z</time></trkpt><trkpt lat="43.5999196" lon="11.3126174"><ele>213.0</ele><time>2026-04-12T10:05:32.165Z</time></trkpt><trkpt lat="43.6000037" lon="11.3124682"><ele>213.0</ele><time>2026-04-12T10:05:33.165Z</time></trkpt><trkpt lat="43.6000828" lon="11.3123154"><ele>213.0</ele><time>2026-04-12T10:05:34.165Z</time></trkpt><trkpt lat="43.6001579" lon="11.3121805"><ele>213.0</ele><time>2026-04-12T10:05:35.165Z</time></trkpt><trkpt lat="43.6002219" lon="11.3120531"><ele>213.0</ele><time>2026-04-12T10:05:36.164Z</time></trkpt><trkpt lat="43.6002926" lon="11.3119204"><ele>213.0</ele><time>2026-04-12T10:05:37.165Z</time></trkpt><trkpt lat="43.6003667" lon="11.3117817"><ele>213.0</ele><time>2026-04-12T10:05:38.165Z</time></trkpt><trkpt lat="43.6004432" lon="11.3116402"><ele>213.0</ele><time>2026-04-12T10:05:39.165Z</time></trkpt><trkpt lat="43.6005231" lon="11.3114924"><ele>213.5</ele><time>2026-04-12T10:05:40.165Z</time></trkpt><trkpt lat="43.6006035" lon="11.3113503"><ele>214.0</ele><time>2026-04-12T10:05:41.165Z</time></trkpt><trkpt lat="43.6006803" lon="11.3112111"><ele>214.5</ele><time>2026-04-12T10:05:42.165Z</time></trkpt><trkpt lat="43.6007578" lon="11.3110857"><ele>215.0</ele><time>2026-04-12T10:05:43.165Z</time></trkpt><trkpt lat="43.6008425" lon="11.3109627"><ele>215.0</ele><time>2026-04-12T10:05:44.165Z</time></trkpt><trkpt lat="43.6009349" lon="11.3108644"><ele>215.0</ele><time>2026-04-12T10:05:45.165Z</time></trkpt><trkpt lat="43.6010393" lon="11.3107694"><ele>215.0</ele><time>2026-04-12T10:05:46.165Z</time></trkpt><trkpt lat="43.6011512" lon="11.31069"><ele>215.0</ele><time>2026-04-12T10:05:47.165Z</time></trkpt><trkpt lat="43.6012772" lon="11.310613"><ele>214.25</ele><time>2026-04-12T10:05:48.165Z</time></trkpt><trkpt lat="43.601412" lon="11.3105367"><ele>213.5</ele><time>2026-04-12T10:05:49.164Z</time></trkpt><trkpt lat="43.6015511" lon="11.3104575"><ele>212.75</ele><time>2026-04-12T10:05:50.164Z</time></trkpt><trkpt lat="43.601687" lon="11.3103778"><ele>212.0</ele><time>2026-04-12T10:05:51.165Z</time></trkpt><trkpt lat="43.6018102" lon="11.3103036"><ele>212.0</ele><time>2026-04-12T10:05:52.165Z</time></trkpt><trkpt lat="43.6019445" lon="11.3102298"><ele>212.0</ele><time>2026-04-12T10:05:53.165Z</time></trkpt><trkpt lat="43.6020808" lon="11.3101542"><ele>212.0</ele><time>2026-04-12T10:05:54.165Z</time></trkpt><trkpt lat="43.6022194" lon="11.3100838"><ele>212.0</ele><time>2026-04-12T10:05:55.165Z</time></trkpt><trkpt lat="43.6023563" lon="11.3100118"><ele>212.25</ele><time>2026-04-12T10:05:56.165Z</time></trkpt><trkpt lat="43.6024852" lon="11.309938"><ele>212.5</ele><time>2026-04-12T10:05:57.165Z</time></trkpt><trkpt lat="43.6026143" lon="11.309863"><ele>212.75</ele><time>2026-04-12T10:05:58.165Z</time></trkpt><trkpt lat="43.6027481" lon="11.3097868"><ele>213.0</ele><time>2026-04-12T10:05:59.165Z</time></trkpt><trkpt lat="43.6028926" lon="11.3097107"><ele>213.0</ele><time>2026-04-12T10:06:00.165Z</time></trkpt><trkpt lat="43.6030278" lon="11.3096404"><ele>213.0</ele><time>2026-04-12T10:06:01.165Z</time></trkpt><trkpt lat="43.6031579" lon="11.309572"><ele>213.0</ele><time>2026-04-12T10:06:02.165Z</time></trkpt><trkpt lat="43.6032799" lon="11.3095095"><ele>213.0</ele><time>2026-04-12T10:06:03.165Z</time></trkpt><trkpt lat="43.6033984" lon="11.3094429"><ele>213.0</ele><time>2026-04-12T10:06:04.164Z</time></trkpt><trkpt lat="43.6035089" lon="11.3093741"><ele>213.0</ele><time>2026-04-12T10:06:05.165Z</time></trkpt><trkpt lat="43.6036122" lon="11.3093116"><ele>213.0</ele><time>2026-04-12T10:06:06.164Z</time></trkpt><trkpt lat="43.6037009" lon="11.3092461"><ele>213.0</ele><time>2026-04-12T10:06:07.165Z</time></trkpt><trkpt lat="43.6037832" lon="11.3091773"><ele>213.0</ele><time>2026-04-12T10:06:08.165Z</time></trkpt><trkpt lat="43.6038569" lon="11.3090875"><ele>213.5</ele><time>2026-04-12T10:06:09.165Z</time></trkpt><trkpt lat="43.6039174" lon="11.3090014"><ele>214.0</ele><time>2026-04-12T10:06:10.165Z</time></trkpt><trkpt lat="43.6039607" lon="11.3089085"><ele>214.5</ele><time>2026-04-12T10:06:11.165Z</time></trkpt><trkpt lat="43.604002" lon="11.3088138"><ele>215.0</ele><time>2026-04-12T10:06:12.165Z</time></trkpt><trkpt lat="43.6040444" lon="11.3087071"><ele>215.5</ele><time>2026-04-12T10:06:13.165Z</time></trkpt><trkpt lat="43.6040722" lon="11.3085939"><ele>216.0</ele><time>2026-04-12T10:06:14.165Z</time></trkpt><trkpt lat="43.6041091" lon="11.3084543"><ele>216.0</ele><time>2026-04-12T10:06:15.164Z</time></trkpt><trkpt lat="43.6041448" lon="11.3083042"><ele>216.0</ele><time>2026-04-12T10:06:16.165Z</time></trkpt><trkpt lat="43.6041684" lon="11.3081305"><ele>216.0</ele><time>2026-04-12T10:06:17.165Z</time></trkpt><trkpt lat="43.6041816" lon="11.3079395"><ele>216.0</ele><time>2026-04-12T10:06:18.165Z</time></trkpt><trkpt lat="43.6041846" lon="11.3077386"><ele>215.5</ele><time>2026-04-12T10:06:19.165Z</time></trkpt><trkpt lat="43.6041902" lon="11.3075345"><ele>215.0</ele><time>2026-04-12T10:06:20.165Z</time></trkpt><trkpt lat="43.6041927" lon="11.3073383"><ele>214.5</ele><time>2026-04-12T10:06:21.165Z</time></trkpt><trkpt lat="43.6042048" lon="11.3071384"><ele>214.0</ele><time>2026-04-12T10:06:22.165Z</time></trkpt><trkpt lat="43.6042386" lon="11.3069464"><ele>214.33333333333331</ele><time>2026-04-12T10:06:23.164Z</time></trkpt><trkpt lat="43.6043056" lon="11.3067719"><ele>214.66666666666669</ele><time>2026-04-12T10:06:24.165Z</time></trkpt><trkpt lat="43.6044089" lon="11.3066158"><ele>215.0</ele><time>2026-04-12T10:06:25.164Z</time></trkpt><trkpt lat="43.6045464" lon="11.3064752"><ele>213.25</ele><time>2026-04-12T10:06:26.165Z</time></trkpt><trkpt lat="43.6046755" lon="11.3063551"><ele>211.5</ele><time>2026-04-12T10:06:27.165Z</time></trkpt><trkpt lat="43.6047955" lon="11.3062451"><ele>209.75</ele><time>2026-04-12T10:06:28.165Z</time></trkpt><trkpt lat="43.6049122" lon="11.3061442"><ele>208.0</ele><time>2026-04-12T10:06:29.164Z</time></trkpt><trkpt lat="43.6050198" lon="11.3060483"><ele>208.0</ele><time>2026-04-12T10:06:30.164Z</time></trkpt><trkpt lat="43.6051254" lon="11.3059619"><ele>208.0</ele><time>2026-04-12T10:06:31.165Z</time></trkpt><trkpt lat="43.6052262" lon="11.3058725"><ele>208.0</ele><time>2026-04-12T10:06:32.165Z</time></trkpt><trkpt lat="43.6053259" lon="11.3057888"><ele>208.0</ele><time>2026-04-12T10:06:33.165Z</time></trkpt><trkpt lat="43.6054242" lon="11.3057072"><ele>208.0</ele><time>2026-04-12T10:06:34.165Z</time></trkpt><trkpt lat="43.6055169" lon="11.3056298"><ele>208.0</ele><time>2026-04-12T10:06:35.165Z</time></trkpt><trkpt lat="43.6056046" lon="11.3055602"><ele>208.0</ele><time>2026-04-12T10:06:36.165Z</time></trkpt><trkpt lat="43.6056858" lon="11.3054895"><ele>208.0</ele><time>2026-04-12T10:06:37.165Z</time></trkpt><trkpt lat="43.6057649" lon="11.3054231"><ele>208.0</ele><time>2026-04-12T10:06:38.164Z</time></trkpt><trkpt lat="43.605847" lon="11.3053526"><ele>208.0</ele><time>2026-04-12T10:06:39.165Z</time></trkpt><trkpt lat="43.6059341" lon="11.3052825"><ele>208.0</ele><time>2026-04-12T10:06:40.165Z</time></trkpt><trkpt lat="43.6060297" lon="11.3052052"><ele>208.0</ele><time>2026-04-12T10:06:41.164Z</time></trkpt><trkpt lat="43.6061272" lon="11.3051232"><ele>208.0</ele><time>2026-04-12T10:06:42.165Z</time></trkpt><trkpt lat="43.6062279" lon="11.3050309"><ele>208.0</ele><time>2026-04-12T10:06:43.164Z</time></trkpt><trkpt lat="43.6063266" lon="11.3049401"><ele>208.25</ele><time>2026-04-12T10:06:44.165Z</time></trkpt><trkpt lat="43.6064329" lon="11.3048333"><ele>208.5</ele><time>2026-04-12T10:06:45.165Z</time></trkpt><trkpt lat="43.6065522" lon="11.3047279"><ele>208.75</ele><time>2026-04-12T10:06:46.165Z</time></trkpt><trkpt lat="43.6066741" lon="11.304618"><ele>209.0</ele><time>2026-04-12T10:06:47.165Z</time></trkpt><trkpt lat="43.606783" lon="11.3044873"><ele>209.0</ele><time>2026-04-12T10:06:48.164Z</time></trkpt><trkpt lat="43.6068756" lon="11.304338"><ele>209.0</ele><time>2026-04-12T10:06:49.165Z</time></trkpt><trkpt lat="43.6069636" lon="11.3041816"><ele>209.0</ele><time>2026-04-12T10:06:50.164Z</time></trkpt><trkpt lat="43.6070507" lon="11.3040095"><ele>209.0</ele><time>2026-04-12T10:06:51.165Z</time></trkpt><trkpt lat="43.6071449" lon="11.30382"><ele>209.0</ele><time>2026-04-12T10:06:52.165Z</time></trkpt><trkpt lat="43.6072515" lon="11.3036351"><ele>209.0</ele><time>2026-04-12T10:06:53.165Z</time></trkpt><trkpt lat="43.6073484" lon="11.3034607"><ele>209.0</ele><time>2026-04-12T10:06:54.165Z</time></trkpt><trkpt lat="43.6074356" lon="11.3032894"><ele>209.0</ele><time>2026-04-12T10:06:55.165Z</time></trkpt><trkpt lat="43.6075179" lon="11.3031266"><ele>209.0</ele><time>2026-04-12T10:06:56.165Z</time></trkpt><trkpt lat="43.6075973" lon="11.3029715"><ele>209.0</ele><time>2026-04-12T10:06:57.165Z</time></trkpt><trkpt lat="43.6076716" lon="11.302833"><ele>209.0</ele><time>2026-04-12T10:06:58.165Z</time></trkpt><trkpt lat="43.6077422" lon="11.3027032"><ele>208.25</ele><time>2026-04-12T10:06:59.165Z</time></trkpt><trkpt lat="43.6078018" lon="11.3025735"><ele>207.5</ele><time>2026-04-12T10:07:00.165Z</time></trkpt><trkpt lat="43.6078577" lon="11.3024333"><ele>206.75</ele><time>2026-04-12T10:07:01.165Z</time></trkpt><trkpt lat="43.6078924" lon="11.3022789"><ele>206.0</ele><time>2026-04-12T10:07:02.164Z</time></trkpt><trkpt lat="43.6079065" lon="11.3021184"><ele>206.4</ele><time>2026-04-12T10:07:03.165Z</time></trkpt><trkpt lat="43.607915" lon="11.3019581"><ele>206.8</ele><time>2026-04-12T10:07:04.165Z</time></trkpt><trkpt lat="43.6079258" lon="11.3018113"><ele>207.20000000000002</ele><time>2026-04-12T10:07:05.165Z</time></trkpt><trkpt lat="43.6079452" lon="11.3016632"><ele>207.60000000000002</ele><time>2026-04-12T10:07:06.164Z</time></trkpt><trkpt lat="43.6079757" lon="11.301514"><ele>208.0</ele><time>2026-04-12T10:07:07.165Z</time></trkpt><trkpt lat="43.6080117" lon="11.3013649"><ele>208.0</ele><time>2026-04-12T10:07:08.165Z</time></trkpt><trkpt lat="43.6080441" lon="11.3012249"><ele>208.0</ele><time>2026-04-12T10:07:09.165Z</time></trkpt><trkpt lat="43.6080858" lon="11.3011"><ele>208.0</ele><time>2026-04-12T10:07:10.165Z</time></trkpt><trkpt lat="43.6081241" lon="11.3009761"><ele>208.0</ele><time>2026-04-12T10:07:11.165Z</time></trkpt><trkpt lat="43.6081738" lon="11.3008523"><ele>208.0</ele><time>2026-04-12T10:07:12.164Z</time></trkpt><trkpt lat="43.6082266" lon="11.3007332"><ele>208.0</ele><time>2026-04-12T10:07:13.164Z</time></trkpt><trkpt lat="43.6082824" lon="11.3006164"><ele>208.0</ele><time>2026-04-12T10:07:14.165Z</time></trkpt><trkpt lat="43.6083424" lon="11.3005098"><ele>208.0</ele><time>2026-04-12T10:07:15.165Z</time></trkpt><trkpt lat="43.6083947" lon="11.3004054"><ele>208.0</ele><time>2026-04-12T10:07:16.165Z</time></trkpt><trkpt lat="43.6084423" lon="11.3003096"><ele>208.0</ele><time>2026-04-12T10:07:17.165Z</time></trkpt><trkpt lat="43.6084959" lon="11.3002147"><ele>207.66666666666666</ele><time>2026-04-12T10:07:18.165Z</time></trkpt><trkpt lat="43.6085518" lon="11.3001195"><ele>207.33333333333331</ele><time>2026-04-12T10:07:19.165Z</time></trkpt><trkpt lat="43.6086045" lon="11.3000209"><ele>207.0</ele><time>2026-04-12T10:07:20.165Z</time></trkpt><trkpt lat="43.6086519" lon="11.2999283"><ele>206.66666666666669</ele><time>2026-04-12T10:07:21.165Z</time></trkpt><trkpt lat="43.608716" lon="11.2998429"><ele>206.33333333333334</ele><time>2026-04-12T10:07:22.165Z</time></trkpt><trkpt lat="43.6087784" lon="11.2997748"><ele>206.0</ele><time>2026-04-12T10:07:23.165Z</time></trkpt><trkpt lat="43.6088301" lon="11.2997239"><ele>206.0</ele><time>2026-04-12T10:07:24.165Z</time></trkpt><trkpt lat="43.6089462" lon="11.2996877"><ele>206.0</ele><time>2026-04-12T10:07:26.165Z</time></trkpt><trkpt lat="43.6090184" lon="11.2996982"><ele>206.0</ele><time>2026-04-12T10:07:27.165Z</time></trkpt><trkpt lat="43.6091081" lon="11.2997266"><ele>206.0</ele><time>2026-04-12T10:07:28.164Z</time></trkpt><trkpt lat="43.6092146" lon="11.2997645"><ele>206.0</ele><time>2026-04-12T10:07:29.165Z</time></trkpt><trkpt lat="43.609347" lon="11.2998072"><ele>206.0</ele><time>2026-04-12T10:07:30.165Z</time></trkpt><trkpt lat="43.6094838" lon="11.2998617"><ele>206.0</ele><time>2026-04-12T10:07:31.165Z</time></trkpt><trkpt lat="43.6096221" lon="11.2999031"><ele>206.0</ele><time>2026-04-12T10:07:32.165Z</time></trkpt><trkpt lat="43.6097705" lon="11.2999213"><ele>206.0</ele><time>2026-04-12T10:07:33.165Z</time></trkpt><trkpt lat="43.6099299" lon="11.2998973"><ele>207.66666666666669</ele><time>2026-04-12T10:07:34.165Z</time></trkpt><trkpt lat="43.6100849" lon="11.2998403"><ele>209.33333333333331</ele><time>2026-04-12T10:07:35.165Z</time></trkpt><trkpt lat="43.6102415" lon="11.2997532"><ele>211.0</ele><time>2026-04-12T10:07:36.164Z</time></trkpt><trkpt lat="43.6103978" lon="11.2996501"><ele>213.75</ele><time>2026-04-12T10:07:37.165Z</time></trkpt><trkpt lat="43.6105483" lon="11.2995477"><ele>216.5</ele><time>2026-04-12T10:07:38.165Z</time></trkpt><trkpt lat="43.6106797" lon="11.2994643"><ele>219.25</ele><time>2026-04-12T10:07:39.165Z</time></trkpt><trkpt lat="43.6107974" lon="11.2993997"><ele>222.0</ele><time>2026-04-12T10:07:40.165Z</time></trkpt><trkpt lat="43.6109122" lon="11.2993638"><ele>222.0</ele><time>2026-04-12T10:07:41.165Z</time></trkpt><trkpt lat="43.6110123" lon="11.2993711"><ele>222.0</ele><time>2026-04-12T10:07:42.165Z</time></trkpt><trkpt lat="43.6111128" lon="11.2994098"><ele>222.0</ele><time>2026-04-12T10:07:43.165Z</time></trkpt><trkpt lat="43.611212" lon="11.2994711"><ele>222.0</ele><time>2026-04-12T10:07:44.164Z</time></trkpt><trkpt lat="43.6113171" lon="11.2995171"><ele>222.0</ele><time>2026-04-12T10:07:45.165Z</time></trkpt><trkpt lat="43.6114226" lon="11.2995328"><ele>223.0</ele><time>2026-04-12T10:07:46.164Z</time></trkpt><trkpt lat="43.6115258" lon="11.2995146"><ele>224.0</ele><time>2026-04-12T10:07:47.165Z</time></trkpt><trkpt lat="43.61162" lon="11.2994523"><ele>225.0</ele><time>2026-04-12T10:07:48.164Z</time></trkpt><trkpt lat="43.6117119" lon="11.299379"><ele>226.0</ele><time>2026-04-12T10:07:49.165Z</time></trkpt><trkpt lat="43.6118105" lon="11.2993053"><ele>227.0</ele><time>2026-04-12T10:07:50.164Z</time></trkpt><trkpt lat="43.6119235" lon="11.2992548"><ele>227.5</ele><time>2026-04-12T10:07:51.164Z</time></trkpt><trkpt lat="43.6120348" lon="11.2992286"><ele>228.0</ele><time>2026-04-12T10:07:52.164Z</time></trkpt><trkpt lat="43.612151" lon="11.2992455"><ele>228.5</ele><time>2026-04-12T10:07:53.165Z</time></trkpt><trkpt lat="43.6122856" lon="11.2992897"><ele>229.0</ele><time>2026-04-12T10:07:54.165Z</time></trkpt><trkpt lat="43.6124317" lon="11.2993607"><ele>229.0</ele><time>2026-04-12T10:07:55.165Z</time></trkpt><trkpt lat="43.6125896" lon="11.2994495"><ele>229.0</ele><time>2026-04-12T10:07:56.165Z</time></trkpt><trkpt lat="43.6127609" lon="11.2995511"><ele>229.0</ele><time>2026-04-12T10:07:57.165Z</time></trkpt><trkpt lat="43.6129496" lon="11.2996402"><ele>228.66666666666666</ele><time>2026-04-12T10:07:58.164Z</time></trkpt><trkpt lat="43.6131359" lon="11.2997424"><ele>228.33333333333331</ele><time>2026-04-12T10:07:59.164Z</time></trkpt><trkpt lat="43.6133273" lon="11.299849"><ele>228.0</ele><time>2026-04-12T10:08:00.164Z</time></trkpt><trkpt lat="43.6135196" lon="11.2999625"><ele>231.33333333333331</ele><time>2026-04-12T10:08:01.165Z</time></trkpt><trkpt lat="43.6136989" lon="11.3000547"><ele>234.66666666666666</ele><time>2026-04-12T10:08:02.165Z</time></trkpt><trkpt lat="43.6138582" lon="11.3001458"><ele>238.0</ele><time>2026-04-12T10:08:03.165Z</time></trkpt><trkpt lat="43.6139984" lon="11.3002236"><ele>238.0</ele><time>2026-04-12T10:08:04.164Z</time></trkpt><trkpt lat="43.6141068" lon="11.3002864"><ele>238.0</ele><time>2026-04-12T10:08:05.164Z</time></trkpt><trkpt lat="43.6142091" lon="11.3002983"><ele>238.0</ele><time>2026-04-12T10:08:06.165Z</time></trkpt><trkpt lat="43.6142952" lon="11.3002447"><ele>238.0</ele><time>2026-04-12T10:08:07.165Z</time></trkpt><trkpt lat="43.6143494" lon="11.3001396"><ele>238.0</ele><time>2026-04-12T10:08:08.165Z</time></trkpt><trkpt lat="43.6143532" lon="11.3000077"><ele>238.0</ele><time>2026-04-12T10:08:09.164Z</time></trkpt><trkpt lat="43.6143012" lon="11.2998856"><ele>238.0</ele><time>2026-04-12T10:08:10.165Z</time></trkpt><trkpt lat="43.6142063" lon="11.2997964"><ele>238.0</ele><time>2026-04-12T10:08:11.165Z</time></trkpt><trkpt lat="43.6140806" lon="11.299715"><ele>238.0</ele><time>2026-04-12T10:08:12.165Z</time></trkpt><trkpt lat="43.6139362" lon="11.2996187"><ele>238.66666666666666</ele><time>2026-04-12T10:08:13.165Z</time></trkpt><trkpt lat="43.6137842" lon="11.2995069"><ele>239.33333333333331</ele><time>2026-04-12T10:08:14.165Z</time></trkpt><trkpt lat="43.6136503" lon="11.2993631"><ele>240.0</ele><time>2026-04-12T10:08:15.165Z</time></trkpt><trkpt lat="43.6135278" lon="11.2991785"><ele>240.0</ele><time>2026-04-12T10:08:16.165Z</time></trkpt><trkpt lat="43.6134097" lon="11.298972"><ele>240.0</ele><time>2026-04-12T10:08:17.165Z</time></trkpt><trkpt lat="43.6132958" lon="11.2987739"><ele>240.0</ele><time>2026-04-12T10:08:18.164Z</time></trkpt><trkpt lat="43.6132006" lon="11.2985951"><ele>240.5</ele><time>2026-04-12T10:08:19.165Z</time></trkpt><trkpt lat="43.6131304" lon="11.298441"><ele>241.0</ele><time>2026-04-12T10:08:20.165Z</time></trkpt><trkpt lat="43.613075" lon="11.2982937"><ele>241.5</ele><time>2026-04-12T10:08:21.165Z</time></trkpt><trkpt lat="43.6130815" lon="11.2981534"><ele>242.0</ele><time>2026-04-12T10:08:22.165Z</time></trkpt><trkpt lat="43.6131026" lon="11.2980162"><ele>242.0</ele><time>2026-04-12T10:08:23.165Z</time></trkpt><trkpt lat="43.613166" lon="11.2978935"><ele>242.0</ele><time>2026-04-12T10:08:24.165Z</time></trkpt><trkpt lat="43.6132583" lon="11.2978043"><ele>242.0</ele><time>2026-04-12T10:08:25.164Z</time></trkpt><trkpt lat="43.6133616" lon="11.2977826"><ele>242.0</ele><time>2026-04-12T10:08:26.165Z</time></trkpt><trkpt lat="43.6134652" lon="11.2978025"><ele>242.0</ele><time>2026-04-12T10:08:27.165Z</time></trkpt><trkpt lat="43.6135566" lon="11.2978726"><ele>242.00000000000003</ele><time>2026-04-12T10:08:28.165Z</time></trkpt><trkpt lat="43.6136133" lon="11.2979795"><ele>242.0</ele><time>2026-04-12T10:08:29.165Z</time></trkpt><trkpt lat="43.6136502" lon="11.2980675"><ele>242.0</ele><time>2026-04-12T10:08:30.165Z</time></trkpt><trkpt lat="43.6137069" lon="11.2981492"><ele>242.0</ele><time>2026-04-12T10:08:32.165Z</time></trkpt><trkpt lat="43.6137831" lon="11.2981591"><ele>242.00000000000003</ele><time>2026-04-12T10:09:07.164Z</time></trkpt><trkpt lat="43.6138454" lon="11.2980644"><ele>242.0</ele><time>2026-04-12T10:09:09.165Z</time></trkpt><trkpt lat="43.6138982" lon="11.2979776"><ele>240.5</ele><time>2026-04-12T10:09:10.165Z</time></trkpt><trkpt lat="43.6139937" lon="11.2979259"><ele>239.0</ele><time>2026-04-12T10:09:11.164Z</time></trkpt><trkpt lat="43.6141172" lon="11.297883"><ele>237.5</ele><time>2026-04-12T10:09:12.164Z</time></trkpt><trkpt lat="43.6142684" lon="11.2978496"><ele>236.0</ele><time>2026-04-12T10:09:13.165Z</time></trkpt><trkpt lat="43.6144276" lon="11.2977985"><ele>235.66666666666669</ele><time>2026-04-12T10:09:14.164Z</time></trkpt><trkpt lat="43.6146002" lon="11.2977382"><ele>235.33333333333331</ele><time>2026-04-12T10:09:15.164Z</time></trkpt><trkpt lat="43.6147894" lon="11.2976679"><ele>235.0</ele><time>2026-04-12T10:09:16.165Z</time></trkpt><trkpt lat="43.6149819" lon="11.2975911"><ele>235.0</ele><time>2026-04-12T10:09:17.165Z</time></trkpt><trkpt lat="43.6151883" lon="11.2975127"><ele>235.0</ele><time>2026-04-12T10:09:18.165Z</time></trkpt><trkpt lat="43.6153983" lon="11.2974366"><ele>235.0</ele><time>2026-04-12T10:09:19.165Z</time></trkpt><trkpt lat="43.6155987" lon="11.2973595"><ele>235.0</ele><time>2026-04-12T10:09:20.165Z</time></trkpt><trkpt lat="43.6157836" lon="11.297272"><ele>235.0</ele><time>2026-04-12T10:09:21.165Z</time></trkpt><trkpt lat="43.6159637" lon="11.2971313"><ele>235.0</ele><time>2026-04-12T10:09:22.165Z</time></trkpt><trkpt lat="43.6161267" lon="11.2969439"><ele>234.33333333333331</ele><time>2026-04-12T10:09:23.165Z</time></trkpt><trkpt lat="43.61628" lon="11.2967436"><ele>233.66666666666669</ele><time>2026-04-12T10:09:24.165Z</time></trkpt><trkpt lat="43.6164248" lon="11.2965566"><ele>233.0</ele><time>2026-04-12T10:09:25.164Z</time></trkpt><trkpt lat="43.6165647" lon="11.2963845"><ele>228.66666666666669</ele><time>2026-04-12T10:09:26.165Z</time></trkpt><trkpt lat="43.6167192" lon="11.2962377"><ele>224.33333333333331</ele><time>2026-04-12T10:09:27.165Z</time></trkpt><trkpt lat="43.6168844" lon="11.296139"><ele>220.0</ele><time>2026-04-12T10:09:28.165Z</time></trkpt><trkpt lat="43.6170708" lon="11.2960793"><ele>220.0</ele><time>2026-04-12T10:09:29.164Z</time></trkpt><trkpt lat="43.6172726" lon="11.2960364"><ele>220.0</ele><time>2026-04-12T10:09:30.165Z</time></trkpt><trkpt lat="43.6174863" lon="11.2959894"><ele>220.0</ele><time>2026-04-12T10:09:31.165Z</time></trkpt><trkpt lat="43.6176872" lon="11.2959476"><ele>218.0</ele><time>2026-04-12T10:09:32.165Z</time></trkpt><trkpt lat="43.6178798" lon="11.2959225"><ele>216.0</ele><time>2026-04-12T10:09:33.165Z</time></trkpt><trkpt lat="43.6180596" lon="11.2959405"><ele>214.0</ele><time>2026-04-12T10:09:34.164Z</time></trkpt><trkpt lat="43.6182285" lon="11.2960194"><ele>214.0</ele><time>2026-04-12T10:09:35.165Z</time></trkpt><trkpt lat="43.6183957" lon="11.2961341"><ele>214.0</ele><time>2026-04-12T10:09:36.165Z</time></trkpt><trkpt lat="43.6185574" lon="11.2962735"><ele>214.0</ele><time>2026-04-12T10:09:37.165Z</time></trkpt><trkpt lat="43.6187358" lon="11.2963811"><ele>215.0</ele><time>2026-04-12T10:09:38.164Z</time></trkpt><trkpt lat="43.6189287" lon="11.296432"><ele>216.0</ele><time>2026-04-12T10:09:39.165Z</time></trkpt><trkpt lat="43.619108" lon="11.2964633"><ele>217.0</ele><time>2026-04-12T10:09:40.165Z</time></trkpt><trkpt lat="43.6192749" lon="11.2965022"><ele>217.0</ele><time>2026-04-12T10:09:41.164Z</time></trkpt><trkpt lat="43.619419" lon="11.2965723"><ele>217.0</ele><time>2026-04-12T10:09:42.164Z</time></trkpt><trkpt lat="43.6195438" lon="11.2966839"><ele>217.0</ele><time>2026-04-12T10:09:43.164Z</time></trkpt><trkpt lat="43.6196386" lon="11.2968421"><ele>215.25</ele><time>2026-04-12T10:09:44.165Z</time></trkpt><trkpt lat="43.6197052" lon="11.297008"><ele>213.5</ele><time>2026-04-12T10:09:45.165Z</time></trkpt><trkpt lat="43.6197878" lon="11.2971434"><ele>211.75</ele><time>2026-04-12T10:09:46.165Z</time></trkpt><trkpt lat="43.6198876" lon="11.2972476"><ele>210.0</ele><time>2026-04-12T10:09:47.164Z</time></trkpt><trkpt lat="43.6199981" lon="11.2973175"><ele>210.0</ele><time>2026-04-12T10:09:48.165Z</time></trkpt><trkpt lat="43.6201153" lon="11.2973403"><ele>210.0</ele><time>2026-04-12T10:09:49.165Z</time></trkpt><trkpt lat="43.6202175" lon="11.2973114"><ele>210.0</ele><time>2026-04-12T10:09:50.165Z</time></trkpt><trkpt lat="43.620309" lon="11.2972481"><ele>210.0</ele><time>2026-04-12T10:09:51.165Z</time></trkpt><trkpt lat="43.6203713" lon="11.2971474"><ele>210.0</ele><time>2026-04-12T10:09:52.165Z</time></trkpt><trkpt lat="43.6203883" lon="11.2970085"><ele>209.25</ele><time>2026-04-12T10:09:53.164Z</time></trkpt><trkpt lat="43.6203726" lon="11.2968518"><ele>208.5</ele><time>2026-04-12T10:09:54.165Z</time></trkpt><trkpt lat="43.6203364" lon="11.2966553"><ele>207.75</ele><time>2026-04-12T10:09:55.165Z</time></trkpt><trkpt lat="43.6202952" lon="11.2964347"><ele>207.0</ele><time>2026-04-12T10:09:56.164Z</time></trkpt><trkpt lat="43.6202404" lon="11.2962063"><ele>205.66666666666669</ele><time>2026-04-12T10:09:57.165Z</time></trkpt><trkpt lat="43.620167" lon="11.2959696"><ele>204.33333333333334</ele><time>2026-04-12T10:09:58.164Z</time></trkpt><trkpt lat="43.6200919" lon="11.2957376"><ele>203.0</ele><time>2026-04-12T10:09:59.165Z</time></trkpt><trkpt lat="43.6200156" lon="11.2955146"><ele>202.33333333333334</ele><time>2026-04-12T10:10:00.165Z</time></trkpt><trkpt lat="43.6199537" lon="11.295301"><ele>201.66666666666669</ele><time>2026-04-12T10:10:01.165Z</time></trkpt><trkpt lat="43.619877" lon="11.2950989"><ele>201.0</ele><time>2026-04-12T10:10:02.165Z</time></trkpt><trkpt lat="43.6197668" lon="11.2949204"><ele>201.0</ele><time>2026-04-12T10:10:03.165Z</time></trkpt><trkpt lat="43.6196259" lon="11.2947804"><ele>201.0</ele><time>2026-04-12T10:10:04.164Z</time></trkpt><trkpt lat="43.6194629" lon="11.2946561"><ele>201.0</ele><time>2026-04-12T10:10:05.164Z</time></trkpt><trkpt lat="43.619327" lon="11.2945194"><ele>199.0</ele><time>2026-04-12T10:10:06.165Z</time></trkpt><trkpt lat="43.6192009" lon="11.2943532"><ele>197.0</ele><time>2026-04-12T10:10:07.165Z</time></trkpt><trkpt lat="43.6190892" lon="11.2941378"><ele>195.0</ele><time>2026-04-12T10:10:08.165Z</time></trkpt><trkpt lat="43.618983" lon="11.2939013"><ele>195.0</ele><time>2026-04-12T10:10:09.165Z</time></trkpt><trkpt lat="43.6188822" lon="11.2936549"><ele>195.0</ele><time>2026-04-12T10:10:10.165Z</time></trkpt><trkpt lat="43.6187805" lon="11.2934051"><ele>195.0</ele><time>2026-04-12T10:10:11.164Z</time></trkpt><trkpt lat="43.6186787" lon="11.2931502"><ele>192.33333333333334</ele><time>2026-04-12T10:10:12.165Z</time></trkpt><trkpt lat="43.6185889" lon="11.2928889"><ele>189.66666666666669</ele><time>2026-04-12T10:10:13.165Z</time></trkpt><trkpt lat="43.6185358" lon="11.2926375"><ele>187.0</ele><time>2026-04-12T10:10:14.164Z</time></trkpt><trkpt lat="43.6185188" lon="11.2923883"><ele>186.0</ele><time>2026-04-12T10:10:15.165Z</time></trkpt><trkpt lat="43.6185419" lon="11.2921333"><ele>185.0</ele><time>2026-04-12T10:10:16.165Z</time></trkpt><trkpt lat="43.6185964" lon="11.2918715"><ele>184.0</ele><time>2026-04-12T10:10:17.165Z</time></trkpt><trkpt lat="43.6186598" lon="11.2916012"><ele>187.0</ele><time>2026-04-12T10:10:18.165Z</time></trkpt><trkpt lat="43.6187176" lon="11.2913168"><ele>190.0</ele><time>2026-04-12T10:10:19.165Z</time></trkpt><trkpt lat="43.6187761" lon="11.2910181"><ele>193.0</ele><time>2026-04-12T10:10:20.165Z</time></trkpt><trkpt lat="43.6188316" lon="11.2907126"><ele>191.0</ele><time>2026-04-12T10:10:21.165Z</time></trkpt><trkpt lat="43.618893" lon="11.2904008"><ele>189.0</ele><time>2026-04-12T10:10:22.165Z</time></trkpt><trkpt lat="43.6189617" lon="11.2900881"><ele>189.0</ele><time>2026-04-12T10:10:23.164Z</time></trkpt><trkpt lat="43.6190212" lon="11.2897662"><ele>189.0</ele><time>2026-04-12T10:10:24.165Z</time></trkpt><trkpt lat="43.6190778" lon="11.2894465"><ele>187.0</ele><time>2026-04-12T10:10:25.165Z</time></trkpt><trkpt lat="43.6191465" lon="11.2891244"><ele>185.0</ele><time>2026-04-12T10:10:26.165Z</time></trkpt><trkpt lat="43.6192341" lon="11.288809"><ele>182.0</ele><time>2026-04-12T10:10:27.164Z</time></trkpt><trkpt lat="43.6193321" lon="11.2884916"><ele>179.0</ele><time>2026-04-12T10:10:28.165Z</time></trkpt><trkpt lat="43.619449" lon="11.2881739"><ele>182.0</ele><time>2026-04-12T10:10:29.165Z</time></trkpt><trkpt lat="43.6195744" lon="11.2878703"><ele>185.0</ele><time>2026-04-12T10:10:30.165Z</time></trkpt><trkpt lat="43.6197084" lon="11.2875767"><ele>185.0</ele><time>2026-04-12T10:10:31.165Z</time></trkpt><trkpt lat="43.6198345" lon="11.2873045"><ele>185.0</ele><time>2026-04-12T10:10:32.165Z</time></trkpt><trkpt lat="43.6199616" lon="11.2870458"><ele>183.66666666666666</ele><time>2026-04-12T10:10:33.164Z</time></trkpt><trkpt lat="43.6200867" lon="11.2868083"><ele>182.33333333333334</ele><time>2026-04-12T10:10:34.165Z</time></trkpt><trkpt lat="43.6202229" lon="11.2866054"><ele>181.0</ele><time>2026-04-12T10:10:35.165Z</time></trkpt><trkpt lat="43.6203622" lon="11.2864321"><ele>178.0</ele><time>2026-04-12T10:10:36.165Z</time></trkpt><trkpt lat="43.6205067" lon="11.2862926"><ele>175.0</ele><time>2026-04-12T10:10:37.164Z</time></trkpt><trkpt lat="43.6206733" lon="11.2862231"><ele>172.0</ele><time>2026-04-12T10:10:38.164Z</time></trkpt><trkpt lat="43.6208444" lon="11.2861787"><ele>172.0</ele><time>2026-04-12T10:10:39.165Z</time></trkpt><trkpt lat="43.6210104" lon="11.2861617"><ele>172.0</ele><time>2026-04-12T10:10:40.164Z</time></trkpt><trkpt lat="43.6211623" lon="11.2861464"><ele>172.0</ele><time>2026-04-12T10:10:41.164Z</time></trkpt><trkpt lat="43.6212998" lon="11.2861203"><ele>171.66666666666669</ele><time>2026-04-12T10:10:42.165Z</time></trkpt><trkpt lat="43.6214418" lon="11.2860941"><ele>171.33333333333334</ele><time>2026-04-12T10:10:43.165Z</time></trkpt><trkpt lat="43.6215927" lon="11.2860615"><ele>171.0</ele><time>2026-04-12T10:10:44.165Z</time></trkpt><trkpt lat="43.6217527" lon="11.2860352"><ele>171.0</ele><time>2026-04-12T10:10:45.165Z</time></trkpt><trkpt lat="43.6219302" lon="11.2860114"><ele>171.0</ele><time>2026-04-12T10:10:46.165Z</time></trkpt><trkpt lat="43.622102" lon="11.2859618"><ele>171.0</ele><time>2026-04-12T10:10:47.165Z</time></trkpt><trkpt lat="43.6222739" lon="11.2858643"><ele>170.0</ele><time>2026-04-12T10:10:48.164Z</time></trkpt><trkpt lat="43.6224357" lon="11.2857274"><ele>169.0</ele><time>2026-04-12T10:10:49.165Z</time></trkpt><trkpt lat="43.622592" lon="11.2855696"><ele>168.0</ele><time>2026-04-12T10:10:50.165Z</time></trkpt><trkpt lat="43.6227515" lon="11.2854016"><ele>170.33333333333334</ele><time>2026-04-12T10:10:51.165Z</time></trkpt><trkpt lat="43.6228997" lon="11.2852412"><ele>172.66666666666669</ele><time>2026-04-12T10:10:52.165Z</time></trkpt><trkpt lat="43.6230364" lon="11.2850882"><ele>175.0</ele><time>2026-04-12T10:10:53.164Z</time></trkpt><trkpt lat="43.623176" lon="11.2849528"><ele>175.0</ele><time>2026-04-12T10:10:54.165Z</time></trkpt><trkpt lat="43.6233211" lon="11.2848207"><ele>175.0</ele><time>2026-04-12T10:10:55.165Z</time></trkpt><trkpt lat="43.6234688" lon="11.2847173"><ele>175.0</ele><time>2026-04-12T10:10:56.165Z</time></trkpt><trkpt lat="43.623618" lon="11.2846387"><ele>174.0</ele><time>2026-04-12T10:10:57.165Z</time></trkpt><trkpt lat="43.6237682" lon="11.2845612"><ele>173.0</ele><time>2026-04-12T10:10:58.164Z</time></trkpt><trkpt lat="43.623908" lon="11.284465"><ele>172.0</ele><time>2026-04-12T10:10:59.165Z</time></trkpt><trkpt lat="43.6240305" lon="11.2843212"><ele>172.0</ele><time>2026-04-12T10:11:00.164Z</time></trkpt><trkpt lat="43.6241364" lon="11.2841535"><ele>172.0</ele><time>2026-04-12T10:11:01.165Z</time></trkpt><trkpt lat="43.62423" lon="11.2839574"><ele>172.0</ele><time>2026-04-12T10:11:02.165Z</time></trkpt><trkpt lat="43.6243196" lon="11.2837547"><ele>171.33333333333334</ele><time>2026-04-12T10:11:03.164Z</time></trkpt><trkpt lat="43.6244053" lon="11.2835565"><ele>170.66666666666666</ele><time>2026-04-12T10:11:04.164Z</time></trkpt><trkpt lat="43.6244907" lon="11.2833743"><ele>170.0</ele><time>2026-04-12T10:11:05.164Z</time></trkpt><trkpt lat="43.6245672" lon="11.283203"><ele>169.0</ele><time>2026-04-12T10:11:06.165Z</time></trkpt><trkpt lat="43.6246446" lon="11.2830383"><ele>168.0</ele><time>2026-04-12T10:11:07.165Z</time></trkpt><trkpt lat="43.6247131" lon="11.2828825"><ele>167.0</ele><time>2026-04-12T10:11:08.165Z</time></trkpt><trkpt lat="43.6247765" lon="11.2827339"><ele>166.0</ele><time>2026-04-12T10:11:09.165Z</time></trkpt><trkpt lat="43.6248427" lon="11.2825935"><ele>166.0</ele><time>2026-04-12T10:11:10.164Z</time></trkpt><trkpt lat="43.6249004" lon="11.2824605"><ele>166.0</ele><time>2026-04-12T10:11:11.164Z</time></trkpt><trkpt lat="43.6249634" lon="11.2823291"><ele>166.0</ele><time>2026-04-12T10:11:12.164Z</time></trkpt><trkpt lat="43.6250186" lon="11.2821946"><ele>166.0</ele><time>2026-04-12T10:11:13.165Z</time></trkpt><trkpt lat="43.625073" lon="11.2820619"><ele>166.0</ele><time>2026-04-12T10:11:14.165Z</time></trkpt><trkpt lat="43.625134" lon="11.2819267"><ele>165.75</ele><time>2026-04-12T10:11:15.165Z</time></trkpt><trkpt lat="43.6251939" lon="11.2817938"><ele>165.5</ele><time>2026-04-12T10:11:16.165Z</time></trkpt><trkpt lat="43.6252522" lon="11.2816556"><ele>165.25</ele><time>2026-04-12T10:11:17.165Z</time></trkpt><trkpt lat="43.6253122" lon="11.2815185"><ele>165.0</ele><time>2026-04-12T10:11:18.165Z</time></trkpt><trkpt lat="43.6253778" lon="11.2813721"><ele>165.0</ele><time>2026-04-12T10:11:19.164Z</time></trkpt><trkpt lat="43.6254449" lon="11.2812143"><ele>165.0</ele><time>2026-04-12T10:11:20.164Z</time></trkpt><trkpt lat="43.6255243" lon="11.2810394"><ele>165.0</ele><time>2026-04-12T10:11:21.165Z</time></trkpt><trkpt lat="43.6256028" lon="11.2808531"><ele>165.0</ele><time>2026-04-12T10:11:22.165Z</time></trkpt><trkpt lat="43.6256923" lon="11.2806518"><ele>164.66666666666666</ele><time>2026-04-12T10:11:23.165Z</time></trkpt><trkpt lat="43.6257883" lon="11.2804363"><ele>164.33333333333331</ele><time>2026-04-12T10:11:24.165Z</time></trkpt><trkpt lat="43.6258872" lon="11.2802074"><ele>164.0</ele><time>2026-04-12T10:11:25.165Z</time></trkpt><trkpt lat="43.6259851" lon="11.2799782"><ele>163.66666666666666</ele><time>2026-04-12T10:11:26.164Z</time></trkpt><trkpt lat="43.6260858" lon="11.2797454"><ele>163.33333333333334</ele><time>2026-04-12T10:11:27.164Z</time></trkpt><trkpt lat="43.6262071" lon="11.2795064"><ele>163.0</ele><time>2026-04-12T10:11:28.165Z</time></trkpt><trkpt lat="43.6263451" lon="11.2792791"><ele>162.66666666666669</ele><time>2026-04-12T10:11:29.165Z</time></trkpt><trkpt lat="43.6264856" lon="11.2790481"><ele>162.33333333333334</ele><time>2026-04-12T10:11:30.165Z</time></trkpt><trkpt lat="43.6266362" lon="11.2788188"><ele>162.0</ele><time>2026-04-12T10:11:31.165Z</time></trkpt><trkpt lat="43.6267864" lon="11.2785954"><ele>162.0</ele><time>2026-04-12T10:11:32.165Z</time></trkpt><trkpt lat="43.6269318" lon="11.2783779"><ele>162.0</ele><time>2026-04-12T10:11:33.165Z</time></trkpt><trkpt lat="43.6270823" lon="11.2781685"><ele>162.0</ele><time>2026-04-12T10:11:34.165Z</time></trkpt><trkpt lat="43.6272481" lon="11.2779749"><ele>162.0</ele><time>2026-04-12T10:11:35.165Z</time></trkpt><trkpt lat="43.6274257" lon="11.2777979"><ele>162.0</ele><time>2026-04-12T10:11:36.165Z</time></trkpt><trkpt lat="43.627615" lon="11.2776212"><ele>162.0</ele><time>2026-04-12T10:11:37.164Z</time></trkpt><trkpt lat="43.6278151" lon="11.2774603"><ele>162.0</ele><time>2026-04-12T10:11:38.165Z</time></trkpt><trkpt lat="43.6280074" lon="11.2773308"><ele>162.0</ele><time>2026-04-12T10:11:39.165Z</time></trkpt><trkpt lat="43.6281973" lon="11.2772109"><ele>162.0</ele><time>2026-04-12T10:11:40.164Z</time></trkpt><trkpt lat="43.6283909" lon="11.2771"><ele>162.0</ele><time>2026-04-12T10:11:41.165Z</time></trkpt><trkpt lat="43.6285819" lon="11.2770018"><ele>162.0</ele><time>2026-04-12T10:11:42.165Z</time></trkpt><trkpt lat="43.6287684" lon="11.2769107"><ele>162.0</ele><time>2026-04-12T10:11:43.164Z</time></trkpt><trkpt lat="43.6289614" lon="11.276813"><ele>162.66666666666666</ele><time>2026-04-12T10:11:44.164Z</time></trkpt><trkpt lat="43.6291394" lon="11.276706"><ele>163.33333333333331</ele><time>2026-04-12T10:11:45.164Z</time></trkpt><trkpt lat="43.6293113" lon="11.2765812"><ele>164.0</ele><time>2026-04-12T10:11:46.165Z</time></trkpt><trkpt lat="43.6294502" lon="11.276437"><ele>163.0</ele><time>2026-04-12T10:11:47.165Z</time></trkpt><trkpt lat="43.6295736" lon="11.2762841"><ele>162.0</ele><time>2026-04-12T10:11:48.165Z</time></trkpt><trkpt lat="43.6296851" lon="11.2761329"><ele>161.0</ele><time>2026-04-12T10:11:49.165Z</time></trkpt><trkpt lat="43.6297968" lon="11.2759929"><ele>161.0</ele><time>2026-04-12T10:11:50.165Z</time></trkpt><trkpt lat="43.6299113" lon="11.2758701"><ele>161.0</ele><time>2026-04-12T10:11:51.165Z</time></trkpt><trkpt lat="43.6300367" lon="11.2757531"><ele>161.0</ele><time>2026-04-12T10:11:52.164Z</time></trkpt><trkpt lat="43.6301717" lon="11.2756272"><ele>159.66666666666666</ele><time>2026-04-12T10:11:53.164Z</time></trkpt><trkpt lat="43.6303224" lon="11.2754923"><ele>158.33333333333334</ele><time>2026-04-12T10:11:54.165Z</time></trkpt><trkpt lat="43.6304871" lon="11.2753592"><ele>157.0</ele><time>2026-04-12T10:11:55.165Z</time></trkpt><trkpt lat="43.63067" lon="11.2752274"><ele>157.0</ele><time>2026-04-12T10:11:56.164Z</time></trkpt><trkpt lat="43.6308595" lon="11.2751121"><ele>157.0</ele><time>2026-04-12T10:11:57.164Z</time></trkpt><trkpt lat="43.6310623" lon="11.2750028"><ele>157.0</ele><time>2026-04-12T10:11:58.164Z</time></trkpt><trkpt lat="43.6312736" lon="11.2749234"><ele>157.0</ele><time>2026-04-12T10:11:59.165Z</time></trkpt><trkpt lat="43.6314924" lon="11.2748597"><ele>157.0</ele><time>2026-04-12T10:12:00.165Z</time></trkpt><trkpt lat="43.6316985" lon="11.2748069"><ele>157.0</ele><time>2026-04-12T10:12:01.165Z</time></trkpt><trkpt lat="43.6318963" lon="11.2747579"><ele>156.33333333333334</ele><time>2026-04-12T10:12:02.165Z</time></trkpt><trkpt lat="43.6320613" lon="11.2747003"><ele>155.66666666666666</ele><time>2026-04-12T10:12:03.164Z</time></trkpt><trkpt lat="43.6322064" lon="11.274633"><ele>155.0</ele><time>2026-04-12T10:12:04.164Z</time></trkpt><trkpt lat="43.6323189" lon="11.2745178"><ele>155.0</ele><time>2026-04-12T10:12:05.165Z</time></trkpt><trkpt lat="43.6323972" lon="11.274355"><ele>155.0</ele><time>2026-04-12T10:12:06.164Z</time></trkpt><trkpt lat="43.6324383" lon="11.2741706"><ele>155.0</ele><time>2026-04-12T10:12:07.165Z</time></trkpt><trkpt lat="43.6324341" lon="11.2739822"><ele>155.0</ele><time>2026-04-12T10:12:08.165Z</time></trkpt><trkpt lat="43.6323814" lon="11.2738024"><ele>154.5</ele><time>2026-04-12T10:12:09.165Z</time></trkpt><trkpt lat="43.6322994" lon="11.27363"><ele>154.0</ele><time>2026-04-12T10:12:10.165Z</time></trkpt><trkpt lat="43.6322056" lon="11.2734691"><ele>153.5</ele><time>2026-04-12T10:12:11.165Z</time></trkpt><trkpt lat="43.6321168" lon="11.2733029"><ele>153.0</ele><time>2026-04-12T10:12:12.165Z</time></trkpt><trkpt lat="43.6320425" lon="11.2731078"><ele>153.66666666666666</ele><time>2026-04-12T10:12:13.165Z</time></trkpt><trkpt lat="43.6320107" lon="11.2728963"><ele>154.33333333333331</ele><time>2026-04-12T10:12:14.165Z</time></trkpt><trkpt lat="43.6320197" lon="11.2726792"><ele>155.0</ele><time>2026-04-12T10:12:15.164Z</time></trkpt><trkpt lat="43.6320821" lon="11.2724736"><ele>155.0</ele><time>2026-04-12T10:12:16.164Z</time></trkpt><trkpt lat="43.6321798" lon="11.2722903"><ele>155.0</ele><time>2026-04-12T10:12:17.165Z</time></trkpt><trkpt lat="43.6323033" lon="11.2721044"><ele>155.0</ele><time>2026-04-12T10:12:18.165Z</time></trkpt><trkpt lat="43.6324351" lon="11.2719119"><ele>155.0</ele><time>2026-04-12T10:12:19.164Z</time></trkpt><trkpt lat="43.6325666" lon="11.2717118"><ele>155.0</ele><time>2026-04-12T10:12:20.165Z</time></trkpt><trkpt lat="43.6327038" lon="11.2715121"><ele>155.0</ele><time>2026-04-12T10:12:21.165Z</time></trkpt><trkpt lat="43.6328461" lon="11.2713037"><ele>154.66666666666666</ele><time>2026-04-12T10:12:22.165Z</time></trkpt><trkpt lat="43.6329944" lon="11.271084"><ele>154.33333333333334</ele><time>2026-04-12T10:12:23.165Z</time></trkpt><trkpt lat="43.6331505" lon="11.2708664"><ele>154.0</ele><time>2026-04-12T10:12:24.164Z</time></trkpt><trkpt lat="43.633318" lon="11.2706395"><ele>153.66666666666669</ele><time>2026-04-12T10:12:25.165Z</time></trkpt><trkpt lat="43.6334807" lon="11.2704203"><ele>153.33333333333334</ele><time>2026-04-12T10:12:26.164Z</time></trkpt><trkpt lat="43.6336339" lon="11.2702026"><ele>153.0</ele><time>2026-04-12T10:12:27.164Z</time></trkpt><trkpt lat="43.633779" lon="11.2700054"><ele>153.0</ele><time>2026-04-12T10:12:28.164Z</time></trkpt><trkpt lat="43.63395" lon="11.2698441"><ele>153.0</ele><time>2026-04-12T10:12:29.165Z</time></trkpt><trkpt lat="43.6341332" lon="11.2697303"><ele>153.0</ele><time>2026-04-12T10:12:30.165Z</time></trkpt><trkpt lat="43.6343307" lon="11.2696556"><ele>153.33333333333334</ele><time>2026-04-12T10:12:31.165Z</time></trkpt><trkpt lat="43.634537" lon="11.2695798"><ele>153.66666666666669</ele><time>2026-04-12T10:12:32.165Z</time></trkpt><trkpt lat="43.6347432" lon="11.2694728"><ele>154.0</ele><time>2026-04-12T10:12:33.165Z</time></trkpt><trkpt lat="43.6349375" lon="11.2693196"><ele>154.0</ele><time>2026-04-12T10:12:34.164Z</time></trkpt><trkpt lat="43.6351179" lon="11.2691519"><ele>154.0</ele><time>2026-04-12T10:12:35.165Z</time></trkpt><trkpt lat="43.6352715" lon="11.2689722"><ele>154.0</ele><time>2026-04-12T10:12:36.165Z</time></trkpt><trkpt lat="43.6354004" lon="11.2687736"><ele>153.66666666666669</ele><time>2026-04-12T10:12:37.165Z</time></trkpt><trkpt lat="43.6354897" lon="11.2685519"><ele>153.33333333333334</ele><time>2026-04-12T10:12:38.164Z</time></trkpt><trkpt lat="43.6355557" lon="11.2683291"><ele>153.0</ele><time>2026-04-12T10:12:39.165Z</time></trkpt><trkpt lat="43.6356041" lon="11.268102"><ele>153.0</ele><time>2026-04-12T10:12:40.165Z</time></trkpt><trkpt lat="43.635642" lon="11.2678813"><ele>153.0</ele><time>2026-04-12T10:12:41.165Z</time></trkpt><trkpt lat="43.6356735" lon="11.2676572"><ele>153.0</ele><time>2026-04-12T10:12:42.165Z</time></trkpt><trkpt lat="43.6357025" lon="11.267438"><ele>153.66666666666666</ele><time>2026-04-12T10:12:43.165Z</time></trkpt><trkpt lat="43.6357365" lon="11.2672328"><ele>154.33333333333331</ele><time>2026-04-12T10:12:44.165Z</time></trkpt><trkpt lat="43.6357806" lon="11.2670307"><ele>155.0</ele><time>2026-04-12T10:12:45.164Z</time></trkpt><trkpt lat="43.6358469" lon="11.2668423"><ele>155.0</ele><time>2026-04-12T10:12:46.165Z</time></trkpt><trkpt lat="43.6359382" lon="11.2666719"><ele>155.0</ele><time>2026-04-12T10:12:47.164Z</time></trkpt><trkpt lat="43.6360489" lon="11.2665444"><ele>155.0</ele><time>2026-04-12T10:12:48.165Z</time></trkpt><trkpt lat="43.6361865" lon="11.266427"><ele>155.66666666666666</ele><time>2026-04-12T10:12:49.165Z</time></trkpt><trkpt lat="43.6363438" lon="11.2663303"><ele>156.33333333333334</ele><time>2026-04-12T10:12:50.164Z</time></trkpt><trkpt lat="43.6365203" lon="11.2662413"><ele>157.0</ele><time>2026-04-12T10:12:51.164Z</time></trkpt><trkpt lat="43.6367139" lon="11.2661497"><ele>157.0</ele><time>2026-04-12T10:12:52.164Z</time></trkpt><trkpt lat="43.6369164" lon="11.2660603"><ele>157.0</ele><time>2026-04-12T10:12:53.165Z</time></trkpt><trkpt lat="43.6371218" lon="11.2659721"><ele>157.0</ele><time>2026-04-12T10:12:54.164Z</time></trkpt><trkpt lat="43.6373386" lon="11.2658805"><ele>156.0</ele><time>2026-04-12T10:12:55.164Z</time></trkpt><trkpt lat="43.63756" lon="11.2657891"><ele>155.0</ele><time>2026-04-12T10:12:56.164Z</time></trkpt><trkpt lat="43.6377836" lon="11.2656887"><ele>155.0</ele><time>2026-04-12T10:12:57.164Z</time></trkpt><trkpt lat="43.638004" lon="11.2655823"><ele>155.0</ele><time>2026-04-12T10:12:58.165Z</time></trkpt><trkpt lat="43.6382203" lon="11.2654747"><ele>155.0</ele><time>2026-04-12T10:12:59.165Z</time></trkpt><trkpt lat="43.6384385" lon="11.2653554"><ele>155.0</ele><time>2026-04-12T10:13:00.164Z</time></trkpt><trkpt lat="43.638659" lon="11.2652399"><ele>153.5</ele><time>2026-04-12T10:13:01.164Z</time></trkpt><trkpt lat="43.6388857" lon="11.2651218"><ele>152.0</ele><time>2026-04-12T10:13:02.164Z</time></trkpt><trkpt lat="43.6391209" lon="11.2649996"><ele>152.0</ele><time>2026-04-12T10:13:03.165Z</time></trkpt><trkpt lat="43.6393475" lon="11.2648823"><ele>152.0</ele><time>2026-04-12T10:13:04.165Z</time></trkpt><trkpt lat="43.6395818" lon="11.2647505"><ele>153.0</ele><time>2026-04-12T10:13:05.165Z</time></trkpt><trkpt lat="43.6398145" lon="11.2646211"><ele>154.0</ele><time>2026-04-12T10:13:06.164Z</time></trkpt><trkpt lat="43.6400442" lon="11.264501"><ele>154.0</ele><time>2026-04-12T10:13:07.165Z</time></trkpt><trkpt lat="43.6402651" lon="11.2643846"><ele>154.0</ele><time>2026-04-12T10:13:08.165Z</time></trkpt><trkpt lat="43.6404673" lon="11.2642837"><ele>152.66666666666669</ele><time>2026-04-12T10:13:09.165Z</time></trkpt><trkpt lat="43.6406621" lon="11.2641986"><ele>151.33333333333334</ele><time>2026-04-12T10:13:10.165Z</time></trkpt><trkpt lat="43.640852" lon="11.2641449"><ele>150.0</ele><time>2026-04-12T10:13:11.165Z</time></trkpt><trkpt lat="43.6410502" lon="11.2641317"><ele>150.66666666666666</ele><time>2026-04-12T10:13:12.165Z</time></trkpt><trkpt lat="43.6412527" lon="11.2641572"><ele>151.33333333333331</ele><time>2026-04-12T10:13:13.165Z</time></trkpt><trkpt lat="43.6414494" lon="11.2642199"><ele>152.0</ele><time>2026-04-12T10:13:14.165Z</time></trkpt><trkpt lat="43.641646" lon="11.2643188"><ele>152.0</ele><time>2026-04-12T10:13:15.164Z</time></trkpt><trkpt lat="43.641842" lon="11.2644589"><ele>152.0</ele><time>2026-04-12T10:13:16.165Z</time></trkpt><trkpt lat="43.6420354" lon="11.2646155"><ele>152.0</ele><time>2026-04-12T10:13:17.165Z</time></trkpt><trkpt lat="43.6422304" lon="11.2647851"><ele>151.5</ele><time>2026-04-12T10:13:18.164Z</time></trkpt><trkpt lat="43.6424259" lon="11.2649627"><ele>151.0</ele><time>2026-04-12T10:13:19.165Z</time></trkpt><trkpt lat="43.6426201" lon="11.2651435"><ele>150.0</ele><time>2026-04-12T10:13:20.165Z</time></trkpt><trkpt lat="43.6428084" lon="11.2653248"><ele>149.0</ele><time>2026-04-12T10:13:21.165Z</time></trkpt><trkpt lat="43.6429876" lon="11.2654951"><ele>148.0</ele><time>2026-04-12T10:13:22.164Z</time></trkpt><trkpt lat="43.6431639" lon="11.2656392"><ele>148.0</ele><time>2026-04-12T10:13:23.165Z</time></trkpt><trkpt lat="43.6433374" lon="11.2657606"><ele>148.0</ele><time>2026-04-12T10:13:24.164Z</time></trkpt><trkpt lat="43.6435249" lon="11.2658524"><ele>148.0</ele><time>2026-04-12T10:13:25.164Z</time></trkpt><trkpt lat="43.6437227" lon="11.265915"><ele>147.66666666666669</ele><time>2026-04-12T10:13:26.165Z</time></trkpt><trkpt lat="43.6439354" lon="11.2659394"><ele>147.33333333333334</ele><time>2026-04-12T10:13:27.164Z</time></trkpt><trkpt lat="43.6441437" lon="11.2659106"><ele>147.0</ele><time>2026-04-12T10:13:28.165Z</time></trkpt><trkpt lat="43.6443521" lon="11.26583"><ele>146.33333333333334</ele><time>2026-04-12T10:13:29.165Z</time></trkpt><trkpt lat="43.6445544" lon="11.2657172"><ele>145.66666666666669</ele><time>2026-04-12T10:13:30.165Z</time></trkpt><trkpt lat="43.6447653" lon="11.2655939"><ele>145.0</ele><time>2026-04-12T10:13:31.165Z</time></trkpt><trkpt lat="43.6449768" lon="11.265471"><ele>145.0</ele><time>2026-04-12T10:13:32.165Z</time></trkpt><trkpt lat="43.6451945" lon="11.265332"><ele>145.0</ele><time>2026-04-12T10:13:33.165Z</time></trkpt><trkpt lat="43.6454098" lon="11.2652008"><ele>146.0</ele><time>2026-04-12T10:13:34.165Z</time></trkpt><trkpt lat="43.6456345" lon="11.2650655"><ele>147.0</ele><time>2026-04-12T10:13:35.164Z</time></trkpt><trkpt lat="43.6458571" lon="11.264934"><ele>147.0</ele><time>2026-04-12T10:13:36.165Z</time></trkpt><trkpt lat="43.6460785" lon="11.2648084"><ele>147.0</ele><time>2026-04-12T10:13:37.165Z</time></trkpt><trkpt lat="43.6463031" lon="11.2646819"><ele>146.0</ele><time>2026-04-12T10:13:38.164Z</time></trkpt><trkpt lat="43.6465097" lon="11.2645663"><ele>145.0</ele><time>2026-04-12T10:13:39.165Z</time></trkpt><trkpt lat="43.6467" lon="11.2644538"><ele>144.0</ele><time>2026-04-12T10:13:40.165Z</time></trkpt><trkpt lat="43.6468827" lon="11.2643448"><ele>145.0</ele><time>2026-04-12T10:13:41.165Z</time></trkpt><trkpt lat="43.6470569" lon="11.2642341"><ele>146.0</ele><time>2026-04-12T10:13:42.164Z</time></trkpt><trkpt lat="43.6472231" lon="11.2641267"><ele>147.0</ele><time>2026-04-12T10:13:43.165Z</time></trkpt><trkpt lat="43.6473871" lon="11.2640148"><ele>145.66666666666666</ele><time>2026-04-12T10:13:44.165Z</time></trkpt><trkpt lat="43.6475412" lon="11.2638966"><ele>144.33333333333331</ele><time>2026-04-12T10:13:45.165Z</time></trkpt><trkpt lat="43.6476872" lon="11.2637557"><ele>143.0</ele><time>2026-04-12T10:13:46.165Z</time></trkpt><trkpt lat="43.6478297" lon="11.2636035"><ele>143.0</ele><time>2026-04-12T10:13:47.164Z</time></trkpt><trkpt lat="43.6479521" lon="11.2634349"><ele>143.0</ele><time>2026-04-12T10:13:48.165Z</time></trkpt><trkpt lat="43.6480583" lon="11.2632517"><ele>143.0</ele><time>2026-04-12T10:13:49.165Z</time></trkpt><trkpt lat="43.6481474" lon="11.2630683"><ele>142.33333333333331</ele><time>2026-04-12T10:13:50.164Z</time></trkpt><trkpt lat="43.6482178" lon="11.2628743"><ele>141.66666666666666</ele><time>2026-04-12T10:13:51.165Z</time></trkpt><trkpt lat="43.6482695" lon="11.2626696"><ele>141.0</ele><time>2026-04-12T10:13:52.165Z</time></trkpt><trkpt lat="43.6483109" lon="11.2624508"><ele>141.33333333333334</ele><time>2026-04-12T10:13:53.165Z</time></trkpt><trkpt lat="43.648331" lon="11.2622316"><ele>141.66666666666669</ele><time>2026-04-12T10:13:54.165Z</time></trkpt><trkpt lat="43.6483321" lon="11.262004"><ele>142.0</ele><time>2026-04-12T10:13:55.165Z</time></trkpt><trkpt lat="43.6483156" lon="11.26176"><ele>142.0</ele><time>2026-04-12T10:13:56.165Z</time></trkpt><trkpt lat="43.6482999" lon="11.2615054"><ele>142.0</ele><time>2026-04-12T10:13:57.165Z</time></trkpt><trkpt lat="43.6482792" lon="11.2612362"><ele>142.0</ele><time>2026-04-12T10:13:58.164Z</time></trkpt><trkpt lat="43.6482604" lon="11.2609674"><ele>142.0</ele><time>2026-04-12T10:13:59.164Z</time></trkpt><trkpt lat="43.6482419" lon="11.260726"><ele>142.0</ele><time>2026-04-12T10:14:00.165Z</time></trkpt><trkpt lat="43.6482253" lon="11.2605024"><ele>142.0</ele><time>2026-04-12T10:14:01.164Z</time></trkpt><trkpt lat="43.6482237" lon="11.2602949"><ele>141.75</ele><time>2026-04-12T10:14:02.165Z</time></trkpt><trkpt lat="43.648248" lon="11.2600976"><ele>141.5</ele><time>2026-04-12T10:14:03.165Z</time></trkpt><trkpt lat="43.6483045" lon="11.2599189"><ele>141.25</ele><time>2026-04-12T10:14:04.165Z</time></trkpt><trkpt lat="43.6483977" lon="11.2597567"><ele>141.0</ele><time>2026-04-12T10:14:05.165Z</time></trkpt><trkpt lat="43.6485246" lon="11.2596308"><ele>140.33333333333334</ele><time>2026-04-12T10:14:06.165Z</time></trkpt><trkpt lat="43.6486709" lon="11.25956"><ele>139.66666666666669</ele><time>2026-04-12T10:14:07.165Z</time></trkpt><trkpt lat="43.6488245" lon="11.2595358"><ele>139.0</ele><time>2026-04-12T10:14:08.165Z</time></trkpt><trkpt lat="43.6489919" lon="11.2595531"><ele>139.0</ele><time>2026-04-12T10:14:09.165Z</time></trkpt><trkpt lat="43.649173" lon="11.2595638"><ele>139.0</ele><time>2026-04-12T10:14:10.165Z</time></trkpt><trkpt lat="43.6493593" lon="11.2595794"><ele>139.0</ele><time>2026-04-12T10:14:11.164Z</time></trkpt><trkpt lat="43.6495368" lon="11.2595923"><ele>138.66666666666669</ele><time>2026-04-12T10:14:12.164Z</time></trkpt><trkpt lat="43.6497122" lon="11.2595956"><ele>138.33333333333334</ele><time>2026-04-12T10:14:13.165Z</time></trkpt><trkpt lat="43.6498654" lon="11.2596067"><ele>138.0</ele><time>2026-04-12T10:14:14.165Z</time></trkpt><trkpt lat="43.650013" lon="11.2595702"><ele>138.0</ele><time>2026-04-12T10:14:15.164Z</time></trkpt><trkpt lat="43.650162" lon="11.259482"><ele>138.0</ele><time>2026-04-12T10:14:16.165Z</time></trkpt><trkpt lat="43.6503051" lon="11.2593433"><ele>138.0</ele><time>2026-04-12T10:14:17.165Z</time></trkpt><trkpt lat="43.6504446" lon="11.259179"><ele>137.66666666666666</ele><time>2026-04-12T10:14:18.165Z</time></trkpt><trkpt lat="43.6505942" lon="11.2590143"><ele>137.33333333333331</ele><time>2026-04-12T10:14:19.165Z</time></trkpt><trkpt lat="43.6507585" lon="11.2588577"><ele>137.0</ele><time>2026-04-12T10:14:20.165Z</time></trkpt><trkpt lat="43.6509231" lon="11.2587268"><ele>136.66666666666666</ele><time>2026-04-12T10:14:21.165Z</time></trkpt><trkpt lat="43.6510956" lon="11.2586405"><ele>136.33333333333334</ele><time>2026-04-12T10:14:22.165Z</time></trkpt><trkpt lat="43.651282" lon="11.2585976"><ele>136.0</ele><time>2026-04-12T10:14:23.165Z</time></trkpt><trkpt lat="43.6514797" lon="11.2585912"><ele>135.33333333333334</ele><time>2026-04-12T10:14:24.165Z</time></trkpt><trkpt lat="43.651687" lon="11.2586086"><ele>134.66666666666666</ele><time>2026-04-12T10:14:25.165Z</time></trkpt><trkpt lat="43.6518907" lon="11.258611"><ele>134.0</ele><time>2026-04-12T10:14:26.165Z</time></trkpt><trkpt lat="43.6520873" lon="11.2586165"><ele>134.0</ele><time>2026-04-12T10:14:27.165Z</time></trkpt><trkpt lat="43.6522829" lon="11.2586318"><ele>134.0</ele><time>2026-04-12T10:14:28.165Z</time></trkpt><trkpt lat="43.6524667" lon="11.2586481"><ele>134.0</ele><time>2026-04-12T10:14:29.165Z</time></trkpt><trkpt lat="43.6526373" lon="11.2586663"><ele>134.25</ele><time>2026-04-12T10:14:30.165Z</time></trkpt><trkpt lat="43.6527907" lon="11.2586799"><ele>134.5</ele><time>2026-04-12T10:14:31.165Z</time></trkpt><trkpt lat="43.6529176" lon="11.258687"><ele>134.75</ele><time>2026-04-12T10:14:32.165Z</time></trkpt><trkpt lat="43.6530357" lon="11.2586971"><ele>135.0</ele><time>2026-04-12T10:14:33.164Z</time></trkpt><trkpt lat="43.6531479" lon="11.2587065"><ele>135.0</ele><time>2026-04-12T10:14:34.165Z</time></trkpt><trkpt lat="43.6532691" lon="11.2586968"><ele>135.0</ele><time>2026-04-12T10:14:35.165Z</time></trkpt><trkpt lat="43.6534021" lon="11.258658"><ele>135.0</ele><time>2026-04-12T10:14:36.165Z</time></trkpt><trkpt lat="43.6535434" lon="11.2585998"><ele>135.0</ele><time>2026-04-12T10:14:37.164Z</time></trkpt><trkpt lat="43.6536898" lon="11.2585356"><ele>136.0</ele><time>2026-04-12T10:14:38.164Z</time></trkpt><trkpt lat="43.6538493" lon="11.258457"><ele>137.0</ele><time>2026-04-12T10:14:39.165Z</time></trkpt><trkpt lat="43.654008" lon="11.2583789"><ele>138.0</ele><time>2026-04-12T10:14:40.165Z</time></trkpt><trkpt lat="43.6541624" lon="11.2583077"><ele>138.0</ele><time>2026-04-12T10:14:41.164Z</time></trkpt><trkpt lat="43.6543051" lon="11.2582576"><ele>138.0</ele><time>2026-04-12T10:14:42.165Z</time></trkpt><trkpt lat="43.6544551" lon="11.2582263"><ele>138.0</ele><time>2026-04-12T10:14:43.164Z</time></trkpt><trkpt lat="43.6546071" lon="11.2582117"><ele>138.0</ele><time>2026-04-12T10:14:44.165Z</time></trkpt><trkpt lat="43.65475" lon="11.2582085"><ele>138.0</ele><time>2026-04-12T10:14:45.165Z</time></trkpt><trkpt lat="43.6548912" lon="11.2581836"><ele>138.0</ele><time>2026-04-12T10:14:46.165Z</time></trkpt><trkpt lat="43.6550216" lon="11.2581357"><ele>138.0</ele><time>2026-04-12T10:14:47.164Z</time></trkpt><trkpt lat="43.6551479" lon="11.2580571"><ele>137.5</ele><time>2026-04-12T10:14:48.165Z</time></trkpt><trkpt lat="43.6552742" lon="11.2579745"><ele>137.0</ele><time>2026-04-12T10:14:49.164Z</time></trkpt><trkpt lat="43.6553988" lon="11.2579239"><ele>136.5</ele><time>2026-04-12T10:14:50.165Z</time></trkpt><trkpt lat="43.6555208" lon="11.2579032"><ele>136.0</ele><time>2026-04-12T10:14:51.165Z</time></trkpt><trkpt lat="43.6556517" lon="11.2579078"><ele>135.25</ele><time>2026-04-12T10:14:52.165Z</time></trkpt><trkpt lat="43.6557876" lon="11.2579247"><ele>134.5</ele><time>2026-04-12T10:14:53.165Z</time></trkpt><trkpt lat="43.6559321" lon="11.2579466"><ele>133.75</ele><time>2026-04-12T10:14:54.165Z</time></trkpt><trkpt lat="43.6560763" lon="11.257968"><ele>133.0</ele><time>2026-04-12T10:14:55.165Z</time></trkpt><trkpt lat="43.6562112" lon="11.2579918"><ele>132.5</ele><time>2026-04-12T10:14:56.165Z</time></trkpt><trkpt lat="43.6563366" lon="11.2580186"><ele>132.0</ele><time>2026-04-12T10:14:57.165Z</time></trkpt><trkpt lat="43.6564557" lon="11.2580579"><ele>131.5</ele><time>2026-04-12T10:14:58.165Z</time></trkpt><trkpt lat="43.6565801" lon="11.2581043"><ele>131.0</ele><time>2026-04-12T10:14:59.165Z</time></trkpt><trkpt lat="43.6567094" lon="11.2581614"><ele>131.0</ele><time>2026-04-12T10:15:00.165Z</time></trkpt><trkpt lat="43.6568295" lon="11.2582276"><ele>131.0</ele><time>2026-04-12T10:15:01.165Z</time></trkpt><trkpt lat="43.6569528" lon="11.2582792"><ele>131.0</ele><time>2026-04-12T10:15:02.165Z</time></trkpt><trkpt lat="43.6570826" lon="11.2583038"><ele>131.0</ele><time>2026-04-12T10:15:03.165Z</time></trkpt><trkpt lat="43.6572178" lon="11.2583102"><ele>131.0</ele><time>2026-04-12T10:15:04.165Z</time></trkpt><trkpt lat="43.6573598" lon="11.2582932"><ele>131.0</ele><time>2026-04-12T10:15:05.164Z</time></trkpt><trkpt lat="43.6575037" lon="11.2582523"><ele>131.0</ele><time>2026-04-12T10:15:06.165Z</time></trkpt><trkpt lat="43.6576407" lon="11.2582006"><ele>131.0</ele><time>2026-04-12T10:15:07.164Z</time></trkpt><trkpt lat="43.6577818" lon="11.2581437"><ele>131.25</ele><time>2026-04-12T10:15:08.165Z</time></trkpt><trkpt lat="43.6579149" lon="11.258075"><ele>131.5</ele><time>2026-04-12T10:15:09.165Z</time></trkpt><trkpt lat="43.6580392" lon="11.2579913"><ele>131.75</ele><time>2026-04-12T10:15:10.165Z</time></trkpt><trkpt lat="43.6581646" lon="11.2578938"><ele>132.0</ele><time>2026-04-12T10:15:11.165Z</time></trkpt><trkpt lat="43.6582784" lon="11.257777"><ele>132.0</ele><time>2026-04-12T10:15:12.164Z</time></trkpt><trkpt lat="43.6583895" lon="11.2576442"><ele>132.0</ele><time>2026-04-12T10:15:13.165Z</time></trkpt><trkpt lat="43.6585042" lon="11.2575077"><ele>132.0</ele><time>2026-04-12T10:15:14.165Z</time></trkpt><trkpt lat="43.6586129" lon="11.2573756"><ele>132.0</ele><time>2026-04-12T10:15:15.165Z</time></trkpt><trkpt lat="43.6587171" lon="11.2572418"><ele>132.25</ele><time>2026-04-12T10:15:16.165Z</time></trkpt><trkpt lat="43.6588165" lon="11.2571014"><ele>132.5</ele><time>2026-04-12T10:15:17.164Z</time></trkpt><trkpt lat="43.6589036" lon="11.2569459"><ele>132.75</ele><time>2026-04-12T10:15:18.164Z</time></trkpt><trkpt lat="43.6589725" lon="11.2567687"><ele>133.0</ele><time>2026-04-12T10:15:19.164Z</time></trkpt><trkpt lat="43.6590085" lon="11.2565629"><ele>134.0</ele><time>2026-04-12T10:15:20.164Z</time></trkpt><trkpt lat="43.6590209" lon="11.2563327"><ele>135.0</ele><time>2026-04-12T10:15:21.165Z</time></trkpt><trkpt lat="43.6590213" lon="11.2560779"><ele>136.0</ele><time>2026-04-12T10:15:22.165Z</time></trkpt><trkpt lat="43.6590151" lon="11.2558139"><ele>135.66666666666669</ele><time>2026-04-12T10:15:23.165Z</time></trkpt><trkpt lat="43.6590033" lon="11.2555341"><ele>135.33333333333334</ele><time>2026-04-12T10:15:24.165Z</time></trkpt><trkpt lat="43.6589921" lon="11.2552513"><ele>135.0</ele><time>2026-04-12T10:15:25.164Z</time></trkpt><trkpt lat="43.6589808" lon="11.2549645"><ele>134.0</ele><time>2026-04-12T10:15:26.165Z</time></trkpt><trkpt lat="43.6589653" lon="11.2546749"><ele>133.0</ele><time>2026-04-12T10:15:27.165Z</time></trkpt><trkpt lat="43.6589535" lon="11.2543743"><ele>132.0</ele><time>2026-04-12T10:15:28.164Z</time></trkpt><trkpt lat="43.6589355" lon="11.2540629"><ele>132.0</ele><time>2026-04-12T10:15:29.164Z</time></trkpt><trkpt lat="43.6589174" lon="11.253749"><ele>132.0</ele><time>2026-04-12T10:15:30.165Z</time></trkpt><trkpt lat="43.6588981" lon="11.2534313"><ele>133.0</ele><time>2026-04-12T10:15:31.165Z</time></trkpt><trkpt lat="43.6588787" lon="11.2531044"><ele>134.0</ele><time>2026-04-12T10:15:32.164Z</time></trkpt><trkpt lat="43.6588542" lon="11.2527748"><ele>134.0</ele><time>2026-04-12T10:15:33.164Z</time></trkpt><trkpt lat="43.6588325" lon="11.2524446"><ele>134.0</ele><time>2026-04-12T10:15:34.164Z</time></trkpt><trkpt lat="43.6588141" lon="11.2521176"><ele>133.5</ele><time>2026-04-12T10:15:35.164Z</time></trkpt><trkpt lat="43.658795" lon="11.2517902"><ele>133.0</ele><time>2026-04-12T10:15:36.164Z</time></trkpt><trkpt lat="43.6587779" lon="11.2514601"><ele>132.5</ele><time>2026-04-12T10:15:37.165Z</time></trkpt><trkpt lat="43.6587605" lon="11.2511294"><ele>132.0</ele><time>2026-04-12T10:15:38.165Z</time></trkpt><trkpt lat="43.6587407" lon="11.2508068"><ele>131.5</ele><time>2026-04-12T10:15:39.165Z</time></trkpt><trkpt lat="43.6587223" lon="11.2504968"><ele>131.0</ele><time>2026-04-12T10:15:40.165Z</time></trkpt><trkpt lat="43.6587106" lon="11.250183"><ele>131.0</ele><time>2026-04-12T10:15:41.164Z</time></trkpt><trkpt lat="43.6587105" lon="11.2498676"><ele>131.0</ele><time>2026-04-12T10:15:42.165Z</time></trkpt><trkpt lat="43.658717" lon="11.2495507"><ele>131.0</ele><time>2026-04-12T10:15:43.164Z</time></trkpt><trkpt lat="43.6587363" lon="11.249229"><ele>131.0</ele><time>2026-04-12T10:15:44.165Z</time></trkpt><trkpt lat="43.6587541" lon="11.2488995"><ele>132.5</ele><time>2026-04-12T10:15:45.165Z</time></trkpt><trkpt lat="43.6587703" lon="11.248569"><ele>134.0</ele><time>2026-04-12T10:15:46.165Z</time></trkpt><trkpt lat="43.6587862" lon="11.2482385"><ele>132.5</ele><time>2026-04-12T10:15:47.165Z</time></trkpt><trkpt lat="43.6588058" lon="11.2479029"><ele>131.0</ele><time>2026-04-12T10:15:48.164Z</time></trkpt><trkpt lat="43.6588246" lon="11.2475635"><ele>131.0</ele><time>2026-04-12T10:15:49.165Z</time></trkpt><trkpt lat="43.6588496" lon="11.2472234"><ele>131.0</ele><time>2026-04-12T10:15:50.164Z</time></trkpt><trkpt lat="43.6588625" lon="11.2468809"><ele>131.0</ele><time>2026-04-12T10:15:51.164Z</time></trkpt><trkpt lat="43.6588831" lon="11.2465463"><ele>131.0</ele><time>2026-04-12T10:15:52.165Z</time></trkpt><trkpt lat="43.6588975" lon="11.246209"><ele>131.33333333333331</ele><time>2026-04-12T10:15:53.165Z</time></trkpt><trkpt lat="43.6589156" lon="11.2458932"><ele>131.66666666666666</ele><time>2026-04-12T10:15:54.165Z</time></trkpt><trkpt lat="43.6589277" lon="11.2455996"><ele>132.0</ele><time>2026-04-12T10:15:55.165Z</time></trkpt><trkpt lat="43.6589345" lon="11.2453068"><ele>132.33333333333334</ele><time>2026-04-12T10:15:56.165Z</time></trkpt><trkpt lat="43.6589064" lon="11.2450302"><ele>132.66666666666669</ele><time>2026-04-12T10:15:57.164Z</time></trkpt><trkpt lat="43.6588543" lon="11.2447585"><ele>133.0</ele><time>2026-04-12T10:15:58.165Z</time></trkpt><trkpt lat="43.6587893" lon="11.2444791"><ele>133.0</ele><time>2026-04-12T10:15:59.164Z</time></trkpt><trkpt lat="43.6586981" lon="11.2442031"><ele>133.0</ele><time>2026-04-12T10:16:00.164Z</time></trkpt><trkpt lat="43.6585999" lon="11.2439281"><ele>133.0</ele><time>2026-04-12T10:16:01.164Z</time></trkpt><trkpt lat="43.6585006" lon="11.2436479"><ele>131.0</ele><time>2026-04-12T10:16:02.165Z</time></trkpt><trkpt lat="43.6584156" lon="11.2433754"><ele>129.0</ele><time>2026-04-12T10:16:03.165Z</time></trkpt><trkpt lat="43.6583368" lon="11.2431113"><ele>127.0</ele><time>2026-04-12T10:16:04.165Z</time></trkpt><trkpt lat="43.6582823" lon="11.2428452"><ele>127.0</ele><time>2026-04-12T10:16:05.165Z</time></trkpt><trkpt lat="43.6582558" lon="11.2425737"><ele>127.0</ele><time>2026-04-12T10:16:06.165Z</time></trkpt><trkpt lat="43.6582645" lon="11.2423124"><ele>127.0</ele><time>2026-04-12T10:16:07.164Z</time></trkpt><trkpt lat="43.6583036" lon="11.2420692"><ele>126.33333333333334</ele><time>2026-04-12T10:16:08.165Z</time></trkpt><trkpt lat="43.658387" lon="11.2418345"><ele>125.66666666666666</ele><time>2026-04-12T10:16:09.165Z</time></trkpt><trkpt lat="43.6585087" lon="11.241622"><ele>125.0</ele><time>2026-04-12T10:16:10.164Z</time></trkpt><trkpt lat="43.6586605" lon="11.2414323"><ele>124.0</ele><time>2026-04-12T10:16:11.165Z</time></trkpt><trkpt lat="43.6588331" lon="11.2412634"><ele>123.0</ele><time>2026-04-12T10:16:12.165Z</time></trkpt><trkpt lat="43.6590276" lon="11.2411251"><ele>122.0</ele><time>2026-04-12T10:16:13.165Z</time></trkpt><trkpt lat="43.6592397" lon="11.2410119"><ele>123.5</ele><time>2026-04-12T10:16:14.165Z</time></trkpt><trkpt lat="43.6594624" lon="11.2409266"><ele>125.0</ele><time>2026-04-12T10:16:15.165Z</time></trkpt><trkpt lat="43.659693" lon="11.2408649"><ele>125.0</ele><time>2026-04-12T10:16:16.164Z</time></trkpt><trkpt lat="43.6599363" lon="11.2408013"><ele>125.0</ele><time>2026-04-12T10:16:17.165Z</time></trkpt><trkpt lat="43.6601709" lon="11.2407394"><ele>124.0</ele><time>2026-04-12T10:16:18.165Z</time></trkpt><trkpt lat="43.6604048" lon="11.2406834"><ele>123.0</ele><time>2026-04-12T10:16:19.165Z</time></trkpt><trkpt lat="43.6606402" lon="11.2406238"><ele>123.0</ele><time>2026-04-12T10:16:20.165Z</time></trkpt><trkpt lat="43.6608809" lon="11.240553"><ele>123.0</ele><time>2026-04-12T10:16:21.165Z</time></trkpt><trkpt lat="43.6611129" lon="11.2404897"><ele>122.5</ele><time>2026-04-12T10:16:22.164Z</time></trkpt><trkpt lat="43.6613447" lon="11.240432"><ele>122.0</ele><time>2026-04-12T10:16:23.165Z</time></trkpt><trkpt lat="43.661572" lon="11.2403744"><ele>122.0</ele><time>2026-04-12T10:16:24.164Z</time></trkpt><trkpt lat="43.6617908" lon="11.2403229"><ele>122.0</ele><time>2026-04-12T10:16:25.165Z</time></trkpt><trkpt lat="43.6620031" lon="11.2402791"><ele>122.0</ele><time>2026-04-12T10:16:26.164Z</time></trkpt><trkpt lat="43.6622157" lon="11.2402343"><ele>122.66666666666666</ele><time>2026-04-12T10:16:27.164Z</time></trkpt><trkpt lat="43.6624371" lon="11.2401991"><ele>123.33333333333334</ele><time>2026-04-12T10:16:28.165Z</time></trkpt><trkpt lat="43.6626598" lon="11.2401814"><ele>124.0</ele><time>2026-04-12T10:16:29.165Z</time></trkpt><trkpt lat="43.6628897" lon="11.2401923"><ele>124.0</ele><time>2026-04-12T10:16:30.164Z</time></trkpt><trkpt lat="43.663122" lon="11.2402192"><ele>124.0</ele><time>2026-04-12T10:16:31.165Z</time></trkpt><trkpt lat="43.6633507" lon="11.2402634"><ele>124.0</ele><time>2026-04-12T10:16:32.164Z</time></trkpt><trkpt lat="43.6635612" lon="11.2403343"><ele>124.0</ele><time>2026-04-12T10:16:33.165Z</time></trkpt><trkpt lat="43.6637498" lon="11.2404183"><ele>124.0</ele><time>2026-04-12T10:16:34.165Z</time></trkpt><trkpt lat="43.6639124" lon="11.2404964"><ele>123.25</ele><time>2026-04-12T10:16:35.165Z</time></trkpt><trkpt lat="43.6640573" lon="11.2405507"><ele>122.5</ele><time>2026-04-12T10:16:36.165Z</time></trkpt><trkpt lat="43.6641911" lon="11.2405688"><ele>121.75</ele><time>2026-04-12T10:16:37.165Z</time></trkpt><trkpt lat="43.6643148" lon="11.2405557"><ele>121.0</ele><time>2026-04-12T10:16:38.165Z</time></trkpt><trkpt lat="43.6644395" lon="11.2404995"><ele>123.25</ele><time>2026-04-12T10:16:39.165Z</time></trkpt><trkpt lat="43.6645459" lon="11.2404124"><ele>125.5</ele><time>2026-04-12T10:16:40.165Z</time></trkpt><trkpt lat="43.6646367" lon="11.2402921"><ele>127.75</ele><time>2026-04-12T10:16:41.165Z</time></trkpt><trkpt lat="43.6647103" lon="11.2401448"><ele>130.0</ele><time>2026-04-12T10:16:42.165Z</time></trkpt><trkpt lat="43.6647734" lon="11.2399873"><ele>130.0</ele><time>2026-04-12T10:16:43.165Z</time></trkpt><trkpt lat="43.6648219" lon="11.239811"><ele>130.0</ele><time>2026-04-12T10:16:44.164Z</time></trkpt><trkpt lat="43.6648693" lon="11.2396226"><ele>130.0</ele><time>2026-04-12T10:16:45.165Z</time></trkpt><trkpt lat="43.6649139" lon="11.2394314"><ele>130.0</ele><time>2026-04-12T10:16:46.164Z</time></trkpt><trkpt lat="43.6649662" lon="11.2392301"><ele>128.33333333333334</ele><time>2026-04-12T10:16:47.165Z</time></trkpt><trkpt lat="43.6650161" lon="11.2390125"><ele>126.66666666666666</ele><time>2026-04-12T10:16:48.165Z</time></trkpt><trkpt lat="43.6650686" lon="11.2387829"><ele>125.0</ele><time>2026-04-12T10:16:49.165Z</time></trkpt><trkpt lat="43.6651265" lon="11.2385378"><ele>123.66666666666666</ele><time>2026-04-12T10:16:50.165Z</time></trkpt><trkpt lat="43.6651931" lon="11.2382779"><ele>122.33333333333334</ele><time>2026-04-12T10:16:51.165Z</time></trkpt><trkpt lat="43.6652646" lon="11.2380093"><ele>121.0</ele><time>2026-04-12T10:16:52.165Z</time></trkpt><trkpt lat="43.6653433" lon="11.2377391"><ele>125.0</ele><time>2026-04-12T10:16:53.165Z</time></trkpt><trkpt lat="43.6654311" lon="11.2374614"><ele>129.0</ele><time>2026-04-12T10:16:54.164Z</time></trkpt><trkpt lat="43.6655067" lon="11.237185"><ele>133.0</ele><time>2026-04-12T10:16:55.164Z</time></trkpt><trkpt lat="43.665589" lon="11.2369013"><ele>133.0</ele><time>2026-04-12T10:16:56.164Z</time></trkpt><trkpt lat="43.6656658" lon="11.2366097"><ele>133.0</ele><time>2026-04-12T10:16:57.165Z</time></trkpt><trkpt lat="43.665746" lon="11.2363066"><ele>131.0</ele><time>2026-04-12T10:16:58.165Z</time></trkpt><trkpt lat="43.6658222" lon="11.2359971"><ele>129.0</ele><time>2026-04-12T10:16:59.165Z</time></trkpt><trkpt lat="43.6659029" lon="11.2356896"><ele>125.5</ele><time>2026-04-12T10:17:00.165Z</time></trkpt><trkpt lat="43.6659866" lon="11.2353738"><ele>122.0</ele><time>2026-04-12T10:17:01.164Z</time></trkpt><trkpt lat="43.6660688" lon="11.2350534"><ele>128.5</ele><time>2026-04-12T10:17:02.165Z</time></trkpt><trkpt lat="43.6661558" lon="11.2347286"><ele>135.0</ele><time>2026-04-12T10:17:03.164Z</time></trkpt><trkpt lat="43.6662461" lon="11.2343987"><ele>135.0</ele><time>2026-04-12T10:17:04.165Z</time></trkpt><trkpt lat="43.6663333" lon="11.2340759"><ele>135.0</ele><time>2026-04-12T10:17:05.165Z</time></trkpt><trkpt lat="43.6664117" lon="11.2337609"><ele>131.5</ele><time>2026-04-12T10:17:06.165Z</time></trkpt><trkpt lat="43.6664722" lon="11.2334356"><ele>128.0</ele><time>2026-04-12T10:17:07.165Z</time></trkpt><trkpt lat="43.6664951" lon="11.2330982"><ele>125.0</ele><time>2026-04-12T10:17:08.165Z</time></trkpt><trkpt lat="43.666494" lon="11.2327635"><ele>122.0</ele><time>2026-04-12T10:17:09.165Z</time></trkpt><trkpt lat="43.6664933" lon="11.2324198"><ele>124.0</ele><time>2026-04-12T10:17:10.164Z</time></trkpt><trkpt lat="43.6664861" lon="11.2320747"><ele>126.0</ele><time>2026-04-12T10:17:11.164Z</time></trkpt><trkpt lat="43.6664726" lon="11.2317284"><ele>128.0</ele><time>2026-04-12T10:17:12.165Z</time></trkpt><trkpt lat="43.6664649" lon="11.2313848"><ele>130.0</ele><time>2026-04-12T10:17:13.164Z</time></trkpt><trkpt lat="43.6664582" lon="11.2310384"><ele>130.0</ele><time>2026-04-12T10:17:14.164Z</time></trkpt><trkpt lat="43.666447" lon="11.2306889"><ele>130.0</ele><time>2026-04-12T10:17:15.165Z</time></trkpt><trkpt lat="43.6664361" lon="11.2303402"><ele>130.0</ele><time>2026-04-12T10:17:16.165Z</time></trkpt><trkpt lat="43.6664275" lon="11.2299993"><ele>130.0</ele><time>2026-04-12T10:17:17.165Z</time></trkpt><trkpt lat="43.6664179" lon="11.2296603"><ele>128.0</ele><time>2026-04-12T10:17:18.165Z</time></trkpt><trkpt lat="43.6664105" lon="11.2293284"><ele>126.0</ele><time>2026-04-12T10:17:19.164Z</time></trkpt><trkpt lat="43.6664105" lon="11.2290089"><ele>125.33333333333334</ele><time>2026-04-12T10:17:20.165Z</time></trkpt><trkpt lat="43.6664224" lon="11.2287049"><ele>124.66666666666667</ele><time>2026-04-12T10:17:21.165Z</time></trkpt><trkpt lat="43.6664504" lon="11.2284071"><ele>124.0</ele><time>2026-04-12T10:17:22.164Z</time></trkpt><trkpt lat="43.6665012" lon="11.2281155"><ele>123.66666666666667</ele><time>2026-04-12T10:17:23.165Z</time></trkpt><trkpt lat="43.6665611" lon="11.2278355"><ele>123.33333333333334</ele><time>2026-04-12T10:17:24.164Z</time></trkpt><trkpt lat="43.6666306" lon="11.2275644"><ele>123.0</ele><time>2026-04-12T10:17:25.164Z</time></trkpt><trkpt lat="43.6666933" lon="11.2272914"><ele>121.33333333333334</ele><time>2026-04-12T10:17:26.165Z</time></trkpt><trkpt lat="43.6667551" lon="11.2270266"><ele>119.66666666666667</ele><time>2026-04-12T10:17:27.165Z</time></trkpt><trkpt lat="43.6668144" lon="11.2267849"><ele>118.0</ele><time>2026-04-12T10:17:28.164Z</time></trkpt><trkpt lat="43.6668495" lon="11.2265545"><ele>118.33333333333334</ele><time>2026-04-12T10:17:29.165Z</time></trkpt><trkpt lat="43.6668545" lon="11.2262929"><ele>118.66666666666666</ele><time>2026-04-12T10:17:30.165Z</time></trkpt><trkpt lat="43.6668377" lon="11.2260303"><ele>119.0</ele><time>2026-04-12T10:17:31.165Z</time></trkpt><trkpt lat="43.6668147" lon="11.2257562"><ele>119.33333333333333</ele><time>2026-04-12T10:17:32.164Z</time></trkpt><trkpt lat="43.6667843" lon="11.2254746"><ele>119.66666666666666</ele><time>2026-04-12T10:17:33.165Z</time></trkpt><trkpt lat="43.6667628" lon="11.2251914"><ele>120.0</ele><time>2026-04-12T10:17:34.165Z</time></trkpt><trkpt lat="43.6667318" lon="11.2249071"><ele>119.66666666666666</ele><time>2026-04-12T10:17:35.165Z</time></trkpt><trkpt lat="43.6667057" lon="11.2246215"><ele>119.33333333333333</ele><time>2026-04-12T10:17:36.164Z</time></trkpt><trkpt lat="43.6666715" lon="11.2243354"><ele>119.0</ele><time>2026-04-12T10:17:37.165Z</time></trkpt><trkpt lat="43.6666455" lon="11.2240687"><ele>119.0</ele><time>2026-04-12T10:17:38.165Z</time></trkpt><trkpt lat="43.6666232" lon="11.2238124"><ele>119.0</ele><time>2026-04-12T10:17:39.165Z</time></trkpt><trkpt lat="43.6665979" lon="11.2235521"><ele>119.0</ele><time>2026-04-12T10:17:40.164Z</time></trkpt><trkpt lat="43.6665724" lon="11.2233122"><ele>118.66666666666666</ele><time>2026-04-12T10:17:41.165Z</time></trkpt><trkpt lat="43.6665492" lon="11.2230867"><ele>118.33333333333334</ele><time>2026-04-12T10:17:42.165Z</time></trkpt><trkpt lat="43.666522" lon="11.2228683"><ele>118.0</ele><time>2026-04-12T10:17:43.165Z</time></trkpt><trkpt lat="43.6664939" lon="11.2226439"><ele>118.0</ele><time>2026-04-12T10:17:44.164Z</time></trkpt><trkpt lat="43.6664711" lon="11.2224183"><ele>118.0</ele><time>2026-04-12T10:17:45.164Z</time></trkpt><trkpt lat="43.6664471" lon="11.2221853"><ele>118.0</ele><time>2026-04-12T10:17:46.165Z</time></trkpt><trkpt lat="43.666426" lon="11.221942"><ele>118.0</ele><time>2026-04-12T10:17:47.165Z</time></trkpt><trkpt lat="43.6664145" lon="11.2217017"><ele>118.0</ele><time>2026-04-12T10:17:48.165Z</time></trkpt><trkpt lat="43.6664301" lon="11.2214815"><ele>118.0</ele><time>2026-04-12T10:17:49.164Z</time></trkpt><trkpt lat="43.6664578" lon="11.2212663"><ele>118.33333333333334</ele><time>2026-04-12T10:17:50.165Z</time></trkpt><trkpt lat="43.6665043" lon="11.2210552"><ele>118.66666666666666</ele><time>2026-04-12T10:17:51.165Z</time></trkpt><trkpt lat="43.6665583" lon="11.2208369"><ele>119.0</ele><time>2026-04-12T10:17:52.165Z</time></trkpt><trkpt lat="43.6666155" lon="11.2206209"><ele>118.33333333333333</ele><time>2026-04-12T10:17:53.165Z</time></trkpt><trkpt lat="43.6666662" lon="11.2203891"><ele>117.66666666666666</ele><time>2026-04-12T10:17:54.164Z</time></trkpt><trkpt lat="43.666711" lon="11.220148"><ele>117.0</ele><time>2026-04-12T10:17:55.165Z</time></trkpt><trkpt lat="43.6667358" lon="11.21989"><ele>116.66666666666666</ele><time>2026-04-12T10:17:56.165Z</time></trkpt><trkpt lat="43.6667452" lon="11.2196248"><ele>116.33333333333333</ele><time>2026-04-12T10:17:57.165Z</time></trkpt><trkpt lat="43.6667487" lon="11.2193804"><ele>116.0</ele><time>2026-04-12T10:17:58.165Z</time></trkpt><trkpt lat="43.6667539" lon="11.2191559"><ele>116.0</ele><time>2026-04-12T10:17:59.165Z</time></trkpt><trkpt lat="43.6667611" lon="11.218949"><ele>116.0</ele><time>2026-04-12T10:18:00.165Z</time></trkpt><trkpt lat="43.6667659" lon="11.218756"><ele>116.0</ele><time>2026-04-12T10:18:01.165Z</time></trkpt><trkpt lat="43.6667697" lon="11.2185789"><ele>116.0</ele><time>2026-04-12T10:18:02.165Z</time></trkpt><trkpt lat="43.666774" lon="11.2184226"><ele>115.99999999999999</ele><time>2026-04-12T10:18:03.164Z</time></trkpt><trkpt lat="43.6667604" lon="11.2183042"><ele>116.0</ele><time>2026-04-12T10:18:04.165Z</time></trkpt><trkpt lat="43.6667227" lon="11.2182047"><ele>116.0</ele><time>2026-04-12T10:18:05.165Z</time></trkpt><trkpt lat="43.6666604" lon="11.2181265"><ele>116.0</ele><time>2026-04-12T10:18:06.165Z</time></trkpt><trkpt lat="43.6665831" lon="11.2180587"><ele>115.99999999999999</ele><time>2026-04-12T10:18:07.165Z</time></trkpt><trkpt lat="43.6665058" lon="11.2179926"><ele>116.0</ele><time>2026-04-12T10:18:08.165Z</time></trkpt><trkpt lat="43.6664316" lon="11.2179262"><ele>115.33333333333333</ele><time>2026-04-12T10:18:09.165Z</time></trkpt><trkpt lat="43.6663627" lon="11.2178639"><ele>114.66666666666666</ele><time>2026-04-12T10:18:10.165Z</time></trkpt><trkpt lat="43.6662968" lon="11.2178057"><ele>114.0</ele><time>2026-04-12T10:18:11.165Z</time></trkpt><trkpt lat="43.6662346" lon="11.217753"><ele>113.33333333333334</ele><time>2026-04-12T10:18:12.165Z</time></trkpt><trkpt lat="43.6661682" lon="11.2177166"><ele>112.66666666666667</ele><time>2026-04-12T10:18:13.164Z</time></trkpt><trkpt lat="43.6661049" lon="11.2176815"><ele>112.0</ele><time>2026-04-12T10:18:14.165Z</time></trkpt><trkpt lat="43.6659922" lon="11.2176379"><ele>111.6</ele><time>2026-04-12T10:18:16.165Z</time></trkpt><trkpt lat="43.6659011" lon="11.2175864"><ele>111.19999999999999</ele><time>2026-04-12T10:18:18.164Z</time></trkpt><trkpt lat="43.6658132" lon="11.2175478"><ele>110.8</ele><time>2026-04-12T10:18:20.165Z</time></trkpt><trkpt lat="43.6657322" lon="11.2175135"><ele>110.4</ele><time>2026-04-12T10:18:22.165Z</time></trkpt><trkpt lat="43.6656701" lon="11.217485"><ele>110.0</ele><time>2026-04-12T10:18:24.164Z</time></trkpt><trkpt lat="43.6655537" lon="11.2174355"><ele>110.0</ele><time>2026-04-12T10:18:26.165Z</time></trkpt><trkpt lat="43.6654596" lon="11.2174023"><ele>110.0</ele><time>2026-04-12T10:18:27.165Z</time></trkpt><trkpt lat="43.6653543" lon="11.2173641"><ele>110.0</ele><time>2026-04-12T10:18:28.164Z</time></trkpt><trkpt lat="43.665245" lon="11.2173329"><ele>110.0</ele><time>2026-04-12T10:18:29.165Z</time></trkpt><trkpt lat="43.6651363" lon="11.2172974"><ele>110.0</ele><time>2026-04-12T10:18:30.165Z</time></trkpt><trkpt lat="43.665031" lon="11.2172627"><ele>110.83333333333333</ele><time>2026-04-12T10:18:31.165Z</time></trkpt><trkpt lat="43.6649427" lon="11.2172335"><ele>111.66666666666666</ele><time>2026-04-12T10:18:32.164Z</time></trkpt><trkpt lat="43.6648744" lon="11.2171996"><ele>112.5</ele><time>2026-04-12T10:18:33.165Z</time></trkpt><trkpt lat="43.6648283" lon="11.2170957"><ele>113.33333333333334</ele><time>2026-04-12T10:18:35.165Z</time></trkpt><trkpt lat="43.6648405" lon="11.216938"><ele>114.16666666666667</ele><time>2026-04-12T10:18:37.165Z</time></trkpt><trkpt lat="43.6648526" lon="11.2168435"><ele>115.0</ele><time>2026-04-12T10:18:38.164Z</time></trkpt><trkpt lat="43.6648606" lon="11.2167381"><ele>115.00000000000001</ele><time>2026-04-12T10:18:39.165Z</time></trkpt><trkpt lat="43.664856" lon="11.216649"><ele>115.0</ele><time>2026-04-12T10:18:40.165Z</time></trkpt><trkpt lat="43.6648222" lon="11.2164942"><ele>115.0</ele><time>2026-04-12T10:18:42.165Z</time></trkpt><trkpt lat="43.6647863" lon="11.2164218"><ele>115.0</ele><time>2026-04-12T10:18:43.165Z</time></trkpt><trkpt lat="43.6647356" lon="11.2163423"><ele>115.00000000000001</ele><time>2026-04-12T10:18:44.164Z</time></trkpt><trkpt lat="43.6646751" lon="11.216288"><ele>115.0</ele><time>2026-04-12T10:18:45.164Z</time></trkpt><trkpt lat="43.6646126" lon="11.216232"><ele>115.4</ele><time>2026-04-12T10:18:46.165Z</time></trkpt><trkpt lat="43.664508" lon="11.2161295"><ele>115.8</ele><time>2026-04-12T10:18:48.165Z</time></trkpt><trkpt lat="43.6644509" lon="11.2160712"><ele>116.19999999999999</ele><time>2026-04-12T10:18:49.165Z</time></trkpt><trkpt lat="43.6643893" lon="11.2160072"><ele>116.6</ele><time>2026-04-12T10:18:50.165Z</time></trkpt><trkpt lat="43.6643236" lon="11.2159377"><ele>117.0</ele><time>2026-04-12T10:18:51.165Z</time></trkpt><trkpt lat="43.6642467" lon="11.215865"><ele>118.83333333333333</ele><time>2026-04-12T10:18:52.164Z</time></trkpt><trkpt lat="43.6641709" lon="11.2157841"><ele>120.66666666666666</ele><time>2026-04-12T10:18:53.165Z</time></trkpt><trkpt lat="43.6640958" lon="11.2157018"><ele>122.5</ele><time>2026-04-12T10:18:54.165Z</time></trkpt><trkpt lat="43.6640323" lon="11.2156373"><ele>124.33333333333333</ele><time>2026-04-12T10:18:55.165Z</time></trkpt><trkpt lat="43.6639738" lon="11.2155659"><ele>126.16666666666666</ele><time>2026-04-12T10:18:57.164Z</time></trkpt><trkpt lat="43.6639188" lon="11.215506"><ele>128.0</ele><time>2026-04-12T10:19:01.165Z</time></trkpt><trkpt lat="43.6639797" lon="11.2155585"><ele>128.0</ele><time>2026-04-12T10:19:06.165Z</time></trkpt><trkpt lat="43.664093" lon="11.2156834"><ele>128.0</ele><time>2026-04-12T10:19:08.165Z</time></trkpt><trkpt lat="43.6641775" lon="11.215768"><ele>128.0</ele><time>2026-04-12T10:19:09.165Z</time></trkpt><trkpt lat="43.6642631" lon="11.2158587"><ele>128.0</ele><time>2026-04-12T10:19:10.165Z</time></trkpt><trkpt lat="43.6643545" lon="11.2159574"><ele>128.0</ele><time>2026-04-12T10:19:11.165Z</time></trkpt><trkpt lat="43.6644431" lon="11.2160448"><ele>128.0</ele><time>2026-04-12T10:19:12.165Z</time></trkpt><trkpt lat="43.6645377" lon="11.2161305"><ele>128.0</ele><time>2026-04-12T10:19:13.165Z</time></trkpt><trkpt lat="43.6646315" lon="11.2162098"><ele>128.0</ele><time>2026-04-12T10:19:14.165Z</time></trkpt><trkpt lat="43.6647142" lon="11.2162979"><ele>128.0</ele><time>2026-04-12T10:19:15.164Z</time></trkpt><trkpt lat="43.6647775" lon="11.2163808"><ele>125.80000000000001</ele><time>2026-04-12T10:19:16.165Z</time></trkpt><trkpt lat="43.6648283" lon="11.2164571"><ele>123.60000000000001</ele><time>2026-04-12T10:19:17.165Z</time></trkpt><trkpt lat="43.6648692" lon="11.2165644"><ele>121.39999999999999</ele><time>2026-04-12T10:19:19.164Z</time></trkpt><trkpt lat="43.6647955" lon="11.2165916"><ele>119.19999999999999</ele><time>2026-04-12T10:19:22.165Z</time></trkpt><trkpt lat="43.6646617" lon="11.2165639"><ele>117.0</ele><time>2026-04-12T10:19:24.165Z</time></trkpt><trkpt lat="43.664567" lon="11.2165786"><ele>116.5</ele><time>2026-04-12T10:19:25.164Z</time></trkpt><trkpt lat="43.6644625" lon="11.2165778"><ele>116.0</ele><time>2026-04-12T10:19:26.165Z</time></trkpt><trkpt lat="43.6643468" lon="11.2165805"><ele>115.5</ele><time>2026-04-12T10:19:27.164Z</time></trkpt><trkpt lat="43.6642249" lon="11.2165782"><ele>115.0</ele><time>2026-04-12T10:19:28.164Z</time></trkpt><trkpt lat="43.6641042" lon="11.2165592"><ele>116.75</ele><time>2026-04-12T10:19:29.165Z</time></trkpt><trkpt lat="43.663979" lon="11.2165295"><ele>118.5</ele><time>2026-04-12T10:19:30.165Z</time></trkpt><trkpt lat="43.663847" lon="11.2164903"><ele>120.25</ele><time>2026-04-12T10:19:31.165Z</time></trkpt><trkpt lat="43.6637125" lon="11.2164604"><ele>122.0</ele><time>2026-04-12T10:19:32.165Z</time></trkpt><trkpt lat="43.6635705" lon="11.2164419"><ele>123.75</ele><time>2026-04-12T10:19:33.165Z</time></trkpt><trkpt lat="43.6634249" lon="11.2164424"><ele>125.5</ele><time>2026-04-12T10:19:34.164Z</time></trkpt><trkpt lat="43.6632767" lon="11.2164597"><ele>127.25</ele><time>2026-04-12T10:19:35.165Z</time></trkpt><trkpt lat="43.6631297" lon="11.2164923"><ele>129.0</ele><time>2026-04-12T10:19:36.165Z</time></trkpt><trkpt lat="43.6629991" lon="11.2165297"><ele>129.0</ele><time>2026-04-12T10:19:37.165Z</time></trkpt><trkpt lat="43.6628894" lon="11.2165641"><ele>129.0</ele><time>2026-04-12T10:19:38.165Z</time></trkpt><trkpt lat="43.6627999" lon="11.2165789"><ele>129.0</ele><time>2026-04-12T10:19:39.165Z</time></trkpt><trkpt lat="43.6627224" lon="11.216572"><ele>129.0</ele><time>2026-04-12T10:19:40.164Z</time></trkpt><trkpt lat="43.662659" lon="11.2165412"><ele>129.0</ele><time>2026-04-12T10:19:41.165Z</time></trkpt><trkpt lat="43.6625923" lon="11.216438"><ele>129.0</ele><time>2026-04-12T10:19:43.165Z</time></trkpt><trkpt lat="43.6626059" lon="11.2162833"><ele>132.6</ele><time>2026-04-12T10:19:45.165Z</time></trkpt><trkpt lat="43.6626377" lon="11.2161805"><ele>136.2</ele><time>2026-04-12T10:19:46.165Z</time></trkpt><trkpt lat="43.662653" lon="11.2160604"><ele>139.79999999999998</ele><time>2026-04-12T10:19:47.164Z</time></trkpt><trkpt lat="43.6626685" lon="11.2159334"><ele>143.4</ele><time>2026-04-12T10:19:48.164Z</time></trkpt><trkpt lat="43.6626871" lon="11.2158083"><ele>147.0</ele><time>2026-04-12T10:19:49.164Z</time></trkpt><trkpt lat="43.6627009" lon="11.2156728"><ele>148.2</ele><time>2026-04-12T10:19:50.165Z</time></trkpt><trkpt lat="43.662713" lon="11.2155334"><ele>149.39999999999998</ele><time>2026-04-12T10:19:51.165Z</time></trkpt><trkpt lat="43.6627159" lon="11.2153841"><ele>150.60000000000002</ele><time>2026-04-12T10:19:52.165Z</time></trkpt><trkpt lat="43.6627148" lon="11.2152339"><ele>151.8</ele><time>2026-04-12T10:19:53.164Z</time></trkpt><trkpt lat="43.6626995" lon="11.2150694"><ele>153.0</ele><time>2026-04-12T10:19:54.165Z</time></trkpt><trkpt lat="43.6626821" lon="11.2149067"><ele>155.2</ele><time>2026-04-12T10:19:55.165Z</time></trkpt><trkpt lat="43.6626611" lon="11.2147363"><ele>157.4</ele><time>2026-04-12T10:19:56.165Z</time></trkpt><trkpt lat="43.6626367" lon="11.2145827"><ele>159.6</ele><time>2026-04-12T10:19:57.165Z</time></trkpt><trkpt lat="43.6626187" lon="11.2144486"><ele>161.79999999999998</ele><time>2026-04-12T10:19:58.165Z</time></trkpt><trkpt lat="43.6626058" lon="11.2143331"><ele>164.0</ele><time>2026-04-12T10:19:59.165Z</time></trkpt><trkpt lat="43.6625747" lon="11.2142461"><ele>164.0</ele><time>2026-04-12T10:20:00.165Z</time></trkpt><trkpt lat="43.6625348" lon="11.2141391"><ele>164.0</ele><time>2026-04-12T10:20:02.165Z</time></trkpt><trkpt lat="43.6625051" lon="11.2140597"><ele>164.0</ele><time>2026-04-12T10:20:04.165Z</time></trkpt><trkpt lat="43.6624686" lon="11.2141408"><ele>164.0</ele><time>2026-04-12T10:20:19.165Z</time></trkpt><trkpt lat="43.6623846" lon="11.2141253"><ele>164.0</ele><time>2026-04-12T10:20:21.165Z</time></trkpt><trkpt lat="43.6622613" lon="11.2141259"><ele>164.0</ele><time>2026-04-12T10:20:23.165Z</time></trkpt><trkpt lat="43.6621473" lon="11.2141185"><ele>164.0</ele><time>2026-04-12T10:20:25.165Z</time></trkpt><trkpt lat="43.6620601" lon="11.2141257"><ele>164.0</ele><time>2026-04-12T10:20:26.165Z</time></trkpt><trkpt lat="43.6619737" lon="11.2141521"><ele>164.0</ele><time>2026-04-12T10:20:27.165Z</time></trkpt><trkpt lat="43.661897" lon="11.2141936"><ele>164.0</ele><time>2026-04-12T10:20:28.165Z</time></trkpt><trkpt lat="43.6618133" lon="11.2142533"><ele>164.0</ele><time>2026-04-12T10:20:29.165Z</time></trkpt><trkpt lat="43.6617373" lon="11.2143201"><ele>164.0</ele><time>2026-04-12T10:20:30.165Z</time></trkpt><trkpt lat="43.6616653" lon="11.2144004"><ele>164.79999999999998</ele><time>2026-04-12T10:20:31.164Z</time></trkpt><trkpt lat="43.6615955" lon="11.2144752"><ele>165.6</ele><time>2026-04-12T10:20:32.165Z</time></trkpt><trkpt lat="43.6615291" lon="11.2145615"><ele>166.4</ele><time>2026-04-12T10:20:33.164Z</time></trkpt><trkpt lat="43.6614802" lon="11.2146569"><ele>167.2</ele><time>2026-04-12T10:20:34.165Z</time></trkpt><trkpt lat="43.6614006" lon="11.2147807"><ele>168.0</ele><time>2026-04-12T10:20:36.164Z</time></trkpt><trkpt lat="43.6613348" lon="11.2148369"><ele>168.0</ele><time>2026-04-12T10:20:37.164Z</time></trkpt><trkpt lat="43.6612595" lon="11.2148734"><ele>168.0</ele><time>2026-04-12T10:20:38.165Z</time></trkpt><trkpt lat="43.661175" lon="11.2148852"><ele>168.0</ele><time>2026-04-12T10:20:39.165Z</time></trkpt><trkpt lat="43.6610789" lon="11.2148956"><ele>168.0</ele><time>2026-04-12T10:20:40.165Z</time></trkpt><trkpt lat="43.6609698" lon="11.2149061"><ele>168.0</ele><time>2026-04-12T10:20:41.164Z</time></trkpt><trkpt lat="43.6608596" lon="11.2148975"><ele>170.75</ele><time>2026-04-12T10:20:42.165Z</time></trkpt><trkpt lat="43.6607422" lon="11.2148983"><ele>173.5</ele><time>2026-04-12T10:20:43.165Z</time></trkpt><trkpt lat="43.6606193" lon="11.2148917"><ele>176.25</ele><time>2026-04-12T10:20:44.165Z</time></trkpt><trkpt lat="43.6604953" lon="11.2148902"><ele>179.0</ele><time>2026-04-12T10:20:45.164Z</time></trkpt><trkpt lat="43.6603716" lon="11.2148949"><ele>179.79999999999998</ele><time>2026-04-12T10:20:46.165Z</time></trkpt><trkpt lat="43.6602459" lon="11.2148996"><ele>180.6</ele><time>2026-04-12T10:20:47.165Z</time></trkpt><trkpt lat="43.6601267" lon="11.2148966"><ele>181.4</ele><time>2026-04-12T10:20:48.164Z</time></trkpt><trkpt lat="43.6600207" lon="11.2149057"><ele>182.2</ele><time>2026-04-12T10:20:49.164Z</time></trkpt><trkpt lat="43.6599304" lon="11.2149009"><ele>183.0</ele><time>2026-04-12T10:20:50.165Z</time></trkpt><trkpt lat="43.6598647" lon="11.2148841"><ele>183.66666666666666</ele><time>2026-04-12T10:20:51.164Z</time></trkpt><trkpt lat="43.6597778" lon="11.214807"><ele>184.33333333333334</ele><time>2026-04-12T10:20:53.165Z</time></trkpt><trkpt lat="43.6597332" lon="11.2147451"><ele>185.0</ele><time>2026-04-12T10:20:54.164Z</time></trkpt><trkpt lat="43.6596821" lon="11.2146638"><ele>185.66666666666669</ele><time>2026-04-12T10:20:55.165Z</time></trkpt><trkpt lat="43.6596167" lon="11.2145914"><ele>186.33333333333334</ele><time>2026-04-12T10:20:56.165Z</time></trkpt><trkpt lat="43.6595353" lon="11.2145394"><ele>187.0</ele><time>2026-04-12T10:20:57.165Z</time></trkpt><trkpt lat="43.6594365" lon="11.2144924"><ele>187.0</ele><time>2026-04-12T10:20:58.164Z</time></trkpt><trkpt lat="43.6593279" lon="11.2144269"><ele>187.0</ele><time>2026-04-12T10:20:59.165Z</time></trkpt><trkpt lat="43.6592234" lon="11.2143334"><ele>187.0</ele><time>2026-04-12T10:21:00.164Z</time></trkpt><trkpt lat="43.6591278" lon="11.2142102"><ele>187.0</ele><time>2026-04-12T10:21:01.165Z</time></trkpt><trkpt lat="43.6590535" lon="11.2140816"><ele>185.8</ele><time>2026-04-12T10:21:02.165Z</time></trkpt><trkpt lat="43.6589925" lon="11.2139538"><ele>184.6</ele><time>2026-04-12T10:21:03.165Z</time></trkpt><trkpt lat="43.6589293" lon="11.2138361"><ele>183.4</ele><time>2026-04-12T10:21:04.165Z</time></trkpt><trkpt lat="43.65887" lon="11.2137398"><ele>182.20000000000002</ele><time>2026-04-12T10:21:05.165Z</time></trkpt><trkpt lat="43.6588124" lon="11.213667"><ele>181.0</ele><time>2026-04-12T10:21:06.164Z</time></trkpt><trkpt lat="43.6587584" lon="11.2136078"><ele>181.0</ele><time>2026-04-12T10:21:07.165Z</time></trkpt><trkpt lat="43.6587153" lon="11.2134691"><ele>181.0</ele><time>2026-04-12T10:21:09.165Z</time></trkpt><trkpt lat="43.6587888" lon="11.2133285"><ele>181.0</ele><time>2026-04-12T10:21:11.165Z</time></trkpt><trkpt lat="43.6588513" lon="11.2132568"><ele>181.0</ele><time>2026-04-12T10:21:12.164Z</time></trkpt><trkpt lat="43.6589077" lon="11.2131657"><ele>181.0</ele><time>2026-04-12T10:21:13.164Z</time></trkpt><trkpt lat="43.6589543" lon="11.2130658"><ele>183.20000000000002</ele><time>2026-04-12T10:21:14.164Z</time></trkpt><trkpt lat="43.6589897" lon="11.2129395"><ele>185.4</ele><time>2026-04-12T10:21:15.165Z</time></trkpt><trkpt lat="43.6590341" lon="11.2128065"><ele>187.6</ele><time>2026-04-12T10:21:16.165Z</time></trkpt><trkpt lat="43.6590887" lon="11.2126932"><ele>189.8</ele><time>2026-04-12T10:21:17.165Z</time></trkpt><trkpt lat="43.6591441" lon="11.2125786"><ele>192.0</ele><time>2026-04-12T10:21:18.165Z</time></trkpt><trkpt lat="43.6592032" lon="11.2124396"><ele>197.25</ele><time>2026-04-12T10:21:19.164Z</time></trkpt><trkpt lat="43.6592547" lon="11.2123023"><ele>202.5</ele><time>2026-04-12T10:21:20.165Z</time></trkpt><trkpt lat="43.6593042" lon="11.2121562"><ele>207.75</ele><time>2026-04-12T10:21:21.165Z</time></trkpt><trkpt lat="43.6593631" lon="11.212017"><ele>213.0</ele><time>2026-04-12T10:21:22.165Z</time></trkpt><trkpt lat="43.6594336" lon="11.21189"><ele>211.0</ele><time>2026-04-12T10:21:23.164Z</time></trkpt><trkpt lat="43.6595023" lon="11.2117747"><ele>209.0</ele><time>2026-04-12T10:21:24.164Z</time></trkpt><trkpt lat="43.6595754" lon="11.2116576"><ele>207.0</ele><time>2026-04-12T10:21:25.164Z</time></trkpt><trkpt lat="43.6596524" lon="11.2115358"><ele>205.0</ele><time>2026-04-12T10:21:26.164Z</time></trkpt><trkpt lat="43.6597372" lon="11.2114332"><ele>205.0</ele><time>2026-04-12T10:21:27.165Z</time></trkpt><trkpt lat="43.6598199" lon="11.2113439"><ele>205.0</ele><time>2026-04-12T10:21:28.165Z</time></trkpt><trkpt lat="43.6599139" lon="11.2112527"><ele>205.0</ele><time>2026-04-12T10:21:29.165Z</time></trkpt><trkpt lat="43.6600055" lon="11.2111622"><ele>205.0</ele><time>2026-04-12T10:21:30.165Z</time></trkpt><trkpt lat="43.6600751" lon="11.2110503"><ele>205.0</ele><time>2026-04-12T10:21:31.164Z</time></trkpt><trkpt lat="43.6601414" lon="11.2109423"><ele>204.99999999999997</ele><time>2026-04-12T10:21:32.164Z</time></trkpt><trkpt lat="43.6601909" lon="11.2108328"><ele>205.0</ele><time>2026-04-12T10:21:33.165Z</time></trkpt><trkpt lat="43.6602318" lon="11.2107466"><ele>205.0</ele><time>2026-04-12T10:21:34.164Z</time></trkpt><trkpt lat="43.6602953" lon="11.21066"><ele>205.0</ele><time>2026-04-12T10:21:35.165Z</time></trkpt><trkpt lat="43.6603491" lon="11.210585"><ele>204.99999999999997</ele><time>2026-04-12T10:21:36.165Z</time></trkpt><trkpt lat="43.6604134" lon="11.2105271"><ele>205.0</ele><time>2026-04-12T10:21:37.165Z</time></trkpt><trkpt lat="43.6604945" lon="11.210448"><ele>206.33333333333331</ele><time>2026-04-12T10:21:39.165Z</time></trkpt><trkpt lat="43.6604394" lon="11.2103664"><ele>207.66666666666666</ele><time>2026-04-12T10:21:44.165Z</time></trkpt><trkpt lat="43.6603736" lon="11.210373"><ele>209.0</ele><time>2026-04-12T10:21:45.165Z</time></trkpt><trkpt lat="43.6602759" lon="11.2103986"><ele>210.33333333333331</ele><time>2026-04-12T10:21:47.165Z</time></trkpt><trkpt lat="43.6602106" lon="11.2104354"><ele>211.66666666666666</ele><time>2026-04-12T10:21:48.165Z</time></trkpt><trkpt lat="43.6601464" lon="11.2104803"><ele>213.0</ele><time>2026-04-12T10:21:49.165Z</time></trkpt><trkpt lat="43.6600757" lon="11.2105508"><ele>213.0</ele><time>2026-04-12T10:21:50.165Z</time></trkpt><trkpt lat="43.6600043" lon="11.2106175"><ele>213.0</ele><time>2026-04-12T10:21:51.164Z</time></trkpt><trkpt lat="43.6599249" lon="11.2106904"><ele>213.0</ele><time>2026-04-12T10:21:52.165Z</time></trkpt><trkpt lat="43.6598392" lon="11.2107495"><ele>213.0</ele><time>2026-04-12T10:21:53.165Z</time></trkpt><trkpt lat="43.6597438" lon="11.210787"><ele>213.0</ele><time>2026-04-12T10:21:54.165Z</time></trkpt><trkpt lat="43.6596351" lon="11.2108106"><ele>211.4</ele><time>2026-04-12T10:21:55.164Z</time></trkpt><trkpt lat="43.6595341" lon="11.2108434"><ele>209.8</ele><time>2026-04-12T10:21:56.165Z</time></trkpt><trkpt lat="43.6594397" lon="11.2108793"><ele>208.2</ele><time>2026-04-12T10:21:57.165Z</time></trkpt><trkpt lat="43.6593414" lon="11.2109174"><ele>206.6</ele><time>2026-04-12T10:21:58.165Z</time></trkpt><trkpt lat="43.6592537" lon="11.2109482"><ele>205.0</ele><time>2026-04-12T10:21:59.164Z</time></trkpt><trkpt lat="43.6591747" lon="11.2109797"><ele>210.6</ele><time>2026-04-12T10:22:00.165Z</time></trkpt><trkpt lat="43.6591016" lon="11.2110119"><ele>216.2</ele><time>2026-04-12T10:22:01.165Z</time></trkpt><trkpt lat="43.6590514" lon="11.2111061"><ele>221.8</ele><time>2026-04-12T10:22:02.165Z</time></trkpt><trkpt lat="43.6589986" lon="11.2112061"><ele>227.4</ele><time>2026-04-12T10:22:03.165Z</time></trkpt><trkpt lat="43.6589337" lon="11.2113385"><ele>233.0</ele><time>2026-04-12T10:22:04.165Z</time></trkpt><trkpt lat="43.6588649" lon="11.211464"><ele>233.75</ele><time>2026-04-12T10:22:05.165Z</time></trkpt><trkpt lat="43.6587798" lon="11.211606"><ele>234.5</ele><time>2026-04-12T10:22:06.165Z</time></trkpt><trkpt lat="43.6586989" lon="11.2117448"><ele>235.25</ele><time>2026-04-12T10:22:07.165Z</time></trkpt><trkpt lat="43.6586293" lon="11.2118671"><ele>236.0</ele><time>2026-04-12T10:22:08.164Z</time></trkpt><trkpt lat="43.65857" lon="11.2119556"><ele>236.00000000000003</ele><time>2026-04-12T10:22:09.165Z</time></trkpt><trkpt lat="43.6584785" lon="11.212044"><ele>236.0</ele><time>2026-04-12T10:22:11.165Z</time></trkpt><trkpt lat="43.6584153" lon="11.2120716"><ele>236.0</ele><time>2026-04-12T10:22:12.165Z</time></trkpt><trkpt lat="43.6583433" lon="11.2120509"><ele>236.0</ele><time>2026-04-12T10:22:13.165Z</time></trkpt><trkpt lat="43.6582702" lon="11.2120339"><ele>236.00000000000003</ele><time>2026-04-12T10:22:14.164Z</time></trkpt><trkpt lat="43.6581841" lon="11.2119793"><ele>236.0</ele><time>2026-04-12T10:22:15.165Z</time></trkpt><trkpt lat="43.6581108" lon="11.2119209"><ele>236.0</ele><time>2026-04-12T10:22:16.165Z</time></trkpt><trkpt lat="43.6580474" lon="11.2118725"><ele>236.00000000000003</ele><time>2026-04-12T10:22:17.165Z</time></trkpt><trkpt lat="43.6579409" lon="11.2118832"><ele>236.00000000000003</ele><time>2026-04-12T10:22:19.164Z</time></trkpt><trkpt lat="43.6578863" lon="11.2120114"><ele>236.0</ele><time>2026-04-12T10:22:21.164Z</time></trkpt><trkpt lat="43.6578899" lon="11.2121047"><ele>236.0</ele><time>2026-04-12T10:22:22.165Z</time></trkpt><trkpt lat="43.6578874" lon="11.2122721"><ele>236.16666666666669</ele><time>2026-04-12T10:22:24.165Z</time></trkpt><trkpt lat="43.6578738" lon="11.2123703"><ele>236.33333333333334</ele><time>2026-04-12T10:22:25.165Z</time></trkpt><trkpt lat="43.6578186" lon="11.2124363"><ele>236.5</ele><time>2026-04-12T10:22:26.164Z</time></trkpt><trkpt lat="43.6577593" lon="11.21249"><ele>236.66666666666669</ele><time>2026-04-12T10:22:27.165Z</time></trkpt><trkpt lat="43.657688" lon="11.212526"><ele>236.83333333333334</ele><time>2026-04-12T10:22:28.165Z</time></trkpt><trkpt lat="43.6576063" lon="11.212568"><ele>237.0</ele><time>2026-04-12T10:22:29.165Z</time></trkpt><trkpt lat="43.6575155" lon="11.2125775"><ele>237.0</ele><time>2026-04-12T10:22:30.165Z</time></trkpt><trkpt lat="43.6574207" lon="11.212572"><ele>237.0</ele><time>2026-04-12T10:22:31.165Z</time></trkpt><trkpt lat="43.6573361" lon="11.212551"><ele>237.0</ele><time>2026-04-12T10:22:32.165Z</time></trkpt><trkpt lat="43.6572494" lon="11.2125297"><ele>237.0</ele><time>2026-04-12T10:22:33.164Z</time></trkpt><trkpt lat="43.6571667" lon="11.212498"><ele>237.0</ele><time>2026-04-12T10:22:34.165Z</time></trkpt><trkpt lat="43.6570923" lon="11.2124523"><ele>237.0</ele><time>2026-04-12T10:22:35.165Z</time></trkpt><trkpt lat="43.6570183" lon="11.2124133"><ele>238.39999999999998</ele><time>2026-04-12T10:22:36.165Z</time></trkpt><trkpt lat="43.6569515" lon="11.2123785"><ele>239.79999999999998</ele><time>2026-04-12T10:22:37.164Z</time></trkpt><trkpt lat="43.6568782" lon="11.2123311"><ele>241.2</ele><time>2026-04-12T10:22:38.164Z</time></trkpt><trkpt lat="43.6567958" lon="11.2122824"><ele>242.6</ele><time>2026-04-12T10:22:39.165Z</time></trkpt><trkpt lat="43.6566938" lon="11.2122334"><ele>244.0</ele><time>2026-04-12T10:22:40.165Z</time></trkpt><trkpt lat="43.6565817" lon="11.2121877"><ele>248.5</ele><time>2026-04-12T10:22:41.164Z</time></trkpt><trkpt lat="43.6564619" lon="11.2121432"><ele>253.0</ele><time>2026-04-12T10:22:42.165Z</time></trkpt><trkpt lat="43.6563379" lon="11.2121058"><ele>257.5</ele><time>2026-04-12T10:22:43.164Z</time></trkpt><trkpt lat="43.6562015" lon="11.2120756"><ele>262.0</ele><time>2026-04-12T10:22:44.165Z</time></trkpt><trkpt lat="43.6560861" lon="11.2120566"><ele>262.0</ele><time>2026-04-12T10:22:45.165Z</time></trkpt><trkpt lat="43.6559816" lon="11.2120463"><ele>262.0</ele><time>2026-04-12T10:22:46.164Z</time></trkpt><trkpt lat="43.6558767" lon="11.2120346"><ele>262.0</ele><time>2026-04-12T10:22:47.164Z</time></trkpt><trkpt lat="43.655781" lon="11.2120212"><ele>262.0</ele><time>2026-04-12T10:22:48.165Z</time></trkpt><trkpt lat="43.6556821" lon="11.2120042"><ele>262.0</ele><time>2026-04-12T10:22:49.165Z</time></trkpt><trkpt lat="43.6555931" lon="11.2119726"><ele>262.0</ele><time>2026-04-12T10:22:50.165Z</time></trkpt><trkpt lat="43.6555052" lon="11.2119205"><ele>262.0</ele><time>2026-04-12T10:22:51.165Z</time></trkpt><trkpt lat="43.6554235" lon="11.2118672"><ele>262.0</ele><time>2026-04-12T10:22:52.165Z</time></trkpt><trkpt lat="43.6553666" lon="11.2117984"><ele>262.0</ele><time>2026-04-12T10:22:53.165Z</time></trkpt><trkpt lat="43.6553107" lon="11.2117172"><ele>262.0</ele><time>2026-04-12T10:22:54.164Z</time></trkpt><trkpt lat="43.6552604" lon="11.2116149"><ele>262.0</ele><time>2026-04-12T10:22:55.164Z</time></trkpt><trkpt lat="43.6551814" lon="11.2114832"><ele>263.0</ele><time>2026-04-12T10:22:56.165Z</time></trkpt><trkpt lat="43.6551073" lon="11.2113604"><ele>264.0</ele><time>2026-04-12T10:22:57.165Z</time></trkpt><trkpt lat="43.6550169" lon="11.2112278"><ele>265.0</ele><time>2026-04-12T10:22:58.165Z</time></trkpt><trkpt lat="43.6549219" lon="11.2110886"><ele>266.0</ele><time>2026-04-12T10:22:59.165Z</time></trkpt><trkpt lat="43.6548431" lon="11.2109673"><ele>266.0</ele><time>2026-04-12T10:23:00.165Z</time></trkpt><trkpt lat="43.6547725" lon="11.2108587"><ele>266.0</ele><time>2026-04-12T10:23:01.165Z</time></trkpt><trkpt lat="43.6547198" lon="11.2107544"><ele>266.0</ele><time>2026-04-12T10:23:02.165Z</time></trkpt><trkpt lat="43.6546542" lon="11.2106505"><ele>266.0</ele><time>2026-04-12T10:23:03.164Z</time></trkpt><trkpt lat="43.6545894" lon="11.2105576"><ele>266.0</ele><time>2026-04-12T10:23:04.165Z</time></trkpt><trkpt lat="43.6545071" lon="11.2104593"><ele>266.0</ele><time>2026-04-12T10:23:05.164Z</time></trkpt><trkpt lat="43.6544115" lon="11.2103617"><ele>266.0</ele><time>2026-04-12T10:23:06.165Z</time></trkpt><trkpt lat="43.6543162" lon="11.2102706"><ele>266.0</ele><time>2026-04-12T10:23:07.165Z</time></trkpt><trkpt lat="43.6542284" lon="11.2101817"><ele>266.0</ele><time>2026-04-12T10:23:08.165Z</time></trkpt><trkpt lat="43.6541497" lon="11.2100778"><ele>266.0</ele><time>2026-04-12T10:23:09.164Z</time></trkpt><trkpt lat="43.6540569" lon="11.2099804"><ele>266.0</ele><time>2026-04-12T10:23:10.165Z</time></trkpt><trkpt lat="43.6539681" lon="11.2098798"><ele>266.0</ele><time>2026-04-12T10:23:11.165Z</time></trkpt><trkpt lat="43.6538646" lon="11.2097819"><ele>266.0</ele><time>2026-04-12T10:23:12.164Z</time></trkpt><trkpt lat="43.6537663" lon="11.2097103"><ele>265.40000000000003</ele><time>2026-04-12T10:23:13.165Z</time></trkpt><trkpt lat="43.6536794" lon="11.2096379"><ele>264.8</ele><time>2026-04-12T10:23:14.165Z</time></trkpt><trkpt lat="43.6536121" lon="11.2095637"><ele>264.20000000000005</ele><time>2026-04-12T10:23:15.165Z</time></trkpt><trkpt lat="43.6535555" lon="11.2094877"><ele>263.6</ele><time>2026-04-12T10:23:16.165Z</time></trkpt><trkpt lat="43.6534893" lon="11.2094009"><ele>263.0</ele><time>2026-04-12T10:23:17.164Z</time></trkpt><trkpt lat="43.65342" lon="11.2093052"><ele>263.0</ele><time>2026-04-12T10:23:18.165Z</time></trkpt><trkpt lat="43.6533358" lon="11.2091908"><ele>263.0</ele><time>2026-04-12T10:23:19.164Z</time></trkpt><trkpt lat="43.6532497" lon="11.2090823"><ele>263.0</ele><time>2026-04-12T10:23:20.164Z</time></trkpt><trkpt lat="43.6531614" lon="11.2089729"><ele>263.0</ele><time>2026-04-12T10:23:21.164Z</time></trkpt><trkpt lat="43.6530526" lon="11.2088746"><ele>261.5</ele><time>2026-04-12T10:23:22.165Z</time></trkpt><trkpt lat="43.6529368" lon="11.2087801"><ele>260.0</ele><time>2026-04-12T10:23:23.165Z</time></trkpt><trkpt lat="43.6528241" lon="11.2086808"><ele>258.5</ele><time>2026-04-12T10:23:24.164Z</time></trkpt><trkpt lat="43.6527029" lon="11.2085813"><ele>257.0</ele><time>2026-04-12T10:23:25.165Z</time></trkpt><trkpt lat="43.6525887" lon="11.2084902"><ele>260.5</ele><time>2026-04-12T10:23:26.165Z</time></trkpt><trkpt lat="43.6524781" lon="11.2083983"><ele>264.0</ele><time>2026-04-12T10:23:27.164Z</time></trkpt><trkpt lat="43.652364" lon="11.2083092"><ele>267.5</ele><time>2026-04-12T10:23:28.165Z</time></trkpt><trkpt lat="43.6522468" lon="11.2082156"><ele>271.0</ele><time>2026-04-12T10:23:29.165Z</time></trkpt><trkpt lat="43.6521409" lon="11.2081241"><ele>271.0</ele><time>2026-04-12T10:23:30.165Z</time></trkpt><trkpt lat="43.6520288" lon="11.2080266"><ele>271.0</ele><time>2026-04-12T10:23:31.164Z</time></trkpt><trkpt lat="43.6519133" lon="11.2079254"><ele>271.0</ele><time>2026-04-12T10:23:32.165Z</time></trkpt><trkpt lat="43.6518003" lon="11.2078273"><ele>271.0</ele><time>2026-04-12T10:23:33.165Z</time></trkpt><trkpt lat="43.6516837" lon="11.2077288"><ele>273.0</ele><time>2026-04-12T10:23:34.164Z</time></trkpt><trkpt lat="43.6515674" lon="11.207631"><ele>275.0</ele><time>2026-04-12T10:23:35.164Z</time></trkpt><trkpt lat="43.6514445" lon="11.2075261"><ele>277.0</ele><time>2026-04-12T10:23:36.165Z</time></trkpt><trkpt lat="43.6513263" lon="11.2074132"><ele>279.0</ele><time>2026-04-12T10:23:37.164Z</time></trkpt><trkpt lat="43.6511945" lon="11.2073033"><ele>280.3333333333333</ele><time>2026-04-12T10:23:38.165Z</time></trkpt><trkpt lat="43.6510646" lon="11.207191"><ele>281.66666666666663</ele><time>2026-04-12T10:23:39.165Z</time></trkpt><trkpt lat="43.6509325" lon="11.2070684"><ele>283.0</ele><time>2026-04-12T10:23:40.165Z</time></trkpt><trkpt lat="43.6507928" lon="11.2069503"><ele>283.0</ele><time>2026-04-12T10:23:41.165Z</time></trkpt><trkpt lat="43.6506556" lon="11.2068336"><ele>283.0</ele><time>2026-04-12T10:23:42.164Z</time></trkpt><trkpt lat="43.6505239" lon="11.2067219"><ele>283.0</ele><time>2026-04-12T10:23:43.165Z</time></trkpt><trkpt lat="43.6503964" lon="11.2066263"><ele>285.0</ele><time>2026-04-12T10:23:44.165Z</time></trkpt><trkpt lat="43.6502847" lon="11.2065317"><ele>287.0</ele><time>2026-04-12T10:23:45.165Z</time></trkpt><trkpt lat="43.6501845" lon="11.2064455"><ele>289.0</ele><time>2026-04-12T10:23:46.164Z</time></trkpt><trkpt lat="43.6500903" lon="11.2063662"><ele>291.0</ele><time>2026-04-12T10:23:47.165Z</time></trkpt><trkpt lat="43.6499977" lon="11.2062951"><ele>291.0</ele><time>2026-04-12T10:23:48.164Z</time></trkpt><trkpt lat="43.6499118" lon="11.2062354"><ele>291.0</ele><time>2026-04-12T10:23:49.165Z</time></trkpt><trkpt lat="43.6498423" lon="11.2061896"><ele>291.0</ele><time>2026-04-12T10:23:50.165Z</time></trkpt><trkpt lat="43.6497668" lon="11.2061474"><ele>291.0</ele><time>2026-04-12T10:23:51.165Z</time></trkpt><trkpt lat="43.6497022" lon="11.2061051"><ele>291.0</ele><time>2026-04-12T10:23:52.165Z</time></trkpt><trkpt lat="43.6496368" lon="11.2060667"><ele>291.0</ele><time>2026-04-12T10:23:53.165Z</time></trkpt><trkpt lat="43.6495315" lon="11.2060245"><ele>292.6</ele><time>2026-04-12T10:23:55.165Z</time></trkpt><trkpt lat="43.6494424" lon="11.2059888"><ele>294.20000000000005</ele><time>2026-04-12T10:23:57.165Z</time></trkpt><trkpt lat="43.6493502" lon="11.2060058"><ele>295.79999999999995</ele><time>2026-04-12T10:23:59.164Z</time></trkpt><trkpt lat="43.649232" lon="11.2060424"><ele>297.4</ele><time>2026-04-12T10:24:01.165Z</time></trkpt><trkpt lat="43.6491681" lon="11.2060666"><ele>299.0</ele><time>2026-04-12T10:24:02.165Z</time></trkpt><trkpt lat="43.6490872" lon="11.2060879"><ele>299.0</ele><time>2026-04-12T10:24:03.165Z</time></trkpt><trkpt lat="43.6490092" lon="11.2061049"><ele>299.0</ele><time>2026-04-12T10:24:04.164Z</time></trkpt><trkpt lat="43.6489275" lon="11.2061265"><ele>299.0</ele><time>2026-04-12T10:24:05.165Z</time></trkpt><trkpt lat="43.6488583" lon="11.2061459"><ele>299.0</ele><time>2026-04-12T10:24:06.164Z</time></trkpt><trkpt lat="43.6487963" lon="11.2061682"><ele>299.0</ele><time>2026-04-12T10:24:07.165Z</time></trkpt><trkpt lat="43.6487038" lon="11.206191"><ele>299.0</ele><time>2026-04-12T10:24:09.165Z</time></trkpt><trkpt lat="43.6486566" lon="11.2063189"><ele>299.0</ele><time>2026-04-12T10:24:12.165Z</time></trkpt><trkpt lat="43.6486384" lon="11.2064303"><ele>299.0</ele><time>2026-04-12T10:24:13.164Z</time></trkpt><trkpt lat="43.6486168" lon="11.2065519"><ele>299.0</ele><time>2026-04-12T10:24:14.164Z</time></trkpt><trkpt lat="43.6485875" lon="11.2066828"><ele>299.0</ele><time>2026-04-12T10:24:15.165Z</time></trkpt><trkpt lat="43.6485374" lon="11.2068139"><ele>299.0</ele><time>2026-04-12T10:24:16.165Z</time></trkpt><trkpt lat="43.648476" lon="11.2069466"><ele>298.8</ele><time>2026-04-12T10:24:17.165Z</time></trkpt><trkpt lat="43.6484135" lon="11.2070665"><ele>298.59999999999997</ele><time>2026-04-12T10:24:18.164Z</time></trkpt><trkpt lat="43.6483496" lon="11.2071623"><ele>298.4</ele><time>2026-04-12T10:24:19.165Z</time></trkpt><trkpt lat="43.6482678" lon="11.2072506"><ele>298.2</ele><time>2026-04-12T10:24:20.165Z</time></trkpt><trkpt lat="43.6481686" lon="11.2073367"><ele>298.0</ele><time>2026-04-12T10:24:21.164Z</time></trkpt><trkpt lat="43.6480673" lon="11.2074273"><ele>298.0</ele><time>2026-04-12T10:24:22.164Z</time></trkpt><trkpt lat="43.647983" lon="11.2075027"><ele>298.0</ele><time>2026-04-12T10:24:23.165Z</time></trkpt><trkpt lat="43.6479091" lon="11.207534"><ele>298.0</ele><time>2026-04-12T10:24:24.164Z</time></trkpt><trkpt lat="43.6478342" lon="11.2075338"><ele>298.0</ele><time>2026-04-12T10:24:25.165Z</time></trkpt><trkpt lat="43.6477658" lon="11.2074131"><ele>298.0</ele><time>2026-04-12T10:24:27.164Z</time></trkpt><trkpt lat="43.6477671" lon="11.2073241"><ele>298.0</ele><time>2026-04-12T10:24:28.165Z</time></trkpt><trkpt lat="43.6477985" lon="11.2072186"><ele>298.0</ele><time>2026-04-12T10:24:29.164Z</time></trkpt><trkpt lat="43.6478572" lon="11.2071001"><ele>298.0</ele><time>2026-04-12T10:24:30.165Z</time></trkpt><trkpt lat="43.647915" lon="11.2069408"><ele>298.0</ele><time>2026-04-12T10:24:31.165Z</time></trkpt><trkpt lat="43.6479569" lon="11.2067339"><ele>298.0</ele><time>2026-04-12T10:24:32.164Z</time></trkpt><trkpt lat="43.64798" lon="11.2065178"><ele>298.3333333333333</ele><time>2026-04-12T10:24:33.165Z</time></trkpt><trkpt lat="43.6479964" lon="11.2062711"><ele>298.6666666666667</ele><time>2026-04-12T10:24:34.165Z</time></trkpt><trkpt lat="43.648009" lon="11.2060232"><ele>299.0</ele><time>2026-04-12T10:24:35.165Z</time></trkpt><trkpt lat="43.6480214" lon="11.2057678"><ele>298.33333333333337</ele><time>2026-04-12T10:24:36.165Z</time></trkpt><trkpt lat="43.6480354" lon="11.2054991"><ele>297.6666666666667</ele><time>2026-04-12T10:24:37.164Z</time></trkpt><trkpt lat="43.6480228" lon="11.2052243"><ele>297.0</ele><time>2026-04-12T10:24:38.165Z</time></trkpt><trkpt lat="43.6479951" lon="11.2049329"><ele>294.6666666666667</ele><time>2026-04-12T10:24:39.165Z</time></trkpt><trkpt lat="43.6479458" lon="11.204639"><ele>292.33333333333337</ele><time>2026-04-12T10:24:40.165Z</time></trkpt><trkpt lat="43.6478996" lon="11.2043475"><ele>290.0</ele><time>2026-04-12T10:24:41.165Z</time></trkpt><trkpt lat="43.647842" lon="11.2040535"><ele>287.33333333333337</ele><time>2026-04-12T10:24:42.165Z</time></trkpt><trkpt lat="43.6478029" lon="11.2037633"><ele>284.6666666666667</ele><time>2026-04-12T10:24:43.165Z</time></trkpt><trkpt lat="43.6477983" lon="11.2034809"><ele>282.0</ele><time>2026-04-12T10:24:44.164Z</time></trkpt><trkpt lat="43.6478357" lon="11.203207"><ele>284.6666666666667</ele><time>2026-04-12T10:24:45.165Z</time></trkpt><trkpt lat="43.647898" lon="11.2029322"><ele>287.33333333333337</ele><time>2026-04-12T10:24:46.165Z</time></trkpt><trkpt lat="43.6479764" lon="11.2026627"><ele>290.0</ele><time>2026-04-12T10:24:47.165Z</time></trkpt><trkpt lat="43.6480645" lon="11.2023882"><ele>292.6666666666667</ele><time>2026-04-12T10:24:48.165Z</time></trkpt><trkpt lat="43.6481634" lon="11.2021127"><ele>295.3333333333333</ele><time>2026-04-12T10:24:49.164Z</time></trkpt><trkpt lat="43.6482816" lon="11.2018573"><ele>298.0</ele><time>2026-04-12T10:24:50.165Z</time></trkpt><trkpt lat="43.6484099" lon="11.2016223"><ele>298.0</ele><time>2026-04-12T10:24:51.165Z</time></trkpt><trkpt lat="43.6485443" lon="11.2014126"><ele>298.0</ele><time>2026-04-12T10:24:52.165Z</time></trkpt><trkpt lat="43.6486692" lon="11.2012161"><ele>298.0</ele><time>2026-04-12T10:24:53.164Z</time></trkpt><trkpt lat="43.6488001" lon="11.2010107"><ele>297.3333333333333</ele><time>2026-04-12T10:24:54.165Z</time></trkpt><trkpt lat="43.6489311" lon="11.2007949"><ele>296.6666666666667</ele><time>2026-04-12T10:24:55.164Z</time></trkpt><trkpt lat="43.6490647" lon="11.2005723"><ele>296.0</ele><time>2026-04-12T10:24:56.165Z</time></trkpt><trkpt lat="43.6491906" lon="11.200364"><ele>294.0</ele><time>2026-04-12T10:24:57.165Z</time></trkpt><trkpt lat="43.6493043" lon="11.2001551"><ele>292.0</ele><time>2026-04-12T10:24:58.165Z</time></trkpt><trkpt lat="43.6493863" lon="11.1999205"><ele>290.0</ele><time>2026-04-12T10:24:59.165Z</time></trkpt><trkpt lat="43.64944" lon="11.1996538"><ele>290.0</ele><time>2026-04-12T10:25:00.165Z</time></trkpt><trkpt lat="43.649461" lon="11.1993745"><ele>290.0</ele><time>2026-04-12T10:25:01.165Z</time></trkpt><trkpt lat="43.6494563" lon="11.1990824"><ele>290.0</ele><time>2026-04-12T10:25:02.165Z</time></trkpt><trkpt lat="43.6494471" lon="11.1987997"><ele>290.0</ele><time>2026-04-12T10:25:03.164Z</time></trkpt><trkpt lat="43.6494311" lon="11.1985378"><ele>290.0</ele><time>2026-04-12T10:25:04.165Z</time></trkpt><trkpt lat="43.6494278" lon="11.1982918"><ele>290.0</ele><time>2026-04-12T10:25:05.165Z</time></trkpt><trkpt lat="43.6494494" lon="11.1980617"><ele>290.0</ele><time>2026-04-12T10:25:06.165Z</time></trkpt><trkpt lat="43.6494817" lon="11.1978508"><ele>290.0</ele><time>2026-04-12T10:25:07.165Z</time></trkpt><trkpt lat="43.6495336" lon="11.1976546"><ele>290.0</ele><time>2026-04-12T10:25:08.164Z</time></trkpt><trkpt lat="43.6496123" lon="11.1974878"><ele>290.0</ele><time>2026-04-12T10:25:09.165Z</time></trkpt><trkpt lat="43.6497285" lon="11.1973551"><ele>290.0</ele><time>2026-04-12T10:25:10.165Z</time></trkpt><trkpt lat="43.6498723" lon="11.1972462"><ele>290.0</ele><time>2026-04-12T10:25:11.165Z</time></trkpt><trkpt lat="43.65004" lon="11.1971579"><ele>293.0</ele><time>2026-04-12T10:25:12.165Z</time></trkpt><trkpt lat="43.650209" lon="11.1970712"><ele>296.0</ele><time>2026-04-12T10:25:13.165Z</time></trkpt><trkpt lat="43.6503852" lon="11.1969833"><ele>299.0</ele><time>2026-04-12T10:25:14.165Z</time></trkpt><trkpt lat="43.6505646" lon="11.1968914"><ele>299.33333333333337</ele><time>2026-04-12T10:25:15.165Z</time></trkpt><trkpt lat="43.6507478" lon="11.1967989"><ele>299.6666666666667</ele><time>2026-04-12T10:25:16.165Z</time></trkpt><trkpt lat="43.6509291" lon="11.1967096"><ele>300.0</ele><time>2026-04-12T10:25:17.164Z</time></trkpt><trkpt lat="43.6511085" lon="11.1966225"><ele>300.3333333333333</ele><time>2026-04-12T10:25:18.165Z</time></trkpt><trkpt lat="43.6512784" lon="11.1965547"><ele>300.66666666666663</ele><time>2026-04-12T10:25:19.165Z</time></trkpt><trkpt lat="43.6514464" lon="11.1965059"><ele>301.0</ele><time>2026-04-12T10:25:20.164Z</time></trkpt><trkpt lat="43.651611" lon="11.1964351"><ele>301.0</ele><time>2026-04-12T10:25:21.165Z</time></trkpt><trkpt lat="43.6517698" lon="11.1963487"><ele>301.0</ele><time>2026-04-12T10:25:22.165Z</time></trkpt><trkpt lat="43.6519245" lon="11.1962208"><ele>301.0</ele><time>2026-04-12T10:25:23.165Z</time></trkpt><trkpt lat="43.6520793" lon="11.1960553"><ele>298.3333333333333</ele><time>2026-04-12T10:25:24.164Z</time></trkpt><trkpt lat="43.6522504" lon="11.1958899"><ele>295.6666666666667</ele><time>2026-04-12T10:25:25.165Z</time></trkpt><trkpt lat="43.65242" lon="11.1957316"><ele>293.0</ele><time>2026-04-12T10:25:26.165Z</time></trkpt><trkpt lat="43.6526097" lon="11.1955926"><ele>290.6666666666667</ele><time>2026-04-12T10:25:27.165Z</time></trkpt><trkpt lat="43.6528185" lon="11.1954744"><ele>288.3333333333333</ele><time>2026-04-12T10:25:28.165Z</time></trkpt><trkpt lat="43.653019" lon="11.1953473"><ele>286.0</ele><time>2026-04-12T10:25:29.165Z</time></trkpt><trkpt lat="43.6532162" lon="11.1951942"><ele>286.0</ele><time>2026-04-12T10:25:30.165Z</time></trkpt><trkpt lat="43.6534049" lon="11.195015"><ele>286.0</ele><time>2026-04-12T10:25:31.165Z</time></trkpt><trkpt lat="43.6535933" lon="11.1948285"><ele>286.0</ele><time>2026-04-12T10:25:32.164Z</time></trkpt><trkpt lat="43.6537852" lon="11.194641"><ele>286.0</ele><time>2026-04-12T10:25:33.165Z</time></trkpt><trkpt lat="43.6539621" lon="11.1944609"><ele>286.0</ele><time>2026-04-12T10:25:34.165Z</time></trkpt><trkpt lat="43.6541259" lon="11.1942953"><ele>286.0</ele><time>2026-04-12T10:25:35.165Z</time></trkpt><trkpt lat="43.6542806" lon="11.194125"><ele>286.0</ele><time>2026-04-12T10:25:36.165Z</time></trkpt><trkpt lat="43.6544339" lon="11.1939429"><ele>288.66666666666663</ele><time>2026-04-12T10:25:37.165Z</time></trkpt><trkpt lat="43.6545789" lon="11.1937606"><ele>291.3333333333333</ele><time>2026-04-12T10:25:38.165Z</time></trkpt><trkpt lat="43.6547177" lon="11.1935929"><ele>294.0</ele><time>2026-04-12T10:25:39.165Z</time></trkpt><trkpt lat="43.6548469" lon="11.1934378"><ele>294.0</ele><time>2026-04-12T10:25:40.165Z</time></trkpt><trkpt lat="43.654965" lon="11.1932842"><ele>294.0</ele><time>2026-04-12T10:25:41.165Z</time></trkpt><trkpt lat="43.6550788" lon="11.193114"><ele>294.0</ele><time>2026-04-12T10:25:42.165Z</time></trkpt><trkpt lat="43.6551752" lon="11.1929223"><ele>294.0</ele><time>2026-04-12T10:25:43.165Z</time></trkpt><trkpt lat="43.6552671" lon="11.1927209"><ele>294.0</ele><time>2026-04-12T10:25:44.165Z</time></trkpt><trkpt lat="43.6553528" lon="11.1925086"><ele>294.0</ele><time>2026-04-12T10:25:45.165Z</time></trkpt><trkpt lat="43.6554338" lon="11.1922953"><ele>294.75</ele><time>2026-04-12T10:25:46.165Z</time></trkpt><trkpt lat="43.6555085" lon="11.1920908"><ele>295.5</ele><time>2026-04-12T10:25:47.165Z</time></trkpt><trkpt lat="43.6555727" lon="11.1919098"><ele>296.25</ele><time>2026-04-12T10:25:48.165Z</time></trkpt><trkpt lat="43.6556306" lon="11.191741"><ele>297.0</ele><time>2026-04-12T10:25:49.164Z</time></trkpt><trkpt lat="43.6556771" lon="11.1915828"><ele>296.5</ele><time>2026-04-12T10:25:50.165Z</time></trkpt><trkpt lat="43.6557143" lon="11.1914269"><ele>296.0</ele><time>2026-04-12T10:25:51.165Z</time></trkpt><trkpt lat="43.6557446" lon="11.1912575"><ele>295.5</ele><time>2026-04-12T10:25:52.165Z</time></trkpt><trkpt lat="43.6557427" lon="11.1910812"><ele>295.0</ele><time>2026-04-12T10:25:53.165Z</time></trkpt><trkpt lat="43.6557136" lon="11.1909118"><ele>295.0</ele><time>2026-04-12T10:25:54.164Z</time></trkpt><trkpt lat="43.6556801" lon="11.1907628"><ele>295.0</ele><time>2026-04-12T10:25:55.165Z</time></trkpt><trkpt lat="43.6556375" lon="11.1906233"><ele>295.0</ele><time>2026-04-12T10:25:56.165Z</time></trkpt><trkpt lat="43.655601" lon="11.1904845"><ele>295.0</ele><time>2026-04-12T10:25:57.165Z</time></trkpt><trkpt lat="43.6555666" lon="11.1903416"><ele>295.0</ele><time>2026-04-12T10:25:58.165Z</time></trkpt><trkpt lat="43.6555218" lon="11.1901942"><ele>294.8</ele><time>2026-04-12T10:25:59.165Z</time></trkpt><trkpt lat="43.6554823" lon="11.1900478"><ele>294.6</ele><time>2026-04-12T10:26:00.165Z</time></trkpt><trkpt lat="43.6554485" lon="11.1898962"><ele>294.4</ele><time>2026-04-12T10:26:01.165Z</time></trkpt><trkpt lat="43.6554171" lon="11.1897554"><ele>294.2</ele><time>2026-04-12T10:26:02.164Z</time></trkpt><trkpt lat="43.6553911" lon="11.1896208"><ele>294.0</ele><time>2026-04-12T10:26:03.165Z</time></trkpt><trkpt lat="43.6553687" lon="11.1894904"><ele>294.0</ele><time>2026-04-12T10:26:04.165Z</time></trkpt><trkpt lat="43.6553581" lon="11.1893534"><ele>294.0</ele><time>2026-04-12T10:26:05.165Z</time></trkpt><trkpt lat="43.6553455" lon="11.1892141"><ele>294.0</ele><time>2026-04-12T10:26:06.164Z</time></trkpt><trkpt lat="43.6553384" lon="11.1890731"><ele>294.0</ele><time>2026-04-12T10:26:07.165Z</time></trkpt><trkpt lat="43.6553362" lon="11.1889359"><ele>294.0</ele><time>2026-04-12T10:26:08.165Z</time></trkpt><trkpt lat="43.6553378" lon="11.1888103"><ele>294.5</ele><time>2026-04-12T10:26:09.165Z</time></trkpt><trkpt lat="43.6553404" lon="11.1886939"><ele>295.0</ele><time>2026-04-12T10:26:10.164Z</time></trkpt><trkpt lat="43.6553442" lon="11.1885714"><ele>295.5</ele><time>2026-04-12T10:26:11.164Z</time></trkpt><trkpt lat="43.6553536" lon="11.1884551"><ele>296.0</ele><time>2026-04-12T10:26:12.165Z</time></trkpt><trkpt lat="43.6553647" lon="11.1883327"><ele>296.5</ele><time>2026-04-12T10:26:13.165Z</time></trkpt><trkpt lat="43.6553848" lon="11.1882122"><ele>297.0</ele><time>2026-04-12T10:26:14.165Z</time></trkpt><trkpt lat="43.6554093" lon="11.1881011"><ele>298.0</ele><time>2026-04-12T10:26:15.165Z</time></trkpt><trkpt lat="43.6554399" lon="11.1880002"><ele>299.0</ele><time>2026-04-12T10:26:16.165Z</time></trkpt><trkpt lat="43.6554702" lon="11.1879077"><ele>300.0</ele><time>2026-04-12T10:26:17.165Z</time></trkpt><trkpt lat="43.6555034" lon="11.187832"><ele>301.0</ele><time>2026-04-12T10:26:18.165Z</time></trkpt><trkpt lat="43.6555376" lon="11.187753"><ele>302.0</ele><time>2026-04-12T10:26:19.165Z</time></trkpt><trkpt lat="43.6556096" lon="11.1876392"><ele>303.0</ele><time>2026-04-12T10:26:21.165Z</time></trkpt><trkpt lat="43.6556567" lon="11.1875397"><ele>303.0</ele><time>2026-04-12T10:26:23.165Z</time></trkpt><trkpt lat="43.6556306" lon="11.1874251"><ele>303.0</ele><time>2026-04-12T10:26:25.165Z</time></trkpt><trkpt lat="43.6555712" lon="11.1873908"><ele>303.0</ele><time>2026-04-12T10:26:26.164Z</time></trkpt><trkpt lat="43.6554963" lon="11.1873693"><ele>303.0</ele><time>2026-04-12T10:26:27.165Z</time></trkpt><trkpt lat="43.6554194" lon="11.1873355"><ele>303.0</ele><time>2026-04-12T10:26:28.164Z</time></trkpt><trkpt lat="43.6553478" lon="11.1872855"><ele>303.0</ele><time>2026-04-12T10:26:29.165Z</time></trkpt><trkpt lat="43.655285" lon="11.1872328"><ele>302.2</ele><time>2026-04-12T10:26:30.165Z</time></trkpt><trkpt lat="43.6552335" lon="11.1871624"><ele>301.4</ele><time>2026-04-12T10:26:31.165Z</time></trkpt><trkpt lat="43.6552003" lon="11.1870823"><ele>300.59999999999997</ele><time>2026-04-12T10:26:32.164Z</time></trkpt><trkpt lat="43.655209" lon="11.1869364"><ele>299.8</ele><time>2026-04-12T10:26:34.164Z</time></trkpt><trkpt lat="43.6552765" lon="11.1868082"><ele>299.0</ele><time>2026-04-12T10:26:36.165Z</time></trkpt><trkpt lat="43.6553186" lon="11.1866979"><ele>300.5</ele><time>2026-04-12T10:26:37.164Z</time></trkpt><trkpt lat="43.6553684" lon="11.1865534"><ele>302.0</ele><time>2026-04-12T10:26:38.165Z</time></trkpt><trkpt lat="43.655441" lon="11.1864031"><ele>303.5</ele><time>2026-04-12T10:26:39.165Z</time></trkpt><trkpt lat="43.6555225" lon="11.1862517"><ele>305.0</ele><time>2026-04-12T10:26:40.165Z</time></trkpt><trkpt lat="43.6556065" lon="11.1861033"><ele>305.0</ele><time>2026-04-12T10:26:41.165Z</time></trkpt><trkpt lat="43.6556715" lon="11.1859721"><ele>305.0</ele><time>2026-04-12T10:26:42.165Z</time></trkpt><trkpt lat="43.6557306" lon="11.1858654"><ele>305.0</ele><time>2026-04-12T10:26:43.165Z</time></trkpt><trkpt lat="43.6557714" lon="11.1857902"><ele>305.0</ele><time>2026-04-12T10:26:44.165Z</time></trkpt><trkpt lat="43.6558229" lon="11.185674"><ele>305.0</ele><time>2026-04-12T10:26:46.164Z</time></trkpt><trkpt lat="43.6558706" lon="11.1855688"><ele>303.4</ele><time>2026-04-12T10:26:48.164Z</time></trkpt><trkpt lat="43.6559307" lon="11.1854319"><ele>301.8</ele><time>2026-04-12T10:26:50.164Z</time></trkpt><trkpt lat="43.6559783" lon="11.1853451"><ele>300.2</ele><time>2026-04-12T10:26:51.165Z</time></trkpt><trkpt lat="43.6560343" lon="11.1852338"><ele>298.6</ele><time>2026-04-12T10:26:52.164Z</time></trkpt><trkpt lat="43.6560991" lon="11.185107"><ele>297.0</ele><time>2026-04-12T10:26:53.164Z</time></trkpt><trkpt lat="43.6561734" lon="11.1849596"><ele>300.0</ele><time>2026-04-12T10:26:54.165Z</time></trkpt><trkpt lat="43.6562478" lon="11.1848072"><ele>303.0</ele><time>2026-04-12T10:26:55.164Z</time></trkpt><trkpt lat="43.6563163" lon="11.1846701"><ele>306.0</ele><time>2026-04-12T10:26:56.165Z</time></trkpt><trkpt lat="43.6563629" lon="11.1845425"><ele>309.0</ele><time>2026-04-12T10:26:57.165Z</time></trkpt><trkpt lat="43.6564079" lon="11.1844325"><ele>312.0</ele><time>2026-04-12T10:26:58.164Z</time></trkpt><trkpt lat="43.6564259" lon="11.1843288"><ele>312.0</ele><time>2026-04-12T10:26:59.165Z</time></trkpt><trkpt lat="43.6564075" lon="11.1842406"><ele>312.0</ele><time>2026-04-12T10:27:00.165Z</time></trkpt><trkpt lat="43.6563447" lon="11.1841086"><ele>312.0</ele><time>2026-04-12T10:27:02.165Z</time></trkpt><trkpt lat="43.6561989" lon="11.1840719"><ele>312.0</ele><time>2026-04-12T10:27:03.164Z</time></trkpt><trkpt lat="43.6560746" lon="11.1840231"><ele>309.75</ele><time>2026-04-12T10:27:04.164Z</time></trkpt><trkpt lat="43.6559531" lon="11.1839735"><ele>307.5</ele><time>2026-04-12T10:27:05.165Z</time></trkpt><trkpt lat="43.6558295" lon="11.1839257"><ele>305.25</ele><time>2026-04-12T10:27:06.165Z</time></trkpt><trkpt lat="43.6556991" lon="11.1838671"><ele>303.0</ele><time>2026-04-12T10:27:07.164Z</time></trkpt><trkpt lat="43.6555664" lon="11.1838162"><ele>303.0</ele><time>2026-04-12T10:27:08.165Z</time></trkpt><trkpt lat="43.6554255" lon="11.1837794"><ele>303.0</ele><time>2026-04-12T10:27:09.164Z</time></trkpt><trkpt lat="43.6552858" lon="11.1837393"><ele>303.0</ele><time>2026-04-12T10:27:10.164Z</time></trkpt><trkpt lat="43.6551312" lon="11.1837092"><ele>303.0</ele><time>2026-04-12T10:27:11.165Z</time></trkpt><trkpt lat="43.6549937" lon="11.1836924"><ele>303.5</ele><time>2026-04-12T10:27:12.165Z</time></trkpt><trkpt lat="43.654869" lon="11.1836822"><ele>304.0</ele><time>2026-04-12T10:27:13.164Z</time></trkpt><trkpt lat="43.6547447" lon="11.1836676"><ele>304.5</ele><time>2026-04-12T10:27:14.164Z</time></trkpt><trkpt lat="43.6546219" lon="11.1836553"><ele>305.0</ele><time>2026-04-12T10:27:15.165Z</time></trkpt><trkpt lat="43.6545051" lon="11.1836438"><ele>304.6</ele><time>2026-04-12T10:27:16.164Z</time></trkpt><trkpt lat="43.6543936" lon="11.1836353"><ele>304.2</ele><time>2026-04-12T10:27:17.164Z</time></trkpt><trkpt lat="43.6542933" lon="11.183593"><ele>303.8</ele><time>2026-04-12T10:27:18.164Z</time></trkpt><trkpt lat="43.6542233" lon="11.1835261"><ele>303.4</ele><time>2026-04-12T10:27:19.164Z</time></trkpt><trkpt lat="43.6541501" lon="11.1834388"><ele>303.0</ele><time>2026-04-12T10:27:21.165Z</time></trkpt><trkpt lat="43.6541991" lon="11.1833517"><ele>303.0</ele><time>2026-04-12T10:27:23.165Z</time></trkpt><trkpt lat="43.6542714" lon="11.1832491"><ele>303.0</ele><time>2026-04-12T10:27:25.165Z</time></trkpt><trkpt lat="43.654315" lon="11.1831102"><ele>303.0</ele><time>2026-04-12T10:27:27.165Z</time></trkpt><trkpt lat="43.65438" lon="11.1830102"><ele>303.0</ele><time>2026-04-12T10:27:29.165Z</time></trkpt><trkpt lat="43.6544604" lon="11.1830007"><ele>303.0</ele><time>2026-04-12T10:27:30.165Z</time></trkpt><trkpt lat="43.6545619" lon="11.183006"><ele>293.0</ele><time>2026-04-12T10:27:31.165Z</time></trkpt><trkpt lat="43.6546455" lon="11.1830163"><ele>293.0</ele><time>2026-04-12T10:27:32.164Z</time></trkpt><trkpt lat="43.6547424" lon="11.1830177"><ele>293.0</ele><time>2026-04-12T10:27:34.165Z</time></trkpt><trkpt lat="43.6547759" lon="11.1830925"><ele>293.0</ele><time>2026-04-12T10:27:43.165Z</time></trkpt><trkpt lat="43.6547758" lon="11.1831836"><ele>305.0</ele><time>2026-04-12T10:30:06.165Z</time></trkpt></trkseg></trk></gpx>